<?xml version='1.0' encoding='UTF-8'?><gpx version="1.1" creator="JPX - https://github.com/jenetics/jpx" xmlns="http://www.topografix.com/GPX/1/1"><trk><trkseg><trkpt lat="37.966013367401075" lon="15.386181507800947"><ele>17.0</ele><time>2026-04-26T06:30:16Z</time></trkpt><trkpt lat="37.96605401721183" lon="15.3861127109827"><ele>17.0</ele><time>2026-04-26T06:31:31Z</time></trkpt><trkpt lat="37.96610029637232" lon="15.38604650548607"><ele>17.0</ele><time>2026-04-26T06:31:33Z</time></trkpt><trkpt lat="37.96611726077112" lon="15.385884481522888"><ele>17.0</ele><time>2026-04-26T06:31:35Z</time></trkpt><trkpt lat="37.9661231250143" lon="15.38577777069582"><ele>17.0</ele><time>2026-04-26T06:31:36Z</time></trkpt><trkpt lat="37.96613850333158" lon="15.385663677266612"><ele>17.0</ele><time>2026-04-26T06:31:37Z</time></trkpt><trkpt lat="37.9661703717192" lon="15.385536570841401"><ele>17.6</ele><time>2026-04-26T06:31:38Z</time></trkpt><trkpt lat="37.96620513322958" lon="15.385402103176272"><ele>18.2</ele><time>2026-04-26T06:31:39Z</time></trkpt><trkpt lat="37.96623494417844" lon="15.385305941502184"><ele>18.8</ele><time>2026-04-26T06:31:40Z</time></trkpt><trkpt lat="37.96627697177875" lon="15.385199334367103"><ele>19.4</ele><time>2026-04-26T06:31:41Z</time></trkpt><trkpt lat="37.96632345686893" lon="15.385102935761322"><ele>20.0</ele><time>2026-04-26T06:31:42Z</time></trkpt><trkpt lat="37.96636993179644" lon="15.385021087476389"><ele>20.0</ele><time>2026-04-26T06:31:43Z</time></trkpt><trkpt lat="37.966412709142084" lon="15.384937275107964"><ele>20.0</ele><time>2026-04-26T06:31:44Z</time></trkpt><trkpt lat="37.96643834202121" lon="15.384840313339764"><ele>20.0</ele><time>2026-04-26T06:31:45Z</time></trkpt><trkpt lat="37.966625967343724" lon="15.384853316477756"><ele>20.0</ele><time>2026-04-26T06:31:47Z</time></trkpt><trkpt lat="37.96669371573304" lon="15.384916006675764"><ele>20.0</ele><time>2026-04-26T06:31:48Z</time></trkpt><trkpt lat="37.96673288510016" lon="15.38500786720111"><ele>20.5</ele><time>2026-04-26T06:31:49Z</time></trkpt><trkpt lat="37.96674787217793" lon="15.385111329169828"><ele>21.0</ele><time>2026-04-26T06:31:50Z</time></trkpt><trkpt lat="37.966767488190996" lon="15.385222181423117"><ele>21.5</ele><time>2026-04-26T06:31:51Z</time></trkpt><trkpt lat="37.96680158214658" lon="15.385319045356843"><ele>22.0</ele><time>2026-04-26T06:31:52Z</time></trkpt><trkpt lat="37.966848813378434" lon="15.385404229662466"><ele>22.5</ele><time>2026-04-26T06:31:53Z</time></trkpt><trkpt lat="37.96692994243293" lon="15.385443524804217"><ele>23.0</ele><time>2026-04-26T06:31:54Z</time></trkpt><trkpt lat="37.966986338236566" lon="15.385510171019536"><ele>23.0</ele><time>2026-04-26T06:31:55Z</time></trkpt><trkpt lat="37.96703972475671" lon="15.385568751139528"><ele>23.0</ele><time>2026-04-26T06:31:56Z</time></trkpt><trkpt lat="37.96709630689812" lon="15.385627960648769"><ele>23.0</ele><time>2026-04-26T06:31:57Z</time></trkpt><trkpt lat="37.967155435452234" lon="15.385681199002828"><ele>23.0</ele><time>2026-04-26T06:31:58Z</time></trkpt><trkpt lat="37.967221138332754" lon="15.385718351434308"><ele>23.0</ele><time>2026-04-26T06:31:59Z</time></trkpt><trkpt lat="37.967301093317545" lon="15.385744648601642"><ele>23.0</ele><time>2026-04-26T06:32:00Z</time></trkpt><trkpt lat="37.96738471040948" lon="15.385789862233027"><ele>23.0</ele><time>2026-04-26T06:32:01Z</time></trkpt><trkpt lat="37.967477642727744" lon="15.385807757716751"><ele>23.0</ele><time>2026-04-26T06:32:02Z</time></trkpt><trkpt lat="37.967568661021446" lon="15.385828751237327"><ele>23.0</ele><time>2026-04-26T06:32:03Z</time></trkpt><trkpt lat="37.9676588680344" lon="15.385860732122504"><ele>23.0</ele><time>2026-04-26T06:32:04Z</time></trkpt><trkpt lat="37.96776369851009" lon="15.385902143840486"><ele>23.0</ele><time>2026-04-26T06:32:05Z</time></trkpt><trkpt lat="37.96788182087324" lon="15.385940777222618"><ele>23.25</ele><time>2026-04-26T06:32:06Z</time></trkpt><trkpt lat="37.968004170366136" lon="15.385981536601376"><ele>23.5</ele><time>2026-04-26T06:32:07Z</time></trkpt><trkpt lat="37.96811624055993" lon="15.386004911323898"><ele>23.75</ele><time>2026-04-26T06:32:08Z</time></trkpt><trkpt lat="37.96823805217464" lon="15.386022806105894"><ele>24.0</ele><time>2026-04-26T06:32:09Z</time></trkpt><trkpt lat="37.96836915559722" lon="15.386032962903116"><ele>24.25</ele><time>2026-04-26T06:32:10Z</time></trkpt><trkpt lat="37.968508285292764" lon="15.38602386071786"><ele>24.5</ele><time>2026-04-26T06:32:11Z</time></trkpt><trkpt lat="37.96864381659206" lon="15.385999913213853"><ele>24.75</ele><time>2026-04-26T06:32:12Z</time></trkpt><trkpt lat="37.96876406053337" lon="15.385967382579251"><ele>25.0</ele><time>2026-04-26T06:32:13Z</time></trkpt><trkpt lat="37.96887743428202" lon="15.38592875547329"><ele>25.0</ele><time>2026-04-26T06:32:14Z</time></trkpt><trkpt lat="37.968984219288274" lon="15.385880277437533"><ele>25.0</ele><time>2026-04-26T06:32:15Z</time></trkpt><trkpt lat="37.96908829211206" lon="15.385829515491801"><ele>25.0</ele><time>2026-04-26T06:32:16Z</time></trkpt><trkpt lat="37.96918486563623" lon="15.385768622024168"><ele>25.0</ele><time>2026-04-26T06:32:17Z</time></trkpt><trkpt lat="37.9692783757552" lon="15.38570274960991"><ele>25.0</ele><time>2026-04-26T06:32:18Z</time></trkpt><trkpt lat="37.969365410552506" lon="15.385626540961269"><ele>25.4</ele><time>2026-04-26T06:32:19Z</time></trkpt><trkpt lat="37.969446536065426" lon="15.385546316512768"><ele>25.8</ele><time>2026-04-26T06:32:20Z</time></trkpt><trkpt lat="37.96952802212055" lon="15.38546527665463"><ele>26.200000000000003</ele><time>2026-04-26T06:32:21Z</time></trkpt><trkpt lat="37.96960823279177" lon="15.385378212240552"><ele>26.6</ele><time>2026-04-26T06:32:22Z</time></trkpt><trkpt lat="37.969683331897755" lon="15.385288204087498"><ele>27.0</ele><time>2026-04-26T06:32:23Z</time></trkpt><trkpt lat="37.96976153838482" lon="15.385181998351436"><ele>27.75</ele><time>2026-04-26T06:32:24Z</time></trkpt><trkpt lat="37.969846579152836" lon="15.38507115919951"><ele>28.5</ele><time>2026-04-26T06:32:25Z</time></trkpt><trkpt lat="37.96992818305944" lon="15.384947910155073"><ele>29.25</ele><time>2026-04-26T06:32:26Z</time></trkpt><trkpt lat="37.97000982060632" lon="15.384822942425568"><ele>30.0</ele><time>2026-04-26T06:32:27Z</time></trkpt><trkpt lat="37.97011115064719" lon="15.38472907303547"><ele>31.0</ele><time>2026-04-26T06:32:28Z</time></trkpt><trkpt lat="37.97021438037718" lon="15.384605762112464"><ele>32.0</ele><time>2026-04-26T06:32:29Z</time></trkpt><trkpt lat="37.97030375018739" lon="15.38449115567594"><ele>33.0</ele><time>2026-04-26T06:32:30Z</time></trkpt><trkpt lat="37.970394775207545" lon="15.384371542121338"><ele>34.0</ele><time>2026-04-26T06:32:31Z</time></trkpt><trkpt lat="37.97047711256238" lon="15.384248953689417"><ele>34.0</ele><time>2026-04-26T06:32:32Z</time></trkpt><trkpt lat="37.97053493253083" lon="15.38411450148393"><ele>34.0</ele><time>2026-04-26T06:32:33Z</time></trkpt><trkpt lat="37.970566270193686" lon="15.383962909312046"><ele>34.0</ele><time>2026-04-26T06:32:34Z</time></trkpt><trkpt lat="37.970555697603146" lon="15.383808628700562"><ele>34.0</ele><time>2026-04-26T06:32:35Z</time></trkpt><trkpt lat="37.970518258398485" lon="15.38366206165467"><ele>34.75</ele><time>2026-04-26T06:32:36Z</time></trkpt><trkpt lat="37.97045436730269" lon="15.383529487250117"><ele>35.5</ele><time>2026-04-26T06:32:37Z</time></trkpt><trkpt lat="37.970364947342915" lon="15.383421365124"><ele>36.25</ele><time>2026-04-26T06:32:38Z</time></trkpt><trkpt lat="37.97026113873188" lon="15.383343075439909"><ele>37.0</ele><time>2026-04-26T06:32:39Z</time></trkpt><trkpt lat="37.97014155126193" lon="15.38330064089587"><ele>36.5</ele><time>2026-04-26T06:32:40Z</time></trkpt><trkpt lat="37.97001429270854" lon="15.383301298377921"><ele>36.0</ele><time>2026-04-26T06:32:41Z</time></trkpt><trkpt lat="37.96989082355704" lon="15.38334108077535"><ele>35.5</ele><time>2026-04-26T06:32:42Z</time></trkpt><trkpt lat="37.969785377428074" lon="15.383443962210668"><ele>35.0</ele><time>2026-04-26T06:32:43Z</time></trkpt><trkpt lat="37.969668019084914" lon="15.383525638402785"><ele>35.0</ele><time>2026-04-26T06:32:44Z</time></trkpt><trkpt lat="37.96956192408449" lon="15.383634912305077"><ele>35.0</ele><time>2026-04-26T06:32:45Z</time></trkpt><trkpt lat="37.96943696532676" lon="15.383724663528115"><ele>35.0</ele><time>2026-04-26T06:32:46Z</time></trkpt><trkpt lat="37.969290483573936" lon="15.383761176270509"><ele>35.0</ele><time>2026-04-26T06:32:47Z</time></trkpt><trkpt lat="37.969135051301805" lon="15.38375264937854"><ele>34.666666666666664</ele><time>2026-04-26T06:32:48Z</time></trkpt><trkpt lat="37.96897749280496" lon="15.383713264564694"><ele>34.333333333333336</ele><time>2026-04-26T06:32:49Z</time></trkpt><trkpt lat="37.96881959557663" lon="15.38366007836183"><ele>34.0</ele><time>2026-04-26T06:32:50Z</time></trkpt><trkpt lat="37.96866580017069" lon="15.383584956033157"><ele>34.0</ele><time>2026-04-26T06:32:51Z</time></trkpt><trkpt lat="37.968513433019254" lon="15.383491901862895"><ele>34.0</ele><time>2026-04-26T06:32:52Z</time></trkpt><trkpt lat="37.968357035020524" lon="15.38338345112734"><ele>34.0</ele><time>2026-04-26T06:32:53Z</time></trkpt><trkpt lat="37.96819397507399" lon="15.383277743094533"><ele>34.0</ele><time>2026-04-26T06:32:54Z</time></trkpt><trkpt lat="37.96802963633801" lon="15.383168606334989"><ele>34.0</ele><time>2026-04-26T06:32:55Z</time></trkpt><trkpt lat="37.96786009159874" lon="15.383056976583541"><ele>34.0</ele><time>2026-04-26T06:32:56Z</time></trkpt><trkpt lat="37.967683754937696" lon="15.382946577188974"><ele>33.0</ele><time>2026-04-26T06:32:57Z</time></trkpt><trkpt lat="37.96749941542133" lon="15.382826341014624"><ele>32.0</ele><time>2026-04-26T06:32:58Z</time></trkpt><trkpt lat="37.96730728040034" lon="15.382698858638815"><ele>31.0</ele><time>2026-04-26T06:32:59Z</time></trkpt><trkpt lat="37.96710654910576" lon="15.382567198131966"><ele>31.0</ele><time>2026-04-26T06:33:00Z</time></trkpt><trkpt lat="37.966898472997094" lon="15.382426530360902"><ele>31.0</ele><time>2026-04-26T06:33:01Z</time></trkpt><trkpt lat="37.96667652152576" lon="15.382276900834023"><ele>30.5</ele><time>2026-04-26T06:33:02Z</time></trkpt><trkpt lat="37.96643741624629" lon="15.382114419178256"><ele>30.0</ele><time>2026-04-26T06:33:03Z</time></trkpt><trkpt lat="37.966181775434116" lon="15.381933422038587"><ele>30.0</ele><time>2026-04-26T06:33:04Z</time></trkpt><trkpt lat="37.965904432887335" lon="15.38174174090068"><ele>30.0</ele><time>2026-04-26T06:33:05Z</time></trkpt><trkpt lat="37.96562428347574" lon="15.381552771491084"><ele>30.5</ele><time>2026-04-26T06:33:06Z</time></trkpt><trkpt lat="37.96534928969711" lon="15.381364894440676"><ele>31.0</ele><time>2026-04-26T06:33:07Z</time></trkpt><trkpt lat="37.96508236537047" lon="15.381177200118241"><ele>37.0</ele><time>2026-04-26T06:33:08Z</time></trkpt><trkpt lat="37.96482508458709" lon="15.381000057389507"><ele>43.0</ele><time>2026-04-26T06:33:09Z</time></trkpt><trkpt lat="37.96458187844314" lon="15.380823777334362"><ele>43.0</ele><time>2026-04-26T06:33:10Z</time></trkpt><trkpt lat="37.96435879916197" lon="15.38064850951687"><ele>43.0</ele><time>2026-04-26T06:33:11Z</time></trkpt><trkpt lat="37.96415053645194" lon="15.380472463211499"><ele>48.5</ele><time>2026-04-26T06:33:12Z</time></trkpt><trkpt lat="37.963937199633385" lon="15.380289881001747"><ele>54.0</ele><time>2026-04-26T06:33:13Z</time></trkpt><trkpt lat="37.96372559969853" lon="15.38008916438955"><ele>54.0</ele><time>2026-04-26T06:33:14Z</time></trkpt><trkpt lat="37.96351968300996" lon="15.379864715305603"><ele>54.0</ele><time>2026-04-26T06:33:15Z</time></trkpt><trkpt lat="37.96332676062989" lon="15.379612580499488"><ele>52.0</ele><time>2026-04-26T06:33:16Z</time></trkpt><trkpt lat="37.963138423729035" lon="15.379351100400454"><ele>50.0</ele><time>2026-04-26T06:33:17Z</time></trkpt><trkpt lat="37.962976555397645" lon="15.379063430429813"><ele>51.0</ele><time>2026-04-26T06:33:18Z</time></trkpt><trkpt lat="37.96281943923427" lon="15.37878188211957"><ele>52.0</ele><time>2026-04-26T06:33:19Z</time></trkpt><trkpt lat="37.96265349843334" lon="15.378508557899174"><ele>42.5</ele><time>2026-04-26T06:33:20Z</time></trkpt><trkpt lat="37.962481638747626" lon="15.37824052277314"><ele>33.0</ele><time>2026-04-26T06:33:21Z</time></trkpt><trkpt lat="37.96230706243069" lon="15.377967692481112"><ele>31.5</ele><time>2026-04-26T06:33:22Z</time></trkpt><trkpt lat="37.96213457629386" lon="15.377695395510898"><ele>30.0</ele><time>2026-04-26T06:33:23Z</time></trkpt><trkpt lat="37.96196284879033" lon="15.377424752644012"><ele>29.0</ele><time>2026-04-26T06:33:24Z</time></trkpt><trkpt lat="37.961790618238545" lon="15.377151513868872"><ele>28.0</ele><time>2026-04-26T06:33:25Z</time></trkpt><trkpt lat="37.96161563587957" lon="15.376885971515204"><ele>25.0</ele><time>2026-04-26T06:33:26Z</time></trkpt><trkpt lat="37.96141672263789" lon="15.376632021643392"><ele>22.0</ele><time>2026-04-26T06:33:27Z</time></trkpt><trkpt lat="37.961217933369035" lon="15.37638792691994"><ele>21.0</ele><time>2026-04-26T06:33:28Z</time></trkpt><trkpt lat="37.96100477613706" lon="15.376151936334445"><ele>20.0</ele><time>2026-04-26T06:33:29Z</time></trkpt><trkpt lat="37.96078869340484" lon="15.375919515486123"><ele>20.0</ele><time>2026-04-26T06:33:30Z</time></trkpt><trkpt lat="37.960571020422606" lon="15.37569094321429"><ele>20.0</ele><time>2026-04-26T06:33:31Z</time></trkpt><trkpt lat="37.96035402605219" lon="15.375463021088375"><ele>20.0</ele><time>2026-04-26T06:33:32Z</time></trkpt><trkpt lat="37.96014081074318" lon="15.375233610548158"><ele>20.0</ele><time>2026-04-26T06:33:33Z</time></trkpt><trkpt lat="37.959929615178645" lon="15.375007429920236"><ele>20.0</ele><time>2026-04-26T06:33:34Z</time></trkpt><trkpt lat="37.95972088956603" lon="15.374780508361674"><ele>20.0</ele><time>2026-04-26T06:33:35Z</time></trkpt><trkpt lat="37.95951613615784" lon="15.374561084588848"><ele>20.0</ele><time>2026-04-26T06:33:36Z</time></trkpt><trkpt lat="37.95931502764846" lon="15.374337821406051"><ele>20.0</ele><time>2026-04-26T06:33:37Z</time></trkpt><trkpt lat="37.95911460277261" lon="15.374119605849955"><ele>21.0</ele><time>2026-04-26T06:33:38Z</time></trkpt><trkpt lat="37.95891442742623" lon="15.37391100948349"><ele>22.0</ele><time>2026-04-26T06:33:39Z</time></trkpt><trkpt lat="37.958720390187565" lon="15.373704098488606"><ele>22.5</ele><time>2026-04-26T06:33:40Z</time></trkpt><trkpt lat="37.95852589117982" lon="15.373496952507743"><ele>23.0</ele><time>2026-04-26T06:33:41Z</time></trkpt><trkpt lat="37.95832657175232" lon="15.373290381142391"><ele>23.0</ele><time>2026-04-26T06:33:42Z</time></trkpt><trkpt lat="37.95813212116573" lon="15.37307867050373"><ele>23.0</ele><time>2026-04-26T06:33:43Z</time></trkpt><trkpt lat="37.95793258472092" lon="15.372863249226059"><ele>23.5</ele><time>2026-04-26T06:33:44Z</time></trkpt><trkpt lat="37.95773341065525" lon="15.37264908517537"><ele>24.0</ele><time>2026-04-26T06:33:45Z</time></trkpt><trkpt lat="37.957535686983455" lon="15.37243134096831"><ele>24.0</ele><time>2026-04-26T06:33:46Z</time></trkpt><trkpt lat="37.957334918563745" lon="15.372219787251744"><ele>24.0</ele><time>2026-04-26T06:33:47Z</time></trkpt><trkpt lat="37.95714117503559" lon="15.372005729823607"><ele>24.0</ele><time>2026-04-26T06:33:48Z</time></trkpt><trkpt lat="37.956947829952085" lon="15.371790765131085"><ele>24.0</ele><time>2026-04-26T06:33:49Z</time></trkpt><trkpt lat="37.95675190715993" lon="15.371584329636955"><ele>24.5</ele><time>2026-04-26T06:33:50Z</time></trkpt><trkpt lat="37.956556492462774" lon="15.37138109590241"><ele>25.0</ele><time>2026-04-26T06:33:51Z</time></trkpt><trkpt lat="37.95635845140209" lon="15.37118387002921"><ele>25.0</ele><time>2026-04-26T06:33:52Z</time></trkpt><trkpt lat="37.95615192803941" lon="15.371001018743979"><ele>25.0</ele><time>2026-04-26T06:33:53Z</time></trkpt><trkpt lat="37.955942993795695" lon="15.370828649687954"><ele>26.0</ele><time>2026-04-26T06:33:54Z</time></trkpt><trkpt lat="37.955731868887064" lon="15.370666600533072"><ele>27.0</ele><time>2026-04-26T06:33:55Z</time></trkpt><trkpt lat="37.9555135909913" lon="15.37052189623422"><ele>27.0</ele><time>2026-04-26T06:33:56Z</time></trkpt><trkpt lat="37.955286603778305" lon="15.370393366993365"><ele>27.0</ele><time>2026-04-26T06:33:57Z</time></trkpt><trkpt lat="37.95506094788169" lon="15.370267934425364"><ele>25.0</ele><time>2026-04-26T06:33:58Z</time></trkpt><trkpt lat="37.954835643042905" lon="15.370147012224262"><ele>23.0</ele><time>2026-04-26T06:33:59Z</time></trkpt><trkpt lat="37.95460428043698" lon="15.37002237779019"><ele>23.0</ele><time>2026-04-26T06:34:00Z</time></trkpt><trkpt lat="37.954377928831875" lon="15.369906230766428"><ele>23.0</ele><time>2026-04-26T06:34:01Z</time></trkpt><trkpt lat="37.95415000742226" lon="15.369783783035192"><ele>25.0</ele><time>2026-04-26T06:34:02Z</time></trkpt><trkpt lat="37.953923554254004" lon="15.369660218978057"><ele>27.0</ele><time>2026-04-26T06:34:03Z</time></trkpt><trkpt lat="37.95369705009788" lon="15.369539611704079"><ele>27.0</ele><time>2026-04-26T06:34:04Z</time></trkpt><trkpt lat="37.953468913275096" lon="15.369420631119242"><ele>27.0</ele><time>2026-04-26T06:34:05Z</time></trkpt><trkpt lat="37.95323617536906" lon="15.369298540498402"><ele>29.0</ele><time>2026-04-26T06:34:06Z</time></trkpt><trkpt lat="37.953005570823784" lon="15.369173901044661"><ele>31.0</ele><time>2026-04-26T06:34:07Z</time></trkpt><trkpt lat="37.95277281338738" lon="15.369048892414005"><ele>31.0</ele><time>2026-04-26T06:34:08Z</time></trkpt><trkpt lat="37.95254158349226" lon="15.368906633700876"><ele>31.0</ele><time>2026-04-26T06:34:09Z</time></trkpt><trkpt lat="37.95232447556222" lon="15.368746246946259"><ele>47.0</ele><time>2026-04-26T06:34:10Z</time></trkpt><trkpt lat="37.95211393222619" lon="15.368569203441135"><ele>63.0</ele><time>2026-04-26T06:34:11Z</time></trkpt><trkpt lat="37.95190992387414" lon="15.368377444171152"><ele>63.0</ele><time>2026-04-26T06:34:12Z</time></trkpt><trkpt lat="37.951714521639474" lon="15.368168829880334"><ele>63.0</ele><time>2026-04-26T06:34:13Z</time></trkpt><trkpt lat="37.95152453065904" lon="15.367952379508896"><ele>62.0</ele><time>2026-04-26T06:34:14Z</time></trkpt><trkpt lat="37.95133860719476" lon="15.367736101096844"><ele>61.0</ele><time>2026-04-26T06:34:15Z</time></trkpt><trkpt lat="37.951160148381405" lon="15.367527006814889"><ele>61.0</ele><time>2026-04-26T06:34:16Z</time></trkpt><trkpt lat="37.950984495742055" lon="15.367319727076879"><ele>61.0</ele><time>2026-04-26T06:34:17Z</time></trkpt><trkpt lat="37.9508100043653" lon="15.367120103301245"><ele>63.666666666666664</ele><time>2026-04-26T06:34:18Z</time></trkpt><trkpt lat="37.95063381789835" lon="15.36693662289794"><ele>66.33333333333333</ele><time>2026-04-26T06:34:19Z</time></trkpt><trkpt lat="37.95045796535439" lon="15.366769042715363"><ele>69.0</ele><time>2026-04-26T06:34:20Z</time></trkpt><trkpt lat="37.950278127887046" lon="15.366610649948546"><ele>69.0</ele><time>2026-04-26T06:34:21Z</time></trkpt><trkpt lat="37.95009012805404" lon="15.366453758897782"><ele>69.0</ele><time>2026-04-26T06:34:22Z</time></trkpt><trkpt lat="37.949892302928674" lon="15.366294428008064"><ele>69.5</ele><time>2026-04-26T06:34:23Z</time></trkpt><trkpt lat="37.94968472331288" lon="15.366138314741251"><ele>70.0</ele><time>2026-04-26T06:34:24Z</time></trkpt><trkpt lat="37.94946785214012" lon="15.365987905954064"><ele>70.0</ele><time>2026-04-26T06:34:25Z</time></trkpt><trkpt lat="37.94924546055656" lon="15.36584046958392"><ele>70.0</ele><time>2026-04-26T06:34:26Z</time></trkpt><trkpt lat="37.949015501124165" lon="15.36569526181763"><ele>71.5</ele><time>2026-04-26T06:34:27Z</time></trkpt><trkpt lat="37.948783412765174" lon="15.365544234246554"><ele>73.0</ele><time>2026-04-26T06:34:28Z</time></trkpt><trkpt lat="37.94854592937108" lon="15.365400126950291"><ele>69.0</ele><time>2026-04-26T06:34:29Z</time></trkpt><trkpt lat="37.94830981466365" lon="15.3652339925165"><ele>65.0</ele><time>2026-04-26T06:34:30Z</time></trkpt><trkpt lat="37.948069056931956" lon="15.36506372449085"><ele>65.0</ele><time>2026-04-26T06:34:31Z</time></trkpt><trkpt lat="37.947824839350794" lon="15.364898232861355"><ele>65.0</ele><time>2026-04-26T06:34:32Z</time></trkpt><trkpt lat="37.94757539115041" lon="15.364734288304415"><ele>64.5</ele><time>2026-04-26T06:34:33Z</time></trkpt><trkpt lat="37.94732470309354" lon="15.364567731564328"><ele>64.0</ele><time>2026-04-26T06:34:34Z</time></trkpt><trkpt lat="37.947069015059206" lon="15.364398289017535"><ele>64.0</ele><time>2026-04-26T06:34:35Z</time></trkpt><trkpt lat="37.94681057812182" lon="15.36422303405399"><ele>64.0</ele><time>2026-04-26T06:34:36Z</time></trkpt><trkpt lat="37.946548267704856" lon="15.364046597798861"><ele>65.5</ele><time>2026-04-26T06:34:37Z</time></trkpt><trkpt lat="37.94628302783844" lon="15.363870792628473"><ele>67.0</ele><time>2026-04-26T06:34:38Z</time></trkpt><trkpt lat="37.946011861361335" lon="15.363691118405098"><ele>63.5</ele><time>2026-04-26T06:34:39Z</time></trkpt><trkpt lat="37.94573936723022" lon="15.36350296064646"><ele>60.0</ele><time>2026-04-26T06:34:40Z</time></trkpt><trkpt lat="37.94546247941784" lon="15.363307035459854"><ele>60.0</ele><time>2026-04-26T06:34:41Z</time></trkpt><trkpt lat="37.94518214462449" lon="15.363102017068353"><ele>60.0</ele><time>2026-04-26T06:34:42Z</time></trkpt><trkpt lat="37.94489785810027" lon="15.362886980956338"><ele>59.0</ele><time>2026-04-26T06:34:43Z</time></trkpt><trkpt lat="37.94461283102238" lon="15.36266676458209"><ele>58.0</ele><time>2026-04-26T06:34:44Z</time></trkpt><trkpt lat="37.94432549609729" lon="15.362437220155693"><ele>56.0</ele><time>2026-04-26T06:34:45Z</time></trkpt><trkpt lat="37.94403695683913" lon="15.362202908893064"><ele>54.0</ele><time>2026-04-26T06:34:46Z</time></trkpt><trkpt lat="37.94375149214933" lon="15.36196968282931"><ele>58.0</ele><time>2026-04-26T06:34:47Z</time></trkpt><trkpt lat="37.94347358291223" lon="15.361738619357942"><ele>62.0</ele><time>2026-04-26T06:34:48Z</time></trkpt><trkpt lat="37.94320406484731" lon="15.36151541519442"><ele>61.5</ele><time>2026-04-26T06:34:49Z</time></trkpt><trkpt lat="37.94294464904924" lon="15.361302536465425"><ele>61.0</ele><time>2026-04-26T06:34:50Z</time></trkpt><trkpt lat="37.942694370690866" lon="15.361097020276066"><ele>50.0</ele><time>2026-04-26T06:34:51Z</time></trkpt><trkpt lat="37.94245877921531" lon="15.360889658635159"><ele>39.0</ele><time>2026-04-26T06:34:52Z</time></trkpt><trkpt lat="37.94223548112432" lon="15.360677306164437"><ele>39.0</ele><time>2026-04-26T06:34:53Z</time></trkpt><trkpt lat="37.94202135075178" lon="15.360460590159178"><ele>39.0</ele><time>2026-04-26T06:34:54Z</time></trkpt><trkpt lat="37.94181295407458" lon="15.360237598777577"><ele>37.0</ele><time>2026-04-26T06:34:55Z</time></trkpt><trkpt lat="37.94160946648044" lon="15.360003538626492"><ele>35.0</ele><time>2026-04-26T06:34:56Z</time></trkpt><trkpt lat="37.94141012369822" lon="15.359759782281103"><ele>37.5</ele><time>2026-04-26T06:34:57Z</time></trkpt><trkpt lat="37.9412164638332" lon="15.359506881912731"><ele>40.0</ele><time>2026-04-26T06:34:58Z</time></trkpt><trkpt lat="37.941021763327406" lon="15.359250027763336"><ele>40.0</ele><time>2026-04-26T06:34:59Z</time></trkpt><trkpt lat="37.94082816081109" lon="15.358986834256312"><ele>40.0</ele><time>2026-04-26T06:35:00Z</time></trkpt><trkpt lat="37.94062900920337" lon="15.35872367105291"><ele>41.5</ele><time>2026-04-26T06:35:01Z</time></trkpt><trkpt lat="37.94042728353065" lon="15.358459319264346"><ele>43.0</ele><time>2026-04-26T06:35:02Z</time></trkpt><trkpt lat="37.94022486992098" lon="15.358194653555017"><ele>47.5</ele><time>2026-04-26T06:35:03Z</time></trkpt><trkpt lat="37.940020402686876" lon="15.357929510068054"><ele>52.0</ele><time>2026-04-26T06:35:04Z</time></trkpt><trkpt lat="37.939817468994" lon="15.35766290763961"><ele>52.0</ele><time>2026-04-26T06:35:05Z</time></trkpt><trkpt lat="37.93961507587211" lon="15.357389097471883"><ele>52.0</ele><time>2026-04-26T06:35:06Z</time></trkpt><trkpt lat="37.93941220835817" lon="15.357115408125125"><ele>50.0</ele><time>2026-04-26T06:35:07Z</time></trkpt><trkpt lat="37.93920690538959" lon="15.356848893412327"><ele>48.0</ele><time>2026-04-26T06:35:08Z</time></trkpt><trkpt lat="37.93900430582815" lon="15.35658206171261"><ele>49.5</ele><time>2026-04-26T06:35:09Z</time></trkpt><trkpt lat="37.93880281807116" lon="15.356316864869363"><ele>51.0</ele><time>2026-04-26T06:35:10Z</time></trkpt><trkpt lat="37.93860402480691" lon="15.356054316763545"><ele>51.0</ele><time>2026-04-26T06:35:11Z</time></trkpt><trkpt lat="37.938409203871814" lon="15.355790649762223"><ele>51.0</ele><time>2026-04-26T06:35:12Z</time></trkpt><trkpt lat="37.938215992984084" lon="15.355526981845568"><ele>43.5</ele><time>2026-04-26T06:35:13Z</time></trkpt><trkpt lat="37.93802290704844" lon="15.355267780728079"><ele>36.0</ele><time>2026-04-26T06:35:14Z</time></trkpt><trkpt lat="37.937829332609724" lon="15.355010864269397"><ele>36.0</ele><time>2026-04-26T06:35:15Z</time></trkpt><trkpt lat="37.93763548831356" lon="15.354755951192507"><ele>36.0</ele><time>2026-04-26T06:35:16Z</time></trkpt><trkpt lat="37.93743966639255" lon="15.354499545092628"><ele>33.5</ele><time>2026-04-26T06:35:17Z</time></trkpt><trkpt lat="37.93724291413226" lon="15.354247816390611"><ele>31.0</ele><time>2026-04-26T06:35:18Z</time></trkpt><trkpt lat="37.93704131232666" lon="15.354005060435176"><ele>29.0</ele><time>2026-04-26T06:35:19Z</time></trkpt><trkpt lat="37.93682503914331" lon="15.353778068634947"><ele>27.0</ele><time>2026-04-26T06:35:20Z</time></trkpt><trkpt lat="37.93660055351326" lon="15.353552925847772"><ele>27.0</ele><time>2026-04-26T06:35:21Z</time></trkpt><trkpt lat="37.93637384947957" lon="15.353326402694034"><ele>27.0</ele><time>2026-04-26T06:35:22Z</time></trkpt><trkpt lat="37.93613854957327" lon="15.353108843190512"><ele>24.5</ele><time>2026-04-26T06:35:23Z</time></trkpt><trkpt lat="37.93589374703366" lon="15.352900246654157"><ele>22.0</ele><time>2026-04-26T06:35:24Z</time></trkpt><trkpt lat="37.93564305840276" lon="15.352698204622378"><ele>20.0</ele><time>2026-04-26T06:35:25Z</time></trkpt><trkpt lat="37.93538583004533" lon="15.352507787233511"><ele>18.0</ele><time>2026-04-26T06:35:26Z</time></trkpt><trkpt lat="37.93512346475801" lon="15.35232635666319"><ele>16.5</ele><time>2026-04-26T06:35:27Z</time></trkpt><trkpt lat="37.934859378287186" lon="15.352156119283908"><ele>15.0</ele><time>2026-04-26T06:35:28Z</time></trkpt><trkpt lat="37.934594959710616" lon="15.351996074044445"><ele>15.0</ele><time>2026-04-26T06:35:29Z</time></trkpt><trkpt lat="37.93433112828051" lon="15.351841074075365"><ele>15.0</ele><time>2026-04-26T06:35:30Z</time></trkpt><trkpt lat="37.93406878191044" lon="15.351689649783975"><ele>13.5</ele><time>2026-04-26T06:35:31Z</time></trkpt><trkpt lat="37.93380938204304" lon="15.351538364376713"><ele>12.0</ele><time>2026-04-26T06:35:32Z</time></trkpt><trkpt lat="37.93355186135829" lon="15.351388289209488"><ele>14.5</ele><time>2026-04-26T06:35:33Z</time></trkpt><trkpt lat="37.93329715279897" lon="15.351243480651641"><ele>17.0</ele><time>2026-04-26T06:35:34Z</time></trkpt><trkpt lat="37.933041938007996" lon="15.35110795610264"><ele>17.0</ele><time>2026-04-26T06:35:35Z</time></trkpt><trkpt lat="37.932782409812084" lon="15.350994559567184"><ele>17.0</ele><time>2026-04-26T06:35:36Z</time></trkpt><trkpt lat="37.93251931115414" lon="15.350900450818585"><ele>17.5</ele><time>2026-04-26T06:35:37Z</time></trkpt><trkpt lat="37.93225296775499" lon="15.350824753076392"><ele>18.0</ele><time>2026-04-26T06:35:38Z</time></trkpt><trkpt lat="37.93198271307541" lon="15.350772341023353"><ele>19.0</ele><time>2026-04-26T06:35:39Z</time></trkpt><trkpt lat="37.93170793427765" lon="15.350741723913135"><ele>20.0</ele><time>2026-04-26T06:35:40Z</time></trkpt><trkpt lat="37.93143056852461" lon="15.350731163073121"><ele>20.0</ele><time>2026-04-26T06:35:41Z</time></trkpt><trkpt lat="37.931152025478426" lon="15.350740630542102"><ele>20.0</ele><time>2026-04-26T06:35:42Z</time></trkpt><trkpt lat="37.93087251380017" lon="15.350755332398608"><ele>22.5</ele><time>2026-04-26T06:35:43Z</time></trkpt><trkpt lat="37.93059149975716" lon="15.350770861925309"><ele>25.0</ele><time>2026-04-26T06:35:44Z</time></trkpt><trkpt lat="37.930309860753496" lon="15.350779321995715"><ele>26.0</ele><time>2026-04-26T06:35:45Z</time></trkpt><trkpt lat="37.93002742991603" lon="15.350785700799257"><ele>27.0</ele><time>2026-04-26T06:35:46Z</time></trkpt><trkpt lat="37.92974372208099" lon="15.350788593843355"><ele>27.0</ele><time>2026-04-26T06:35:47Z</time></trkpt><trkpt lat="37.92945823621542" lon="15.350772561055264"><ele>27.0</ele><time>2026-04-26T06:35:48Z</time></trkpt><trkpt lat="37.92917655144726" lon="15.350730044479747"><ele>25.5</ele><time>2026-04-26T06:35:49Z</time></trkpt><trkpt lat="37.92889514163478" lon="15.350665176327961"><ele>24.0</ele><time>2026-04-26T06:35:50Z</time></trkpt><trkpt lat="37.92862582967999" lon="15.350593749094044"><ele>35.5</ele><time>2026-04-26T06:35:51Z</time></trkpt><trkpt lat="37.928352912987954" lon="15.350486704909438"><ele>47.0</ele><time>2026-04-26T06:35:52Z</time></trkpt><trkpt lat="37.928085998760196" lon="15.350356960108636"><ele>47.0</ele><time>2026-04-26T06:35:53Z</time></trkpt><trkpt lat="37.92782030390125" lon="15.350202081726982"><ele>47.0</ele><time>2026-04-26T06:35:54Z</time></trkpt><trkpt lat="37.927565953201444" lon="15.35002312095132"><ele>46.5</ele><time>2026-04-26T06:35:55Z</time></trkpt><trkpt lat="37.92731991262819" lon="15.3498250470903"><ele>46.0</ele><time>2026-04-26T06:35:56Z</time></trkpt><trkpt lat="37.92708788622042" lon="15.349604274256793"><ele>46.0</ele><time>2026-04-26T06:35:57Z</time></trkpt><trkpt lat="37.92686324929003" lon="15.34936934228914"><ele>46.0</ele><time>2026-04-26T06:35:58Z</time></trkpt><trkpt lat="37.926642843891045" lon="15.34912654406781"><ele>44.5</ele><time>2026-04-26T06:35:59Z</time></trkpt><trkpt lat="37.92642760319149" lon="15.34888211122308"><ele>43.0</ele><time>2026-04-26T06:36:00Z</time></trkpt><trkpt lat="37.92621190289963" lon="15.348640716176515"><ele>43.0</ele><time>2026-04-26T06:36:01Z</time></trkpt><trkpt lat="37.925995601221835" lon="15.348401719078902"><ele>43.0</ele><time>2026-04-26T06:36:02Z</time></trkpt><trkpt lat="37.92577850234503" lon="15.348164444493825"><ele>35.5</ele><time>2026-04-26T06:36:03Z</time></trkpt><trkpt lat="37.925562371175815" lon="15.34792536742322"><ele>28.0</ele><time>2026-04-26T06:36:04Z</time></trkpt><trkpt lat="37.925346039403124" lon="15.347686837125128"><ele>28.0</ele><time>2026-04-26T06:36:05Z</time></trkpt><trkpt lat="37.925129424971374" lon="15.347451038682507"><ele>28.0</ele><time>2026-04-26T06:36:06Z</time></trkpt><trkpt lat="37.92491595183398" lon="15.347209259819165"><ele>39.0</ele><time>2026-04-26T06:36:07Z</time></trkpt><trkpt lat="37.92470490454984" lon="15.346967774531748"><ele>50.0</ele><time>2026-04-26T06:36:08Z</time></trkpt><trkpt lat="37.924499380128644" lon="15.34671951968107"><ele>50.0</ele><time>2026-04-26T06:36:09Z</time></trkpt><trkpt lat="37.92430094055232" lon="15.346460697577195"><ele>50.0</ele><time>2026-04-26T06:36:10Z</time></trkpt><trkpt lat="37.92410419054369" lon="15.346196122395355"><ele>51.5</ele><time>2026-04-26T06:36:11Z</time></trkpt><trkpt lat="37.92389944577591" lon="15.345930098806873"><ele>53.0</ele><time>2026-04-26T06:36:12Z</time></trkpt><trkpt lat="37.923689234218806" lon="15.345668988103435"><ele>53.5</ele><time>2026-04-26T06:36:13Z</time></trkpt><trkpt lat="37.92347487489186" lon="15.345411312067823"><ele>54.0</ele><time>2026-04-26T06:36:14Z</time></trkpt><trkpt lat="37.923254415605406" lon="15.345157367140969"><ele>53.0</ele><time>2026-04-26T06:36:15Z</time></trkpt><trkpt lat="37.92302056403765" lon="15.344917249272795"><ele>52.0</ele><time>2026-04-26T06:36:16Z</time></trkpt><trkpt lat="37.922775286206225" lon="15.344700917281738"><ele>49.0</ele><time>2026-04-26T06:36:17Z</time></trkpt><trkpt lat="37.92251724931016" lon="15.344511732678804"><ele>46.0</ele><time>2026-04-26T06:36:18Z</time></trkpt><trkpt lat="37.922247120004734" lon="15.34434568555075"><ele>46.0</ele><time>2026-04-26T06:36:19Z</time></trkpt><trkpt lat="37.92196837455691" lon="15.344206860208859"><ele>46.0</ele><time>2026-04-26T06:36:20Z</time></trkpt><trkpt lat="37.92169278265208" lon="15.344081528882207"><ele>39.0</ele><time>2026-04-26T06:36:21Z</time></trkpt><trkpt lat="37.92141188719238" lon="15.343979236830172"><ele>32.0</ele><time>2026-04-26T06:36:22Z</time></trkpt><trkpt lat="37.92112172138223" lon="15.34390174040107"><ele>42.5</ele><time>2026-04-26T06:36:23Z</time></trkpt><trkpt lat="37.92082827015697" lon="15.343845423532883"><ele>53.0</ele><time>2026-04-26T06:36:24Z</time></trkpt><trkpt lat="37.920529987703695" lon="15.343809624459732"><ele>53.0</ele><time>2026-04-26T06:36:25Z</time></trkpt><trkpt lat="37.92022892841904" lon="15.343783955287766"><ele>53.0</ele><time>2026-04-26T06:36:26Z</time></trkpt><trkpt lat="37.919924069844676" lon="15.343760891869001"><ele>51.0</ele><time>2026-04-26T06:36:27Z</time></trkpt><trkpt lat="37.91961723888504" lon="15.343737075883928"><ele>49.0</ele><time>2026-04-26T06:36:28Z</time></trkpt><trkpt lat="37.91930738150097" lon="15.343705510075264"><ele>48.0</ele><time>2026-04-26T06:36:29Z</time></trkpt><trkpt lat="37.91899767844912" lon="15.343668725034084"><ele>47.0</ele><time>2026-04-26T06:36:30Z</time></trkpt><trkpt lat="37.91868507406406" lon="15.343613741084122"><ele>41.5</ele><time>2026-04-26T06:36:31Z</time></trkpt><trkpt lat="37.91837051024225" lon="15.343540751059525"><ele>36.0</ele><time>2026-04-26T06:36:32Z</time></trkpt><trkpt lat="37.9180590314953" lon="15.343450194679217"><ele>36.0</ele><time>2026-04-26T06:36:33Z</time></trkpt><trkpt lat="37.91775075469353" lon="15.343342545689191"><ele>36.0</ele><time>2026-04-26T06:36:34Z</time></trkpt><trkpt lat="37.917441646772446" lon="15.34321913649406"><ele>32.0</ele><time>2026-04-26T06:36:35Z</time></trkpt><trkpt lat="37.91713887089921" lon="15.343083677967144"><ele>28.0</ele><time>2026-04-26T06:36:36Z</time></trkpt><trkpt lat="37.91683418730222" lon="15.34294037023299"><ele>44.0</ele><time>2026-04-26T06:36:37Z</time></trkpt><trkpt lat="37.91653734112506" lon="15.342772267983717"><ele>60.0</ele><time>2026-04-26T06:36:38Z</time></trkpt><trkpt lat="37.91624801009202" lon="15.342585675052092"><ele>60.0</ele><time>2026-04-26T06:36:39Z</time></trkpt><trkpt lat="37.91595854589802" lon="15.342384434046444"><ele>60.0</ele><time>2026-04-26T06:36:40Z</time></trkpt><trkpt lat="37.91564726504124" lon="15.342170937914714"><ele>96.5</ele><time>2026-04-26T06:36:41.023Z</time></trkpt><trkpt lat="37.91533336681265" lon="15.341951883275394"><ele>133.0</ele><time>2026-04-26T06:36:42.019Z</time></trkpt><trkpt lat="37.91500104521714" lon="15.341732672172597"><ele>133.0</ele><time>2026-04-26T06:36:43.025Z</time></trkpt><trkpt lat="37.91466808743471" lon="15.341517230639239"><ele>133.0</ele><time>2026-04-26T06:36:44.019Z</time></trkpt><trkpt lat="37.91226319516043" lon="15.339846120485717"><ele>177.0</ele><time>2026-04-26T06:36:48.378Z</time></trkpt><trkpt lat="37.911632055137325" lon="15.339406474365958"><ele>177.0</ele><time>2026-04-26T06:36:49.378Z</time></trkpt><trkpt lat="37.910998458596886" lon="15.338973267281403"><ele>142.0</ele><time>2026-04-26T06:36:50.378Z</time></trkpt><trkpt lat="37.91038390211333" lon="15.338498358466511"><ele>106.0</ele><time>2026-04-26T06:36:51.378Z</time></trkpt><trkpt lat="37.90979946642055" lon="15.337965996215987"><ele>106.0</ele><time>2026-04-26T06:36:52.378Z</time></trkpt><trkpt lat="37.90925422047845" lon="15.337372044366651"><ele>79.0</ele><time>2026-04-26T06:36:53.378Z</time></trkpt><trkpt lat="37.90874978404323" lon="15.336722158652544"><ele>36.0</ele><time>2026-04-26T06:36:54.379Z</time></trkpt><trkpt lat="37.9075626786275" lon="15.334790660583444"><ele>36.0</ele><time>2026-04-26T06:37:06Z</time></trkpt><trkpt lat="37.90734579785682" lon="15.334458525992634"><ele>36.0</ele><time>2026-04-26T06:37:07Z</time></trkpt><trkpt lat="37.90713821360749" lon="15.334111945407415"><ele>35.5</ele><time>2026-04-26T06:37:08Z</time></trkpt><trkpt lat="37.906935132676615" lon="15.333780468865863"><ele>35.0</ele><time>2026-04-26T06:37:09Z</time></trkpt><trkpt lat="37.90673248954208" lon="15.333456323382027"><ele>28.5</ele><time>2026-04-26T06:37:10Z</time></trkpt><trkpt lat="37.90653427003814" lon="15.333137760357957"><ele>22.0</ele><time>2026-04-26T06:37:11Z</time></trkpt><trkpt lat="37.906335152756" lon="15.332823688487565"><ele>22.0</ele><time>2026-04-26T06:37:12Z</time></trkpt><trkpt lat="37.90613158241566" lon="15.332520870450198"><ele>22.0</ele><time>2026-04-26T06:37:13Z</time></trkpt><trkpt lat="37.90591414211959" lon="15.332230905215399"><ele>37.0</ele><time>2026-04-26T06:37:14Z</time></trkpt><trkpt lat="37.905688450295486" lon="15.331952023651581"><ele>52.0</ele><time>2026-04-26T06:37:15Z</time></trkpt><trkpt lat="37.905448954227005" lon="15.331684037831593"><ele>52.0</ele><time>2026-04-26T06:37:16Z</time></trkpt><trkpt lat="37.90520673130464" lon="15.331420732108285"><ele>52.0</ele><time>2026-04-26T06:37:17Z</time></trkpt><trkpt lat="37.904958542489624" lon="15.33116863776184"><ele>76.0</ele><time>2026-04-26T06:37:18Z</time></trkpt><trkpt lat="37.904698343567354" lon="15.33093089812458"><ele>100.0</ele><time>2026-04-26T06:37:19.023Z</time></trkpt><trkpt lat="37.90444279005327" lon="15.33071492847035"><ele>91.0</ele><time>2026-04-26T06:37:20.016Z</time></trkpt><trkpt lat="37.90418404932849" lon="15.330507709643113"><ele>82.0</ele><time>2026-04-26T06:37:21.022Z</time></trkpt><trkpt lat="37.903925603889704" lon="15.330307527762741"><ele>82.0</ele><time>2026-04-26T06:37:22.024Z</time></trkpt><trkpt lat="37.903416669031515" lon="15.329917268841834"><ele>76.5</ele><time>2026-04-26T06:37:24Z</time></trkpt><trkpt lat="37.90315717720453" lon="15.32972097787185"><ele>71.0</ele><time>2026-04-26T06:37:25Z</time></trkpt><trkpt lat="37.90288353907713" lon="15.329537022183445"><ele>71.0</ele><time>2026-04-26T06:37:26Z</time></trkpt><trkpt lat="37.902626390262334" lon="15.329342630627034"><ele>71.0</ele><time>2026-04-26T06:37:27Z</time></trkpt><trkpt lat="37.90236280917707" lon="15.329146459880926"><ele>66.0</ele><time>2026-04-26T06:37:28Z</time></trkpt><trkpt lat="37.90209769205437" lon="15.328949894678917"><ele>61.0</ele><time>2026-04-26T06:37:29Z</time></trkpt><trkpt lat="37.90182592424349" lon="15.328771283797638"><ele>63.0</ele><time>2026-04-26T06:37:30Z</time></trkpt><trkpt lat="37.90156453561552" lon="15.328579798644098"><ele>65.0</ele><time>2026-04-26T06:37:31Z</time></trkpt><trkpt lat="37.90130278985991" lon="15.32838778292124"><ele>65.0</ele><time>2026-04-26T06:37:32Z</time></trkpt><trkpt lat="37.901040358764035" lon="15.328197871919304"><ele>65.0</ele><time>2026-04-26T06:37:33Z</time></trkpt><trkpt lat="37.90078010085045" lon="15.328002513180813"><ele>64.5</ele><time>2026-04-26T06:37:34Z</time></trkpt><trkpt lat="37.900525367105374" lon="15.327799191162544"><ele>64.0</ele><time>2026-04-26T06:37:35Z</time></trkpt><trkpt lat="37.90027679624726" lon="15.327580915188554"><ele>68.0</ele><time>2026-04-26T06:37:36Z</time></trkpt><trkpt lat="37.9000309704046" lon="15.327354116852353"><ele>72.0</ele><time>2026-04-26T06:37:37Z</time></trkpt><trkpt lat="37.89979412161169" lon="15.32711778742836"><ele>72.0</ele><time>2026-04-26T06:37:38Z</time></trkpt><trkpt lat="37.89956393005438" lon="15.32686597290774"><ele>72.0</ele><time>2026-04-26T06:37:39Z</time></trkpt><trkpt lat="37.89933953303872" lon="15.32661113134127"><ele>68.5</ele><time>2026-04-26T06:37:40Z</time></trkpt><trkpt lat="37.899126012913214" lon="15.326340220278547"><ele>65.0</ele><time>2026-04-26T06:37:41Z</time></trkpt><trkpt lat="37.89890896722883" lon="15.326071992413729"><ele>65.0</ele><time>2026-04-26T06:37:42Z</time></trkpt><trkpt lat="37.89867796581231" lon="15.325817081029287"><ele>65.0</ele><time>2026-04-26T06:37:43Z</time></trkpt><trkpt lat="37.89844920318109" lon="15.325556758846139"><ele>56.0</ele><time>2026-04-26T06:37:44Z</time></trkpt><trkpt lat="37.89821703459462" lon="15.325300114839882"><ele>47.0</ele><time>2026-04-26T06:37:45Z</time></trkpt><trkpt lat="37.89797432407447" lon="15.325049118911396"><ele>47.0</ele><time>2026-04-26T06:37:46Z</time></trkpt><trkpt lat="37.89772786616839" lon="15.324798243993232"><ele>47.0</ele><time>2026-04-26T06:37:47Z</time></trkpt><trkpt lat="37.89747871741758" lon="15.32454607350965"><ele>55.5</ele><time>2026-04-26T06:37:48Z</time></trkpt><trkpt lat="37.89722588408855" lon="15.324300130250485"><ele>64.0</ele><time>2026-04-26T06:37:49Z</time></trkpt><trkpt lat="37.89696477661348" lon="15.324064694734185"><ele>62.5</ele><time>2026-04-26T06:37:50Z</time></trkpt><trkpt lat="37.89670394699341" lon="15.32383452780999"><ele>61.0</ele><time>2026-04-26T06:37:51Z</time></trkpt><trkpt lat="37.89644332692571" lon="15.323606470569407"><ele>61.0</ele><time>2026-04-26T06:37:52Z</time></trkpt><trkpt lat="37.89618233243743" lon="15.323385540030884"><ele>61.0</ele><time>2026-04-26T06:37:53Z</time></trkpt><trkpt lat="37.895921723358406" lon="15.323163484903981"><ele>64.0</ele><time>2026-04-26T06:37:54Z</time></trkpt><trkpt lat="37.895667037759026" lon="15.322937868995067"><ele>67.0</ele><time>2026-04-26T06:37:55Z</time></trkpt><trkpt lat="37.89541529303397" lon="15.322711575064822"><ele>67.0</ele><time>2026-04-26T06:37:56Z</time></trkpt><trkpt lat="37.8951693566445" lon="15.322489005317502"><ele>67.0</ele><time>2026-04-26T06:37:57Z</time></trkpt><trkpt lat="37.89492997053707" lon="15.322252290320389"><ele>65.0</ele><time>2026-04-26T06:37:58Z</time></trkpt><trkpt lat="37.894693415126724" lon="15.32200644695548"><ele>63.0</ele><time>2026-04-26T06:37:59Z</time></trkpt><trkpt lat="37.89446460178124" lon="15.321765971972194"><ele>63.5</ele><time>2026-04-26T06:38:00Z</time></trkpt><trkpt lat="37.89423893132677" lon="15.321528000274663"><ele>64.0</ele><time>2026-04-26T06:38:01Z</time></trkpt><trkpt lat="37.894014238655956" lon="15.32129210890192"><ele>64.0</ele><time>2026-04-26T06:38:02Z</time></trkpt><trkpt lat="37.89378613398988" lon="15.321061823347694"><ele>64.0</ele><time>2026-04-26T06:38:03Z</time></trkpt><trkpt lat="37.89356414082829" lon="15.320825994182261"><ele>58.5</ele><time>2026-04-26T06:38:04Z</time></trkpt><trkpt lat="37.893340974202445" lon="15.320590526753318"><ele>53.0</ele><time>2026-04-26T06:38:05Z</time></trkpt><trkpt lat="37.8931184850612" lon="15.320352523383828"><ele>53.0</ele><time>2026-04-26T06:38:06Z</time></trkpt><trkpt lat="37.89289397304034" lon="15.320116855543649"><ele>53.0</ele><time>2026-04-26T06:38:07Z</time></trkpt><trkpt lat="37.89266946918372" lon="15.319880134228857"><ele>49.5</ele><time>2026-04-26T06:38:08Z</time></trkpt><trkpt lat="37.892436387254286" lon="15.319643650542346"><ele>46.0</ele><time>2026-04-26T06:38:09Z</time></trkpt><trkpt lat="37.892209116099295" lon="15.319405392195629"><ele>46.0</ele><time>2026-04-26T06:38:10Z</time></trkpt><trkpt lat="37.89197894455698" lon="15.319165838067429"><ele>46.0</ele><time>2026-04-26T06:38:11Z</time></trkpt><trkpt lat="37.89174917439534" lon="15.31892432592809"><ele>54.5</ele><time>2026-04-26T06:38:12Z</time></trkpt><trkpt lat="37.891521336443546" lon="15.318680034710566"><ele>63.0</ele><time>2026-04-26T06:38:13Z</time></trkpt><trkpt lat="37.89128924482636" lon="15.318433911001517"><ele>63.0</ele><time>2026-04-26T06:38:14.02Z</time></trkpt><trkpt lat="37.89106321470982" lon="15.31819214546691"><ele>63.0</ele><time>2026-04-26T06:38:15.021Z</time></trkpt><trkpt lat="37.89084563442094" lon="15.317954024872313"><ele>57.5</ele><time>2026-04-26T06:38:16Z</time></trkpt><trkpt lat="37.89061297740281" lon="15.317744338107598"><ele>52.0</ele><time>2026-04-26T06:38:17Z</time></trkpt><trkpt lat="37.89039281306075" lon="15.317511539918778"><ele>52.0</ele><time>2026-04-26T06:38:18Z</time></trkpt><trkpt lat="37.89017908972507" lon="15.317273984080009"><ele>52.0</ele><time>2026-04-26T06:38:19Z</time></trkpt><trkpt lat="37.88997027724712" lon="15.317036076125758"><ele>52.0</ele><time>2026-04-26T06:38:20Z</time></trkpt><trkpt lat="37.88977378411155" lon="15.316788649990624"><ele>52.0</ele><time>2026-04-26T06:38:21Z</time></trkpt><trkpt lat="37.88958323311016" lon="15.31653358464934"><ele>53.5</ele><time>2026-04-26T06:38:22Z</time></trkpt><trkpt lat="37.88940437873787" lon="15.316267066544702"><ele>55.0</ele><time>2026-04-26T06:38:23Z</time></trkpt><trkpt lat="37.88922905195217" lon="15.315998042853831"><ele>55.0</ele><time>2026-04-26T06:38:24Z</time></trkpt><trkpt lat="37.8890610440956" lon="15.315721890114556"><ele>55.0</ele><time>2026-04-26T06:38:25Z</time></trkpt><trkpt lat="37.88889896209254" lon="15.315441285823331"><ele>59.0</ele><time>2026-04-26T06:38:26Z</time></trkpt><trkpt lat="37.888737712969885" lon="15.31515444821557"><ele>63.0</ele><time>2026-04-26T06:38:27Z</time></trkpt><trkpt lat="37.88858307117255" lon="15.31486239114227"><ele>51.5</ele><time>2026-04-26T06:38:28Z</time></trkpt><trkpt lat="37.88841963532406" lon="15.314572230271228"><ele>40.0</ele><time>2026-04-26T06:38:29Z</time></trkpt><trkpt lat="37.88825648346351" lon="15.314282013269388"><ele>40.0</ele><time>2026-04-26T06:38:30Z</time></trkpt><trkpt lat="37.88809063163151" lon="15.313990529381126"><ele>40.0</ele><time>2026-04-26T06:38:31Z</time></trkpt><trkpt lat="37.887922142150735" lon="15.313701962210219"><ele>40.0</ele><time>2026-04-26T06:38:32Z</time></trkpt><trkpt lat="37.88775471470514" lon="15.313412171495576"><ele>40.0</ele><time>2026-04-26T06:38:33Z</time></trkpt><trkpt lat="37.887572854822636" lon="15.313132491152558"><ele>53.0</ele><time>2026-04-26T06:38:34Z</time></trkpt><trkpt lat="37.88738614251496" lon="15.312862273436158"><ele>66.0</ele><time>2026-04-26T06:38:35Z</time></trkpt><trkpt lat="37.88718165320904" lon="15.312601030348153"><ele>66.0</ele><time>2026-04-26T06:38:36Z</time></trkpt><trkpt lat="37.8869698839844" lon="15.31234900547388"><ele>66.0</ele><time>2026-04-26T06:38:37Z</time></trkpt><trkpt lat="37.88675140547212" lon="15.31210339667127"><ele>68.5</ele><time>2026-04-26T06:38:38Z</time></trkpt><trkpt lat="37.886538677898386" lon="15.31185806854361"><ele>71.0</ele><time>2026-04-26T06:38:39Z</time></trkpt><trkpt lat="37.88632540507609" lon="15.311615396256778"><ele>68.0</ele><time>2026-04-26T06:38:40Z</time></trkpt><trkpt lat="37.8861128229516" lon="15.311372471357673"><ele>65.0</ele><time>2026-04-26T06:38:41Z</time></trkpt><trkpt lat="37.885901614525395" lon="15.311128306177588"><ele>65.0</ele><time>2026-04-26T06:38:42Z</time></trkpt><trkpt lat="37.88568879322121" lon="15.310886015016823"><ele>65.0</ele><time>2026-04-26T06:38:43Z</time></trkpt><trkpt lat="37.885478376793756" lon="15.31064128640537"><ele>62.5</ele><time>2026-04-26T06:38:44Z</time></trkpt><trkpt lat="37.885262030440174" lon="15.310400821215742"><ele>60.0</ele><time>2026-04-26T06:38:45Z</time></trkpt><trkpt lat="37.88504896350214" lon="15.310157758094062"><ele>60.0</ele><time>2026-04-26T06:38:46Z</time></trkpt><trkpt lat="37.88483791569791" lon="15.309911621419664"><ele>60.0</ele><time>2026-04-26T06:38:47Z</time></trkpt><trkpt lat="37.88462549083631" lon="15.309668125234253"><ele>56.0</ele><time>2026-04-26T06:38:48Z</time></trkpt><trkpt lat="37.88441420050862" lon="15.309427596264014"><ele>52.0</ele><time>2026-04-26T06:38:49Z</time></trkpt><trkpt lat="37.88420316972215" lon="15.309183707896745"><ele>52.0</ele><time>2026-04-26T06:38:50Z</time></trkpt><trkpt lat="37.88398990448462" lon="15.308944566529306"><ele>52.0</ele><time>2026-04-26T06:38:51Z</time></trkpt><trkpt lat="37.883776913898444" lon="15.308702021594156"><ele>52.0</ele><time>2026-04-26T06:38:52Z</time></trkpt><trkpt lat="37.88356512515644" lon="15.308458729458767"><ele>52.0</ele><time>2026-04-26T06:38:53Z</time></trkpt><trkpt lat="37.883353454274356" lon="15.308213011690533"><ele>60.5</ele><time>2026-04-26T06:38:54Z</time></trkpt><trkpt lat="37.88314682266095" lon="15.307962445852194"><ele>69.0</ele><time>2026-04-26T06:38:55Z</time></trkpt><trkpt lat="37.882956185754" lon="15.307694932002155"><ele>69.0</ele><time>2026-04-26T06:38:56Z</time></trkpt><trkpt lat="37.88278256988156" lon="15.307409397094986"><ele>69.0</ele><time>2026-04-26T06:38:57Z</time></trkpt><trkpt lat="37.88262345486789" lon="15.307107656300742"><ele>64.5</ele><time>2026-04-26T06:38:58Z</time></trkpt><trkpt lat="37.88247282553222" lon="15.306792793404322"><ele>60.0</ele><time>2026-04-26T06:38:59Z</time></trkpt><trkpt lat="37.88232360508287" lon="15.306476338893052"><ele>55.5</ele><time>2026-04-26T06:39:00Z</time></trkpt><trkpt lat="37.88217417878803" lon="15.306155077175003"><ele>51.0</ele><time>2026-04-26T06:39:01Z</time></trkpt><trkpt lat="37.8820254039219" lon="15.30583517799846"><ele>44.5</ele><time>2026-04-26T06:39:02Z</time></trkpt><trkpt lat="37.88187622762798" lon="15.305521627274018"><ele>38.0</ele><time>2026-04-26T06:39:03Z</time></trkpt><trkpt lat="37.881717658498346" lon="15.305216512055765"><ele>35.5</ele><time>2026-04-26T06:39:04Z</time></trkpt><trkpt lat="37.88155118911528" lon="15.304920151059555"><ele>33.0</ele><time>2026-04-26T06:39:05Z</time></trkpt><trkpt lat="37.88137730721159" lon="15.304650975697236"><ele>33.0</ele><time>2026-04-26T06:39:06Z</time></trkpt><trkpt lat="37.88119191845679" lon="15.304393050834266"><ele>33.0</ele><time>2026-04-26T06:39:07Z</time></trkpt><trkpt lat="37.880993367409275" lon="15.304149153390652"><ele>33.0</ele><time>2026-04-26T06:39:08Z</time></trkpt><trkpt lat="37.88078458230153" lon="15.303923483879274"><ele>33.0</ele><time>2026-04-26T06:39:09Z</time></trkpt><trkpt lat="37.88056217300092" lon="15.303717440357394"><ele>29.0</ele><time>2026-04-26T06:39:10Z</time></trkpt><trkpt lat="37.88033244872966" lon="15.30352710975118"><ele>25.0</ele><time>2026-04-26T06:39:11Z</time></trkpt><trkpt lat="37.880095451622495" lon="15.30335415047579"><ele>25.0</ele><time>2026-04-26T06:39:12Z</time></trkpt><trkpt lat="37.879848088582364" lon="15.303193582376865"><ele>25.0</ele><time>2026-04-26T06:39:13Z</time></trkpt><trkpt lat="37.87959270254288" lon="15.303050656425418"><ele>25.0</ele><time>2026-04-26T06:39:14Z</time></trkpt><trkpt lat="37.879330146571085" lon="15.302924783509566"><ele>25.0</ele><time>2026-04-26T06:39:15Z</time></trkpt><trkpt lat="37.87905876176409" lon="15.302812308723865"><ele>31.5</ele><time>2026-04-26T06:39:16Z</time></trkpt><trkpt lat="37.878787630397795" lon="15.302696050889914"><ele>38.0</ele><time>2026-04-26T06:39:17Z</time></trkpt><trkpt lat="37.878517031481906" lon="15.302570489626536"><ele>38.0</ele><time>2026-04-26T06:39:18Z</time></trkpt><trkpt lat="37.87824391715864" lon="15.302449248867521"><ele>38.0</ele><time>2026-04-26T06:39:19Z</time></trkpt><trkpt lat="37.877966336378655" lon="15.302324411150249"><ele>45.5</ele><time>2026-04-26T06:39:20Z</time></trkpt><trkpt lat="37.877688048822144" lon="15.302195991111068"><ele>53.0</ele><time>2026-04-26T06:39:21Z</time></trkpt><trkpt lat="37.8774115150324" lon="15.302066041913548"><ele>53.0</ele><time>2026-04-26T06:39:22Z</time></trkpt><trkpt lat="37.877134205394285" lon="15.301939411061198"><ele>53.0</ele><time>2026-04-26T06:39:23Z</time></trkpt><trkpt lat="37.87685418162761" lon="15.301809727462468"><ele>40.0</ele><time>2026-04-26T06:39:24Z</time></trkpt><trkpt lat="37.87657087323159" lon="15.301683918788271"><ele>27.0</ele><time>2026-04-26T06:39:25Z</time></trkpt><trkpt lat="37.87628763360069" lon="15.301559084230625"><ele>27.0</ele><time>2026-04-26T06:39:26Z</time></trkpt><trkpt lat="37.8760030621243" lon="15.30143667602262"><ele>27.0</ele><time>2026-04-26T06:39:27Z</time></trkpt><trkpt lat="37.87572029782285" lon="15.30131377156863"><ele>36.0</ele><time>2026-04-26T06:39:28Z</time></trkpt><trkpt lat="37.87543331259884" lon="15.301192026058295"><ele>45.0</ele><time>2026-04-26T06:39:29Z</time></trkpt><trkpt lat="37.87514794848676" lon="15.30106597283901"><ele>49.5</ele><time>2026-04-26T06:39:30Z</time></trkpt><trkpt lat="37.874859558202935" lon="15.300937340894697"><ele>54.0</ele><time>2026-04-26T06:39:31Z</time></trkpt><trkpt lat="37.874576324629366" lon="15.300797623757752"><ele>54.0</ele><time>2026-04-26T06:39:32Z</time></trkpt><trkpt lat="37.87429482390978" lon="15.300630493213488"><ele>54.0</ele><time>2026-04-26T06:39:33Z</time></trkpt><trkpt lat="37.874016041725085" lon="15.300459328255165"><ele>56.5</ele><time>2026-04-26T06:39:34Z</time></trkpt><trkpt lat="37.87373570973319" lon="15.300285324805763"><ele>59.0</ele><time>2026-04-26T06:39:35Z</time></trkpt><trkpt lat="37.87345721215184" lon="15.300098194633884"><ele>55.0</ele><time>2026-04-26T06:39:36Z</time></trkpt><trkpt lat="37.87317782071805" lon="15.299908259412524"><ele>51.0</ele><time>2026-04-26T06:39:37Z</time></trkpt><trkpt lat="37.87289714877663" lon="15.299716408820785"><ele>51.0</ele><time>2026-04-26T06:39:38Z</time></trkpt><trkpt lat="37.87261558716493" lon="15.299530157263879"><ele>51.0</ele><time>2026-04-26T06:39:39Z</time></trkpt><trkpt lat="37.87232866176734" lon="15.29935660384476"><ele>44.0</ele><time>2026-04-26T06:39:40Z</time></trkpt><trkpt lat="37.87204381127953" lon="15.299188859338953"><ele>37.0</ele><time>2026-04-26T06:39:41Z</time></trkpt><trkpt lat="37.871756792624154" lon="15.299032711678764"><ele>43.0</ele><time>2026-04-26T06:39:42Z</time></trkpt><trkpt lat="37.87147046442141" lon="15.29888582233682"><ele>49.0</ele><time>2026-04-26T06:39:43Z</time></trkpt><trkpt lat="37.8711799254811" lon="15.298752107350724"><ele>49.5</ele><time>2026-04-26T06:39:44Z</time></trkpt><trkpt lat="37.87088786057381" lon="15.298618259142094"><ele>50.0</ele><time>2026-04-26T06:39:45Z</time></trkpt><trkpt lat="37.870595159740375" lon="15.29848954074344"><ele>50.0</ele><time>2026-04-26T06:39:46Z</time></trkpt><trkpt lat="37.87031286200874" lon="15.298350583749054"><ele>50.0</ele><time>2026-04-26T06:39:47Z</time></trkpt><trkpt lat="37.87002320946099" lon="15.298219709988889"><ele>41.0</ele><time>2026-04-26T06:39:48Z</time></trkpt><trkpt lat="37.86973628517306" lon="15.298087482911093"><ele>32.0</ele><time>2026-04-26T06:39:49Z</time></trkpt><trkpt lat="37.86944645447448" lon="15.297957561087037"><ele>43.5</ele><time>2026-04-26T06:39:50Z</time></trkpt><trkpt lat="37.869167938420354" lon="15.297815010523312"><ele>55.0</ele><time>2026-04-26T06:39:51Z</time></trkpt><trkpt lat="37.868891637984134" lon="15.297665990391478"><ele>55.0</ele><time>2026-04-26T06:39:52Z</time></trkpt><trkpt lat="37.86862383240294" lon="15.29751699029731"><ele>55.0</ele><time>2026-04-26T06:39:53Z</time></trkpt><trkpt lat="37.86835401012722" lon="15.297357948567349"><ele>64.5</ele><time>2026-04-26T06:39:54Z</time></trkpt><trkpt lat="37.86808858423327" lon="15.297196752717491"><ele>74.0</ele><time>2026-04-26T06:39:55Z</time></trkpt><trkpt lat="37.86782519841104" lon="15.297034206649046"><ele>68.0</ele><time>2026-04-26T06:39:56Z</time></trkpt><trkpt lat="37.8675705880725" lon="15.296871694448482"><ele>62.0</ele><time>2026-04-26T06:39:57Z</time></trkpt><trkpt lat="37.86731433002003" lon="15.296708774151437"><ele>62.0</ele><time>2026-04-26T06:39:58Z</time></trkpt><trkpt lat="37.86705481569679" lon="15.296544772287305"><ele>62.0</ele><time>2026-04-26T06:39:59Z</time></trkpt><trkpt lat="37.86679460410167" lon="15.29638705812076"><ele>60.0</ele><time>2026-04-26T06:40:00Z</time></trkpt><trkpt lat="37.86653165439463" lon="15.296228846117636"><ele>58.0</ele><time>2026-04-26T06:40:01Z</time></trkpt><trkpt lat="37.866264931789274" lon="15.296071120824722"><ele>58.0</ele><time>2026-04-26T06:40:02Z</time></trkpt><trkpt lat="37.86598986978079" lon="15.295920231680196"><ele>58.0</ele><time>2026-04-26T06:40:03Z</time></trkpt><trkpt lat="37.86571425308631" lon="15.295772394461913"><ele>55.5</ele><time>2026-04-26T06:40:04Z</time></trkpt><trkpt lat="37.86543205048814" lon="15.295626052103948"><ele>53.0</ele><time>2026-04-26T06:40:05Z</time></trkpt><trkpt lat="37.86514983131447" lon="15.295478385010359"><ele>62.0</ele><time>2026-04-26T06:40:06Z</time></trkpt><trkpt lat="37.8648633719718" lon="15.295333824983828"><ele>71.0</ele><time>2026-04-26T06:40:07Z</time></trkpt><trkpt lat="37.864582372529185" lon="15.295189618256787"><ele>71.0</ele><time>2026-04-26T06:40:08Z</time></trkpt><trkpt lat="37.864300680929475" lon="15.295043874086653"><ele>71.0</ele><time>2026-04-26T06:40:09Z</time></trkpt><trkpt lat="37.86401916138709" lon="15.294901924188245"><ele>75.0</ele><time>2026-04-26T06:40:10Z</time></trkpt><trkpt lat="37.86374191958196" lon="15.294756965114066"><ele>79.0</ele><time>2026-04-26T06:40:11Z</time></trkpt><trkpt lat="37.863459149579015" lon="15.294614858102916"><ele>75.0</ele><time>2026-04-26T06:40:12Z</time></trkpt><trkpt lat="37.86318091160156" lon="15.294474986623529"><ele>71.0</ele><time>2026-04-26T06:40:13Z</time></trkpt><trkpt lat="37.86290055206626" lon="15.294335899987438"><ele>71.0</ele><time>2026-04-26T06:40:14Z</time></trkpt><trkpt lat="37.86261893986196" lon="15.294194020880175"><ele>71.0</ele><time>2026-04-26T06:40:15Z</time></trkpt><trkpt lat="37.86233325034897" lon="15.294047679886097"><ele>64.5</ele><time>2026-04-26T06:40:16Z</time></trkpt><trkpt lat="37.86203059468113" lon="15.29388802125927"><ele>58.0</ele><time>2026-04-26T06:40:17.016Z</time></trkpt><trkpt lat="37.86172385650013" lon="15.293725952497786"><ele>58.0</ele><time>2026-04-26T06:40:18.02Z</time></trkpt><trkpt lat="37.86142841698378" lon="15.29356517222026"><ele>58.0</ele><time>2026-04-26T06:40:19Z</time></trkpt><trkpt lat="37.86114433889754" lon="15.293416103289116"><ele>57.5</ele><time>2026-04-26T06:40:20Z</time></trkpt><trkpt lat="37.860866188014235" lon="15.293251815417618"><ele>57.0</ele><time>2026-04-26T06:40:21Z</time></trkpt><trkpt lat="37.860593101764195" lon="15.293068955379098"><ele>57.0</ele><time>2026-04-26T06:40:22Z</time></trkpt><trkpt lat="37.860327843959844" lon="15.292878780123262"><ele>57.0</ele><time>2026-04-26T06:40:23Z</time></trkpt><trkpt lat="37.86006963607339" lon="15.292675191170504"><ele>62.5</ele><time>2026-04-26T06:40:24Z</time></trkpt><trkpt lat="37.85981909533164" lon="15.29246283313821"><ele>68.0</ele><time>2026-04-26T06:40:25Z</time></trkpt><trkpt lat="37.85957669197893" lon="15.292239560323209"><ele>74.0</ele><time>2026-04-26T06:40:26Z</time></trkpt><trkpt lat="37.85934012555856" lon="15.292009259135522"><ele>80.0</ele><time>2026-04-26T06:40:27Z</time></trkpt><trkpt lat="37.85911112781584" lon="15.291767250878543"><ele>80.0</ele><time>2026-04-26T06:40:28Z</time></trkpt><trkpt lat="37.85889095001413" lon="15.291518898670493"><ele>80.0</ele><time>2026-04-26T06:40:29Z</time></trkpt><trkpt lat="37.8586795226305" lon="15.291258210515043"><ele>91.0</ele><time>2026-04-26T06:40:30Z</time></trkpt><trkpt lat="37.85847226171485" lon="15.290990748546628"><ele>102.0</ele><time>2026-04-26T06:40:31Z</time></trkpt><trkpt lat="37.85827601673795" lon="15.290712908802252"><ele>110.0</ele><time>2026-04-26T06:40:32Z</time></trkpt><trkpt lat="37.85808722472278" lon="15.290416386907348"><ele>118.0</ele><time>2026-04-26T06:40:33Z</time></trkpt><trkpt lat="37.85789914621025" lon="15.29011325973257"><ele>118.0</ele><time>2026-04-26T06:40:34Z</time></trkpt><trkpt lat="37.857713071593324" lon="15.289792563889039"><ele>118.0</ele><time>2026-04-26T06:40:35.022Z</time></trkpt><trkpt lat="37.857538249773405" lon="15.289465498637885"><ele>134.0</ele><time>2026-04-26T06:40:36.023Z</time></trkpt><trkpt lat="37.85737021786709" lon="15.28913144038633"><ele>150.0</ele><time>2026-04-26T06:40:37.014Z</time></trkpt><trkpt lat="37.85720137906632" lon="15.288785393266453"><ele>266.0</ele><time>2026-04-26T06:40:38.024Z</time></trkpt><trkpt lat="37.85592118694339" lon="15.285745956776609"><ele>296.0</ele><time>2026-04-26T06:40:42.377Z</time></trkpt><trkpt lat="37.85557973020521" lon="15.284944538911526"><ele>308.0</ele><time>2026-04-26T06:40:43.378Z</time></trkpt><trkpt lat="37.85523942529864" lon="15.284144078228794"><ele>342.0</ele><time>2026-04-26T06:40:44.377Z</time></trkpt><trkpt lat="37.85490107777688" lon="15.283341427975229"><ele>330.0</ele><time>2026-04-26T06:40:45.377Z</time></trkpt><trkpt lat="37.85455325438186" lon="15.282544344841636"><ele>284.0</ele><time>2026-04-26T06:40:46.378Z</time></trkpt><trkpt lat="37.85418620901027" lon="15.281762481286037"><ele>276.0</ele><time>2026-04-26T06:40:47.378Z</time></trkpt><trkpt lat="37.853795419426405" lon="15.280998631152604"><ele>260.0</ele><time>2026-04-26T06:40:48.378Z</time></trkpt><trkpt lat="37.853389534368375" lon="15.280248264568105"><ele>259.0</ele><time>2026-04-26T06:40:49.377Z</time></trkpt><trkpt lat="37.85296238803773" lon="15.279515098846204"><ele>237.0</ele><time>2026-04-26T06:40:50.378Z</time></trkpt><trkpt lat="37.852518017557045" lon="15.278800480118248"><ele>237.0</ele><time>2026-04-26T06:40:51.377Z</time></trkpt><trkpt lat="37.8520539156809" lon="15.27810447735403"><ele>170.0</ele><time>2026-04-26T06:40:52.378Z</time></trkpt><trkpt lat="37.85157577494575" lon="15.27742450249455"><ele>130.0</ele><time>2026-04-26T06:40:53.378Z</time></trkpt><trkpt lat="37.85108212260403" lon="15.27676271193803"><ele>74.0</ele><time>2026-04-26T06:40:54.377Z</time></trkpt><trkpt lat="37.85014091423024" lon="15.275577849996008"><ele>77.5</ele><time>2026-04-26T06:41:16Z</time></trkpt><trkpt lat="37.849926636940886" lon="15.275356373114159"><ele>81.0</ele><time>2026-04-26T06:41:17Z</time></trkpt><trkpt lat="37.8496923512968" lon="15.275099771887973"><ele>81.0</ele><time>2026-04-26T06:41:18Z</time></trkpt><trkpt lat="37.849463317453456" lon="15.274846285118404"><ele>81.0</ele><time>2026-04-26T06:41:19Z</time></trkpt><trkpt lat="37.8492287499173" lon="15.27460208212198"><ele>95.5</ele><time>2026-04-26T06:41:20Z</time></trkpt><trkpt lat="37.84899301651905" lon="15.27435830299263"><ele>110.0</ele><time>2026-04-26T06:41:21Z</time></trkpt><trkpt lat="37.8487563722172" lon="15.274117984436037"><ele>113.5</ele><time>2026-04-26T06:41:22Z</time></trkpt><trkpt lat="37.848516062286066" lon="15.273879732051078"><ele>117.0</ele><time>2026-04-26T06:41:23Z</time></trkpt><trkpt lat="37.84826906778941" lon="15.273644563719943"><ele>117.0</ele><time>2026-04-26T06:41:24Z</time></trkpt><trkpt lat="37.84801894727557" lon="15.273413389690933"><ele>117.0</ele><time>2026-04-26T06:41:25Z</time></trkpt><trkpt lat="37.84776346225663" lon="15.273186521028457"><ele>112.0</ele><time>2026-04-26T06:41:26Z</time></trkpt><trkpt lat="37.8474982319939" lon="15.27296134357978"><ele>107.0</ele><time>2026-04-26T06:41:27Z</time></trkpt><trkpt lat="37.847225370563706" lon="15.272741350227541"><ele>107.0</ele><time>2026-04-26T06:41:28Z</time></trkpt><trkpt lat="37.84694720342272" lon="15.272523517473877"><ele>107.0</ele><time>2026-04-26T06:41:29Z</time></trkpt><trkpt lat="37.846666329426746" lon="15.272305718489855"><ele>126.0</ele><time>2026-04-26T06:41:30Z</time></trkpt><trkpt lat="37.84636777876118" lon="15.272069304492764"><ele>145.0</ele><time>2026-04-26T06:41:31Z</time></trkpt><trkpt lat="37.846053380628916" lon="15.271825874012716"><ele>165.5</ele><time>2026-04-26T06:41:32Z</time></trkpt><trkpt lat="37.84571364387485" lon="15.271582555033724"><ele>186.0</ele><time>2026-04-26T06:41:33.023Z</time></trkpt><trkpt lat="37.84537395577424" lon="15.271345116462795"><ele>184.5</ele><time>2026-04-26T06:41:34.024Z</time></trkpt><trkpt lat="37.84503338179096" lon="15.271113389503538"><ele>183.0</ele><time>2026-04-26T06:41:35.023Z</time></trkpt><trkpt lat="37.844692854990136" lon="15.270881383326612"><ele>126.0</ele><time>2026-04-26T06:41:36.024Z</time></trkpt><trkpt lat="37.84185909203984" lon="15.268863569959317"><ele>116.5</ele><time>2026-04-26T06:41:45Z</time></trkpt><trkpt lat="37.84156182716362" lon="15.268645102603644"><ele>107.0</ele><time>2026-04-26T06:41:46Z</time></trkpt><trkpt lat="37.84130856483851" lon="15.26839039350074"><ele>112.5</ele><time>2026-04-26T06:41:47Z</time></trkpt><trkpt lat="37.84106788908975" lon="15.268108534797602"><ele>118.0</ele><time>2026-04-26T06:41:48Z</time></trkpt><trkpt lat="37.84085564467128" lon="15.267807938282997"><ele>104.5</ele><time>2026-04-26T06:41:49Z</time></trkpt><trkpt lat="37.84065449290982" lon="15.267491089041004"><ele>91.0</ele><time>2026-04-26T06:41:50Z</time></trkpt><trkpt lat="37.84046817638476" lon="15.26715830447574"><ele>85.5</ele><time>2026-04-26T06:41:51Z</time></trkpt><trkpt lat="37.84028661291001" lon="15.266816799604976"><ele>80.0</ele><time>2026-04-26T06:41:52Z</time></trkpt><trkpt lat="37.84014169811849" lon="15.266447994661585"><ele>63.0</ele><time>2026-04-26T06:41:53Z</time></trkpt><trkpt lat="37.84000383009482" lon="15.266079117934108"><ele>46.0</ele><time>2026-04-26T06:41:54Z</time></trkpt><trkpt lat="37.83989733004748" lon="15.265696565938077"><ele>59.5</ele><time>2026-04-26T06:41:55Z</time></trkpt><trkpt lat="37.83980700555336" lon="15.265304803379836"><ele>73.0</ele><time>2026-04-26T06:41:56Z</time></trkpt><trkpt lat="37.83972884700584" lon="15.26490624203086"><ele>82.0</ele><time>2026-04-26T06:41:57Z</time></trkpt><trkpt lat="37.83967646120921" lon="15.264501756299502"><ele>91.0</ele><time>2026-04-26T06:41:58Z</time></trkpt><trkpt lat="37.83963392621635" lon="15.264093773522514"><ele>93.0</ele><time>2026-04-26T06:41:59Z</time></trkpt><trkpt lat="37.83958202298849" lon="15.263684656638416"><ele>95.0</ele><time>2026-04-26T06:42:00Z</time></trkpt><trkpt lat="37.839531066452544" lon="15.263276907565269"><ele>88.5</ele><time>2026-04-26T06:42:01Z</time></trkpt><trkpt lat="37.839474307494825" lon="15.262872050851275"><ele>82.0</ele><time>2026-04-26T06:42:02Z</time></trkpt><trkpt lat="37.83940065288379" lon="15.262468299338765"><ele>77.0</ele><time>2026-04-26T06:42:03Z</time></trkpt><trkpt lat="37.83930279037074" lon="15.262069381403121"><ele>72.0</ele><time>2026-04-26T06:42:04Z</time></trkpt><trkpt lat="37.83918388975986" lon="15.261678211443083"><ele>71.0</ele><time>2026-04-26T06:42:05Z</time></trkpt><trkpt lat="37.83903784583821" lon="15.261301179767692"><ele>70.0</ele><time>2026-04-26T06:42:06Z</time></trkpt><trkpt lat="37.83886979083299" lon="15.260936666381323"><ele>78.0</ele><time>2026-04-26T06:42:07Z</time></trkpt><trkpt lat="37.83868311191888" lon="15.260588687647946"><ele>86.0</ele><time>2026-04-26T06:42:08Z</time></trkpt><trkpt lat="37.83847839083077" lon="15.260258937939032"><ele>84.5</ele><time>2026-04-26T06:42:09Z</time></trkpt><trkpt lat="37.83825454344224" lon="15.259948856562849"><ele>83.0</ele><time>2026-04-26T06:42:10Z</time></trkpt><trkpt lat="37.838015166241156" lon="15.25966373900526"><ele>83.0</ele><time>2026-04-26T06:42:11Z</time></trkpt><trkpt lat="37.83776616046786" lon="15.259395554786757"><ele>83.0</ele><time>2026-04-26T06:42:12Z</time></trkpt><trkpt lat="37.8374949653408" lon="15.259154316278806"><ele>74.0</ele><time>2026-04-26T06:42:13Z</time></trkpt><trkpt lat="37.83720761448586" lon="15.25892678461045"><ele>65.0</ele><time>2026-04-26T06:42:14Z</time></trkpt><trkpt lat="37.83691365755684" lon="15.25870718293885"><ele>58.5</ele><time>2026-04-26T06:42:15Z</time></trkpt><trkpt lat="37.83661892808675" lon="15.258487999039119"><ele>52.0</ele><time>2026-04-26T06:42:16Z</time></trkpt><trkpt lat="37.836321699585355" lon="15.258259532737092"><ele>52.5</ele><time>2026-04-26T06:42:17Z</time></trkpt><trkpt lat="37.83602061914795" lon="15.258011697055684"><ele>53.0</ele><time>2026-04-26T06:42:18Z</time></trkpt><trkpt lat="37.8357115220123" lon="15.257739911687997"><ele>55.0</ele><time>2026-04-26T06:42:19Z</time></trkpt><trkpt lat="37.835407387354444" lon="15.25744388819281"><ele>57.0</ele><time>2026-04-26T06:42:20Z</time></trkpt><trkpt lat="37.835151502024274" lon="15.25714878712771"><ele>56.5</ele><time>2026-04-26T06:42:21Z</time></trkpt><trkpt lat="37.834930884620164" lon="15.256885403562926"><ele>56.0</ele><time>2026-04-26T06:42:22Z</time></trkpt><trkpt lat="37.83474253054106" lon="15.25665010246847"><ele>55.66666666666667</ele><time>2026-04-26T06:42:23Z</time></trkpt><trkpt lat="37.8345870958562" lon="15.256435604867056"><ele>55.33333333333333</ele><time>2026-04-26T06:42:24Z</time></trkpt><trkpt lat="37.83446267770181" lon="15.256224558875031"><ele>55.0</ele><time>2026-04-26T06:42:25Z</time></trkpt><trkpt lat="37.83436367519561" lon="15.256002136699447"><ele>54.666666666666664</ele><time>2026-04-26T06:42:26Z</time></trkpt><trkpt lat="37.83429911962912" lon="15.255779944136334"><ele>54.33333333333333</ele><time>2026-04-26T06:42:27Z</time></trkpt><trkpt lat="37.834268086016415" lon="15.255561881409088"><ele>54.0</ele><time>2026-04-26T06:42:28Z</time></trkpt><trkpt lat="37.83426313790813" lon="15.255346624362387"><ele>54.66666666666667</ele><time>2026-04-26T06:42:29Z</time></trkpt><trkpt lat="37.83429222370804" lon="15.255135681372279"><ele>55.333333333333336</ele><time>2026-04-26T06:42:30Z</time></trkpt><trkpt lat="37.834332425294555" lon="15.254927281403472"><ele>56.0</ele><time>2026-04-26T06:42:31Z</time></trkpt><trkpt lat="37.834381978087265" lon="15.25471755409622"><ele>58.66666666666667</ele><time>2026-04-26T06:42:32Z</time></trkpt><trkpt lat="37.834427665790365" lon="15.254508154092441"><ele>61.33333333333333</ele><time>2026-04-26T06:42:33Z</time></trkpt><trkpt lat="37.83446827596173" lon="15.254297698551254"><ele>64.0</ele><time>2026-04-26T06:42:34Z</time></trkpt><trkpt lat="37.83451512890691" lon="15.254087830958525"><ele>64.0</ele><time>2026-04-26T06:42:35Z</time></trkpt><trkpt lat="37.83455960622197" lon="15.25387395052449"><ele>64.0</ele><time>2026-04-26T06:42:36Z</time></trkpt><trkpt lat="37.8345954812436" lon="15.253667724901993"><ele>64.0</ele><time>2026-04-26T06:42:37Z</time></trkpt><trkpt lat="37.834609659669816" lon="15.25347773719538"><ele>64.0</ele><time>2026-04-26T06:42:38Z</time></trkpt><trkpt lat="37.834594579245646" lon="15.253293749821742"><ele>64.0</ele><time>2026-04-26T06:42:39Z</time></trkpt><trkpt lat="37.834546110624416" lon="15.253125139242739"><ele>64.0</ele><time>2026-04-26T06:42:40Z</time></trkpt><trkpt lat="37.83447440377698" lon="15.252971223711231"><ele>64.0</ele><time>2026-04-26T06:42:41Z</time></trkpt><trkpt lat="37.83438972538577" lon="15.25283579312657"><ele>63.25</ele><time>2026-04-26T06:42:42Z</time></trkpt><trkpt lat="37.8342903345433" lon="15.252728276575011"><ele>62.5</ele><time>2026-04-26T06:42:43Z</time></trkpt><trkpt lat="37.83417913668312" lon="15.252651487073688"><ele>61.75</ele><time>2026-04-26T06:42:44Z</time></trkpt><trkpt lat="37.83405459896433" lon="15.252603735516882"><ele>61.0</ele><time>2026-04-26T06:42:45Z</time></trkpt><trkpt lat="37.833914713357856" lon="15.252578407294166"><ele>61.0</ele><time>2026-04-26T06:42:46Z</time></trkpt><trkpt lat="37.83376273451118" lon="15.252583519124531"><ele>61.0</ele><time>2026-04-26T06:42:47Z</time></trkpt><trkpt lat="37.83360592189921" lon="15.252617216618932"><ele>61.0</ele><time>2026-04-26T06:42:48Z</time></trkpt><trkpt lat="37.83345861444234" lon="15.252701065803324"><ele>61.0</ele><time>2026-04-26T06:42:49Z</time></trkpt><trkpt lat="37.83332422160773" lon="15.25283039018704"><ele>61.0</ele><time>2026-04-26T06:42:50Z</time></trkpt><trkpt lat="37.833200144235505" lon="15.253001540981282"><ele>61.0</ele><time>2026-04-26T06:42:51Z</time></trkpt><trkpt lat="37.83308213344912" lon="15.25320982959875"><ele>63.5</ele><time>2026-04-26T06:42:52Z</time></trkpt><trkpt lat="37.832953187369554" lon="15.25343981112916"><ele>66.0</ele><time>2026-04-26T06:42:53Z</time></trkpt><trkpt lat="37.8328129487527" lon="15.253701187257665"><ele>64.0</ele><time>2026-04-26T06:42:54Z</time></trkpt><trkpt lat="37.832644151904475" lon="15.253978666476103"><ele>62.0</ele><time>2026-04-26T06:42:55Z</time></trkpt><trkpt lat="37.83246078561692" lon="15.25426447518795"><ele>59.0</ele><time>2026-04-26T06:42:56Z</time></trkpt><trkpt lat="37.83228576611865" lon="15.254557431288218"><ele>56.0</ele><time>2026-04-26T06:42:57Z</time></trkpt><trkpt lat="37.832106920944184" lon="15.254851519394107"><ele>55.0</ele><time>2026-04-26T06:42:58Z</time></trkpt><trkpt lat="37.83192125375409" lon="15.255120185004815"><ele>54.0</ele><time>2026-04-26T06:42:59Z</time></trkpt><trkpt lat="37.831718478379486" lon="15.255372689459593"><ele>51.5</ele><time>2026-04-26T06:43:00Z</time></trkpt><trkpt lat="37.83150001830447" lon="15.255605253157505"><ele>49.0</ele><time>2026-04-26T06:43:01Z</time></trkpt><trkpt lat="37.831268633133355" lon="15.255820562348886"><ele>48.5</ele><time>2026-04-26T06:43:02Z</time></trkpt><trkpt lat="37.83103338326356" lon="15.256035358878917"><ele>48.0</ele><time>2026-04-26T06:43:03Z</time></trkpt><trkpt lat="37.83079767643954" lon="15.256248426264259"><ele>47.5</ele><time>2026-04-26T06:43:04Z</time></trkpt><trkpt lat="37.830578772152634" lon="15.256452014356425"><ele>47.0</ele><time>2026-04-26T06:43:05Z</time></trkpt><trkpt lat="37.8303810596403" lon="15.256645440851006"><ele>46.33333333333333</ele><time>2026-04-26T06:43:06Z</time></trkpt><trkpt lat="37.83020727867257" lon="15.256838098439479"><ele>45.666666666666664</ele><time>2026-04-26T06:43:07Z</time></trkpt><trkpt lat="37.83005780358181" lon="15.25702963108033"><ele>45.0</ele><time>2026-04-26T06:43:08Z</time></trkpt><trkpt lat="37.82991827165828" lon="15.257213479928533"><ele>44.0</ele><time>2026-04-26T06:43:09Z</time></trkpt><trkpt lat="37.82978661113642" lon="15.257379436642012"><ele>43.0</ele><time>2026-04-26T06:43:10Z</time></trkpt><trkpt lat="37.829657447101184" lon="15.257538914236642"><ele>42.0</ele><time>2026-04-26T06:43:11Z</time></trkpt><trkpt lat="37.82953408701274" lon="15.257689304911326"><ele>42.0</ele><time>2026-04-26T06:43:12Z</time></trkpt><trkpt lat="37.82942288950227" lon="15.25783754050583"><ele>42.0</ele><time>2026-04-26T06:43:13Z</time></trkpt><trkpt lat="37.82931673634638" lon="15.257978062032553"><ele>42.0</ele><time>2026-04-26T06:43:14Z</time></trkpt><trkpt lat="37.829216563999076" lon="15.258111938854203"><ele>41.5</ele><time>2026-04-26T06:43:15Z</time></trkpt><trkpt lat="37.8291308490151" lon="15.258238178988215"><ele>41.0</ele><time>2026-04-26T06:43:16Z</time></trkpt><trkpt lat="37.829040776358035" lon="15.25834431269253"><ele>40.5</ele><time>2026-04-26T06:43:17Z</time></trkpt><trkpt lat="37.82896246650596" lon="15.258455038159692"><ele>40.0</ele><time>2026-04-26T06:43:18Z</time></trkpt><trkpt lat="37.82889531194147" lon="15.258563431994556"><ele>40.0</ele><time>2026-04-26T06:43:19Z</time></trkpt><trkpt lat="37.828833241058916" lon="15.258663507075397"><ele>40.0</ele><time>2026-04-26T06:43:20Z</time></trkpt><trkpt lat="37.8287777037549" lon="15.258750343799637"><ele>40.0</ele><time>2026-04-26T06:43:21Z</time></trkpt><trkpt lat="37.828725059882785" lon="15.25882811871428"><ele>40.0</ele><time>2026-04-26T06:43:22Z</time></trkpt><trkpt lat="37.82867828563271" lon="15.258887198317586"><ele>40.0</ele><time>2026-04-26T06:43:23Z</time></trkpt><trkpt lat="37.828609178944156" lon="15.25897667371051"><ele>40.0</ele><time>2026-04-26T06:43:25Z</time></trkpt><trkpt lat="37.828549977480996" lon="15.259051124576523"><ele>40.333333333333336</ele><time>2026-04-26T06:43:27Z</time></trkpt><trkpt lat="37.82848933831372" lon="15.259124992809713"><ele>40.66666666666667</ele><time>2026-04-26T06:43:29Z</time></trkpt><trkpt lat="37.82842979555309" lon="15.259194965164431"><ele>41.0</ele><time>2026-04-26T06:43:31Z</time></trkpt><trkpt lat="37.82836299591789" lon="15.259272969512189"><ele>41.333333333333336</ele><time>2026-04-26T06:43:33Z</time></trkpt><trkpt lat="37.828295282461305" lon="15.259348266139815"><ele>41.666666666666664</ele><time>2026-04-26T06:43:35Z</time></trkpt><trkpt lat="37.82823111439199" lon="15.259429920777045"><ele>42.0</ele><time>2026-04-26T06:43:37Z</time></trkpt><trkpt lat="37.82815672933877" lon="15.259505193647344"><ele>40.833333333333336</ele><time>2026-04-26T06:43:39Z</time></trkpt><trkpt lat="37.82808904913046" lon="15.25956004143497"><ele>39.666666666666664</ele><time>2026-04-26T06:43:41Z</time></trkpt><trkpt lat="37.828026702777045" lon="15.259607718219986"><ele>38.5</ele><time>2026-04-26T06:43:43Z</time></trkpt><trkpt lat="37.82797508097069" lon="15.25966928781078"><ele>37.33333333333333</ele><time>2026-04-26T06:43:45Z</time></trkpt><trkpt lat="37.827923521744296" lon="15.259717539118308"><ele>36.166666666666664</ele><time>2026-04-26T06:43:49Z</time></trkpt><trkpt lat="37.82785986687407" lon="15.259608844498365"><ele>35.0</ele><time>2026-04-26T06:44:15Z</time></trkpt><trkpt lat="37.827823013244796" lon="15.259701988543114"><ele>35.0</ele><time>2026-04-26T06:45:11Z</time></trkpt><trkpt lat="37.827761510948726" lon="15.25977154382159"><ele>35.0</ele><time>2026-04-26T06:45:12Z</time></trkpt><trkpt lat="37.82766105078667" lon="15.259805199067104"><ele>35.0</ele><time>2026-04-26T06:45:13Z</time></trkpt><trkpt lat="37.827535271617755" lon="15.259845712466099"><ele>35.0</ele><time>2026-04-26T06:45:14Z</time></trkpt><trkpt lat="37.827401275482714" lon="15.259818668811738"><ele>34.5</ele><time>2026-04-26T06:45:15Z</time></trkpt><trkpt lat="37.827307408571166" lon="15.259652751787176"><ele>34.0</ele><time>2026-04-26T06:45:16Z</time></trkpt><trkpt lat="37.82721654374445" lon="15.259526241944132"><ele>33.5</ele><time>2026-04-26T06:45:17Z</time></trkpt><trkpt lat="37.82711910696574" lon="15.259398527394515"><ele>33.0</ele><time>2026-04-26T06:45:18Z</time></trkpt><trkpt lat="37.82702521052759" lon="15.259263271436073"><ele>33.0</ele><time>2026-04-26T06:45:19Z</time></trkpt><trkpt lat="37.82694106395759" lon="15.259153054215854"><ele>33.0</ele><time>2026-04-26T06:45:20Z</time></trkpt><trkpt lat="37.826868832009694" lon="15.259051126551878"><ele>33.0</ele><time>2026-04-26T06:45:21Z</time></trkpt><trkpt lat="37.826817927317016" lon="15.258949982491632"><ele>33.0</ele><time>2026-04-26T06:45:22Z</time></trkpt><trkpt lat="37.826789182366355" lon="15.258843918141627"><ele>33.0</ele><time>2026-04-26T06:45:23Z</time></trkpt><trkpt lat="37.82678311978794" lon="15.258725262677567"><ele>33.199999999999996</ele><time>2026-04-26T06:45:24Z</time></trkpt><trkpt lat="37.82676816936583" lon="15.25860829825323"><ele>33.4</ele><time>2026-04-26T06:45:25Z</time></trkpt><trkpt lat="37.82674257943704" lon="15.258495833547697"><ele>33.599999999999994</ele><time>2026-04-26T06:45:26Z</time></trkpt><trkpt lat="37.826712827866324" lon="15.258380391294729"><ele>33.8</ele><time>2026-04-26T06:45:27Z</time></trkpt><trkpt lat="37.82668701732237" lon="15.258264263972777"><ele>34.0</ele><time>2026-04-26T06:45:28Z</time></trkpt><trkpt lat="37.826664495459084" lon="15.25815091586243"><ele>34.2</ele><time>2026-04-26T06:45:29Z</time></trkpt><trkpt lat="37.8266509493942" lon="15.25802700079973"><ele>34.4</ele><time>2026-04-26T06:45:30Z</time></trkpt><trkpt lat="37.826651243066976" lon="15.257901060021787"><ele>34.6</ele><time>2026-04-26T06:45:31Z</time></trkpt><trkpt lat="37.82665645961175" lon="15.257761701956214"><ele>34.8</ele><time>2026-04-26T06:45:32Z</time></trkpt><trkpt lat="37.826657434091636" lon="15.257616593104757"><ele>35.0</ele><time>2026-04-26T06:45:33Z</time></trkpt><trkpt lat="37.82666151643008" lon="15.257474326230382"><ele>35.0</ele><time>2026-04-26T06:45:34Z</time></trkpt><trkpt lat="37.82676516381405" lon="15.257334418143772"><ele>35.0</ele><time>2026-04-26T06:45:35Z</time></trkpt><trkpt lat="37.8268115915991" lon="15.257196765773104"><ele>35.0</ele><time>2026-04-26T06:45:36Z</time></trkpt><trkpt lat="37.82687699092934" lon="15.257068205377736"><ele>35.0</ele><time>2026-04-26T06:45:37Z</time></trkpt><trkpt lat="37.82694335043131" lon="15.25692346748246"><ele>35.25</ele><time>2026-04-26T06:45:38Z</time></trkpt><trkpt lat="37.82701426759011" lon="15.256767419056215"><ele>35.5</ele><time>2026-04-26T06:45:39Z</time></trkpt><trkpt lat="37.827094456602794" lon="15.256617053887476"><ele>35.75</ele><time>2026-04-26T06:45:40Z</time></trkpt><trkpt lat="37.827175572991834" lon="15.256465369129826"><ele>36.0</ele><time>2026-04-26T06:45:41Z</time></trkpt><trkpt lat="37.827254649955464" lon="15.25632343190555"><ele>36.5</ele><time>2026-04-26T06:45:42Z</time></trkpt><trkpt lat="37.827332848510146" lon="15.256180527531356"><ele>37.0</ele><time>2026-04-26T06:45:43Z</time></trkpt><trkpt lat="37.827412343953675" lon="15.256041028470783"><ele>37.5</ele><time>2026-04-26T06:45:44Z</time></trkpt><trkpt lat="37.82749493540836" lon="15.255905748690342"><ele>38.0</ele><time>2026-04-26T06:45:45Z</time></trkpt><trkpt lat="37.827571675934834" lon="15.25576994345349"><ele>37.75</ele><time>2026-04-26T06:45:46Z</time></trkpt><trkpt lat="37.827645045564836" lon="15.255638987978148"><ele>37.5</ele><time>2026-04-26T06:45:47Z</time></trkpt><trkpt lat="37.82771578275072" lon="15.255505184434051"><ele>37.25</ele><time>2026-04-26T06:45:48Z</time></trkpt><trkpt lat="37.82779034112654" lon="15.255378681590926"><ele>37.0</ele><time>2026-04-26T06:45:49Z</time></trkpt><trkpt lat="37.82785596970336" lon="15.255256818760106"><ele>37.6</ele><time>2026-04-26T06:45:50Z</time></trkpt><trkpt lat="37.82792189288006" lon="15.255139681778719"><ele>38.2</ele><time>2026-04-26T06:45:51Z</time></trkpt><trkpt lat="37.8279843367244" lon="15.25502427876784"><ele>38.8</ele><time>2026-04-26T06:45:52Z</time></trkpt><trkpt lat="37.82804685691103" lon="15.254910547719847"><ele>39.4</ele><time>2026-04-26T06:45:53Z</time></trkpt><trkpt lat="37.828109869464775" lon="15.254795689256802"><ele>40.0</ele><time>2026-04-26T06:45:54Z</time></trkpt><trkpt lat="37.82817889926656" lon="15.25466985828659"><ele>40.0</ele><time>2026-04-26T06:45:55Z</time></trkpt><trkpt lat="37.8282492740381" lon="15.25453389195584"><ele>40.0</ele><time>2026-04-26T06:45:56Z</time></trkpt><trkpt lat="37.82832475952815" lon="15.25439070781146"><ele>40.0</ele><time>2026-04-26T06:45:57Z</time></trkpt><trkpt lat="37.828402285492906" lon="15.25423775125285"><ele>40.0</ele><time>2026-04-26T06:45:58Z</time></trkpt><trkpt lat="37.82848708463492" lon="15.254074069764263"><ele>41.0</ele><time>2026-04-26T06:45:59Z</time></trkpt><trkpt lat="37.82857874175961" lon="15.253906257879716"><ele>42.0</ele><time>2026-04-26T06:46:00Z</time></trkpt><trkpt lat="37.82867180370878" lon="15.253750283950293"><ele>43.0</ele><time>2026-04-26T06:46:01Z</time></trkpt><trkpt lat="37.82876435751536" lon="15.253601763686046"><ele>43.0</ele><time>2026-04-26T06:46:02Z</time></trkpt><trkpt lat="37.82885088767477" lon="15.253452572763464"><ele>43.0</ele><time>2026-04-26T06:46:03Z</time></trkpt><trkpt lat="37.828935120499494" lon="15.25330408414603"><ele>43.0</ele><time>2026-04-26T06:46:04Z</time></trkpt><trkpt lat="37.829020654248374" lon="15.253160389229102"><ele>43.0</ele><time>2026-04-26T06:46:05Z</time></trkpt><trkpt lat="37.8291020681864" lon="15.253020646638932"><ele>43.5</ele><time>2026-04-26T06:46:06Z</time></trkpt><trkpt lat="37.829179970984136" lon="15.252884610205138"><ele>44.0</ele><time>2026-04-26T06:46:07Z</time></trkpt><trkpt lat="37.82925317300979" lon="15.2527500852397"><ele>44.5</ele><time>2026-04-26T06:46:08Z</time></trkpt><trkpt lat="37.829325343060425" lon="15.252623098292208"><ele>45.0</ele><time>2026-04-26T06:46:09Z</time></trkpt><trkpt lat="37.829393517841176" lon="15.252502397839912"><ele>45.0</ele><time>2026-04-26T06:46:10Z</time></trkpt><trkpt lat="37.82946133375584" lon="15.252385445579629"><ele>45.0</ele><time>2026-04-26T06:46:11Z</time></trkpt><trkpt lat="37.829531506529676" lon="15.252263462640752"><ele>45.0</ele><time>2026-04-26T06:46:12Z</time></trkpt><trkpt lat="37.829605560253526" lon="15.252135203404809"><ele>45.0</ele><time>2026-04-26T06:46:13Z</time></trkpt><trkpt lat="37.8296843545009" lon="15.25199962422507"><ele>45.5</ele><time>2026-04-26T06:46:14Z</time></trkpt><trkpt lat="37.82976531008944" lon="15.251855709312947"><ele>46.0</ele><time>2026-04-26T06:46:15Z</time></trkpt><trkpt lat="37.82984007339719" lon="15.251724091152022"><ele>46.5</ele><time>2026-04-26T06:46:16Z</time></trkpt><trkpt lat="37.829907367011934" lon="15.251596844054665"><ele>47.0</ele><time>2026-04-26T06:46:17Z</time></trkpt><trkpt lat="37.829972493612175" lon="15.251475666614938"><ele>47.0</ele><time>2026-04-26T06:46:18Z</time></trkpt><trkpt lat="37.83003186719121" lon="15.251361057065832"><ele>47.0</ele><time>2026-04-26T06:46:19Z</time></trkpt><trkpt lat="37.830094840785556" lon="15.251251196856689"><ele>47.0</ele><time>2026-04-26T06:46:20Z</time></trkpt><trkpt lat="37.83015860510775" lon="15.251141682990392"><ele>47.0</ele><time>2026-04-26T06:46:21Z</time></trkpt><trkpt lat="37.83022281000135" lon="15.251030095155429"><ele>47.0</ele><time>2026-04-26T06:46:22Z</time></trkpt><trkpt lat="37.8302906954501" lon="15.250916170950719"><ele>48.0</ele><time>2026-04-26T06:46:23Z</time></trkpt><trkpt lat="37.830357761922926" lon="15.250802865653485"><ele>49.0</ele><time>2026-04-26T06:46:24Z</time></trkpt><trkpt lat="37.830421175683526" lon="15.250685107412234"><ele>50.0</ele><time>2026-04-26T06:46:25Z</time></trkpt><trkpt lat="37.83048660945272" lon="15.250565073773313"><ele>51.0</ele><time>2026-04-26T06:46:26Z</time></trkpt><trkpt lat="37.83055529066155" lon="15.250443387818455"><ele>51.0</ele><time>2026-04-26T06:46:27Z</time></trkpt><trkpt lat="37.83062385475549" lon="15.250319834461894"><ele>51.0</ele><time>2026-04-26T06:46:28Z</time></trkpt><trkpt lat="37.83069238395719" lon="15.250191741597316"><ele>51.0</ele><time>2026-04-26T06:46:29Z</time></trkpt><trkpt lat="37.83076495800528" lon="15.250057284449886"><ele>51.0</ele><time>2026-04-26T06:46:30Z</time></trkpt><trkpt lat="37.830844943989455" lon="15.249919872537339"><ele>52.0</ele><time>2026-04-26T06:46:31Z</time></trkpt><trkpt lat="37.83093276302126" lon="15.249753951258645"><ele>53.0</ele><time>2026-04-26T06:46:32Z</time></trkpt><trkpt lat="37.83105547064829" lon="15.24956122229157"><ele>54.0</ele><time>2026-04-26T06:46:33Z</time></trkpt><trkpt lat="37.831176261500566" lon="15.249331244802583"><ele>54.0</ele><time>2026-04-26T06:46:34Z</time></trkpt><trkpt lat="37.8313112068289" lon="15.249112514144471"><ele>54.0</ele><time>2026-04-26T06:46:35Z</time></trkpt><trkpt lat="37.83143318866011" lon="15.248897434556218"><ele>54.0</ele><time>2026-04-26T06:46:36Z</time></trkpt><trkpt lat="37.83154851236743" lon="15.248695779006713"><ele>56.0</ele><time>2026-04-26T06:46:37Z</time></trkpt><trkpt lat="37.83165676985235" lon="15.248503149672192"><ele>58.0</ele><time>2026-04-26T06:46:38Z</time></trkpt><trkpt lat="37.831760669619406" lon="15.248318742972728"><ele>60.0</ele><time>2026-04-26T06:46:39Z</time></trkpt><trkpt lat="37.83185890609328" lon="15.248139457573458"><ele>61.0</ele><time>2026-04-26T06:46:40Z</time></trkpt><trkpt lat="37.831958221773306" lon="15.247969921824282"><ele>62.0</ele><time>2026-04-26T06:46:41Z</time></trkpt><trkpt lat="37.83204968516808" lon="15.247810907252555"><ele>63.0</ele><time>2026-04-26T06:46:42Z</time></trkpt><trkpt lat="37.83213811071968" lon="15.247661693532848"><ele>63.0</ele><time>2026-04-26T06:46:43Z</time></trkpt><trkpt lat="37.83222549477222" lon="15.247523387949682"><ele>63.0</ele><time>2026-04-26T06:46:44Z</time></trkpt><trkpt lat="37.832315221625784" lon="15.247389048067395"><ele>63.0</ele><time>2026-04-26T06:46:45Z</time></trkpt><trkpt lat="37.832410641889744" lon="15.247248350451642"><ele>63.0</ele><time>2026-04-26T06:46:46Z</time></trkpt><trkpt lat="37.832510641743156" lon="15.247103567822847"><ele>62.75</ele><time>2026-04-26T06:46:47Z</time></trkpt><trkpt lat="37.83260615442272" lon="15.246963823589006"><ele>62.5</ele><time>2026-04-26T06:46:48Z</time></trkpt><trkpt lat="37.83270178557248" lon="15.246832525601842"><ele>62.25</ele><time>2026-04-26T06:46:49Z</time></trkpt><trkpt lat="37.83278940878396" lon="15.24670276429808"><ele>62.0</ele><time>2026-04-26T06:46:50Z</time></trkpt><trkpt lat="37.832873107945254" lon="15.246579255804958"><ele>62.0</ele><time>2026-04-26T06:46:51Z</time></trkpt><trkpt lat="37.83296138843726" lon="15.24646628656434"><ele>62.0</ele><time>2026-04-26T06:46:52Z</time></trkpt><trkpt lat="37.83304402159368" lon="15.246350822524464"><ele>62.0</ele><time>2026-04-26T06:46:53Z</time></trkpt><trkpt lat="37.83311969132288" lon="15.24623140870572"><ele>62.0</ele><time>2026-04-26T06:46:54Z</time></trkpt><trkpt lat="37.833194152968794" lon="15.246123750657311"><ele>61.8</ele><time>2026-04-26T06:46:55Z</time></trkpt><trkpt lat="37.833253252972554" lon="15.24602993212266"><ele>61.6</ele><time>2026-04-26T06:46:56Z</time></trkpt><trkpt lat="37.83330239870831" lon="15.245940303694184"><ele>61.39999999999999</ele><time>2026-04-26T06:46:57Z</time></trkpt><trkpt lat="37.8333594530751" lon="15.245855941409621"><ele>61.199999999999996</ele><time>2026-04-26T06:46:58Z</time></trkpt><trkpt lat="37.83342278368869" lon="15.245768985213038"><ele>61.0</ele><time>2026-04-26T06:46:59Z</time></trkpt><trkpt lat="37.83348655404866" lon="15.245679277946005"><ele>61.0</ele><time>2026-04-26T06:47:00Z</time></trkpt><trkpt lat="37.83355043923503" lon="15.245584363836983"><ele>60.99999999999999</ele><time>2026-04-26T06:47:01Z</time></trkpt><trkpt lat="37.83361599484501" lon="15.245487303945685"><ele>60.99999999999999</ele><time>2026-04-26T06:47:02Z</time></trkpt><trkpt lat="37.83368010075186" lon="15.245387553667092"><ele>61.0</ele><time>2026-04-26T06:47:03Z</time></trkpt><trkpt lat="37.83374586509596" lon="15.245286407064873"><ele>61.0</ele><time>2026-04-26T06:47:04Z</time></trkpt><trkpt lat="37.83380921468721" lon="15.245182497377408"><ele>61.0</ele><time>2026-04-26T06:47:05Z</time></trkpt><trkpt lat="37.8338764397221" lon="15.24507991472614"><ele>60.99999999999999</ele><time>2026-04-26T06:47:06Z</time></trkpt><trkpt lat="37.833947131744644" lon="15.244975738189254"><ele>60.99999999999999</ele><time>2026-04-26T06:47:07Z</time></trkpt><trkpt lat="37.83401441491674" lon="15.24487675341842"><ele>61.0</ele><time>2026-04-26T06:47:08Z</time></trkpt><trkpt lat="37.83407345267004" lon="15.244787500737827"><ele>61.0</ele><time>2026-04-26T06:47:09Z</time></trkpt><trkpt lat="37.83412233121435" lon="15.244713545530015"><ele>60.83333333333333</ele><time>2026-04-26T06:47:10Z</time></trkpt><trkpt lat="37.83417011220413" lon="15.244646089511475"><ele>60.666666666666664</ele><time>2026-04-26T06:47:11Z</time></trkpt><trkpt lat="37.83421609590597" lon="15.244583280499455"><ele>60.5</ele><time>2026-04-26T06:47:12Z</time></trkpt><trkpt lat="37.83430066235153" lon="15.244464979500899"><ele>60.33333333333333</ele><time>2026-04-26T06:47:14Z</time></trkpt><trkpt lat="37.83434529102507" lon="15.244398484500403"><ele>60.166666666666664</ele><time>2026-04-26T06:47:15Z</time></trkpt><trkpt lat="37.83439597554238" lon="15.244319598845065"><ele>60.0</ele><time>2026-04-26T06:47:16Z</time></trkpt><trkpt lat="37.834445838356594" lon="15.24423375339078"><ele>60.0</ele><time>2026-04-26T06:47:17Z</time></trkpt><trkpt lat="37.83450829707399" lon="15.244149418791784"><ele>60.0</ele><time>2026-04-26T06:47:18Z</time></trkpt><trkpt lat="37.83457716422858" lon="15.244060619687083"><ele>60.0</ele><time>2026-04-26T06:47:19Z</time></trkpt><trkpt lat="37.83464540784697" lon="15.243959009624975"><ele>60.0</ele><time>2026-04-26T06:47:20Z</time></trkpt><trkpt lat="37.83472288809359" lon="15.243835309581314"><ele>60.0</ele><time>2026-04-26T06:47:21Z</time></trkpt><trkpt lat="37.834820917106214" lon="15.243699168202323"><ele>59.66666666666667</ele><time>2026-04-26T06:47:22Z</time></trkpt><trkpt lat="37.83492625963744" lon="15.243535358297285"><ele>59.333333333333336</ele><time>2026-04-26T06:47:23Z</time></trkpt><trkpt lat="37.83505228261241" lon="15.243343348954607"><ele>59.0</ele><time>2026-04-26T06:47:24Z</time></trkpt><trkpt lat="37.835208663000955" lon="15.24311911159143"><ele>59.0</ele><time>2026-04-26T06:47:25Z</time></trkpt><trkpt lat="37.83537376730605" lon="15.242880691909052"><ele>59.0</ele><time>2026-04-26T06:47:26Z</time></trkpt><trkpt lat="37.83551001831154" lon="15.24266792089964"><ele>59.0</ele><time>2026-04-26T06:47:27Z</time></trkpt><trkpt lat="37.835635751714406" lon="15.242467476589717"><ele>59.0</ele><time>2026-04-26T06:47:28Z</time></trkpt><trkpt lat="37.83575284444983" lon="15.242278625820115"><ele>59.0</ele><time>2026-04-26T06:47:29Z</time></trkpt><trkpt lat="37.8358617378821" lon="15.242101128442158"><ele>59.66666666666667</ele><time>2026-04-26T06:47:30Z</time></trkpt><trkpt lat="37.835976582326026" lon="15.241926019204568"><ele>60.33333333333333</ele><time>2026-04-26T06:47:31Z</time></trkpt><trkpt lat="37.83609422256007" lon="15.241754179198091"><ele>61.0</ele><time>2026-04-26T06:47:32Z</time></trkpt><trkpt lat="37.83620794414788" lon="15.241578289519438"><ele>61.33333333333333</ele><time>2026-04-26T06:47:33Z</time></trkpt><trkpt lat="37.83631836686261" lon="15.241398531708379"><ele>61.66666666666667</ele><time>2026-04-26T06:47:34Z</time></trkpt><trkpt lat="37.83643581796626" lon="15.241215380679252"><ele>62.0</ele><time>2026-04-26T06:47:35Z</time></trkpt><trkpt lat="37.83655786241086" lon="15.241032039498554"><ele>62.0</ele><time>2026-04-26T06:47:36Z</time></trkpt><trkpt lat="37.836673353907095" lon="15.240837757885796"><ele>62.0</ele><time>2026-04-26T06:47:37Z</time></trkpt><trkpt lat="37.83677997415461" lon="15.240634016959646"><ele>62.0</ele><time>2026-04-26T06:47:38Z</time></trkpt><trkpt lat="37.83688284997502" lon="15.240423465208492"><ele>62.66666666666667</ele><time>2026-04-26T06:47:39Z</time></trkpt><trkpt lat="37.83699200694772" lon="15.240209325905878"><ele>63.33333333333333</ele><time>2026-04-26T06:47:40Z</time></trkpt><trkpt lat="37.837102161405916" lon="15.239994346899207"><ele>64.0</ele><time>2026-04-26T06:47:41Z</time></trkpt><trkpt lat="37.83720508397262" lon="15.239793104243814"><ele>64.0</ele><time>2026-04-26T06:47:42Z</time></trkpt><trkpt lat="37.83729839038054" lon="15.239609338734939"><ele>64.0</ele><time>2026-04-26T06:47:43Z</time></trkpt><trkpt lat="37.837378744090586" lon="15.239433726109178"><ele>64.0</ele><time>2026-04-26T06:47:44Z</time></trkpt><trkpt lat="37.83744607035163" lon="15.239255508737456"><ele>64.0</ele><time>2026-04-26T06:47:45Z</time></trkpt><trkpt lat="37.83750560606644" lon="15.239063903330647"><ele>64.0</ele><time>2026-04-26T06:47:46Z</time></trkpt><trkpt lat="37.837562565010046" lon="15.238859565639428"><ele>64.0</ele><time>2026-04-26T06:47:47Z</time></trkpt><trkpt lat="37.837617162735626" lon="15.238671274740025"><ele>66.0</ele><time>2026-04-26T06:47:48Z</time></trkpt><trkpt lat="37.837668771619384" lon="15.238499195342058"><ele>68.0</ele><time>2026-04-26T06:47:49Z</time></trkpt><trkpt lat="37.837721319336865" lon="15.238318535595567"><ele>70.0</ele><time>2026-04-26T06:47:50Z</time></trkpt><trkpt lat="37.83777624187612" lon="15.238137480928664"><ele>69.0</ele><time>2026-04-26T06:47:51Z</time></trkpt><trkpt lat="37.837828216161014" lon="15.237952134368276"><ele>68.0</ele><time>2026-04-26T06:47:52Z</time></trkpt><trkpt lat="37.837869536825494" lon="15.237760092292026"><ele>67.0</ele><time>2026-04-26T06:47:53Z</time></trkpt><trkpt lat="37.83789718353753" lon="15.237559989473919"><ele>67.0</ele><time>2026-04-26T06:47:54Z</time></trkpt><trkpt lat="37.83790755191415" lon="15.237351056119888"><ele>67.0</ele><time>2026-04-26T06:47:55Z</time></trkpt><trkpt lat="37.8378884412351" lon="15.237139755406753"><ele>67.0</ele><time>2026-04-26T06:47:56Z</time></trkpt><trkpt lat="37.837851355988676" lon="15.236946996257945"><ele>66.5</ele><time>2026-04-26T06:47:57Z</time></trkpt><trkpt lat="37.8378184187933" lon="15.23677080736161"><ele>66.0</ele><time>2026-04-26T06:47:58Z</time></trkpt><trkpt lat="37.83781141846096" lon="15.236602422048808"><ele>65.5</ele><time>2026-04-26T06:47:59Z</time></trkpt><trkpt lat="37.83781383670772" lon="15.236438302561446"><ele>65.0</ele><time>2026-04-26T06:48:00Z</time></trkpt><trkpt lat="37.83784669059505" lon="15.236275984269632"><ele>64.8</ele><time>2026-04-26T06:48:01Z</time></trkpt><trkpt lat="37.837885797987354" lon="15.236122378692796"><ele>64.6</ele><time>2026-04-26T06:48:02Z</time></trkpt><trkpt lat="37.83792159388469" lon="15.235993770856396"><ele>64.4</ele><time>2026-04-26T06:48:03Z</time></trkpt><trkpt lat="37.83796804704982" lon="15.235888499778447"><ele>64.2</ele><time>2026-04-26T06:48:04Z</time></trkpt><trkpt lat="37.83800693339331" lon="15.235794616398861"><ele>64.0</ele><time>2026-04-26T06:48:05Z</time></trkpt><trkpt lat="37.838074456674235" lon="15.2356765042822"><ele>63.666666666666664</ele><time>2026-04-26T06:48:07Z</time></trkpt><trkpt lat="37.83813971251786" lon="15.23557025144197"><ele>63.33333333333333</ele><time>2026-04-26T06:48:09Z</time></trkpt><trkpt lat="37.83814420781795" lon="15.235453800152738"><ele>63.0</ele><time>2026-04-26T06:48:11Z</time></trkpt><trkpt lat="37.8381332144043" lon="15.235338013224636"><ele>62.66666666666667</ele><time>2026-04-26T06:48:13Z</time></trkpt><trkpt lat="37.83812705030083" lon="15.235255335517556"><ele>62.333333333333336</ele><time>2026-04-26T06:48:14Z</time></trkpt><trkpt lat="37.8381360389428" lon="15.235166040549739"><ele>62.0</ele><time>2026-04-26T06:48:15Z</time></trkpt><trkpt lat="37.838162886973706" lon="15.235069048646317"><ele>62.0</ele><time>2026-04-26T06:48:16Z</time></trkpt><trkpt lat="37.83821027341629" lon="15.234942404524045"><ele>62.0</ele><time>2026-04-26T06:48:17Z</time></trkpt><trkpt lat="37.83826159225552" lon="15.234778842564907"><ele>62.0</ele><time>2026-04-26T06:48:18Z</time></trkpt><trkpt lat="37.83831963874621" lon="15.234586387808251"><ele>62.0</ele><time>2026-04-26T06:48:19Z</time></trkpt><trkpt lat="37.838386566444676" lon="15.234373459917991"><ele>61.66666666666667</ele><time>2026-04-26T06:48:20Z</time></trkpt><trkpt lat="37.83845584471977" lon="15.234159368071165"><ele>61.33333333333333</ele><time>2026-04-26T06:48:21Z</time></trkpt><trkpt lat="37.83852046577383" lon="15.233956145329731"><ele>61.0</ele><time>2026-04-26T06:48:22Z</time></trkpt><trkpt lat="37.838580030751" lon="15.233763065611374"><ele>63.25</ele><time>2026-04-26T06:48:23Z</time></trkpt><trkpt lat="37.83863347207637" lon="15.233585452281176"><ele>65.5</ele><time>2026-04-26T06:48:24Z</time></trkpt><trkpt lat="37.83868159604095" lon="15.233411115298363"><ele>67.75</ele><time>2026-04-26T06:48:25Z</time></trkpt><trkpt lat="37.8387134330923" lon="15.233229797100453"><ele>70.0</ele><time>2026-04-26T06:48:26Z</time></trkpt><trkpt lat="37.838718980053244" lon="15.233043112642171"><ele>70.0</ele><time>2026-04-26T06:48:27Z</time></trkpt><trkpt lat="37.83869490714548" lon="15.23284780567778"><ele>70.0</ele><time>2026-04-26T06:48:28Z</time></trkpt><trkpt lat="37.838651766916826" lon="15.23265026631742"><ele>70.0</ele><time>2026-04-26T06:48:29Z</time></trkpt><trkpt lat="37.83862324382268" lon="15.232426695903536"><ele>68.25</ele><time>2026-04-26T06:48:30Z</time></trkpt><trkpt lat="37.83858784133166" lon="15.232268978809445"><ele>66.5</ele><time>2026-04-26T06:48:31Z</time></trkpt><trkpt lat="37.83858509268352" lon="15.232106220358677"><ele>64.75</ele><time>2026-04-26T06:48:32Z</time></trkpt><trkpt lat="37.8385962103078" lon="15.231950980324575"><ele>63.0</ele><time>2026-04-26T06:48:33Z</time></trkpt><trkpt lat="37.83862054923003" lon="15.231789716807729"><ele>63.0</ele><time>2026-04-26T06:48:34Z</time></trkpt><trkpt lat="37.83866032037831" lon="15.231631568522339"><ele>63.0</ele><time>2026-04-26T06:48:35Z</time></trkpt><trkpt lat="37.83872383311511" lon="15.23148544421526"><ele>63.0</ele><time>2026-04-26T06:48:36Z</time></trkpt><trkpt lat="37.83879986912341" lon="15.23135165836124"><ele>63.0</ele><time>2026-04-26T06:48:37Z</time></trkpt><trkpt lat="37.83888294438766" lon="15.2312256523456"><ele>62.75</ele><time>2026-04-26T06:48:38Z</time></trkpt><trkpt lat="37.83898326047517" lon="15.231116941951425"><ele>62.5</ele><time>2026-04-26T06:48:39Z</time></trkpt><trkpt lat="37.839101732421234" lon="15.231017158746019"><ele>62.25</ele><time>2026-04-26T06:48:40Z</time></trkpt><trkpt lat="37.83924360154037" lon="15.230928362356964"><ele>62.0</ele><time>2026-04-26T06:48:41Z</time></trkpt><trkpt lat="37.83941447499719" lon="15.230837505886546"><ele>61.5</ele><time>2026-04-26T06:48:42Z</time></trkpt><trkpt lat="37.83963278800795" lon="15.230763240250726"><ele>61.0</ele><time>2026-04-26T06:48:43Z</time></trkpt><trkpt lat="37.83988813636979" lon="15.230677102938342"><ele>60.5</ele><time>2026-04-26T06:48:44Z</time></trkpt><trkpt lat="37.84016747475836" lon="15.23056270778353"><ele>60.0</ele><time>2026-04-26T06:48:45Z</time></trkpt><trkpt lat="37.84048265723025" lon="15.23046178012297"><ele>60.0</ele><time>2026-04-26T06:48:46Z</time></trkpt><trkpt lat="37.840811264739415" lon="15.230338398942951"><ele>60.0</ele><time>2026-04-26T06:48:47Z</time></trkpt><trkpt lat="37.8411594921294" lon="15.23020083674469"><ele>61.5</ele><time>2026-04-26T06:48:48Z</time></trkpt><trkpt lat="37.84151207660445" lon="15.23008053038892"><ele>63.0</ele><time>2026-04-26T06:48:49Z</time></trkpt><trkpt lat="37.84184288262078" lon="15.229957897930323"><ele>62.0</ele><time>2026-04-26T06:48:50Z</time></trkpt><trkpt lat="37.84215275353868" lon="15.229840733470686"><ele>61.0</ele><time>2026-04-26T06:48:51Z</time></trkpt><trkpt lat="37.842448625646874" lon="15.229731627482481"><ele>63.0</ele><time>2026-04-26T06:48:52Z</time></trkpt><trkpt lat="37.842729107049905" lon="15.229620808031067"><ele>65.0</ele><time>2026-04-26T06:48:53Z</time></trkpt><trkpt lat="37.84300190326169" lon="15.229521155812662"><ele>65.0</ele><time>2026-04-26T06:48:54Z</time></trkpt><trkpt lat="37.84326685684956" lon="15.229442162026375"><ele>65.0</ele><time>2026-04-26T06:48:55Z</time></trkpt><trkpt lat="37.84352957847922" lon="15.22939468849458"><ele>67.0</ele><time>2026-04-26T06:48:56Z</time></trkpt><trkpt lat="37.843785281004955" lon="15.2293632110997"><ele>69.0</ele><time>2026-04-26T06:48:57Z</time></trkpt><trkpt lat="37.84402463149337" lon="15.229322892621632"><ele>69.0</ele><time>2026-04-26T06:48:58Z</time></trkpt><trkpt lat="37.84424716460949" lon="15.229284918686535"><ele>69.0</ele><time>2026-04-26T06:48:59Z</time></trkpt><trkpt lat="37.844452138169" lon="15.229250330020978"><ele>69.0</ele><time>2026-04-26T06:49:00Z</time></trkpt><trkpt lat="37.84464729532944" lon="15.2291977468679"><ele>69.0</ele><time>2026-04-26T06:49:01Z</time></trkpt><trkpt lat="37.84484125833829" lon="15.229101106006693"><ele>69.0</ele><time>2026-04-26T06:49:02Z</time></trkpt><trkpt lat="37.84501682595595" lon="15.228949797992785"><ele>69.0</ele><time>2026-04-26T06:49:03Z</time></trkpt><trkpt lat="37.84517492492813" lon="15.228760712054566"><ele>69.0</ele><time>2026-04-26T06:49:04Z</time></trkpt><trkpt lat="37.845313670637395" lon="15.228531727623205"><ele>69.0</ele><time>2026-04-26T06:49:05Z</time></trkpt><trkpt lat="37.84544725116314" lon="15.228271506795794"><ele>68.0</ele><time>2026-04-26T06:49:06Z</time></trkpt><trkpt lat="37.845588869622084" lon="15.22798962984977"><ele>67.0</ele><time>2026-04-26T06:49:07Z</time></trkpt><trkpt lat="37.84574611342985" lon="15.227689407398353"><ele>67.0</ele><time>2026-04-26T06:49:08Z</time></trkpt><trkpt lat="37.8459179824687" lon="15.227369390948137"><ele>67.0</ele><time>2026-04-26T06:49:09Z</time></trkpt><trkpt lat="37.846100377124394" lon="15.227025201883084"><ele>70.0</ele><time>2026-04-26T06:49:10Z</time></trkpt><trkpt lat="37.84629561152972" lon="15.226660771638484"><ele>73.0</ele><time>2026-04-26T06:49:11Z</time></trkpt><trkpt lat="37.84648907692251" lon="15.226303407313232"><ele>73.0</ele><time>2026-04-26T06:49:12Z</time></trkpt><trkpt lat="37.84666958531224" lon="15.225966823553817"><ele>73.0</ele><time>2026-04-26T06:49:13Z</time></trkpt><trkpt lat="37.846837538420424" lon="15.225645860256549"><ele>74.5</ele><time>2026-04-26T06:49:14Z</time></trkpt><trkpt lat="37.84699472223173" lon="15.225347118301958"><ele>76.0</ele><time>2026-04-26T06:49:15Z</time></trkpt><trkpt lat="37.84714038895633" lon="15.22507397078867"><ele>76.0</ele><time>2026-04-26T06:49:16Z</time></trkpt><trkpt lat="37.84727946036896" lon="15.22482116032606"><ele>76.0</ele><time>2026-04-26T06:49:17Z</time></trkpt><trkpt lat="37.84742496835079" lon="15.224574195997441"><ele>78.0</ele><time>2026-04-26T06:49:18Z</time></trkpt><trkpt lat="37.847599262152514" lon="15.224363000479146"><ele>80.0</ele><time>2026-04-26T06:49:19Z</time></trkpt><trkpt lat="37.84779693241964" lon="15.224186239532939"><ele>80.0</ele><time>2026-04-26T06:49:20Z</time></trkpt><trkpt lat="37.84801881278751" lon="15.224079034995517"><ele>80.0</ele><time>2026-04-26T06:49:21Z</time></trkpt><trkpt lat="37.84818146285365" lon="15.223920647379389"><ele>80.0</ele><time>2026-04-26T06:49:22Z</time></trkpt><trkpt lat="37.84833132650725" lon="15.223797524399549"><ele>80.5</ele><time>2026-04-26T06:49:23Z</time></trkpt><trkpt lat="37.848642306486134" lon="15.224048194158225"><ele>81.0</ele><time>2026-04-26T06:49:24Z</time></trkpt><trkpt lat="37.848825432756776" lon="15.224132089519486"><ele>81.0</ele><time>2026-04-26T06:49:25Z</time></trkpt><trkpt lat="37.84901881150209" lon="15.224234883143858"><ele>81.0</ele><time>2026-04-26T06:49:26Z</time></trkpt><trkpt lat="37.849236339097686" lon="15.224289570370205"><ele>81.0</ele><time>2026-04-26T06:49:27Z</time></trkpt><trkpt lat="37.849465948299425" lon="15.224305575675665"><ele>79.0</ele><time>2026-04-26T06:49:28Z</time></trkpt><trkpt lat="37.84971148587103" lon="15.224315284016678"><ele>77.0</ele><time>2026-04-26T06:49:29Z</time></trkpt><trkpt lat="37.84997399449984" lon="15.224358508193493"><ele>77.5</ele><time>2026-04-26T06:49:30Z</time></trkpt><trkpt lat="37.850224429801116" lon="15.224410724351113"><ele>78.0</ele><time>2026-04-26T06:49:31Z</time></trkpt><trkpt lat="37.850459410476695" lon="15.224466933721333"><ele>78.0</ele><time>2026-04-26T06:49:32Z</time></trkpt><trkpt lat="37.85068896426553" lon="15.224534599903146"><ele>78.0</ele><time>2026-04-26T06:49:33Z</time></trkpt><trkpt lat="37.85091017826551" lon="15.224613337067511"><ele>78.5</ele><time>2026-04-26T06:49:34Z</time></trkpt><trkpt lat="37.85112208418493" lon="15.224717013444733"><ele>79.0</ele><time>2026-04-26T06:49:35Z</time></trkpt><trkpt lat="37.851324213379726" lon="15.22484875217412"><ele>81.5</ele><time>2026-04-26T06:49:36Z</time></trkpt><trkpt lat="37.85151748064141" lon="15.22501328101762"><ele>84.0</ele><time>2026-04-26T06:49:37Z</time></trkpt><trkpt lat="37.85170309107183" lon="15.225197020409745"><ele>84.0</ele><time>2026-04-26T06:49:38Z</time></trkpt><trkpt lat="37.851874687319516" lon="15.22537163269296"><ele>84.0</ele><time>2026-04-26T06:49:39Z</time></trkpt><trkpt lat="37.85204192104506" lon="15.22553234272784"><ele>84.0</ele><time>2026-04-26T06:49:40Z</time></trkpt><trkpt lat="37.85219929969091" lon="15.225667767220134"><ele>86.33333333333333</ele><time>2026-04-26T06:49:41Z</time></trkpt><trkpt lat="37.85236771248821" lon="15.225772608450873"><ele>88.66666666666666</ele><time>2026-04-26T06:49:42Z</time></trkpt><trkpt lat="37.852544345601245" lon="15.22584379665599"><ele>91.0</ele><time>2026-04-26T06:49:43Z</time></trkpt><trkpt lat="37.852729323446894" lon="15.22588441857634"><ele>91.0</ele><time>2026-04-26T06:49:44Z</time></trkpt><trkpt lat="37.85292229293347" lon="15.22588811061468"><ele>91.0</ele><time>2026-04-26T06:49:45Z</time></trkpt><trkpt lat="37.853118758360104" lon="15.225846715273518"><ele>91.0</ele><time>2026-04-26T06:49:46Z</time></trkpt><trkpt lat="37.85331136920364" lon="15.225765219365185"><ele>90.66666666666666</ele><time>2026-04-26T06:49:47Z</time></trkpt><trkpt lat="37.853488624336414" lon="15.225641017015652"><ele>90.33333333333333</ele><time>2026-04-26T06:49:48Z</time></trkpt><trkpt lat="37.853651597322695" lon="15.225479732304162"><ele>90.0</ele><time>2026-04-26T06:49:49Z</time></trkpt><trkpt lat="37.85379988647874" lon="15.225282019534117"><ele>90.0</ele><time>2026-04-26T06:49:50Z</time></trkpt><trkpt lat="37.8539398133845" lon="15.225072564986192"><ele>90.0</ele><time>2026-04-26T06:49:51Z</time></trkpt><trkpt lat="37.85408113576004" lon="15.224870063534171"><ele>90.0</ele><time>2026-04-26T06:49:52Z</time></trkpt><trkpt lat="37.85422337040135" lon="15.224674954702486"><ele>90.66666666666667</ele><time>2026-04-26T06:49:53Z</time></trkpt><trkpt lat="37.85436449803604" lon="15.224475898768256"><ele>91.33333333333334</ele><time>2026-04-26T06:49:54Z</time></trkpt><trkpt lat="37.8545031097498" lon="15.224278228333187"><ele>92.0</ele><time>2026-04-26T06:49:55Z</time></trkpt><trkpt lat="37.854640797165885" lon="15.224100018901341"><ele>91.0</ele><time>2026-04-26T06:49:56Z</time></trkpt><trkpt lat="37.85477821742884" lon="15.223939656414561"><ele>90.0</ele><time>2026-04-26T06:49:57Z</time></trkpt><trkpt lat="37.854915479366994" lon="15.22380220297343"><ele>89.0</ele><time>2026-04-26T06:49:58Z</time></trkpt><trkpt lat="37.85505834569155" lon="15.223689816899427"><ele>89.66666666666667</ele><time>2026-04-26T06:49:59Z</time></trkpt><trkpt lat="37.855201051178874" lon="15.223597630784347"><ele>90.33333333333333</ele><time>2026-04-26T06:50:00Z</time></trkpt><trkpt lat="37.85533715766407" lon="15.223504167140748"><ele>91.0</ele><time>2026-04-26T06:50:01Z</time></trkpt><trkpt lat="37.85547944699133" lon="15.22341407143101"><ele>91.0</ele><time>2026-04-26T06:50:02Z</time></trkpt><trkpt lat="37.85562129728358" lon="15.223336235623952"><ele>91.0</ele><time>2026-04-26T06:50:03Z</time></trkpt><trkpt lat="37.855771009775296" lon="15.223265877657612"><ele>91.0</ele><time>2026-04-26T06:50:04Z</time></trkpt><trkpt lat="37.85593052250374" lon="15.223213336367943"><ele>91.33333333333333</ele><time>2026-04-26T06:50:05Z</time></trkpt><trkpt lat="37.856095348007905" lon="15.22315239863886"><ele>91.66666666666667</ele><time>2026-04-26T06:50:06Z</time></trkpt><trkpt lat="37.856260988062864" lon="15.223083346730224"><ele>92.0</ele><time>2026-04-26T06:50:07Z</time></trkpt><trkpt lat="37.856429812828665" lon="15.223008576468752"><ele>92.0</ele><time>2026-04-26T06:50:08Z</time></trkpt><trkpt lat="37.85660341491849" lon="15.222939197371865"><ele>92.0</ele><time>2026-04-26T06:50:09Z</time></trkpt><trkpt lat="37.85677974910849" lon="15.22287040664348"><ele>92.0</ele><time>2026-04-26T06:50:10Z</time></trkpt><trkpt lat="37.856953422683" lon="15.22280148007464"><ele>94.0</ele><time>2026-04-26T06:50:11Z</time></trkpt><trkpt lat="37.85712305373715" lon="15.222738009911579"><ele>96.0</ele><time>2026-04-26T06:50:12Z</time></trkpt><trkpt lat="37.8572785603203" lon="15.222679770797342"><ele>98.0</ele><time>2026-04-26T06:50:13Z</time></trkpt><trkpt lat="37.85743343910146" lon="15.222623847340866"><ele>98.0</ele><time>2026-04-26T06:50:14Z</time></trkpt><trkpt lat="37.85758713611469" lon="15.222566030932413"><ele>98.0</ele><time>2026-04-26T06:50:15Z</time></trkpt><trkpt lat="37.85774137108254" lon="15.222508258104662"><ele>98.0</ele><time>2026-04-26T06:50:16Z</time></trkpt><trkpt lat="37.85789755810023" lon="15.222449384370565"><ele>98.33333333333333</ele><time>2026-04-26T06:50:17Z</time></trkpt><trkpt lat="37.85805731008806" lon="15.222383403364633"><ele>98.66666666666666</ele><time>2026-04-26T06:50:18Z</time></trkpt><trkpt lat="37.858218940140944" lon="15.222313669367589"><ele>99.0</ele><time>2026-04-26T06:50:19Z</time></trkpt><trkpt lat="37.85838282143603" lon="15.222242118703564"><ele>100.66666666666666</ele><time>2026-04-26T06:50:20Z</time></trkpt><trkpt lat="37.85855042010659" lon="15.222173683484387"><ele>102.33333333333333</ele><time>2026-04-26T06:50:21Z</time></trkpt><trkpt lat="37.858719599593144" lon="15.222105871036073"><ele>104.0</ele><time>2026-04-26T06:50:22Z</time></trkpt><trkpt lat="37.85888811216162" lon="15.222042494981665"><ele>104.0</ele><time>2026-04-26T06:50:23Z</time></trkpt><trkpt lat="37.85905635053894" lon="15.222008301129119"><ele>104.0</ele><time>2026-04-26T06:50:24Z</time></trkpt><trkpt lat="37.859236223627164" lon="15.221942630515432"><ele>104.0</ele><time>2026-04-26T06:50:25Z</time></trkpt><trkpt lat="37.85940294716184" lon="15.22185554209767"><ele>106.0</ele><time>2026-04-26T06:50:26Z</time></trkpt><trkpt lat="37.85955971901049" lon="15.22179692032182"><ele>108.0</ele><time>2026-04-26T06:50:27Z</time></trkpt><trkpt lat="37.85970616775375" lon="15.221739222566802"><ele>110.0</ele><time>2026-04-26T06:50:28Z</time></trkpt><trkpt lat="37.859843375938716" lon="15.221668617645093"><ele>110.0</ele><time>2026-04-26T06:50:29Z</time></trkpt><trkpt lat="37.85994093065175" lon="15.221598535123201"><ele>110.0</ele><time>2026-04-26T06:50:30Z</time></trkpt><trkpt lat="37.86001765694005" lon="15.221472755444251"><ele>110.0</ele><time>2026-04-26T06:50:31Z</time></trkpt><trkpt lat="37.860082652432936" lon="15.221356159823863"><ele>110.0</ele><time>2026-04-26T06:50:32Z</time></trkpt><trkpt lat="37.86015073676469" lon="15.221244326724483"><ele>110.4</ele><time>2026-04-26T06:50:33Z</time></trkpt><trkpt lat="37.860219239605186" lon="15.22113923763924"><ele>110.8</ele><time>2026-04-26T06:50:34Z</time></trkpt><trkpt lat="37.86029923951027" lon="15.221036844197668"><ele>111.19999999999999</ele><time>2026-04-26T06:50:35Z</time></trkpt><trkpt lat="37.86038110138198" lon="15.220942331004865"><ele>111.6</ele><time>2026-04-26T06:50:36Z</time></trkpt><trkpt lat="37.86047119452405" lon="15.2208609260394"><ele>112.0</ele><time>2026-04-26T06:50:37Z</time></trkpt><trkpt lat="37.860581958839305" lon="15.220794811818541"><ele>112.0</ele><time>2026-04-26T06:50:38Z</time></trkpt><trkpt lat="37.860699276691825" lon="15.220727713666008"><ele>112.0</ele><time>2026-04-26T06:50:39Z</time></trkpt><trkpt lat="37.86082112470819" lon="15.220646434752304"><ele>112.0</ele><time>2026-04-26T06:50:40Z</time></trkpt><trkpt lat="37.86095205516372" lon="15.220575152071168"><ele>112.0</ele><time>2026-04-26T06:50:41Z</time></trkpt><trkpt lat="37.86109204028795" lon="15.22049580218369"><ele>112.0</ele><time>2026-04-26T06:50:42Z</time></trkpt><trkpt lat="37.86123091418776" lon="15.220411776992494"><ele>112.0</ele><time>2026-04-26T06:50:43Z</time></trkpt><trkpt lat="37.86137454249969" lon="15.220327409391386"><ele>112.0</ele><time>2026-04-26T06:50:44Z</time></trkpt><trkpt lat="37.861510789065356" lon="15.220237035954677"><ele>112.0</ele><time>2026-04-26T06:50:45Z</time></trkpt><trkpt lat="37.861642382641904" lon="15.220160415691675"><ele>112.0</ele><time>2026-04-26T06:50:46Z</time></trkpt><trkpt lat="37.861766117690046" lon="15.220084418517429"><ele>112.0</ele><time>2026-04-26T06:50:47Z</time></trkpt><trkpt lat="37.86187828343088" lon="15.220009340801916"><ele>112.0</ele><time>2026-04-26T06:50:48Z</time></trkpt><trkpt lat="37.86198768675028" lon="15.21994011781745"><ele>112.19999999999999</ele><time>2026-04-26T06:50:49Z</time></trkpt><trkpt lat="37.862095111605534" lon="15.219873497008896"><ele>112.39999999999999</ele><time>2026-04-26T06:50:50Z</time></trkpt><trkpt lat="37.86219274921764" lon="15.219813524200836"><ele>112.60000000000001</ele><time>2026-04-26T06:50:51Z</time></trkpt><trkpt lat="37.86228989653195" lon="15.219745837823325"><ele>112.80000000000001</ele><time>2026-04-26T06:50:52Z</time></trkpt><trkpt lat="37.86238047396698" lon="15.21966570515254"><ele>113.0</ele><time>2026-04-26T06:50:53Z</time></trkpt><trkpt lat="37.86246967754828" lon="15.219570725840608"><ele>113.0</ele><time>2026-04-26T06:50:54Z</time></trkpt><trkpt lat="37.86256566120916" lon="15.21946867343652"><ele>113.0</ele><time>2026-04-26T06:50:55Z</time></trkpt><trkpt lat="37.86266899324188" lon="15.219364181910853"><ele>113.0</ele><time>2026-04-26T06:50:56Z</time></trkpt><trkpt lat="37.86276658377225" lon="15.219258994407419"><ele>113.0</ele><time>2026-04-26T06:50:57Z</time></trkpt><trkpt lat="37.86286096923892" lon="15.219146661660965"><ele>113.75</ele><time>2026-04-26T06:50:58Z</time></trkpt><trkpt lat="37.86295455196752" lon="15.21903464205034"><ele>114.5</ele><time>2026-04-26T06:50:59Z</time></trkpt><trkpt lat="37.86305288716295" lon="15.218924068454317"><ele>115.25</ele><time>2026-04-26T06:51:00Z</time></trkpt><trkpt lat="37.86314704125103" lon="15.21881549734944"><ele>116.0</ele><time>2026-04-26T06:51:01Z</time></trkpt><trkpt lat="37.863234160674196" lon="15.218705860313428"><ele>116.0</ele><time>2026-04-26T06:51:02Z</time></trkpt><trkpt lat="37.863315098356026" lon="15.21861130947886"><ele>116.0</ele><time>2026-04-26T06:51:03Z</time></trkpt><trkpt lat="37.863385254272174" lon="15.218527636917157"><ele>116.0</ele><time>2026-04-26T06:51:04Z</time></trkpt><trkpt lat="37.86345194202496" lon="15.218450416934628"><ele>116.0</ele><time>2026-04-26T06:51:05Z</time></trkpt><trkpt lat="37.863523058569044" lon="15.21837012039053"><ele>116.0</ele><time>2026-04-26T06:51:06Z</time></trkpt><trkpt lat="37.8635985790843" lon="15.21828070319218"><ele>115.6</ele><time>2026-04-26T06:51:07Z</time></trkpt><trkpt lat="37.863677157259595" lon="15.218182737269162"><ele>115.19999999999999</ele><time>2026-04-26T06:51:08Z</time></trkpt><trkpt lat="37.863763585183214" lon="15.218083772428397"><ele>114.80000000000001</ele><time>2026-04-26T06:51:09Z</time></trkpt><trkpt lat="37.863849475439835" lon="15.217990125063102"><ele>114.4</ele><time>2026-04-26T06:51:10Z</time></trkpt><trkpt lat="37.8639345236549" lon="15.217913837914935"><ele>114.0</ele><time>2026-04-26T06:51:11Z</time></trkpt><trkpt lat="37.86402639289333" lon="15.21786157213017"><ele>114.0</ele><time>2026-04-26T06:51:12Z</time></trkpt><trkpt lat="37.86411735756083" lon="15.217843000101881"><ele>114.0</ele><time>2026-04-26T06:51:13Z</time></trkpt><trkpt lat="37.86420744163129" lon="15.21783158466311"><ele>114.0</ele><time>2026-04-26T06:51:14Z</time></trkpt><trkpt lat="37.86429269731415" lon="15.217860115740388"><ele>114.0</ele><time>2026-04-26T06:51:15Z</time></trkpt><trkpt lat="37.86437619820257" lon="15.217909335425643"><ele>114.0</ele><time>2026-04-26T06:51:16Z</time></trkpt><trkpt lat="37.86445007014935" lon="15.21797695999495"><ele>114.5</ele><time>2026-04-26T06:51:17Z</time></trkpt><trkpt lat="37.86452038049067" lon="15.218053684382246"><ele>115.0</ele><time>2026-04-26T06:51:18Z</time></trkpt><trkpt lat="37.86458706369613" lon="15.218130828470791"><ele>115.5</ele><time>2026-04-26T06:51:19Z</time></trkpt><trkpt lat="37.864637708938965" lon="15.218213017034259"><ele>116.0</ele><time>2026-04-26T06:51:20Z</time></trkpt><trkpt lat="37.86469884651774" lon="15.218275721143883"><ele>116.5</ele><time>2026-04-26T06:51:21Z</time></trkpt><trkpt lat="37.86476151029244" lon="15.21832920409427"><ele>117.0</ele><time>2026-04-26T06:51:22Z</time></trkpt><trkpt lat="37.86483004874548" lon="15.218367868576905"><ele>118.5</ele><time>2026-04-26T06:51:23Z</time></trkpt><trkpt lat="37.864904714650635" lon="15.218379592137275"><ele>120.0</ele><time>2026-04-26T06:51:24Z</time></trkpt><trkpt lat="37.86498155862873" lon="15.21836253752231"><ele>121.5</ele><time>2026-04-26T06:51:25Z</time></trkpt><trkpt lat="37.865057171627946" lon="15.218308825958843"><ele>123.0</ele><time>2026-04-26T06:51:26Z</time></trkpt><trkpt lat="37.86513354386139" lon="15.21822908902867"><ele>124.5</ele><time>2026-04-26T06:51:27Z</time></trkpt><trkpt lat="37.86521490890433" lon="15.218147655409702"><ele>126.0</ele><time>2026-04-26T06:51:28Z</time></trkpt><trkpt lat="37.86531142592877" lon="15.218080630470478"><ele>126.0</ele><time>2026-04-26T06:51:29Z</time></trkpt><trkpt lat="37.86544169313465" lon="15.218021224870528"><ele>126.0</ele><time>2026-04-26T06:51:30Z</time></trkpt><trkpt lat="37.865596646022546" lon="15.217951194639692"><ele>126.0</ele><time>2026-04-26T06:51:31Z</time></trkpt><trkpt lat="37.86578711664012" lon="15.217885837362179"><ele>129.66666666666666</ele><time>2026-04-26T06:51:32Z</time></trkpt><trkpt lat="37.865993224962665" lon="15.21779236678888"><ele>133.33333333333331</ele><time>2026-04-26T06:51:33Z</time></trkpt><trkpt lat="37.866199048024725" lon="15.217685115705066"><ele>137.0</ele><time>2026-04-26T06:51:34Z</time></trkpt><trkpt lat="37.86638600294659" lon="15.217578822930093"><ele>137.0</ele><time>2026-04-26T06:51:35Z</time></trkpt><trkpt lat="37.8665563794782" lon="15.217465273788019"><ele>137.0</ele><time>2026-04-26T06:51:36Z</time></trkpt><trkpt lat="37.86670985536391" lon="15.217350350533524"><ele>137.0</ele><time>2026-04-26T06:51:37Z</time></trkpt><trkpt lat="37.8668346259627" lon="15.217255918277937"><ele>136.75</ele><time>2026-04-26T06:51:38Z</time></trkpt><trkpt lat="37.866943167566276" lon="15.217176556841997"><ele>136.5</ele><time>2026-04-26T06:51:39Z</time></trkpt><trkpt lat="37.8670499624054" lon="15.217128226415621"><ele>136.25</ele><time>2026-04-26T06:51:40Z</time></trkpt><trkpt lat="37.8671561390503" lon="15.217133193587298"><ele>136.0</ele><time>2026-04-26T06:51:41Z</time></trkpt><trkpt lat="37.867256578302936" lon="15.217192188772755"><ele>136.0</ele><time>2026-04-26T06:51:42Z</time></trkpt><trkpt lat="37.86736514833767" lon="15.217283771560318"><ele>136.0</ele><time>2026-04-26T06:51:43Z</time></trkpt><trkpt lat="37.86750572406683" lon="15.217350292388392"><ele>136.0</ele><time>2026-04-26T06:51:44Z</time></trkpt><trkpt lat="37.867665817245886" lon="15.217395717986266"><ele>136.0</ele><time>2026-04-26T06:51:45Z</time></trkpt><trkpt lat="37.86783385539439" lon="15.217445963222048"><ele>143.0</ele><time>2026-04-26T06:51:46Z</time></trkpt><trkpt lat="37.868006382584475" lon="15.217501739481987"><ele>150.0</ele><time>2026-04-26T06:51:47Z</time></trkpt><trkpt lat="37.8681863650314" lon="15.217563913532883"><ele>157.0</ele><time>2026-04-26T06:51:48Z</time></trkpt><trkpt lat="37.86835972294687" lon="15.217623331110902"><ele>154.5</ele><time>2026-04-26T06:51:49Z</time></trkpt><trkpt lat="37.868517476261246" lon="15.217679701103808"><ele>152.0</ele><time>2026-04-26T06:51:50Z</time></trkpt><trkpt lat="37.86864517957382" lon="15.217752782925556"><ele>149.5</ele><time>2026-04-26T06:51:51Z</time></trkpt><trkpt lat="37.86874670882565" lon="15.217856560442147"><ele>147.0</ele><time>2026-04-26T06:51:52Z</time></trkpt><trkpt lat="37.868816615807695" lon="15.21798069766196"><ele>147.0</ele><time>2026-04-26T06:51:53Z</time></trkpt><trkpt lat="37.86886518401431" lon="15.218104621553065"><ele>147.0</ele><time>2026-04-26T06:51:54Z</time></trkpt><trkpt lat="37.86893584195954" lon="15.2181889607218"><ele>147.0</ele><time>2026-04-26T06:51:55Z</time></trkpt><trkpt lat="37.86902920844853" lon="15.21821493481461"><ele>147.0</ele><time>2026-04-26T06:51:56Z</time></trkpt><trkpt lat="37.869130398886824" lon="15.218189251932843"><ele>147.0</ele><time>2026-04-26T06:51:57Z</time></trkpt><trkpt lat="37.86924039413372" lon="15.218123449077064"><ele>150.25</ele><time>2026-04-26T06:51:58Z</time></trkpt><trkpt lat="37.86935600444506" lon="15.218025135434265"><ele>153.5</ele><time>2026-04-26T06:51:59Z</time></trkpt><trkpt lat="37.869475930099725" lon="15.217912005573313"><ele>156.75</ele><time>2026-04-26T06:52:00Z</time></trkpt><trkpt lat="37.869592227527875" lon="15.217791906927015"><ele>160.0</ele><time>2026-04-26T06:52:01Z</time></trkpt><trkpt lat="37.869700556421265" lon="15.21767538524805"><ele>160.0</ele><time>2026-04-26T06:52:02Z</time></trkpt><trkpt lat="37.869801781458015" lon="15.217557094080314"><ele>160.0</ele><time>2026-04-26T06:52:03Z</time></trkpt><trkpt lat="37.86987950627431" lon="15.217419683454182"><ele>160.0</ele><time>2026-04-26T06:52:04Z</time></trkpt><trkpt lat="37.86996018391595" lon="15.217287597193204"><ele>160.0</ele><time>2026-04-26T06:52:05Z</time></trkpt><trkpt lat="37.87000993059094" lon="15.217149009365862"><ele>158.8</ele><time>2026-04-26T06:52:06Z</time></trkpt><trkpt lat="37.87004904422672" lon="15.217036867927805"><ele>157.6</ele><time>2026-04-26T06:52:07Z</time></trkpt><trkpt lat="37.870105421951735" lon="15.216956271887533"><ele>156.4</ele><time>2026-04-26T06:52:08Z</time></trkpt><trkpt lat="37.87019608034986" lon="15.2169275857345"><ele>155.2</ele><time>2026-04-26T06:52:09Z</time></trkpt><trkpt lat="37.87030741570913" lon="15.21691805019592"><ele>154.0</ele><time>2026-04-26T06:52:10Z</time></trkpt><trkpt lat="37.8704327885597" lon="15.21686990574339"><ele>154.0</ele><time>2026-04-26T06:52:11Z</time></trkpt><trkpt lat="37.87056535067338" lon="15.21679034844213"><ele>154.0</ele><time>2026-04-26T06:52:12Z</time></trkpt><trkpt lat="37.87070480891432" lon="15.216702872900008"><ele>154.0</ele><time>2026-04-26T06:52:13Z</time></trkpt><trkpt lat="37.87084095652032" lon="15.216617639663633"><ele>154.5</ele><time>2026-04-26T06:52:14Z</time></trkpt><trkpt lat="37.87096369893632" lon="15.216541172076592"><ele>155.0</ele><time>2026-04-26T06:52:15Z</time></trkpt><trkpt lat="37.87107765914027" lon="15.216474098271025"><ele>155.5</ele><time>2026-04-26T06:52:16Z</time></trkpt><trkpt lat="37.871175672353466" lon="15.216397518857482"><ele>156.0</ele><time>2026-04-26T06:52:17Z</time></trkpt><trkpt lat="37.871262281473065" lon="15.216290743062281"><ele>156.0</ele><time>2026-04-26T06:52:18Z</time></trkpt><trkpt lat="37.87132968168651" lon="15.216146993316864"><ele>156.0</ele><time>2026-04-26T06:52:19Z</time></trkpt><trkpt lat="37.8713813438519" lon="15.215981292558386"><ele>156.0</ele><time>2026-04-26T06:52:20Z</time></trkpt><trkpt lat="37.87145044103046" lon="15.215815063825222"><ele>156.0</ele><time>2026-04-26T06:52:21Z</time></trkpt><trkpt lat="37.87151466129555" lon="15.215636780787118"><ele>153.0</ele><time>2026-04-26T06:52:22Z</time></trkpt><trkpt lat="37.871573306002794" lon="15.215449832790572"><ele>150.0</ele><time>2026-04-26T06:52:23Z</time></trkpt><trkpt lat="37.87163237805728" lon="15.215271111305293"><ele>147.0</ele><time>2026-04-26T06:52:24Z</time></trkpt><trkpt lat="37.87170157882806" lon="15.215071285114634"><ele>147.66666666666666</ele><time>2026-04-26T06:52:25Z</time></trkpt><trkpt lat="37.8717784564563" lon="15.214836611846515"><ele>148.33333333333331</ele><time>2026-04-26T06:52:26Z</time></trkpt><trkpt lat="37.87185714034832" lon="15.21460503502462"><ele>149.0</ele><time>2026-04-26T06:52:27Z</time></trkpt><trkpt lat="37.871914358862945" lon="15.214394810345908"><ele>149.2</ele><time>2026-04-26T06:52:28Z</time></trkpt><trkpt lat="37.87197109555374" lon="15.214216626405012"><ele>149.4</ele><time>2026-04-26T06:52:29Z</time></trkpt><trkpt lat="37.87202469111765" lon="15.214078640574145"><ele>149.6</ele><time>2026-04-26T06:52:30Z</time></trkpt><trkpt lat="37.87206423880117" lon="15.21396862790407"><ele>149.8</ele><time>2026-04-26T06:52:31Z</time></trkpt><trkpt lat="37.872080537506584" lon="15.2138742830053"><ele>150.0</ele><time>2026-04-26T06:52:32Z</time></trkpt><trkpt lat="37.87210356716644" lon="15.213781690256772"><ele>152.5</ele><time>2026-04-26T06:52:33Z</time></trkpt><trkpt lat="37.872069234659044" lon="15.21366665502984"><ele>155.0</ele><time>2026-04-26T06:52:34Z</time></trkpt><trkpt lat="37.871944276579896" lon="15.213586013952217"><ele>157.5</ele><time>2026-04-26T06:52:35Z</time></trkpt><trkpt lat="37.87181927617672" lon="15.21358226204731"><ele>160.0</ele><time>2026-04-26T06:52:36Z</time></trkpt><trkpt lat="37.871685279599504" lon="15.213576394236238"><ele>160.0</ele><time>2026-04-26T06:52:37Z</time></trkpt><trkpt lat="37.87154583407103" lon="15.213540268582598"><ele>160.0</ele><time>2026-04-26T06:52:38Z</time></trkpt><trkpt lat="37.87144114858716" lon="15.213504252515268"><ele>160.0</ele><time>2026-04-26T06:52:39Z</time></trkpt><trkpt lat="37.87138397304623" lon="15.213450228810999"><ele>160.0</ele><time>2026-04-26T06:52:40Z</time></trkpt><trkpt lat="37.87135066908014" lon="15.213365341669334"><ele>160.0</ele><time>2026-04-26T06:52:41Z</time></trkpt><trkpt lat="37.87133965018539" lon="15.213230580678708"><ele>163.5</ele><time>2026-04-26T06:52:42Z</time></trkpt><trkpt lat="37.87128887222034" lon="15.21308110545625"><ele>167.0</ele><time>2026-04-26T06:52:43Z</time></trkpt><trkpt lat="37.87121829723791" lon="15.212926599795662"><ele>170.5</ele><time>2026-04-26T06:52:44Z</time></trkpt><trkpt lat="37.871136636824694" lon="15.212769285705576"><ele>174.0</ele><time>2026-04-26T06:52:45Z</time></trkpt><trkpt lat="37.871031530212974" lon="15.212649665248424"><ele>168.0</ele><time>2026-04-26T06:52:46Z</time></trkpt><trkpt lat="37.87092632628289" lon="15.212552210960002"><ele>162.0</ele><time>2026-04-26T06:52:47Z</time></trkpt><trkpt lat="37.870841376749055" lon="15.212455615367872"><ele>156.0</ele><time>2026-04-26T06:52:48Z</time></trkpt><trkpt lat="37.87078810223392" lon="15.212340350138977"><ele>150.0</ele><time>2026-04-26T06:52:49Z</time></trkpt><trkpt lat="37.870779125701965" lon="15.21220459588666"><ele>150.0</ele><time>2026-04-26T06:52:50Z</time></trkpt><trkpt lat="37.870802035787804" lon="15.212041352909965"><ele>150.0</ele><time>2026-04-26T06:52:51Z</time></trkpt><trkpt lat="37.870839699293136" lon="15.211821249111043"><ele>150.0</ele><time>2026-04-26T06:52:52Z</time></trkpt><trkpt lat="37.87089481184534" lon="15.211548564782674"><ele>162.5</ele><time>2026-04-26T06:52:53Z</time></trkpt><trkpt lat="37.87094321965583" lon="15.211220667977573"><ele>175.0</ele><time>2026-04-26T06:52:54Z</time></trkpt><trkpt lat="37.870999939134244" lon="15.21085628344428"><ele>173.0</ele><time>2026-04-26T06:52:55Z</time></trkpt><trkpt lat="37.87106653482064" lon="15.21044943099038"><ele>171.0</ele><time>2026-04-26T06:52:56Z</time></trkpt><trkpt lat="37.87113665410381" lon="15.210030015465236"><ele>169.5</ele><time>2026-04-26T06:52:57Z</time></trkpt><trkpt lat="37.87121216827154" lon="15.209581869132105"><ele>168.0</ele><time>2026-04-26T06:52:58Z</time></trkpt><trkpt lat="37.871287450770595" lon="15.209115215547843"><ele>165.0</ele><time>2026-04-26T06:52:59Z</time></trkpt><trkpt lat="37.87136093519316" lon="15.208638942493401"><ele>162.0</ele><time>2026-04-26T06:53:00Z</time></trkpt><trkpt lat="37.871442746242046" lon="15.208154071476365"><ele>161.5</ele><time>2026-04-26T06:53:01Z</time></trkpt><trkpt lat="37.87152382057825" lon="15.207651079661261"><ele>161.0</ele><time>2026-04-26T06:53:02Z</time></trkpt><trkpt lat="37.87160621655267" lon="15.20714854066215"><ele>160.0</ele><time>2026-04-26T06:53:03Z</time></trkpt><trkpt lat="37.87168989206478" lon="15.206665421860318"><ele>159.0</ele><time>2026-04-26T06:53:04Z</time></trkpt><trkpt lat="37.871759307675745" lon="15.206234786829489"><ele>162.0</ele><time>2026-04-26T06:53:05Z</time></trkpt><trkpt lat="37.87182295500849" lon="15.205848182146877"><ele>165.0</ele><time>2026-04-26T06:53:06Z</time></trkpt><trkpt lat="37.87187639296589" lon="15.2055223573503"><ele>165.66666666666666</ele><time>2026-04-26T06:53:07Z</time></trkpt><trkpt lat="37.87192461188248" lon="15.205265946550783"><ele>166.33333333333331</ele><time>2026-04-26T06:53:08Z</time></trkpt><trkpt lat="37.87196499223213" lon="15.205045355406137"><ele>167.0</ele><time>2026-04-26T06:53:09Z</time></trkpt><trkpt lat="37.87199067469262" lon="15.204876996730059"><ele>166.33333333333331</ele><time>2026-04-26T06:53:10Z</time></trkpt><trkpt lat="37.872014575322" lon="15.204690861166084"><ele>165.66666666666666</ele><time>2026-04-26T06:53:11Z</time></trkpt><trkpt lat="37.872007894772665" lon="15.20450028133313"><ele>165.0</ele><time>2026-04-26T06:53:12Z</time></trkpt><trkpt lat="37.871952794251776" lon="15.204316234764226"><ele>165.0</ele><time>2026-04-26T06:53:13Z</time></trkpt><trkpt lat="37.871857484771795" lon="15.204151431918216"><ele>165.0</ele><time>2026-04-26T06:53:14Z</time></trkpt><trkpt lat="37.87173032251907" lon="15.204021763963292"><ele>165.0</ele><time>2026-04-26T06:53:15Z</time></trkpt><trkpt lat="37.87157067511645" lon="15.203948755191034"><ele>165.0</ele><time>2026-04-26T06:53:16Z</time></trkpt><trkpt lat="37.87139538800655" lon="15.203920714653137"><ele>165.0</ele><time>2026-04-26T06:53:17Z</time></trkpt><trkpt lat="37.87120982761633" lon="15.20390988388753"><ele>165.0</ele><time>2026-04-26T06:53:18Z</time></trkpt><trkpt lat="37.87101574726059" lon="15.203890460563242"><ele>162.33333333333334</ele><time>2026-04-26T06:53:19Z</time></trkpt><trkpt lat="37.87081298135223" lon="15.203863469553154"><ele>159.66666666666669</ele><time>2026-04-26T06:53:20Z</time></trkpt><trkpt lat="37.870605151771876" lon="15.203832094396448"><ele>157.0</ele><time>2026-04-26T06:53:21Z</time></trkpt><trkpt lat="37.87039749651792" lon="15.203799499684546"><ele>157.0</ele><time>2026-04-26T06:53:22Z</time></trkpt><trkpt lat="37.8701872136007" lon="15.20377382048067"><ele>157.0</ele><time>2026-04-26T06:53:23Z</time></trkpt><trkpt lat="37.86998163671003" lon="15.203758378104581"><ele>157.0</ele><time>2026-04-26T06:53:24Z</time></trkpt><trkpt lat="37.86978179727347" lon="15.203779509266003"><ele>157.66666666666669</ele><time>2026-04-26T06:53:25Z</time></trkpt><trkpt lat="37.869587439877385" lon="15.203838037604172"><ele>158.33333333333334</ele><time>2026-04-26T06:53:26Z</time></trkpt><trkpt lat="37.86940773601666" lon="15.20393407402954"><ele>159.0</ele><time>2026-04-26T06:53:27Z</time></trkpt><trkpt lat="37.86924556228023" lon="15.204048574075204"><ele>152.33333333333334</ele><time>2026-04-26T06:53:28Z</time></trkpt><trkpt lat="37.869085252058326" lon="15.20413308367941"><ele>145.66666666666669</ele><time>2026-04-26T06:53:29Z</time></trkpt><trkpt lat="37.868930528599805" lon="15.204193208935232"><ele>139.0</ele><time>2026-04-26T06:53:30Z</time></trkpt><trkpt lat="37.868773975656254" lon="15.204181843072442"><ele>139.0</ele><time>2026-04-26T06:53:31Z</time></trkpt><trkpt lat="37.86862965478815" lon="15.204111022478024"><ele>139.0</ele><time>2026-04-26T06:53:32Z</time></trkpt><trkpt lat="37.868515731986186" lon="15.203980282126476"><ele>139.0</ele><time>2026-04-26T06:53:33Z</time></trkpt><trkpt lat="37.86840257350675" lon="15.203824148474107"><ele>140.66666666666669</ele><time>2026-04-26T06:53:34Z</time></trkpt><trkpt lat="37.86827315844876" lon="15.20367817390912"><ele>142.33333333333334</ele><time>2026-04-26T06:53:35Z</time></trkpt><trkpt lat="37.868164846440045" lon="15.20352898818194"><ele>144.0</ele><time>2026-04-26T06:53:36Z</time></trkpt><trkpt lat="37.868075091301826" lon="15.203384577558818"><ele>144.0</ele><time>2026-04-26T06:53:37Z</time></trkpt><trkpt lat="37.8680148544501" lon="15.203225074186832"><ele>144.0</ele><time>2026-04-26T06:53:38Z</time></trkpt><trkpt lat="37.867987531889526" lon="15.203059305956208"><ele>144.0</ele><time>2026-04-26T06:53:39Z</time></trkpt><trkpt lat="37.8679840618385" lon="15.202885140835448"><ele>144.0</ele><time>2026-04-26T06:53:40Z</time></trkpt><trkpt lat="37.86799426141578" lon="15.202700319177703"><ele>144.33333333333334</ele><time>2026-04-26T06:53:41Z</time></trkpt><trkpt lat="37.86799543796554" lon="15.202503675861955"><ele>144.66666666666669</ele><time>2026-04-26T06:53:42Z</time></trkpt><trkpt lat="37.86799390414998" lon="15.202305160044078"><ele>145.0</ele><time>2026-04-26T06:53:43Z</time></trkpt><trkpt lat="37.86800357706323" lon="15.202113186383372"><ele>142.5</ele><time>2026-04-26T06:53:44Z</time></trkpt><trkpt lat="37.86803056134827" lon="15.201932270980267"><ele>140.0</ele><time>2026-04-26T06:53:45Z</time></trkpt><trkpt lat="37.86808406177072" lon="15.201769453899713"><ele>137.5</ele><time>2026-04-26T06:53:46Z</time></trkpt><trkpt lat="37.868157949847976" lon="15.201619831046381"><ele>135.0</ele><time>2026-04-26T06:53:47Z</time></trkpt><trkpt lat="37.868255196788134" lon="15.201473238671298"><ele>132.33333333333334</ele><time>2026-04-26T06:53:48Z</time></trkpt><trkpt lat="37.8683714222379" lon="15.201333330881926"><ele>129.66666666666669</ele><time>2026-04-26T06:53:49Z</time></trkpt><trkpt lat="37.868487933308785" lon="15.201185663124194"><ele>127.0</ele><time>2026-04-26T06:53:50Z</time></trkpt><trkpt lat="37.86859119455307" lon="15.201013282994579"><ele>127.0</ele><time>2026-04-26T06:53:51Z</time></trkpt><trkpt lat="37.86867069345645" lon="15.200817734813915"><ele>127.0</ele><time>2026-04-26T06:53:52Z</time></trkpt><trkpt lat="37.86872802727452" lon="15.200611948927628"><ele>127.0</ele><time>2026-04-26T06:53:53Z</time></trkpt><trkpt lat="37.868766963008746" lon="15.200402122787569"><ele>125.33333333333334</ele><time>2026-04-26T06:53:54Z</time></trkpt><trkpt lat="37.8688085873875" lon="15.20019990188512"><ele>123.66666666666666</ele><time>2026-04-26T06:53:55Z</time></trkpt><trkpt lat="37.8687075795172" lon="15.199960606596497"><ele>122.0</ele><time>2026-04-26T06:53:56Z</time></trkpt><trkpt lat="37.868640514235814" lon="15.199751267328862"><ele>122.0</ele><time>2026-04-26T06:53:57Z</time></trkpt><trkpt lat="37.86854802897983" lon="15.199556128396349"><ele>122.0</ele><time>2026-04-26T06:53:58Z</time></trkpt><trkpt lat="37.868429197032164" lon="15.199382571864204"><ele>122.0</ele><time>2026-04-26T06:53:59Z</time></trkpt><trkpt lat="37.86828787705579" lon="15.199236429263257"><ele>121.33333333333333</ele><time>2026-04-26T06:54:00Z</time></trkpt><trkpt lat="37.868127233497134" lon="15.199119843277181"><ele>120.66666666666666</ele><time>2026-04-26T06:54:01Z</time></trkpt><trkpt lat="37.867955718809455" lon="15.199022493053734"><ele>120.0</ele><time>2026-04-26T06:54:02Z</time></trkpt><trkpt lat="37.86778875717497" lon="15.198923562417404"><ele>120.0</ele><time>2026-04-26T06:54:03Z</time></trkpt><trkpt lat="37.86763320530709" lon="15.198826553603878"><ele>120.0</ele><time>2026-04-26T06:54:04Z</time></trkpt><trkpt lat="37.86748800112951" lon="15.198727765425513"><ele>120.0</ele><time>2026-04-26T06:54:05Z</time></trkpt><trkpt lat="37.86735258837979" lon="15.19862612118297"><ele>119.25</ele><time>2026-04-26T06:54:06Z</time></trkpt><trkpt lat="37.8672405361651" lon="15.198518874672837"><ele>118.5</ele><time>2026-04-26T06:54:07Z</time></trkpt><trkpt lat="37.867154794799454" lon="15.198383683073784"><ele>117.75</ele><time>2026-04-26T06:54:08Z</time></trkpt><trkpt lat="37.86710714192756" lon="15.198219134926076"><ele>117.0</ele><time>2026-04-26T06:54:09Z</time></trkpt><trkpt lat="37.86708728625761" lon="15.19803001883443"><ele>117.0</ele><time>2026-04-26T06:54:10Z</time></trkpt><trkpt lat="37.867095882491796" lon="15.197825894722817"><ele>117.0</ele><time>2026-04-26T06:54:11Z</time></trkpt><trkpt lat="37.8671284021892" lon="15.197622436791521"><ele>117.0</ele><time>2026-04-26T06:54:12Z</time></trkpt><trkpt lat="37.86719551383662" lon="15.197430101733435"><ele>115.66666666666666</ele><time>2026-04-26T06:54:13Z</time></trkpt><trkpt lat="37.86730147349215" lon="15.197258046406812"><ele>114.33333333333333</ele><time>2026-04-26T06:54:14Z</time></trkpt><trkpt lat="37.86741330898257" lon="15.197080983907261"><ele>113.0</ele><time>2026-04-26T06:54:15Z</time></trkpt><trkpt lat="37.86752205423728" lon="15.196881783092017"><ele>114.0</ele><time>2026-04-26T06:54:16Z</time></trkpt><trkpt lat="37.86764360611897" lon="15.196671264545795"><ele>115.0</ele><time>2026-04-26T06:54:17Z</time></trkpt><trkpt lat="37.86777917832423" lon="15.196445203005188"><ele>116.0</ele><time>2026-04-26T06:54:18Z</time></trkpt><trkpt lat="37.86792636196396" lon="15.196196380139249"><ele>116.0</ele><time>2026-04-26T06:54:19Z</time></trkpt><trkpt lat="37.86808916090817" lon="15.195928307208224"><ele>116.0</ele><time>2026-04-26T06:54:20Z</time></trkpt><trkpt lat="37.86826552169368" lon="15.195636165937673"><ele>118.5</ele><time>2026-04-26T06:54:21Z</time></trkpt><trkpt lat="37.86844402646832" lon="15.1953268858896"><ele>121.0</ele><time>2026-04-26T06:54:22Z</time></trkpt><trkpt lat="37.86861558512427" lon="15.1950416246809"><ele>120.0</ele><time>2026-04-26T06:54:23Z</time></trkpt><trkpt lat="37.86877403181811" lon="15.194788349178724"><ele>119.0</ele><time>2026-04-26T06:54:24Z</time></trkpt><trkpt lat="37.868931548775244" lon="15.19453649760564"><ele>119.0</ele><time>2026-04-26T06:54:25Z</time></trkpt><trkpt lat="37.869100285593746" lon="15.194290162185961"><ele>119.0</ele><time>2026-04-26T06:54:26Z</time></trkpt><trkpt lat="37.869288209576816" lon="15.194071208591795"><ele>121.5</ele><time>2026-04-26T06:54:27Z</time></trkpt><trkpt lat="37.869493205967636" lon="15.193880458606623"><ele>124.0</ele><time>2026-04-26T06:54:28Z</time></trkpt><trkpt lat="37.86969706148162" lon="15.193697038023881"><ele>124.0</ele><time>2026-04-26T06:54:29Z</time></trkpt><trkpt lat="37.86989477047315" lon="15.19351100654081"><ele>124.0</ele><time>2026-04-26T06:54:30Z</time></trkpt><trkpt lat="37.87008957385361" lon="15.193323010085342"><ele>126.5</ele><time>2026-04-26T06:54:31Z</time></trkpt><trkpt lat="37.870280566792744" lon="15.193140934088175"><ele>129.0</ele><time>2026-04-26T06:54:32Z</time></trkpt><trkpt lat="37.87046321898778" lon="15.192968491559702"><ele>129.0</ele><time>2026-04-26T06:54:33Z</time></trkpt><trkpt lat="37.87064012122719" lon="15.19281711267373"><ele>129.0</ele><time>2026-04-26T06:54:34Z</time></trkpt><trkpt lat="37.87082012714955" lon="15.192694901159284"><ele>129.0</ele><time>2026-04-26T06:54:35Z</time></trkpt><trkpt lat="37.87100867088474" lon="15.192615782023042"><ele>129.66666666666666</ele><time>2026-04-26T06:54:36Z</time></trkpt><trkpt lat="37.87121074039703" lon="15.192563039613889"><ele>130.33333333333331</ele><time>2026-04-26T06:54:37Z</time></trkpt><trkpt lat="37.8714191036654" lon="15.192511196892854"><ele>131.0</ele><time>2026-04-26T06:54:38Z</time></trkpt><trkpt lat="37.87163221385977" lon="15.192445698437927"><ele>130.0</ele><time>2026-04-26T06:54:39Z</time></trkpt><trkpt lat="37.87184876828381" lon="15.192377184521717"><ele>129.0</ele><time>2026-04-26T06:54:40Z</time></trkpt><trkpt lat="37.872069849775585" lon="15.192308390819496"><ele>129.0</ele><time>2026-04-26T06:54:41Z</time></trkpt><trkpt lat="37.872295208978045" lon="15.19223963939714"><ele>129.0</ele><time>2026-04-26T06:54:42Z</time></trkpt><trkpt lat="37.8725228534606" lon="15.192167402435139"><ele>129.0</ele><time>2026-04-26T06:54:43Z</time></trkpt><trkpt lat="37.872750748923266" lon="15.192092729817054"><ele>129.0</ele><time>2026-04-26T06:54:44Z</time></trkpt><trkpt lat="37.872976635413416" lon="15.19201502263417"><ele>129.0</ele><time>2026-04-26T06:54:45Z</time></trkpt><trkpt lat="37.873204306720545" lon="15.191937815102458"><ele>129.0</ele><time>2026-04-26T06:54:46Z</time></trkpt><trkpt lat="37.873430982193526" lon="15.191858358828773"><ele>132.0</ele><time>2026-04-26T06:54:47Z</time></trkpt><trkpt lat="37.87365691314834" lon="15.191779302309053"><ele>135.0</ele><time>2026-04-26T06:54:48Z</time></trkpt><trkpt lat="37.873882716012645" lon="15.191702104741156"><ele>135.0</ele><time>2026-04-26T06:54:49Z</time></trkpt><trkpt lat="37.87410750009472" lon="15.191622705201764"><ele>135.0</ele><time>2026-04-26T06:54:50Z</time></trkpt><trkpt lat="37.87433198456243" lon="15.191539361218334"><ele>136.0</ele><time>2026-04-26T06:54:51Z</time></trkpt><trkpt lat="37.87455229570369" lon="15.191450258446052"><ele>137.0</ele><time>2026-04-26T06:54:52Z</time></trkpt><trkpt lat="37.87476988883584" lon="15.191348077695139"><ele>137.0</ele><time>2026-04-26T06:54:53Z</time></trkpt><trkpt lat="37.87498398055477" lon="15.19123601474379"><ele>137.0</ele><time>2026-04-26T06:54:54Z</time></trkpt><trkpt lat="37.87519631170048" lon="15.191115853027759"><ele>141.5</ele><time>2026-04-26T06:54:55Z</time></trkpt><trkpt lat="37.87540664875354" lon="15.190983635251591"><ele>146.0</ele><time>2026-04-26T06:54:56Z</time></trkpt><trkpt lat="37.87561500058486" lon="15.190848057726775"><ele>146.0</ele><time>2026-04-26T06:54:57Z</time></trkpt><trkpt lat="37.875823056685725" lon="15.190715288120666"><ele>146.0</ele><time>2026-04-26T06:54:58Z</time></trkpt><trkpt lat="37.87603258442395" lon="15.190578309527325"><ele>148.0</ele><time>2026-04-26T06:54:59Z</time></trkpt><trkpt lat="37.876238100203906" lon="15.19044349415459"><ele>150.0</ele><time>2026-04-26T06:55:00Z</time></trkpt><trkpt lat="37.876438463991924" lon="15.190314823638044"><ele>150.0</ele><time>2026-04-26T06:55:01Z</time></trkpt><trkpt lat="37.87663558872386" lon="15.190192243171015"><ele>150.0</ele><time>2026-04-26T06:55:02Z</time></trkpt><trkpt lat="37.876820388115675" lon="15.19006952459643"><ele>150.0</ele><time>2026-04-26T06:55:03Z</time></trkpt><trkpt lat="37.877000129887094" lon="15.189946032428015"><ele>150.66666666666666</ele><time>2026-04-26T06:55:04Z</time></trkpt><trkpt lat="37.877173978660785" lon="15.189812443792725"><ele>151.33333333333331</ele><time>2026-04-26T06:55:05Z</time></trkpt><trkpt lat="37.877337996258746" lon="15.1896675593426"><ele>152.0</ele><time>2026-04-26T06:55:06Z</time></trkpt><trkpt lat="37.87750012789202" lon="15.189520711606834"><ele>157.0</ele><time>2026-04-26T06:55:07Z</time></trkpt><trkpt lat="37.87765442230928" lon="15.18937180500203"><ele>162.0</ele><time>2026-04-26T06:55:08Z</time></trkpt><trkpt lat="37.87779641356719" lon="15.189229349701785"><ele>167.0</ele><time>2026-04-26T06:55:09Z</time></trkpt><trkpt lat="37.87793022234303" lon="15.189092688487303"><ele>162.0</ele><time>2026-04-26T06:55:10Z</time></trkpt><trkpt lat="37.878053368087095" lon="15.188960490022529"><ele>157.0</ele><time>2026-04-26T06:55:11Z</time></trkpt><trkpt lat="37.878156131975366" lon="15.188819247072484"><ele>152.0</ele><time>2026-04-26T06:55:12Z</time></trkpt><trkpt lat="37.878227890963906" lon="15.18866213588867"><ele>152.0</ele><time>2026-04-26T06:55:13Z</time></trkpt><trkpt lat="37.87827379302326" lon="15.188493195156108"><ele>152.0</ele><time>2026-04-26T06:55:14Z</time></trkpt><trkpt lat="37.878317900998326" lon="15.188316057984002"><ele>152.0</ele><time>2026-04-26T06:55:15Z</time></trkpt><trkpt lat="37.878294401476566" lon="15.188113860564282"><ele>152.0</ele><time>2026-04-26T06:55:16Z</time></trkpt><trkpt lat="37.87828613099743" lon="15.187911386445446"><ele>152.33333333333331</ele><time>2026-04-26T06:55:17Z</time></trkpt><trkpt lat="37.87828020217684" lon="15.187705717846487"><ele>152.66666666666666</ele><time>2026-04-26T06:55:18Z</time></trkpt><trkpt lat="37.878289315862844" lon="15.187514605290803"><ele>153.0</ele><time>2026-04-26T06:55:19Z</time></trkpt><trkpt lat="37.87827919764263" lon="15.187337315798565"><ele>156.75</ele><time>2026-04-26T06:55:20Z</time></trkpt><trkpt lat="37.87824130949694" lon="15.187176910156085"><ele>160.5</ele><time>2026-04-26T06:55:21Z</time></trkpt><trkpt lat="37.87817811271111" lon="15.187024263801352"><ele>164.25</ele><time>2026-04-26T06:55:22Z</time></trkpt><trkpt lat="37.878078677657584" lon="15.186887748243981"><ele>168.0</ele><time>2026-04-26T06:55:23Z</time></trkpt><trkpt lat="37.87795007027343" lon="15.186771963819432"><ele>168.0</ele><time>2026-04-26T06:55:24Z</time></trkpt><trkpt lat="37.877800591905384" lon="15.186674801898974"><ele>168.0</ele><time>2026-04-26T06:55:25Z</time></trkpt><trkpt lat="37.877635545404154" lon="15.186590063240542"><ele>168.0</ele><time>2026-04-26T06:55:26Z</time></trkpt><trkpt lat="37.87747269349394" lon="15.186478653548681"><ele>172.33333333333334</ele><time>2026-04-26T06:55:27Z</time></trkpt><trkpt lat="37.877294587317955" lon="15.186400699628036"><ele>176.66666666666669</ele><time>2026-04-26T06:55:28Z</time></trkpt><trkpt lat="37.87712878039173" lon="15.186289817884504"><ele>181.0</ele><time>2026-04-26T06:55:29Z</time></trkpt><trkpt lat="37.876969980778775" lon="15.186161265822124"><ele>181.0</ele><time>2026-04-26T06:55:30Z</time></trkpt><trkpt lat="37.87683674729705" lon="15.186016739291183"><ele>181.0</ele><time>2026-04-26T06:55:31Z</time></trkpt><trkpt lat="37.876733078654986" lon="15.185850122441485"><ele>181.0</ele><time>2026-04-26T06:55:32Z</time></trkpt><trkpt lat="37.8766334242973" lon="15.185655167333877"><ele>180.0</ele><time>2026-04-26T06:55:33Z</time></trkpt><trkpt lat="37.87653766796206" lon="15.185441334924867"><ele>179.0</ele><time>2026-04-26T06:55:34Z</time></trkpt><trkpt lat="37.876429459104585" lon="15.185217000427224"><ele>178.0</ele><time>2026-04-26T06:55:35Z</time></trkpt><trkpt lat="37.87631536790354" lon="15.184992272439807"><ele>180.0</ele><time>2026-04-26T06:55:36Z</time></trkpt><trkpt lat="37.87620063482452" lon="15.184761540832504"><ele>182.0</ele><time>2026-04-26T06:55:37Z</time></trkpt><trkpt lat="37.87608277282242" lon="15.184528070377134"><ele>184.0</ele><time>2026-04-26T06:55:38Z</time></trkpt><trkpt lat="37.87598404236489" lon="15.184290705520265"><ele>180.0</ele><time>2026-04-26T06:55:39Z</time></trkpt><trkpt lat="37.87588261793655" lon="15.184083930595786"><ele>176.0</ele><time>2026-04-26T06:55:40Z</time></trkpt><trkpt lat="37.87578421719517" lon="15.183906909659195"><ele>172.0</ele><time>2026-04-26T06:55:41Z</time></trkpt><trkpt lat="37.8757291697889" lon="15.183721990706763"><ele>172.0</ele><time>2026-04-26T06:55:42Z</time></trkpt><trkpt lat="37.875703155303206" lon="15.183541525434723"><ele>172.0</ele><time>2026-04-26T06:55:43Z</time></trkpt><trkpt lat="37.87569627583775" lon="15.183354539550788"><ele>172.0</ele><time>2026-04-26T06:55:44Z</time></trkpt><trkpt lat="37.87571030394256" lon="15.183172329499026"><ele>172.0</ele><time>2026-04-26T06:55:45Z</time></trkpt><trkpt lat="37.87574439796827" lon="15.182994405184822"><ele>173.0</ele><time>2026-04-26T06:55:46Z</time></trkpt><trkpt lat="37.87580660296917" lon="15.182823677590434"><ele>174.0</ele><time>2026-04-26T06:55:47Z</time></trkpt><trkpt lat="37.87589608679073" lon="15.182660322499009"><ele>175.0</ele><time>2026-04-26T06:55:48Z</time></trkpt><trkpt lat="37.875996685005504" lon="15.182506619161009"><ele>175.66666666666669</ele><time>2026-04-26T06:55:49Z</time></trkpt><trkpt lat="37.87610716427405" lon="15.182355747461322"><ele>176.33333333333334</ele><time>2026-04-26T06:55:50Z</time></trkpt><trkpt lat="37.87621766536699" lon="15.182186238625013"><ele>177.0</ele><time>2026-04-26T06:55:51Z</time></trkpt><trkpt lat="37.876320353274714" lon="15.182003236143135"><ele>177.0</ele><time>2026-04-26T06:55:52Z</time></trkpt><trkpt lat="37.87640363269442" lon="15.181794492473966"><ele>177.0</ele><time>2026-04-26T06:55:53Z</time></trkpt><trkpt lat="37.87647243028159" lon="15.181558789696236"><ele>177.0</ele><time>2026-04-26T06:55:54Z</time></trkpt><trkpt lat="37.87652829912732" lon="15.181313437274449"><ele>176.66666666666666</ele><time>2026-04-26T06:55:55Z</time></trkpt><trkpt lat="37.8765678698638" lon="15.18105898617004"><ele>176.33333333333331</ele><time>2026-04-26T06:55:56Z</time></trkpt><trkpt lat="37.87658682281247" lon="15.180803623910775"><ele>176.0</ele><time>2026-04-26T06:55:57Z</time></trkpt><trkpt lat="37.876584872463226" lon="15.180547063935236"><ele>176.0</ele><time>2026-04-26T06:55:58Z</time></trkpt><trkpt lat="37.87655470629556" lon="15.18027888782628"><ele>176.0</ele><time>2026-04-26T06:55:59Z</time></trkpt><trkpt lat="37.87649643498442" lon="15.180012947822725"><ele>176.0</ele><time>2026-04-26T06:56:00Z</time></trkpt><trkpt lat="37.87642522557804" lon="15.179768169731487"><ele>176.66666666666666</ele><time>2026-04-26T06:56:01Z</time></trkpt><trkpt lat="37.8763527470569" lon="15.179541624527017"><ele>177.33333333333334</ele><time>2026-04-26T06:56:02Z</time></trkpt><trkpt lat="37.87630308309959" lon="15.179335846726124"><ele>178.0</ele><time>2026-04-26T06:56:03Z</time></trkpt><trkpt lat="37.876285709814184" lon="15.17912571024587"><ele>178.66666666666669</ele><time>2026-04-26T06:56:04Z</time></trkpt><trkpt lat="37.87630827386206" lon="15.178908666372262"><ele>179.33333333333334</ele><time>2026-04-26T06:56:05Z</time></trkpt><trkpt lat="37.87635135582584" lon="15.178703219674986"><ele>180.0</ele><time>2026-04-26T06:56:06Z</time></trkpt><trkpt lat="37.876425004631336" lon="15.17851418118911"><ele>180.0</ele><time>2026-04-26T06:56:07Z</time></trkpt><trkpt lat="37.87654144802409" lon="15.178338990103018"><ele>180.0</ele><time>2026-04-26T06:56:08Z</time></trkpt><trkpt lat="37.876681030294264" lon="15.178154605522213"><ele>180.0</ele><time>2026-04-26T06:56:09Z</time></trkpt><trkpt lat="37.87681760832354" lon="15.177946712808243"><ele>182.66666666666666</ele><time>2026-04-26T06:56:10Z</time></trkpt><trkpt lat="37.87695406744245" lon="15.17773561601083"><ele>185.33333333333331</ele><time>2026-04-26T06:56:11Z</time></trkpt><trkpt lat="37.87707329160943" lon="15.177554346449435"><ele>188.0</ele><time>2026-04-26T06:56:12Z</time></trkpt><trkpt lat="37.877184668252724" lon="15.177397757584437"><ele>188.66666666666666</ele><time>2026-04-26T06:56:13Z</time></trkpt><trkpt lat="37.877311098306215" lon="15.177257276269541"><ele>189.33333333333334</ele><time>2026-04-26T06:56:14Z</time></trkpt><trkpt lat="37.87746795302605" lon="15.177135173561693"><ele>190.0</ele><time>2026-04-26T06:56:15Z</time></trkpt><trkpt lat="37.877647766214146" lon="15.177027758854557"><ele>192.5</ele><time>2026-04-26T06:56:16Z</time></trkpt><trkpt lat="37.877840962168214" lon="15.176908384112147"><ele>195.0</ele><time>2026-04-26T06:56:17Z</time></trkpt><trkpt lat="37.87805604289686" lon="15.176770527068477"><ele>195.0</ele><time>2026-04-26T06:56:18Z</time></trkpt><trkpt lat="37.87827883522975" lon="15.1766257894998"><ele>195.0</ele><time>2026-04-26T06:56:19Z</time></trkpt><trkpt lat="37.87851313343726" lon="15.176479312825125"><ele>198.0</ele><time>2026-04-26T06:56:20Z</time></trkpt><trkpt lat="37.87874873501448" lon="15.176335897085943"><ele>201.0</ele><time>2026-04-26T06:56:21Z</time></trkpt><trkpt lat="37.87896244442194" lon="15.176207617966615"><ele>201.0</ele><time>2026-04-26T06:56:22Z</time></trkpt><trkpt lat="37.879159338709684" lon="15.176092147734197"><ele>201.0</ele><time>2026-04-26T06:56:23Z</time></trkpt><trkpt lat="37.87933579687603" lon="15.175987048763254"><ele>201.0</ele><time>2026-04-26T06:56:24Z</time></trkpt><trkpt lat="37.87949156739961" lon="15.175890742827256"><ele>201.0</ele><time>2026-04-26T06:56:25Z</time></trkpt><trkpt lat="37.87962894822779" lon="15.175793940601842"><ele>201.0</ele><time>2026-04-26T06:56:26Z</time></trkpt><trkpt lat="37.87975063518335" lon="15.17568250070039"><ele>201.0</ele><time>2026-04-26T06:56:27Z</time></trkpt><trkpt lat="37.87985363399875" lon="15.175542653049241"><ele>201.0</ele><time>2026-04-26T06:56:28Z</time></trkpt><trkpt lat="37.879935180079215" lon="15.175376186631379"><ele>201.0</ele><time>2026-04-26T06:56:29Z</time></trkpt><trkpt lat="37.880008662831536" lon="15.175195401556554"><ele>201.0</ele><time>2026-04-26T06:56:30Z</time></trkpt><trkpt lat="37.88007704304094" lon="15.175003273693422"><ele>203.25</ele><time>2026-04-26T06:56:31Z</time></trkpt><trkpt lat="37.88016540321141" lon="15.17482251548242"><ele>205.5</ele><time>2026-04-26T06:56:32Z</time></trkpt><trkpt lat="37.88022745791474" lon="15.17466267705207"><ele>207.75</ele><time>2026-04-26T06:56:33Z</time></trkpt><trkpt lat="37.8802657785322" lon="15.174529234168496"><ele>210.0</ele><time>2026-04-26T06:56:34Z</time></trkpt><trkpt lat="37.88032844977081" lon="15.174444455994855"><ele>210.0</ele><time>2026-04-26T06:56:35Z</time></trkpt><trkpt lat="37.88040752594949" lon="15.174388927927666"><ele>210.0</ele><time>2026-04-26T06:56:36Z</time></trkpt><trkpt lat="37.880502628545905" lon="15.174368211795715"><ele>210.0</ele><time>2026-04-26T06:56:37Z</time></trkpt><trkpt lat="37.88061411083636" lon="15.174394220088242"><ele>210.0</ele><time>2026-04-26T06:56:38Z</time></trkpt><trkpt lat="37.88073899218312" lon="15.174464417320944"><ele>210.0</ele><time>2026-04-26T06:56:39Z</time></trkpt><trkpt lat="37.880894236885034" lon="15.17451601695153"><ele>211.66666666666669</ele><time>2026-04-26T06:56:40Z</time></trkpt><trkpt lat="37.88107509876861" lon="15.17450565656986"><ele>213.33333333333334</ele><time>2026-04-26T06:56:41Z</time></trkpt><trkpt lat="37.88126202993221" lon="15.174428297027415"><ele>215.0</ele><time>2026-04-26T06:56:42Z</time></trkpt><trkpt lat="37.881442330716695" lon="15.174292262311027"><ele>215.0</ele><time>2026-04-26T06:56:43Z</time></trkpt><trkpt lat="37.88160653194737" lon="15.174110237388469"><ele>215.0</ele><time>2026-04-26T06:56:44Z</time></trkpt><trkpt lat="37.88177960565769" lon="15.173896928109738"><ele>215.5</ele><time>2026-04-26T06:56:45Z</time></trkpt><trkpt lat="37.881981578777726" lon="15.173661385183951"><ele>216.0</ele><time>2026-04-26T06:56:46Z</time></trkpt><trkpt lat="37.88220563215962" lon="15.173408121661607"><ele>216.5</ele><time>2026-04-26T06:56:47Z</time></trkpt><trkpt lat="37.882438870892045" lon="15.173146920631156"><ele>217.0</ele><time>2026-04-26T06:56:48Z</time></trkpt><trkpt lat="37.88266506177978" lon="15.172899408759395"><ele>220.0</ele><time>2026-04-26T06:56:49Z</time></trkpt><trkpt lat="37.88287096873197" lon="15.172675942004167"><ele>223.0</ele><time>2026-04-26T06:56:50Z</time></trkpt><trkpt lat="37.88306221760755" lon="15.172469056860464"><ele>223.0</ele><time>2026-04-26T06:56:51Z</time></trkpt><trkpt lat="37.88324862552496" lon="15.172263985972172"><ele>223.0</ele><time>2026-04-26T06:56:52Z</time></trkpt><trkpt lat="37.88342514216053" lon="15.172068406345492"><ele>224.33333333333331</ele><time>2026-04-26T06:56:53Z</time></trkpt><trkpt lat="37.88358704280788" lon="15.171888210655514"><ele>225.66666666666669</ele><time>2026-04-26T06:56:54Z</time></trkpt><trkpt lat="37.88374186478053" lon="15.171716166967508"><ele>227.0</ele><time>2026-04-26T06:56:55Z</time></trkpt><trkpt lat="37.883887112047816" lon="15.171547417185252"><ele>226.0</ele><time>2026-04-26T06:56:56Z</time></trkpt><trkpt lat="37.88402956108863" lon="15.171376084898629"><ele>225.0</ele><time>2026-04-26T06:56:57Z</time></trkpt><trkpt lat="37.88416920741875" lon="15.171198617475667"><ele>224.0</ele><time>2026-04-26T06:56:58Z</time></trkpt><trkpt lat="37.88430928428042" lon="15.171012982508541"><ele>224.33333333333334</ele><time>2026-04-26T06:56:59Z</time></trkpt><trkpt lat="37.88445116087852" lon="15.170819605578014"><ele>224.66666666666669</ele><time>2026-04-26T06:57:00Z</time></trkpt><trkpt lat="37.88459585871395" lon="15.170625319409272"><ele>225.0</ele><time>2026-04-26T06:57:01Z</time></trkpt><trkpt lat="37.88474318783852" lon="15.17043119850664"><ele>225.0</ele><time>2026-04-26T06:57:02Z</time></trkpt><trkpt lat="37.8848772527679" lon="15.170255685013121"><ele>225.0</ele><time>2026-04-26T06:57:03Z</time></trkpt><trkpt lat="37.88500001280382" lon="15.170095212775529"><ele>225.0</ele><time>2026-04-26T06:57:04Z</time></trkpt><trkpt lat="37.88511378380943" lon="15.169949662684115"><ele>225.25</ele><time>2026-04-26T06:57:05Z</time></trkpt><trkpt lat="37.88521659737992" lon="15.169814389864623"><ele>225.5</ele><time>2026-04-26T06:57:06Z</time></trkpt><trkpt lat="37.885312563539244" lon="15.169688363513194"><ele>225.75</ele><time>2026-04-26T06:57:07Z</time></trkpt><trkpt lat="37.885412479288135" lon="15.169561120108929"><ele>226.0</ele><time>2026-04-26T06:57:08Z</time></trkpt><trkpt lat="37.88552405623707" lon="15.169423907834947"><ele>226.0</ele><time>2026-04-26T06:57:09Z</time></trkpt><trkpt lat="37.8856391183422" lon="15.169279718149022"><ele>226.0</ele><time>2026-04-26T06:57:10Z</time></trkpt><trkpt lat="37.88575264006074" lon="15.169136381580916"><ele>226.0</ele><time>2026-04-26T06:57:11Z</time></trkpt><trkpt lat="37.885861333019065" lon="15.168999448182886"><ele>226.75</ele><time>2026-04-26T06:57:12Z</time></trkpt><trkpt lat="37.88596869528817" lon="15.168870361673715"><ele>227.5</ele><time>2026-04-26T06:57:13Z</time></trkpt><trkpt lat="37.88606541764835" lon="15.168740907569958"><ele>228.25</ele><time>2026-04-26T06:57:14Z</time></trkpt><trkpt lat="37.88616318659286" lon="15.168616754357291"><ele>229.0</ele><time>2026-04-26T06:57:15Z</time></trkpt><trkpt lat="37.88626336451484" lon="15.168489174117182"><ele>229.0</ele><time>2026-04-26T06:57:16Z</time></trkpt><trkpt lat="37.886368666380974" lon="15.168357740164064"><ele>229.0</ele><time>2026-04-26T06:57:17Z</time></trkpt><trkpt lat="37.886477826698105" lon="15.168216454780357"><ele>229.0</ele><time>2026-04-26T06:57:18Z</time></trkpt><trkpt lat="37.88659467697548" lon="15.168069965333165"><ele>230.33333333333331</ele><time>2026-04-26T06:57:19Z</time></trkpt><trkpt lat="37.88671814983269" lon="15.1679214798422"><ele>231.66666666666669</ele><time>2026-04-26T06:57:20Z</time></trkpt><trkpt lat="37.88684198637271" lon="15.167760172594837"><ele>233.0</ele><time>2026-04-26T06:57:21Z</time></trkpt><trkpt lat="37.88696333351405" lon="15.16758747772108"><ele>233.0</ele><time>2026-04-26T06:57:22Z</time></trkpt><trkpt lat="37.887085367841586" lon="15.16740858860572"><ele>233.0</ele><time>2026-04-26T06:57:23Z</time></trkpt><trkpt lat="37.88721065399175" lon="15.167223509972912"><ele>233.0</ele><time>2026-04-26T06:57:24Z</time></trkpt><trkpt lat="37.887342202688366" lon="15.167034816699648"><ele>233.0</ele><time>2026-04-26T06:57:25Z</time></trkpt><trkpt lat="37.887475364811124" lon="15.16684716531191"><ele>233.0</ele><time>2026-04-26T06:57:26Z</time></trkpt><trkpt lat="37.887603339585155" lon="15.166659460714833"><ele>233.0</ele><time>2026-04-26T06:57:27Z</time></trkpt><trkpt lat="37.88772604857453" lon="15.166474769160303"><ele>233.0</ele><time>2026-04-26T06:57:28Z</time></trkpt><trkpt lat="37.88784699388865" lon="15.166299931397566"><ele>233.0</ele><time>2026-04-26T06:57:29Z</time></trkpt><trkpt lat="37.887964052226906" lon="15.166127285124354"><ele>233.0</ele><time>2026-04-26T06:57:30Z</time></trkpt><trkpt lat="37.88807703543008" lon="15.165957091203621"><ele>233.0</ele><time>2026-04-26T06:57:31Z</time></trkpt><trkpt lat="37.888191631381545" lon="15.165792622307675"><ele>233.0</ele><time>2026-04-26T06:57:32Z</time></trkpt><trkpt lat="37.888309846670154" lon="15.16563029236433"><ele>233.0</ele><time>2026-04-26T06:57:33Z</time></trkpt><trkpt lat="37.888414801831516" lon="15.165469568812137"><ele>234.0</ele><time>2026-04-26T06:57:34Z</time></trkpt><trkpt lat="37.88851420457612" lon="15.165322987330393"><ele>235.0</ele><time>2026-04-26T06:57:35Z</time></trkpt><trkpt lat="37.88861066377803" lon="15.165189118727767"><ele>236.0</ele><time>2026-04-26T06:57:36Z</time></trkpt><trkpt lat="37.88870185074577" lon="15.165061429501307"><ele>237.0</ele><time>2026-04-26T06:57:37Z</time></trkpt><trkpt lat="37.88879425132162" lon="15.164928853205087"><ele>234.66666666666669</ele><time>2026-04-26T06:57:38Z</time></trkpt><trkpt lat="37.88889265112716" lon="15.164792266112086"><ele>232.33333333333334</ele><time>2026-04-26T06:57:39Z</time></trkpt><trkpt lat="37.88899251748935" lon="15.164647294267994"><ele>230.0</ele><time>2026-04-26T06:57:40Z</time></trkpt><trkpt lat="37.88910008723893" lon="15.164505632236517"><ele>230.0</ele><time>2026-04-26T06:57:41Z</time></trkpt><trkpt lat="37.88920537077013" lon="15.164372493844114"><ele>230.0</ele><time>2026-04-26T06:57:42Z</time></trkpt><trkpt lat="37.88932474266359" lon="15.164258360282506"><ele>230.0</ele><time>2026-04-26T06:57:43Z</time></trkpt><trkpt lat="37.889459463249196" lon="15.164165684698487"><ele>230.66666666666669</ele><time>2026-04-26T06:57:44Z</time></trkpt><trkpt lat="37.88961548538039" lon="15.164067258902449"><ele>231.33333333333331</ele><time>2026-04-26T06:57:45Z</time></trkpt><trkpt lat="37.88979002301305" lon="15.163958264597682"><ele>232.0</ele><time>2026-04-26T06:57:46Z</time></trkpt><trkpt lat="37.889985583577264" lon="15.163835507515492"><ele>235.0</ele><time>2026-04-26T06:57:47Z</time></trkpt><trkpt lat="37.89020730311333" lon="15.163719997032143"><ele>238.0</ele><time>2026-04-26T06:57:48Z</time></trkpt><trkpt lat="37.89042256232943" lon="15.163595271175026"><ele>238.0</ele><time>2026-04-26T06:57:49Z</time></trkpt><trkpt lat="37.89068108536338" lon="15.163434459479289"><ele>238.0</ele><time>2026-04-26T06:57:50Z</time></trkpt><trkpt lat="37.89093128795731" lon="15.163300358981994"><ele>238.0</ele><time>2026-04-26T06:57:51Z</time></trkpt><trkpt lat="37.891177476061024" lon="15.163163638970932"><ele>238.0</ele><time>2026-04-26T06:57:52Z</time></trkpt><trkpt lat="37.891408642815186" lon="15.163035252236664"><ele>238.0</ele><time>2026-04-26T06:57:53Z</time></trkpt><trkpt lat="37.89161885233789" lon="15.162913708387721"><ele>238.0</ele><time>2026-04-26T06:57:54Z</time></trkpt><trkpt lat="37.89180185606902" lon="15.162795243784561"><ele>238.0</ele><time>2026-04-26T06:57:55Z</time></trkpt><trkpt lat="37.891955089972" lon="15.162669816944662"><ele>238.0</ele><time>2026-04-26T06:57:56Z</time></trkpt><trkpt lat="37.89207555790549" lon="15.162537816610106"><ele>238.0</ele><time>2026-04-26T06:57:57Z</time></trkpt><trkpt lat="37.892165035697836" lon="15.162376018538437"><ele>238.0</ele><time>2026-04-26T06:57:58Z</time></trkpt><trkpt lat="37.8922262723595" lon="15.162172070530561"><ele>237.0</ele><time>2026-04-26T06:57:59Z</time></trkpt><trkpt lat="37.892269258436976" lon="15.161933576140632"><ele>236.0</ele><time>2026-04-26T06:58:00Z</time></trkpt><trkpt lat="37.89232209180759" lon="15.16166410453902"><ele>235.0</ele><time>2026-04-26T06:58:01Z</time></trkpt><trkpt lat="37.89236758799495" lon="15.161368529267104"><ele>233.5</ele><time>2026-04-26T06:58:02Z</time></trkpt><trkpt lat="37.8924181988626" lon="15.161050400393767"><ele>232.0</ele><time>2026-04-26T06:58:03Z</time></trkpt><trkpt lat="37.8924663361692" lon="15.160735397801483"><ele>230.0</ele><time>2026-04-26T06:58:04Z</time></trkpt><trkpt lat="37.89249951155415" lon="15.160421171237056"><ele>228.0</ele><time>2026-04-26T06:58:05Z</time></trkpt><trkpt lat="37.892547070582104" lon="15.160116791615554"><ele>231.0</ele><time>2026-04-26T06:58:06Z</time></trkpt><trkpt lat="37.89260867353521" lon="15.159818100152835"><ele>234.0</ele><time>2026-04-26T06:58:07Z</time></trkpt><trkpt lat="37.892655465356036" lon="15.159515991361655"><ele>234.0</ele><time>2026-04-26T06:58:08Z</time></trkpt><trkpt lat="37.892700371131085" lon="15.159222868522349"><ele>234.0</ele><time>2026-04-26T06:58:09Z</time></trkpt><trkpt lat="37.89274375672192" lon="15.15893966872956"><ele>236.0</ele><time>2026-04-26T06:58:10Z</time></trkpt><trkpt lat="37.89277023355794" lon="15.158661176666033"><ele>238.0</ele><time>2026-04-26T06:58:11Z</time></trkpt><trkpt lat="37.89282580196716" lon="15.15840411785857"><ele>240.0</ele><time>2026-04-26T06:58:12Z</time></trkpt><trkpt lat="37.892864659150035" lon="15.158150478858131"><ele>241.33333333333331</ele><time>2026-04-26T06:58:13Z</time></trkpt><trkpt lat="37.89289347817756" lon="15.157893143375858"><ele>242.66666666666666</ele><time>2026-04-26T06:58:14Z</time></trkpt><trkpt lat="37.89295998618597" lon="15.157644554843376"><ele>244.0</ele><time>2026-04-26T06:58:15Z</time></trkpt><trkpt lat="37.89305133836081" lon="15.1574086868335"><ele>245.33333333333331</ele><time>2026-04-26T06:58:16Z</time></trkpt><trkpt lat="37.89317243761124" lon="15.157192839945838"><ele>246.66666666666669</ele><time>2026-04-26T06:58:17Z</time></trkpt><trkpt lat="37.893314936337845" lon="15.156984617514382"><ele>248.0</ele><time>2026-04-26T06:58:18Z</time></trkpt><trkpt lat="37.89346527459142" lon="15.1567646275274"><ele>252.0</ele><time>2026-04-26T06:58:19Z</time></trkpt><trkpt lat="37.893626764743416" lon="15.156523122229231"><ele>256.0</ele><time>2026-04-26T06:58:20Z</time></trkpt><trkpt lat="37.893798805439886" lon="15.156264917500474"><ele>256.0</ele><time>2026-04-26T06:58:21Z</time></trkpt><trkpt lat="37.8939826930077" lon="15.15599895248863"><ele>256.0</ele><time>2026-04-26T06:58:22Z</time></trkpt><trkpt lat="37.894173549875134" lon="15.15573274513071"><ele>257.0</ele><time>2026-04-26T06:58:23Z</time></trkpt><trkpt lat="37.89434252003265" lon="15.155495905989284"><ele>258.0</ele><time>2026-04-26T06:58:24Z</time></trkpt><trkpt lat="37.894497996577044" lon="15.155277131800501"><ele>258.0</ele><time>2026-04-26T06:58:25Z</time></trkpt><trkpt lat="37.894643762048354" lon="15.155071108851882"><ele>258.0</ele><time>2026-04-26T06:58:26Z</time></trkpt><trkpt lat="37.89478259287989" lon="15.154877688714024"><ele>258.0</ele><time>2026-04-26T06:58:27Z</time></trkpt><trkpt lat="37.894918177176905" lon="15.15468684647301"><ele>257.6666666666667</ele><time>2026-04-26T06:58:28Z</time></trkpt><trkpt lat="37.89504729292446" lon="15.154505074678264"><ele>257.33333333333337</ele><time>2026-04-26T06:58:29Z</time></trkpt><trkpt lat="37.89516746959525" lon="15.154336885877335"><ele>257.0</ele><time>2026-04-26T06:58:30Z</time></trkpt><trkpt lat="37.89527664345079" lon="15.154174067663371"><ele>257.33333333333337</ele><time>2026-04-26T06:58:31Z</time></trkpt><trkpt lat="37.89537884654621" lon="15.15402169192103"><ele>257.6666666666667</ele><time>2026-04-26T06:58:32Z</time></trkpt><trkpt lat="37.89548064330764" lon="15.153861912191568"><ele>258.0</ele><time>2026-04-26T06:58:33Z</time></trkpt><trkpt lat="37.89558004950419" lon="15.153679336794493"><ele>258.0</ele><time>2026-04-26T06:58:34Z</time></trkpt><trkpt lat="37.895675750789344" lon="15.153469209277294"><ele>258.0</ele><time>2026-04-26T06:58:35Z</time></trkpt><trkpt lat="37.89576957250505" lon="15.153242616325507"><ele>258.0</ele><time>2026-04-26T06:58:36Z</time></trkpt><trkpt lat="37.895860621715734" lon="15.152996110309944"><ele>260.5</ele><time>2026-04-26T06:58:37Z</time></trkpt><trkpt lat="37.89595341623774" lon="15.152739152367703"><ele>263.0</ele><time>2026-04-26T06:58:38Z</time></trkpt><trkpt lat="37.89605217552408" lon="15.152472006773634"><ele>263.0</ele><time>2026-04-26T06:58:39Z</time></trkpt><trkpt lat="37.8961536705292" lon="15.152200665424216"><ele>263.0</ele><time>2026-04-26T06:58:40Z</time></trkpt><trkpt lat="37.896251576657725" lon="15.151935638336095"><ele>263.0</ele><time>2026-04-26T06:58:41Z</time></trkpt><trkpt lat="37.896346437219506" lon="15.151678856387244"><ele>263.0</ele><time>2026-04-26T06:58:42Z</time></trkpt><trkpt lat="37.896438586641295" lon="15.151434938549196"><ele>263.0</ele><time>2026-04-26T06:58:43Z</time></trkpt><trkpt lat="37.896523539022404" lon="15.151200439728477"><ele>263.33333333333337</ele><time>2026-04-26T06:58:44Z</time></trkpt><trkpt lat="37.89660896734586" lon="15.150967517177287"><ele>263.6666666666667</ele><time>2026-04-26T06:58:45Z</time></trkpt><trkpt lat="37.896698248974246" lon="15.15073158473512"><ele>264.0</ele><time>2026-04-26T06:58:46Z</time></trkpt><trkpt lat="37.89678948266733" lon="15.15049182987312"><ele>264.6666666666667</ele><time>2026-04-26T06:58:47Z</time></trkpt><trkpt lat="37.89688266049523" lon="15.15024884102466"><ele>265.33333333333337</ele><time>2026-04-26T06:58:48Z</time></trkpt><trkpt lat="37.89698558531658" lon="15.150008619852226"><ele>266.0</ele><time>2026-04-26T06:58:49Z</time></trkpt><trkpt lat="37.897101815282085" lon="15.1497739505033"><ele>267.0</ele><time>2026-04-26T06:58:50Z</time></trkpt><trkpt lat="37.89723470353726" lon="15.149548399313739"><ele>268.0</ele><time>2026-04-26T06:58:51Z</time></trkpt><trkpt lat="37.897380012607734" lon="15.149332309300064"><ele>269.0</ele><time>2026-04-26T06:58:52Z</time></trkpt><trkpt lat="37.897534938171454" lon="15.149126631753166"><ele>271.5</ele><time>2026-04-26T06:58:53Z</time></trkpt><trkpt lat="37.89769146863777" lon="15.148919458380698"><ele>274.0</ele><time>2026-04-26T06:58:54Z</time></trkpt><trkpt lat="37.89784592382003" lon="15.148711322891401"><ele>274.0</ele><time>2026-04-26T06:58:55Z</time></trkpt><trkpt lat="37.89799636441278" lon="15.1485001214289"><ele>274.0</ele><time>2026-04-26T06:58:56Z</time></trkpt><trkpt lat="37.89813659834177" lon="15.148282201858114"><ele>274.0</ele><time>2026-04-26T06:58:57Z</time></trkpt><trkpt lat="37.8982604539194" lon="15.148045675704326"><ele>275.0</ele><time>2026-04-26T06:58:58Z</time></trkpt><trkpt lat="37.89836396089902" lon="15.147787166352233"><ele>276.0</ele><time>2026-04-26T06:58:59Z</time></trkpt><trkpt lat="37.89845685000849" lon="15.14751103063365"><ele>277.5</ele><time>2026-04-26T06:59:00Z</time></trkpt><trkpt lat="37.898548111653035" lon="15.147216938521964"><ele>279.0</ele><time>2026-04-26T06:59:01Z</time></trkpt><trkpt lat="37.898642876622" lon="15.146917658919563"><ele>279.0</ele><time>2026-04-26T06:59:02Z</time></trkpt><trkpt lat="37.89873876116849" lon="15.146627400991228"><ele>279.0</ele><time>2026-04-26T06:59:03Z</time></trkpt><trkpt lat="37.89883286520359" lon="15.14635751577115"><ele>279.3333333333333</ele><time>2026-04-26T06:59:04Z</time></trkpt><trkpt lat="37.898926022460614" lon="15.146097602426332"><ele>279.66666666666663</ele><time>2026-04-26T06:59:05Z</time></trkpt><trkpt lat="37.89901434288821" lon="15.145842824951783"><ele>280.0</ele><time>2026-04-26T06:59:06Z</time></trkpt><trkpt lat="37.89910049862405" lon="15.145590147738554"><ele>280.3333333333333</ele><time>2026-04-26T06:59:07Z</time></trkpt><trkpt lat="37.89919419509884" lon="15.145344857302966"><ele>280.6666666666667</ele><time>2026-04-26T06:59:08Z</time></trkpt><trkpt lat="37.899302216863184" lon="15.145134419904211"><ele>281.0</ele><time>2026-04-26T06:59:09Z</time></trkpt><trkpt lat="37.899417632219794" lon="15.144949851426226"><ele>282.0</ele><time>2026-04-26T06:59:10Z</time></trkpt><trkpt lat="37.89954255980401" lon="15.144794524408846"><ele>283.0</ele><time>2026-04-26T06:59:11Z</time></trkpt><trkpt lat="37.89968456343611" lon="15.14466088129053"><ele>284.0</ele><time>2026-04-26T06:59:12Z</time></trkpt><trkpt lat="37.89983416994502" lon="15.144535972261657"><ele>284.0</ele><time>2026-04-26T06:59:13Z</time></trkpt><trkpt lat="37.89998502183791" lon="15.144409729995829"><ele>284.0</ele><time>2026-04-26T06:59:14Z</time></trkpt><trkpt lat="37.90013689080716" lon="15.144278627488587"><ele>284.0</ele><time>2026-04-26T06:59:15Z</time></trkpt><trkpt lat="37.90029452070301" lon="15.144146779752276"><ele>285.6666666666667</ele><time>2026-04-26T06:59:16Z</time></trkpt><trkpt lat="37.90045692320491" lon="15.144013956384669"><ele>287.3333333333333</ele><time>2026-04-26T06:59:17Z</time></trkpt><trkpt lat="37.90061766160754" lon="15.143884213417838"><ele>289.0</ele><time>2026-04-26T06:59:18Z</time></trkpt><trkpt lat="37.90077762516935" lon="15.143755504919389"><ele>288.66666666666663</ele><time>2026-04-26T06:59:19Z</time></trkpt><trkpt lat="37.900936245679866" lon="15.143629449198903"><ele>288.3333333333333</ele><time>2026-04-26T06:59:20Z</time></trkpt><trkpt lat="37.90109818780625" lon="15.143506271988379"><ele>288.0</ele><time>2026-04-26T06:59:21Z</time></trkpt><trkpt lat="37.90126078985234" lon="15.143391107691636"><ele>288.0</ele><time>2026-04-26T06:59:22Z</time></trkpt><trkpt lat="37.90140629390939" lon="15.143280572172035"><ele>288.0</ele><time>2026-04-26T06:59:23Z</time></trkpt><trkpt lat="37.9015379872201" lon="15.143173852613486"><ele>288.0</ele><time>2026-04-26T06:59:24Z</time></trkpt><trkpt lat="37.90166344421791" lon="15.143070889003978"><ele>289.5</ele><time>2026-04-26T06:59:25Z</time></trkpt><trkpt lat="37.90177930184194" lon="15.142977041482794"><ele>291.0</ele><time>2026-04-26T06:59:26Z</time></trkpt><trkpt lat="37.901883908219325" lon="15.142895055172046"><ele>292.5</ele><time>2026-04-26T06:59:27Z</time></trkpt><trkpt lat="37.90197760614569" lon="15.142821066263904"><ele>294.0</ele><time>2026-04-26T06:59:28Z</time></trkpt><trkpt lat="37.90206872095728" lon="15.142751627308273"><ele>294.0</ele><time>2026-04-26T06:59:29Z</time></trkpt><trkpt lat="37.902155509947086" lon="15.142685667102576"><ele>294.0</ele><time>2026-04-26T06:59:30Z</time></trkpt><trkpt lat="37.90223856365509" lon="15.142624278301849"><ele>294.0</ele><time>2026-04-26T06:59:31Z</time></trkpt><trkpt lat="37.902299688823426" lon="15.1425442621773"><ele>294.0</ele><time>2026-04-26T06:59:32Z</time></trkpt><trkpt lat="37.90231302281836" lon="15.142442844369963"><ele>294.0</ele><time>2026-04-26T06:59:33Z</time></trkpt><trkpt lat="37.90228850177073" lon="15.142348854051042"><ele>294.0</ele><time>2026-04-26T06:59:34Z</time></trkpt><trkpt lat="37.90224424664029" lon="15.142248456681354"><ele>296.25</ele><time>2026-04-26T06:59:35Z</time></trkpt><trkpt lat="37.90218489410782" lon="15.142133760815405"><ele>298.5</ele><time>2026-04-26T06:59:36Z</time></trkpt><trkpt lat="37.90212600970935" lon="15.141999708997231"><ele>300.75</ele><time>2026-04-26T06:59:37Z</time></trkpt><trkpt lat="37.90206142061493" lon="15.141848829013474"><ele>303.0</ele><time>2026-04-26T06:59:38Z</time></trkpt><trkpt lat="37.90198339479381" lon="15.141698146010926"><ele>303.25</ele><time>2026-04-26T06:59:39Z</time></trkpt><trkpt lat="37.901898873220034" lon="15.141546348154453"><ele>303.5</ele><time>2026-04-26T06:59:40Z</time></trkpt><trkpt lat="37.90182336397888" lon="15.141379184519524"><ele>303.75</ele><time>2026-04-26T06:59:41Z</time></trkpt><trkpt lat="37.9017522374214" lon="15.141226783375437"><ele>304.0</ele><time>2026-04-26T06:59:42Z</time></trkpt><trkpt lat="37.90168928909634" lon="15.141085044503962"><ele>304.0</ele><time>2026-04-26T06:59:43Z</time></trkpt><trkpt lat="37.90161530309474" lon="15.140941038358605"><ele>304.0</ele><time>2026-04-26T06:59:44Z</time></trkpt><trkpt lat="37.90152967794965" lon="15.140780643016562"><ele>304.0</ele><time>2026-04-26T06:59:45Z</time></trkpt><trkpt lat="37.90143877238586" lon="15.140600880214748"><ele>304.3333333333333</ele><time>2026-04-26T06:59:46Z</time></trkpt><trkpt lat="37.90133313019599" lon="15.140394366876912"><ele>304.6666666666667</ele><time>2026-04-26T06:59:47Z</time></trkpt><trkpt lat="37.90125169301228" lon="15.140211724898592"><ele>305.0</ele><time>2026-04-26T06:59:48Z</time></trkpt><trkpt lat="37.901175154582184" lon="15.140050064837208"><ele>305.0</ele><time>2026-04-26T06:59:49Z</time></trkpt><trkpt lat="37.901117285871685" lon="15.139888216535688"><ele>305.0</ele><time>2026-04-26T06:59:50Z</time></trkpt><trkpt lat="37.90107972890856" lon="15.139723415594851"><ele>305.0</ele><time>2026-04-26T06:59:51Z</time></trkpt><trkpt lat="37.90106744188489" lon="15.139554753384235"><ele>305.0</ele><time>2026-04-26T06:59:52Z</time></trkpt><trkpt lat="37.901073578196" lon="15.139383728452431"><ele>307.0</ele><time>2026-04-26T06:59:53Z</time></trkpt><trkpt lat="37.90111757234997" lon="15.13921053438597"><ele>309.0</ele><time>2026-04-26T06:59:54Z</time></trkpt><trkpt lat="37.90114111835379" lon="15.139013346936538"><ele>311.0</ele><time>2026-04-26T06:59:55Z</time></trkpt><trkpt lat="37.90117031445774" lon="15.138784826060348"><ele>312.6666666666667</ele><time>2026-04-26T06:59:56Z</time></trkpt><trkpt lat="37.901211419358894" lon="15.13855914912798"><ele>314.3333333333333</ele><time>2026-04-26T06:59:57Z</time></trkpt><trkpt lat="37.90125432082523" lon="15.138346783422596"><ele>316.0</ele><time>2026-04-26T06:59:58Z</time></trkpt><trkpt lat="37.90128625118963" lon="15.138145899378957"><ele>317.0</ele><time>2026-04-26T06:59:59Z</time></trkpt><trkpt lat="37.90130982519037" lon="15.137959294743109"><ele>318.0</ele><time>2026-04-26T07:00:00Z</time></trkpt><trkpt lat="37.9013351963999" lon="15.137797420188308"><ele>319.0</ele><time>2026-04-26T07:00:01Z</time></trkpt><trkpt lat="37.90137914747659" lon="15.137671028447974"><ele>320.0</ele><time>2026-04-26T07:00:02Z</time></trkpt><trkpt lat="37.90144394422512" lon="15.137570824250075"><ele>320.0</ele><time>2026-04-26T07:00:03Z</time></trkpt><trkpt lat="37.901526702643025" lon="15.137489284541102"><ele>320.0</ele><time>2026-04-26T07:00:04Z</time></trkpt><trkpt lat="37.90161457255936" lon="15.13740630135673"><ele>320.0</ele><time>2026-04-26T07:00:05Z</time></trkpt><trkpt lat="37.9016831007799" lon="15.137279297459857"><ele>320.0</ele><time>2026-04-26T07:00:06Z</time></trkpt><trkpt lat="37.901718431889904" lon="15.13712787238014"><ele>321.8</ele><time>2026-04-26T07:00:07Z</time></trkpt><trkpt lat="37.901731400519616" lon="15.136985036245203"><ele>323.6</ele><time>2026-04-26T07:00:08Z</time></trkpt><trkpt lat="37.901719791715735" lon="15.136864999274835"><ele>325.4</ele><time>2026-04-26T07:00:09Z</time></trkpt><trkpt lat="37.901703264534376" lon="15.136775563561274"><ele>327.2</ele><time>2026-04-26T07:00:10Z</time></trkpt><trkpt lat="37.90168385915464" lon="15.13669902696093"><ele>329.0</ele><time>2026-04-26T07:00:11Z</time></trkpt><trkpt lat="37.90162868173693" lon="15.136567860958227"><ele>330.0</ele><time>2026-04-26T07:00:13Z</time></trkpt><trkpt lat="37.90158204714267" lon="15.136430243029894"><ele>331.0</ele><time>2026-04-26T07:00:15Z</time></trkpt><trkpt lat="37.901539541249434" lon="15.136312299567095"><ele>332.0</ele><time>2026-04-26T07:00:17Z</time></trkpt><trkpt lat="37.90151376114623" lon="15.13623464516798"><ele>333.0</ele><time>2026-04-26T07:00:19Z</time></trkpt><trkpt lat="37.901484126810345" lon="15.136112479562808"><ele>334.0</ele><time>2026-04-26T07:00:21Z</time></trkpt><trkpt lat="37.90148945374285" lon="15.136030260284803"><ele>334.0</ele><time>2026-04-26T07:00:23Z</time></trkpt><trkpt lat="37.90148178286586" lon="15.13589342858501"><ele>334.0</ele><time>2026-04-26T07:00:25Z</time></trkpt><trkpt lat="37.90147707076429" lon="15.13578783235864"><ele>334.0</ele><time>2026-04-26T07:00:26Z</time></trkpt><trkpt lat="37.901483795450226" lon="15.135666579385301"><ele>334.0</ele><time>2026-04-26T07:00:27Z</time></trkpt><trkpt lat="37.90149446390857" lon="15.135517954035132"><ele>334.0</ele><time>2026-04-26T07:00:28Z</time></trkpt><trkpt lat="37.90151162992711" lon="15.135348986471103"><ele>334.0</ele><time>2026-04-26T07:00:29Z</time></trkpt><trkpt lat="37.9015348466837" lon="15.135195884129852"><ele>334.0</ele><time>2026-04-26T07:00:30Z</time></trkpt><trkpt lat="37.9015529698799" lon="15.135036246823033"><ele>334.0</ele><time>2026-04-26T07:00:31Z</time></trkpt><trkpt lat="37.90157395765399" lon="15.134877938905941"><ele>334.0</ele><time>2026-04-26T07:00:32Z</time></trkpt><trkpt lat="37.90160623035749" lon="15.134720600860403"><ele>334.0</ele><time>2026-04-26T07:00:33Z</time></trkpt><trkpt lat="37.901636531233294" lon="15.134536651181095"><ele>334.0</ele><time>2026-04-26T07:00:34Z</time></trkpt><trkpt lat="37.90165624959974" lon="15.134358184793514"><ele>334.0</ele><time>2026-04-26T07:00:35Z</time></trkpt><trkpt lat="37.901679141668275" lon="15.13420396803467"><ele>334.0</ele><time>2026-04-26T07:00:36Z</time></trkpt><trkpt lat="37.9017012200443" lon="15.134060671100732"><ele>334.0</ele><time>2026-04-26T07:00:37Z</time></trkpt><trkpt lat="37.901722451432626" lon="15.133916535177097"><ele>334.0</ele><time>2026-04-26T07:00:38Z</time></trkpt><trkpt lat="37.901740940951235" lon="15.133759420128882"><ele>334.0</ele><time>2026-04-26T07:00:39Z</time></trkpt><trkpt lat="37.90177273567612" lon="15.133612198556381"><ele>334.0</ele><time>2026-04-26T07:00:40Z</time></trkpt><trkpt lat="37.901814967987384" lon="15.133465510211229"><ele>333.75</ele><time>2026-04-26T07:00:41Z</time></trkpt><trkpt lat="37.90185398595488" lon="15.1333175003302"><ele>333.5</ele><time>2026-04-26T07:00:42Z</time></trkpt><trkpt lat="37.90188694608413" lon="15.133178394169672"><ele>333.25</ele><time>2026-04-26T07:00:43Z</time></trkpt><trkpt lat="37.901921070794614" lon="15.133040452072844"><ele>333.0</ele><time>2026-04-26T07:00:44Z</time></trkpt><trkpt lat="37.901954328399775" lon="15.132897842136375"><ele>333.0</ele><time>2026-04-26T07:00:45Z</time></trkpt><trkpt lat="37.901986821332805" lon="15.132751279301452"><ele>333.0</ele><time>2026-04-26T07:00:46Z</time></trkpt><trkpt lat="37.90203040297401" lon="15.132605262517279"><ele>333.0</ele><time>2026-04-26T07:00:47Z</time></trkpt><trkpt lat="37.9021050689596" lon="15.13247374999699"><ele>333.0</ele><time>2026-04-26T07:00:48Z</time></trkpt><trkpt lat="37.902209228677684" lon="15.13235691145687"><ele>333.6666666666667</ele><time>2026-04-26T07:00:49Z</time></trkpt><trkpt lat="37.90231548741325" lon="15.132232266745307"><ele>334.33333333333337</ele><time>2026-04-26T07:00:50Z</time></trkpt><trkpt lat="37.90242571050473" lon="15.132098737305048"><ele>335.0</ele><time>2026-04-26T07:00:51Z</time></trkpt><trkpt lat="37.90255068339536" lon="15.131974414940252"><ele>334.0</ele><time>2026-04-26T07:00:52Z</time></trkpt><trkpt lat="37.902692399587124" lon="15.131867643906352"><ele>333.0</ele><time>2026-04-26T07:00:53Z</time></trkpt><trkpt lat="37.90284469017543" lon="15.131770417298537"><ele>332.0</ele><time>2026-04-26T07:00:54Z</time></trkpt><trkpt lat="37.90299462598368" lon="15.131677348105438"><ele>332.0</ele><time>2026-04-26T07:00:55Z</time></trkpt><trkpt lat="37.903136600049606" lon="15.131573292836544"><ele>332.0</ele><time>2026-04-26T07:00:56Z</time></trkpt><trkpt lat="37.9032747370222" lon="15.131458687483926"><ele>332.0</ele><time>2026-04-26T07:00:57Z</time></trkpt><trkpt lat="37.90340082508761" lon="15.131323634850316"><ele>332.0</ele><time>2026-04-26T07:00:58Z</time></trkpt><trkpt lat="37.90351843727575" lon="15.131171192111378"><ele>332.0</ele><time>2026-04-26T07:00:59Z</time></trkpt><trkpt lat="37.90363954995385" lon="15.13101482854066"><ele>332.0</ele><time>2026-04-26T07:01:00Z</time></trkpt><trkpt lat="37.9037457912333" lon="15.130836867472436"><ele>332.33333333333337</ele><time>2026-04-26T07:01:01Z</time></trkpt><trkpt lat="37.90385049121605" lon="15.130662117427981"><ele>332.6666666666667</ele><time>2026-04-26T07:01:02Z</time></trkpt><trkpt lat="37.90394821566557" lon="15.130490906310605"><ele>333.0</ele><time>2026-04-26T07:01:03Z</time></trkpt><trkpt lat="37.90403480623623" lon="15.130310860971822"><ele>333.0</ele><time>2026-04-26T07:01:04Z</time></trkpt><trkpt lat="37.90410186180786" lon="15.130115772189079"><ele>333.0</ele><time>2026-04-26T07:01:05Z</time></trkpt><trkpt lat="37.904153245882235" lon="15.129905871473401"><ele>333.0</ele><time>2026-04-26T07:01:06Z</time></trkpt><trkpt lat="37.90420768283283" lon="15.129691734352669"><ele>330.3333333333333</ele><time>2026-04-26T07:01:07Z</time></trkpt><trkpt lat="37.90427762238597" lon="15.129473494491103"><ele>327.66666666666663</ele><time>2026-04-26T07:01:08Z</time></trkpt><trkpt lat="37.904327887285085" lon="15.129245620653489"><ele>325.0</ele><time>2026-04-26T07:01:09Z</time></trkpt><trkpt lat="37.904376548307134" lon="15.129031511436708"><ele>325.0</ele><time>2026-04-26T07:01:10Z</time></trkpt><trkpt lat="37.90442325270856" lon="15.128834957423361"><ele>325.0</ele><time>2026-04-26T07:01:11Z</time></trkpt><trkpt lat="37.904468027389846" lon="15.128652427485388"><ele>325.0</ele><time>2026-04-26T07:01:12Z</time></trkpt><trkpt lat="37.90452860553369" lon="15.128471582830139"><ele>325.0</ele><time>2026-04-26T07:01:13Z</time></trkpt><trkpt lat="37.90462047605813" lon="15.128294639453236"><ele>325.0</ele><time>2026-04-26T07:01:14Z</time></trkpt><trkpt lat="37.904726314246865" lon="15.128114708313346"><ele>325.0</ele><time>2026-04-26T07:01:15Z</time></trkpt><trkpt lat="37.90481635544328" lon="15.127915169895537"><ele>327.3333333333333</ele><time>2026-04-26T07:01:16Z</time></trkpt><trkpt lat="37.90489099386088" lon="15.127693028229363"><ele>329.6666666666667</ele><time>2026-04-26T07:01:17Z</time></trkpt><trkpt lat="37.904956527074965" lon="15.127474430968451"><ele>332.0</ele><time>2026-04-26T07:01:18Z</time></trkpt><trkpt lat="37.90499774858244" lon="15.127265918484916"><ele>333.6666666666667</ele><time>2026-04-26T07:01:19Z</time></trkpt><trkpt lat="37.90501425358072" lon="15.127067083502148"><ele>335.3333333333333</ele><time>2026-04-26T07:01:20Z</time></trkpt><trkpt lat="37.905024295360064" lon="15.12686488405178"><ele>337.0</ele><time>2026-04-26T07:01:21Z</time></trkpt><trkpt lat="37.905009978577915" lon="15.126658926344504"><ele>335.75</ele><time>2026-04-26T07:01:22Z</time></trkpt><trkpt lat="37.90497861791347" lon="15.126470813798585"><ele>334.5</ele><time>2026-04-26T07:01:23Z</time></trkpt><trkpt lat="37.904932818186346" lon="15.126307487411545"><ele>333.25</ele><time>2026-04-26T07:01:24Z</time></trkpt><trkpt lat="37.904883044860554" lon="15.12616252083327"><ele>332.0</ele><time>2026-04-26T07:01:25Z</time></trkpt><trkpt lat="37.90485605075749" lon="15.126025290997223"><ele>332.0</ele><time>2026-04-26T07:01:26Z</time></trkpt><trkpt lat="37.90482074491391" lon="15.125903708482548"><ele>332.0</ele><time>2026-04-26T07:01:27Z</time></trkpt><trkpt lat="37.90480343399816" lon="15.125808188452684"><ele>332.0</ele><time>2026-04-26T07:01:28Z</time></trkpt><trkpt lat="37.90478597804419" lon="15.125661323104413"><ele>332.0</ele><time>2026-04-26T07:01:30Z</time></trkpt><trkpt lat="37.90479616847207" lon="15.125568701629366"><ele>332.0</ele><time>2026-04-26T07:01:31Z</time></trkpt><trkpt lat="37.90480449041648" lon="15.125459317833105"><ele>333.5</ele><time>2026-04-26T07:01:32Z</time></trkpt><trkpt lat="37.90483371602943" lon="15.125331610748816"><ele>335.0</ele><time>2026-04-26T07:01:33Z</time></trkpt><trkpt lat="37.90486240484742" lon="15.125182382068013"><ele>336.5</ele><time>2026-04-26T07:01:34Z</time></trkpt><trkpt lat="37.9049034695451" lon="15.125006018302214"><ele>338.0</ele><time>2026-04-26T07:01:35Z</time></trkpt><trkpt lat="37.90495026424386" lon="15.12480337124622"><ele>341.0</ele><time>2026-04-26T07:01:36Z</time></trkpt><trkpt lat="37.90499975866331" lon="15.124589032906483"><ele>344.0</ele><time>2026-04-26T07:01:37Z</time></trkpt><trkpt lat="37.905049800079965" lon="15.124370736654106"><ele>347.0</ele><time>2026-04-26T07:01:38Z</time></trkpt><trkpt lat="37.905115487725396" lon="15.124154746234407"><ele>342.33333333333337</ele><time>2026-04-26T07:01:39Z</time></trkpt><trkpt lat="37.905222018242725" lon="15.123977472515453"><ele>337.6666666666667</ele><time>2026-04-26T07:01:40Z</time></trkpt><trkpt lat="37.90534007810084" lon="15.123820087653009"><ele>333.0</ele><time>2026-04-26T07:01:41Z</time></trkpt><trkpt lat="37.90545117020111" lon="15.123667575561498"><ele>333.0</ele><time>2026-04-26T07:01:42Z</time></trkpt><trkpt lat="37.90554605820233" lon="15.123495740517804"><ele>333.0</ele><time>2026-04-26T07:01:43Z</time></trkpt><trkpt lat="37.905615500750976" lon="15.12329849265433"><ele>333.0</ele><time>2026-04-26T07:01:44Z</time></trkpt><trkpt lat="37.90565745432409" lon="15.123082797197856"><ele>336.6666666666667</ele><time>2026-04-26T07:01:45Z</time></trkpt><trkpt lat="37.90570596178715" lon="15.122865651719072"><ele>340.33333333333337</ele><time>2026-04-26T07:01:46Z</time></trkpt><trkpt lat="37.90575240153337" lon="15.1226440617035"><ele>344.0</ele><time>2026-04-26T07:01:47Z</time></trkpt><trkpt lat="37.90583734428054" lon="15.12244504022203"><ele>342.6666666666667</ele><time>2026-04-26T07:01:48Z</time></trkpt><trkpt lat="37.90593317436047" lon="15.122280419007831"><ele>341.3333333333333</ele><time>2026-04-26T07:01:49Z</time></trkpt><trkpt lat="37.90602143874415" lon="15.122116199610927"><ele>340.0</ele><time>2026-04-26T07:01:50Z</time></trkpt><trkpt lat="37.90615014000761" lon="15.121993919003797"><ele>340.0</ele><time>2026-04-26T07:01:51Z</time></trkpt><trkpt lat="37.90627929632022" lon="15.121868003763911"><ele>340.0</ele><time>2026-04-26T07:01:52Z</time></trkpt><trkpt lat="37.90637682656576" lon="15.121693967844234"><ele>340.0</ele><time>2026-04-26T07:01:53Z</time></trkpt><trkpt lat="37.906445001599714" lon="15.121490480849337"><ele>339.5</ele><time>2026-04-26T07:01:54Z</time></trkpt><trkpt lat="37.90652080244195" lon="15.121327966191465"><ele>339.0</ele><time>2026-04-26T07:01:55Z</time></trkpt><trkpt lat="37.906623745665634" lon="15.121212054661678"><ele>338.5</ele><time>2026-04-26T07:01:56Z</time></trkpt><trkpt lat="37.90675524097833" lon="15.12111888321512"><ele>338.0</ele><time>2026-04-26T07:01:57Z</time></trkpt><trkpt lat="37.90688337748953" lon="15.121014415503911"><ele>338.0</ele><time>2026-04-26T07:01:58Z</time></trkpt><trkpt lat="37.90700218600601" lon="15.120876865225387"><ele>338.0</ele><time>2026-04-26T07:01:59Z</time></trkpt><trkpt lat="37.90708868274194" lon="15.120704931956885"><ele>338.0</ele><time>2026-04-26T07:02:00Z</time></trkpt><trkpt lat="37.90716293047961" lon="15.120539967955539"><ele>341.0</ele><time>2026-04-26T07:02:01Z</time></trkpt><trkpt lat="37.90721547912034" lon="15.12036256102705"><ele>344.0</ele><time>2026-04-26T07:02:02Z</time></trkpt><trkpt lat="37.907195013628744" lon="15.120158234607235"><ele>347.0</ele><time>2026-04-26T07:02:03Z</time></trkpt><trkpt lat="37.907194711781706" lon="15.11995285953479"><ele>350.0</ele><time>2026-04-26T07:02:04Z</time></trkpt><trkpt lat="37.9072135169702" lon="15.119747379553688"><ele>353.0</ele><time>2026-04-26T07:02:05Z</time></trkpt><trkpt lat="37.90727670837485" lon="15.119545060621617"><ele>356.0</ele><time>2026-04-26T07:02:06Z</time></trkpt><trkpt lat="37.9073345171225" lon="15.119313837298343"><ele>356.0</ele><time>2026-04-26T07:02:07Z</time></trkpt><trkpt lat="37.90736609150653" lon="15.119071023529326"><ele>356.0</ele><time>2026-04-26T07:02:08Z</time></trkpt><trkpt lat="37.907415158219806" lon="15.118845341094767"><ele>356.0</ele><time>2026-04-26T07:02:09Z</time></trkpt><trkpt lat="37.90746771726854" lon="15.118653903490861"><ele>354.75</ele><time>2026-04-26T07:02:10Z</time></trkpt><trkpt lat="37.9075322356993" lon="15.118483207397007"><ele>353.5</ele><time>2026-04-26T07:02:11Z</time></trkpt><trkpt lat="37.90760128963423" lon="15.118334790849332"><ele>352.25</ele><time>2026-04-26T07:02:12Z</time></trkpt><trkpt lat="37.90766589571907" lon="15.118205247996597"><ele>351.0</ele><time>2026-04-26T07:02:13Z</time></trkpt><trkpt lat="37.907720700972654" lon="15.11810771886004"><ele>358.0</ele><time>2026-04-26T07:02:14Z</time></trkpt><trkpt lat="37.90777791747852" lon="15.11804674181441"><ele>365.0</ele><time>2026-04-26T07:02:15Z</time></trkpt><trkpt lat="37.9078605359522" lon="15.118056620156302"><ele>372.0</ele><time>2026-04-26T07:02:16Z</time></trkpt><trkpt lat="37.9079755429987" lon="15.11811238294888"><ele>379.0</ele><time>2026-04-26T07:02:17Z</time></trkpt><trkpt lat="37.90810605617334" lon="15.118118769183651"><ele>386.0</ele><time>2026-04-26T07:02:18Z</time></trkpt><trkpt lat="37.90825610249663" lon="15.118045077700222"><ele>386.0</ele><time>2026-04-26T07:02:19Z</time></trkpt><trkpt lat="37.90839985874752" lon="15.117926883768831"><ele>386.0</ele><time>2026-04-26T07:02:20Z</time></trkpt><trkpt lat="37.908520532025896" lon="15.11781387859733"><ele>386.0</ele><time>2026-04-26T07:02:21Z</time></trkpt><trkpt lat="37.90861639758663" lon="15.117669156046325"><ele>378.5</ele><time>2026-04-26T07:02:22Z</time></trkpt><trkpt lat="37.90867485537766" lon="15.117517519207242"><ele>371.0</ele><time>2026-04-26T07:02:23Z</time></trkpt><trkpt lat="37.90869920394605" lon="15.117344701333163"><ele>363.5</ele><time>2026-04-26T07:02:24Z</time></trkpt><trkpt lat="37.908704606275286" lon="15.117152501865066"><ele>356.0</ele><time>2026-04-26T07:02:25Z</time></trkpt><trkpt lat="37.90874496457509" lon="15.116958372096027"><ele>356.0</ele><time>2026-04-26T07:02:26Z</time></trkpt><trkpt lat="37.9087757308726" lon="15.116775580991147"><ele>356.0</ele><time>2026-04-26T07:02:27Z</time></trkpt><trkpt lat="37.90883597258022" lon="15.116626675478235"><ele>356.0</ele><time>2026-04-26T07:02:28Z</time></trkpt><trkpt lat="37.90890958282082" lon="15.116479487232695"><ele>356.0</ele><time>2026-04-26T07:02:29Z</time></trkpt><trkpt lat="37.90897190383612" lon="15.116352740476968"><ele>359.25</ele><time>2026-04-26T07:02:30Z</time></trkpt><trkpt lat="37.908978477506594" lon="15.11619895726324"><ele>362.5</ele><time>2026-04-26T07:02:31Z</time></trkpt><trkpt lat="37.90897949311281" lon="15.116015866373102"><ele>365.75</ele><time>2026-04-26T07:02:32Z</time></trkpt><trkpt lat="37.90897356648289" lon="15.115820793676988"><ele>369.0</ele><time>2026-04-26T07:02:33Z</time></trkpt><trkpt lat="37.90898491971214" lon="15.11564463846866"><ele>368.0</ele><time>2026-04-26T07:02:34Z</time></trkpt><trkpt lat="37.909019398350246" lon="15.11550366111722"><ele>367.0</ele><time>2026-04-26T07:02:35Z</time></trkpt><trkpt lat="37.90906650336319" lon="15.115396345423887"><ele>366.0</ele><time>2026-04-26T07:02:36Z</time></trkpt><trkpt lat="37.90912784760452" lon="15.115313424621016"><ele>365.0</ele><time>2026-04-26T07:02:37Z</time></trkpt><trkpt lat="37.9092241327763" lon="15.11528345701998"><ele>364.0</ele><time>2026-04-26T07:02:38Z</time></trkpt><trkpt lat="37.90935520192963" lon="15.115272500789214"><ele>364.0</ele><time>2026-04-26T07:02:39Z</time></trkpt><trkpt lat="37.90948132159357" lon="15.115205989388366"><ele>364.0</ele><time>2026-04-26T07:02:40Z</time></trkpt><trkpt lat="37.90959342014092" lon="15.115106685498905"><ele>364.0</ele><time>2026-04-26T07:02:41Z</time></trkpt><trkpt lat="37.909669292809525" lon="15.114994985803229"><ele>364.0</ele><time>2026-04-26T07:02:42Z</time></trkpt><trkpt lat="37.90970248407128" lon="15.11486941727171"><ele>370.5</ele><time>2026-04-26T07:02:43Z</time></trkpt><trkpt lat="37.909686631025075" lon="15.114717857593659"><ele>377.0</ele><time>2026-04-26T07:02:44Z</time></trkpt><trkpt lat="37.90970258131766" lon="15.114572882461573"><ele>383.5</ele><time>2026-04-26T07:02:45Z</time></trkpt><trkpt lat="37.909772159713214" lon="15.11447800478936"><ele>390.0</ele><time>2026-04-26T07:02:46Z</time></trkpt><trkpt lat="37.909869436402474" lon="15.114348327557773"><ele>390.0</ele><time>2026-04-26T07:02:47Z</time></trkpt><trkpt lat="37.90997591163222" lon="15.11420185980566"><ele>390.0</ele><time>2026-04-26T07:02:48Z</time></trkpt><trkpt lat="37.91011991488015" lon="15.114087137541066"><ele>390.0</ele><time>2026-04-26T07:02:49Z</time></trkpt><trkpt lat="37.91028097088688" lon="15.113994974403115"><ele>388.0</ele><time>2026-04-26T07:02:50Z</time></trkpt><trkpt lat="37.910434497024276" lon="15.11392537560932"><ele>386.0</ele><time>2026-04-26T07:02:51Z</time></trkpt><trkpt lat="37.91056549249549" lon="15.113845307772985"><ele>384.0</ele><time>2026-04-26T07:02:52Z</time></trkpt><trkpt lat="37.91065958775584" lon="15.113726765719928"><ele>382.0</ele><time>2026-04-26T07:02:53Z</time></trkpt><trkpt lat="37.91071405958127" lon="15.113555917503994"><ele>382.0</ele><time>2026-04-26T07:02:54Z</time></trkpt><trkpt lat="37.91075626788343" lon="15.113366732964822"><ele>382.0</ele><time>2026-04-26T07:02:55Z</time></trkpt><trkpt lat="37.91075985780748" lon="15.113157482400362"><ele>382.0</ele><time>2026-04-26T07:02:56Z</time></trkpt><trkpt lat="37.9107211990353" lon="15.11292500649008"><ele>382.66666666666663</ele><time>2026-04-26T07:02:57Z</time></trkpt><trkpt lat="37.910669596541794" lon="15.112676664955881"><ele>383.3333333333333</ele><time>2026-04-26T07:02:58Z</time></trkpt><trkpt lat="37.910634692868705" lon="15.11240409308203"><ele>384.0</ele><time>2026-04-26T07:02:59Z</time></trkpt><trkpt lat="37.910589624171344" lon="15.112130174683713"><ele>385.0</ele><time>2026-04-26T07:03:00Z</time></trkpt><trkpt lat="37.910547497069615" lon="15.111877200677673"><ele>386.0</ele><time>2026-04-26T07:03:01Z</time></trkpt><trkpt lat="37.910512689791254" lon="15.111668182012172"><ele>387.0</ele><time>2026-04-26T07:03:02Z</time></trkpt><trkpt lat="37.91049559770289" lon="15.111509942403703"><ele>389.0</ele><time>2026-04-26T07:03:03Z</time></trkpt><trkpt lat="37.910481390599294" lon="15.111373080192786"><ele>391.0</ele><time>2026-04-26T07:03:04Z</time></trkpt><trkpt lat="37.91053747217262" lon="15.111243172899405"><ele>393.0</ele><time>2026-04-26T07:03:05Z</time></trkpt><trkpt lat="37.91065381141143" lon="15.111158500601995"><ele>395.0</ele><time>2026-04-26T07:03:06Z</time></trkpt><trkpt lat="37.9107647031668" lon="15.111041601380474"><ele>395.0</ele><time>2026-04-26T07:03:07Z</time></trkpt><trkpt lat="37.910867246562695" lon="15.11087880440909"><ele>395.0</ele><time>2026-04-26T07:03:08Z</time></trkpt><trkpt lat="37.91093745162224" lon="15.110685497805006"><ele>395.0</ele><time>2026-04-26T07:03:09Z</time></trkpt><trkpt lat="37.91097638766413" lon="15.110477363421671"><ele>393.0</ele><time>2026-04-26T07:03:10Z</time></trkpt><trkpt lat="37.910987244497655" lon="15.110247112177326"><ele>391.0</ele><time>2026-04-26T07:03:11Z</time></trkpt><trkpt lat="37.910997929498684" lon="15.110030647387525"><ele>389.0</ele><time>2026-04-26T07:03:12Z</time></trkpt><trkpt lat="37.91102452526901" lon="15.109849425134088"><ele>389.0</ele><time>2026-04-26T07:03:13Z</time></trkpt><trkpt lat="37.91107712346331" lon="15.109665910582946"><ele>389.0</ele><time>2026-04-26T07:03:14Z</time></trkpt><trkpt lat="37.91118423552998" lon="15.109499719109863"><ele>389.0</ele><time>2026-04-26T07:03:15Z</time></trkpt><trkpt lat="37.91132237887374" lon="15.109332903523233"><ele>389.0</ele><time>2026-04-26T07:03:16Z</time></trkpt><trkpt lat="37.91146281324626" lon="15.109142314002344"><ele>389.0</ele><time>2026-04-26T07:03:17Z</time></trkpt><trkpt lat="37.91160626344334" lon="15.10891685716082"><ele>389.0</ele><time>2026-04-26T07:03:18Z</time></trkpt><trkpt lat="37.91173690282252" lon="15.108665287443094"><ele>390.0</ele><time>2026-04-26T07:03:19Z</time></trkpt><trkpt lat="37.91185128993124" lon="15.108410411666268"><ele>391.0</ele><time>2026-04-26T07:03:20Z</time></trkpt><trkpt lat="37.91196110195481" lon="15.108174429314536"><ele>392.0</ele><time>2026-04-26T07:03:21Z</time></trkpt><trkpt lat="37.91208209801814" lon="15.107961190865733"><ele>392.0</ele><time>2026-04-26T07:03:22Z</time></trkpt><trkpt lat="37.91221203913242" lon="15.10777314199345"><ele>392.0</ele><time>2026-04-26T07:03:23Z</time></trkpt><trkpt lat="37.912330807066276" lon="15.107594444452927"><ele>392.0</ele><time>2026-04-26T07:03:24Z</time></trkpt><trkpt lat="37.91240881863312" lon="15.107424437548978"><ele>392.66666666666663</ele><time>2026-04-26T07:03:25Z</time></trkpt><trkpt lat="37.91245283344408" lon="15.107239730608187"><ele>393.33333333333337</ele><time>2026-04-26T07:03:26Z</time></trkpt><trkpt lat="37.912460512682145" lon="15.107039406724137"><ele>394.0</ele><time>2026-04-26T07:03:27Z</time></trkpt><trkpt lat="37.91244897865031" lon="15.106838412521023"><ele>394.0</ele><time>2026-04-26T07:03:28Z</time></trkpt><trkpt lat="37.9124651865922" lon="15.106668823224734"><ele>394.0</ele><time>2026-04-26T07:03:29Z</time></trkpt><trkpt lat="37.91245515580538" lon="15.10651092237577"><ele>394.0</ele><time>2026-04-26T07:03:30Z</time></trkpt><trkpt lat="37.912414886641855" lon="15.10634490548026"><ele>394.0</ele><time>2026-04-26T07:03:31Z</time></trkpt><trkpt lat="37.9123713817573" lon="15.106185279836401"><ele>393.4</ele><time>2026-04-26T07:03:32Z</time></trkpt><trkpt lat="37.912337369578296" lon="15.106033650111897"><ele>392.79999999999995</ele><time>2026-04-26T07:03:33Z</time></trkpt><trkpt lat="37.91229461595235" lon="15.105907169815678"><ele>392.20000000000005</ele><time>2026-04-26T07:03:34Z</time></trkpt><trkpt lat="37.912255921067235" lon="15.10581240751924"><ele>391.6</ele><time>2026-04-26T07:03:35Z</time></trkpt><trkpt lat="37.91222427156353" lon="15.10573811901666"><ele>391.0</ele><time>2026-04-26T07:03:36Z</time></trkpt><trkpt lat="37.912165580413465" lon="15.105595072592777"><ele>389.0</ele><time>2026-04-26T07:03:38Z</time></trkpt><trkpt lat="37.912145593917515" lon="15.10545351533541"><ele>387.0</ele><time>2026-04-26T07:03:40Z</time></trkpt><trkpt lat="37.912195732342724" lon="15.10539375939456"><ele>385.0</ele><time>2026-04-26T07:03:41Z</time></trkpt><trkpt lat="37.912268389614894" lon="15.105371190230542"><ele>383.0</ele><time>2026-04-26T07:03:42Z</time></trkpt><trkpt lat="37.912352202873244" lon="15.105409627840254"><ele>381.0</ele><time>2026-04-26T07:03:43Z</time></trkpt><trkpt lat="37.912431092343716" lon="15.105502621982536"><ele>381.0</ele><time>2026-04-26T07:03:44Z</time></trkpt><trkpt lat="37.91250194684776" lon="15.105642213660248"><ele>381.0</ele><time>2026-04-26T07:03:45Z</time></trkpt><trkpt lat="37.91258891868992" lon="15.105781279549996"><ele>381.0</ele><time>2026-04-26T07:03:46Z</time></trkpt><trkpt lat="37.91270066323751" lon="15.105918771552767"><ele>381.0</ele><time>2026-04-26T07:03:47Z</time></trkpt><trkpt lat="37.912829066125134" lon="15.10604615931562"><ele>380.3333333333333</ele><time>2026-04-26T07:03:48Z</time></trkpt><trkpt lat="37.91296262859709" lon="15.106168516498203"><ele>379.66666666666663</ele><time>2026-04-26T07:03:49Z</time></trkpt><trkpt lat="37.91309074057049" lon="15.10630157325323"><ele>379.0</ele><time>2026-04-26T07:03:50Z</time></trkpt><trkpt lat="37.91320333769914" lon="15.106454337965436"><ele>379.75</ele><time>2026-04-26T07:03:51Z</time></trkpt><trkpt lat="37.913264566864186" lon="15.106640118030649"><ele>380.5</ele><time>2026-04-26T07:03:52Z</time></trkpt><trkpt lat="37.91328292154942" lon="15.106812655813096"><ele>381.25</ele><time>2026-04-26T07:03:53Z</time></trkpt><trkpt lat="37.91328970109294" lon="15.10694988011766"><ele>382.0</ele><time>2026-04-26T07:03:54Z</time></trkpt><trkpt lat="37.91336566089475" lon="15.107075462263195"><ele>379.0</ele><time>2026-04-26T07:03:55Z</time></trkpt><trkpt lat="37.913476857252775" lon="15.107152987087407"><ele>376.0</ele><time>2026-04-26T07:03:56Z</time></trkpt><trkpt lat="37.913604916912604" lon="15.107205107464868"><ele>373.0</ele><time>2026-04-26T07:03:57Z</time></trkpt><trkpt lat="37.91373574658281" lon="15.107261325255157"><ele>370.0</ele><time>2026-04-26T07:03:58Z</time></trkpt><trkpt lat="37.91387219571366" lon="15.107326550171962"><ele>370.0</ele><time>2026-04-26T07:03:59Z</time></trkpt><trkpt lat="37.91401514470568" lon="15.107390949566097"><ele>370.0</ele><time>2026-04-26T07:04:00Z</time></trkpt><trkpt lat="37.91415700263187" lon="15.107453965446277"><ele>370.0</ele><time>2026-04-26T07:04:01Z</time></trkpt><trkpt lat="37.914281022487614" lon="15.107500100242484"><ele>370.0</ele><time>2026-04-26T07:04:02Z</time></trkpt><trkpt lat="37.91439168197084" lon="15.107511425594298"><ele>374.25</ele><time>2026-04-26T07:04:03Z</time></trkpt><trkpt lat="37.91449382567178" lon="15.107458550684438"><ele>378.5</ele><time>2026-04-26T07:04:04Z</time></trkpt><trkpt lat="37.914569480716224" lon="15.10735796965822"><ele>382.75</ele><time>2026-04-26T07:04:05Z</time></trkpt><trkpt lat="37.9146281796695" lon="15.107228245767796"><ele>387.0</ele><time>2026-04-26T07:04:06Z</time></trkpt><trkpt lat="37.914654242091245" lon="15.107055183487692"><ele>387.0</ele><time>2026-04-26T07:04:07Z</time></trkpt><trkpt lat="37.914695137525314" lon="15.1068738743429"><ele>387.0</ele><time>2026-04-26T07:04:08Z</time></trkpt><trkpt lat="37.91476490022326" lon="15.106695252467132"><ele>387.0</ele><time>2026-04-26T07:04:09Z</time></trkpt><trkpt lat="37.91485295078463" lon="15.106523830845966"><ele>385.5</ele><time>2026-04-26T07:04:10Z</time></trkpt><trkpt lat="37.91498105949266" lon="15.106407426783989"><ele>384.0</ele><time>2026-04-26T07:04:11Z</time></trkpt><trkpt lat="37.91510747877308" lon="15.106331248488225"><ele>382.5</ele><time>2026-04-26T07:04:12Z</time></trkpt><trkpt lat="37.91524737857743" lon="15.106304795480177"><ele>381.0</ele><time>2026-04-26T07:04:13Z</time></trkpt><trkpt lat="37.91539796695451" lon="15.10633388449158"><ele>381.0</ele><time>2026-04-26T07:04:14Z</time></trkpt><trkpt lat="37.91554886069318" lon="15.106403131311403"><ele>381.0</ele><time>2026-04-26T07:04:15Z</time></trkpt><trkpt lat="37.91570899315737" lon="15.106475079162545"><ele>381.0</ele><time>2026-04-26T07:04:16Z</time></trkpt><trkpt lat="37.91587731731084" lon="15.106522076351066"><ele>382.33333333333337</ele><time>2026-04-26T07:04:17Z</time></trkpt><trkpt lat="37.91604709483611" lon="15.106493005902552"><ele>383.6666666666667</ele><time>2026-04-26T07:04:18Z</time></trkpt><trkpt lat="37.916209140172946" lon="15.106391213610724"><ele>385.0</ele><time>2026-04-26T07:04:19Z</time></trkpt><trkpt lat="37.91636955695243" lon="15.106253324139775"><ele>385.0</ele><time>2026-04-26T07:04:20Z</time></trkpt><trkpt lat="37.9165377351241" lon="15.106097800274851"><ele>385.0</ele><time>2026-04-26T07:04:21Z</time></trkpt><trkpt lat="37.91671009126156" lon="15.105951709328313"><ele>385.0</ele><time>2026-04-26T07:04:22Z</time></trkpt><trkpt lat="37.916868148276144" lon="15.10581961825716"><ele>386.75</ele><time>2026-04-26T07:04:23Z</time></trkpt><trkpt lat="37.91700577318625" lon="15.105709303065787"><ele>388.5</ele><time>2026-04-26T07:04:24Z</time></trkpt><trkpt lat="37.91712784576762" lon="15.105620318904435"><ele>390.25</ele><time>2026-04-26T07:04:25Z</time></trkpt><trkpt lat="37.917243093096" lon="15.105562358931598"><ele>392.0</ele><time>2026-04-26T07:04:26Z</time></trkpt><trkpt lat="37.917358365013804" lon="15.105543415094216"><ele>392.0</ele><time>2026-04-26T07:04:27Z</time></trkpt><trkpt lat="37.91747008946345" lon="15.105574267659271"><ele>392.0</ele><time>2026-04-26T07:04:28Z</time></trkpt><trkpt lat="37.917568935562294" lon="15.105678019577285"><ele>392.0</ele><time>2026-04-26T07:04:29Z</time></trkpt><trkpt lat="37.91765633585521" lon="15.105812568503483"><ele>392.0</ele><time>2026-04-26T07:04:30Z</time></trkpt><trkpt lat="37.91771446038752" lon="15.10598885181037"><ele>396.3333333333333</ele><time>2026-04-26T07:04:31Z</time></trkpt><trkpt lat="37.91775896121039" lon="15.106171336193649"><ele>400.66666666666663</ele><time>2026-04-26T07:04:32Z</time></trkpt><trkpt lat="37.91783059353324" lon="15.106348565741207"><ele>405.0</ele><time>2026-04-26T07:04:33Z</time></trkpt><trkpt lat="37.917949610112466" lon="15.106485920501717"><ele>405.0</ele><time>2026-04-26T07:04:34Z</time></trkpt><trkpt lat="37.91808545152104" lon="15.106602872792317"><ele>405.0</ele><time>2026-04-26T07:04:35Z</time></trkpt><trkpt lat="37.918246450553454" lon="15.106672975632744"><ele>405.0</ele><time>2026-04-26T07:04:36Z</time></trkpt><trkpt lat="37.91841715792437" lon="15.106691906864654"><ele>405.0</ele><time>2026-04-26T07:04:37Z</time></trkpt><trkpt lat="37.91858988246369" lon="15.106672694543636"><ele>405.0</ele><time>2026-04-26T07:04:38Z</time></trkpt><trkpt lat="37.918767185125716" lon="15.106640549624188"><ele>405.0</ele><time>2026-04-26T07:04:39Z</time></trkpt><trkpt lat="37.91895552300596" lon="15.106600939975793"><ele>412.0</ele><time>2026-04-26T07:04:40Z</time></trkpt><trkpt lat="37.91915511128054" lon="15.106537127333613"><ele>419.0</ele><time>2026-04-26T07:04:41Z</time></trkpt><trkpt lat="37.919363167187676" lon="15.106460384650669"><ele>426.0</ele><time>2026-04-26T07:04:42Z</time></trkpt><trkpt lat="37.91958437664388" lon="15.106386731625571"><ele>428.0</ele><time>2026-04-26T07:04:43Z</time></trkpt><trkpt lat="37.91982478539714" lon="15.106335565852827"><ele>430.0</ele><time>2026-04-26T07:04:44Z</time></trkpt><trkpt lat="37.920046298919594" lon="15.106306974207184"><ele>431.6666666666667</ele><time>2026-04-26T07:04:45Z</time></trkpt><trkpt lat="37.92024026884771" lon="15.10630605233279"><ele>433.33333333333337</ele><time>2026-04-26T07:04:46Z</time></trkpt><trkpt lat="37.92044127602614" lon="15.106316518192255"><ele>435.0</ele><time>2026-04-26T07:04:47Z</time></trkpt><trkpt lat="37.920636777374845" lon="15.106378086850665"><ele>435.0</ele><time>2026-04-26T07:04:48Z</time></trkpt><trkpt lat="37.92082483549069" lon="15.106443889538998"><ele>435.0</ele><time>2026-04-26T07:04:49Z</time></trkpt><trkpt lat="37.92099911176469" lon="15.106512359336776"><ele>435.0</ele><time>2026-04-26T07:04:50Z</time></trkpt><trkpt lat="37.92113235876455" lon="15.106587080256789"><ele>434.0</ele><time>2026-04-26T07:04:51Z</time></trkpt><trkpt lat="37.921243675095766" lon="15.10666083329072"><ele>433.0</ele><time>2026-04-26T07:04:52Z</time></trkpt><trkpt lat="37.92133216119897" lon="15.10677015695782"><ele>432.0</ele><time>2026-04-26T07:04:53Z</time></trkpt><trkpt lat="37.92138967202078" lon="15.106916620489166"><ele>431.0</ele><time>2026-04-26T07:04:54Z</time></trkpt><trkpt lat="37.92141585069817" lon="15.107090815468363"><ele>431.0</ele><time>2026-04-26T07:04:55Z</time></trkpt><trkpt lat="37.921418623246545" lon="15.107244115751273"><ele>431.0</ele><time>2026-04-26T07:04:56Z</time></trkpt><trkpt lat="37.921440395314846" lon="15.107366467823201"><ele>431.0</ele><time>2026-04-26T07:04:57Z</time></trkpt><trkpt lat="37.92150714915231" lon="15.107459182496964"><ele>431.0</ele><time>2026-04-26T07:04:58Z</time></trkpt><trkpt lat="37.92159351480676" lon="15.10750350663021"><ele>431.0</ele><time>2026-04-26T07:04:59Z</time></trkpt><trkpt lat="37.921709580017584" lon="15.107491936006033"><ele>426.0</ele><time>2026-04-26T07:05:00Z</time></trkpt><trkpt lat="37.92184316704363" lon="15.107440618068365"><ele>421.0</ele><time>2026-04-26T07:05:01Z</time></trkpt><trkpt lat="37.92198718903982" lon="15.107381856800057"><ele>416.0</ele><time>2026-04-26T07:05:02Z</time></trkpt><trkpt lat="37.92214205469405" lon="15.107327013760424"><ele>423.5</ele><time>2026-04-26T07:05:03Z</time></trkpt><trkpt lat="37.92229608765483" lon="15.107282141037844"><ele>431.0</ele><time>2026-04-26T07:05:04Z</time></trkpt><trkpt lat="37.92244583263533" lon="15.107241332132773"><ele>438.5</ele><time>2026-04-26T07:05:05Z</time></trkpt><trkpt lat="37.92258328195078" lon="15.107238148330701"><ele>446.0</ele><time>2026-04-26T07:05:06Z</time></trkpt><trkpt lat="37.92270867814878" lon="15.107277201344246"><ele>450.0</ele><time>2026-04-26T07:05:07Z</time></trkpt><trkpt lat="37.922838447078064" lon="15.107345457174437"><ele>454.0</ele><time>2026-04-26T07:05:08Z</time></trkpt><trkpt lat="37.92296085716495" lon="15.107462599535516"><ele>458.0</ele><time>2026-04-26T07:05:09Z</time></trkpt><trkpt lat="37.92308276130503" lon="15.10760145952468"><ele>457.66666666666663</ele><time>2026-04-26T07:05:10Z</time></trkpt><trkpt lat="37.92322095906611" lon="15.107739760095102"><ele>457.33333333333337</ele><time>2026-04-26T07:05:11Z</time></trkpt><trkpt lat="37.92336234248137" lon="15.10790916176976"><ele>457.0</ele><time>2026-04-26T07:05:12Z</time></trkpt><trkpt lat="37.92349495661161" lon="15.108113900355772"><ele>450.0</ele><time>2026-04-26T07:05:13Z</time></trkpt><trkpt lat="37.9236409343855" lon="15.10831425026967"><ele>443.0</ele><time>2026-04-26T07:05:14Z</time></trkpt><trkpt lat="37.923778811687015" lon="15.108464943904838"><ele>436.0</ele><time>2026-04-26T07:05:15Z</time></trkpt><trkpt lat="37.923896704087504" lon="15.108598454343298"><ele>436.0</ele><time>2026-04-26T07:05:16Z</time></trkpt><trkpt lat="37.92400278729491" lon="15.10872440587295"><ele>436.0</ele><time>2026-04-26T07:05:17Z</time></trkpt><trkpt lat="37.92409322714047" lon="15.108817648427355"><ele>436.0</ele><time>2026-04-26T07:05:18Z</time></trkpt><trkpt lat="37.92418687053304" lon="15.10887232646481"><ele>436.0</ele><time>2026-04-26T07:05:19Z</time></trkpt><trkpt lat="37.92428083943549" lon="15.108868217452432"><ele>439.0</ele><time>2026-04-26T07:05:20Z</time></trkpt><trkpt lat="37.92437331609805" lon="15.108814327413329"><ele>442.0</ele><time>2026-04-26T07:05:21Z</time></trkpt><trkpt lat="37.924464739388185" lon="15.10871046386547"><ele>445.0</ele><time>2026-04-26T07:05:22Z</time></trkpt><trkpt lat="37.92456799005298" lon="15.108604521605555"><ele>448.0</ele><time>2026-04-26T07:05:23Z</time></trkpt><trkpt lat="37.92469702959839" lon="15.108541522476013"><ele>448.0</ele><time>2026-04-26T07:05:24Z</time></trkpt><trkpt lat="37.92484222786459" lon="15.108542643976008"><ele>448.0</ele><time>2026-04-26T07:05:25Z</time></trkpt><trkpt lat="37.92498755193652" lon="15.10858697556924"><ele>448.0</ele><time>2026-04-26T07:05:26Z</time></trkpt><trkpt lat="37.92514615728536" lon="15.108637346404102"><ele>450.6666666666667</ele><time>2026-04-26T07:05:27Z</time></trkpt><trkpt lat="37.925317247141955" lon="15.108640110140353"><ele>453.33333333333337</ele><time>2026-04-26T07:05:28Z</time></trkpt><trkpt lat="37.925489671403525" lon="15.108610583901264"><ele>456.0</ele><time>2026-04-26T07:05:29Z</time></trkpt><trkpt lat="37.925618429258186" lon="15.108587760235453"><ele>456.0</ele><time>2026-04-26T07:05:30Z</time></trkpt><trkpt lat="37.92570952458838" lon="15.108597565289784"><ele>456.0</ele><time>2026-04-26T07:05:31Z</time></trkpt><trkpt lat="37.92578593399155" lon="15.108636336203475"><ele>456.0</ele><time>2026-04-26T07:05:32Z</time></trkpt><trkpt lat="37.925842178575806" lon="15.108701496714042"><ele>456.0</ele><time>2026-04-26T07:05:33Z</time></trkpt><trkpt lat="37.92588135401019" lon="15.108795164763057"><ele>456.0</ele><time>2026-04-26T07:05:34Z</time></trkpt><trkpt lat="37.925898569008574" lon="15.10893222020066"><ele>456.0</ele><time>2026-04-26T07:05:35Z</time></trkpt><trkpt lat="37.92591085634873" lon="15.10908344822117"><ele>450.25</ele><time>2026-04-26T07:05:36Z</time></trkpt><trkpt lat="37.92593160270264" lon="15.109260303806506"><ele>444.5</ele><time>2026-04-26T07:05:37Z</time></trkpt><trkpt lat="37.92595095787072" lon="15.109443814692895"><ele>438.75</ele><time>2026-04-26T07:05:38Z</time></trkpt><trkpt lat="37.925970890721295" lon="15.109614906413778"><ele>433.0</ele><time>2026-04-26T07:05:39Z</time></trkpt><trkpt lat="37.92599264646158" lon="15.109748234373253"><ele>433.0</ele><time>2026-04-26T07:05:40Z</time></trkpt><trkpt lat="37.92604183249772" lon="15.10984115209508"><ele>432.99999999999994</ele><time>2026-04-26T07:05:41Z</time></trkpt><trkpt lat="37.926126188334855" lon="15.10988285319621"><ele>432.99999999999994</ele><time>2026-04-26T07:05:42Z</time></trkpt><trkpt lat="37.92623847946735" lon="15.109875606149384"><ele>433.0</ele><time>2026-04-26T07:05:43Z</time></trkpt><trkpt lat="37.92636633259305" lon="15.10984955838057"><ele>433.0</ele><time>2026-04-26T07:05:44Z</time></trkpt><trkpt lat="37.92650735275576" lon="15.109866396274747"><ele>433.0</ele><time>2026-04-26T07:05:45Z</time></trkpt><trkpt lat="37.92667898814644" lon="15.109901918704793"><ele>433.0</ele><time>2026-04-26T07:05:46Z</time></trkpt><trkpt lat="37.92687562060038" lon="15.109935824613375"><ele>433.0</ele><time>2026-04-26T07:05:47Z</time></trkpt><trkpt lat="37.92708752498412" lon="15.109973103833354"><ele>437.0</ele><time>2026-04-26T07:05:48Z</time></trkpt><trkpt lat="37.9273075430269" lon="15.110020166889266"><ele>441.0</ele><time>2026-04-26T07:05:49Z</time></trkpt><trkpt lat="37.927532297725215" lon="15.11009073594513"><ele>439.0</ele><time>2026-04-26T07:05:50Z</time></trkpt><trkpt lat="37.927753038190545" lon="15.11018918974946"><ele>437.0</ele><time>2026-04-26T07:05:51Z</time></trkpt><trkpt lat="37.927973089643324" lon="15.11030058739914"><ele>437.0</ele><time>2026-04-26T07:05:52Z</time></trkpt><trkpt lat="37.928193568943726" lon="15.110396223020132"><ele>437.0</ele><time>2026-04-26T07:05:53Z</time></trkpt><trkpt lat="37.92839880291715" lon="15.110481861006042"><ele>437.0</ele><time>2026-04-26T07:05:54Z</time></trkpt><trkpt lat="37.928582102078146" lon="15.110562104385032"><ele>438.66666666666663</ele><time>2026-04-26T07:05:55Z</time></trkpt><trkpt lat="37.92875451564076" lon="15.11062639446884"><ele>440.33333333333337</ele><time>2026-04-26T07:05:56Z</time></trkpt><trkpt lat="37.92892176286557" lon="15.110654774608879"><ele>442.0</ele><time>2026-04-26T07:05:57Z</time></trkpt><trkpt lat="37.92907459329323" lon="15.110655449750924"><ele>442.0</ele><time>2026-04-26T07:05:58Z</time></trkpt><trkpt lat="37.929216656064156" lon="15.110609184166128"><ele>442.0</ele><time>2026-04-26T07:05:59Z</time></trkpt><trkpt lat="37.92936565528252" lon="15.110515779284151"><ele>442.0</ele><time>2026-04-26T07:06:00Z</time></trkpt><trkpt lat="37.92951898998723" lon="15.11041718073966"><ele>443.75</ele><time>2026-04-26T07:06:01Z</time></trkpt><trkpt lat="37.92966268720061" lon="15.110321685845271"><ele>445.5</ele><time>2026-04-26T07:06:02Z</time></trkpt><trkpt lat="37.92979314631793" lon="15.11026122495751"><ele>447.25</ele><time>2026-04-26T07:06:03Z</time></trkpt><trkpt lat="37.929918685406996" lon="15.110237410519648"><ele>449.0</ele><time>2026-04-26T07:06:04Z</time></trkpt><trkpt lat="37.9300348654652" lon="15.110248698116889"><ele>450.25</ele><time>2026-04-26T07:06:05Z</time></trkpt><trkpt lat="37.93015290595217" lon="15.110294303344395"><ele>451.5</ele><time>2026-04-26T07:06:06Z</time></trkpt><trkpt lat="37.9302700450151" lon="15.110374318429372"><ele>452.75</ele><time>2026-04-26T07:06:07Z</time></trkpt><trkpt lat="37.93036901344779" lon="15.110483811273179"><ele>454.0</ele><time>2026-04-26T07:06:08Z</time></trkpt><trkpt lat="37.93045205067085" lon="15.110619799051554"><ele>454.33333333333337</ele><time>2026-04-26T07:06:09Z</time></trkpt><trkpt lat="37.93050475041777" lon="15.110800261833408"><ele>454.66666666666663</ele><time>2026-04-26T07:06:10Z</time></trkpt><trkpt lat="37.930587770703866" lon="15.111012110510012"><ele>455.0</ele><time>2026-04-26T07:06:11Z</time></trkpt><trkpt lat="37.930675719374676" lon="15.111204827584622"><ele>455.0</ele><time>2026-04-26T07:06:12Z</time></trkpt><trkpt lat="37.930768556098855" lon="15.111407441534377"><ele>455.0</ele><time>2026-04-26T07:06:13Z</time></trkpt><trkpt lat="37.93084926512264" lon="15.11158494257289"><ele>455.0</ele><time>2026-04-26T07:06:14Z</time></trkpt><trkpt lat="37.9309202567138" lon="15.111748596598032"><ele>456.0</ele><time>2026-04-26T07:06:15Z</time></trkpt><trkpt lat="37.93099885504141" lon="15.111877983275711"><ele>457.0</ele><time>2026-04-26T07:06:16Z</time></trkpt><trkpt lat="37.93110177591934" lon="15.11197074373728"><ele>458.0</ele><time>2026-04-26T07:06:17Z</time></trkpt><trkpt lat="37.93123049530846" lon="15.11202136851294"><ele>459.0</ele><time>2026-04-26T07:06:18Z</time></trkpt><trkpt lat="37.93136850834273" lon="15.112034733410937"><ele>459.0</ele><time>2026-04-26T07:06:19Z</time></trkpt><trkpt lat="37.93150446916069" lon="15.112081962262398"><ele>459.0</ele><time>2026-04-26T07:06:20Z</time></trkpt><trkpt lat="37.93162356327477" lon="15.112164905496277"><ele>459.0</ele><time>2026-04-26T07:06:21Z</time></trkpt><trkpt lat="37.93173826926487" lon="15.112220517433807"><ele>459.0</ele><time>2026-04-26T07:06:22Z</time></trkpt><trkpt lat="37.93187248149216" lon="15.112253773990941"><ele>462.25</ele><time>2026-04-26T07:06:23Z</time></trkpt><trkpt lat="37.93198549783978" lon="15.112255202328022"><ele>465.5</ele><time>2026-04-26T07:06:24Z</time></trkpt><trkpt lat="37.932159823780026" lon="15.112159378612066"><ele>468.75</ele><time>2026-04-26T07:06:25Z</time></trkpt><trkpt lat="37.9322677231783" lon="15.112074549901028"><ele>472.0</ele><time>2026-04-26T07:06:26Z</time></trkpt><trkpt lat="37.93235191762741" lon="15.111959256022136"><ele>472.0</ele><time>2026-04-26T07:06:27Z</time></trkpt><trkpt lat="37.93240587968456" lon="15.111809890720783"><ele>472.0</ele><time>2026-04-26T07:06:28Z</time></trkpt><trkpt lat="37.93242970655964" lon="15.111636634826038"><ele>472.0</ele><time>2026-04-26T07:06:29Z</time></trkpt><trkpt lat="37.932399417875665" lon="15.111479649410242"><ele>472.0</ele><time>2026-04-26T07:06:30Z</time></trkpt><trkpt lat="37.93239266684228" lon="15.11137383587382"><ele>470.5</ele><time>2026-04-26T07:06:31Z</time></trkpt><trkpt lat="37.93240765455915" lon="15.111232048778238"><ele>469.0</ele><time>2026-04-26T07:06:32Z</time></trkpt><trkpt lat="37.932474447933444" lon="15.111100143859627"><ele>467.5</ele><time>2026-04-26T07:06:33Z</time></trkpt><trkpt lat="37.93257266990191" lon="15.110999805057935"><ele>466.0</ele><time>2026-04-26T07:06:34Z</time></trkpt><trkpt lat="37.93269022352815" lon="15.110953099065796"><ele>466.0</ele><time>2026-04-26T07:06:35Z</time></trkpt><trkpt lat="37.93281525507812" lon="15.110957699162022"><ele>466.0</ele><time>2026-04-26T07:06:36Z</time></trkpt><trkpt lat="37.932929786656686" lon="15.11100319375313"><ele>466.0</ele><time>2026-04-26T07:06:37Z</time></trkpt><trkpt lat="37.93303548323011" lon="15.11104358922174"><ele>466.0</ele><time>2026-04-26T07:06:38Z</time></trkpt><trkpt lat="37.93312928354922" lon="15.111047931029853"><ele>466.0</ele><time>2026-04-26T07:06:39Z</time></trkpt><trkpt lat="37.93321062543658" lon="15.111003447185016"><ele>466.0</ele><time>2026-04-26T07:06:40Z</time></trkpt><trkpt lat="37.933281035049866" lon="15.110917026228051"><ele>466.0</ele><time>2026-04-26T07:06:41Z</time></trkpt><trkpt lat="37.93333716091948" lon="15.11078160741666"><ele>466.0</ele><time>2026-04-26T07:06:42Z</time></trkpt><trkpt lat="37.93340169890737" lon="15.110606524658442"><ele>466.0</ele><time>2026-04-26T07:06:43Z</time></trkpt><trkpt lat="37.93349331656324" lon="15.110418537589652"><ele>467.25</ele><time>2026-04-26T07:06:44Z</time></trkpt><trkpt lat="37.93358494509349" lon="15.11027010904313"><ele>468.5</ele><time>2026-04-26T07:06:45Z</time></trkpt><trkpt lat="37.933685807299725" lon="15.110176588120673"><ele>469.75</ele><time>2026-04-26T07:06:46Z</time></trkpt><trkpt lat="37.93379379539672" lon="15.110146724290148"><ele>471.0</ele><time>2026-04-26T07:06:47Z</time></trkpt><trkpt lat="37.93391121551173" lon="15.110174962584509"><ele>471.0</ele><time>2026-04-26T07:06:48Z</time></trkpt><trkpt lat="37.934055048839134" lon="15.110232634624287"><ele>471.0</ele><time>2026-04-26T07:06:49Z</time></trkpt><trkpt lat="37.934218391362066" lon="15.110299197931536"><ele>471.0</ele><time>2026-04-26T07:06:50Z</time></trkpt><trkpt lat="37.9344118301204" lon="15.110357109821749"><ele>477.0</ele><time>2026-04-26T07:06:51Z</time></trkpt><trkpt lat="37.93461672242616" lon="15.110422644797293"><ele>483.0</ele><time>2026-04-26T07:06:52Z</time></trkpt><trkpt lat="37.934827102082416" lon="15.110487943739916"><ele>489.0</ele><time>2026-04-26T07:06:53Z</time></trkpt><trkpt lat="37.935031615810466" lon="15.11055538550478"><ele>493.33333333333337</ele><time>2026-04-26T07:06:54Z</time></trkpt><trkpt lat="37.93521972218322" lon="15.110614424170505"><ele>497.6666666666667</ele><time>2026-04-26T07:06:55Z</time></trkpt><trkpt lat="37.93538568155109" lon="15.11066875583407"><ele>502.0</ele><time>2026-04-26T07:06:56Z</time></trkpt><trkpt lat="37.935554504405744" lon="15.110709544504635"><ele>502.0</ele><time>2026-04-26T07:06:57Z</time></trkpt><trkpt lat="37.935727461882266" lon="15.110722308479067"><ele>502.0</ele><time>2026-04-26T07:06:58Z</time></trkpt><trkpt lat="37.93589901270689" lon="15.110688613173519"><ele>502.0</ele><time>2026-04-26T07:06:59Z</time></trkpt><trkpt lat="37.93604249126236" lon="15.11061490489387"><ele>496.5</ele><time>2026-04-26T07:07:00Z</time></trkpt><trkpt lat="37.93615882155212" lon="15.110573434107451"><ele>491.0</ele><time>2026-04-26T07:07:01Z</time></trkpt><trkpt lat="37.93626992232433" lon="15.11058838042348"><ele>485.5</ele><time>2026-04-26T07:07:02Z</time></trkpt><trkpt lat="37.93637611569044" lon="15.110661537121631"><ele>480.0</ele><time>2026-04-26T07:07:03Z</time></trkpt><trkpt lat="37.93646954607616" lon="15.110800703937304"><ele>478.66666666666663</ele><time>2026-04-26T07:07:04Z</time></trkpt><trkpt lat="37.9365612104039" lon="15.11095980244135"><ele>477.3333333333333</ele><time>2026-04-26T07:07:05Z</time></trkpt><trkpt lat="37.93666344795701" lon="15.111110037219355"><ele>476.0</ele><time>2026-04-26T07:07:06Z</time></trkpt><trkpt lat="37.93676746331121" lon="15.111243039079875"><ele>478.25</ele><time>2026-04-26T07:07:07Z</time></trkpt><trkpt lat="37.93685802205945" lon="15.111337441205047"><ele>480.5</ele><time>2026-04-26T07:07:08Z</time></trkpt><trkpt lat="37.93695610256793" lon="15.111388113953108"><ele>482.75</ele><time>2026-04-26T07:07:09Z</time></trkpt><trkpt lat="37.93706543922813" lon="15.111397436158061"><ele>485.0</ele><time>2026-04-26T07:07:10Z</time></trkpt><trkpt lat="37.9371794107141" lon="15.111341150173724"><ele>485.0</ele><time>2026-04-26T07:07:11Z</time></trkpt><trkpt lat="37.937281453091636" lon="15.11122134695826"><ele>485.0</ele><time>2026-04-26T07:07:12Z</time></trkpt><trkpt lat="37.937378852744736" lon="15.111076175440802"><ele>485.0</ele><time>2026-04-26T07:07:13Z</time></trkpt><trkpt lat="37.937493190754" lon="15.110921818045597"><ele>488.66666666666663</ele><time>2026-04-26T07:07:14Z</time></trkpt><trkpt lat="37.93762690188664" lon="15.110759287289977"><ele>492.33333333333337</ele><time>2026-04-26T07:07:15Z</time></trkpt><trkpt lat="37.93777270560747" lon="15.110590491794072"><ele>496.0</ele><time>2026-04-26T07:07:16Z</time></trkpt><trkpt lat="37.93792397286753" lon="15.11040827841811"><ele>496.0</ele><time>2026-04-26T07:07:17Z</time></trkpt><trkpt lat="37.93806409843088" lon="15.110218603415404"><ele>496.0</ele><time>2026-04-26T07:07:18Z</time></trkpt><trkpt lat="37.938179211936315" lon="15.109998000501008"><ele>496.0</ele><time>2026-04-26T07:07:19Z</time></trkpt><trkpt lat="37.938300766081845" lon="15.109714906438212"><ele>499.0</ele><time>2026-04-26T07:07:20Z</time></trkpt><trkpt lat="37.93843400517257" lon="15.10940091834125"><ele>502.0</ele><time>2026-04-26T07:07:21Z</time></trkpt><trkpt lat="37.93860157755753" lon="15.109071532747903"><ele>502.0</ele><time>2026-04-26T07:07:22Z</time></trkpt><trkpt lat="37.93875574470096" lon="15.108731459467176"><ele>502.0</ele><time>2026-04-26T07:07:23Z</time></trkpt><trkpt lat="37.93889742551803" lon="15.108418929298955"><ele>498.5</ele><time>2026-04-26T07:07:24Z</time></trkpt><trkpt lat="37.939029899193386" lon="15.108127386985203"><ele>495.0</ele><time>2026-04-26T07:07:25Z</time></trkpt><trkpt lat="37.93914593076299" lon="15.107833550059542"><ele>499.5</ele><time>2026-04-26T07:07:26Z</time></trkpt><trkpt lat="37.939277054963725" lon="15.107574828703422"><ele>504.0</ele><time>2026-04-26T07:07:27Z</time></trkpt><trkpt lat="37.939429500903714" lon="15.107355797806381"><ele>504.0</ele><time>2026-04-26T07:07:28Z</time></trkpt><trkpt lat="37.93957107738215" lon="15.107134394903564"><ele>504.0</ele><time>2026-04-26T07:07:29Z</time></trkpt><trkpt lat="37.939710106351896" lon="15.106899962310095"><ele>504.0</ele><time>2026-04-26T07:07:30Z</time></trkpt><trkpt lat="37.93987918918826" lon="15.1067005087638"><ele>504.0</ele><time>2026-04-26T07:07:31Z</time></trkpt><trkpt lat="37.940057412310715" lon="15.106505828775235"><ele>506.33333333333337</ele><time>2026-04-26T07:07:32Z</time></trkpt><trkpt lat="37.94023415508523" lon="15.106335087020266"><ele>508.6666666666667</ele><time>2026-04-26T07:07:33Z</time></trkpt><trkpt lat="37.94038459872531" lon="15.1061862404709"><ele>511.0</ele><time>2026-04-26T07:07:34Z</time></trkpt><trkpt lat="37.94051506184133" lon="15.106061330419116"><ele>511.0</ele><time>2026-04-26T07:07:35Z</time></trkpt><trkpt lat="37.940619924607226" lon="15.105922453228711"><ele>511.0</ele><time>2026-04-26T07:07:36Z</time></trkpt><trkpt lat="37.940705846031726" lon="15.105744652683597"><ele>511.0</ele><time>2026-04-26T07:07:37Z</time></trkpt><trkpt lat="37.94076424359967" lon="15.105547181838672"><ele>510.75</ele><time>2026-04-26T07:07:38Z</time></trkpt><trkpt lat="37.94083539100294" lon="15.105367796760346"><ele>510.5</ele><time>2026-04-26T07:07:39Z</time></trkpt><trkpt lat="37.940883921521674" lon="15.105211108851886"><ele>510.25</ele><time>2026-04-26T07:07:40Z</time></trkpt><trkpt lat="37.940925624393174" lon="15.105072832846979"><ele>510.0</ele><time>2026-04-26T07:07:41Z</time></trkpt><trkpt lat="37.940952203309344" lon="15.104947796984375"><ele>512.3333333333334</ele><time>2026-04-26T07:07:42Z</time></trkpt><trkpt lat="37.941018787723785" lon="15.104875454651832"><ele>514.6666666666666</ele><time>2026-04-26T07:07:43Z</time></trkpt><trkpt lat="37.9411006070047" lon="15.104855897395467"><ele>517.0</ele><time>2026-04-26T07:07:44Z</time></trkpt><trkpt lat="37.94117757146196" lon="15.104901750538982"><ele>519.3333333333333</ele><time>2026-04-26T07:07:45Z</time></trkpt><trkpt lat="37.941239720858356" lon="15.104985489767152"><ele>521.6666666666666</ele><time>2026-04-26T07:07:46Z</time></trkpt><trkpt lat="37.941250018919064" lon="15.105112110526001"><ele>524.0</ele><time>2026-04-26T07:07:47Z</time></trkpt><trkpt lat="37.941215690834866" lon="15.105231385106512"><ele>526.25</ele><time>2026-04-26T07:07:48Z</time></trkpt><trkpt lat="37.9411495016756" lon="15.105354727370136"><ele>528.5</ele><time>2026-04-26T07:07:49Z</time></trkpt><trkpt lat="37.94108214646824" lon="15.105502946711699"><ele>530.75</ele><time>2026-04-26T07:07:50Z</time></trkpt><trkpt lat="37.94107413453236" lon="15.105688787341979"><ele>533.0</ele><time>2026-04-26T07:07:51Z</time></trkpt><trkpt lat="37.94109085812387" lon="15.105877733101753"><ele>533.0</ele><time>2026-04-26T07:07:52Z</time></trkpt><trkpt lat="37.941101156018426" lon="15.106049123205972"><ele>533.0</ele><time>2026-04-26T07:07:53Z</time></trkpt><trkpt lat="37.94107215862416" lon="15.106197204501045"><ele>533.0</ele><time>2026-04-26T07:07:54Z</time></trkpt><trkpt lat="37.94100411087356" lon="15.106326498600263"><ele>533.0</ele><time>2026-04-26T07:07:55Z</time></trkpt><trkpt lat="37.94090063046729" lon="15.106429571533953"><ele>528.6666666666666</ele><time>2026-04-26T07:07:56Z</time></trkpt><trkpt lat="37.94081342073067" lon="15.106572288135377"><ele>524.3333333333334</ele><time>2026-04-26T07:07:57Z</time></trkpt><trkpt lat="37.940766075854704" lon="15.10675842711484"><ele>520.0</ele><time>2026-04-26T07:07:58Z</time></trkpt><trkpt lat="37.940740058704826" lon="15.106967411794264"><ele>520.0</ele><time>2026-04-26T07:07:59Z</time></trkpt><trkpt lat="37.94072123614753" lon="15.107187453750493"><ele>520.0</ele><time>2026-04-26T07:08:00Z</time></trkpt><trkpt lat="37.94070439249477" lon="15.107404456333773"><ele>520.0</ele><time>2026-04-26T07:08:01Z</time></trkpt><trkpt lat="37.940693153164084" lon="15.107608328118422"><ele>523.3333333333334</ele><time>2026-04-26T07:08:02Z</time></trkpt><trkpt lat="37.940713039822356" lon="15.107805878688648"><ele>526.6666666666666</ele><time>2026-04-26T07:08:03Z</time></trkpt><trkpt lat="37.9407634524845" lon="15.10799090295697"><ele>530.0</ele><time>2026-04-26T07:08:04Z</time></trkpt><trkpt lat="37.94084835369618" lon="15.108157325259667"><ele>537.25</ele><time>2026-04-26T07:08:05Z</time></trkpt><trkpt lat="37.94095531181216" lon="15.108302265100392"><ele>544.5</ele><time>2026-04-26T07:08:06Z</time></trkpt><trkpt lat="37.94105031673916" lon="15.108429038859603"><ele>551.75</ele><time>2026-04-26T07:08:07Z</time></trkpt><trkpt lat="37.94111434798456" lon="15.108528480322587"><ele>559.0</ele><time>2026-04-26T07:08:08Z</time></trkpt><trkpt lat="37.9411493025803" lon="15.108604611409568"><ele>559.0</ele><time>2026-04-26T07:08:09Z</time></trkpt><trkpt lat="37.941135828984166" lon="15.108753516542752"><ele>559.0</ele><time>2026-04-26T07:08:11Z</time></trkpt><trkpt lat="37.941080929721124" lon="15.108819713170947"><ele>559.0</ele><time>2026-04-26T07:08:12Z</time></trkpt><trkpt lat="37.940986585181" lon="15.108849045923604"><ele>559.0</ele><time>2026-04-26T07:08:13Z</time></trkpt><trkpt lat="37.94088204676177" lon="15.108819821095828"><ele>559.0</ele><time>2026-04-26T07:08:14Z</time></trkpt><trkpt lat="37.94077729568585" lon="15.108806529327468"><ele>552.25</ele><time>2026-04-26T07:08:15Z</time></trkpt><trkpt lat="37.94068506052985" lon="15.108707287511473"><ele>545.5</ele><time>2026-04-26T07:08:16Z</time></trkpt><trkpt lat="37.94058957047656" lon="15.108596864745559"><ele>538.75</ele><time>2026-04-26T07:08:17Z</time></trkpt><trkpt lat="37.94044994331914" lon="15.108557216127878"><ele>532.0</ele><time>2026-04-26T07:08:18Z</time></trkpt><trkpt lat="37.940308306394996" lon="15.108568913717217"><ele>532.0</ele><time>2026-04-26T07:08:19Z</time></trkpt><trkpt lat="37.94019048714392" lon="15.108591312425673"><ele>532.0</ele><time>2026-04-26T07:08:20Z</time></trkpt><trkpt lat="37.940093678642675" lon="15.10862347347573"><ele>532.0</ele><time>2026-04-26T07:08:21Z</time></trkpt><trkpt lat="37.94001616090979" lon="15.108713059699172"><ele>532.0</ele><time>2026-04-26T07:08:22Z</time></trkpt><trkpt lat="37.93997262344796" lon="15.108845519322122"><ele>532.0</ele><time>2026-04-26T07:08:23Z</time></trkpt><trkpt lat="37.93996841257936" lon="15.108995760105007"><ele>533.5</ele><time>2026-04-26T07:08:24Z</time></trkpt><trkpt lat="37.94001400976311" lon="15.109144460742522"><ele>535.0</ele><time>2026-04-26T07:08:25Z</time></trkpt><trkpt lat="37.940065807194976" lon="15.109289970974235"><ele>536.5</ele><time>2026-04-26T07:08:26Z</time></trkpt><trkpt lat="37.94007072267727" lon="15.109448524116896"><ele>538.0</ele><time>2026-04-26T07:08:27Z</time></trkpt><trkpt lat="37.93999763705019" lon="15.109594944158676"><ele>538.0</ele><time>2026-04-26T07:08:28Z</time></trkpt><trkpt lat="37.93991586216924" lon="15.1097469325005"><ele>538.0</ele><time>2026-04-26T07:08:29Z</time></trkpt><trkpt lat="37.93981539496581" lon="15.10988854518515"><ele>538.0</ele><time>2026-04-26T07:08:30Z</time></trkpt><trkpt lat="37.939764094146064" lon="15.110064570514371"><ele>538.0</ele><time>2026-04-26T07:08:31Z</time></trkpt><trkpt lat="37.939760773517236" lon="15.110269481904831"><ele>542.3333333333334</ele><time>2026-04-26T07:08:32Z</time></trkpt><trkpt lat="37.93976460167638" lon="15.110476294330525"><ele>546.6666666666666</ele><time>2026-04-26T07:08:33Z</time></trkpt><trkpt lat="37.939727352854725" lon="15.110680205775125"><ele>551.0</ele><time>2026-04-26T07:08:34Z</time></trkpt><trkpt lat="37.939650878069756" lon="15.110869269389596"><ele>557.0</ele><time>2026-04-26T07:08:35Z</time></trkpt><trkpt lat="37.93955898627311" lon="15.111046881533323"><ele>563.0</ele><time>2026-04-26T07:08:36Z</time></trkpt><trkpt lat="37.939467994451014" lon="15.111213023900465"><ele>569.0</ele><time>2026-04-26T07:08:37Z</time></trkpt><trkpt lat="37.939384114478386" lon="15.111378748171347"><ele>569.0</ele><time>2026-04-26T07:08:38Z</time></trkpt><trkpt lat="37.93929394641932" lon="15.111503915755762"><ele>569.0</ele><time>2026-04-26T07:08:39Z</time></trkpt><trkpt lat="37.93918357617329" lon="15.111564853395658"><ele>569.0</ele><time>2026-04-26T07:08:40Z</time></trkpt><trkpt lat="37.93908503664316" lon="15.111594686126438"><ele>569.0</ele><time>2026-04-26T07:08:41Z</time></trkpt><trkpt lat="37.93898460193225" lon="15.111626862905291"><ele>565.8</ele><time>2026-04-26T07:08:42Z</time></trkpt><trkpt lat="37.938909865096306" lon="15.11169544493537"><ele>562.5999999999999</ele><time>2026-04-26T07:08:43Z</time></trkpt><trkpt lat="37.93887773994707" lon="15.111814105530842"><ele>559.4</ele><time>2026-04-26T07:08:44Z</time></trkpt><trkpt lat="37.93891657566408" lon="15.111942882796557"><ele>556.1999999999999</ele><time>2026-04-26T07:08:45Z</time></trkpt><trkpt lat="37.93899592991641" lon="15.112009007472974"><ele>553.0</ele><time>2026-04-26T07:08:46Z</time></trkpt><trkpt lat="37.939091044721046" lon="15.111993191548557"><ele>553.0</ele><time>2026-04-26T07:08:47Z</time></trkpt><trkpt lat="37.93918485677278" lon="15.111932821460147"><ele>553.0</ele><time>2026-04-26T07:08:48Z</time></trkpt><trkpt lat="37.939277776449366" lon="15.111811354382688"><ele>553.0</ele><time>2026-04-26T07:08:49Z</time></trkpt><trkpt lat="37.939376566460055" lon="15.111688648425643"><ele>553.0</ele><time>2026-04-26T07:08:50Z</time></trkpt><trkpt lat="37.93949594730032" lon="15.111549863749797"><ele>558.3333333333334</ele><time>2026-04-26T07:08:51Z</time></trkpt><trkpt lat="37.93961052271769" lon="15.111401443967843"><ele>563.6666666666666</ele><time>2026-04-26T07:08:52Z</time></trkpt><trkpt lat="37.93971638008722" lon="15.111225375964363"><ele>569.0</ele><time>2026-04-26T07:08:53Z</time></trkpt><trkpt lat="37.93981503582473" lon="15.111040942213958"><ele>569.0</ele><time>2026-04-26T07:08:54Z</time></trkpt><trkpt lat="37.93991525734697" lon="15.110886800689194"><ele>569.0</ele><time>2026-04-26T07:08:55Z</time></trkpt><trkpt lat="37.93997581292819" lon="15.110717969599873"><ele>569.0</ele><time>2026-04-26T07:08:56Z</time></trkpt><trkpt lat="37.940051147716346" lon="15.110562610087273"><ele>569.0</ele><time>2026-04-26T07:08:57Z</time></trkpt><trkpt lat="37.94015876706171" lon="15.110439423000884"><ele>569.6666666666666</ele><time>2026-04-26T07:08:58Z</time></trkpt><trkpt lat="37.940275624898185" lon="15.110332509966602"><ele>570.3333333333334</ele><time>2026-04-26T07:08:59Z</time></trkpt><trkpt lat="37.94042394928822" lon="15.110254796121389"><ele>571.0</ele><time>2026-04-26T07:09:00Z</time></trkpt><trkpt lat="37.94056359153988" lon="15.110187933470106"><ele>571.0</ele><time>2026-04-26T07:09:01Z</time></trkpt><trkpt lat="37.94068220296288" lon="15.110124794504744"><ele>571.0</ele><time>2026-04-26T07:09:02Z</time></trkpt><trkpt lat="37.94078548409399" lon="15.11007442677034"><ele>571.0</ele><time>2026-04-26T07:09:03Z</time></trkpt><trkpt lat="37.94086516889526" lon="15.110047853042659"><ele>571.0</ele><time>2026-04-26T07:09:04Z</time></trkpt><trkpt lat="37.940962590084844" lon="15.110111790749936"><ele>571.0</ele><time>2026-04-26T07:09:06Z</time></trkpt><trkpt lat="37.940951929964115" lon="15.110277420235"><ele>571.0</ele><time>2026-04-26T07:09:08Z</time></trkpt><trkpt lat="37.940896360827786" lon="15.11035098081162"><ele>571.0</ele><time>2026-04-26T07:09:09Z</time></trkpt><trkpt lat="37.9408125228628" lon="15.110366407602358"><ele>571.0</ele><time>2026-04-26T07:09:10Z</time></trkpt><trkpt lat="37.9407138259154" lon="15.110333346400193"><ele>571.0</ele><time>2026-04-26T07:09:11Z</time></trkpt><trkpt lat="37.940615777186544" lon="15.110361632913353"><ele>571.0</ele><time>2026-04-26T07:09:12Z</time></trkpt><trkpt lat="37.94049188707174" lon="15.110408017076617"><ele>571.0</ele><time>2026-04-26T07:09:13Z</time></trkpt><trkpt lat="37.94037037725278" lon="15.110490858434853"><ele>571.0</ele><time>2026-04-26T07:09:14Z</time></trkpt><trkpt lat="37.940259994823606" lon="15.110592198943843"><ele>571.0</ele><time>2026-04-26T07:09:15Z</time></trkpt><trkpt lat="37.940171911893295" lon="15.11072736200693"><ele>571.0</ele><time>2026-04-26T07:09:16Z</time></trkpt><trkpt lat="37.940116156677014" lon="15.110905783638056"><ele>570.3333333333334</ele><time>2026-04-26T07:09:17Z</time></trkpt><trkpt lat="37.94008505721239" lon="15.111115847663418"><ele>569.6666666666666</ele><time>2026-04-26T07:09:18Z</time></trkpt><trkpt lat="37.94006816289605" lon="15.11130897097875"><ele>569.0</ele><time>2026-04-26T07:09:19Z</time></trkpt><trkpt lat="37.94002256642265" lon="15.11149693982558"><ele>574.0</ele><time>2026-04-26T07:09:20Z</time></trkpt><trkpt lat="37.93993628456192" lon="15.111675428986533"><ele>579.0</ele><time>2026-04-26T07:09:21Z</time></trkpt><trkpt lat="37.93982182869864" lon="15.111840281722344"><ele>584.0</ele><time>2026-04-26T07:09:22Z</time></trkpt><trkpt lat="37.939704511777904" lon="15.111998761701024"><ele>584.0</ele><time>2026-04-26T07:09:23Z</time></trkpt><trkpt lat="37.93960962886274" lon="15.112145083699893"><ele>584.0</ele><time>2026-04-26T07:09:24Z</time></trkpt><trkpt lat="37.93954539977967" lon="15.112277253437485"><ele>584.0</ele><time>2026-04-26T07:09:25Z</time></trkpt><trkpt lat="37.93951902976534" lon="15.11242041912559"><ele>584.0</ele><time>2026-04-26T07:09:26Z</time></trkpt><trkpt lat="37.93953643575288" lon="15.112574532854094"><ele>587.5</ele><time>2026-04-26T07:09:27Z</time></trkpt><trkpt lat="37.93960043249942" lon="15.112722983353065"><ele>591.0</ele><time>2026-04-26T07:09:28Z</time></trkpt><trkpt lat="37.93970564556778" lon="15.112853956863262"><ele>594.5</ele><time>2026-04-26T07:09:29Z</time></trkpt><trkpt lat="37.9398315481008" lon="15.112975199504357"><ele>598.0</ele><time>2026-04-26T07:09:30Z</time></trkpt><trkpt lat="37.93992641934683" lon="15.113133609800862"><ele>594.0</ele><time>2026-04-26T07:09:31Z</time></trkpt><trkpt lat="37.93994283848049" lon="15.113360241315082"><ele>590.0</ele><time>2026-04-26T07:09:32Z</time></trkpt><trkpt lat="37.940037700303044" lon="15.113562945011854"><ele>586.0</ele><time>2026-04-26T07:09:33Z</time></trkpt><trkpt lat="37.94017397190365" lon="15.113757062188702"><ele>596.0</ele><time>2026-04-26T07:09:34Z</time></trkpt><trkpt lat="37.940329057951345" lon="15.11395423003539"><ele>606.0</ele><time>2026-04-26T07:09:35Z</time></trkpt><trkpt lat="37.94042958621045" lon="15.11420390814778"><ele>616.0</ele><time>2026-04-26T07:09:36Z</time></trkpt><trkpt lat="37.940530750095164" lon="15.114474655697821"><ele>616.0</ele><time>2026-04-26T07:09:37Z</time></trkpt><trkpt lat="37.94060698450839" lon="15.114746175612465"><ele>616.0</ele><time>2026-04-26T07:09:38Z</time></trkpt><trkpt lat="37.94067816279805" lon="15.11497349003764"><ele>616.0</ele><time>2026-04-26T07:09:39Z</time></trkpt><trkpt lat="37.94074401164491" lon="15.115172204982638"><ele>613.0</ele><time>2026-04-26T07:09:40Z</time></trkpt><trkpt lat="37.94080494114426" lon="15.115349596440028"><ele>610.0</ele><time>2026-04-26T07:09:41Z</time></trkpt><trkpt lat="37.94085613513248" lon="15.115509044639888"><ele>607.0</ele><time>2026-04-26T07:09:42Z</time></trkpt><trkpt lat="37.940915562966644" lon="15.115632907920151"><ele>604.0</ele><time>2026-04-26T07:09:43Z</time></trkpt><trkpt lat="37.94100966644129" lon="15.115724714327552"><ele>604.25</ele><time>2026-04-26T07:09:44Z</time></trkpt><trkpt lat="37.941147608646794" lon="15.115766896251905"><ele>604.5</ele><time>2026-04-26T07:09:45Z</time></trkpt><trkpt lat="37.94128930591797" lon="15.115805533787833"><ele>604.75</ele><time>2026-04-26T07:09:46Z</time></trkpt><trkpt lat="37.94142311102221" lon="15.115835709791073"><ele>605.0</ele><time>2026-04-26T07:09:47Z</time></trkpt><trkpt lat="37.9415553685243" lon="15.115818034327646"><ele>615.6666666666666</ele><time>2026-04-26T07:09:48Z</time></trkpt><trkpt lat="37.941698592527004" lon="15.115735296001553"><ele>626.3333333333334</ele><time>2026-04-26T07:09:49Z</time></trkpt><trkpt lat="37.94184716379071" lon="15.115679668474927"><ele>637.0</ele><time>2026-04-26T07:09:50Z</time></trkpt><trkpt lat="37.94199775954251" lon="15.115695961741382"><ele>640.75</ele><time>2026-04-26T07:09:51Z</time></trkpt><trkpt lat="37.94212660333646" lon="15.11570682546089"><ele>644.5</ele><time>2026-04-26T07:09:52Z</time></trkpt><trkpt lat="37.94224228825762" lon="15.115777184981287"><ele>648.25</ele><time>2026-04-26T07:09:53Z</time></trkpt><trkpt lat="37.94233879724106" lon="15.115893950595318"><ele>652.0</ele><time>2026-04-26T07:09:54Z</time></trkpt><trkpt lat="37.94243985129268" lon="15.116013186143043"><ele>644.0</ele><time>2026-04-26T07:09:55Z</time></trkpt><trkpt lat="37.942576066824266" lon="15.116071984355507"><ele>636.0</ele><time>2026-04-26T07:09:56Z</time></trkpt><trkpt lat="37.94272989221848" lon="15.11608086424648"><ele>628.0</ele><time>2026-04-26T07:09:57Z</time></trkpt><trkpt lat="37.94288926411499" lon="15.116055890421336"><ele>628.0</ele><time>2026-04-26T07:09:58Z</time></trkpt><trkpt lat="37.94304857683821" lon="15.115995125639891"><ele>628.0</ele><time>2026-04-26T07:09:59Z</time></trkpt><trkpt lat="37.943217180179616" lon="15.115968706036023"><ele>628.0</ele><time>2026-04-26T07:10:00Z</time></trkpt><trkpt lat="37.94339385754019" lon="15.11596638460239"><ele>635.0</ele><time>2026-04-26T07:10:01Z</time></trkpt><trkpt lat="37.94356580460345" lon="15.116058872955954"><ele>642.0</ele><time>2026-04-26T07:10:02Z</time></trkpt><trkpt lat="37.9437495669562" lon="15.116121890157567"><ele>649.0</ele><time>2026-04-26T07:10:03Z</time></trkpt><trkpt lat="37.943906123834886" lon="15.116247559445325"><ele>649.0</ele><time>2026-04-26T07:10:04Z</time></trkpt><trkpt lat="37.94404735923574" lon="15.116401790827943"><ele>649.0</ele><time>2026-04-26T07:10:05Z</time></trkpt><trkpt lat="37.94416313917705" lon="15.116595587749304"><ele>649.0</ele><time>2026-04-26T07:10:06Z</time></trkpt><trkpt lat="37.944287823082284" lon="15.116688748549112"><ele>648.5</ele><time>2026-04-26T07:10:07Z</time></trkpt><trkpt lat="37.944460364286" lon="15.11665026615982"><ele>648.0</ele><time>2026-04-26T07:10:08Z</time></trkpt><trkpt lat="37.94454298380575" lon="15.116715655042045"><ele>647.5</ele><time>2026-04-26T07:10:09Z</time></trkpt><trkpt lat="37.94458704716605" lon="15.11681385602382"><ele>647.0</ele><time>2026-04-26T07:10:10Z</time></trkpt><trkpt lat="37.94458764627371" lon="15.116938335955425"><ele>647.0</ele><time>2026-04-26T07:10:11Z</time></trkpt><trkpt lat="37.944560999294914" lon="15.117074541902534"><ele>647.0</ele><time>2026-04-26T07:10:12Z</time></trkpt><trkpt lat="37.94449769464744" lon="15.11721334736404"><ele>647.0</ele><time>2026-04-26T07:10:13Z</time></trkpt><trkpt lat="37.944382097004734" lon="15.117335424430541"><ele>647.0</ele><time>2026-04-26T07:10:14Z</time></trkpt><trkpt lat="37.94423807717926" lon="15.117440423651171"><ele>640.0</ele><time>2026-04-26T07:10:15Z</time></trkpt><trkpt lat="37.94409260406216" lon="15.117561898007475"><ele>633.0</ele><time>2026-04-26T07:10:16Z</time></trkpt><trkpt lat="37.94393863193862" lon="15.117703597696146"><ele>626.0</ele><time>2026-04-26T07:10:17Z</time></trkpt><trkpt lat="37.94378515779681" lon="15.11785437352697"><ele>626.0</ele><time>2026-04-26T07:10:18Z</time></trkpt><trkpt lat="37.94363339910934" lon="15.118001859783748"><ele>626.0</ele><time>2026-04-26T07:10:19Z</time></trkpt><trkpt lat="37.94350022739717" lon="15.118127794418962"><ele>626.0</ele><time>2026-04-26T07:10:20Z</time></trkpt><trkpt lat="37.94338139391748" lon="15.118229433042796"><ele>625.2</ele><time>2026-04-26T07:10:21Z</time></trkpt><trkpt lat="37.94327516587072" lon="15.118314585984365"><ele>624.4000000000001</ele><time>2026-04-26T07:10:22Z</time></trkpt><trkpt lat="37.943197780045416" lon="15.118392227411496"><ele>623.6</ele><time>2026-04-26T07:10:23Z</time></trkpt><trkpt lat="37.943173636318555" lon="15.118500341451382"><ele>622.8000000000001</ele><time>2026-04-26T07:10:24Z</time></trkpt><trkpt lat="37.94319743415039" lon="15.11863610496324"><ele>622.0</ele><time>2026-04-26T07:10:25Z</time></trkpt><trkpt lat="37.94326656774715" lon="15.118755929532018"><ele>622.0</ele><time>2026-04-26T07:10:26Z</time></trkpt><trkpt lat="37.943357324077304" lon="15.118824094032794"><ele>622.0</ele><time>2026-04-26T07:10:27Z</time></trkpt><trkpt lat="37.94346492552114" lon="15.11882986212144"><ele>622.0</ele><time>2026-04-26T07:10:28Z</time></trkpt><trkpt lat="37.94359401273618" lon="15.118810999887831"><ele>622.0</ele><time>2026-04-26T07:10:29Z</time></trkpt><trkpt lat="37.943739485451786" lon="15.118839052192607"><ele>628.5</ele><time>2026-04-26T07:10:30Z</time></trkpt><trkpt lat="37.94385474336354" lon="15.118946196394095"><ele>635.0</ele><time>2026-04-26T07:10:31Z</time></trkpt><trkpt lat="37.94394617647416" lon="15.119091594720137"><ele>641.5</ele><time>2026-04-26T07:10:32Z</time></trkpt><trkpt lat="37.94405930856646" lon="15.119201180027435"><ele>648.0</ele><time>2026-04-26T07:10:33Z</time></trkpt><trkpt lat="37.94419708855219" lon="15.119219862387547"><ele>653.5999999999999</ele><time>2026-04-26T07:10:34Z</time></trkpt><trkpt lat="37.94433157721389" lon="15.119197385413777"><ele>659.1999999999999</ele><time>2026-04-26T07:10:35Z</time></trkpt><trkpt lat="37.94443810200711" lon="15.119204725446094"><ele>664.8</ele><time>2026-04-26T07:10:36Z</time></trkpt><trkpt lat="37.94450543986097" lon="15.119245804056604"><ele>670.4</ele><time>2026-04-26T07:10:37Z</time></trkpt><trkpt lat="37.94454199979323" lon="15.119313806277992"><ele>676.0</ele><time>2026-04-26T07:10:38Z</time></trkpt><trkpt lat="37.94454096824335" lon="15.119403738057548"><ele>676.0</ele><time>2026-04-26T07:10:39Z</time></trkpt><trkpt lat="37.94449869435484" lon="15.119505007848785"><ele>676.0</ele><time>2026-04-26T07:10:40Z</time></trkpt><trkpt lat="37.944429943808785" lon="15.119609217411798"><ele>676.0</ele><time>2026-04-26T07:10:41Z</time></trkpt><trkpt lat="37.94432967184755" lon="15.119691339968368"><ele>676.0</ele><time>2026-04-26T07:10:42Z</time></trkpt><trkpt lat="37.944193072789425" lon="15.119725923589126"><ele>666.6666666666667</ele><time>2026-04-26T07:10:43Z</time></trkpt><trkpt lat="37.94404195323823" lon="15.119705898615528"><ele>657.3333333333334</ele><time>2026-04-26T07:10:44Z</time></trkpt><trkpt lat="37.94386896658711" lon="15.119701375889303"><ele>648.0</ele><time>2026-04-26T07:10:45Z</time></trkpt><trkpt lat="37.94369506076529" lon="15.11972062779615"><ele>648.0</ele><time>2026-04-26T07:10:46Z</time></trkpt><trkpt lat="37.943524997658784" lon="15.119794533477426"><ele>648.0</ele><time>2026-04-26T07:10:47Z</time></trkpt><trkpt lat="37.94335774373568" lon="15.119909599251006"><ele>648.0</ele><time>2026-04-26T07:10:48Z</time></trkpt><trkpt lat="37.9431795128948" lon="15.120012855290407"><ele>647.3333333333334</ele><time>2026-04-26T07:10:49Z</time></trkpt><trkpt lat="37.94298535026996" lon="15.120034078560742"><ele>646.6666666666667</ele><time>2026-04-26T07:10:50Z</time></trkpt><trkpt lat="37.942794164365154" lon="15.120067870948937"><ele>646.0</ele><time>2026-04-26T07:10:51Z</time></trkpt><trkpt lat="37.94262109512679" lon="15.120138790083837"><ele>645.75</ele><time>2026-04-26T07:10:52Z</time></trkpt><trkpt lat="37.94248105663091" lon="15.120231155922532"><ele>645.5</ele><time>2026-04-26T07:10:53Z</time></trkpt><trkpt lat="37.94234624728784" lon="15.120222412606333"><ele>645.25</ele><time>2026-04-26T07:10:54Z</time></trkpt><trkpt lat="37.94220354448625" lon="15.120202798060074"><ele>645.0</ele><time>2026-04-26T07:10:55Z</time></trkpt><trkpt lat="37.94204218912425" lon="15.120190960924884"><ele>645.0</ele><time>2026-04-26T07:10:56Z</time></trkpt><trkpt lat="37.94189486326961" lon="15.120168707923373"><ele>645.0</ele><time>2026-04-26T07:10:57Z</time></trkpt><trkpt lat="37.94176607303881" lon="15.12015595120084"><ele>645.0</ele><time>2026-04-26T07:10:58Z</time></trkpt><trkpt lat="37.941668740769586" lon="15.12015179479143"><ele>645.0</ele><time>2026-04-26T07:10:59Z</time></trkpt><trkpt lat="37.941599474316" lon="15.12018616972391"><ele>645.0</ele><time>2026-04-26T07:11:00Z</time></trkpt><trkpt lat="37.94155519679301" lon="15.120271840633755"><ele>645.0</ele><time>2026-04-26T07:11:01Z</time></trkpt><trkpt lat="37.941551864127874" lon="15.120380830140054"><ele>645.0</ele><time>2026-04-26T07:11:02Z</time></trkpt><trkpt lat="37.94161953742015" lon="15.120496292476677"><ele>645.0</ele><time>2026-04-26T07:11:03Z</time></trkpt><trkpt lat="37.94172409300991" lon="15.120590333011851"><ele>645.0</ele><time>2026-04-26T07:11:04Z</time></trkpt><trkpt lat="37.941833042234485" lon="15.120702435575119"><ele>652.25</ele><time>2026-04-26T07:11:05Z</time></trkpt><trkpt lat="37.941935273894025" lon="15.120844223028215"><ele>659.5</ele><time>2026-04-26T07:11:06Z</time></trkpt><trkpt lat="37.942020521210786" lon="15.121001831950561"><ele>666.75</ele><time>2026-04-26T07:11:07Z</time></trkpt><trkpt lat="37.94207141092937" lon="15.1211658999786"><ele>674.0</ele><time>2026-04-26T07:11:08Z</time></trkpt><trkpt lat="37.94207000869909" lon="15.121343651185251"><ele>674.0</ele><time>2026-04-26T07:11:09Z</time></trkpt><trkpt lat="37.94204975777198" lon="15.121531531389945"><ele>674.0</ele><time>2026-04-26T07:11:10Z</time></trkpt><trkpt lat="37.94201659264734" lon="15.121696232410095"><ele>674.0</ele><time>2026-04-26T07:11:11Z</time></trkpt><trkpt lat="37.94196851990192" lon="15.121829863375353"><ele>674.0</ele><time>2026-04-26T07:11:12Z</time></trkpt><trkpt lat="37.941898909514194" lon="15.121938122172438"><ele>676.25</ele><time>2026-04-26T07:11:13Z</time></trkpt><trkpt lat="37.941779945410964" lon="15.121958211560758"><ele>678.5</ele><time>2026-04-26T07:11:14Z</time></trkpt><trkpt lat="37.94166229683378" lon="15.122020386136166"><ele>680.75</ele><time>2026-04-26T07:11:15Z</time></trkpt><trkpt lat="37.941524356898974" lon="15.122072438358604"><ele>683.0</ele><time>2026-04-26T07:11:16Z</time></trkpt><trkpt lat="37.94140686364911" lon="15.12220100326357"><ele>679.6666666666666</ele><time>2026-04-26T07:11:17Z</time></trkpt><trkpt lat="37.94130753475202" lon="15.122381238823664"><ele>676.3333333333334</ele><time>2026-04-26T07:11:18Z</time></trkpt><trkpt lat="37.94122072346137" lon="15.12258305188529"><ele>673.0</ele><time>2026-04-26T07:11:19Z</time></trkpt><trkpt lat="37.94114468998135" lon="15.122797470755895"><ele>673.0</ele><time>2026-04-26T07:11:20Z</time></trkpt><trkpt lat="37.94106689222517" lon="15.12301363759458"><ele>673.0</ele><time>2026-04-26T07:11:21Z</time></trkpt><trkpt lat="37.94099143088993" lon="15.12321562380627"><ele>673.0</ele><time>2026-04-26T07:11:22Z</time></trkpt><trkpt lat="37.94094816417826" lon="15.123409384941347"><ele>678.6666666666667</ele><time>2026-04-26T07:11:23Z</time></trkpt><trkpt lat="37.940945023934574" lon="15.123617836126867"><ele>684.3333333333334</ele><time>2026-04-26T07:11:24Z</time></trkpt><trkpt lat="37.94098625808631" lon="15.123821881864457"><ele>690.0</ele><time>2026-04-26T07:11:25Z</time></trkpt><trkpt lat="37.94106562617926" lon="15.12401007577742"><ele>692.0</ele><time>2026-04-26T07:11:26Z</time></trkpt><trkpt lat="37.941177073825386" lon="15.124174400990478"><ele>694.0</ele><time>2026-04-26T07:11:27Z</time></trkpt><trkpt lat="37.941256609811845" lon="15.124345275038793"><ele>696.0</ele><time>2026-04-26T07:11:28Z</time></trkpt><trkpt lat="37.9412808377344" lon="15.12452960386549"><ele>696.0</ele><time>2026-04-26T07:11:29Z</time></trkpt><trkpt lat="37.94126903701637" lon="15.124690663690592"><ele>696.0</ele><time>2026-04-26T07:11:30Z</time></trkpt><trkpt lat="37.941316367113" lon="15.12481945235966"><ele>696.0</ele><time>2026-04-26T07:11:31Z</time></trkpt><trkpt lat="37.94141354303119" lon="15.124909307907439"><ele>696.0</ele><time>2026-04-26T07:11:32Z</time></trkpt><trkpt lat="37.94153314239434" lon="15.124989668635191"><ele>698.75</ele><time>2026-04-26T07:11:33Z</time></trkpt><trkpt lat="37.941653405280775" lon="15.125086279664682"><ele>701.5</ele><time>2026-04-26T07:11:34Z</time></trkpt><trkpt lat="37.941776906840666" lon="15.125188281419183"><ele>704.25</ele><time>2026-04-26T07:11:35Z</time></trkpt><trkpt lat="37.94189774904558" lon="15.125295252337056"><ele>707.0</ele><time>2026-04-26T07:11:36Z</time></trkpt><trkpt lat="37.94199531251419" lon="15.125396365079586"><ele>707.0</ele><time>2026-04-26T07:11:37Z</time></trkpt><trkpt lat="37.94205472149845" lon="15.125507498763312"><ele>707.0</ele><time>2026-04-26T07:11:38Z</time></trkpt><trkpt lat="37.9420637357278" lon="15.125630205807983"><ele>707.0</ele><time>2026-04-26T07:11:39Z</time></trkpt><trkpt lat="37.942033237650605" lon="15.125746085883916"><ele>707.0</ele><time>2026-04-26T07:11:40Z</time></trkpt><trkpt lat="37.9419391689631" lon="15.125832762449933"><ele>707.0</ele><time>2026-04-26T07:11:41Z</time></trkpt><trkpt lat="37.94185414332862" lon="15.125924567091738"><ele>704.5</ele><time>2026-04-26T07:11:42Z</time></trkpt><trkpt lat="37.94173484880953" lon="15.125927351773717"><ele>702.0</ele><time>2026-04-26T07:11:43Z</time></trkpt><trkpt lat="37.94160382621452" lon="15.1259134326292"><ele>699.5</ele><time>2026-04-26T07:11:44Z</time></trkpt><trkpt lat="37.941468803891624" lon="15.125829154924073"><ele>697.0</ele><time>2026-04-26T07:11:45Z</time></trkpt><trkpt lat="37.94131730603244" lon="15.125775331994209"><ele>693.3333333333334</ele><time>2026-04-26T07:11:46Z</time></trkpt><trkpt lat="37.94115575563015" lon="15.12575173923059"><ele>689.6666666666666</ele><time>2026-04-26T07:11:47Z</time></trkpt><trkpt lat="37.94098156486337" lon="15.125725141017014"><ele>686.0</ele><time>2026-04-26T07:11:48Z</time></trkpt><trkpt lat="37.940818858402494" lon="15.125687094232887"><ele>685.75</ele><time>2026-04-26T07:11:49Z</time></trkpt><trkpt lat="37.940682396589104" lon="15.125673261359696"><ele>685.5</ele><time>2026-04-26T07:11:50Z</time></trkpt><trkpt lat="37.94055470740237" lon="15.125711285802039"><ele>685.25</ele><time>2026-04-26T07:11:51Z</time></trkpt><trkpt lat="37.94043864948623" lon="15.125802773942869"><ele>685.0</ele><time>2026-04-26T07:11:52Z</time></trkpt><trkpt lat="37.94036503591855" lon="15.125933029041661"><ele>685.0</ele><time>2026-04-26T07:11:53Z</time></trkpt><trkpt lat="37.94033415170001" lon="15.126072863788956"><ele>685.0</ele><time>2026-04-26T07:11:54Z</time></trkpt><trkpt lat="37.940328628801446" lon="15.126219075631363"><ele>685.0</ele><time>2026-04-26T07:11:55Z</time></trkpt><trkpt lat="37.940316113268494" lon="15.126387499158431"><ele>685.0</ele><time>2026-04-26T07:11:56Z</time></trkpt><trkpt lat="37.94029913751964" lon="15.12657431136325"><ele>690.6666666666667</ele><time>2026-04-26T07:11:57Z</time></trkpt><trkpt lat="37.94030692868083" lon="15.126774015902779"><ele>696.3333333333334</ele><time>2026-04-26T07:11:58Z</time></trkpt><trkpt lat="37.940359438312385" lon="15.126975919418728"><ele>702.0</ele><time>2026-04-26T07:11:59Z</time></trkpt><trkpt lat="37.94044155962075" lon="15.127178759046057"><ele>702.0</ele><time>2026-04-26T07:12:00Z</time></trkpt><trkpt lat="37.94051658325576" lon="15.12739133053195"><ele>702.0</ele><time>2026-04-26T07:12:01Z</time></trkpt><trkpt lat="37.940586406303254" lon="15.127597096476048"><ele>702.0</ele><time>2026-04-26T07:12:02Z</time></trkpt><trkpt lat="37.94064458653795" lon="15.1277642958532"><ele>702.4000000000001</ele><time>2026-04-26T07:12:03Z</time></trkpt><trkpt lat="37.94068375752301" lon="15.127889410646745"><ele>702.8000000000001</ele><time>2026-04-26T07:12:04Z</time></trkpt><trkpt lat="37.94071992977874" lon="15.127974732547242"><ele>703.2</ele><time>2026-04-26T07:12:05Z</time></trkpt><trkpt lat="37.940834333288194" lon="15.127984393885518"><ele>703.6</ele><time>2026-04-26T07:12:07Z</time></trkpt><trkpt lat="37.94088655183431" lon="15.127930830304427"><ele>704.0</ele><time>2026-04-26T07:12:08Z</time></trkpt><trkpt lat="37.94091646212622" lon="15.127817633230901"><ele>704.0</ele><time>2026-04-26T07:12:09Z</time></trkpt><trkpt lat="37.94083418155545" lon="15.127678029870989"><ele>704.0</ele><time>2026-04-26T07:12:10Z</time></trkpt><trkpt lat="37.940788327315296" lon="15.127542677778736"><ele>704.0</ele><time>2026-04-26T07:12:11Z</time></trkpt><trkpt lat="37.940726484036865" lon="15.127397104728065"><ele>704.0</ele><time>2026-04-26T07:12:12Z</time></trkpt><trkpt lat="37.940680297878565" lon="15.127241949815517"><ele>703.5</ele><time>2026-04-26T07:12:13Z</time></trkpt><trkpt lat="37.94066807564777" lon="15.127076715230084"><ele>703.0</ele><time>2026-04-26T07:12:14Z</time></trkpt><trkpt lat="37.940692739392794" lon="15.12691807953155"><ele>702.5</ele><time>2026-04-26T07:12:15Z</time></trkpt><trkpt lat="37.940721237707436" lon="15.12676664118099"><ele>702.0</ele><time>2026-04-26T07:12:16Z</time></trkpt><trkpt lat="37.94074806820704" lon="15.126649472017576"><ele>702.0</ele><time>2026-04-26T07:12:17Z</time></trkpt><trkpt lat="37.94077918271859" lon="15.126578213021682"><ele>702.0</ele><time>2026-04-26T07:12:18Z</time></trkpt><trkpt lat="37.940882625383" lon="15.126579672919494"><ele>702.0</ele><time>2026-04-26T07:12:20Z</time></trkpt><trkpt lat="37.940918119414874" lon="15.126675685495808"><ele>702.0</ele><time>2026-04-26T07:12:21Z</time></trkpt><trkpt lat="37.94091605574621" lon="15.126787857886816"><ele>702.0</ele><time>2026-04-26T07:12:22Z</time></trkpt><trkpt lat="37.9408744500128" lon="15.126910924602948"><ele>702.0</ele><time>2026-04-26T07:12:23Z</time></trkpt><trkpt lat="37.94081337250008" lon="15.127035591355742"><ele>702.0</ele><time>2026-04-26T07:12:24Z</time></trkpt><trkpt lat="37.940801424587775" lon="15.127200825575642"><ele>702.0</ele><time>2026-04-26T07:12:25Z</time></trkpt><trkpt lat="37.94084819490969" lon="15.127379173322677"><ele>702.0</ele><time>2026-04-26T07:12:26Z</time></trkpt><trkpt lat="37.94093290201213" lon="15.127548503428214"><ele>702.0</ele><time>2026-04-26T07:12:27Z</time></trkpt><trkpt lat="37.941034769590644" lon="15.127707241819696"><ele>709.25</ele><time>2026-04-26T07:12:28Z</time></trkpt><trkpt lat="37.94109685163123" lon="15.12787722579517"><ele>716.5</ele><time>2026-04-26T07:12:29Z</time></trkpt><trkpt lat="37.94110620068934" lon="15.128054732964287"><ele>723.75</ele><time>2026-04-26T07:12:30Z</time></trkpt><trkpt lat="37.94107874174727" lon="15.12823161295333"><ele>731.0</ele><time>2026-04-26T07:12:31Z</time></trkpt><trkpt lat="37.94103612937878" lon="15.128406322448471"><ele>734.75</ele><time>2026-04-26T07:12:32Z</time></trkpt><trkpt lat="37.94097588438709" lon="15.128560673486732"><ele>738.5</ele><time>2026-04-26T07:12:33Z</time></trkpt><trkpt lat="37.94089103432577" lon="15.128696413004755"><ele>742.25</ele><time>2026-04-26T07:12:34Z</time></trkpt><trkpt lat="37.940767090505126" lon="15.128769166578103"><ele>746.0</ele><time>2026-04-26T07:12:35Z</time></trkpt><trkpt lat="37.94062845384666" lon="15.12883116543913"><ele>744.0</ele><time>2026-04-26T07:12:36Z</time></trkpt><trkpt lat="37.94048559335786" lon="15.128899795371565"><ele>742.0</ele><time>2026-04-26T07:12:37Z</time></trkpt><trkpt lat="37.94035694185427" lon="15.128981373567335"><ele>740.0</ele><time>2026-04-26T07:12:38Z</time></trkpt><trkpt lat="37.94024368688851" lon="15.129058745245237"><ele>738.0</ele><time>2026-04-26T07:12:39Z</time></trkpt><trkpt lat="37.94015000158403" lon="15.129132051551078"><ele>738.0</ele><time>2026-04-26T07:12:40Z</time></trkpt><trkpt lat="37.940095329819265" lon="15.129237723300772"><ele>738.0</ele><time>2026-04-26T07:12:41Z</time></trkpt><trkpt lat="37.94008198285313" lon="15.12937685076685"><ele>738.0</ele><time>2026-04-26T07:12:42Z</time></trkpt><trkpt lat="37.94011013417258" lon="15.12953097742359"><ele>738.0</ele><time>2026-04-26T07:12:43Z</time></trkpt><trkpt lat="37.940129054182734" lon="15.129683576938923"><ele>738.0</ele><time>2026-04-26T07:12:44Z</time></trkpt><trkpt lat="37.94016068686754" lon="15.129819313874094"><ele>738.0</ele><time>2026-04-26T07:12:45Z</time></trkpt><trkpt lat="37.940243502107734" lon="15.129928137076117"><ele>738.0</ele><time>2026-04-26T07:12:46Z</time></trkpt><trkpt lat="37.94036480976946" lon="15.129999438059256"><ele>738.0</ele><time>2026-04-26T07:12:47Z</time></trkpt><trkpt lat="37.940507435650865" lon="15.130078449789314"><ele>740.0</ele><time>2026-04-26T07:12:48Z</time></trkpt><trkpt lat="37.94063781108308" lon="15.130209293309127"><ele>742.0</ele><time>2026-04-26T07:12:49Z</time></trkpt><trkpt lat="37.94076185020661" lon="15.130378777641361"><ele>744.0</ele><time>2026-04-26T07:12:50Z</time></trkpt><trkpt lat="37.9408900240682" lon="15.130557180857577"><ele>747.0</ele><time>2026-04-26T07:12:51Z</time></trkpt><trkpt lat="37.94099000546176" lon="15.130736847178806"><ele>750.0</ele><time>2026-04-26T07:12:52Z</time></trkpt><trkpt lat="37.94107941653474" lon="15.130884142132627"><ele>753.0</ele><time>2026-04-26T07:12:53Z</time></trkpt><trkpt lat="37.9411560614142" lon="15.131005859082377"><ele>756.0</ele><time>2026-04-26T07:12:54Z</time></trkpt><trkpt lat="37.9412197400082" lon="15.131088997733151"><ele>756.0</ele><time>2026-04-26T07:12:55Z</time></trkpt><trkpt lat="37.94123828164818" lon="15.131190637981536"><ele>756.0</ele><time>2026-04-26T07:12:56Z</time></trkpt><trkpt lat="37.941215447830395" lon="15.131282522589204"><ele>756.0</ele><time>2026-04-26T07:12:57Z</time></trkpt><trkpt lat="37.94114607849973" lon="15.131346549533816"><ele>756.0</ele><time>2026-04-26T07:12:58Z</time></trkpt><trkpt lat="37.94105655170864" lon="15.131370607600076"><ele>756.0</ele><time>2026-04-26T07:12:59Z</time></trkpt><trkpt lat="37.94096132801865" lon="15.131343682557546"><ele>756.0</ele><time>2026-04-26T07:13:00Z</time></trkpt><trkpt lat="37.940885242832195" lon="15.131214678286787"><ele>752.5</ele><time>2026-04-26T07:13:01Z</time></trkpt><trkpt lat="37.94077406793945" lon="15.131131753340874"><ele>749.0</ele><time>2026-04-26T07:13:02Z</time></trkpt><trkpt lat="37.94066645813306" lon="15.131007825467726"><ele>745.5</ele><time>2026-04-26T07:13:03Z</time></trkpt><trkpt lat="37.940544125384214" lon="15.130893963734655"><ele>742.0</ele><time>2026-04-26T07:13:04Z</time></trkpt><trkpt lat="37.94040594971945" lon="15.130796627986033"><ele>742.0</ele><time>2026-04-26T07:13:05Z</time></trkpt><trkpt lat="37.940243006042365" lon="15.13072687768774"><ele>742.0</ele><time>2026-04-26T07:13:06Z</time></trkpt><trkpt lat="37.94006859734603" lon="15.130687748361966"><ele>742.0</ele><time>2026-04-26T07:13:07Z</time></trkpt><trkpt lat="37.93990195656669" lon="15.13065762136751"><ele>742.6</ele><time>2026-04-26T07:13:08Z</time></trkpt><trkpt lat="37.939766158759156" lon="15.130628119245358"><ele>743.2</ele><time>2026-04-26T07:13:09Z</time></trkpt><trkpt lat="37.93966548976794" lon="15.130614314968302"><ele>743.8</ele><time>2026-04-26T07:13:10Z</time></trkpt><trkpt lat="37.939591329261404" lon="15.130633735035074"><ele>744.4</ele><time>2026-04-26T07:13:11Z</time></trkpt><trkpt lat="37.93954188973083" lon="15.130706990146495"><ele>745.0</ele><time>2026-04-26T07:13:12Z</time></trkpt><trkpt lat="37.93955187856287" lon="15.130820266997047"><ele>745.0</ele><time>2026-04-26T07:13:13Z</time></trkpt><trkpt lat="37.939609677016435" lon="15.130915971833412"><ele>745.0</ele><time>2026-04-26T07:13:14Z</time></trkpt><trkpt lat="37.93970508667891" lon="15.130970584302515"><ele>745.0</ele><time>2026-04-26T07:13:15Z</time></trkpt><trkpt lat="37.9398168036886" lon="15.130995783238635"><ele>745.0</ele><time>2026-04-26T07:13:16Z</time></trkpt><trkpt lat="37.93994558670971" lon="15.131020795464284"><ele>745.0</ele><time>2026-04-26T07:13:17Z</time></trkpt><trkpt lat="37.940081575755435" lon="15.131079699250181"><ele>744.0</ele><time>2026-04-26T07:13:18Z</time></trkpt><trkpt lat="37.940220892100065" lon="15.131169676552922"><ele>743.0</ele><time>2026-04-26T07:13:19Z</time></trkpt><trkpt lat="37.9403622347809" lon="15.131298733672201"><ele>742.0</ele><time>2026-04-26T07:13:20Z</time></trkpt><trkpt lat="37.94050965862799" lon="15.131446443128677"><ele>746.6666666666667</ele><time>2026-04-26T07:13:21Z</time></trkpt><trkpt lat="37.940670571168184" lon="15.131618207159365"><ele>751.3333333333334</ele><time>2026-04-26T07:13:22Z</time></trkpt><trkpt lat="37.940824051895135" lon="15.131775823661712"><ele>756.0</ele><time>2026-04-26T07:13:23Z</time></trkpt><trkpt lat="37.940976747073535" lon="15.131928795816746"><ele>756.0</ele><time>2026-04-26T07:13:24Z</time></trkpt><trkpt lat="37.94112002082379" lon="15.132075522897683"><ele>756.0</ele><time>2026-04-26T07:13:25Z</time></trkpt><trkpt lat="37.941254936798515" lon="15.132205399484437"><ele>756.0</ele><time>2026-04-26T07:13:26Z</time></trkpt><trkpt lat="37.941383567181184" lon="15.132326623242411"><ele>758.75</ele><time>2026-04-26T07:13:27Z</time></trkpt><trkpt lat="37.941517430601266" lon="15.132413662636136"><ele>761.5</ele><time>2026-04-26T07:13:28Z</time></trkpt><trkpt lat="37.941659111956405" lon="15.132462250847064"><ele>764.25</ele><time>2026-04-26T07:13:29Z</time></trkpt><trkpt lat="37.94179168369312" lon="15.132486080830988"><ele>767.0</ele><time>2026-04-26T07:13:30Z</time></trkpt><trkpt lat="37.9419000191778" lon="15.132502280652986"><ele>769.2</ele><time>2026-04-26T07:13:31Z</time></trkpt><trkpt lat="37.941991783904825" lon="15.132462566042177"><ele>771.4000000000001</ele><time>2026-04-26T07:13:32Z</time></trkpt><trkpt lat="37.9420754501945" lon="15.132408748296948"><ele>773.5999999999999</ele><time>2026-04-26T07:13:33Z</time></trkpt><trkpt lat="37.9421474146425" lon="15.13229012834001"><ele>775.8</ele><time>2026-04-26T07:13:34Z</time></trkpt><trkpt lat="37.942147465707606" lon="15.132117227067893"><ele>778.0</ele><time>2026-04-26T07:13:35Z</time></trkpt><trkpt lat="37.942133127075685" lon="15.131948414392205"><ele>778.5</ele><time>2026-04-26T07:13:36Z</time></trkpt><trkpt lat="37.94211439248782" lon="15.131787840132269"><ele>779.0</ele><time>2026-04-26T07:13:37Z</time></trkpt><trkpt lat="37.94216798784926" lon="15.131627824692476"><ele>779.5</ele><time>2026-04-26T07:13:38Z</time></trkpt><trkpt lat="37.942253457597104" lon="15.131488159202712"><ele>780.0</ele><time>2026-04-26T07:13:39Z</time></trkpt><trkpt lat="37.942367056927374" lon="15.131372903813503"><ele>781.0</ele><time>2026-04-26T07:13:40Z</time></trkpt><trkpt lat="37.94245638328886" lon="15.13124008553415"><ele>782.0</ele><time>2026-04-26T07:13:41Z</time></trkpt><trkpt lat="37.942513844222525" lon="15.131105550446993"><ele>783.0</ele><time>2026-04-26T07:13:42Z</time></trkpt><trkpt lat="37.94252941771106" lon="15.130961248497398"><ele>784.0</ele><time>2026-04-26T07:13:43Z</time></trkpt><trkpt lat="37.94253152366303" lon="15.130805550213301"><ele>786.5</ele><time>2026-04-26T07:13:44Z</time></trkpt><trkpt lat="37.94246377002034" lon="15.130656951564408"><ele>789.0</ele><time>2026-04-26T07:13:45Z</time></trkpt><trkpt lat="37.94237651965499" lon="15.13052247406033"><ele>791.5</ele><time>2026-04-26T07:13:46Z</time></trkpt><trkpt lat="37.94226586381386" lon="15.130418068063817"><ele>794.0</ele><time>2026-04-26T07:13:47Z</time></trkpt><trkpt lat="37.94213115964569" lon="15.130349058031936"><ele>794.0</ele><time>2026-04-26T07:13:48Z</time></trkpt><trkpt lat="37.941998727423176" lon="15.130294644217894"><ele>794.0</ele><time>2026-04-26T07:13:49Z</time></trkpt><trkpt lat="37.94189245196946" lon="15.130214308042241"><ele>794.0</ele><time>2026-04-26T07:13:50Z</time></trkpt><trkpt lat="37.941805080291076" lon="15.130135385663621"><ele>794.0</ele><time>2026-04-26T07:13:51Z</time></trkpt><trkpt lat="37.9417510836129" lon="15.130010628554636"><ele>794.0</ele><time>2026-04-26T07:13:52Z</time></trkpt><trkpt lat="37.94174466274968" lon="15.129896045966648"><ele>794.0</ele><time>2026-04-26T07:13:53Z</time></trkpt><trkpt lat="37.94177531186666" lon="15.129816217967765"><ele>794.0</ele><time>2026-04-26T07:13:54Z</time></trkpt><trkpt lat="37.94190754801823" lon="15.129772158792425"><ele>794.0</ele><time>2026-04-26T07:13:56Z</time></trkpt><trkpt lat="37.94200700443443" lon="15.129790937830354"><ele>794.0</ele><time>2026-04-26T07:13:57Z</time></trkpt><trkpt lat="37.942126607972575" lon="15.129793267549058"><ele>794.0</ele><time>2026-04-26T07:13:58Z</time></trkpt><trkpt lat="37.94226244341811" lon="15.129795375221915"><ele>794.0</ele><time>2026-04-26T07:13:59Z</time></trkpt><trkpt lat="37.94241549443907" lon="15.129782941115348"><ele>794.0</ele><time>2026-04-26T07:14:00Z</time></trkpt><trkpt lat="37.9425764423536" lon="15.129746661677416"><ele>794.0</ele><time>2026-04-26T07:14:01Z</time></trkpt><trkpt lat="37.942748899871795" lon="15.129680809171488"><ele>794.0</ele><time>2026-04-26T07:14:02Z</time></trkpt><trkpt lat="37.94293536273862" lon="15.129601519891022"><ele>794.0</ele><time>2026-04-26T07:14:03Z</time></trkpt><trkpt lat="37.94313855206415" lon="15.129507763495788"><ele>794.0</ele><time>2026-04-26T07:14:04Z</time></trkpt><trkpt lat="37.94333646387229" lon="15.129413432082846"><ele>794.0</ele><time>2026-04-26T07:14:05Z</time></trkpt><trkpt lat="37.94352049980571" lon="15.129329173581803"><ele>794.0</ele><time>2026-04-26T07:14:06Z</time></trkpt><trkpt lat="37.94369200063003" lon="15.129252656848996"><ele>796.75</ele><time>2026-04-26T07:14:07Z</time></trkpt><trkpt lat="37.94384536828429" lon="15.129184587201262"><ele>799.5</ele><time>2026-04-26T07:14:08Z</time></trkpt><trkpt lat="37.94398550545061" lon="15.12912516692493"><ele>802.25</ele><time>2026-04-26T07:14:09Z</time></trkpt><trkpt lat="37.94410308653272" lon="15.12907762342062"><ele>805.0</ele><time>2026-04-26T07:14:10Z</time></trkpt><trkpt lat="37.94419012088278" lon="15.129044951216022"><ele>804.9999999999999</ele><time>2026-04-26T07:14:11Z</time></trkpt><trkpt lat="37.94426985509085" lon="15.129040729452038"><ele>805.0</ele><time>2026-04-26T07:14:12Z</time></trkpt><trkpt lat="37.94433117335462" lon="15.129099194390973"><ele>805.0</ele><time>2026-04-26T07:14:13Z</time></trkpt><trkpt lat="37.944353463009456" lon="15.129180803778478"><ele>805.0</ele><time>2026-04-26T07:14:14Z</time></trkpt><trkpt lat="37.94433432034836" lon="15.12927773690665"><ele>804.9999999999999</ele><time>2026-04-26T07:14:15Z</time></trkpt><trkpt lat="37.94427483269939" lon="15.129354211530085"><ele>805.0</ele><time>2026-04-26T07:14:16Z</time></trkpt><trkpt lat="37.944163003633506" lon="15.12935051031677"><ele>805.0</ele><time>2026-04-26T07:14:17Z</time></trkpt><trkpt lat="37.94403512516343" lon="15.129397171704673"><ele>805.0</ele><time>2026-04-26T07:14:18Z</time></trkpt><trkpt lat="37.943891036936364" lon="15.129437813084772"><ele>805.0</ele><time>2026-04-26T07:14:19Z</time></trkpt><trkpt lat="37.94373978478137" lon="15.129494864030411"><ele>805.0</ele><time>2026-04-26T07:14:20Z</time></trkpt><trkpt lat="37.94358240599366" lon="15.129548063550263"><ele>805.0</ele><time>2026-04-26T07:14:21Z</time></trkpt><trkpt lat="37.94344476563481" lon="15.129598408004256"><ele>805.0</ele><time>2026-04-26T07:14:22Z</time></trkpt><trkpt lat="37.943328612752325" lon="15.129652735841796"><ele>805.0</ele><time>2026-04-26T07:14:23Z</time></trkpt><trkpt lat="37.943256248491984" lon="15.12970882094933"><ele>805.0</ele><time>2026-04-26T07:14:24Z</time></trkpt><trkpt lat="37.943220640550585" lon="15.129806638077346"><ele>805.0</ele><time>2026-04-26T07:14:25Z</time></trkpt><trkpt lat="37.943229632991084" lon="15.129905765844983"><ele>806.8</ele><time>2026-04-26T07:14:26Z</time></trkpt><trkpt lat="37.94327692385099" lon="15.129985892812195"><ele>808.6</ele><time>2026-04-26T07:14:27Z</time></trkpt><trkpt lat="37.94334453270786" lon="15.130041664514906"><ele>810.4000000000001</ele><time>2026-04-26T07:14:28Z</time></trkpt><trkpt lat="37.94343557297213" lon="15.130049602369668"><ele>812.2</ele><time>2026-04-26T07:14:29Z</time></trkpt><trkpt lat="37.943541463559136" lon="15.130012342065543"><ele>814.0</ele><time>2026-04-26T07:14:30Z</time></trkpt><trkpt lat="37.94366528432538" lon="15.129938522625416"><ele>811.0</ele><time>2026-04-26T07:14:31Z</time></trkpt><trkpt lat="37.943801866545996" lon="15.12987853634515"><ele>808.0</ele><time>2026-04-26T07:14:32Z</time></trkpt><trkpt lat="37.94394753450877" lon="15.129819358719718"><ele>805.0</ele><time>2026-04-26T07:14:33Z</time></trkpt><trkpt lat="37.94410981610712" lon="15.12975136004402"><ele>812.0</ele><time>2026-04-26T07:14:34Z</time></trkpt><trkpt lat="37.94428329271302" lon="15.129676672460176"><ele>819.0</ele><time>2026-04-26T07:14:35Z</time></trkpt><trkpt lat="37.9444569330387" lon="15.129607943763432"><ele>826.0</ele><time>2026-04-26T07:14:36Z</time></trkpt><trkpt lat="37.944629460211154" lon="15.129539367352088"><ele>826.0</ele><time>2026-04-26T07:14:37Z</time></trkpt><trkpt lat="37.94478355198653" lon="15.129450044693861"><ele>826.0</ele><time>2026-04-26T07:14:38Z</time></trkpt><trkpt lat="37.94493130753296" lon="15.129301025182134"><ele>826.0</ele><time>2026-04-26T07:14:39Z</time></trkpt><trkpt lat="37.94510293054985" lon="15.12909151334386"><ele>829.0</ele><time>2026-04-26T07:14:40Z</time></trkpt><trkpt lat="37.945248224267736" lon="15.128846859116187"><ele>832.0</ele><time>2026-04-26T07:14:41Z</time></trkpt><trkpt lat="37.94543884680927" lon="15.128634244302216"><ele>832.0</ele><time>2026-04-26T07:14:42Z</time></trkpt><trkpt lat="37.94565732573264" lon="15.128434463335424"><ele>832.0</ele><time>2026-04-26T07:14:43Z</time></trkpt><trkpt lat="37.945879300625975" lon="15.128233391412206"><ele>837.0</ele><time>2026-04-26T07:14:44Z</time></trkpt><trkpt lat="37.94606765555166" lon="15.128028485801334"><ele>842.0</ele><time>2026-04-26T07:14:45Z</time></trkpt><trkpt lat="37.94621344421727" lon="15.127846091811527"><ele>842.0</ele><time>2026-04-26T07:14:46Z</time></trkpt><trkpt lat="37.94633408831952" lon="15.127697912887102"><ele>842.0</ele><time>2026-04-26T07:14:47Z</time></trkpt><trkpt lat="37.94643693023451" lon="15.127604513056731"><ele>842.0</ele><time>2026-04-26T07:14:48Z</time></trkpt><trkpt lat="37.9465144764452" lon="15.127548722106702"><ele>842.0</ele><time>2026-04-26T07:14:49Z</time></trkpt><trkpt lat="37.94655930904069" lon="15.127490837124993"><ele>842.0</ele><time>2026-04-26T07:15:12Z</time></trkpt><trkpt lat="37.94644770666257" lon="15.127525076974278"><ele>842.0000000000001</ele><time>2026-04-26T07:15:16Z</time></trkpt><trkpt lat="37.94639814677236" lon="15.12759196799109"><ele>842.0</ele><time>2026-04-26T07:15:18Z</time></trkpt><trkpt lat="37.946346376954324" lon="15.12764971274729"><ele>842.0</ele><time>2026-04-26T07:15:20Z</time></trkpt><trkpt lat="37.94628399139612" lon="15.127692640625323"><ele>842.0</ele><time>2026-04-26T07:15:22Z</time></trkpt><trkpt lat="37.946222153016826" lon="15.127740309217955"><ele>842.0</ele><time>2026-04-26T07:15:24Z</time></trkpt><trkpt lat="37.946166900011384" lon="15.127806877932139"><ele>842.0000000000001</ele><time>2026-04-26T07:15:26Z</time></trkpt><trkpt lat="37.94612192224102" lon="15.12787120288865"><ele>842.0</ele><time>2026-04-26T07:15:29Z</time></trkpt><trkpt lat="37.946066456639976" lon="15.127923495396871"><ele>842.0</ele><time>2026-04-26T07:15:33Z</time></trkpt><trkpt lat="37.946092591265185" lon="15.127997994340264"><ele>842.0</ele><time>2026-04-26T07:15:38Z</time></trkpt><trkpt lat="37.94616081074895" lon="15.127892349949121"><ele>842.0</ele><time>2026-04-26T07:15:40Z</time></trkpt><trkpt lat="37.94620812282591" lon="15.127813392337536"><ele>842.0</ele><time>2026-04-26T07:15:41Z</time></trkpt><trkpt lat="37.946275639665174" lon="15.127732149200318"><ele>842.0</ele><time>2026-04-26T07:15:42Z</time></trkpt><trkpt lat="37.94637402507385" lon="15.127650442860942"><ele>842.0</ele><time>2026-04-26T07:15:43Z</time></trkpt><trkpt lat="37.946478677714346" lon="15.127561296217063"><ele>842.0</ele><time>2026-04-26T07:15:44Z</time></trkpt><trkpt lat="37.94655853582195" lon="15.127468988142923"><ele>842.0</ele><time>2026-04-26T07:15:45Z</time></trkpt><trkpt lat="37.94663014458243" lon="15.127354682650122"><ele>842.0</ele><time>2026-04-26T07:15:46Z</time></trkpt><trkpt lat="37.94669517104495" lon="15.127231049719695"><ele>844.8</ele><time>2026-04-26T07:15:47Z</time></trkpt><trkpt lat="37.946759968077565" lon="15.127104393252969"><ele>847.6</ele><time>2026-04-26T07:15:48Z</time></trkpt><trkpt lat="37.94683956737007" lon="15.12699254629119"><ele>850.3999999999999</ele><time>2026-04-26T07:15:49Z</time></trkpt><trkpt lat="37.946925967793234" lon="15.126915680227198"><ele>853.1999999999999</ele><time>2026-04-26T07:15:50Z</time></trkpt><trkpt lat="37.94701417157796" lon="15.126867261405904"><ele>856.0</ele><time>2026-04-26T07:15:51Z</time></trkpt><trkpt lat="37.947104100807934" lon="15.126888948364698"><ele>855.9999999999999</ele><time>2026-04-26T07:15:52Z</time></trkpt><trkpt lat="37.947175178076186" lon="15.126937002529788"><ele>856.0</ele><time>2026-04-26T07:15:53Z</time></trkpt><trkpt lat="37.94721513075719" lon="15.127025527202026"><ele>856.0</ele><time>2026-04-26T07:15:54Z</time></trkpt><trkpt lat="37.94723273633708" lon="15.127125610905804"><ele>856.0</ele><time>2026-04-26T07:15:55Z</time></trkpt><trkpt lat="37.947206985597816" lon="15.127211393945"><ele>855.9999999999999</ele><time>2026-04-26T07:15:56Z</time></trkpt><trkpt lat="37.947134135548666" lon="15.127275529160004"><ele>856.0</ele><time>2026-04-26T07:15:57Z</time></trkpt><trkpt lat="37.94704563162751" lon="15.127283878210138"><ele>856.0</ele><time>2026-04-26T07:15:58Z</time></trkpt><trkpt lat="37.94694852609605" lon="15.127324652524644"><ele>855.9999999999999</ele><time>2026-04-26T07:15:59Z</time></trkpt><trkpt lat="37.94686478208192" lon="15.12738355432465"><ele>855.9999999999999</ele><time>2026-04-26T07:16:00Z</time></trkpt><trkpt lat="37.94681448929177" lon="15.127506047948009"><ele>856.0</ele><time>2026-04-26T07:16:01Z</time></trkpt><trkpt lat="37.94680178238442" lon="15.127667480874988"><ele>856.0</ele><time>2026-04-26T07:16:02Z</time></trkpt><trkpt lat="37.94680115371285" lon="15.127855786251102"><ele>855.3333333333333</ele><time>2026-04-26T07:16:03Z</time></trkpt><trkpt lat="37.946787707159224" lon="15.128073219291428"><ele>854.6666666666667</ele><time>2026-04-26T07:16:04Z</time></trkpt><trkpt lat="37.94675697579758" lon="15.128264856907546"><ele>854.0</ele><time>2026-04-26T07:16:05Z</time></trkpt><trkpt lat="37.946709850832264" lon="15.128442352911547"><ele>854.0</ele><time>2026-04-26T07:16:06Z</time></trkpt><trkpt lat="37.946614675310364" lon="15.128594251680028"><ele>854.0</ele><time>2026-04-26T07:16:07Z</time></trkpt><trkpt lat="37.94652373124181" lon="15.128764467815703"><ele>854.0</ele><time>2026-04-26T07:16:08Z</time></trkpt><trkpt lat="37.94642166600136" lon="15.128897241470927"><ele>854.0000000000001</ele><time>2026-04-26T07:16:09Z</time></trkpt><trkpt lat="37.946349370086345" lon="15.129019539377433"><ele>854.0</ele><time>2026-04-26T07:16:10Z</time></trkpt><trkpt lat="37.94631201904008" lon="15.129100108460303"><ele>854.0</ele><time>2026-04-26T07:16:11Z</time></trkpt><trkpt lat="37.94630841203263" lon="15.12918555774429"><ele>854.0</ele><time>2026-04-26T07:16:12Z</time></trkpt><trkpt lat="37.94636509837556" lon="15.129255751025923"><ele>854.0000000000001</ele><time>2026-04-26T07:16:13Z</time></trkpt><trkpt lat="37.9464536838146" lon="15.129271817527075"><ele>854.0</ele><time>2026-04-26T07:16:14Z</time></trkpt><trkpt lat="37.94654071022443" lon="15.129228176951822"><ele>854.0</ele><time>2026-04-26T07:16:15Z</time></trkpt><trkpt lat="37.94661365513504" lon="15.129122452745495"><ele>854.0</ele><time>2026-04-26T07:16:16Z</time></trkpt><trkpt lat="37.94668423804838" lon="15.128994331005499"><ele>854.0</ele><time>2026-04-26T07:16:17Z</time></trkpt><trkpt lat="37.94677682989045" lon="15.12885925952136"><ele>854.0</ele><time>2026-04-26T07:16:18Z</time></trkpt><trkpt lat="37.94689442298569" lon="15.128718351185215"><ele>861.0</ele><time>2026-04-26T07:16:19Z</time></trkpt><trkpt lat="37.94702701927901" lon="15.128572096450874"><ele>868.0</ele><time>2026-04-26T07:16:20Z</time></trkpt><trkpt lat="37.947169056941014" lon="15.128417907511864"><ele>875.0</ele><time>2026-04-26T07:16:21Z</time></trkpt><trkpt lat="37.94731427715006" lon="15.128257117379398"><ele>877.6666666666667</ele><time>2026-04-26T07:16:22Z</time></trkpt><trkpt lat="37.94746903941397" lon="15.12809399537677"><ele>880.3333333333333</ele><time>2026-04-26T07:16:23Z</time></trkpt><trkpt lat="37.94763655189047" lon="15.127936533579755"><ele>883.0</ele><time>2026-04-26T07:16:24Z</time></trkpt><trkpt lat="37.94781128388814" lon="15.127795640633288"><ele>883.0</ele><time>2026-04-26T07:16:25Z</time></trkpt><trkpt lat="37.947973279902065" lon="15.12767665823373"><ele>883.0</ele><time>2026-04-26T07:16:26Z</time></trkpt><trkpt lat="37.94811460521763" lon="15.12756287565388"><ele>883.0</ele><time>2026-04-26T07:16:27Z</time></trkpt><trkpt lat="37.948200842958606" lon="15.1274539177482"><ele>880.5</ele><time>2026-04-26T07:16:28Z</time></trkpt><trkpt lat="37.94827638303296" lon="15.127314669956164"><ele>878.0</ele><time>2026-04-26T07:16:29Z</time></trkpt><trkpt lat="37.94829847968647" lon="15.127139830441857"><ele>875.5</ele><time>2026-04-26T07:16:30Z</time></trkpt><trkpt lat="37.948301224812944" lon="15.126969113460751"><ele>873.0</ele><time>2026-04-26T07:16:31Z</time></trkpt><trkpt lat="37.94831594052612" lon="15.12682139794547"><ele>873.0</ele><time>2026-04-26T07:16:32Z</time></trkpt><trkpt lat="37.94834533042883" lon="15.126690433824905"><ele>873.0</ele><time>2026-04-26T07:16:33Z</time></trkpt><trkpt lat="37.948427972992064" lon="15.126593216549553"><ele>873.0</ele><time>2026-04-26T07:16:34Z</time></trkpt><trkpt lat="37.94852405697294" lon="15.126543352988122"><ele>873.0</ele><time>2026-04-26T07:16:35Z</time></trkpt><trkpt lat="37.948631259467334" lon="15.126529387469999"><ele>873.0</ele><time>2026-04-26T07:16:36Z</time></trkpt><trkpt lat="37.94874527564178" lon="15.126579001401177"><ele>877.0</ele><time>2026-04-26T07:16:37Z</time></trkpt><trkpt lat="37.948860799610536" lon="15.126660852382127"><ele>881.0</ele><time>2026-04-26T07:16:38Z</time></trkpt><trkpt lat="37.948979845264084" lon="15.126715093133196"><ele>885.0</ele><time>2026-04-26T07:16:39Z</time></trkpt><trkpt lat="37.949098834705936" lon="15.12672124166467"><ele>889.0</ele><time>2026-04-26T07:16:40Z</time></trkpt><trkpt lat="37.94922111375178" lon="15.126670758045366"><ele>891.25</ele><time>2026-04-26T07:16:41Z</time></trkpt><trkpt lat="37.94932358141558" lon="15.12656321286516"><ele>893.5</ele><time>2026-04-26T07:16:42Z</time></trkpt><trkpt lat="37.94940852459337" lon="15.126414888223625"><ele>895.75</ele><time>2026-04-26T07:16:43Z</time></trkpt><trkpt lat="37.94950195872557" lon="15.126251768295795"><ele>898.0</ele><time>2026-04-26T07:16:44Z</time></trkpt><trkpt lat="37.94961454578023" lon="15.126088156883384"><ele>898.0</ele><time>2026-04-26T07:16:45Z</time></trkpt><trkpt lat="37.949730102371824" lon="15.125913543186936"><ele>898.0</ele><time>2026-04-26T07:16:46Z</time></trkpt><trkpt lat="37.94984870972333" lon="15.125732181648019"><ele>898.0</ele><time>2026-04-26T07:16:47Z</time></trkpt><trkpt lat="37.94997581548486" lon="15.125544197540885"><ele>900.6666666666666</ele><time>2026-04-26T07:16:48Z</time></trkpt><trkpt lat="37.95010135354792" lon="15.125348967803166"><ele>903.3333333333333</ele><time>2026-04-26T07:16:49Z</time></trkpt><trkpt lat="37.95022554990995" lon="15.125145928012167"><ele>906.0</ele><time>2026-04-26T07:16:50Z</time></trkpt><trkpt lat="37.95034935755178" lon="15.124950906999077"><ele>904.0</ele><time>2026-04-26T07:16:51Z</time></trkpt><trkpt lat="37.950482648082605" lon="15.124782204347719"><ele>902.0</ele><time>2026-04-26T07:16:52Z</time></trkpt><trkpt lat="37.950619903659906" lon="15.124657570334572"><ele>900.0</ele><time>2026-04-26T07:16:53Z</time></trkpt><trkpt lat="37.95073303006569" lon="15.124540485198821"><ele>900.0</ele><time>2026-04-26T07:16:54Z</time></trkpt><trkpt lat="37.95081551041473" lon="15.12439644316255"><ele>900.0</ele><time>2026-04-26T07:16:55Z</time></trkpt><trkpt lat="37.950859542931404" lon="15.12422953423201"><ele>900.0</ele><time>2026-04-26T07:16:56Z</time></trkpt><trkpt lat="37.95086869689422" lon="15.124047504404423"><ele>900.0</ele><time>2026-04-26T07:16:57Z</time></trkpt><trkpt lat="37.95089561425063" lon="15.123864191488266"><ele>903.0</ele><time>2026-04-26T07:16:58Z</time></trkpt><trkpt lat="37.95091250786621" lon="15.123678401748476"><ele>906.0</ele><time>2026-04-26T07:16:59Z</time></trkpt><trkpt lat="37.95093677498046" lon="15.123490629466168"><ele>909.0</ele><time>2026-04-26T07:17:00Z</time></trkpt><trkpt lat="37.95096057148226" lon="15.123314382258258"><ele>912.0</ele><time>2026-04-26T07:17:01Z</time></trkpt><trkpt lat="37.95100655011912" lon="15.123174950927236"><ele>906.8</ele><time>2026-04-26T07:17:02Z</time></trkpt><trkpt lat="37.9510615960914" lon="15.12306069097812"><ele>901.6</ele><time>2026-04-26T07:17:03Z</time></trkpt><trkpt lat="37.95112789025458" lon="15.122978735399435"><ele>896.3999999999999</ele><time>2026-04-26T07:17:04Z</time></trkpt><trkpt lat="37.951219308166635" lon="15.122933338154095"><ele>891.1999999999999</ele><time>2026-04-26T07:17:05Z</time></trkpt><trkpt lat="37.95132144428847" lon="15.122929584494646"><ele>886.0</ele><time>2026-04-26T07:17:06Z</time></trkpt><trkpt lat="37.95142194898389" lon="15.12295074065927"><ele>886.0</ele><time>2026-04-26T07:17:07Z</time></trkpt><trkpt lat="37.951514733073" lon="15.12298107971908"><ele>885.9999999999999</ele><time>2026-04-26T07:17:08Z</time></trkpt><trkpt lat="37.951595146305195" lon="15.123049616487215"><ele>885.9999999999999</ele><time>2026-04-26T07:17:09Z</time></trkpt><trkpt lat="37.95167145403181" lon="15.123132441011956"><ele>886.0</ele><time>2026-04-26T07:17:10Z</time></trkpt><trkpt lat="37.951782340848325" lon="15.123191202670423"><ele>886.0</ele><time>2026-04-26T07:17:11Z</time></trkpt><trkpt lat="37.95192642613373" lon="15.123221607674404"><ele>897.0</ele><time>2026-04-26T07:17:12Z</time></trkpt><trkpt lat="37.95209915427218" lon="15.12323628126667"><ele>908.0</ele><time>2026-04-26T07:17:13Z</time></trkpt><trkpt lat="37.95227905645435" lon="15.12327213603825"><ele>919.0</ele><time>2026-04-26T07:17:14Z</time></trkpt><trkpt lat="37.952450693292406" lon="15.123298460388469"><ele>917.6666666666666</ele><time>2026-04-26T07:17:15Z</time></trkpt><trkpt lat="37.95261457926924" lon="15.123287694589044"><ele>916.3333333333333</ele><time>2026-04-26T07:17:16Z</time></trkpt><trkpt lat="37.95277577249139" lon="15.123220106655634"><ele>915.0</ele><time>2026-04-26T07:17:17Z</time></trkpt><trkpt lat="37.95293280598799" lon="15.123124977667104"><ele>915.0</ele><time>2026-04-26T07:17:18Z</time></trkpt><trkpt lat="37.953090185501466" lon="15.123010240759076"><ele>915.0</ele><time>2026-04-26T07:17:19Z</time></trkpt><trkpt lat="37.953250428401226" lon="15.122885728647232"><ele>915.0</ele><time>2026-04-26T07:17:20Z</time></trkpt><trkpt lat="37.953411888761615" lon="15.122755315303554"><ele>921.6666666666667</ele><time>2026-04-26T07:17:21Z</time></trkpt><trkpt lat="37.953557387919105" lon="15.122636522854604"><ele>928.3333333333334</ele><time>2026-04-26T07:17:22Z</time></trkpt><trkpt lat="37.95369422967615" lon="15.122526089150657"><ele>935.0</ele><time>2026-04-26T07:17:23Z</time></trkpt><trkpt lat="37.95383203212361" lon="15.122425825582615"><ele>935.3333333333334</ele><time>2026-04-26T07:17:24Z</time></trkpt><trkpt lat="37.9539818669168" lon="15.122340015029874"><ele>935.6666666666667</ele><time>2026-04-26T07:17:25Z</time></trkpt><trkpt lat="37.95414913098188" lon="15.122291639495442"><ele>936.0</ele><time>2026-04-26T07:17:26Z</time></trkpt><trkpt lat="37.95432285087143" lon="15.122241992290414"><ele>936.0</ele><time>2026-04-26T07:17:27Z</time></trkpt><trkpt lat="37.95449792892357" lon="15.12215762254178"><ele>936.0</ele><time>2026-04-26T07:17:28Z</time></trkpt><trkpt lat="37.95467005121169" lon="15.122032640387546"><ele>936.0</ele><time>2026-04-26T07:17:29Z</time></trkpt><trkpt lat="37.95484059848291" lon="15.121878373843046"><ele>936.0</ele><time>2026-04-26T07:17:30Z</time></trkpt><trkpt lat="37.95501442200224" lon="15.121729787620216"><ele>936.0</ele><time>2026-04-26T07:17:31Z</time></trkpt><trkpt lat="37.955171072095204" lon="15.121597455609699"><ele>936.0</ele><time>2026-04-26T07:17:32Z</time></trkpt><trkpt lat="37.95532006526168" lon="15.121487123718882"><ele>934.6666666666667</ele><time>2026-04-26T07:17:33Z</time></trkpt><trkpt lat="37.95548767702576" lon="15.121407831869336"><ele>933.3333333333334</ele><time>2026-04-26T07:17:34Z</time></trkpt><trkpt lat="37.95566366546049" lon="15.121356027825353"><ele>932.0</ele><time>2026-04-26T07:17:35Z</time></trkpt><trkpt lat="37.95583542672588" lon="15.121307152519801"><ele>935.0</ele><time>2026-04-26T07:17:36Z</time></trkpt><trkpt lat="37.9559853637491" lon="15.121261270980316"><ele>938.0</ele><time>2026-04-26T07:17:37Z</time></trkpt><trkpt lat="37.95611459748162" lon="15.121235773648902"><ele>941.0</ele><time>2026-04-26T07:17:38Z</time></trkpt><trkpt lat="37.9562175423709" lon="15.121240475431238"><ele>944.0</ele><time>2026-04-26T07:17:39Z</time></trkpt><trkpt lat="37.956281436986984" lon="15.121275534705962"><ele>944.0</ele><time>2026-04-26T07:17:40Z</time></trkpt><trkpt lat="37.95632295180884" lon="15.121409692690898"><ele>944.0000000000001</ele><time>2026-04-26T07:17:42Z</time></trkpt><trkpt lat="37.956286137916315" lon="15.12148205070712"><ele>944.0000000000001</ele><time>2026-04-26T07:17:43Z</time></trkpt><trkpt lat="37.95620522029195" lon="15.121505928068755"><ele>944.0</ele><time>2026-04-26T07:17:44Z</time></trkpt><trkpt lat="37.956117010168214" lon="15.121533889821965"><ele>944.0</ele><time>2026-04-26T07:17:45Z</time></trkpt><trkpt lat="37.9560119889265" lon="15.12153817012811"><ele>945.25</ele><time>2026-04-26T07:17:46Z</time></trkpt><trkpt lat="37.955898305655914" lon="15.121573851539672"><ele>946.5</ele><time>2026-04-26T07:17:47Z</time></trkpt><trkpt lat="37.955782451819395" lon="15.121650721730818"><ele>947.75</ele><time>2026-04-26T07:17:48Z</time></trkpt><trkpt lat="37.95566701336556" lon="15.12175506422193"><ele>949.0</ele><time>2026-04-26T07:17:49Z</time></trkpt><trkpt lat="37.955548272355834" lon="15.121876090652625"><ele>949.0</ele><time>2026-04-26T07:17:50Z</time></trkpt><trkpt lat="37.9554218277241" lon="15.122004204330981"><ele>949.0</ele><time>2026-04-26T07:17:51Z</time></trkpt><trkpt lat="37.95529023432691" lon="15.122133127152635"><ele>949.0</ele><time>2026-04-26T07:17:52Z</time></trkpt><trkpt lat="37.95516836509673" lon="15.122266259816817"><ele>950.6666666666666</ele><time>2026-04-26T07:17:53Z</time></trkpt><trkpt lat="37.95508176608207" lon="15.12242841316505"><ele>952.3333333333333</ele><time>2026-04-26T07:17:54Z</time></trkpt><trkpt lat="37.95502987803162" lon="15.122620526927705"><ele>954.0</ele><time>2026-04-26T07:17:55Z</time></trkpt><trkpt lat="37.95500745224738" lon="15.12282053895549"><ele>954.0</ele><time>2026-04-26T07:17:56Z</time></trkpt><trkpt lat="37.95495138403671" lon="15.12298649864208"><ele>954.0</ele><time>2026-04-26T07:17:57Z</time></trkpt><trkpt lat="37.95489663182554" lon="15.12313019962793"><ele>954.0</ele><time>2026-04-26T07:17:58Z</time></trkpt><trkpt lat="37.95480674956394" lon="15.123227882382574"><ele>954.0</ele><time>2026-04-26T07:17:59Z</time></trkpt><trkpt lat="37.95469766071666" lon="15.123285001183147"><ele>954.0</ele><time>2026-04-26T07:18:00Z</time></trkpt><trkpt lat="37.95457287097325" lon="15.123294876791302"><ele>954.0</ele><time>2026-04-26T07:18:01Z</time></trkpt><trkpt lat="37.95444701503533" lon="15.123310603733866"><ele>954.0</ele><time>2026-04-26T07:18:02Z</time></trkpt><trkpt lat="37.95431730063755" lon="15.123359087397606"><ele>954.0</ele><time>2026-04-26T07:18:03Z</time></trkpt><trkpt lat="37.95420047379691" lon="15.12346274828986"><ele>954.0</ele><time>2026-04-26T07:18:04Z</time></trkpt><trkpt lat="37.954088839280786" lon="15.123591576759958"><ele>954.0</ele><time>2026-04-26T07:18:05Z</time></trkpt><trkpt lat="37.953968360599525" lon="15.123712511542124"><ele>954.0</ele><time>2026-04-26T07:18:06Z</time></trkpt><trkpt lat="37.95385874578051" lon="15.123835689535616"><ele>954.0</ele><time>2026-04-26T07:18:07Z</time></trkpt><trkpt lat="37.95378631689152" lon="15.123963124280705"><ele>954.0</ele><time>2026-04-26T07:18:08Z</time></trkpt><trkpt lat="37.95376012065019" lon="15.12411139262475"><ele>954.0</ele><time>2026-04-26T07:18:09Z</time></trkpt><trkpt lat="37.95377083774687" lon="15.124278450470813"><ele>954.0</ele><time>2026-04-26T07:18:10Z</time></trkpt><trkpt lat="37.953804688945034" lon="15.12445525157951"><ele>960.3333333333333</ele><time>2026-04-26T07:18:11Z</time></trkpt><trkpt lat="37.95383495959896" lon="15.12464207344647"><ele>966.6666666666666</ele><time>2026-04-26T07:18:12Z</time></trkpt><trkpt lat="37.95385080462625" lon="15.124844210968334"><ele>973.0</ele><time>2026-04-26T07:18:13Z</time></trkpt><trkpt lat="37.95384316430933" lon="15.125052009722923"><ele>975.6666666666666</ele><time>2026-04-26T07:18:14Z</time></trkpt><trkpt lat="37.953794843248794" lon="15.12524444153643"><ele>978.3333333333333</ele><time>2026-04-26T07:18:15Z</time></trkpt><trkpt lat="37.95370877684096" lon="15.125410509665603"><ele>981.0</ele><time>2026-04-26T07:18:16Z</time></trkpt><trkpt lat="37.953588541370955" lon="15.12554411909294"><ele>981.0</ele><time>2026-04-26T07:18:17Z</time></trkpt><trkpt lat="37.95347349311448" lon="15.125691464474762"><ele>981.0</ele><time>2026-04-26T07:18:18Z</time></trkpt><trkpt lat="37.953364014408564" lon="15.125831200357398"><ele>981.0</ele><time>2026-04-26T07:18:19Z</time></trkpt><trkpt lat="37.95327259538234" lon="15.125957433597284"><ele>981.5999999999999</ele><time>2026-04-26T07:18:20Z</time></trkpt><trkpt lat="37.953211995687475" lon="15.126060897437437"><ele>982.1999999999999</ele><time>2026-04-26T07:18:21Z</time></trkpt><trkpt lat="37.95318722241585" lon="15.126160763326427"><ele>982.8000000000001</ele><time>2026-04-26T07:18:22Z</time></trkpt><trkpt lat="37.95320945977988" lon="15.126262392009727"><ele>983.4000000000001</ele><time>2026-04-26T07:18:23Z</time></trkpt><trkpt lat="37.95327787929846" lon="15.126330777509853"><ele>984.0</ele><time>2026-04-26T07:18:24Z</time></trkpt><trkpt lat="37.95337448655643" lon="15.1263466779854"><ele>984.0</ele><time>2026-04-26T07:18:25Z</time></trkpt><trkpt lat="37.953489172052905" lon="15.126304581102671"><ele>984.0</ele><time>2026-04-26T07:18:26Z</time></trkpt><trkpt lat="37.95362259407485" lon="15.126238430362072"><ele>984.0</ele><time>2026-04-26T07:18:27Z</time></trkpt><trkpt lat="37.9537783691011" lon="15.126209941278498"><ele>984.0</ele><time>2026-04-26T07:18:28Z</time></trkpt><trkpt lat="37.953954002737895" lon="15.126145936941894"><ele>984.0</ele><time>2026-04-26T07:18:29Z</time></trkpt><trkpt lat="37.95415155723187" lon="15.126097172097504"><ele>984.0</ele><time>2026-04-26T07:18:30Z</time></trkpt><trkpt lat="37.9543647813328" lon="15.126020709444079"><ele>984.0</ele><time>2026-04-26T07:18:31Z</time></trkpt><trkpt lat="37.954588540578875" lon="15.125921715428646"><ele>985.0</ele><time>2026-04-26T07:18:32Z</time></trkpt><trkpt lat="37.95479351350614" lon="15.12583469836962"><ele>986.0</ele><time>2026-04-26T07:18:33Z</time></trkpt><trkpt lat="37.954982758070514" lon="15.125773779330824"><ele>987.0</ele><time>2026-04-26T07:18:34Z</time></trkpt><trkpt lat="37.955157069119515" lon="15.125761295196968"><ele>988.0</ele><time>2026-04-26T07:18:35Z</time></trkpt><trkpt lat="37.95532748215256" lon="15.125784137093067"><ele>989.0</ele><time>2026-04-26T07:18:36Z</time></trkpt><trkpt lat="37.95549319643154" lon="15.125830927844538"><ele>990.0</ele><time>2026-04-26T07:18:37Z</time></trkpt><trkpt lat="37.95564628639128" lon="15.125863989818482"><ele>990.0</ele><time>2026-04-26T07:18:38Z</time></trkpt><trkpt lat="37.9557841396101" lon="15.125885330274166"><ele>990.0</ele><time>2026-04-26T07:18:39Z</time></trkpt><trkpt lat="37.95590827483525" lon="15.125871704457902"><ele>990.0</ele><time>2026-04-26T07:18:40Z</time></trkpt><trkpt lat="37.95603073755265" lon="15.12581454111447"><ele>990.0</ele><time>2026-04-26T07:18:41Z</time></trkpt><trkpt lat="37.95615140724202" lon="15.125716657306285"><ele>1002.3333333333333</ele><time>2026-04-26T07:18:42Z</time></trkpt><trkpt lat="37.95628599219579" lon="15.125618287321728"><ele>1014.6666666666666</ele><time>2026-04-26T07:18:43Z</time></trkpt><trkpt lat="37.956444283156564" lon="15.125553287132394"><ele>1027.0</ele><time>2026-04-26T07:18:44Z</time></trkpt><trkpt lat="37.95661434798558" lon="15.125493698123293"><ele>1023.3333333333333</ele><time>2026-04-26T07:18:45Z</time></trkpt><trkpt lat="37.956797355483026" lon="15.125457433811576"><ele>1019.6666666666667</ele><time>2026-04-26T07:18:46Z</time></trkpt><trkpt lat="37.95699006680329" lon="15.125415706012348"><ele>1016.0</ele><time>2026-04-26T07:18:47Z</time></trkpt><trkpt lat="37.95718150744642" lon="15.12533631913047"><ele>1016.0</ele><time>2026-04-26T07:18:48Z</time></trkpt><trkpt lat="37.95735889536355" lon="15.125269710443927"><ele>1016.0</ele><time>2026-04-26T07:18:49Z</time></trkpt><trkpt lat="37.95752188770154" lon="15.125234443124008"><ele>1016.0</ele><time>2026-04-26T07:18:50Z</time></trkpt><trkpt lat="37.957672460346494" lon="15.125221204634538"><ele>1017.75</ele><time>2026-04-26T07:18:51Z</time></trkpt><trkpt lat="37.95781340538299" lon="15.125231107599896"><ele>1019.5</ele><time>2026-04-26T07:18:52Z</time></trkpt><trkpt lat="37.957952981390974" lon="15.12526410367884"><ele>1021.25</ele><time>2026-04-26T07:18:53Z</time></trkpt><trkpt lat="37.95808706843462" lon="15.125304999730615"><ele>1023.0</ele><time>2026-04-26T07:18:54Z</time></trkpt><trkpt lat="37.95822534093717" lon="15.12533225813641"><ele>1023.0</ele><time>2026-04-26T07:18:55Z</time></trkpt><trkpt lat="37.95836188365979" lon="15.125371447785737"><ele>1023.0</ele><time>2026-04-26T07:18:56Z</time></trkpt><trkpt lat="37.95848339081602" lon="15.125469802500113"><ele>1023.0</ele><time>2026-04-26T07:18:57Z</time></trkpt><trkpt lat="37.95857487596099" lon="15.12561201917711"><ele>1023.0</ele><time>2026-04-26T07:18:58Z</time></trkpt><trkpt lat="37.95866786593451" lon="15.125750872047483"><ele>1021.0</ele><time>2026-04-26T07:18:59Z</time></trkpt><trkpt lat="37.95880067983921" lon="15.12583423871327"><ele>1019.0</ele><time>2026-04-26T07:19:00Z</time></trkpt><trkpt lat="37.95895406632248" lon="15.125883330465973"><ele>1017.0</ele><time>2026-04-26T07:19:01Z</time></trkpt><trkpt lat="37.95910876240729" lon="15.125946344150721"><ele>1023.6666666666667</ele><time>2026-04-26T07:19:02Z</time></trkpt><trkpt lat="37.959272160562044" lon="15.126019530581496"><ele>1030.3333333333335</ele><time>2026-04-26T07:19:03Z</time></trkpt><trkpt lat="37.95943690712883" lon="15.12609637466366"><ele>1037.0</ele><time>2026-04-26T07:19:04Z</time></trkpt><trkpt lat="37.95960769186571" lon="15.126169512078306"><ele>1037.0</ele><time>2026-04-26T07:19:05Z</time></trkpt><trkpt lat="37.95978145027505" lon="15.126244884383519"><ele>1037.0</ele><time>2026-04-26T07:19:06Z</time></trkpt><trkpt lat="37.95995739362817" lon="15.126329719401372"><ele>1037.0</ele><time>2026-04-26T07:19:07Z</time></trkpt><trkpt lat="37.960123204840386" lon="15.126449998650529"><ele>1035.6666666666667</ele><time>2026-04-26T07:19:08Z</time></trkpt><trkpt lat="37.960281430063496" lon="15.126589551049614"><ele>1034.3333333333333</ele><time>2026-04-26T07:19:09Z</time></trkpt><trkpt lat="37.96044636055203" lon="15.12672195296477"><ele>1033.0</ele><time>2026-04-26T07:19:10Z</time></trkpt><trkpt lat="37.960610935177066" lon="15.126838636792444"><ele>1033.0</ele><time>2026-04-26T07:19:11Z</time></trkpt><trkpt lat="37.960766754555706" lon="15.126939617759142"><ele>1033.0</ele><time>2026-04-26T07:19:12Z</time></trkpt><trkpt lat="37.960909777186295" lon="15.127032975585841"><ele>1033.0</ele><time>2026-04-26T07:19:13Z</time></trkpt><trkpt lat="37.96103395637545" lon="15.127115646108706"><ele>1035.5</ele><time>2026-04-26T07:19:14Z</time></trkpt><trkpt lat="37.96113379423822" lon="15.127202915911871"><ele>1038.0</ele><time>2026-04-26T07:19:15Z</time></trkpt><trkpt lat="37.961201309833854" lon="15.127323257982914"><ele>1040.5</ele><time>2026-04-26T07:19:16Z</time></trkpt><trkpt lat="37.96123613982779" lon="15.127479236060825"><ele>1043.0</ele><time>2026-04-26T07:19:17Z</time></trkpt><trkpt lat="37.96125835913671" lon="15.12764250508095"><ele>1043.0</ele><time>2026-04-26T07:19:18Z</time></trkpt><trkpt lat="37.961311484638244" lon="15.127798196215087"><ele>1043.0</ele><time>2026-04-26T07:19:19Z</time></trkpt><trkpt lat="37.961399488316616" lon="15.127950409886806"><ele>1043.0</ele><time>2026-04-26T07:19:20Z</time></trkpt><trkpt lat="37.96151762159068" lon="15.128082198374127"><ele>1043.0</ele><time>2026-04-26T07:19:21Z</time></trkpt><trkpt lat="37.961657303770934" lon="15.128202288384244"><ele>1047.6666666666667</ele><time>2026-04-26T07:19:22Z</time></trkpt><trkpt lat="37.961800752939254" lon="15.128339227156648"><ele>1052.3333333333333</ele><time>2026-04-26T07:19:23Z</time></trkpt><trkpt lat="37.961945372310986" lon="15.12849270894724"><ele>1057.0</ele><time>2026-04-26T07:19:24Z</time></trkpt><trkpt lat="37.962099872395356" lon="15.128636787157763"><ele>1057.0</ele><time>2026-04-26T07:19:25Z</time></trkpt><trkpt lat="37.96225242852018" lon="15.128782167325728"><ele>1057.0</ele><time>2026-04-26T07:19:26Z</time></trkpt><trkpt lat="37.96239437995405" lon="15.128910198894467"><ele>1057.0</ele><time>2026-04-26T07:19:27Z</time></trkpt><trkpt lat="37.96254352592966" lon="15.129015899677414"><ele>1056.0</ele><time>2026-04-26T07:19:28Z</time></trkpt><trkpt lat="37.962712120753416" lon="15.129071974191673"><ele>1055.0</ele><time>2026-04-26T07:19:29Z</time></trkpt><trkpt lat="37.96286433641031" lon="15.12911519224877"><ele>1054.0</ele><time>2026-04-26T07:19:30Z</time></trkpt><trkpt lat="37.96296655929769" lon="15.129183608682673"><ele>1053.0</ele><time>2026-04-26T07:19:31Z</time></trkpt><trkpt lat="37.96303726033842" lon="15.129276478062927"><ele>1053.0</ele><time>2026-04-26T07:19:32Z</time></trkpt><trkpt lat="37.96309209041847" lon="15.129389217165347"><ele>1053.0</ele><time>2026-04-26T07:19:33Z</time></trkpt><trkpt lat="37.963172057623005" lon="15.12950512555724"><ele>1053.0</ele><time>2026-04-26T07:19:34Z</time></trkpt><trkpt lat="37.963295113726204" lon="15.129596111106522"><ele>1053.0</ele><time>2026-04-26T07:19:35Z</time></trkpt><trkpt lat="37.96344038756408" lon="15.129671499414837"><ele>1058.0</ele><time>2026-04-26T07:19:36Z</time></trkpt><trkpt lat="37.96358071964904" lon="15.129745033012288"><ele>1063.0</ele><time>2026-04-26T07:19:37Z</time></trkpt><trkpt lat="37.9637249639287" lon="15.129778589397748"><ele>1068.0</ele><time>2026-04-26T07:19:38Z</time></trkpt><trkpt lat="37.963883690060264" lon="15.12975396961191"><ele>1068.0</ele><time>2026-04-26T07:19:39Z</time></trkpt><trkpt lat="37.96405296365417" lon="15.129721175942132"><ele>1068.0</ele><time>2026-04-26T07:19:40Z</time></trkpt><trkpt lat="37.96423772811051" lon="15.129721895573068"><ele>1068.0</ele><time>2026-04-26T07:19:41Z</time></trkpt><trkpt lat="37.964424830458626" lon="15.129697401612091"><ele>1073.3333333333333</ele><time>2026-04-26T07:19:42Z</time></trkpt><trkpt lat="37.96461217182911" lon="15.129728772174719"><ele>1078.6666666666665</ele><time>2026-04-26T07:19:43Z</time></trkpt><trkpt lat="37.96479272438179" lon="15.129802808868316"><ele>1084.0</ele><time>2026-04-26T07:19:44Z</time></trkpt><trkpt lat="37.96496829694858" lon="15.129915182166373"><ele>1086.0</ele><time>2026-04-26T07:19:45Z</time></trkpt><trkpt lat="37.965148407122655" lon="15.130047952143036"><ele>1088.0</ele><time>2026-04-26T07:19:46Z</time></trkpt><trkpt lat="37.965331906491336" lon="15.130173591885336"><ele>1090.0</ele><time>2026-04-26T07:19:47Z</time></trkpt><trkpt lat="37.96549974217186" lon="15.130281799088975"><ele>1090.0</ele><time>2026-04-26T07:19:48Z</time></trkpt><trkpt lat="37.96564269834442" lon="15.130370584908631"><ele>1090.0</ele><time>2026-04-26T07:19:49Z</time></trkpt><trkpt lat="37.965760195268096" lon="15.13045363565392"><ele>1090.0</ele><time>2026-04-26T07:19:50Z</time></trkpt><trkpt lat="37.96585376736236" lon="15.130555070236069"><ele>1090.0</ele><time>2026-04-26T07:19:51Z</time></trkpt><trkpt lat="37.9659186569349" lon="15.130668795250557"><ele>1095.75</ele><time>2026-04-26T07:19:52Z</time></trkpt><trkpt lat="37.96597387474099" lon="15.130790632677181"><ele>1101.5</ele><time>2026-04-26T07:19:53Z</time></trkpt><trkpt lat="37.966022197771096" lon="15.130928935573712"><ele>1107.25</ele><time>2026-04-26T07:19:54Z</time></trkpt><trkpt lat="37.966087785689275" lon="15.131072425841676"><ele>1113.0</ele><time>2026-04-26T07:19:55Z</time></trkpt><trkpt lat="37.966171657127305" lon="15.131214818330026"><ele>1113.0</ele><time>2026-04-26T07:19:56Z</time></trkpt><trkpt lat="37.96626016628338" lon="15.13136475813491"><ele>1113.0</ele><time>2026-04-26T07:19:57Z</time></trkpt><trkpt lat="37.9663467720099" lon="15.131537939740756"><ele>1113.0</ele><time>2026-04-26T07:19:58Z</time></trkpt><trkpt lat="37.966429305094586" lon="15.131736148283885"><ele>1111.0</ele><time>2026-04-26T07:19:59Z</time></trkpt><trkpt lat="37.966512376644424" lon="15.131947839086132"><ele>1109.0</ele><time>2026-04-26T07:20:00Z</time></trkpt><trkpt lat="37.96660495559761" lon="15.13217001774376"><ele>1107.0</ele><time>2026-04-26T07:20:01Z</time></trkpt><trkpt lat="37.96669871742507" lon="15.13239837501228"><ele>1107.0</ele><time>2026-04-26T07:20:02Z</time></trkpt><trkpt lat="37.96680126321249" lon="15.13261270598541"><ele>1107.0</ele><time>2026-04-26T07:20:03Z</time></trkpt><trkpt lat="37.96690929432807" lon="15.132802769026277"><ele>1107.0</ele><time>2026-04-26T07:20:04Z</time></trkpt><trkpt lat="37.966991286496864" lon="15.132985344398367"><ele>1107.0</ele><time>2026-04-26T07:20:05Z</time></trkpt><trkpt lat="37.967052265180065" lon="15.133144852393647"><ele>1107.0</ele><time>2026-04-26T07:20:06Z</time></trkpt><trkpt lat="37.967111410792825" lon="15.133264088311078"><ele>1107.0</ele><time>2026-04-26T07:20:07Z</time></trkpt><trkpt lat="37.967187865862364" lon="15.133352243847565"><ele>1107.0</ele><time>2026-04-26T07:20:08Z</time></trkpt><trkpt lat="37.96728792279378" lon="15.133398301860463"><ele>1104.0</ele><time>2026-04-26T07:20:09Z</time></trkpt><trkpt lat="37.96740393226257" lon="15.133394712112718"><ele>1101.0</ele><time>2026-04-26T07:20:10Z</time></trkpt><trkpt lat="37.9675347643014" lon="15.133357420677866"><ele>1098.0</ele><time>2026-04-26T07:20:11Z</time></trkpt><trkpt lat="37.96767946334187" lon="15.133319278659048"><ele>1095.0</ele><time>2026-04-26T07:20:12Z</time></trkpt><trkpt lat="37.96782884080221" lon="15.133290989918152"><ele>1095.0</ele><time>2026-04-26T07:20:13Z</time></trkpt><trkpt lat="37.9679491703602" lon="15.133242858056494"><ele>1095.0</ele><time>2026-04-26T07:20:14Z</time></trkpt><trkpt lat="37.968052989478274" lon="15.133194811296455"><ele>1095.0</ele><time>2026-04-26T07:20:15Z</time></trkpt><trkpt lat="37.9681418662022" lon="15.133117085494861"><ele>1095.0</ele><time>2026-04-26T07:20:16Z</time></trkpt><trkpt lat="37.96821207888147" lon="15.133052549537652"><ele>1095.0</ele><time>2026-04-26T07:20:17Z</time></trkpt><trkpt lat="37.96827532616833" lon="15.133009840415202"><ele>1099.4</ele><time>2026-04-26T07:20:18Z</time></trkpt><trkpt lat="37.96835061694852" lon="15.13305662291139"><ele>1103.8</ele><time>2026-04-26T07:20:19Z</time></trkpt><trkpt lat="37.96840839646162" lon="15.13315127651848"><ele>1108.2</ele><time>2026-04-26T07:20:20Z</time></trkpt><trkpt lat="37.968440966369194" lon="15.13329367991445"><ele>1112.6</ele><time>2026-04-26T07:20:21Z</time></trkpt><trkpt lat="37.968441587247824" lon="15.133443985372793"><ele>1117.0</ele><time>2026-04-26T07:20:22Z</time></trkpt><trkpt lat="37.96839628116423" lon="15.133602265038055"><ele>1111.5</ele><time>2026-04-26T07:20:23Z</time></trkpt><trkpt lat="37.96834513028894" lon="15.133764275406302"><ele>1106.0</ele><time>2026-04-26T07:20:24Z</time></trkpt><trkpt lat="37.968333044996015" lon="15.13393779480034"><ele>1100.5</ele><time>2026-04-26T07:20:25Z</time></trkpt><trkpt lat="37.968371422958505" lon="15.134089100544958"><ele>1095.0</ele><time>2026-04-26T07:20:26Z</time></trkpt><trkpt lat="37.96843579148995" lon="15.134210424523966"><ele>1094.8</ele><time>2026-04-26T07:20:27Z</time></trkpt><trkpt lat="37.96845976418775" lon="15.134322936325677"><ele>1094.6</ele><time>2026-04-26T07:20:28Z</time></trkpt><trkpt lat="37.96843955336043" lon="15.134445917197711"><ele>1094.4</ele><time>2026-04-26T07:20:29Z</time></trkpt><trkpt lat="37.96837439231526" lon="15.134565508811347"><ele>1094.2</ele><time>2026-04-26T07:20:30Z</time></trkpt><trkpt lat="37.96826522671552" lon="15.134673451175372"><ele>1094.0</ele><time>2026-04-26T07:20:31Z</time></trkpt><trkpt lat="37.96817160327017" lon="15.134805805800317"><ele>1098.0</ele><time>2026-04-26T07:20:32Z</time></trkpt><trkpt lat="37.96810854897526" lon="15.13497929231144"><ele>1102.0</ele><time>2026-04-26T07:20:33Z</time></trkpt><trkpt lat="37.96807971463941" lon="15.135179947690265"><ele>1106.0</ele><time>2026-04-26T07:20:34Z</time></trkpt><trkpt lat="37.96806022848471" lon="15.135389844504846"><ele>1106.0</ele><time>2026-04-26T07:20:35Z</time></trkpt><trkpt lat="37.968023101782386" lon="15.135582190809286"><ele>1106.0</ele><time>2026-04-26T07:20:36Z</time></trkpt><trkpt lat="37.96797933242907" lon="15.135777994995046"><ele>1106.0</ele><time>2026-04-26T07:20:37Z</time></trkpt><trkpt lat="37.96796144982668" lon="15.136007133264258"><ele>1110.6666666666667</ele><time>2026-04-26T07:20:38Z</time></trkpt><trkpt lat="37.96797599214882" lon="15.1362661280656"><ele>1115.3333333333333</ele><time>2026-04-26T07:20:39Z</time></trkpt><trkpt lat="37.968000927327914" lon="15.136515127912528"><ele>1120.0</ele><time>2026-04-26T07:20:40Z</time></trkpt><trkpt lat="37.96801526196251" lon="15.136723012196196"><ele>1120.0</ele><time>2026-04-26T07:20:41Z</time></trkpt><trkpt lat="37.96803280266063" lon="15.136883191058352"><ele>1120.0</ele><time>2026-04-26T07:20:42Z</time></trkpt><trkpt lat="37.96806896258723" lon="15.136990988168314"><ele>1120.0</ele><time>2026-04-26T07:20:43Z</time></trkpt><trkpt lat="37.96814396209157" lon="15.137074397965414"><ele>1120.0</ele><time>2026-04-26T07:20:44Z</time></trkpt><trkpt lat="37.96824851733129" lon="15.137107164638845"><ele>1120.0</ele><time>2026-04-26T07:20:45Z</time></trkpt><trkpt lat="37.96835986654611" lon="15.1370781304794"><ele>1123.0</ele><time>2026-04-26T07:20:46Z</time></trkpt><trkpt lat="37.96847360799461" lon="15.136998518278451"><ele>1126.0</ele><time>2026-04-26T07:20:47Z</time></trkpt><trkpt lat="37.96859693659272" lon="15.136910821045149"><ele>1129.0</ele><time>2026-04-26T07:20:48Z</time></trkpt><trkpt lat="37.968740424012395" lon="15.13684549055141"><ele>1132.0</ele><time>2026-04-26T07:20:49Z</time></trkpt><trkpt lat="37.96890248159901" lon="15.13681283452303"><ele>1132.0</ele><time>2026-04-26T07:20:50Z</time></trkpt><trkpt lat="37.96906873187419" lon="15.136795543987377"><ele>1132.0</ele><time>2026-04-26T07:20:51Z</time></trkpt><trkpt lat="37.96921366478928" lon="15.136805011312736"><ele>1132.0</ele><time>2026-04-26T07:20:52Z</time></trkpt><trkpt lat="37.96933510092837" lon="15.136829561810364"><ele>1132.0</ele><time>2026-04-26T07:20:53Z</time></trkpt><trkpt lat="37.96943775118872" lon="15.136837174130944"><ele>1127.75</ele><time>2026-04-26T07:20:54Z</time></trkpt><trkpt lat="37.96954093560526" lon="15.136754581437112"><ele>1123.5</ele><time>2026-04-26T07:20:55Z</time></trkpt><trkpt lat="37.969640414034856" lon="15.136636222968558"><ele>1119.25</ele><time>2026-04-26T07:20:56Z</time></trkpt><trkpt lat="37.969753642174474" lon="15.136505207264694"><ele>1115.0</ele><time>2026-04-26T07:20:57Z</time></trkpt><trkpt lat="37.969877667140146" lon="15.136379659717278"><ele>1114.3333333333335</ele><time>2026-04-26T07:20:58Z</time></trkpt><trkpt lat="37.969998907601976" lon="15.13623338633027"><ele>1113.6666666666667</ele><time>2026-04-26T07:20:59Z</time></trkpt><trkpt lat="37.97012355858007" lon="15.136077685928024"><ele>1113.0</ele><time>2026-04-26T07:21:00Z</time></trkpt><trkpt lat="37.97024524205473" lon="15.135904294606203"><ele>1113.0</ele><time>2026-04-26T07:21:01Z</time></trkpt><trkpt lat="37.97036203215172" lon="15.135721534191733"><ele>1113.0</ele><time>2026-04-26T07:21:02Z</time></trkpt><trkpt lat="37.97047784520282" lon="15.135541432674108"><ele>1113.0</ele><time>2026-04-26T07:21:03Z</time></trkpt><trkpt lat="37.97057542028104" lon="15.135371000582248"><ele>1119.5</ele><time>2026-04-26T07:21:04Z</time></trkpt><trkpt lat="37.970670072117734" lon="15.135215397414823"><ele>1126.0</ele><time>2026-04-26T07:21:05Z</time></trkpt><trkpt lat="37.970732276536395" lon="15.135049947578665"><ele>1132.5</ele><time>2026-04-26T07:21:06Z</time></trkpt><trkpt lat="37.97081149991119" lon="15.134917313928693"><ele>1139.0</ele><time>2026-04-26T07:21:07Z</time></trkpt><trkpt lat="37.97090620831793" lon="15.134791189252018"><ele>1142.5</ele><time>2026-04-26T07:21:08Z</time></trkpt><trkpt lat="37.971048113502775" lon="15.13473102319087"><ele>1146.0</ele><time>2026-04-26T07:21:09Z</time></trkpt><trkpt lat="37.97117457112215" lon="15.134661810462829"><ele>1149.5</ele><time>2026-04-26T07:21:10Z</time></trkpt><trkpt lat="37.97127935569531" lon="15.13463340633279"><ele>1153.0</ele><time>2026-04-26T07:21:11Z</time></trkpt><trkpt lat="37.97137062625638" lon="15.134616953416419"><ele>1153.0</ele><time>2026-04-26T07:21:12Z</time></trkpt><trkpt lat="37.971447816243646" lon="15.134609521991324"><ele>1153.0</ele><time>2026-04-26T07:21:13Z</time></trkpt><trkpt lat="37.971514619088005" lon="15.13464858276574"><ele>1153.0</ele><time>2026-04-26T07:21:14Z</time></trkpt><trkpt lat="37.97155633368447" lon="15.13473216885936"><ele>1153.0</ele><time>2026-04-26T07:21:15Z</time></trkpt><trkpt lat="37.971554350696756" lon="15.134851792149181"><ele>1153.0</ele><time>2026-04-26T07:21:16Z</time></trkpt><trkpt lat="37.971546449028686" lon="15.134983724506588"><ele>1153.0</ele><time>2026-04-26T07:21:17Z</time></trkpt><trkpt lat="37.971588643154185" lon="15.13513552281547"><ele>1149.5</ele><time>2026-04-26T07:21:18Z</time></trkpt><trkpt lat="37.97165286865786" lon="15.135293039122553"><ele>1146.0</ele><time>2026-04-26T07:21:19Z</time></trkpt><trkpt lat="37.971708110348224" lon="15.13543335898804"><ele>1142.5</ele><time>2026-04-26T07:21:20Z</time></trkpt><trkpt lat="37.97179768592813" lon="15.13553555190265"><ele>1139.0</ele><time>2026-04-26T07:21:21Z</time></trkpt><trkpt lat="37.97190963071378" lon="15.135587714875982"><ele>1143.75</ele><time>2026-04-26T07:21:22Z</time></trkpt><trkpt lat="37.97200745664868" lon="15.135668451681331"><ele>1148.5</ele><time>2026-04-26T07:21:23Z</time></trkpt><trkpt lat="37.97207209375279" lon="15.135790355860289"><ele>1153.25</ele><time>2026-04-26T07:21:24Z</time></trkpt><trkpt lat="37.97208779963627" lon="15.135938053539546"><ele>1158.0</ele><time>2026-04-26T07:21:25Z</time></trkpt><trkpt lat="37.97207579835922" lon="15.13608833338332"><ele>1158.0</ele><time>2026-04-26T07:21:26Z</time></trkpt><trkpt lat="37.972054437270835" lon="15.136224119800978"><ele>1158.0</ele><time>2026-04-26T07:21:27Z</time></trkpt><trkpt lat="37.97207599022008" lon="15.136347791232952"><ele>1158.0</ele><time>2026-04-26T07:21:28Z</time></trkpt><trkpt lat="37.97215226524651" lon="15.136444353517286"><ele>1158.0</ele><time>2026-04-26T07:21:29Z</time></trkpt><trkpt lat="37.97225939969377" lon="15.136505465780251"><ele>1158.0</ele><time>2026-04-26T07:21:30Z</time></trkpt><trkpt lat="37.97239787616801" lon="15.136507217764397"><ele>1164.6666666666667</ele><time>2026-04-26T07:21:31Z</time></trkpt><trkpt lat="37.97254345337977" lon="15.136471359561028"><ele>1171.3333333333335</ele><time>2026-04-26T07:21:32Z</time></trkpt><trkpt lat="37.972710538345645" lon="15.13645451869235"><ele>1178.0</ele><time>2026-04-26T07:21:33Z</time></trkpt><trkpt lat="37.972885052762244" lon="15.13653123907134"><ele>1167.6666666666667</ele><time>2026-04-26T07:21:34Z</time></trkpt><trkpt lat="37.9730847410768" lon="15.136587799463559"><ele>1157.3333333333333</ele><time>2026-04-26T07:21:35Z</time></trkpt><trkpt lat="37.97330104568196" lon="15.136607976943141"><ele>1147.0</ele><time>2026-04-26T07:21:36Z</time></trkpt><trkpt lat="37.973509533915816" lon="15.136603627593018"><ele>1147.0</ele><time>2026-04-26T07:21:37Z</time></trkpt><trkpt lat="37.9736918637386" lon="15.136598433397914"><ele>1147.0</ele><time>2026-04-26T07:21:38Z</time></trkpt><trkpt lat="37.973855341293195" lon="15.136600652116082"><ele>1147.0</ele><time>2026-04-26T07:21:39Z</time></trkpt><trkpt lat="37.9740127862132" lon="15.13662676148277"><ele>1147.0</ele><time>2026-04-26T07:21:40Z</time></trkpt><trkpt lat="37.97416435258198" lon="15.136685938480687"><ele>1147.0</ele><time>2026-04-26T07:21:41Z</time></trkpt><trkpt lat="37.974282841371185" lon="15.1368018867046"><ele>1147.0</ele><time>2026-04-26T07:21:42Z</time></trkpt><trkpt lat="37.97438354510374" lon="15.136951359628108"><ele>1145.6666666666665</ele><time>2026-04-26T07:21:43Z</time></trkpt><trkpt lat="37.97445747529537" lon="15.137129830020942"><ele>1144.3333333333333</ele><time>2026-04-26T07:21:44Z</time></trkpt><trkpt lat="37.97455164665312" lon="15.137305548175451"><ele>1143.0</ele><time>2026-04-26T07:21:45Z</time></trkpt><trkpt lat="37.97463423318096" lon="15.137446718024849"><ele>1141.0</ele><time>2026-04-26T07:21:46Z</time></trkpt><trkpt lat="37.974718627891086" lon="15.137535938738537"><ele>1139.0</ele><time>2026-04-26T07:21:47Z</time></trkpt><trkpt lat="37.97482372730284" lon="15.137586048179951"><ele>1137.0</ele><time>2026-04-26T07:21:48Z</time></trkpt><trkpt lat="37.97496552877373" lon="15.137583328479085"><ele>1135.0</ele><time>2026-04-26T07:21:49Z</time></trkpt><trkpt lat="37.975118971506824" lon="15.137607430152153"><ele>1133.6666666666665</ele><time>2026-04-26T07:21:50Z</time></trkpt><trkpt lat="37.97526120805467" lon="15.137714960413673"><ele>1132.3333333333333</ele><time>2026-04-26T07:21:51Z</time></trkpt><trkpt lat="37.975360931458866" lon="15.137867302571104"><ele>1131.0</ele><time>2026-04-26T07:21:52Z</time></trkpt><trkpt lat="37.975469487880865" lon="15.137986769613027"><ele>1131.0</ele><time>2026-04-26T07:21:53Z</time></trkpt><trkpt lat="37.97558254226036" lon="15.138045660549162"><ele>1131.0</ele><time>2026-04-26T07:21:54Z</time></trkpt><trkpt lat="37.97569608769" lon="15.138064795450934"><ele>1131.0</ele><time>2026-04-26T07:21:55Z</time></trkpt><trkpt lat="37.975799106241496" lon="15.13806749609277"><ele>1131.0</ele><time>2026-04-26T07:21:56Z</time></trkpt><trkpt lat="37.97589410504742" lon="15.138069432246953"><ele>1131.0</ele><time>2026-04-26T07:21:57Z</time></trkpt><trkpt lat="37.97598296355448" lon="15.138080308990704"><ele>1129.2</ele><time>2026-04-26T07:21:58Z</time></trkpt><trkpt lat="37.976072273376616" lon="15.138107475311555"><ele>1127.3999999999999</ele><time>2026-04-26T07:21:59Z</time></trkpt><trkpt lat="37.976152819690746" lon="15.138167436820058"><ele>1125.6</ele><time>2026-04-26T07:22:00Z</time></trkpt><trkpt lat="37.97622629139469" lon="15.138252583668713"><ele>1123.8</ele><time>2026-04-26T07:22:01Z</time></trkpt><trkpt lat="37.97631443045457" lon="15.138343654093115"><ele>1122.0</ele><time>2026-04-26T07:22:02Z</time></trkpt><trkpt lat="37.97640650919812" lon="15.138459222319186"><ele>1122.0</ele><time>2026-04-26T07:22:03Z</time></trkpt><trkpt lat="37.97649055267387" lon="15.138580850709339"><ele>1122.0</ele><time>2026-04-26T07:22:04Z</time></trkpt><trkpt lat="37.97658924440928" lon="15.13868861173547"><ele>1122.0</ele><time>2026-04-26T07:22:05Z</time></trkpt><trkpt lat="37.976707766616734" lon="15.138764639936909"><ele>1122.0</ele><time>2026-04-26T07:22:06Z</time></trkpt><trkpt lat="37.976842819177065" lon="15.13879900069545"><ele>1118.75</ele><time>2026-04-26T07:22:07Z</time></trkpt><trkpt lat="37.976976859553616" lon="15.138812986609391"><ele>1115.5</ele><time>2026-04-26T07:22:08Z</time></trkpt><trkpt lat="37.97712174603926" lon="15.138818345613897"><ele>1112.25</ele><time>2026-04-26T07:22:09Z</time></trkpt><trkpt lat="37.97726092866383" lon="15.138847417082243"><ele>1109.0</ele><time>2026-04-26T07:22:10Z</time></trkpt><trkpt lat="37.97739885534029" lon="15.138913560816302"><ele>1110.0</ele><time>2026-04-26T07:22:11Z</time></trkpt><trkpt lat="37.97753803901786" lon="15.138989592770217"><ele>1111.0</ele><time>2026-04-26T07:22:12Z</time></trkpt><trkpt lat="37.97766315198965" lon="15.139060957423128"><ele>1112.0</ele><time>2026-04-26T07:22:13Z</time></trkpt><trkpt lat="37.97777863500181" lon="15.139151474504649"><ele>1113.0</ele><time>2026-04-26T07:22:14Z</time></trkpt><trkpt lat="37.97787281466367" lon="15.139217997938157"><ele>1113.0</ele><time>2026-04-26T07:22:15Z</time></trkpt><trkpt lat="37.977963402642345" lon="15.139268272621619"><ele>1113.0</ele><time>2026-04-26T07:22:16Z</time></trkpt><trkpt lat="37.9780458366009" lon="15.139286239557455"><ele>1113.0</ele><time>2026-04-26T07:22:17Z</time></trkpt><trkpt lat="37.9781247434248" lon="15.139260649029866"><ele>1113.0</ele><time>2026-04-26T07:22:18Z</time></trkpt><trkpt lat="37.97817612595409" lon="15.139172895770388"><ele>1113.0</ele><time>2026-04-26T07:22:19Z</time></trkpt><trkpt lat="37.9781512212806" lon="15.139037544748678"><ele>1108.0</ele><time>2026-04-26T07:22:20Z</time></trkpt><trkpt lat="37.978088031866726" lon="15.138958500663229"><ele>1103.0</ele><time>2026-04-26T07:22:21Z</time></trkpt><trkpt lat="37.97799623622286" lon="15.138918947226516"><ele>1098.0</ele><time>2026-04-26T07:22:22Z</time></trkpt><trkpt lat="37.97790224918698" lon="15.138894596764825"><ele>1093.0</ele><time>2026-04-26T07:22:23Z</time></trkpt><trkpt lat="37.97779182465386" lon="15.138866555301655"><ele>1088.0</ele><time>2026-04-26T07:22:24Z</time></trkpt><trkpt lat="37.977699136498465" lon="15.138790420086545"><ele>1088.0</ele><time>2026-04-26T07:22:25Z</time></trkpt><trkpt lat="37.977595861441024" lon="15.138708704697143"><ele>1088.0</ele><time>2026-04-26T07:22:26Z</time></trkpt><trkpt lat="37.97748936326721" lon="15.138620011380194"><ele>1088.0</ele><time>2026-04-26T07:22:27Z</time></trkpt><trkpt lat="37.97740033903623" lon="15.138509147739374"><ele>1088.0</ele><time>2026-04-26T07:22:28Z</time></trkpt><trkpt lat="37.977296121887285" lon="15.138387353843832"><ele>1085.25</ele><time>2026-04-26T07:22:29Z</time></trkpt><trkpt lat="37.9771957228864" lon="15.138264269994092"><ele>1082.5</ele><time>2026-04-26T07:22:30Z</time></trkpt><trkpt lat="37.9770731560223" lon="15.138166678785828"><ele>1079.75</ele><time>2026-04-26T07:22:31Z</time></trkpt><trkpt lat="37.97694644733231" lon="15.138065024505103"><ele>1077.0</ele><time>2026-04-26T07:22:32Z</time></trkpt><trkpt lat="37.97682062148437" lon="15.137954499443154"><ele>1077.0</ele><time>2026-04-26T07:22:33Z</time></trkpt><trkpt lat="37.976715795986784" lon="15.137821253926237"><ele>1077.0</ele><time>2026-04-26T07:22:34Z</time></trkpt><trkpt lat="37.976622625598296" lon="15.137667327269108"><ele>1077.0</ele><time>2026-04-26T07:22:35Z</time></trkpt><trkpt lat="37.97653650084352" lon="15.137528305158268"><ele>1077.0</ele><time>2026-04-26T07:22:36Z</time></trkpt><trkpt lat="37.97645128620562" lon="15.137391841028156"><ele>1077.4</ele><time>2026-04-26T07:22:37Z</time></trkpt><trkpt lat="37.976362904306924" lon="15.137270469292803"><ele>1077.8000000000002</ele><time>2026-04-26T07:22:38Z</time></trkpt><trkpt lat="37.97628602078238" lon="15.137158720916114"><ele>1078.2</ele><time>2026-04-26T07:22:39Z</time></trkpt><trkpt lat="37.97622393894428" lon="15.137068504660208"><ele>1078.6000000000001</ele><time>2026-04-26T07:22:40Z</time></trkpt><trkpt lat="37.97618296425258" lon="15.136994544717366"><ele>1079.0</ele><time>2026-04-26T07:22:41Z</time></trkpt><trkpt lat="37.97617212960666" lon="15.136915686924816"><ele>1079.0</ele><time>2026-04-26T07:22:42Z</time></trkpt><trkpt lat="37.976207162711155" lon="15.13684399690799"><ele>1079.0</ele><time>2026-04-26T07:22:43Z</time></trkpt><trkpt lat="37.97626740662031" lon="15.13681547773051"><ele>1079.0</ele><time>2026-04-26T07:22:44Z</time></trkpt><trkpt lat="37.97633921384926" lon="15.136862994365858"><ele>1079.0</ele><time>2026-04-26T07:22:45Z</time></trkpt><trkpt lat="37.976410686210656" lon="15.136958225642669"><ele>1079.0</ele><time>2026-04-26T07:22:46Z</time></trkpt><trkpt lat="37.97649113349762" lon="15.137056363735326"><ele>1079.0</ele><time>2026-04-26T07:22:47Z</time></trkpt><trkpt lat="37.97658462141195" lon="15.137169602223832"><ele>1078.5</ele><time>2026-04-26T07:22:48Z</time></trkpt><trkpt lat="37.97668611647547" lon="15.137293255474011"><ele>1078.0</ele><time>2026-04-26T07:22:49Z</time></trkpt><trkpt lat="37.97678515805325" lon="15.137426345902659"><ele>1077.5</ele><time>2026-04-26T07:22:50Z</time></trkpt><trkpt lat="37.97691096514652" lon="15.137543433229652"><ele>1077.0</ele><time>2026-04-26T07:22:51Z</time></trkpt><trkpt lat="37.977048985230546" lon="15.137632091029374"><ele>1077.0</ele><time>2026-04-26T07:22:52Z</time></trkpt><trkpt lat="37.97718615196804" lon="15.137713876379031"><ele>1077.0</ele><time>2026-04-26T07:22:53Z</time></trkpt><trkpt lat="37.97732415530456" lon="15.137795147142871"><ele>1077.0</ele><time>2026-04-26T07:22:54Z</time></trkpt><trkpt lat="37.97746915967869" lon="15.137868491223625"><ele>1071.0</ele><time>2026-04-26T07:22:55Z</time></trkpt><trkpt lat="37.977617886247344" lon="15.13794295988739"><ele>1065.0</ele><time>2026-04-26T07:22:56Z</time></trkpt><trkpt lat="37.977781849119545" lon="15.137996826692842"><ele>1059.0</ele><time>2026-04-26T07:22:57Z</time></trkpt><trkpt lat="37.977950106382295" lon="15.138042329924614"><ele>1059.0</ele><time>2026-04-26T07:22:58Z</time></trkpt><trkpt lat="37.978111285440896" lon="15.138090200768499"><ele>1059.0</ele><time>2026-04-26T07:22:59Z</time></trkpt><trkpt lat="37.9782705478503" lon="15.138127925639163"><ele>1059.0</ele><time>2026-04-26T07:23:00Z</time></trkpt><trkpt lat="37.97842314596524" lon="15.13815830727886"><ele>1056.25</ele><time>2026-04-26T07:23:01Z</time></trkpt><trkpt lat="37.97857388424299" lon="15.138161411567433"><ele>1053.5</ele><time>2026-04-26T07:23:02Z</time></trkpt><trkpt lat="37.97871206736032" lon="15.13814383920544"><ele>1050.75</ele><time>2026-04-26T07:23:03Z</time></trkpt><trkpt lat="37.97883899148524" lon="15.138115876681745"><ele>1048.0</ele><time>2026-04-26T07:23:04Z</time></trkpt><trkpt lat="37.97896377922421" lon="15.138108797659987"><ele>1048.0</ele><time>2026-04-26T07:23:05Z</time></trkpt><trkpt lat="37.97907235175435" lon="15.138135309259976"><ele>1048.0</ele><time>2026-04-26T07:23:06Z</time></trkpt><trkpt lat="37.979156100647565" lon="15.138219115279894"><ele>1048.0</ele><time>2026-04-26T07:23:07Z</time></trkpt><trkpt lat="37.979205397707396" lon="15.138338543802826"><ele>1048.0</ele><time>2026-04-26T07:23:08Z</time></trkpt><trkpt lat="37.979236086505416" lon="15.138434934459001"><ele>1048.0</ele><time>2026-04-26T07:23:09Z</time></trkpt><trkpt lat="37.97932509813112" lon="15.13848229696836"><ele>1049.4</ele><time>2026-04-26T07:23:10Z</time></trkpt><trkpt lat="37.97941894978768" lon="15.138489890293425"><ele>1050.8</ele><time>2026-04-26T07:23:11Z</time></trkpt><trkpt lat="37.979519212989466" lon="15.138482386403727"><ele>1052.2</ele><time>2026-04-26T07:23:12Z</time></trkpt><trkpt lat="37.979619498384366" lon="15.13851140037383"><ele>1053.6</ele><time>2026-04-26T07:23:13Z</time></trkpt><trkpt lat="37.979705380030076" lon="15.13856990680372"><ele>1055.0</ele><time>2026-04-26T07:23:14Z</time></trkpt><trkpt lat="37.97974991406593" lon="15.13868743105741"><ele>1055.0</ele><time>2026-04-26T07:23:15Z</time></trkpt><trkpt lat="37.97973700786856" lon="15.138810998636037"><ele>1055.0</ele><time>2026-04-26T07:23:16Z</time></trkpt><trkpt lat="37.97971963235862" lon="15.138934421713516"><ele>1055.0</ele><time>2026-04-26T07:23:17Z</time></trkpt><trkpt lat="37.979716953000775" lon="15.139079656342135"><ele>1055.0</ele><time>2026-04-26T07:23:18Z</time></trkpt><trkpt lat="37.97975463455948" lon="15.139235820700607"><ele>1055.0</ele><time>2026-04-26T07:23:19Z</time></trkpt><trkpt lat="37.97980655024079" lon="15.139398665501403"><ele>1058.0</ele><time>2026-04-26T07:23:20Z</time></trkpt><trkpt lat="37.979870021719485" lon="15.139556655511361"><ele>1061.0</ele><time>2026-04-26T07:23:21Z</time></trkpt><trkpt lat="37.97991325333139" lon="15.139723646129266"><ele>1064.0</ele><time>2026-04-26T07:23:22Z</time></trkpt><trkpt lat="37.979957644199054" lon="15.139879520634103"><ele>1067.0</ele><time>2026-04-26T07:23:23Z</time></trkpt><trkpt lat="37.97997576544208" lon="15.140038727654154"><ele>1067.5</ele><time>2026-04-26T07:23:24Z</time></trkpt><trkpt lat="37.97996699487426" lon="15.140211131245215"><ele>1068.0</ele><time>2026-04-26T07:23:25Z</time></trkpt><trkpt lat="37.97994002622829" lon="15.140379767128962"><ele>1068.5</ele><time>2026-04-26T07:23:26Z</time></trkpt><trkpt lat="37.97991967674312" lon="15.14056872037259"><ele>1069.0</ele><time>2026-04-26T07:23:27Z</time></trkpt><trkpt lat="37.97989128059197" lon="15.140741525308137"><ele>1067.5</ele><time>2026-04-26T07:23:28Z</time></trkpt><trkpt lat="37.979886943632856" lon="15.140927866851936"><ele>1066.0</ele><time>2026-04-26T07:23:29Z</time></trkpt><trkpt lat="37.97990147089626" lon="15.14111878706889"><ele>1064.5</ele><time>2026-04-26T07:23:30Z</time></trkpt><trkpt lat="37.97990747772064" lon="15.141295296009908"><ele>1063.0</ele><time>2026-04-26T07:23:31Z</time></trkpt><trkpt lat="37.979914731462664" lon="15.141469002059743"><ele>1062.4</ele><time>2026-04-26T07:23:32Z</time></trkpt><trkpt lat="37.97991832501594" lon="15.141623061802461"><ele>1061.8</ele><time>2026-04-26T07:23:33Z</time></trkpt><trkpt lat="37.97991798908841" lon="15.141769972529449"><ele>1061.2</ele><time>2026-04-26T07:23:34Z</time></trkpt><trkpt lat="37.97992563200255" lon="15.141902627699588"><ele>1060.6</ele><time>2026-04-26T07:23:35Z</time></trkpt><trkpt lat="37.979941735366204" lon="15.142030996423443"><ele>1060.0</ele><time>2026-04-26T07:23:36Z</time></trkpt><trkpt lat="37.98001019351324" lon="15.142129983615451"><ele>1052.25</ele><time>2026-04-26T07:23:37Z</time></trkpt><trkpt lat="37.98011875757176" lon="15.142195293994272"><ele>1044.5</ele><time>2026-04-26T07:23:38Z</time></trkpt><trkpt lat="37.98024260381217" lon="15.142192547011154"><ele>1036.75</ele><time>2026-04-26T07:23:39Z</time></trkpt><trkpt lat="37.98037406154742" lon="15.14221550107509"><ele>1029.0</ele><time>2026-04-26T07:23:40Z</time></trkpt><trkpt lat="37.98047921854936" lon="15.142281724551477"><ele>1030.8</ele><time>2026-04-26T07:23:41Z</time></trkpt><trkpt lat="37.9805572329656" lon="15.142391362373337"><ele>1032.6000000000001</ele><time>2026-04-26T07:23:42Z</time></trkpt><trkpt lat="37.980581437454376" lon="15.142523011691809"><ele>1034.4</ele><time>2026-04-26T07:23:43Z</time></trkpt><trkpt lat="37.980563447557564" lon="15.142659166092063"><ele>1036.2</ele><time>2026-04-26T07:23:44Z</time></trkpt><trkpt lat="37.9805460714588" lon="15.14277477130915"><ele>1038.0</ele><time>2026-04-26T07:23:45Z</time></trkpt><trkpt lat="37.98049754300743" lon="15.142929280567463"><ele>1038.0</ele><time>2026-04-26T07:23:46Z</time></trkpt><trkpt lat="37.980460667536406" lon="15.143093485484908"><ele>1038.0</ele><time>2026-04-26T07:23:47Z</time></trkpt><trkpt lat="37.9804375912463" lon="15.143260990042595"><ele>1038.0</ele><time>2026-04-26T07:23:48Z</time></trkpt><trkpt lat="37.980444004575496" lon="15.143429121145019"><ele>1038.0</ele><time>2026-04-26T07:23:49Z</time></trkpt><trkpt lat="37.98047582530048" lon="15.143594041484162"><ele>1038.0</ele><time>2026-04-26T07:23:50Z</time></trkpt><trkpt lat="37.98051593519356" lon="15.143744472346215"><ele>1038.0</ele><time>2026-04-26T07:23:51Z</time></trkpt><trkpt lat="37.980521953121205" lon="15.14388488524947"><ele>1038.0</ele><time>2026-04-26T07:23:52Z</time></trkpt><trkpt lat="37.98047696877695" lon="15.144026433783395"><ele>1038.0</ele><time>2026-04-26T07:23:53Z</time></trkpt><trkpt lat="37.980398566690226" lon="15.144135747925707"><ele>1035.4</ele><time>2026-04-26T07:23:54Z</time></trkpt><trkpt lat="37.98029081349196" lon="15.144199522020385"><ele>1032.8</ele><time>2026-04-26T07:23:55Z</time></trkpt><trkpt lat="37.98019537556999" lon="15.144269010742944"><ele>1030.2</ele><time>2026-04-26T07:23:56Z</time></trkpt><trkpt lat="37.9801255954307" lon="15.1443223409188"><ele>1027.6</ele><time>2026-04-26T07:23:57Z</time></trkpt><trkpt lat="37.98009143827921" lon="15.14440934472038"><ele>1025.0</ele><time>2026-04-26T07:23:58Z</time></trkpt><trkpt lat="37.98010985320732" lon="15.144523401107186"><ele>1025.0</ele><time>2026-04-26T07:23:59Z</time></trkpt><trkpt lat="37.980186368965775" lon="15.144604892707644"><ele>1025.0</ele><time>2026-04-26T07:24:00Z</time></trkpt><trkpt lat="37.98028725003305" lon="15.144605876220853"><ele>1025.0</ele><time>2026-04-26T07:24:01Z</time></trkpt><trkpt lat="37.9803693416692" lon="15.144536875777089"><ele>1025.0</ele><time>2026-04-26T07:24:02Z</time></trkpt><trkpt lat="37.980443750531144" lon="15.144446540155247"><ele>1025.0</ele><time>2026-04-26T07:24:03Z</time></trkpt><trkpt lat="37.98054444334106" lon="15.14436217850462"><ele>1025.0</ele><time>2026-04-26T07:24:04Z</time></trkpt><trkpt lat="37.980662651380214" lon="15.144343439023231"><ele>1025.0</ele><time>2026-04-26T07:24:05Z</time></trkpt><trkpt lat="37.9807896792284" lon="15.144288004062986"><ele>1025.0</ele><time>2026-04-26T07:24:06Z</time></trkpt><trkpt lat="37.980919648451255" lon="15.144209630672819"><ele>1025.0</ele><time>2026-04-26T07:24:07Z</time></trkpt><trkpt lat="37.981034886450956" lon="15.144107120155963"><ele>1023.5</ele><time>2026-04-26T07:24:08Z</time></trkpt><trkpt lat="37.981137509506326" lon="15.143975430983698"><ele>1022.0</ele><time>2026-04-26T07:24:09Z</time></trkpt><trkpt lat="37.981240554571386" lon="15.143840270735543"><ele>1020.5</ele><time>2026-04-26T07:24:10Z</time></trkpt><trkpt lat="37.9813429450811" lon="15.143700681983328"><ele>1019.0</ele><time>2026-04-26T07:24:11Z</time></trkpt><trkpt lat="37.981445035053305" lon="15.143573779823317"><ele>1019.0</ele><time>2026-04-26T07:24:12Z</time></trkpt><trkpt lat="37.981533707635414" lon="15.143446203028804"><ele>1019.0</ele><time>2026-04-26T07:24:13Z</time></trkpt><trkpt lat="37.98160584320036" lon="15.143318868855522"><ele>1019.0</ele><time>2026-04-26T07:24:14Z</time></trkpt><trkpt lat="37.98166379970177" lon="15.143200500566872"><ele>1019.0</ele><time>2026-04-26T07:24:15Z</time></trkpt><trkpt lat="37.98170419152145" lon="15.14309089210184"><ele>1017.5</ele><time>2026-04-26T07:24:16Z</time></trkpt><trkpt lat="37.981723497774134" lon="15.142955543786671"><ele>1016.0</ele><time>2026-04-26T07:24:17Z</time></trkpt><trkpt lat="37.981701126992895" lon="15.142785673071577"><ele>1014.5</ele><time>2026-04-26T07:24:18Z</time></trkpt><trkpt lat="37.98165663740262" lon="15.142601391216598"><ele>1013.0</ele><time>2026-04-26T07:24:19Z</time></trkpt><trkpt lat="37.9816016659976" lon="15.14241738694781"><ele>1010.5</ele><time>2026-04-26T07:24:20Z</time></trkpt><trkpt lat="37.981563509708806" lon="15.14223046032609"><ele>1008.0</ele><time>2026-04-26T07:24:21Z</time></trkpt><trkpt lat="37.98150793820139" lon="15.142058706349392"><ele>1005.5</ele><time>2026-04-26T07:24:22Z</time></trkpt><trkpt lat="37.98143776352791" lon="15.141917005381494"><ele>1003.0</ele><time>2026-04-26T07:24:23Z</time></trkpt><trkpt lat="37.98135412191132" lon="15.141792435757392"><ele>1003.0</ele><time>2026-04-26T07:24:24Z</time></trkpt><trkpt lat="37.98128779788564" lon="15.141696189996523"><ele>1003.0</ele><time>2026-04-26T07:24:25Z</time></trkpt><trkpt lat="37.98125148955609" lon="15.141615495910735"><ele>1003.0</ele><time>2026-04-26T07:24:26Z</time></trkpt><trkpt lat="37.981299546164145" lon="15.141511155958895"><ele>1003.0</ele><time>2026-04-26T07:24:28Z</time></trkpt><trkpt lat="37.98138457876605" lon="15.141498664124674"><ele>1003.0</ele><time>2026-04-26T07:24:29Z</time></trkpt><trkpt lat="37.98147026643716" lon="15.141572748522194"><ele>1003.0</ele><time>2026-04-26T07:24:30Z</time></trkpt><trkpt lat="37.9815305077734" lon="15.141688630033356"><ele>1003.0</ele><time>2026-04-26T07:24:31Z</time></trkpt><trkpt lat="37.98157462052761" lon="15.141832452634851"><ele>1003.0</ele><time>2026-04-26T07:24:32Z</time></trkpt><trkpt lat="37.98162653042996" lon="15.14199716933752"><ele>1003.0</ele><time>2026-04-26T07:24:33Z</time></trkpt><trkpt lat="37.98168258443905" lon="15.142171926742654"><ele>998.0</ele><time>2026-04-26T07:24:34Z</time></trkpt><trkpt lat="37.98176006126954" lon="15.142348423525657"><ele>993.0</ele><time>2026-04-26T07:24:35Z</time></trkpt><trkpt lat="37.98185366025576" lon="15.142517447613882"><ele>988.0</ele><time>2026-04-26T07:24:36Z</time></trkpt><trkpt lat="37.98194013144511" lon="15.142669803608344"><ele>988.0</ele><time>2026-04-26T07:24:37Z</time></trkpt><trkpt lat="37.9820328178629" lon="15.14282026163018"><ele>988.0</ele><time>2026-04-26T07:24:38Z</time></trkpt><trkpt lat="37.98213182588534" lon="15.142966173041199"><ele>988.0</ele><time>2026-04-26T07:24:39Z</time></trkpt><trkpt lat="37.982228483203365" lon="15.143105460308998"><ele>988.0</ele><time>2026-04-26T07:24:40Z</time></trkpt><trkpt lat="37.98231268045335" lon="15.143270953166022"><ele>990.75</ele><time>2026-04-26T07:24:41Z</time></trkpt><trkpt lat="37.98239007329657" lon="15.143423756538649"><ele>993.5</ele><time>2026-04-26T07:24:42Z</time></trkpt><trkpt lat="37.98246705444562" lon="15.143563443736824"><ele>996.25</ele><time>2026-04-26T07:24:43Z</time></trkpt><trkpt lat="37.98254653655157" lon="15.143708346450913"><ele>999.0</ele><time>2026-04-26T07:24:44Z</time></trkpt><trkpt lat="37.982632824520515" lon="15.143838799908528"><ele>995.5</ele><time>2026-04-26T07:24:45Z</time></trkpt><trkpt lat="37.98273480588885" lon="15.143946998783685"><ele>992.0</ele><time>2026-04-26T07:24:46Z</time></trkpt><trkpt lat="37.982855590360806" lon="15.14402779710075"><ele>988.5</ele><time>2026-04-26T07:24:47Z</time></trkpt><trkpt lat="37.98296842073976" lon="15.14412720865023"><ele>985.0</ele><time>2026-04-26T07:24:48Z</time></trkpt><trkpt lat="37.98307998845239" lon="15.144219200480787"><ele>985.0</ele><time>2026-04-26T07:24:49Z</time></trkpt><trkpt lat="37.98322006008091" lon="15.14427054242515"><ele>985.0</ele><time>2026-04-26T07:24:50Z</time></trkpt><trkpt lat="37.98333158852168" lon="15.14434845673567"><ele>985.0</ele><time>2026-04-26T07:24:51Z</time></trkpt><trkpt lat="37.983443728423794" lon="15.144431330719774"><ele>985.0</ele><time>2026-04-26T07:24:52Z</time></trkpt><trkpt lat="37.98355062067567" lon="15.144488902892286"><ele>983.25</ele><time>2026-04-26T07:24:53Z</time></trkpt><trkpt lat="37.983646274992026" lon="15.144581008667577"><ele>981.5</ele><time>2026-04-26T07:24:54Z</time></trkpt><trkpt lat="37.98370823647305" lon="15.144711476190361"><ele>979.75</ele><time>2026-04-26T07:24:55Z</time></trkpt><trkpt lat="37.983728950799936" lon="15.14485614758939"><ele>978.0</ele><time>2026-04-26T07:24:56Z</time></trkpt><trkpt lat="37.98371873465617" lon="15.14501786420938"><ele>978.0</ele><time>2026-04-26T07:24:57Z</time></trkpt><trkpt lat="37.983755559446934" lon="15.14518171765169"><ele>978.0</ele><time>2026-04-26T07:24:58Z</time></trkpt><trkpt lat="37.98382939351602" lon="15.145319120810152"><ele>978.0</ele><time>2026-04-26T07:24:59Z</time></trkpt><trkpt lat="37.983922065068" lon="15.145415727736975"><ele>978.0</ele><time>2026-04-26T07:25:00Z</time></trkpt><trkpt lat="37.9840376094433" lon="15.145449003157664"><ele>978.0</ele><time>2026-04-26T07:25:01Z</time></trkpt><trkpt lat="37.98415774318794" lon="15.145453490629684"><ele>978.0</ele><time>2026-04-26T07:25:02Z</time></trkpt><trkpt lat="37.984268072012114" lon="15.14544562142352"><ele>978.0</ele><time>2026-04-26T07:25:03Z</time></trkpt><trkpt lat="37.98437518311254" lon="15.145432738828688"><ele>978.0</ele><time>2026-04-26T07:25:04Z</time></trkpt><trkpt lat="37.98448035844478" lon="15.145431509905444"><ele>978.0</ele><time>2026-04-26T07:25:05Z</time></trkpt><trkpt lat="37.984575796775395" lon="15.145450048056311"><ele>977.5999999999999</ele><time>2026-04-26T07:25:06Z</time></trkpt><trkpt lat="37.984670512854215" lon="15.145492993288357"><ele>977.1999999999999</ele><time>2026-04-26T07:25:07Z</time></trkpt><trkpt lat="37.984762316750455" lon="15.145560661973754"><ele>976.8</ele><time>2026-04-26T07:25:08Z</time></trkpt><trkpt lat="37.98484537575885" lon="15.145655554162838"><ele>976.4</ele><time>2026-04-26T07:25:09Z</time></trkpt><trkpt lat="37.98491849323578" lon="15.14576262366123"><ele>976.0</ele><time>2026-04-26T07:25:10Z</time></trkpt><trkpt lat="37.984986192363614" lon="15.14586465788196"><ele>976.4999999999999</ele><time>2026-04-26T07:25:11Z</time></trkpt><trkpt lat="37.985050585805176" lon="15.145929682330543"><ele>977.0</ele><time>2026-04-26T07:25:12Z</time></trkpt><trkpt lat="37.98510740263604" lon="15.145965352552237"><ele>977.5</ele><time>2026-04-26T07:25:13Z</time></trkpt><trkpt lat="37.98516934992999" lon="15.146011985050878"><ele>978.0</ele><time>2026-04-26T07:25:15Z</time></trkpt><trkpt lat="37.985191106272715" lon="15.14610470158935"><ele>978.4999999999999</ele><time>2026-04-26T07:26:38Z</time></trkpt><trkpt lat="37.98525517477569" lon="15.146214107281823"><ele>979.0</ele><time>2026-04-26T07:26:40Z</time></trkpt><trkpt lat="37.98529552216613" lon="15.146276121814408"><ele>978.9999999999999</ele><time>2026-04-26T07:26:41Z</time></trkpt><trkpt lat="37.98534344202109" lon="15.146335919958124"><ele>979.0</ele><time>2026-04-26T07:26:42Z</time></trkpt><trkpt lat="37.985396531282355" lon="15.146402659280659"><ele>979.0</ele><time>2026-04-26T07:26:43Z</time></trkpt><trkpt lat="37.98545488295384" lon="15.146477171569702"><ele>979.0</ele><time>2026-04-26T07:26:44Z</time></trkpt><trkpt lat="37.98552281699669" lon="15.14655399328088"><ele>978.9999999999999</ele><time>2026-04-26T07:26:45Z</time></trkpt><trkpt lat="37.985590874623774" lon="15.146638642066852"><ele>979.0</ele><time>2026-04-26T07:26:46Z</time></trkpt><trkpt lat="37.9856605799471" lon="15.146729667408342"><ele>979.0</ele><time>2026-04-26T07:26:47Z</time></trkpt><trkpt lat="37.985714390936096" lon="15.146831710638756"><ele>979.0000000000001</ele><time>2026-04-26T07:26:48Z</time></trkpt><trkpt lat="37.98574623034736" lon="15.146958682677937"><ele>979.0000000000001</ele><time>2026-04-26T07:26:49Z</time></trkpt><trkpt lat="37.98576023949034" lon="15.147081306417924"><ele>979.0</ele><time>2026-04-26T07:26:50Z</time></trkpt><trkpt lat="37.985752489865256" lon="15.147214916211704"><ele>979.0</ele><time>2026-04-26T07:26:51Z</time></trkpt><trkpt lat="37.98574052136166" lon="15.14736032901561"><ele>976.0</ele><time>2026-04-26T07:26:52Z</time></trkpt><trkpt lat="37.98572506664505" lon="15.147508001284555"><ele>973.0</ele><time>2026-04-26T07:26:53Z</time></trkpt><trkpt lat="37.98572244877877" lon="15.147655963886566"><ele>970.0</ele><time>2026-04-26T07:26:54Z</time></trkpt><trkpt lat="37.985733617313024" lon="15.147802838560398"><ele>967.0</ele><time>2026-04-26T07:26:55Z</time></trkpt><trkpt lat="37.98575561173564" lon="15.147950557763204"><ele>967.0</ele><time>2026-04-26T07:26:56Z</time></trkpt><trkpt lat="37.98577861710835" lon="15.148102430792548"><ele>967.0</ele><time>2026-04-26T07:26:57Z</time></trkpt><trkpt lat="37.985802459451584" lon="15.148237474712694"><ele>967.0</ele><time>2026-04-26T07:26:58Z</time></trkpt><trkpt lat="37.98579356020975" lon="15.14835902151012"><ele>967.0</ele><time>2026-04-26T07:26:59Z</time></trkpt><trkpt lat="37.98576849652562" lon="15.148488111947882"><ele>967.0</ele><time>2026-04-26T07:27:00Z</time></trkpt><trkpt lat="37.98573964255848" lon="15.1486204107635"><ele>965.8</ele><time>2026-04-26T07:27:01Z</time></trkpt><trkpt lat="37.985698096233286" lon="15.148753148384522"><ele>964.6</ele><time>2026-04-26T07:27:02Z</time></trkpt><trkpt lat="37.98566209838829" lon="15.14888996539736"><ele>963.3999999999999</ele><time>2026-04-26T07:27:03Z</time></trkpt><trkpt lat="37.985618815878176" lon="15.149024707863605"><ele>962.1999999999999</ele><time>2026-04-26T07:27:04Z</time></trkpt><trkpt lat="37.9855806002397" lon="15.149151908034257"><ele>961.0</ele><time>2026-04-26T07:27:05Z</time></trkpt><trkpt lat="37.98554777659174" lon="15.149264518259477"><ele>960.4999999999999</ele><time>2026-04-26T07:27:06Z</time></trkpt><trkpt lat="37.98552932645427" lon="15.149372839171672"><ele>960.0</ele><time>2026-04-26T07:27:07Z</time></trkpt><trkpt lat="37.98556380468834" lon="15.149481643077982"><ele>959.5</ele><time>2026-04-26T07:27:08Z</time></trkpt><trkpt lat="37.98563803739993" lon="15.14954197284254"><ele>959.0</ele><time>2026-04-26T07:27:09Z</time></trkpt><trkpt lat="37.98572005385137" lon="15.149560779843146"><ele>958.4999999999999</ele><time>2026-04-26T07:27:10Z</time></trkpt><trkpt lat="37.98581552371315" lon="15.149567199119371"><ele>958.0</ele><time>2026-04-26T07:27:11Z</time></trkpt><trkpt lat="37.9859183284319" lon="15.149562684056095"><ele>958.0</ele><time>2026-04-26T07:27:12Z</time></trkpt><trkpt lat="37.98602599506398" lon="15.149564039899431"><ele>958.0</ele><time>2026-04-26T07:27:13Z</time></trkpt><trkpt lat="37.98612900203599" lon="15.149567344050821"><ele>958.0</ele><time>2026-04-26T07:27:14Z</time></trkpt><trkpt lat="37.98619472984132" lon="15.149571010711226"><ele>958.0</ele><time>2026-04-26T07:27:15Z</time></trkpt><trkpt lat="37.98624696957567" lon="15.149649296700124"><ele>958.0</ele><time>2026-04-26T07:27:17Z</time></trkpt><trkpt lat="37.98613397684006" lon="15.149594557685251"><ele>958.0</ele><time>2026-04-26T07:27:20Z</time></trkpt><trkpt lat="37.98599191962674" lon="15.149696232010475"><ele>958.0</ele><time>2026-04-26T07:27:21Z</time></trkpt><trkpt lat="37.98589200829789" lon="15.14969838026562"><ele>958.0</ele><time>2026-04-26T07:27:22Z</time></trkpt><trkpt lat="37.9857789298677" lon="15.149716912028738"><ele>958.0</ele><time>2026-04-26T07:27:23Z</time></trkpt><trkpt lat="37.9856520475219" lon="15.14975289086357"><ele>957.5</ele><time>2026-04-26T07:27:24Z</time></trkpt><trkpt lat="37.9855191743775" lon="15.149792129894665"><ele>957.0</ele><time>2026-04-26T07:27:25Z</time></trkpt><trkpt lat="37.985387036956936" lon="15.149839135549149"><ele>956.5</ele><time>2026-04-26T07:27:26Z</time></trkpt><trkpt lat="37.98526349525132" lon="15.149884034210665"><ele>956.0</ele><time>2026-04-26T07:27:27Z</time></trkpt><trkpt lat="37.985152947245915" lon="15.149905870232857"><ele>952.1999999999999</ele><time>2026-04-26T07:27:28Z</time></trkpt><trkpt lat="37.98505061159597" lon="15.1499076683226"><ele>948.3999999999999</ele><time>2026-04-26T07:27:29Z</time></trkpt><trkpt lat="37.98497013454358" lon="15.149898160084625"><ele>944.6</ele><time>2026-04-26T07:27:30Z</time></trkpt><trkpt lat="37.98488151036893" lon="15.149995096420307"><ele>940.8</ele><time>2026-04-26T07:27:32Z</time></trkpt><trkpt lat="37.98491116219222" lon="15.150091926486777"><ele>937.0</ele><time>2026-04-26T07:27:33Z</time></trkpt><trkpt lat="37.98498473574558" lon="15.150150663541293"><ele>936.9999999999999</ele><time>2026-04-26T07:27:34Z</time></trkpt><trkpt lat="37.985062561033665" lon="15.150159623821342"><ele>937.0</ele><time>2026-04-26T07:27:35Z</time></trkpt><trkpt lat="37.98514575152282" lon="15.150133306554423"><ele>937.0</ele><time>2026-04-26T07:27:36Z</time></trkpt><trkpt lat="37.98522491366227" lon="15.150114306080567"><ele>937.0</ele><time>2026-04-26T07:27:37Z</time></trkpt><trkpt lat="37.9853215631738" lon="15.150096703755333"><ele>936.9999999999999</ele><time>2026-04-26T07:27:38Z</time></trkpt><trkpt lat="37.98542055675004" lon="15.150070749644623"><ele>937.0</ele><time>2026-04-26T07:27:39Z</time></trkpt><trkpt lat="37.985512183795585" lon="15.150060027307497"><ele>937.0</ele><time>2026-04-26T07:27:40Z</time></trkpt><trkpt lat="37.98561220667388" lon="15.150077578978312"><ele>937.0</ele><time>2026-04-26T07:27:41Z</time></trkpt><trkpt lat="37.985719611566125" lon="15.150107946415392"><ele>937.0</ele><time>2026-04-26T07:27:42Z</time></trkpt><trkpt lat="37.985815193217285" lon="15.150143286960837"><ele>937.0</ele><time>2026-04-26T07:27:43Z</time></trkpt><trkpt lat="37.98588186816801" lon="15.150182320724815"><ele>937.0</ele><time>2026-04-26T07:27:44Z</time></trkpt><trkpt lat="37.98592185994202" lon="15.150309037281938"><ele>937.0</ele><time>2026-04-26T07:27:46Z</time></trkpt><trkpt lat="37.985874204492596" lon="15.150382507112479"><ele>937.0</ele><time>2026-04-26T07:27:47Z</time></trkpt><trkpt lat="37.98579428295968" lon="15.150389093534704"><ele>937.0</ele><time>2026-04-26T07:27:48Z</time></trkpt><trkpt lat="37.98570827236545" lon="15.150344529611642"><ele>937.0</ele><time>2026-04-26T07:27:49Z</time></trkpt><trkpt lat="37.985604600666036" lon="15.150283309172963"><ele>937.0</ele><time>2026-04-26T07:27:50Z</time></trkpt><trkpt lat="37.985481526952725" lon="15.150253665710629"><ele>937.0</ele><time>2026-04-26T07:27:51Z</time></trkpt><trkpt lat="37.98533575018673" lon="15.150290631653377"><ele>937.0</ele><time>2026-04-26T07:27:52Z</time></trkpt><trkpt lat="37.985199966261256" lon="15.150349871815873"><ele>937.0</ele><time>2026-04-26T07:27:53Z</time></trkpt><trkpt lat="37.98506893402783" lon="15.150447346541016"><ele>937.0</ele><time>2026-04-26T07:27:54Z</time></trkpt><trkpt lat="37.98493768609094" lon="15.150542069835845"><ele>933.75</ele><time>2026-04-26T07:27:55Z</time></trkpt><trkpt lat="37.98481066382439" lon="15.150612472456183"><ele>930.5</ele><time>2026-04-26T07:27:56Z</time></trkpt><trkpt lat="37.98468777885785" lon="15.150668308397018"><ele>927.25</ele><time>2026-04-26T07:27:57Z</time></trkpt><trkpt lat="37.984574120647736" lon="15.150701744893786"><ele>924.0</ele><time>2026-04-26T07:27:58Z</time></trkpt><trkpt lat="37.984480036740536" lon="15.150713498207496"><ele>920.4000000000001</ele><time>2026-04-26T07:27:59Z</time></trkpt><trkpt lat="37.984413118200685" lon="15.150734229324723"><ele>916.8000000000001</ele><time>2026-04-26T07:28:00Z</time></trkpt><trkpt lat="37.984370312243946" lon="15.150879947407635"><ele>913.1999999999999</ele><time>2026-04-26T07:28:02Z</time></trkpt><trkpt lat="37.98443907438994" lon="15.150954912074033"><ele>909.5999999999999</ele><time>2026-04-26T07:28:03Z</time></trkpt><trkpt lat="37.98452963344849" lon="15.150974792522602"><ele>906.0</ele><time>2026-04-26T07:28:04Z</time></trkpt><trkpt lat="37.98463124949032" lon="15.150944917946742"><ele>906.0</ele><time>2026-04-26T07:28:05Z</time></trkpt><trkpt lat="37.98473373212763" lon="15.150901794825707"><ele>906.0</ele><time>2026-04-26T07:28:06Z</time></trkpt><trkpt lat="37.98484231172533" lon="15.150874055482344"><ele>906.0</ele><time>2026-04-26T07:28:07Z</time></trkpt><trkpt lat="37.98495980131035" lon="15.150862069915002"><ele>906.0</ele><time>2026-04-26T07:28:08Z</time></trkpt><trkpt lat="37.985077256019345" lon="15.150855996843163"><ele>906.1999999999999</ele><time>2026-04-26T07:28:09Z</time></trkpt><trkpt lat="37.985186974979484" lon="15.150866051295266"><ele>906.3999999999999</ele><time>2026-04-26T07:28:10Z</time></trkpt><trkpt lat="37.985288854848235" lon="15.1508920577544"><ele>906.6</ele><time>2026-04-26T07:28:11Z</time></trkpt><trkpt lat="37.985388893996344" lon="15.150943271786877"><ele>906.8</ele><time>2026-04-26T07:28:12Z</time></trkpt><trkpt lat="37.98548151023461" lon="15.151007554093756"><ele>907.0</ele><time>2026-04-26T07:28:13Z</time></trkpt><trkpt lat="37.98557733889598" lon="15.151073800269716"><ele>907.0</ele><time>2026-04-26T07:28:14Z</time></trkpt><trkpt lat="37.98566963275311" lon="15.151137224261923"><ele>907.0</ele><time>2026-04-26T07:28:15Z</time></trkpt><trkpt lat="37.98574231762652" lon="15.151178056651233"><ele>907.0</ele><time>2026-04-26T07:28:16Z</time></trkpt><trkpt lat="37.985807340045916" lon="15.151276308654708"><ele>907.0</ele><time>2026-04-26T07:28:18Z</time></trkpt><trkpt lat="37.98573481654322" lon="15.151385254652105"><ele>907.0</ele><time>2026-04-26T07:28:20Z</time></trkpt><trkpt lat="37.98566157243575" lon="15.151369263185384"><ele>907.0</ele><time>2026-04-26T07:28:21Z</time></trkpt><trkpt lat="37.9855921303457" lon="15.151315013025886"><ele>907.0</ele><time>2026-04-26T07:28:22Z</time></trkpt><trkpt lat="37.9855259517084" lon="15.151234464572823"><ele>907.0</ele><time>2026-04-26T07:28:23Z</time></trkpt><trkpt lat="37.98543790385917" lon="15.151186994815388"><ele>907.0</ele><time>2026-04-26T07:28:24Z</time></trkpt><trkpt lat="37.985339525196096" lon="15.151172707191074"><ele>907.0</ele><time>2026-04-26T07:28:25Z</time></trkpt><trkpt lat="37.985245376437675" lon="15.151173552084817"><ele>907.0</ele><time>2026-04-26T07:28:26Z</time></trkpt><trkpt lat="37.985151816989834" lon="15.15120598942228"><ele>907.0</ele><time>2026-04-26T07:28:27Z</time></trkpt><trkpt lat="37.98506050177996" lon="15.151251266183642"><ele>907.0</ele><time>2026-04-26T07:28:28Z</time></trkpt><trkpt lat="37.9849635320501" lon="15.151325789568766"><ele>907.0</ele><time>2026-04-26T07:28:29Z</time></trkpt><trkpt lat="37.98487320341022" lon="15.151404604229798"><ele>907.0</ele><time>2026-04-26T07:28:30Z</time></trkpt><trkpt lat="37.98477600262402" lon="15.151472793806382"><ele>902.0</ele><time>2026-04-26T07:28:31Z</time></trkpt><trkpt lat="37.98466935201527" lon="15.151541645310632"><ele>897.0</ele><time>2026-04-26T07:28:32Z</time></trkpt><trkpt lat="37.984558899700595" lon="15.151595435835736"><ele>892.0</ele><time>2026-04-26T07:28:33Z</time></trkpt><trkpt lat="37.98446152349163" lon="15.151633407436604"><ele>887.0</ele><time>2026-04-26T07:28:34Z</time></trkpt><trkpt lat="37.98439272394454" lon="15.151666384527829"><ele>882.0</ele><time>2026-04-26T07:28:35Z</time></trkpt><trkpt lat="37.98435746107417" lon="15.151738984570603"><ele>882.0</ele><time>2026-04-26T07:28:36Z</time></trkpt><trkpt lat="37.98437279734212" lon="15.151826820644622"><ele>882.0</ele><time>2026-04-26T07:28:37Z</time></trkpt><trkpt lat="37.984432351168714" lon="15.151894548718932"><ele>882.0</ele><time>2026-04-26T07:28:38Z</time></trkpt><trkpt lat="37.98450912619343" lon="15.151915706576288"><ele>882.0</ele><time>2026-04-26T07:28:39Z</time></trkpt><trkpt lat="37.98458324266734" lon="15.15188010675809"><ele>882.0</ele><time>2026-04-26T07:28:40Z</time></trkpt><trkpt lat="37.984638599939174" lon="15.151821232706185"><ele>882.0</ele><time>2026-04-26T07:28:41Z</time></trkpt><trkpt lat="37.98469481688357" lon="15.15175427993876"><ele>882.0</ele><time>2026-04-26T07:28:42Z</time></trkpt><trkpt lat="37.98476556945151" lon="15.151690621755712"><ele>882.0</ele><time>2026-04-26T07:28:43Z</time></trkpt><trkpt lat="37.98485482125244" lon="15.151634959466353"><ele>882.0</ele><time>2026-04-26T07:28:44Z</time></trkpt><trkpt lat="37.98495342901383" lon="15.151583455923006"><ele>882.0</ele><time>2026-04-26T07:28:45Z</time></trkpt><trkpt lat="37.985058000003036" lon="15.151552422569072"><ele>882.0</ele><time>2026-04-26T07:28:46Z</time></trkpt><trkpt lat="37.985168056268385" lon="15.15154126226208"><ele>881.6</ele><time>2026-04-26T07:28:47Z</time></trkpt><trkpt lat="37.985288930938566" lon="15.151561716257664"><ele>881.2</ele><time>2026-04-26T07:28:48Z</time></trkpt><trkpt lat="37.98539410740348" lon="15.151619530774436"><ele>880.8</ele><time>2026-04-26T07:28:49Z</time></trkpt><trkpt lat="37.98549379414984" lon="15.151668166014476"><ele>880.4</ele><time>2026-04-26T07:28:50Z</time></trkpt><trkpt lat="37.98558422197429" lon="15.151705951603216"><ele>880.0</ele><time>2026-04-26T07:28:51Z</time></trkpt><trkpt lat="37.985638531821245" lon="15.151753544585969"><ele>879.9999999999999</ele><time>2026-04-26T07:28:52Z</time></trkpt><trkpt lat="37.98566232626472" lon="15.151892666393541"><ele>880.0</ele><time>2026-04-26T07:28:54Z</time></trkpt><trkpt lat="37.985605301003964" lon="15.151956283645669"><ele>880.0</ele><time>2026-04-26T07:28:55Z</time></trkpt><trkpt lat="37.98552508735539" lon="15.151948284820756"><ele>880.0</ele><time>2026-04-26T07:28:56Z</time></trkpt><trkpt lat="37.985458825019165" lon="15.151890651906468"><ele>879.9999999999999</ele><time>2026-04-26T07:28:57Z</time></trkpt><trkpt lat="37.98541772200401" lon="15.15180847410741"><ele>880.0</ele><time>2026-04-26T07:28:58Z</time></trkpt><trkpt lat="37.98536315073368" lon="15.151720585853738"><ele>880.0</ele><time>2026-04-26T07:28:59Z</time></trkpt><trkpt lat="37.985268713925564" lon="15.151691348929338"><ele>880.0</ele><time>2026-04-26T07:29:00Z</time></trkpt><trkpt lat="37.985157915943184" lon="15.151723719606414"><ele>880.0</ele><time>2026-04-26T07:29:01Z</time></trkpt><trkpt lat="37.98505284617375" lon="15.15183935714045"><ele>880.0</ele><time>2026-04-26T07:29:02Z</time></trkpt><trkpt lat="37.984955683766266" lon="15.151958185619664"><ele>880.5</ele><time>2026-04-26T07:29:03Z</time></trkpt><trkpt lat="37.98485680587092" lon="15.152063541891708"><ele>881.0</ele><time>2026-04-26T07:29:04Z</time></trkpt><trkpt lat="37.98475220069084" lon="15.152144742580813"><ele>881.5</ele><time>2026-04-26T07:29:05Z</time></trkpt><trkpt lat="37.984636740748535" lon="15.152198326596803"><ele>882.0</ele><time>2026-04-26T07:29:06Z</time></trkpt><trkpt lat="37.98453175073888" lon="15.152237585032324"><ele>882.0</ele><time>2026-04-26T07:29:07Z</time></trkpt><trkpt lat="37.984426116682954" lon="15.152279803120587"><ele>882.0</ele><time>2026-04-26T07:29:08Z</time></trkpt><trkpt lat="37.98432524555124" lon="15.152301621722872"><ele>882.0</ele><time>2026-04-26T07:29:09Z</time></trkpt><trkpt lat="37.98422947390822" lon="15.152320308154595"><ele>882.0</ele><time>2026-04-26T07:29:10Z</time></trkpt><trkpt lat="37.98413375946629" lon="15.152321565618296"><ele>882.0</ele><time>2026-04-26T07:29:11Z</time></trkpt><trkpt lat="37.98404100960136" lon="15.15232239683208"><ele>881.6</ele><time>2026-04-26T07:29:12Z</time></trkpt><trkpt lat="37.98393991843074" lon="15.152327441567913"><ele>881.2</ele><time>2026-04-26T07:29:13Z</time></trkpt><trkpt lat="37.98384671564446" lon="15.152324415930531"><ele>880.8</ele><time>2026-04-26T07:29:14Z</time></trkpt><trkpt lat="37.983770466973205" lon="15.152319318181153"><ele>880.4</ele><time>2026-04-26T07:29:15Z</time></trkpt><trkpt lat="37.98367227314039" lon="15.152407105220913"><ele>880.0</ele><time>2026-04-26T07:29:17Z</time></trkpt><trkpt lat="37.98368676294734" lon="15.152507101961666"><ele>875.4</ele><time>2026-04-26T07:29:18Z</time></trkpt><trkpt lat="37.983763833429535" lon="15.152570042379278"><ele>870.8</ele><time>2026-04-26T07:29:19Z</time></trkpt><trkpt lat="37.983856781274206" lon="15.152587569460254"><ele>866.2</ele><time>2026-04-26T07:29:20Z</time></trkpt><trkpt lat="37.98395666989964" lon="15.152594453985174"><ele>861.6</ele><time>2026-04-26T07:29:21Z</time></trkpt><trkpt lat="37.98407141420944" lon="15.152597540601835"><ele>857.0</ele><time>2026-04-26T07:29:22Z</time></trkpt><trkpt lat="37.98419087639993" lon="15.15260916035555"><ele>855.5</ele><time>2026-04-26T07:29:23Z</time></trkpt><trkpt lat="37.984318506978305" lon="15.152620761860573"><ele>854.0</ele><time>2026-04-26T07:29:24Z</time></trkpt><trkpt lat="37.98444282350131" lon="15.152629556713784"><ele>852.5</ele><time>2026-04-26T07:29:25Z</time></trkpt><trkpt lat="37.98456712494199" lon="15.152613762780208"><ele>851.0</ele><time>2026-04-26T07:29:26Z</time></trkpt><trkpt lat="37.98467800386226" lon="15.15256632804717"><ele>851.0000000000001</ele><time>2026-04-26T07:29:27Z</time></trkpt><trkpt lat="37.98478089907226" lon="15.152513483929559"><ele>851.0</ele><time>2026-04-26T07:29:28Z</time></trkpt><trkpt lat="37.9848470544188" lon="15.152465786828374"><ele>851.0</ele><time>2026-04-26T07:29:29Z</time></trkpt><trkpt lat="37.98494797734894" lon="15.152488945140911"><ele>851.0</ele><time>2026-04-26T07:29:31Z</time></trkpt><trkpt lat="37.98496543011961" lon="15.152572092158563"><ele>851.0000000000001</ele><time>2026-04-26T07:29:32Z</time></trkpt><trkpt lat="37.98494120265803" lon="15.152648299189295"><ele>851.0</ele><time>2026-04-26T07:29:33Z</time></trkpt><trkpt lat="37.984864439235565" lon="15.152672567747192"><ele>851.0</ele><time>2026-04-26T07:29:34Z</time></trkpt><trkpt lat="37.984786479035506" lon="15.152676807047177"><ele>851.0</ele><time>2026-04-26T07:29:35Z</time></trkpt><trkpt lat="37.98469006778425" lon="15.152723791403329"><ele>851.0</ele><time>2026-04-26T07:29:36Z</time></trkpt><trkpt lat="37.984585643551135" lon="15.152784937413292"><ele>851.0</ele><time>2026-04-26T07:29:37Z</time></trkpt><trkpt lat="37.984486783069585" lon="15.152847585885894"><ele>851.0</ele><time>2026-04-26T07:29:38Z</time></trkpt><trkpt lat="37.984383838071295" lon="15.152909245132312"><ele>851.0</ele><time>2026-04-26T07:29:39Z</time></trkpt><trkpt lat="37.98427799534793" lon="15.152952693939476"><ele>851.0</ele><time>2026-04-26T07:29:40Z</time></trkpt><trkpt lat="37.98417708242952" lon="15.152972182159532"><ele>851.0</ele><time>2026-04-26T07:29:41Z</time></trkpt><trkpt lat="37.98407603745056" lon="15.15300279925058"><ele>851.0</ele><time>2026-04-26T07:29:42Z</time></trkpt><trkpt lat="37.983986337062106" lon="15.153050579580357"><ele>851.0</ele><time>2026-04-26T07:29:43Z</time></trkpt><trkpt lat="37.98389922205825" lon="15.153098465252668"><ele>852.1999999999999</ele><time>2026-04-26T07:29:44Z</time></trkpt><trkpt lat="37.983810895280044" lon="15.153159160350018"><ele>853.4</ele><time>2026-04-26T07:29:45Z</time></trkpt><trkpt lat="37.983727815553394" lon="15.153235422276556"><ele>854.6</ele><time>2026-04-26T07:29:46Z</time></trkpt><trkpt lat="37.98364832137043" lon="15.153318153147726"><ele>855.8</ele><time>2026-04-26T07:29:47Z</time></trkpt><trkpt lat="37.98358468715895" lon="15.153424380521749"><ele>857.0</ele><time>2026-04-26T07:29:48Z</time></trkpt><trkpt lat="37.983528196539865" lon="15.153529582944854"><ele>853.5000000000001</ele><time>2026-04-26T07:29:49Z</time></trkpt><trkpt lat="37.98345865418597" lon="15.153600903547394"><ele>850.0</ele><time>2026-04-26T07:29:50Z</time></trkpt><trkpt lat="37.983373229024615" lon="15.153648272144308"><ele>846.5</ele><time>2026-04-26T07:29:51Z</time></trkpt><trkpt lat="37.98328316925616" lon="15.153663263448527"><ele>843.0</ele><time>2026-04-26T07:29:52Z</time></trkpt><trkpt lat="37.98320505441952" lon="15.153642102835995"><ele>839.5000000000001</ele><time>2026-04-26T07:29:53Z</time></trkpt><trkpt lat="37.9831333218836" lon="15.153585039898418"><ele>836.0</ele><time>2026-04-26T07:29:54Z</time></trkpt><trkpt lat="37.98307927852165" lon="15.153503393234184"><ele>836.0000000000001</ele><time>2026-04-26T07:29:55Z</time></trkpt><trkpt lat="37.98303612041065" lon="15.15340688351964"><ele>836.0</ele><time>2026-04-26T07:29:56Z</time></trkpt><trkpt lat="37.98300277334899" lon="15.15331396344489"><ele>836.0</ele><time>2026-04-26T07:29:57Z</time></trkpt><trkpt lat="37.982974218616995" lon="15.153236575072233"><ele>836.0</ele><time>2026-04-26T07:29:58Z</time></trkpt><trkpt lat="37.98288056305605" lon="15.153191569863617"><ele>836.0000000000001</ele><time>2026-04-26T07:30:00Z</time></trkpt><trkpt lat="37.98282825491681" lon="15.153267374084711"><ele>836.0</ele><time>2026-04-26T07:30:01Z</time></trkpt><trkpt lat="37.98283248091473" lon="15.153376247915277"><ele>836.0</ele><time>2026-04-26T07:30:02Z</time></trkpt><trkpt lat="37.98287565031683" lon="15.153469034796535"><ele>836.0</ele><time>2026-04-26T07:30:03Z</time></trkpt><trkpt lat="37.98294077722414" lon="15.1535634104008"><ele>836.0</ele><time>2026-04-26T07:30:04Z</time></trkpt><trkpt lat="37.98300261361469" lon="15.153667020548795"><ele>836.0</ele><time>2026-04-26T07:30:05Z</time></trkpt><trkpt lat="37.98306429322057" lon="15.153778803919684"><ele>836.0</ele><time>2026-04-26T07:30:06Z</time></trkpt><trkpt lat="37.983123756907645" lon="15.153890099882256"><ele>836.0</ele><time>2026-04-26T07:30:07Z</time></trkpt><trkpt lat="37.98320400720696" lon="15.153982600498596"><ele>836.0</ele><time>2026-04-26T07:30:08Z</time></trkpt><trkpt lat="37.9833103775278" lon="15.15402905996642"><ele>836.0</ele><time>2026-04-26T07:30:09Z</time></trkpt><trkpt lat="37.98341824854222" lon="15.1540332739188"><ele>836.0</ele><time>2026-04-26T07:30:10Z</time></trkpt><trkpt lat="37.98352312238496" lon="15.15402386405688"><ele>836.0</ele><time>2026-04-26T07:30:11Z</time></trkpt><trkpt lat="37.9836262094549" lon="15.154025819697203"><ele>835.1999999999999</ele><time>2026-04-26T07:30:12Z</time></trkpt><trkpt lat="37.98372943066734" lon="15.154034677527912"><ele>834.4</ele><time>2026-04-26T07:30:13Z</time></trkpt><trkpt lat="37.98383177131898" lon="15.154039573333328"><ele>833.6</ele><time>2026-04-26T07:30:14Z</time></trkpt><trkpt lat="37.98393651615076" lon="15.154024670431575"><ele>832.8</ele><time>2026-04-26T07:30:15Z</time></trkpt><trkpt lat="37.98404348968919" lon="15.153979400071513"><ele>832.0</ele><time>2026-04-26T07:30:16Z</time></trkpt><trkpt lat="37.98413901115125" lon="15.153890799890233"><ele>830.4000000000001</ele><time>2026-04-26T07:30:17Z</time></trkpt><trkpt lat="37.984222517117125" lon="15.153793121836166"><ele>828.8000000000001</ele><time>2026-04-26T07:30:18Z</time></trkpt><trkpt lat="37.98431917249767" lon="15.15373566557124"><ele>827.2</ele><time>2026-04-26T07:30:19Z</time></trkpt><trkpt lat="37.984420805962074" lon="15.153717329006415"><ele>825.6</ele><time>2026-04-26T07:30:20Z</time></trkpt><trkpt lat="37.98451895217464" lon="15.1537590177732"><ele>824.0</ele><time>2026-04-26T07:30:21Z</time></trkpt><trkpt lat="37.98461362116557" lon="15.153796749402964"><ele>824.0</ele><time>2026-04-26T07:30:22Z</time></trkpt><trkpt lat="37.984706947891674" lon="15.153842838148433"><ele>824.0</ele><time>2026-04-26T07:30:23Z</time></trkpt><trkpt lat="37.98480078416692" lon="15.153870040345472"><ele>824.0</ele><time>2026-04-26T07:30:24Z</time></trkpt><trkpt lat="37.98489895014659" lon="15.153897932917165"><ele>824.0</ele><time>2026-04-26T07:30:25Z</time></trkpt><trkpt lat="37.98498410578129" lon="15.153928675396823"><ele>824.0</ele><time>2026-04-26T07:30:26Z</time></trkpt><trkpt lat="37.985067363373005" lon="15.153948523414195"><ele>823.6666666666667</ele><time>2026-04-26T07:30:27Z</time></trkpt><trkpt lat="37.985144442432876" lon="15.153930342734125"><ele>823.3333333333334</ele><time>2026-04-26T07:30:28Z</time></trkpt><trkpt lat="37.985221058908245" lon="15.153893264142205"><ele>823.0</ele><time>2026-04-26T07:30:29Z</time></trkpt><trkpt lat="37.9852961295053" lon="15.153837681811005"><ele>822.6666666666667</ele><time>2026-04-26T07:30:30Z</time></trkpt><trkpt lat="37.98537012684715" lon="15.153780208738999"><ele>822.3333333333334</ele><time>2026-04-26T07:30:31Z</time></trkpt><trkpt lat="37.98546467133681" lon="15.153759514486678"><ele>822.0</ele><time>2026-04-26T07:30:32Z</time></trkpt><trkpt lat="37.98556303899472" lon="15.153754891220748"><ele>822.0</ele><time>2026-04-26T07:30:33Z</time></trkpt><trkpt lat="37.98567065249503" lon="15.15379034577684"><ele>822.0</ele><time>2026-04-26T07:30:34Z</time></trkpt><trkpt lat="37.98578616026417" lon="15.153794841771328"><ele>822.0</ele><time>2026-04-26T07:30:35Z</time></trkpt><trkpt lat="37.9859017307446" lon="15.153769047248991"><ele>822.0</ele><time>2026-04-26T07:30:36Z</time></trkpt><trkpt lat="37.98600785197182" lon="15.1537178243148"><ele>820.8</ele><time>2026-04-26T07:30:37Z</time></trkpt><trkpt lat="37.98610687126384" lon="15.153722510468706"><ele>819.6</ele><time>2026-04-26T07:30:38Z</time></trkpt><trkpt lat="37.98619274874995" lon="15.15379357676547"><ele>818.4</ele><time>2026-04-26T07:30:39Z</time></trkpt><trkpt lat="37.98626615792667" lon="15.153872743902344"><ele>817.1999999999999</ele><time>2026-04-26T07:30:40Z</time></trkpt><trkpt lat="37.98633768620857" lon="15.153978190357797"><ele>816.0</ele><time>2026-04-26T07:30:41Z</time></trkpt><trkpt lat="37.986405277833136" lon="15.154098215800651"><ele>812.25</ele><time>2026-04-26T07:30:42Z</time></trkpt><trkpt lat="37.986473250102506" lon="15.154216558152227"><ele>808.5</ele><time>2026-04-26T07:30:43Z</time></trkpt><trkpt lat="37.986534036207956" lon="15.154345547493744"><ele>804.75</ele><time>2026-04-26T07:30:44Z</time></trkpt><trkpt lat="37.98656901334404" lon="15.154483286732589"><ele>801.0</ele><time>2026-04-26T07:30:45Z</time></trkpt><trkpt lat="37.98657717553227" lon="15.154619313433573"><ele>801.0</ele><time>2026-04-26T07:30:46Z</time></trkpt><trkpt lat="37.98657959531946" lon="15.15474352993579"><ele>801.0</ele><time>2026-04-26T07:30:47Z</time></trkpt><trkpt lat="37.98656941067855" lon="15.154829338155842"><ele>801.0</ele><time>2026-04-26T07:30:48Z</time></trkpt><trkpt lat="37.98654410378713" lon="15.154918404461128"><ele>801.0</ele><time>2026-04-26T07:30:50Z</time></trkpt><trkpt lat="37.98651015757743" lon="15.155013438755466"><ele>801.0</ele><time>2026-04-26T07:30:53Z</time></trkpt><trkpt lat="37.98647816671406" lon="15.155130076265404"><ele>801.0</ele><time>2026-04-26T07:30:55Z</time></trkpt><trkpt lat="37.98644859013971" lon="15.155206240571722"><ele>801.1666666666666</ele><time>2026-04-26T07:30:56Z</time></trkpt><trkpt lat="37.986422953363615" lon="15.155296884037975"><ele>801.3333333333333</ele><time>2026-04-26T07:30:57Z</time></trkpt><trkpt lat="37.986398286042615" lon="15.155395836041302"><ele>801.5</ele><time>2026-04-26T07:30:58Z</time></trkpt><trkpt lat="37.98637555391435" lon="15.155505571905211"><ele>801.6666666666666</ele><time>2026-04-26T07:30:59Z</time></trkpt><trkpt lat="37.986372060136446" lon="15.155630033171512"><ele>801.8333333333333</ele><time>2026-04-26T07:31:00Z</time></trkpt><trkpt lat="37.98639285939497" lon="15.15575218781284"><ele>802.0</ele><time>2026-04-26T07:31:01Z</time></trkpt><trkpt lat="37.986456078069686" lon="15.155870526218052"><ele>803.6</ele><time>2026-04-26T07:31:02Z</time></trkpt><trkpt lat="37.98651309578121" lon="15.15598707913294"><ele>805.2</ele><time>2026-04-26T07:31:03Z</time></trkpt><trkpt lat="37.98652882249794" lon="15.156105949085928"><ele>806.8</ele><time>2026-04-26T07:31:04Z</time></trkpt><trkpt lat="37.986494250767315" lon="15.1562210405176"><ele>808.4</ele><time>2026-04-26T07:31:05Z</time></trkpt><trkpt lat="37.98641638517982" lon="15.156311325190561"><ele>810.0</ele><time>2026-04-26T07:31:06Z</time></trkpt><trkpt lat="37.98631385895476" lon="15.156374927784956"><ele>810.0</ele><time>2026-04-26T07:31:07Z</time></trkpt><trkpt lat="37.98620910701458" lon="15.156442052097685"><ele>810.0</ele><time>2026-04-26T07:31:08Z</time></trkpt><trkpt lat="37.98611006060762" lon="15.156563899276865"><ele>810.0</ele><time>2026-04-26T07:31:09Z</time></trkpt><trkpt lat="37.98601650522334" lon="15.156706376439926"><ele>810.0</ele><time>2026-04-26T07:31:10Z</time></trkpt><trkpt lat="37.98592803886262" lon="15.156876929354645"><ele>809.3333333333333</ele><time>2026-04-26T07:31:11Z</time></trkpt><trkpt lat="37.98584200719029" lon="15.157049921384443"><ele>808.6666666666666</ele><time>2026-04-26T07:31:12Z</time></trkpt><trkpt lat="37.98576115518128" lon="15.157229176656154"><ele>808.0</ele><time>2026-04-26T07:31:13Z</time></trkpt><trkpt lat="37.985678540782736" lon="15.157411536366194"><ele>808.0</ele><time>2026-04-26T07:31:14Z</time></trkpt><trkpt lat="37.98560063842963" lon="15.15758750993656"><ele>808.0</ele><time>2026-04-26T07:31:15Z</time></trkpt><trkpt lat="37.98552997001083" lon="15.157763859284296"><ele>808.0</ele><time>2026-04-26T07:31:16Z</time></trkpt><trkpt lat="37.98547590707163" lon="15.157948351820668"><ele>808.0</ele><time>2026-04-26T07:31:17Z</time></trkpt><trkpt lat="37.98544595733351" lon="15.158145015855467"><ele>808.0</ele><time>2026-04-26T07:31:18Z</time></trkpt><trkpt lat="37.9854196738086" lon="15.15834573897037"><ele>808.0</ele><time>2026-04-26T07:31:19Z</time></trkpt><trkpt lat="37.98539923967613" lon="15.15855037061214"><ele>810.5</ele><time>2026-04-26T07:31:20Z</time></trkpt><trkpt lat="37.985387626489214" lon="15.158754477172087"><ele>813.0</ele><time>2026-04-26T07:31:21Z</time></trkpt><trkpt lat="37.985372057590645" lon="15.158939878635707"><ele>815.5</ele><time>2026-04-26T07:31:22Z</time></trkpt><trkpt lat="37.98535361545436" lon="15.159112535151055"><ele>818.0</ele><time>2026-04-26T07:31:23Z</time></trkpt><trkpt lat="37.98531195263282" lon="15.15927685507746"><ele>818.5</ele><time>2026-04-26T07:31:24Z</time></trkpt><trkpt lat="37.98523425177545" lon="15.159420050551187"><ele>819.0</ele><time>2026-04-26T07:31:25Z</time></trkpt><trkpt lat="37.985132170683386" lon="15.159539706267422"><ele>819.5</ele><time>2026-04-26T07:31:26Z</time></trkpt><trkpt lat="37.98501835562868" lon="15.159638816618004"><ele>820.0</ele><time>2026-04-26T07:31:27Z</time></trkpt><trkpt lat="37.984895089948324" lon="15.15972644763163"><ele>813.75</ele><time>2026-04-26T07:31:28Z</time></trkpt><trkpt lat="37.98477621543281" lon="15.159813107443883"><ele>807.5</ele><time>2026-04-26T07:31:29Z</time></trkpt><trkpt lat="37.984673655024125" lon="15.159898155779247"><ele>801.25</ele><time>2026-04-26T07:31:30Z</time></trkpt><trkpt lat="37.98458933028906" lon="15.159992453701328"><ele>795.0</ele><time>2026-04-26T07:31:31Z</time></trkpt><trkpt lat="37.984533573058975" lon="15.160119435622155"><ele>795.0</ele><time>2026-04-26T07:31:32Z</time></trkpt><trkpt lat="37.98450577241742" lon="15.160241230182235"><ele>795.0</ele><time>2026-04-26T07:31:33Z</time></trkpt><trkpt lat="37.9845121995354" lon="15.1603437983811"><ele>795.0</ele><time>2026-04-26T07:31:34Z</time></trkpt><trkpt lat="37.98453928907575" lon="15.160418515896428"><ele>795.0</ele><time>2026-04-26T07:31:35Z</time></trkpt><trkpt lat="37.98459266821695" lon="15.160482115812007"><ele>795.0</ele><time>2026-04-26T07:31:36Z</time></trkpt><trkpt lat="37.98466902816914" lon="15.160509919246882"><ele>795.0</ele><time>2026-04-26T07:31:37Z</time></trkpt><trkpt lat="37.984746884807095" lon="15.160521293540349"><ele>795.0</ele><time>2026-04-26T07:31:38Z</time></trkpt><trkpt lat="37.984828743057825" lon="15.160526417464023"><ele>795.0</ele><time>2026-04-26T07:31:39Z</time></trkpt><trkpt lat="37.98491895263371" lon="15.160515144309997"><ele>795.0</ele><time>2026-04-26T07:31:40Z</time></trkpt><trkpt lat="37.985019538308734" lon="15.160493700692415"><ele>795.0</ele><time>2026-04-26T07:31:41Z</time></trkpt><trkpt lat="37.985125967601164" lon="15.16046640094668"><ele>795.0</ele><time>2026-04-26T07:31:42Z</time></trkpt><trkpt lat="37.985233302804765" lon="15.160430111635616"><ele>796.75</ele><time>2026-04-26T07:31:43Z</time></trkpt><trkpt lat="37.985340810535824" lon="15.160392611344509"><ele>798.5</ele><time>2026-04-26T07:31:44Z</time></trkpt><trkpt lat="37.98545404773244" lon="15.160375600497177"><ele>800.25</ele><time>2026-04-26T07:31:45Z</time></trkpt><trkpt lat="37.98557129996074" lon="15.160385276392477"><ele>802.0</ele><time>2026-04-26T07:31:46Z</time></trkpt><trkpt lat="37.985685909158306" lon="15.160438030541853"><ele>802.0</ele><time>2026-04-26T07:31:47Z</time></trkpt><trkpt lat="37.985785926226534" lon="15.160503800292798"><ele>802.0</ele><time>2026-04-26T07:31:48Z</time></trkpt><trkpt lat="37.98588407698861" lon="15.16056502725991"><ele>802.0</ele><time>2026-04-26T07:31:49Z</time></trkpt><trkpt lat="37.98598206009227" lon="15.16062876298412"><ele>802.0</ele><time>2026-04-26T07:31:50Z</time></trkpt><trkpt lat="37.98609653190964" lon="15.160668098798228"><ele>804.8</ele><time>2026-04-26T07:31:51Z</time></trkpt><trkpt lat="37.986216844512974" lon="15.160684822938428"><ele>807.6</ele><time>2026-04-26T07:31:52Z</time></trkpt><trkpt lat="37.98632673774519" lon="15.160684807131066"><ele>810.4</ele><time>2026-04-26T07:31:53Z</time></trkpt><trkpt lat="37.98641036860464" lon="15.160694232313793"><ele>813.1999999999999</ele><time>2026-04-26T07:31:54Z</time></trkpt><trkpt lat="37.98648174411251" lon="15.160722924772363"><ele>816.0</ele><time>2026-04-26T07:31:55Z</time></trkpt><trkpt lat="37.98654569058448" lon="15.16079502784795"><ele>815.5999999999999</ele><time>2026-04-26T07:31:56Z</time></trkpt><trkpt lat="37.98659270503613" lon="15.160888773924842"><ele>815.2</ele><time>2026-04-26T07:31:57Z</time></trkpt><trkpt lat="37.98662325476493" lon="15.161003872344178"><ele>814.8</ele><time>2026-04-26T07:31:58Z</time></trkpt><trkpt lat="37.986651676568876" lon="15.161121666294525"><ele>814.4000000000001</ele><time>2026-04-26T07:31:59Z</time></trkpt><trkpt lat="37.98670809336206" lon="15.161218494737176"><ele>814.0</ele><time>2026-04-26T07:32:00Z</time></trkpt><trkpt lat="37.986792232393164" lon="15.161290499095319"><ele>814.0</ele><time>2026-04-26T07:32:01Z</time></trkpt><trkpt lat="37.98688216992553" lon="15.161344065668084"><ele>814.0</ele><time>2026-04-26T07:32:02Z</time></trkpt><trkpt lat="37.986939977537375" lon="15.161410037848192"><ele>814.0</ele><time>2026-04-26T07:32:03Z</time></trkpt><trkpt lat="37.98697468773576" lon="15.161485090464398"><ele>814.0</ele><time>2026-04-26T07:32:04Z</time></trkpt><trkpt lat="37.98699838091301" lon="15.161622343771455"><ele>814.0</ele><time>2026-04-26T07:32:06Z</time></trkpt><trkpt lat="37.98695667003399" lon="15.161773935354491"><ele>810.3333333333333</ele><time>2026-04-26T07:32:08Z</time></trkpt><trkpt lat="37.98692571880959" lon="15.161851311072976"><ele>806.6666666666666</ele><time>2026-04-26T07:32:09Z</time></trkpt><trkpt lat="37.98691430519885" lon="15.161941768878721"><ele>803.0</ele><time>2026-04-26T07:32:10Z</time></trkpt><trkpt lat="37.98692875077095" lon="15.162044047431598"><ele>799.3333333333333</ele><time>2026-04-26T07:32:11Z</time></trkpt><trkpt lat="37.986961689096866" lon="15.162147591015987"><ele>795.6666666666666</ele><time>2026-04-26T07:32:12Z</time></trkpt><trkpt lat="37.987028862389124" lon="15.162237338736212"><ele>792.0</ele><time>2026-04-26T07:32:13Z</time></trkpt><trkpt lat="37.98709969316843" lon="15.162324864606308"><ele>790.4000000000001</ele><time>2026-04-26T07:32:14Z</time></trkpt><trkpt lat="37.987140436544024" lon="15.16243871594443"><ele>788.8000000000001</ele><time>2026-04-26T07:32:15Z</time></trkpt><trkpt lat="37.987144257765856" lon="15.162576734366667"><ele>787.2</ele><time>2026-04-26T07:32:16Z</time></trkpt><trkpt lat="37.98710112797018" lon="15.162703182411187"><ele>785.6</ele><time>2026-04-26T07:32:17Z</time></trkpt><trkpt lat="37.987046390223945" lon="15.162807492913679"><ele>784.0</ele><time>2026-04-26T07:32:18Z</time></trkpt><trkpt lat="37.98698577900206" lon="15.162909953461758"><ele>783.9999999999999</ele><time>2026-04-26T07:32:19Z</time></trkpt><trkpt lat="37.98692246376523" lon="15.162990871158083"><ele>784.0</ele><time>2026-04-26T07:32:20Z</time></trkpt><trkpt lat="37.98686210276517" lon="15.16306562409101"><ele>784.0</ele><time>2026-04-26T07:32:21Z</time></trkpt><trkpt lat="37.98681676121603" lon="15.163152705957753"><ele>784.0</ele><time>2026-04-26T07:32:22Z</time></trkpt><trkpt lat="37.986796966605525" lon="15.163254345157142"><ele>783.9999999999999</ele><time>2026-04-26T07:32:23Z</time></trkpt><trkpt lat="37.98679437696129" lon="15.163364054050207"><ele>784.0</ele><time>2026-04-26T07:32:24Z</time></trkpt><trkpt lat="37.986807715963906" lon="15.163488575114519"><ele>783.5</ele><time>2026-04-26T07:32:25Z</time></trkpt><trkpt lat="37.98684135063639" lon="15.163619811561027"><ele>783.0</ele><time>2026-04-26T07:32:26Z</time></trkpt><trkpt lat="37.98687297055279" lon="15.163755927635139"><ele>782.5</ele><time>2026-04-26T07:32:27Z</time></trkpt><trkpt lat="37.98689581996719" lon="15.163896657765637"><ele>782.0</ele><time>2026-04-26T07:32:28Z</time></trkpt><trkpt lat="37.9869122314424" lon="15.16404714381453"><ele>782.0</ele><time>2026-04-26T07:32:29Z</time></trkpt><trkpt lat="37.98693141551736" lon="15.164193868791088"><ele>782.0</ele><time>2026-04-26T07:32:30Z</time></trkpt><trkpt lat="37.98694890858568" lon="15.164331824383794"><ele>782.0</ele><time>2026-04-26T07:32:31Z</time></trkpt><trkpt lat="37.98696553164342" lon="15.164465974711284"><ele>782.0</ele><time>2026-04-26T07:32:32Z</time></trkpt><trkpt lat="37.98698237760618" lon="15.164587087438738"><ele>782.0</ele><time>2026-04-26T07:32:33Z</time></trkpt><trkpt lat="37.98699164972147" lon="15.164688195794023"><ele>782.0</ele><time>2026-04-26T07:32:34Z</time></trkpt><trkpt lat="37.986984297408895" lon="15.164771142310627"><ele>782.0</ele><time>2026-04-26T07:32:35Z</time></trkpt><trkpt lat="37.98692208853071" lon="15.164880562025418"><ele>782.0</ele><time>2026-04-26T07:32:37Z</time></trkpt><trkpt lat="37.9868454143248" lon="15.164922542556363"><ele>782.0</ele><time>2026-04-26T07:32:39Z</time></trkpt><trkpt lat="37.986745489895604" lon="15.164905207955165"><ele>782.0</ele><time>2026-04-26T07:32:41Z</time></trkpt><trkpt lat="37.98664256141875" lon="15.164849874632283"><ele>775.3333333333334</ele><time>2026-04-26T07:32:43Z</time></trkpt><trkpt lat="37.98658206873327" lon="15.164811325220155"><ele>768.6666666666667</ele><time>2026-04-26T07:32:44Z</time></trkpt><trkpt lat="37.98651433395911" lon="15.164760278365561"><ele>762.0</ele><time>2026-04-26T07:32:45Z</time></trkpt><trkpt lat="37.98644101810854" lon="15.164713455673974"><ele>755.3333333333334</ele><time>2026-04-26T07:32:46Z</time></trkpt><trkpt lat="37.98635332443001" lon="15.16467827314832"><ele>748.6666666666667</ele><time>2026-04-26T07:32:47Z</time></trkpt><trkpt lat="37.98625609820759" lon="15.164663120998709"><ele>742.0</ele><time>2026-04-26T07:32:48Z</time></trkpt><trkpt lat="37.986154250190296" lon="15.164661035922014"><ele>742.0</ele><time>2026-04-26T07:32:49Z</time></trkpt><trkpt lat="37.98604814139104" lon="15.164648910554597"><ele>742.0</ele><time>2026-04-26T07:32:50Z</time></trkpt><trkpt lat="37.985931274159796" lon="15.164607238574948"><ele>742.0</ele><time>2026-04-26T07:32:51Z</time></trkpt><trkpt lat="37.985814799988034" lon="15.164536937385147"><ele>742.0</ele><time>2026-04-26T07:32:52Z</time></trkpt><trkpt lat="37.98570027754183" lon="15.16449777687589"><ele>737.25</ele><time>2026-04-26T07:32:53Z</time></trkpt><trkpt lat="37.985574503441555" lon="15.164480378166518"><ele>732.5</ele><time>2026-04-26T07:32:54Z</time></trkpt><trkpt lat="37.985443836207516" lon="15.164462405118584"><ele>727.75</ele><time>2026-04-26T07:32:55Z</time></trkpt><trkpt lat="37.98531764568304" lon="15.164445054540433"><ele>723.0</ele><time>2026-04-26T07:32:56Z</time></trkpt><trkpt lat="37.98519834059704" lon="15.164427925945517"><ele>723.0</ele><time>2026-04-26T07:32:57Z</time></trkpt><trkpt lat="37.985092530919886" lon="15.164423265951813"><ele>723.0</ele><time>2026-04-26T07:32:58Z</time></trkpt><trkpt lat="37.98499011001186" lon="15.164462830323222"><ele>723.0</ele><time>2026-04-26T07:32:59Z</time></trkpt><trkpt lat="37.98490495311973" lon="15.164533678227059"><ele>723.0</ele><time>2026-04-26T07:33:00Z</time></trkpt><trkpt lat="37.98483613491726" lon="15.164613579359433"><ele>723.0</ele><time>2026-04-26T07:33:01Z</time></trkpt><trkpt lat="37.98477664704489" lon="15.164702740354194"><ele>721.4</ele><time>2026-04-26T07:33:02Z</time></trkpt><trkpt lat="37.984733341276836" lon="15.164807272068979"><ele>719.8</ele><time>2026-04-26T07:33:03Z</time></trkpt><trkpt lat="37.98471468966385" lon="15.16492151538232"><ele>718.2</ele><time>2026-04-26T07:33:04Z</time></trkpt><trkpt lat="37.98467885325647" lon="15.165020478416128"><ele>716.6</ele><time>2026-04-26T07:33:05Z</time></trkpt><trkpt lat="37.98460727540926" lon="15.165094000747736"><ele>715.0</ele><time>2026-04-26T07:33:06Z</time></trkpt><trkpt lat="37.984523287838634" lon="15.165137409718204"><ele>714.8</ele><time>2026-04-26T07:33:07Z</time></trkpt><trkpt lat="37.984437793879316" lon="15.165159564487482"><ele>714.6</ele><time>2026-04-26T07:33:08Z</time></trkpt><trkpt lat="37.98435448366493" lon="15.16518127071909"><ele>714.4000000000001</ele><time>2026-04-26T07:33:09Z</time></trkpt><trkpt lat="37.984268705871735" lon="15.165216522354358"><ele>714.2</ele><time>2026-04-26T07:33:10Z</time></trkpt><trkpt lat="37.984177986191376" lon="15.16526130557691"><ele>714.0</ele><time>2026-04-26T07:33:11Z</time></trkpt><trkpt lat="37.98407983904039" lon="15.165303793094935"><ele>714.0</ele><time>2026-04-26T07:33:12Z</time></trkpt><trkpt lat="37.98397677617162" lon="15.16533214683246"><ele>714.0</ele><time>2026-04-26T07:33:13Z</time></trkpt><trkpt lat="37.983876779781816" lon="15.165362592729581"><ele>714.0</ele><time>2026-04-26T07:33:14Z</time></trkpt><trkpt lat="37.98378003174466" lon="15.165405681291489"><ele>714.0</ele><time>2026-04-26T07:33:15Z</time></trkpt><trkpt lat="37.983697438637364" lon="15.165482409798178"><ele>714.0</ele><time>2026-04-26T07:33:16Z</time></trkpt><trkpt lat="37.98362821684309" lon="15.165572139446892"><ele>714.0</ele><time>2026-04-26T07:33:17Z</time></trkpt><trkpt lat="37.98357810237446" lon="15.165678487307611"><ele>714.0</ele><time>2026-04-26T07:33:18Z</time></trkpt><trkpt lat="37.9835657592673" lon="15.165803699080715"><ele>714.0</ele><time>2026-04-26T07:33:19Z</time></trkpt><trkpt lat="37.98356426975539" lon="15.165941762670993"><ele>714.0</ele><time>2026-04-26T07:33:20Z</time></trkpt><trkpt lat="37.983541245564524" lon="15.166078483998179"><ele>714.0</ele><time>2026-04-26T07:33:21Z</time></trkpt><trkpt lat="37.98349354834068" lon="15.166217347045913"><ele>713.5</ele><time>2026-04-26T07:33:22Z</time></trkpt><trkpt lat="37.98342629376106" lon="15.166355231472453"><ele>713.0</ele><time>2026-04-26T07:33:23Z</time></trkpt><trkpt lat="37.98335635090346" lon="15.166496315444961"><ele>712.5</ele><time>2026-04-26T07:33:24Z</time></trkpt><trkpt lat="37.983284527054515" lon="15.166638077463496"><ele>712.0</ele><time>2026-04-26T07:33:25Z</time></trkpt><trkpt lat="37.98322084198421" lon="15.166782475779476"><ele>712.0</ele><time>2026-04-26T07:33:26Z</time></trkpt><trkpt lat="37.98316411826264" lon="15.166918692168348"><ele>712.0</ele><time>2026-04-26T07:33:27Z</time></trkpt><trkpt lat="37.98311755608821" lon="15.167054793289067"><ele>712.0</ele><time>2026-04-26T07:33:28Z</time></trkpt><trkpt lat="37.983081236841144" lon="15.167192869460429"><ele>712.0</ele><time>2026-04-26T07:33:29Z</time></trkpt><trkpt lat="37.98305448449578" lon="15.167338624380873"><ele>714.0</ele><time>2026-04-26T07:33:30Z</time></trkpt><trkpt lat="37.98300862716042" lon="15.167482492490464"><ele>716.0</ele><time>2026-04-26T07:33:31Z</time></trkpt><trkpt lat="37.98295118995428" lon="15.16762307835091"><ele>718.0</ele><time>2026-04-26T07:33:32Z</time></trkpt><trkpt lat="37.98288146101929" lon="15.167757931545193"><ele>720.0</ele><time>2026-04-26T07:33:33Z</time></trkpt><trkpt lat="37.98280152835462" lon="15.167892655432885"><ele>720.0</ele><time>2026-04-26T07:33:34Z</time></trkpt><trkpt lat="37.982728190044206" lon="15.168028339143692"><ele>720.0</ele><time>2026-04-26T07:33:35Z</time></trkpt><trkpt lat="37.982652077594786" lon="15.168151611322111"><ele>720.0</ele><time>2026-04-26T07:33:36Z</time></trkpt><trkpt lat="37.98257222902149" lon="15.168265080433633"><ele>720.0</ele><time>2026-04-26T07:33:37Z</time></trkpt><trkpt lat="37.982482041197976" lon="15.168359737244895"><ele>715.25</ele><time>2026-04-26T07:33:38Z</time></trkpt><trkpt lat="37.98239543347663" lon="15.16845161749353"><ele>710.5</ele><time>2026-04-26T07:33:39Z</time></trkpt><trkpt lat="37.98230619631744" lon="15.168552181845152"><ele>705.75</ele><time>2026-04-26T07:33:40Z</time></trkpt><trkpt lat="37.982216658186864" lon="15.168657703132617"><ele>701.0</ele><time>2026-04-26T07:33:41Z</time></trkpt><trkpt lat="37.98213282757514" lon="15.168757115468763"><ele>701.0</ele><time>2026-04-26T07:33:42Z</time></trkpt><trkpt lat="37.982043797197846" lon="15.168844140838297"><ele>701.0</ele><time>2026-04-26T07:33:43Z</time></trkpt><trkpt lat="37.981951075954214" lon="15.168911652828864"><ele>701.0</ele><time>2026-04-26T07:33:44Z</time></trkpt><trkpt lat="37.98185947977774" lon="15.168963721691101"><ele>701.0</ele><time>2026-04-26T07:33:45Z</time></trkpt><trkpt lat="37.981772484936506" lon="15.169018173767622"><ele>701.0</ele><time>2026-04-26T07:33:46Z</time></trkpt><trkpt lat="37.9816934831291" lon="15.169083741991024"><ele>698.0</ele><time>2026-04-26T07:33:47Z</time></trkpt><trkpt lat="37.98163890179815" lon="15.169180012404942"><ele>695.0</ele><time>2026-04-26T07:33:48Z</time></trkpt><trkpt lat="37.98160148504328" lon="15.169296458453527"><ele>692.0</ele><time>2026-04-26T07:33:49Z</time></trkpt><trkpt lat="37.98159096813622" lon="15.169426676893963"><ele>689.0</ele><time>2026-04-26T07:33:50Z</time></trkpt><trkpt lat="37.981599483741284" lon="15.1695568304418"><ele>686.0</ele><time>2026-04-26T07:33:51Z</time></trkpt><trkpt lat="37.98161205235093" lon="15.169687402449124"><ele>686.0</ele><time>2026-04-26T07:33:52Z</time></trkpt><trkpt lat="37.98162659604096" lon="15.169821228414266"><ele>686.0</ele><time>2026-04-26T07:33:53Z</time></trkpt><trkpt lat="37.98162312025071" lon="15.16994310302644"><ele>686.0</ele><time>2026-04-26T07:33:54Z</time></trkpt><trkpt lat="37.98164449457306" lon="15.170032872783157"><ele>686.0</ele><time>2026-04-26T07:33:55Z</time></trkpt><trkpt lat="37.98173597559744" lon="15.170130352309606"><ele>686.0</ele><time>2026-04-26T07:33:57Z</time></trkpt><trkpt lat="37.98180045922591" lon="15.170124647645777"><ele>687.5999999999999</ele><time>2026-04-26T07:33:58Z</time></trkpt><trkpt lat="37.981932578421855" lon="15.170093554275363"><ele>689.2</ele><time>2026-04-26T07:34:00Z</time></trkpt><trkpt lat="37.98202349323318" lon="15.170099924561363"><ele>690.8</ele><time>2026-04-26T07:34:01Z</time></trkpt><trkpt lat="37.9821312767607" lon="15.17009342016478"><ele>692.4000000000001</ele><time>2026-04-26T07:34:02Z</time></trkpt><trkpt lat="37.98223299464743" lon="15.17007772916556"><ele>694.0</ele><time>2026-04-26T07:34:03Z</time></trkpt><trkpt lat="37.98232949000182" lon="15.170075350047508"><ele>694.0</ele><time>2026-04-26T07:34:04Z</time></trkpt><trkpt lat="37.98241870871561" lon="15.170090309830433"><ele>694.0</ele><time>2026-04-26T07:34:05Z</time></trkpt><trkpt lat="37.98250439901314" lon="15.17011924275761"><ele>694.0</ele><time>2026-04-26T07:34:06Z</time></trkpt><trkpt lat="37.98258426670677" lon="15.17015997774371"><ele>694.0</ele><time>2026-04-26T07:34:07Z</time></trkpt><trkpt lat="37.98266453566784" lon="15.17019977703465"><ele>694.0</ele><time>2026-04-26T07:34:08Z</time></trkpt><trkpt lat="37.98275118735641" lon="15.170246822010716"><ele>694.0</ele><time>2026-04-26T07:34:09Z</time></trkpt><trkpt lat="37.98283457016797" lon="15.170320837596124"><ele>693.4000000000001</ele><time>2026-04-26T07:34:10Z</time></trkpt><trkpt lat="37.98290927079993" lon="15.170420678719092"><ele>692.8</ele><time>2026-04-26T07:34:11Z</time></trkpt><trkpt lat="37.98297963402462" lon="15.170533970060273"><ele>692.2</ele><time>2026-04-26T07:34:12Z</time></trkpt><trkpt lat="37.98304380381289" lon="15.170645875847447"><ele>691.5999999999999</ele><time>2026-04-26T07:34:13Z</time></trkpt><trkpt lat="37.98309613877632" lon="15.170755826902274"><ele>691.0</ele><time>2026-04-26T07:34:14Z</time></trkpt><trkpt lat="37.98315085998152" lon="15.170858383176396"><ele>691.0</ele><time>2026-04-26T07:34:15Z</time></trkpt><trkpt lat="37.98322595470256" lon="15.170942512040495"><ele>691.0</ele><time>2026-04-26T07:34:16Z</time></trkpt><trkpt lat="37.983313256087705" lon="15.171006801723614"><ele>691.0</ele><time>2026-04-26T07:34:17Z</time></trkpt><trkpt lat="37.98341578072922" lon="15.171048318893293"><ele>691.0</ele><time>2026-04-26T07:34:18Z</time></trkpt><trkpt lat="37.98352092178958" lon="15.171088493338724"><ele>691.0</ele><time>2026-04-26T07:34:19Z</time></trkpt><trkpt lat="37.98362819810308" lon="15.171144672197235"><ele>689.25</ele><time>2026-04-26T07:34:20Z</time></trkpt><trkpt lat="37.983715988254794" lon="15.171251316949718"><ele>687.5</ele><time>2026-04-26T07:34:21Z</time></trkpt><trkpt lat="37.983799324657646" lon="15.17138015277057"><ele>685.75</ele><time>2026-04-26T07:34:22Z</time></trkpt><trkpt lat="37.98389106226265" lon="15.171490944538924"><ele>684.0</ele><time>2026-04-26T07:34:23Z</time></trkpt><trkpt lat="37.98397406407821" lon="15.171569674374297"><ele>684.0</ele><time>2026-04-26T07:34:24Z</time></trkpt><trkpt lat="37.98405159721449" lon="15.171631770057429"><ele>684.0</ele><time>2026-04-26T07:34:25Z</time></trkpt><trkpt lat="37.98412856918886" lon="15.17167633506938"><ele>684.0</ele><time>2026-04-26T07:34:26Z</time></trkpt><trkpt lat="37.98420544179304" lon="15.171679898029804"><ele>684.0</ele><time>2026-04-26T07:34:27Z</time></trkpt><trkpt lat="37.98427149457167" lon="15.171666432306042"><ele>684.0</ele><time>2026-04-26T07:34:28Z</time></trkpt><trkpt lat="37.98434400247383" lon="15.17170963676433"><ele>684.0</ele><time>2026-04-26T07:34:30Z</time></trkpt><trkpt lat="37.98429723949498" lon="15.171804127456852"><ele>684.0</ele><time>2026-04-26T07:34:32Z</time></trkpt><trkpt lat="37.98422921856329" lon="15.171788073115177"><ele>684.0</ele><time>2026-04-26T07:34:33Z</time></trkpt><trkpt lat="37.98414820990605" lon="15.171736537559314"><ele>684.0</ele><time>2026-04-26T07:34:34Z</time></trkpt><trkpt lat="37.984057153800805" lon="15.171692637315202"><ele>684.0</ele><time>2026-04-26T07:34:35Z</time></trkpt><trkpt lat="37.98396598404125" lon="15.17167050602028"><ele>684.0</ele><time>2026-04-26T07:34:36Z</time></trkpt><trkpt lat="37.9838529319502" lon="15.171600966427578"><ele>691.25</ele><time>2026-04-26T07:34:37Z</time></trkpt><trkpt lat="37.983755145849706" lon="15.171511160059632"><ele>698.5</ele><time>2026-04-26T07:34:38Z</time></trkpt><trkpt lat="37.98364716093641" lon="15.171428160570573"><ele>705.75</ele><time>2026-04-26T07:34:39Z</time></trkpt><trkpt lat="37.983529917331694" lon="15.171365362007606"><ele>713.0</ele><time>2026-04-26T07:34:40Z</time></trkpt><trkpt lat="37.98339801064076" lon="15.171334746456285"><ele>708.5999999999999</ele><time>2026-04-26T07:34:41Z</time></trkpt><trkpt lat="37.98327110712955" lon="15.171317253318668"><ele>704.1999999999999</ele><time>2026-04-26T07:34:42Z</time></trkpt><trkpt lat="37.98316499212657" lon="15.171274435538486"><ele>699.8</ele><time>2026-04-26T07:34:43Z</time></trkpt><trkpt lat="37.983077840686356" lon="15.171205096080623"><ele>695.4</ele><time>2026-04-26T07:34:44Z</time></trkpt><trkpt lat="37.98299195023012" lon="15.171134246533256"><ele>691.0</ele><time>2026-04-26T07:34:45Z</time></trkpt><trkpt lat="37.98293879919745" lon="15.171047485925738"><ele>691.0</ele><time>2026-04-26T07:34:46Z</time></trkpt><trkpt lat="37.98288776368234" lon="15.170963261583621"><ele>691.0</ele><time>2026-04-26T07:34:47Z</time></trkpt><trkpt lat="37.982828328260574" lon="15.17089243102802"><ele>691.0</ele><time>2026-04-26T07:34:48Z</time></trkpt><trkpt lat="37.982775974209986" lon="15.170822662629432"><ele>691.0</ele><time>2026-04-26T07:34:49Z</time></trkpt><trkpt lat="37.98269301451107" lon="15.170794813169573"><ele>691.0</ele><time>2026-04-26T07:34:50Z</time></trkpt><trkpt lat="37.9826073065186" lon="15.170780156957248"><ele>691.0</ele><time>2026-04-26T07:34:51Z</time></trkpt><trkpt lat="37.982534547941086" lon="15.170791188462307"><ele>687.3333333333334</ele><time>2026-04-26T07:34:52Z</time></trkpt><trkpt lat="37.982455390661954" lon="15.170801308736612"><ele>683.6666666666667</ele><time>2026-04-26T07:34:54Z</time></trkpt><trkpt lat="37.98238699825904" lon="15.170822622873116"><ele>680.0</ele><time>2026-04-26T07:34:56Z</time></trkpt><trkpt lat="37.98231866783761" lon="15.170845813938719"><ele>676.3333333333334</ele><time>2026-04-26T07:34:58Z</time></trkpt><trkpt lat="37.98221902799199" lon="15.17084828535794"><ele>672.6666666666666</ele><time>2026-04-26T07:35:00Z</time></trkpt><trkpt lat="37.98211723597922" lon="15.170832942408888"><ele>669.0</ele><time>2026-04-26T07:35:02Z</time></trkpt><trkpt lat="37.98200334095239" lon="15.170797531237353"><ele>669.0</ele><time>2026-04-26T07:35:04Z</time></trkpt><trkpt lat="37.98193707089435" lon="15.17077640371252"><ele>669.0</ele><time>2026-04-26T07:35:05Z</time></trkpt><trkpt lat="37.981864773253825" lon="15.170738314338267"><ele>669.0</ele><time>2026-04-26T07:35:06Z</time></trkpt><trkpt lat="37.98178205222929" lon="15.17074407654261"><ele>669.0</ele><time>2026-04-26T07:35:07Z</time></trkpt><trkpt lat="37.98169205459908" lon="15.170766439935983"><ele>669.0</ele><time>2026-04-26T07:35:08Z</time></trkpt><trkpt lat="37.9815902262236" lon="15.17079865162618"><ele>669.0</ele><time>2026-04-26T07:35:09Z</time></trkpt><trkpt lat="37.9815062169909" lon="15.170804045026511"><ele>667.5</ele><time>2026-04-26T07:35:10Z</time></trkpt><trkpt lat="37.98142398425377" lon="15.170802739144062"><ele>666.0</ele><time>2026-04-26T07:35:11Z</time></trkpt><trkpt lat="37.98133677897364" lon="15.170851717414159"><ele>664.5</ele><time>2026-04-26T07:35:12Z</time></trkpt><trkpt lat="37.981259338190455" lon="15.170851043651103"><ele>663.0</ele><time>2026-04-26T07:35:13Z</time></trkpt><trkpt lat="37.98119339348441" lon="15.17079998085277"><ele>661.5</ele><time>2026-04-26T07:35:14Z</time></trkpt><trkpt lat="37.98112840983962" lon="15.170746284699902"><ele>660.0</ele><time>2026-04-26T07:35:15Z</time></trkpt><trkpt lat="37.981059484553825" lon="15.17070789085471"><ele>663.4285714285714</ele><time>2026-04-26T07:35:16Z</time></trkpt><trkpt lat="37.98098654052192" lon="15.170678608984332"><ele>666.8571428571429</ele><time>2026-04-26T07:35:17Z</time></trkpt><trkpt lat="37.98091951044401" lon="15.170631328876938"><ele>670.2857142857142</ele><time>2026-04-26T07:35:18Z</time></trkpt><trkpt lat="37.98088853473945" lon="15.170536788664005"><ele>673.7142857142858</ele><time>2026-04-26T07:35:19Z</time></trkpt><trkpt lat="37.98090851947483" lon="15.170443920773778"><ele>677.1428571428571</ele><time>2026-04-26T07:35:20Z</time></trkpt><trkpt lat="37.98094374556942" lon="15.170359753019333"><ele>680.5714285714286</ele><time>2026-04-26T07:35:21Z</time></trkpt><trkpt lat="37.980965604553994" lon="15.17028357177163"><ele>684.0</ele><time>2026-04-26T07:35:22Z</time></trkpt><trkpt lat="37.98098268504323" lon="15.170200449429924"><ele>684.0</ele><time>2026-04-26T07:35:23Z</time></trkpt><trkpt lat="37.98098551436859" lon="15.170051268420735"><ele>684.0</ele><time>2026-04-26T07:35:25Z</time></trkpt><trkpt lat="37.98090670313471" lon="15.169945219924074"><ele>684.0</ele><time>2026-04-26T07:35:27Z</time></trkpt><trkpt lat="37.980792076549605" lon="15.169949377120748"><ele>684.0</ele><time>2026-04-26T07:35:29Z</time></trkpt><trkpt lat="37.98073264901045" lon="15.170006922309128"><ele>684.0</ele><time>2026-04-26T07:35:30Z</time></trkpt><trkpt lat="37.98069172009575" lon="15.170089601371556"><ele>679.0</ele><time>2026-04-26T07:35:31Z</time></trkpt><trkpt lat="37.98067950860657" lon="15.170188044049944"><ele>674.0</ele><time>2026-04-26T07:35:32Z</time></trkpt><trkpt lat="37.98068617912653" lon="15.170272034524837"><ele>669.0</ele><time>2026-04-26T07:35:33Z</time></trkpt><trkpt lat="37.980722044442594" lon="15.170362734027128"><ele>664.0</ele><time>2026-04-26T07:35:34Z</time></trkpt><trkpt lat="37.98075386346174" lon="15.17049222060748"><ele>659.0</ele><time>2026-04-26T07:35:36Z</time></trkpt><trkpt lat="37.98078700255492" lon="15.170633490832696"><ele>654.0</ele><time>2026-04-26T07:35:38Z</time></trkpt><trkpt lat="37.98082379294511" lon="15.17078178135422"><ele>655.0</ele><time>2026-04-26T07:35:40Z</time></trkpt><trkpt lat="37.98088956416466" lon="15.170926475622444"><ele>656.0</ele><time>2026-04-26T07:35:42Z</time></trkpt><trkpt lat="37.980940518975416" lon="15.170995597175637"><ele>657.0</ele><time>2026-04-26T07:35:43Z</time></trkpt><trkpt lat="37.98098973607876" lon="15.17106387060343"><ele>658.0</ele><time>2026-04-26T07:35:44Z</time></trkpt><trkpt lat="37.981046179085254" lon="15.171135798125416"><ele>659.0</ele><time>2026-04-26T07:35:45Z</time></trkpt><trkpt lat="37.981105142963294" lon="15.17121328788252"><ele>660.0</ele><time>2026-04-26T07:35:46Z</time></trkpt><trkpt lat="37.98116704166794" lon="15.17129105349285"><ele>660.0</ele><time>2026-04-26T07:35:47Z</time></trkpt><trkpt lat="37.9812253025694" lon="15.171370598691158"><ele>660.0</ele><time>2026-04-26T07:35:48Z</time></trkpt><trkpt lat="37.981282902628095" lon="15.171449102400683"><ele>660.0</ele><time>2026-04-26T07:35:49Z</time></trkpt><trkpt lat="37.981337698933444" lon="15.17153295808221"><ele>660.0</ele><time>2026-04-26T07:35:50Z</time></trkpt><trkpt lat="37.98139588122178" lon="15.171611826426998"><ele>660.0</ele><time>2026-04-26T07:35:51Z</time></trkpt><trkpt lat="37.981456049935964" lon="15.171685375828766"><ele>660.0</ele><time>2026-04-26T07:35:52Z</time></trkpt><trkpt lat="37.98151944436845" lon="15.171760327909496"><ele>658.0</ele><time>2026-04-26T07:35:53Z</time></trkpt><trkpt lat="37.98158059067842" lon="15.171842491396086"><ele>656.0</ele><time>2026-04-26T07:35:54Z</time></trkpt><trkpt lat="37.98165345117157" lon="15.171940694290187"><ele>654.0</ele><time>2026-04-26T07:35:55Z</time></trkpt><trkpt lat="37.981730284361845" lon="15.172045502669071"><ele>652.0</ele><time>2026-04-26T07:35:56Z</time></trkpt><trkpt lat="37.98181177793558" lon="15.172155233845437"><ele>650.0</ele><time>2026-04-26T07:35:57Z</time></trkpt><trkpt lat="37.9818952522619" lon="15.172270117756186"><ele>645.5</ele><time>2026-04-26T07:35:58Z</time></trkpt><trkpt lat="37.9819802632186" lon="15.172384064942188"><ele>641.0</ele><time>2026-04-26T07:35:59Z</time></trkpt><trkpt lat="37.98206242018361" lon="15.172501899773199"><ele>636.5</ele><time>2026-04-26T07:36:00Z</time></trkpt><trkpt lat="37.982147752230894" lon="15.172624754045938"><ele>632.0</ele><time>2026-04-26T07:36:01Z</time></trkpt><trkpt lat="37.98223497618811" lon="15.17273768348805"><ele>632.0</ele><time>2026-04-26T07:36:02Z</time></trkpt><trkpt lat="37.98233160475196" lon="15.172845034091488"><ele>632.0</ele><time>2026-04-26T07:36:03Z</time></trkpt><trkpt lat="37.98242838621876" lon="15.172953141493274"><ele>632.0</ele><time>2026-04-26T07:36:04Z</time></trkpt><trkpt lat="37.98252344990281" lon="15.173056610443858"><ele>632.0</ele><time>2026-04-26T07:36:05Z</time></trkpt><trkpt lat="37.982615681319075" lon="15.17315292542641"><ele>630.3333333333333</ele><time>2026-04-26T07:36:06Z</time></trkpt><trkpt lat="37.98270514642103" lon="15.173243434042934"><ele>628.6666666666666</ele><time>2026-04-26T07:36:07Z</time></trkpt><trkpt lat="37.98277834066675" lon="15.173320864117247"><ele>627.0</ele><time>2026-04-26T07:36:08Z</time></trkpt><trkpt lat="37.98282699808876" lon="15.173374192627314"><ele>625.3333333333334</ele><time>2026-04-26T07:36:09Z</time></trkpt><trkpt lat="37.98287191040177" lon="15.173452730960426"><ele>623.6666666666667</ele><time>2026-04-26T07:37:45Z</time></trkpt><trkpt lat="37.9829293186227" lon="15.173522526722461"><ele>622.0</ele><time>2026-04-26T07:37:47Z</time></trkpt><trkpt lat="37.98300020832457" lon="15.173623964446435"><ele>622.0</ele><time>2026-04-26T07:37:49Z</time></trkpt><trkpt lat="37.983046474437614" lon="15.173685294212305"><ele>622.0</ele><time>2026-04-26T07:37:50Z</time></trkpt><trkpt lat="37.98310262038249" lon="15.173747759644366"><ele>622.0</ele><time>2026-04-26T07:37:51Z</time></trkpt><trkpt lat="37.9831684412697" lon="15.173805185270048"><ele>622.0</ele><time>2026-04-26T07:37:52Z</time></trkpt><trkpt lat="37.983242131127426" lon="15.173860845988008"><ele>622.0</ele><time>2026-04-26T07:37:53Z</time></trkpt><trkpt lat="37.98331372478272" lon="15.173919208539278"><ele>622.0</ele><time>2026-04-26T07:37:54Z</time></trkpt><trkpt lat="37.983378692722525" lon="15.173987527216632"><ele>623.1666666666667</ele><time>2026-04-26T07:37:55Z</time></trkpt><trkpt lat="37.983447662933436" lon="15.174062585870132"><ele>624.3333333333334</ele><time>2026-04-26T07:37:56Z</time></trkpt><trkpt lat="37.98351327897231" lon="15.174135348550244"><ele>625.5</ele><time>2026-04-26T07:37:57Z</time></trkpt><trkpt lat="37.983574995197294" lon="15.174218673347363"><ele>626.6666666666666</ele><time>2026-04-26T07:37:58Z</time></trkpt><trkpt lat="37.98360978902739" lon="15.174310599408411"><ele>627.8333333333333</ele><time>2026-04-26T07:37:59Z</time></trkpt><trkpt lat="37.9836189303979" lon="15.174405088789193"><ele>629.0</ele><time>2026-04-26T07:38:00Z</time></trkpt><trkpt lat="37.9836031507197" lon="15.174496244977153"><ele>629.0</ele><time>2026-04-26T07:38:01Z</time></trkpt><trkpt lat="37.98356208702141" lon="15.174563928420955"><ele>629.0</ele><time>2026-04-26T07:38:02Z</time></trkpt><trkpt lat="37.983511169674955" lon="15.174650956390074"><ele>629.0</ele><time>2026-04-26T07:38:03Z</time></trkpt><trkpt lat="37.98345673576142" lon="15.174737879582045"><ele>629.0</ele><time>2026-04-26T07:38:04Z</time></trkpt><trkpt lat="37.98339558056341" lon="15.174809683713328"><ele>629.0</ele><time>2026-04-26T07:38:05Z</time></trkpt><trkpt lat="37.98334817758439" lon="15.174876663196136"><ele>629.0</ele><time>2026-04-26T07:38:06Z</time></trkpt><trkpt lat="37.98333923835695" lon="15.174972648977267"><ele>626.25</ele><time>2026-04-26T07:38:07Z</time></trkpt><trkpt lat="37.98336655203077" lon="15.175086846656825"><ele>623.5</ele><time>2026-04-26T07:38:08Z</time></trkpt><trkpt lat="37.98341966937678" lon="15.175205792230892"><ele>620.75</ele><time>2026-04-26T07:38:09Z</time></trkpt><trkpt lat="37.983490824967845" lon="15.175330236265422"><ele>618.0</ele><time>2026-04-26T07:38:10Z</time></trkpt><trkpt lat="37.98357067744152" lon="15.175461764858502"><ele>618.0</ele><time>2026-04-26T07:38:11Z</time></trkpt><trkpt lat="37.983659477521805" lon="15.175621391545183"><ele>618.0</ele><time>2026-04-26T07:38:12Z</time></trkpt><trkpt lat="37.983753766760344" lon="15.175792727490066"><ele>618.0</ele><time>2026-04-26T07:38:13Z</time></trkpt><trkpt lat="37.98385136777694" lon="15.17597021299162"><ele>614.6666666666666</ele><time>2026-04-26T07:38:14Z</time></trkpt><trkpt lat="37.98394483346119" lon="15.176143090468274"><ele>611.3333333333333</ele><time>2026-04-26T07:38:15Z</time></trkpt><trkpt lat="37.984044020171964" lon="15.176313063834526"><ele>608.0</ele><time>2026-04-26T07:38:16Z</time></trkpt><trkpt lat="37.98414161799397" lon="15.176483728498043"><ele>608.0</ele><time>2026-04-26T07:38:17Z</time></trkpt><trkpt lat="37.98421993973487" lon="15.176651196182181"><ele>608.0</ele><time>2026-04-26T07:38:18Z</time></trkpt><trkpt lat="37.98428626044486" lon="15.176813166780606"><ele>608.0</ele><time>2026-04-26T07:38:19Z</time></trkpt><trkpt lat="37.984344997622486" lon="15.176975136977646"><ele>608.0</ele><time>2026-04-26T07:38:20Z</time></trkpt><trkpt lat="37.9843938465828" lon="15.177148666571718"><ele>608.0</ele><time>2026-04-26T07:38:21Z</time></trkpt><trkpt lat="37.984431364313" lon="15.177337782331465"><ele>608.0</ele><time>2026-04-26T07:38:22Z</time></trkpt><trkpt lat="37.98444616257279" lon="15.177524356693501"><ele>608.0</ele><time>2026-04-26T07:38:23Z</time></trkpt><trkpt lat="37.98446941070601" lon="15.177710049919128"><ele>605.6666666666666</ele><time>2026-04-26T07:38:24Z</time></trkpt><trkpt lat="37.98450106045725" lon="15.177896176967998"><ele>603.3333333333334</ele><time>2026-04-26T07:38:25Z</time></trkpt><trkpt lat="37.98452916300946" lon="15.178084189130251"><ele>601.0</ele><time>2026-04-26T07:38:26Z</time></trkpt><trkpt lat="37.98455930971671" lon="15.178271766715795"><ele>601.0</ele><time>2026-04-26T07:38:27Z</time></trkpt><trkpt lat="37.984584493998206" lon="15.178459816061258"><ele>601.0</ele><time>2026-04-26T07:38:28Z</time></trkpt><trkpt lat="37.98459369024733" lon="15.178648126597501"><ele>601.0</ele><time>2026-04-26T07:38:29Z</time></trkpt><trkpt lat="37.98457958086636" lon="15.178822080474704"><ele>601.0</ele><time>2026-04-26T07:38:30Z</time></trkpt><trkpt lat="37.98455868694089" lon="15.178994925075466"><ele>604.0</ele><time>2026-04-26T07:38:31Z</time></trkpt><trkpt lat="37.98452741272613" lon="15.179182474338829"><ele>607.0</ele><time>2026-04-26T07:38:32Z</time></trkpt><trkpt lat="37.98448588912786" lon="15.179375867103323"><ele>610.0</ele><time>2026-04-26T07:38:33Z</time></trkpt><trkpt lat="37.984442529142555" lon="15.179555139587675"><ele>610.0</ele><time>2026-04-26T07:38:34Z</time></trkpt><trkpt lat="37.98440020075837" lon="15.179728356146793"><ele>610.0</ele><time>2026-04-26T07:38:35Z</time></trkpt><trkpt lat="37.98436125602315" lon="15.179897479836491"><ele>610.0</ele><time>2026-04-26T07:38:36Z</time></trkpt><trkpt lat="37.98432751324558" lon="15.18005958177409"><ele>610.0</ele><time>2026-04-26T07:38:37Z</time></trkpt><trkpt lat="37.98430730539229" lon="15.180218428280734"><ele>608.0</ele><time>2026-04-26T07:38:38Z</time></trkpt><trkpt lat="37.9843029555033" lon="15.18037998942278"><ele>606.0</ele><time>2026-04-26T07:38:39Z</time></trkpt><trkpt lat="37.98432138675212" lon="15.180551736496295"><ele>604.0</ele><time>2026-04-26T07:38:40Z</time></trkpt><trkpt lat="37.98436039628461" lon="15.180720640643269"><ele>602.0</ele><time>2026-04-26T07:38:41Z</time></trkpt><trkpt lat="37.98443007334793" lon="15.18088288894975"><ele>596.0</ele><time>2026-04-26T07:38:42Z</time></trkpt><trkpt lat="37.98451412902769" lon="15.181053509323773"><ele>590.0</ele><time>2026-04-26T07:38:43Z</time></trkpt><trkpt lat="37.9846076996054" lon="15.181243657639692"><ele>584.0</ele><time>2026-04-26T07:38:44Z</time></trkpt><trkpt lat="37.98470450295481" lon="15.18145159747879"><ele>584.0</ele><time>2026-04-26T07:38:45Z</time></trkpt><trkpt lat="37.98480734887902" lon="15.18167402569935"><ele>584.0</ele><time>2026-04-26T07:38:46Z</time></trkpt><trkpt lat="37.9849155555436" lon="15.181909480393566"><ele>584.0</ele><time>2026-04-26T07:38:47Z</time></trkpt><trkpt lat="37.98502863449961" lon="15.182155064067622"><ele>578.5</ele><time>2026-04-26T07:38:48Z</time></trkpt><trkpt lat="37.985145592001075" lon="15.182404785950151"><ele>573.0</ele><time>2026-04-26T07:38:49Z</time></trkpt><trkpt lat="37.98526564741009" lon="15.182663031288731"><ele>573.0</ele><time>2026-04-26T07:38:50Z</time></trkpt><trkpt lat="37.985379056352734" lon="15.182906697206125"><ele>573.0</ele><time>2026-04-26T07:38:51Z</time></trkpt><trkpt lat="37.98548643954099" lon="15.18313549971782"><ele>573.0</ele><time>2026-04-26T07:38:52Z</time></trkpt><trkpt lat="37.985589722097814" lon="15.183359527992373"><ele>571.0</ele><time>2026-04-26T07:38:53Z</time></trkpt><trkpt lat="37.98568481191985" lon="15.183574033462941"><ele>569.0</ele><time>2026-04-26T07:38:54Z</time></trkpt><trkpt lat="37.98576722812296" lon="15.183782431363001"><ele>567.0</ele><time>2026-04-26T07:38:55Z</time></trkpt><trkpt lat="37.98586014482052" lon="15.183969946448281"><ele>567.5</ele><time>2026-04-26T07:38:56Z</time></trkpt><trkpt lat="37.98593997720424" lon="15.18414193036265"><ele>568.0</ele><time>2026-04-26T07:38:57Z</time></trkpt><trkpt lat="37.98601275783683" lon="15.184301794172793"><ele>568.5</ele><time>2026-04-26T07:38:58Z</time></trkpt><trkpt lat="37.98610338134466" lon="15.184438423889409"><ele>569.0</ele><time>2026-04-26T07:38:59Z</time></trkpt><trkpt lat="37.98621736902894" lon="15.18455764531655"><ele>569.0</ele><time>2026-04-26T07:39:00Z</time></trkpt><trkpt lat="37.986348308269164" lon="15.18465564520534"><ele>569.0</ele><time>2026-04-26T07:39:01Z</time></trkpt><trkpt lat="37.98649485442594" lon="15.184729656844247"><ele>569.0</ele><time>2026-04-26T07:39:02Z</time></trkpt><trkpt lat="37.98664698418225" lon="15.18480605798279"><ele>560.0</ele><time>2026-04-26T07:39:03Z</time></trkpt><trkpt lat="37.98680597605039" lon="15.184889406327887"><ele>551.0</ele><time>2026-04-26T07:39:04Z</time></trkpt><trkpt lat="37.986968995743325" lon="15.184975250912123"><ele>542.0</ele><time>2026-04-26T07:39:05Z</time></trkpt><trkpt lat="37.98713861452834" lon="15.18506422765202"><ele>542.0</ele><time>2026-04-26T07:39:06Z</time></trkpt><trkpt lat="37.98731300326704" lon="15.185150521359063"><ele>542.0</ele><time>2026-04-26T07:39:07Z</time></trkpt><trkpt lat="37.987492564321066" lon="15.18523966568868"><ele>542.0</ele><time>2026-04-26T07:39:08Z</time></trkpt><trkpt lat="37.98766945407467" lon="15.185329865892957"><ele>542.0</ele><time>2026-04-26T07:39:09Z</time></trkpt><trkpt lat="37.98783918603998" lon="15.185418638504128"><ele>542.0</ele><time>2026-04-26T07:39:10Z</time></trkpt><trkpt lat="37.987999762711944" lon="15.18550663686003"><ele>542.0</ele><time>2026-04-26T07:39:11Z</time></trkpt><trkpt lat="37.98815526692061" lon="15.185589241169996"><ele>542.0</ele><time>2026-04-26T07:39:12Z</time></trkpt><trkpt lat="37.988310936562854" lon="15.185649335769087"><ele>542.0</ele><time>2026-04-26T07:39:13Z</time></trkpt><trkpt lat="37.988466889639966" lon="15.185674149415643"><ele>542.0</ele><time>2026-04-26T07:39:14Z</time></trkpt><trkpt lat="37.98862113048807" lon="15.185668873721129"><ele>545.3333333333333</ele><time>2026-04-26T07:39:15Z</time></trkpt><trkpt lat="37.98877378213881" lon="15.18564746273177"><ele>548.6666666666666</ele><time>2026-04-26T07:39:16Z</time></trkpt><trkpt lat="37.98893039328963" lon="15.185623484040276"><ele>552.0</ele><time>2026-04-26T07:39:17Z</time></trkpt><trkpt lat="37.98908835324102" lon="15.185601822168621"><ele>548.3333333333334</ele><time>2026-04-26T07:39:18Z</time></trkpt><trkpt lat="37.98924435558896" lon="15.185583062798822"><ele>544.6666666666667</ele><time>2026-04-26T07:39:19Z</time></trkpt><trkpt lat="37.989403551546474" lon="15.185563271089698"><ele>541.0</ele><time>2026-04-26T07:39:20Z</time></trkpt><trkpt lat="37.98956356847421" lon="15.185524454436163"><ele>541.0</ele><time>2026-04-26T07:39:21Z</time></trkpt><trkpt lat="37.98972072996335" lon="15.18544957990967"><ele>541.0</ele><time>2026-04-26T07:39:22Z</time></trkpt><trkpt lat="37.98987548986082" lon="15.185357187342737"><ele>541.0</ele><time>2026-04-26T07:39:23Z</time></trkpt><trkpt lat="37.99004005225245" lon="15.18527092069672"><ele>533.3333333333334</ele><time>2026-04-26T07:39:24Z</time></trkpt><trkpt lat="37.99020659511602" lon="15.185169894591143"><ele>525.6666666666666</ele><time>2026-04-26T07:39:25Z</time></trkpt><trkpt lat="37.99037507593461" lon="15.185059040410842"><ele>518.0</ele><time>2026-04-26T07:39:26Z</time></trkpt><trkpt lat="37.99054348611288" lon="15.184950880114554"><ele>518.0</ele><time>2026-04-26T07:39:27Z</time></trkpt><trkpt lat="37.99070809358682" lon="15.184849968616861"><ele>518.0</ele><time>2026-04-26T07:39:28Z</time></trkpt><trkpt lat="37.990867175993436" lon="15.184751934940566"><ele>518.0</ele><time>2026-04-26T07:39:29Z</time></trkpt><trkpt lat="37.99101941455751" lon="15.184657235794056"><ele>520.3333333333333</ele><time>2026-04-26T07:39:30Z</time></trkpt><trkpt lat="37.99117394194317" lon="15.18456647265084"><ele>522.6666666666666</ele><time>2026-04-26T07:39:31Z</time></trkpt><trkpt lat="37.99134093930448" lon="15.184499423825072"><ele>525.0</ele><time>2026-04-26T07:39:32Z</time></trkpt><trkpt lat="37.991514987685356" lon="15.184465536950318"><ele>531.0</ele><time>2026-04-26T07:39:33Z</time></trkpt><trkpt lat="37.99169116599704" lon="15.18446151044912"><ele>537.0</ele><time>2026-04-26T07:39:34Z</time></trkpt><trkpt lat="37.99186268610359" lon="15.184496441651106"><ele>543.0</ele><time>2026-04-26T07:39:35Z</time></trkpt><trkpt lat="37.99202404799526" lon="15.184570543452141"><ele>543.0</ele><time>2026-04-26T07:39:36Z</time></trkpt><trkpt lat="37.992169210949086" lon="15.184661292258932"><ele>543.0</ele><time>2026-04-26T07:39:37Z</time></trkpt><trkpt lat="37.992300641187896" lon="15.184769922130295"><ele>543.0</ele><time>2026-04-26T07:39:38Z</time></trkpt><trkpt lat="37.99241304623871" lon="15.184900832646575"><ele>544.6666666666666</ele><time>2026-04-26T07:39:39Z</time></trkpt><trkpt lat="37.99250978266715" lon="15.185050228971878"><ele>546.3333333333333</ele><time>2026-04-26T07:39:40Z</time></trkpt><trkpt lat="37.99259509816988" lon="15.18521315928662"><ele>548.0</ele><time>2026-04-26T07:39:41Z</time></trkpt><trkpt lat="37.992688563354264" lon="15.185356482872546"><ele>548.0</ele><time>2026-04-26T07:39:42Z</time></trkpt><trkpt lat="37.99277666306777" lon="15.185498571230182"><ele>548.0</ele><time>2026-04-26T07:39:43Z</time></trkpt><trkpt lat="37.992853405869816" lon="15.185636897760306"><ele>548.0</ele><time>2026-04-26T07:39:44Z</time></trkpt><trkpt lat="37.99294231281818" lon="15.185756948145245"><ele>548.0</ele><time>2026-04-26T07:39:45Z</time></trkpt><trkpt lat="37.993038815272264" lon="15.185861184892932"><ele>543.0</ele><time>2026-04-26T07:39:46Z</time></trkpt><trkpt lat="37.99314669847266" lon="15.185961176229302"><ele>538.0</ele><time>2026-04-26T07:39:47Z</time></trkpt><trkpt lat="37.993267611511094" lon="15.186032614693476"><ele>533.0</ele><time>2026-04-26T07:39:48Z</time></trkpt><trkpt lat="37.99339256134723" lon="15.186088572458628"><ele>528.0</ele><time>2026-04-26T07:39:49Z</time></trkpt><trkpt lat="37.99352182831384" lon="15.186145569454622"><ele>528.0</ele><time>2026-04-26T07:39:50Z</time></trkpt><trkpt lat="37.99365630174962" lon="15.186209114867742"><ele>528.0</ele><time>2026-04-26T07:39:51Z</time></trkpt><trkpt lat="37.993799078529996" lon="15.186278527064957"><ele>528.0</ele><time>2026-04-26T07:39:52Z</time></trkpt><trkpt lat="37.99394580368856" lon="15.186347652890403"><ele>528.0</ele><time>2026-04-26T07:39:53Z</time></trkpt><trkpt lat="37.99409942082882" lon="15.186417545403847"><ele>528.0</ele><time>2026-04-26T07:39:54Z</time></trkpt><trkpt lat="37.99425873504716" lon="15.186494385035317"><ele>528.0</ele><time>2026-04-26T07:39:55Z</time></trkpt><trkpt lat="37.994421530089866" lon="15.186587356686426"><ele>524.3333333333334</ele><time>2026-04-26T07:39:56Z</time></trkpt><trkpt lat="37.9945824589344" lon="15.186692234561145"><ele>520.6666666666667</ele><time>2026-04-26T07:39:57Z</time></trkpt><trkpt lat="37.994733227163984" lon="15.186824699713696"><ele>517.0</ele><time>2026-04-26T07:39:58Z</time></trkpt><trkpt lat="37.99487405306152" lon="15.18696968245496"><ele>520.0</ele><time>2026-04-26T07:39:59Z</time></trkpt><trkpt lat="37.99500762911684" lon="15.187115737480488"><ele>523.0</ele><time>2026-04-26T07:40:00Z</time></trkpt><trkpt lat="37.99514088873371" lon="15.187249553858846"><ele>526.0</ele><time>2026-04-26T07:40:01Z</time></trkpt><trkpt lat="37.99524984002095" lon="15.187350468617451"><ele>520.4</ele><time>2026-04-26T07:40:02Z</time></trkpt><trkpt lat="37.99534005937403" lon="15.187415940109762"><ele>514.8</ele><time>2026-04-26T07:40:03Z</time></trkpt><trkpt lat="37.99542417832907" lon="15.18745345788099"><ele>509.19999999999993</ele><time>2026-04-26T07:40:04Z</time></trkpt><trkpt lat="37.99551873828982" lon="15.18746949739497"><ele>503.59999999999997</ele><time>2026-04-26T07:40:05Z</time></trkpt><trkpt lat="37.99562700256754" lon="15.187486803353645"><ele>498.0</ele><time>2026-04-26T07:40:06Z</time></trkpt><trkpt lat="37.995745431104815" lon="15.187519384673768"><ele>497.0</ele><time>2026-04-26T07:40:07Z</time></trkpt><trkpt lat="37.995869405213305" lon="15.187562729720643"><ele>496.0</ele><time>2026-04-26T07:40:08Z</time></trkpt><trkpt lat="37.995999466312654" lon="15.187604385630314"><ele>495.0</ele><time>2026-04-26T07:40:09Z</time></trkpt><trkpt lat="37.996128895379364" lon="15.18764464308708"><ele>494.0</ele><time>2026-04-26T07:40:10Z</time></trkpt><trkpt lat="37.99625615038364" lon="15.187683010264877"><ele>494.0</ele><time>2026-04-26T07:40:11Z</time></trkpt><trkpt lat="37.996382356488304" lon="15.187724549198458"><ele>494.0</ele><time>2026-04-26T07:40:12Z</time></trkpt><trkpt lat="37.99650733224013" lon="15.187763815737599"><ele>494.0</ele><time>2026-04-26T07:40:13Z</time></trkpt><trkpt lat="37.99663319223599" lon="15.187798303367101"><ele>494.0</ele><time>2026-04-26T07:40:14Z</time></trkpt><trkpt lat="37.99675998961338" lon="15.187824343235818"><ele>493.25</ele><time>2026-04-26T07:40:15Z</time></trkpt><trkpt lat="37.996885985071586" lon="15.187837219917212"><ele>492.5</ele><time>2026-04-26T07:40:16Z</time></trkpt><trkpt lat="37.997019012619646" lon="15.187835007732868"><ele>491.75</ele><time>2026-04-26T07:40:17Z</time></trkpt><trkpt lat="37.99715529977126" lon="15.18783456581811"><ele>491.0</ele><time>2026-04-26T07:40:18Z</time></trkpt><trkpt lat="37.997295933264674" lon="15.187838019237287"><ele>491.0</ele><time>2026-04-26T07:40:19Z</time></trkpt><trkpt lat="37.99744097909946" lon="15.18784020891803"><ele>491.0</ele><time>2026-04-26T07:40:20Z</time></trkpt><trkpt lat="37.9975899678995" lon="15.187836523175182"><ele>491.0</ele><time>2026-04-26T07:40:21Z</time></trkpt><trkpt lat="37.99774425074784" lon="15.187832061879284"><ele>491.0</ele><time>2026-04-26T07:40:22Z</time></trkpt><trkpt lat="37.99790274076572" lon="15.187842343810757"><ele>492.3333333333333</ele><time>2026-04-26T07:40:23Z</time></trkpt><trkpt lat="37.99806401537473" lon="15.187877346075773"><ele>493.66666666666663</ele><time>2026-04-26T07:40:24Z</time></trkpt><trkpt lat="37.99821834225833" lon="15.187939340038508"><ele>495.0</ele><time>2026-04-26T07:40:25Z</time></trkpt><trkpt lat="37.99836674803545" lon="15.188029870510736"><ele>493.33333333333337</ele><time>2026-04-26T07:40:26Z</time></trkpt><trkpt lat="37.998503140344624" lon="15.188141436006726"><ele>491.6666666666667</ele><time>2026-04-26T07:40:27Z</time></trkpt><trkpt lat="37.99862833723851" lon="15.188264511439519"><ele>490.0</ele><time>2026-04-26T07:40:28Z</time></trkpt><trkpt lat="37.99874935349018" lon="15.188375101974772"><ele>490.0</ele><time>2026-04-26T07:40:29Z</time></trkpt><trkpt lat="37.99887097701755" lon="15.188455532650915"><ele>490.0</ele><time>2026-04-26T07:40:30Z</time></trkpt><trkpt lat="37.99899512019233" lon="15.188513544543802"><ele>490.0</ele><time>2026-04-26T07:40:31Z</time></trkpt><trkpt lat="37.999117740436304" lon="15.188554173419652"><ele>490.0</ele><time>2026-04-26T07:40:32Z</time></trkpt><trkpt lat="37.999240947178265" lon="15.188550306554346"><ele>489.0</ele><time>2026-04-26T07:40:33Z</time></trkpt><trkpt lat="37.99937181018007" lon="15.18852161937345"><ele>488.0</ele><time>2026-04-26T07:40:34Z</time></trkpt><trkpt lat="37.999504273091894" lon="15.188480422123943"><ele>487.0</ele><time>2026-04-26T07:40:35Z</time></trkpt><trkpt lat="37.999640989877854" lon="15.188457316745387"><ele>486.0</ele><time>2026-04-26T07:40:36Z</time></trkpt><trkpt lat="37.999771483391186" lon="15.188441882230313"><ele>486.0</ele><time>2026-04-26T07:40:37Z</time></trkpt><trkpt lat="37.999902224407805" lon="15.188433946325592"><ele>486.0</ele><time>2026-04-26T07:40:38Z</time></trkpt><trkpt lat="38.00003611152532" lon="15.188441989818255"><ele>486.0</ele><time>2026-04-26T07:40:39Z</time></trkpt><trkpt lat="38.00017336385283" lon="15.18846010875882"><ele>486.0</ele><time>2026-04-26T07:40:40Z</time></trkpt><trkpt lat="38.0003137731898" lon="15.188484237290483"><ele>486.0</ele><time>2026-04-26T07:40:41Z</time></trkpt><trkpt lat="38.0004603465237" lon="15.188512654168134"><ele>486.0</ele><time>2026-04-26T07:40:42Z</time></trkpt><trkpt lat="38.000607955493535" lon="15.188548025308032"><ele>486.0</ele><time>2026-04-26T07:40:43Z</time></trkpt><trkpt lat="38.000759772593234" lon="15.188591361233728"><ele>487.66666666666663</ele><time>2026-04-26T07:40:44Z</time></trkpt><trkpt lat="38.00091353684176" lon="15.188640086500154"><ele>489.3333333333333</ele><time>2026-04-26T07:40:45Z</time></trkpt><trkpt lat="38.00106610868033" lon="15.188694874635061"><ele>491.0</ele><time>2026-04-26T07:40:46Z</time></trkpt><trkpt lat="38.00121095111329" lon="15.188751974400944"><ele>491.0</ele><time>2026-04-26T07:40:47Z</time></trkpt><trkpt lat="38.00134567203095" lon="15.188813382447341"><ele>491.0</ele><time>2026-04-26T07:40:48Z</time></trkpt><trkpt lat="38.0014700807705" lon="15.188878678150596"><ele>491.0</ele><time>2026-04-26T07:40:49Z</time></trkpt><trkpt lat="38.001589364641546" lon="15.188936777793119"><ele>491.0</ele><time>2026-04-26T07:40:50Z</time></trkpt><trkpt lat="38.00170933035784" lon="15.188985359117634"><ele>486.5</ele><time>2026-04-26T07:40:51Z</time></trkpt><trkpt lat="38.00183599688306" lon="15.189031656177528"><ele>482.0</ele><time>2026-04-26T07:40:52Z</time></trkpt><trkpt lat="38.00196577148486" lon="15.189092810587352"><ele>477.5</ele><time>2026-04-26T07:40:53Z</time></trkpt><trkpt lat="38.00208893539492" lon="15.189186578271697"><ele>473.0</ele><time>2026-04-26T07:40:54Z</time></trkpt><trkpt lat="38.00220339852326" lon="15.189291609845414"><ele>473.0</ele><time>2026-04-26T07:40:55Z</time></trkpt><trkpt lat="38.002312741097185" lon="15.189393661878436"><ele>473.0</ele><time>2026-04-26T07:40:56Z</time></trkpt><trkpt lat="38.002418092188556" lon="15.189491030838372"><ele>473.0</ele><time>2026-04-26T07:40:57Z</time></trkpt><trkpt lat="38.00251967155389" lon="15.189589403830439"><ele>473.0</ele><time>2026-04-26T07:40:58Z</time></trkpt><trkpt lat="38.00260215324666" lon="15.18970207984"><ele>472.4</ele><time>2026-04-26T07:40:59Z</time></trkpt><trkpt lat="38.002669385043525" lon="15.189824222781464"><ele>471.79999999999995</ele><time>2026-04-26T07:41:00Z</time></trkpt><trkpt lat="38.00272710702351" lon="15.189948400686538"><ele>471.2</ele><time>2026-04-26T07:41:01Z</time></trkpt><trkpt lat="38.00278442210907" lon="15.19006382082994"><ele>470.6</ele><time>2026-04-26T07:41:02Z</time></trkpt><trkpt lat="38.00285024268083" lon="15.190170562052657"><ele>470.0</ele><time>2026-04-26T07:41:03Z</time></trkpt><trkpt lat="38.00292929286992" lon="15.19026813129991"><ele>470.0</ele><time>2026-04-26T07:41:04Z</time></trkpt><trkpt lat="38.00302122884405" lon="15.190350565980507"><ele>470.0</ele><time>2026-04-26T07:41:05Z</time></trkpt><trkpt lat="38.00312849056052" lon="15.19042275123079"><ele>470.0</ele><time>2026-04-26T07:41:06Z</time></trkpt><trkpt lat="38.0032471086766" lon="15.19048565434102"><ele>470.0</ele><time>2026-04-26T07:41:07Z</time></trkpt><trkpt lat="38.003372990118095" lon="15.190552120930198"><ele>468.25</ele><time>2026-04-26T07:41:08Z</time></trkpt><trkpt lat="38.00350430983509" lon="15.190616180537878"><ele>466.5</ele><time>2026-04-26T07:41:09Z</time></trkpt><trkpt lat="38.00364284701016" lon="15.190679777176037"><ele>464.75</ele><time>2026-04-26T07:41:10Z</time></trkpt><trkpt lat="38.00378456655068" lon="15.190753555651739"><ele>463.0</ele><time>2026-04-26T07:41:11Z</time></trkpt><trkpt lat="38.00393009110067" lon="15.19083675658392"><ele>463.0</ele><time>2026-04-26T07:41:12Z</time></trkpt><trkpt lat="38.004082146693385" lon="15.19091617405834"><ele>463.0</ele><time>2026-04-26T07:41:13Z</time></trkpt><trkpt lat="38.004235330984756" lon="15.191009153421836"><ele>463.0</ele><time>2026-04-26T07:41:14Z</time></trkpt><trkpt lat="38.00439129322413" lon="15.191104206739004"><ele>464.0</ele><time>2026-04-26T07:41:15Z</time></trkpt><trkpt lat="38.004542426606434" lon="15.191185085788538"><ele>465.0</ele><time>2026-04-26T07:41:16Z</time></trkpt><trkpt lat="38.0046827891249" lon="15.191260730873713"><ele>466.0</ele><time>2026-04-26T07:41:17Z</time></trkpt><trkpt lat="38.00482523339554" lon="15.191341744544683"><ele>466.0</ele><time>2026-04-26T07:41:18Z</time></trkpt><trkpt lat="38.004969261284955" lon="15.191412384191878"><ele>466.0</ele><time>2026-04-26T07:41:19Z</time></trkpt><trkpt lat="38.00511869180091" lon="15.191463935112377"><ele>466.0</ele><time>2026-04-26T07:41:20Z</time></trkpt><trkpt lat="38.005269856683974" lon="15.19150421921708"><ele>463.6666666666667</ele><time>2026-04-26T07:41:21Z</time></trkpt><trkpt lat="38.005425048743156" lon="15.191543512438344"><ele>461.33333333333337</ele><time>2026-04-26T07:41:22Z</time></trkpt><trkpt lat="38.00558354839612" lon="15.191582055827327"><ele>459.0</ele><time>2026-04-26T07:41:23Z</time></trkpt><trkpt lat="38.005745144835416" lon="15.191624863793265"><ele>458.66666666666663</ele><time>2026-04-26T07:41:24Z</time></trkpt><trkpt lat="38.00590686327165" lon="15.191673225540793"><ele>458.3333333333333</ele><time>2026-04-26T07:41:25Z</time></trkpt><trkpt lat="38.00607151495047" lon="15.19172213816298"><ele>458.0</ele><time>2026-04-26T07:41:26Z</time></trkpt><trkpt lat="38.00623989522015" lon="15.191763397884825"><ele>458.0</ele><time>2026-04-26T07:41:27Z</time></trkpt><trkpt lat="38.006407571599645" lon="15.191798785383723"><ele>458.0</ele><time>2026-04-26T07:41:28Z</time></trkpt><trkpt lat="38.006565301302125" lon="15.191820041612276"><ele>458.0</ele><time>2026-04-26T07:41:29Z</time></trkpt><trkpt lat="38.00671419432426" lon="15.191816548277036"><ele>456.75</ele><time>2026-04-26T07:41:30Z</time></trkpt><trkpt lat="38.00685499958649" lon="15.191778115793326"><ele>455.5</ele><time>2026-04-26T07:41:31Z</time></trkpt><trkpt lat="38.00698595960502" lon="15.191707413236895"><ele>454.25</ele><time>2026-04-26T07:41:32Z</time></trkpt><trkpt lat="38.007118473648454" lon="15.191641181839614"><ele>453.0</ele><time>2026-04-26T07:41:33Z</time></trkpt><trkpt lat="38.00724793124454" lon="15.191559242471898"><ele>451.5</ele><time>2026-04-26T07:41:34Z</time></trkpt><trkpt lat="38.00737095543408" lon="15.191464626533646"><ele>450.0</ele><time>2026-04-26T07:41:35Z</time></trkpt><trkpt lat="38.00749337551261" lon="15.19137099035653"><ele>448.5</ele><time>2026-04-26T07:41:36Z</time></trkpt><trkpt lat="38.00761766091373" lon="15.191267636120589"><ele>447.0</ele><time>2026-04-26T07:41:37Z</time></trkpt><trkpt lat="38.00774624366219" lon="15.191162059323597"><ele>447.0</ele><time>2026-04-26T07:41:38Z</time></trkpt><trkpt lat="38.00787745714409" lon="15.191053232056424"><ele>447.0</ele><time>2026-04-26T07:41:39Z</time></trkpt><trkpt lat="38.00800994629558" lon="15.1909387534735"><ele>447.0</ele><time>2026-04-26T07:41:40Z</time></trkpt><trkpt lat="38.00813918123051" lon="15.190812452629906"><ele>447.0</ele><time>2026-04-26T07:41:41Z</time></trkpt><trkpt lat="38.008267703987386" lon="15.190678166638495"><ele>447.0</ele><time>2026-04-26T07:41:42Z</time></trkpt><trkpt lat="38.00839476766131" lon="15.190540980777463"><ele>447.0</ele><time>2026-04-26T07:41:43Z</time></trkpt><trkpt lat="38.00851909315616" lon="15.190396966466599"><ele>444.66666666666663</ele><time>2026-04-26T07:41:44Z</time></trkpt><trkpt lat="38.00864158931703" lon="15.190248055575637"><ele>442.3333333333333</ele><time>2026-04-26T07:41:45Z</time></trkpt><trkpt lat="38.008765531772696" lon="15.190104355207168"><ele>440.0</ele><time>2026-04-26T07:41:46Z</time></trkpt><trkpt lat="38.00889406197677" lon="15.189971530210386"><ele>440.0</ele><time>2026-04-26T07:41:47Z</time></trkpt><trkpt lat="38.009020440291636" lon="15.189848937255173"><ele>440.0</ele><time>2026-04-26T07:41:48Z</time></trkpt><trkpt lat="38.009146254711304" lon="15.189735656599655"><ele>440.0</ele><time>2026-04-26T07:41:49Z</time></trkpt><trkpt lat="38.00927216735561" lon="15.189638022676226"><ele>440.5</ele><time>2026-04-26T07:41:50Z</time></trkpt><trkpt lat="38.00939819867005" lon="15.18955289152959"><ele>441.0</ele><time>2026-04-26T07:41:51Z</time></trkpt><trkpt lat="38.009517617556575" lon="15.189477631327648"><ele>441.5</ele><time>2026-04-26T07:41:52Z</time></trkpt><trkpt lat="38.00962913604596" lon="15.189406174984562"><ele>442.0</ele><time>2026-04-26T07:41:53Z</time></trkpt><trkpt lat="38.00973789875895" lon="15.189354431304347"><ele>442.0</ele><time>2026-04-26T07:41:54Z</time></trkpt><trkpt lat="38.00984942313801" lon="15.189329405970986"><ele>442.0</ele><time>2026-04-26T07:41:55Z</time></trkpt><trkpt lat="38.00996585794351" lon="15.189319335302072"><ele>442.0</ele><time>2026-04-26T07:41:56Z</time></trkpt><trkpt lat="38.010082055929864" lon="15.189301875308232"><ele>442.0</ele><time>2026-04-26T07:41:57Z</time></trkpt><trkpt lat="38.01020457790161" lon="15.189288189892233"><ele>442.25</ele><time>2026-04-26T07:41:58Z</time></trkpt><trkpt lat="38.01033058998252" lon="15.1892751192166"><ele>442.5</ele><time>2026-04-26T07:41:59Z</time></trkpt><trkpt lat="38.01045912095139" lon="15.189258644437817"><ele>442.75</ele><time>2026-04-26T07:42:00Z</time></trkpt><trkpt lat="38.01058979520619" lon="15.189247753193674"><ele>443.0</ele><time>2026-04-26T07:42:01Z</time></trkpt><trkpt lat="38.010724191995635" lon="15.189239552369093"><ele>442.5</ele><time>2026-04-26T07:42:02Z</time></trkpt><trkpt lat="38.010860918339716" lon="15.189230673526408"><ele>442.0</ele><time>2026-04-26T07:42:03Z</time></trkpt><trkpt lat="38.01100083423716" lon="15.18922149207026"><ele>441.5</ele><time>2026-04-26T07:42:04Z</time></trkpt><trkpt lat="38.01114273368389" lon="15.189209257587681"><ele>441.0</ele><time>2026-04-26T07:42:05Z</time></trkpt><trkpt lat="38.011286557578664" lon="15.189196835920152"><ele>441.0</ele><time>2026-04-26T07:42:06Z</time></trkpt><trkpt lat="38.011433603256314" lon="15.18918442280644"><ele>441.0</ele><time>2026-04-26T07:42:07Z</time></trkpt><trkpt lat="38.011582485273856" lon="15.189177668515136"><ele>441.0</ele><time>2026-04-26T07:42:08Z</time></trkpt><trkpt lat="38.01173248466863" lon="15.189165263030972"><ele>441.0</ele><time>2026-04-26T07:42:09Z</time></trkpt><trkpt lat="38.01188495605751" lon="15.189150109267496"><ele>439.33333333333337</ele><time>2026-04-26T07:42:10Z</time></trkpt><trkpt lat="38.01203764545744" lon="15.189137368697173"><ele>437.6666666666667</ele><time>2026-04-26T07:42:11Z</time></trkpt><trkpt lat="38.01219434280458" lon="15.189133022257302"><ele>436.0</ele><time>2026-04-26T07:42:12Z</time></trkpt><trkpt lat="38.01235210315805" lon="15.189144408085502"><ele>435.33333333333337</ele><time>2026-04-26T07:42:13Z</time></trkpt><trkpt lat="38.01250963828097" lon="15.189178814608617"><ele>434.66666666666663</ele><time>2026-04-26T07:42:14Z</time></trkpt><trkpt lat="38.012655913025704" lon="15.189247576622032"><ele>434.0</ele><time>2026-04-26T07:42:15Z</time></trkpt><trkpt lat="38.01279028104609" lon="15.189327512793968"><ele>434.0</ele><time>2026-04-26T07:42:16Z</time></trkpt><trkpt lat="38.01291666219865" lon="15.189409020675845"><ele>434.0</ele><time>2026-04-26T07:42:17Z</time></trkpt><trkpt lat="38.01303596482814" lon="15.18949711828434"><ele>434.0</ele><time>2026-04-26T07:42:18Z</time></trkpt><trkpt lat="38.01314487912307" lon="15.189597388919475"><ele>434.0</ele><time>2026-04-26T07:42:19Z</time></trkpt><trkpt lat="38.013242173891896" lon="15.189711966823062"><ele>432.75</ele><time>2026-04-26T07:42:20Z</time></trkpt><trkpt lat="38.013337968754435" lon="15.189825314560917"><ele>431.5</ele><time>2026-04-26T07:42:21Z</time></trkpt><trkpt lat="38.013433909206015" lon="15.189927221234635"><ele>430.25</ele><time>2026-04-26T07:42:22Z</time></trkpt><trkpt lat="38.01353460422648" lon="15.190001146850387"><ele>429.0</ele><time>2026-04-26T07:42:23Z</time></trkpt><trkpt lat="38.0136402572911" lon="15.190057444718253"><ele>429.0</ele><time>2026-04-26T07:42:24Z</time></trkpt><trkpt lat="38.01374952221001" lon="15.190096197228767"><ele>429.0</ele><time>2026-04-26T07:42:25Z</time></trkpt><trkpt lat="38.01386156005669" lon="15.190131150487414"><ele>429.0</ele><time>2026-04-26T07:42:26Z</time></trkpt><trkpt lat="38.0139758349917" lon="15.190164582672105"><ele>429.0</ele><time>2026-04-26T07:42:27Z</time></trkpt><trkpt lat="38.01409716509069" lon="15.190182680554523"><ele>430.0</ele><time>2026-04-26T07:42:28Z</time></trkpt><trkpt lat="38.01422732175862" lon="15.190181530005885"><ele>431.0</ele><time>2026-04-26T07:42:29Z</time></trkpt><trkpt lat="38.01436084001246" lon="15.190157216565865"><ele>432.0</ele><time>2026-04-26T07:42:30Z</time></trkpt><trkpt lat="38.01449609038498" lon="15.190113939179426"><ele>433.0</ele><time>2026-04-26T07:42:31Z</time></trkpt><trkpt lat="38.014637838473355" lon="15.190054846613641"><ele>433.0</ele><time>2026-04-26T07:42:32Z</time></trkpt><trkpt lat="38.014789787497115" lon="15.189987415530556"><ele>433.0</ele><time>2026-04-26T07:42:33Z</time></trkpt><trkpt lat="38.01494756159115" lon="15.189914052019871"><ele>433.0</ele><time>2026-04-26T07:42:34Z</time></trkpt><trkpt lat="38.01510747746392" lon="15.189829875587952"><ele>436.6666666666667</ele><time>2026-04-26T07:42:35Z</time></trkpt><trkpt lat="38.01526481787171" lon="15.189722763623823"><ele>440.33333333333337</ele><time>2026-04-26T07:42:36Z</time></trkpt><trkpt lat="38.01541484809154" lon="15.189602762146471"><ele>444.0</ele><time>2026-04-26T07:42:37Z</time></trkpt><trkpt lat="38.01555298128705" lon="15.18949382457387"><ele>444.0</ele><time>2026-04-26T07:42:38Z</time></trkpt><trkpt lat="38.01568190801682" lon="15.18939254962913"><ele>444.0</ele><time>2026-04-26T07:42:39Z</time></trkpt><trkpt lat="38.015795246705416" lon="15.18928125489275"><ele>444.0</ele><time>2026-04-26T07:42:40Z</time></trkpt><trkpt lat="38.015896952960915" lon="15.189162555565009"><ele>444.0</ele><time>2026-04-26T07:42:41Z</time></trkpt><trkpt lat="38.01599549634274" lon="15.189032650925904"><ele>442.66666666666663</ele><time>2026-04-26T07:42:42Z</time></trkpt><trkpt lat="38.01609287641642" lon="15.188884761251147"><ele>441.3333333333333</ele><time>2026-04-26T07:42:43Z</time></trkpt><trkpt lat="38.016191931713145" lon="15.188729433699072"><ele>440.0</ele><time>2026-04-26T07:42:44Z</time></trkpt><trkpt lat="38.01629044552078" lon="15.188560505750571"><ele>440.0</ele><time>2026-04-26T07:42:45Z</time></trkpt><trkpt lat="38.016388102208055" lon="15.188379013771833"><ele>440.0</ele><time>2026-04-26T07:42:46Z</time></trkpt><trkpt lat="38.0164904436177" lon="15.188195381760712"><ele>440.0</ele><time>2026-04-26T07:42:47Z</time></trkpt><trkpt lat="38.01659747845069" lon="15.188014281058734"><ele>439.3333333333333</ele><time>2026-04-26T07:42:48Z</time></trkpt><trkpt lat="38.01670120944803" lon="15.187835121895109"><ele>438.66666666666663</ele><time>2026-04-26T07:42:49Z</time></trkpt><trkpt lat="38.0168045300898" lon="15.18766437714875"><ele>438.0</ele><time>2026-04-26T07:42:50Z</time></trkpt><trkpt lat="38.01691522718862" lon="15.18750239257099"><ele>438.0</ele><time>2026-04-26T07:42:51Z</time></trkpt><trkpt lat="38.01703766986288" lon="15.187356644149327"><ele>438.0</ele><time>2026-04-26T07:42:52Z</time></trkpt><trkpt lat="38.01717289235048" lon="15.187231079961498"><ele>438.0</ele><time>2026-04-26T07:42:53Z</time></trkpt><trkpt lat="38.017314071821104" lon="15.187112556495672"><ele>438.33333333333337</ele><time>2026-04-26T07:42:54Z</time></trkpt><trkpt lat="38.017449411729594" lon="15.186980184180014"><ele>438.6666666666667</ele><time>2026-04-26T07:42:55Z</time></trkpt><trkpt lat="38.017587844770816" lon="15.186858023176063"><ele>439.0</ele><time>2026-04-26T07:42:56Z</time></trkpt><trkpt lat="38.0177313150296" lon="15.18675853020861"><ele>439.0</ele><time>2026-04-26T07:42:57Z</time></trkpt><trkpt lat="38.01788694491048" lon="15.18667426261032"><ele>439.0</ele><time>2026-04-26T07:42:58Z</time></trkpt><trkpt lat="38.01805328307404" lon="15.18661470570863"><ele>439.0</ele><time>2026-04-26T07:42:59Z</time></trkpt><trkpt lat="38.01822699133329" lon="15.186582249416428"><ele>441.33333333333337</ele><time>2026-04-26T07:43:00Z</time></trkpt><trkpt lat="38.01839772016505" lon="15.186583265617635"><ele>443.66666666666663</ele><time>2026-04-26T07:43:01Z</time></trkpt><trkpt lat="38.0185665428515" lon="15.1866263054808"><ele>446.0</ele><time>2026-04-26T07:43:02Z</time></trkpt><trkpt lat="38.01872310316791" lon="15.186702608045133"><ele>446.0</ele><time>2026-04-26T07:43:03Z</time></trkpt><trkpt lat="38.018881825471105" lon="15.186761083893922"><ele>446.0</ele><time>2026-04-26T07:43:04Z</time></trkpt><trkpt lat="38.01904632441408" lon="15.18677428490013"><ele>446.0</ele><time>2026-04-26T07:43:05Z</time></trkpt><trkpt lat="38.019217961636215" lon="15.18676166737005"><ele>450.3333333333333</ele><time>2026-04-26T07:43:06Z</time></trkpt><trkpt lat="38.01938777381004" lon="15.186758782087018"><ele>454.66666666666663</ele><time>2026-04-26T07:43:07Z</time></trkpt><trkpt lat="38.019545972995864" lon="15.186791156588312"><ele>459.0</ele><time>2026-04-26T07:43:08Z</time></trkpt><trkpt lat="38.01969524738243" lon="15.186826737087731"><ele>459.0</ele><time>2026-04-26T07:43:09Z</time></trkpt><trkpt lat="38.01982826686572" lon="15.186863290663103"><ele>459.0</ele><time>2026-04-26T07:43:10Z</time></trkpt><trkpt lat="38.01993720418579" lon="15.18689876342335"><ele>459.0</ele><time>2026-04-26T07:43:11Z</time></trkpt><trkpt lat="38.020045579738806" lon="15.186917439276636"><ele>459.0</ele><time>2026-04-26T07:43:12Z</time></trkpt><trkpt lat="38.020147720724836" lon="15.186911707499345"><ele>460.79999999999995</ele><time>2026-04-26T07:43:13Z</time></trkpt><trkpt lat="38.020240329431424" lon="15.186872182074733"><ele>462.59999999999997</ele><time>2026-04-26T07:43:14Z</time></trkpt><trkpt lat="38.02032761931635" lon="15.186801183895218"><ele>464.4</ele><time>2026-04-26T07:43:15Z</time></trkpt><trkpt lat="38.02043238937948" lon="15.186763834309392"><ele>466.2</ele><time>2026-04-26T07:43:16Z</time></trkpt><trkpt lat="38.02055580984021" lon="15.186770433146869"><ele>468.0</ele><time>2026-04-26T07:43:17Z</time></trkpt><trkpt lat="38.02068046260198" lon="15.186793854829292"><ele>468.0</ele><time>2026-04-26T07:43:18Z</time></trkpt><trkpt lat="38.0207995113982" lon="15.186809244701791"><ele>468.0</ele><time>2026-04-26T07:43:19Z</time></trkpt><trkpt lat="38.020915588480946" lon="15.186786531157251"><ele>468.0</ele><time>2026-04-26T07:43:20Z</time></trkpt><trkpt lat="38.021017198388144" lon="15.186717520554481"><ele>468.0</ele><time>2026-04-26T07:43:21Z</time></trkpt><trkpt lat="38.02110742746841" lon="15.186637663761038"><ele>466.79999999999995</ele><time>2026-04-26T07:43:22Z</time></trkpt><trkpt lat="38.021195905561505" lon="15.18656173759857"><ele>465.59999999999997</ele><time>2026-04-26T07:43:23Z</time></trkpt><trkpt lat="38.02128106536364" lon="15.186488144977051"><ele>464.40000000000003</ele><time>2026-04-26T07:43:24Z</time></trkpt><trkpt lat="38.021365824183995" lon="15.18642133645807"><ele>463.20000000000005</ele><time>2026-04-26T07:43:25Z</time></trkpt><trkpt lat="38.0214575437" lon="15.186360520221013"><ele>462.0</ele><time>2026-04-26T07:43:26Z</time></trkpt><trkpt lat="38.021558317801464" lon="15.186309785595636"><ele>466.20000000000005</ele><time>2026-04-26T07:43:27Z</time></trkpt><trkpt lat="38.021665419506306" lon="15.186277105555353"><ele>470.40000000000003</ele><time>2026-04-26T07:43:28Z</time></trkpt><trkpt lat="38.02177649375183" lon="15.186265956092411"><ele>474.59999999999997</ele><time>2026-04-26T07:43:29Z</time></trkpt><trkpt lat="38.021888494249914" lon="15.186269609800076"><ele>478.79999999999995</ele><time>2026-04-26T07:43:30Z</time></trkpt><trkpt lat="38.02200025144846" lon="15.186294586745129"><ele>483.0</ele><time>2026-04-26T07:43:31Z</time></trkpt><trkpt lat="38.022108526567195" lon="15.186334813981158"><ele>483.0</ele><time>2026-04-26T07:43:32Z</time></trkpt><trkpt lat="38.022214351229756" lon="15.186390310337675"><ele>483.0</ele><time>2026-04-26T07:43:33Z</time></trkpt><trkpt lat="38.02231492757838" lon="15.186461064499968"><ele>483.0</ele><time>2026-04-26T07:43:34Z</time></trkpt><trkpt lat="38.02241522964059" lon="15.186541150386898"><ele>483.0</ele><time>2026-04-26T07:43:35Z</time></trkpt><trkpt lat="38.022515111429676" lon="15.186624691077009"><ele>475.0</ele><time>2026-04-26T07:43:36Z</time></trkpt><trkpt lat="38.02261040308174" lon="15.186716354192848"><ele>467.0</ele><time>2026-04-26T07:43:37Z</time></trkpt><trkpt lat="38.02270232860099" lon="15.186811113221978"><ele>459.0</ele><time>2026-04-26T07:43:38Z</time></trkpt><trkpt lat="38.022798887203244" lon="15.186901403236813"><ele>451.0</ele><time>2026-04-26T07:43:39Z</time></trkpt><trkpt lat="38.022902315166036" lon="15.186986642205152"><ele>451.0</ele><time>2026-04-26T07:43:40Z</time></trkpt><trkpt lat="38.02301004463172" lon="15.187061277209205"><ele>451.0</ele><time>2026-04-26T07:43:41Z</time></trkpt><trkpt lat="38.023131326604585" lon="15.187113926309747"><ele>451.0</ele><time>2026-04-26T07:43:42Z</time></trkpt><trkpt lat="38.023262360455796" lon="15.187143597900421"><ele>451.0</ele><time>2026-04-26T07:43:43Z</time></trkpt><trkpt lat="38.023401513077324" lon="15.187153389281269"><ele>453.75</ele><time>2026-04-26T07:43:44Z</time></trkpt><trkpt lat="38.02354729683675" lon="15.187150448923726"><ele>456.5</ele><time>2026-04-26T07:43:45Z</time></trkpt><trkpt lat="38.02369482107236" lon="15.187149445125483"><ele>459.25</ele><time>2026-04-26T07:43:46Z</time></trkpt><trkpt lat="38.02384359989426" lon="15.187150621482875"><ele>462.0</ele><time>2026-04-26T07:43:47Z</time></trkpt><trkpt lat="38.023995684282596" lon="15.187151495434733"><ele>462.0</ele><time>2026-04-26T07:43:48Z</time></trkpt><trkpt lat="38.02414837324802" lon="15.187154852941603"><ele>462.0</ele><time>2026-04-26T07:43:49Z</time></trkpt><trkpt lat="38.02430070191129" lon="15.18716205815232"><ele>462.0</ele><time>2026-04-26T07:43:50Z</time></trkpt><trkpt lat="38.0244509072558" lon="15.18716567861631"><ele>462.0</ele><time>2026-04-26T07:43:51Z</time></trkpt><trkpt lat="38.02459973002921" lon="15.187162401002542"><ele>462.0</ele><time>2026-04-26T07:43:52Z</time></trkpt><trkpt lat="38.02474291525982" lon="15.18714480939124"><ele>462.0</ele><time>2026-04-26T07:43:53Z</time></trkpt><trkpt lat="38.02487495956131" lon="15.18708959627956"><ele>462.0</ele><time>2026-04-26T07:43:54Z</time></trkpt><trkpt lat="38.024990673545474" lon="15.187007946691342"><ele>460.75</ele><time>2026-04-26T07:43:55Z</time></trkpt><trkpt lat="38.025087076108" lon="15.18689749546507"><ele>459.5</ele><time>2026-04-26T07:43:56Z</time></trkpt><trkpt lat="38.02517242470848" lon="15.186761207288654"><ele>458.25</ele><time>2026-04-26T07:43:57Z</time></trkpt><trkpt lat="38.025233753554005" lon="15.186595406438737"><ele>457.0</ele><time>2026-04-26T07:43:58Z</time></trkpt><trkpt lat="38.0252736803862" lon="15.186421334768255"><ele>457.0</ele><time>2026-04-26T07:43:59Z</time></trkpt><trkpt lat="38.025309902147875" lon="15.18624154277453"><ele>457.0</ele><time>2026-04-26T07:44:00Z</time></trkpt><trkpt lat="38.02536531738245" lon="15.186071137192888"><ele>457.0</ele><time>2026-04-26T07:44:01Z</time></trkpt><trkpt lat="38.02543281729053" lon="15.185925077435304"><ele>457.0</ele><time>2026-04-26T07:44:02Z</time></trkpt><trkpt lat="38.02550670892927" lon="15.185797332323137"><ele>457.0</ele><time>2026-04-26T07:44:03Z</time></trkpt><trkpt lat="38.02559401341322" lon="15.1856900178968"><ele>457.0</ele><time>2026-04-26T07:44:04Z</time></trkpt><trkpt lat="38.02568936535738" lon="15.185596731078594"><ele>457.0</ele><time>2026-04-26T07:44:05Z</time></trkpt><trkpt lat="38.025794802796725" lon="15.18552318729245"><ele>457.0</ele><time>2026-04-26T07:44:06Z</time></trkpt><trkpt lat="38.02590573844336" lon="15.185452549856373"><ele>455.25</ele><time>2026-04-26T07:44:07Z</time></trkpt><trkpt lat="38.026018368325396" lon="15.185380719955779"><ele>453.5</ele><time>2026-04-26T07:44:08Z</time></trkpt><trkpt lat="38.026132081909665" lon="15.185307609137487"><ele>451.75</ele><time>2026-04-26T07:44:09Z</time></trkpt><trkpt lat="38.02625161643129" lon="15.185232331275877"><ele>450.0</ele><time>2026-04-26T07:44:10Z</time></trkpt><trkpt lat="38.02637581845737" lon="15.185162771438742"><ele>450.0</ele><time>2026-04-26T07:44:11Z</time></trkpt><trkpt lat="38.026502094402964" lon="15.185087220757065"><ele>450.0</ele><time>2026-04-26T07:44:12Z</time></trkpt><trkpt lat="38.02663064456524" lon="15.185010753309859"><ele>450.0</ele><time>2026-04-26T07:44:13Z</time></trkpt><trkpt lat="38.02676214133462" lon="15.184929634815763"><ele>450.0</ele><time>2026-04-26T07:44:14Z</time></trkpt><trkpt lat="38.02689346424447" lon="15.184837836303977"><ele>452.0</ele><time>2026-04-26T07:44:15Z</time></trkpt><trkpt lat="38.02702025115327" lon="15.18475275394528"><ele>454.0</ele><time>2026-04-26T07:44:16Z</time></trkpt><trkpt lat="38.02713449664735" lon="15.184680510921723"><ele>456.0</ele><time>2026-04-26T07:44:17Z</time></trkpt><trkpt lat="38.02723041868335" lon="15.18459403674077"><ele>458.0</ele><time>2026-04-26T07:44:18Z</time></trkpt><trkpt lat="38.02729205855283" lon="15.184471147502608"><ele>458.0</ele><time>2026-04-26T07:44:19Z</time></trkpt><trkpt lat="38.027313372957494" lon="15.184320687461668"><ele>458.0</ele><time>2026-04-26T07:44:20Z</time></trkpt><trkpt lat="38.02731807843298" lon="15.184153793724942"><ele>458.0</ele><time>2026-04-26T07:44:21Z</time></trkpt><trkpt lat="38.02731193465764" lon="15.183996485175397"><ele>458.0</ele><time>2026-04-26T07:44:22Z</time></trkpt><trkpt lat="38.02730353331061" lon="15.183845889751636"><ele>457.2</ele><time>2026-04-26T07:44:23Z</time></trkpt><trkpt lat="38.02729947064388" lon="15.183703620836699"><ele>456.4</ele><time>2026-04-26T07:44:24Z</time></trkpt><trkpt lat="38.02730344872725" lon="15.183566966845458"><ele>455.59999999999997</ele><time>2026-04-26T07:44:25Z</time></trkpt><trkpt lat="38.02730883883211" lon="15.183434419376583"><ele>454.79999999999995</ele><time>2026-04-26T07:44:26Z</time></trkpt><trkpt lat="38.027307482522424" lon="15.183303050783882"><ele>454.0</ele><time>2026-04-26T07:44:27Z</time></trkpt><trkpt lat="38.02730590513815" lon="15.183171812281591"><ele>448.0</ele><time>2026-04-26T07:44:28Z</time></trkpt><trkpt lat="38.02729769818654" lon="15.18303875166106"><ele>442.0</ele><time>2026-04-26T07:44:29Z</time></trkpt><trkpt lat="38.02727317953245" lon="15.182908302395912"><ele>436.0</ele><time>2026-04-26T07:44:30Z</time></trkpt><trkpt lat="38.027220870927195" lon="15.182790468031838"><ele>430.0</ele><time>2026-04-26T07:44:31Z</time></trkpt><trkpt lat="38.027131631242256" lon="15.182714211889545"><ele>424.0</ele><time>2026-04-26T07:44:32Z</time></trkpt><trkpt lat="38.02704057410405" lon="15.18265023426182"><ele>424.0</ele><time>2026-04-26T07:44:33Z</time></trkpt><trkpt lat="38.02694672262708" lon="15.182580130242615"><ele>424.0</ele><time>2026-04-26T07:44:34Z</time></trkpt><trkpt lat="38.02684428540645" lon="15.182505457981815"><ele>424.0</ele><time>2026-04-26T07:44:35Z</time></trkpt><trkpt lat="38.02673831179518" lon="15.182428280224508"><ele>424.0</ele><time>2026-04-26T07:44:36Z</time></trkpt><trkpt lat="38.026626387727056" lon="15.182350776604123"><ele>425.25</ele><time>2026-04-26T07:44:37Z</time></trkpt><trkpt lat="38.026509980665246" lon="15.182278343900904"><ele>426.5</ele><time>2026-04-26T07:44:38Z</time></trkpt><trkpt lat="38.026392126157006" lon="15.182205576353093"><ele>427.75</ele><time>2026-04-26T07:44:39Z</time></trkpt><trkpt lat="38.02628841888775" lon="15.182127855745053"><ele>429.0</ele><time>2026-04-26T07:44:40Z</time></trkpt><trkpt lat="38.02620078885563" lon="15.182054943130575"><ele>429.0</ele><time>2026-04-26T07:44:41Z</time></trkpt><trkpt lat="38.026141298534704" lon="15.181977350563226"><ele>429.0</ele><time>2026-04-26T07:44:42Z</time></trkpt><trkpt lat="38.02610735578718" lon="15.18187857818968"><ele>429.0</ele><time>2026-04-26T07:44:43Z</time></trkpt><trkpt lat="38.02610591823119" lon="15.181761474262812"><ele>429.0</ele><time>2026-04-26T07:44:44Z</time></trkpt><trkpt lat="38.02616060264128" lon="15.18167301163334"><ele>429.0</ele><time>2026-04-26T07:44:45Z</time></trkpt><trkpt lat="38.026247595076626" lon="15.181646177770162"><ele>429.0</ele><time>2026-04-26T07:44:46Z</time></trkpt><trkpt lat="38.02633305506824" lon="15.181688598602362"><ele>429.0</ele><time>2026-04-26T07:44:47Z</time></trkpt><trkpt lat="38.02639924696992" lon="15.181750209493925"><ele>429.0</ele><time>2026-04-26T07:44:48Z</time></trkpt><trkpt lat="38.0264632320188" lon="15.181825247584621"><ele>429.0</ele><time>2026-04-26T07:44:49Z</time></trkpt><trkpt lat="38.026530972016985" lon="15.181910721724336"><ele>429.0</ele><time>2026-04-26T07:44:50Z</time></trkpt><trkpt lat="38.026602909192285" lon="15.182001255739797"><ele>429.0</ele><time>2026-04-26T07:44:51Z</time></trkpt><trkpt lat="38.02667863047729" lon="15.18209170292376"><ele>423.4</ele><time>2026-04-26T07:44:52Z</time></trkpt><trkpt lat="38.02675855840548" lon="15.182173947187872"><ele>417.79999999999995</ele><time>2026-04-26T07:44:53Z</time></trkpt><trkpt lat="38.02684266361397" lon="15.18224667255671"><ele>412.20000000000005</ele><time>2026-04-26T07:44:54Z</time></trkpt><trkpt lat="38.02693344674687" lon="15.18227962792764"><ele>406.6</ele><time>2026-04-26T07:44:55Z</time></trkpt><trkpt lat="38.02701859164804" lon="15.182262147684769"><ele>401.0</ele><time>2026-04-26T07:44:56Z</time></trkpt><trkpt lat="38.027087893810155" lon="15.182206259903317"><ele>400.99999999999994</ele><time>2026-04-26T07:44:57Z</time></trkpt><trkpt lat="38.0271332999489" lon="15.182118897894114"><ele>401.0</ele><time>2026-04-26T07:44:58Z</time></trkpt><trkpt lat="38.02714417435734" lon="15.182021698495587"><ele>401.0</ele><time>2026-04-26T07:44:59Z</time></trkpt><trkpt lat="38.02712820260578" lon="15.18193323635369"><ele>401.0</ele><time>2026-04-26T07:45:00Z</time></trkpt><trkpt lat="38.02711124836362" lon="15.181839909470538"><ele>400.99999999999994</ele><time>2026-04-26T07:45:01Z</time></trkpt><trkpt lat="38.027092867458265" lon="15.18173240710961"><ele>401.0</ele><time>2026-04-26T07:45:02Z</time></trkpt><trkpt lat="38.02707351594477" lon="15.18161537301428"><ele>400.25</ele><time>2026-04-26T07:45:03Z</time></trkpt><trkpt lat="38.0270559820402" lon="15.18148160307887"><ele>399.5</ele><time>2026-04-26T07:45:04Z</time></trkpt><trkpt lat="38.027034711296906" lon="15.181336487063087"><ele>398.75</ele><time>2026-04-26T07:45:05Z</time></trkpt><trkpt lat="38.027006212462986" lon="15.1811860649743"><ele>398.0</ele><time>2026-04-26T07:45:06Z</time></trkpt><trkpt lat="38.0269651500616" lon="15.181029274478085"><ele>398.0</ele><time>2026-04-26T07:45:07Z</time></trkpt><trkpt lat="38.026918358159165" lon="15.180867796813686"><ele>398.0</ele><time>2026-04-26T07:45:08Z</time></trkpt><trkpt lat="38.026863501294734" lon="15.18070937345865"><ele>398.0</ele><time>2026-04-26T07:45:09Z</time></trkpt><trkpt lat="38.02679154636192" lon="15.180558564139526"><ele>398.0</ele><time>2026-04-26T07:45:10Z</time></trkpt><trkpt lat="38.026702999667286" lon="15.180415804512634"><ele>400.5</ele><time>2026-04-26T07:45:11Z</time></trkpt><trkpt lat="38.026601566423224" lon="15.180277004032611"><ele>403.0</ele><time>2026-04-26T07:45:12Z</time></trkpt><trkpt lat="38.026502368670634" lon="15.180136978062096"><ele>405.5</ele><time>2026-04-26T07:45:13Z</time></trkpt><trkpt lat="38.02640509289314" lon="15.179989490610735"><ele>408.0</ele><time>2026-04-26T07:45:14Z</time></trkpt><trkpt lat="38.02629073561826" lon="15.179833572077998"><ele>410.33333333333337</ele><time>2026-04-26T07:45:15Z</time></trkpt><trkpt lat="38.0261784290216" lon="15.179667761013189"><ele>412.6666666666667</ele><time>2026-04-26T07:45:16Z</time></trkpt><trkpt lat="38.026064980825076" lon="15.179480811219166"><ele>415.0</ele><time>2026-04-26T07:45:17Z</time></trkpt><trkpt lat="38.0259788649882" lon="15.179312969756898"><ele>415.0</ele><time>2026-04-26T07:45:18Z</time></trkpt><trkpt lat="38.02589563404336" lon="15.179140804496129"><ele>415.0</ele><time>2026-04-26T07:45:19Z</time></trkpt><trkpt lat="38.025819235993104" lon="15.178964340113433"><ele>415.0</ele><time>2026-04-26T07:45:20Z</time></trkpt><trkpt lat="38.025741474713605" lon="15.17879497446889"><ele>419.75</ele><time>2026-04-26T07:45:21Z</time></trkpt><trkpt lat="38.02566910135287" lon="15.178633000145478"><ele>424.5</ele><time>2026-04-26T07:45:22Z</time></trkpt><trkpt lat="38.02561374851658" lon="15.178491026565164"><ele>429.25</ele><time>2026-04-26T07:45:23Z</time></trkpt><trkpt lat="38.02558098051804" lon="15.178360114039544"><ele>434.0</ele><time>2026-04-26T07:45:24Z</time></trkpt><trkpt lat="38.02557294573338" lon="15.178230734928002"><ele>436.79999999999995</ele><time>2026-04-26T07:45:25Z</time></trkpt><trkpt lat="38.02557311049502" lon="15.17809111647604"><ele>439.59999999999997</ele><time>2026-04-26T07:45:26Z</time></trkpt><trkpt lat="38.02557873503569" lon="15.17795006586595"><ele>442.4</ele><time>2026-04-26T07:45:27Z</time></trkpt><trkpt lat="38.02559740211346" lon="15.177811683796152"><ele>445.2</ele><time>2026-04-26T07:45:28Z</time></trkpt><trkpt lat="38.02562032345823" lon="15.177693515986265"><ele>448.0</ele><time>2026-04-26T07:45:29Z</time></trkpt><trkpt lat="38.02563753895906" lon="15.177600359479662"><ele>448.00000000000006</ele><time>2026-04-26T07:45:30Z</time></trkpt><trkpt lat="38.02564563500192" lon="15.177519870990848"><ele>448.0</ele><time>2026-04-26T07:45:31Z</time></trkpt><trkpt lat="38.02566072953684" lon="15.177375336990947"><ele>448.0</ele><time>2026-04-26T07:45:33Z</time></trkpt><trkpt lat="38.02570050418746" lon="15.177291566539386"><ele>448.0</ele><time>2026-04-26T07:45:34Z</time></trkpt><trkpt lat="38.02575024698256" lon="15.17719486550183"><ele>448.00000000000006</ele><time>2026-04-26T07:45:35Z</time></trkpt><trkpt lat="38.02580559994965" lon="15.177088265865562"><ele>448.0</ele><time>2026-04-26T07:45:36Z</time></trkpt><trkpt lat="38.025872080962344" lon="15.176973643060789"><ele>447.5</ele><time>2026-04-26T07:45:37Z</time></trkpt><trkpt lat="38.025943065975234" lon="15.176849349469112"><ele>447.0</ele><time>2026-04-26T07:45:38Z</time></trkpt><trkpt lat="38.02601432990628" lon="15.17670657856448"><ele>446.5</ele><time>2026-04-26T07:45:39Z</time></trkpt><trkpt lat="38.026082638412895" lon="15.176551518838684"><ele>446.0</ele><time>2026-04-26T07:45:40Z</time></trkpt><trkpt lat="38.026150459125006" lon="15.176395274967971"><ele>446.0</ele><time>2026-04-26T07:45:41Z</time></trkpt><trkpt lat="38.0262056015452" lon="15.176250092070052"><ele>446.0</ele><time>2026-04-26T07:45:42Z</time></trkpt><trkpt lat="38.02623231354515" lon="15.17610266661919"><ele>446.0</ele><time>2026-04-26T07:45:43Z</time></trkpt><trkpt lat="38.026226761339935" lon="15.175958141737116"><ele>446.0</ele><time>2026-04-26T07:45:44Z</time></trkpt><trkpt lat="38.0261923888951" lon="15.175817897620938"><ele>446.0</ele><time>2026-04-26T07:45:45Z</time></trkpt><trkpt lat="38.02613344732433" lon="15.175693833146635"><ele>446.0</ele><time>2026-04-26T07:45:46Z</time></trkpt><trkpt lat="38.02604593920238" lon="15.175579057667148"><ele>446.0</ele><time>2026-04-26T07:45:47Z</time></trkpt><trkpt lat="38.025939070254836" lon="15.175458759640378"><ele>446.0</ele><time>2026-04-26T07:45:48Z</time></trkpt><trkpt lat="38.025817163607385" lon="15.175330195259933"><ele>449.0</ele><time>2026-04-26T07:45:49Z</time></trkpt><trkpt lat="38.02569487305381" lon="15.17518546502685"><ele>452.0</ele><time>2026-04-26T07:45:50Z</time></trkpt><trkpt lat="38.02556797019691" lon="15.175007811134405"><ele>455.0</ele><time>2026-04-26T07:45:51Z</time></trkpt><trkpt lat="38.02542564073698" lon="15.174800307357932"><ele>460.0</ele><time>2026-04-26T07:45:52Z</time></trkpt><trkpt lat="38.02526509544996" lon="15.1746216129029"><ele>465.0</ele><time>2026-04-26T07:45:53Z</time></trkpt><trkpt lat="38.02510869518156" lon="15.174473489022533"><ele>470.0</ele><time>2026-04-26T07:45:54Z</time></trkpt><trkpt lat="38.02497727588535" lon="15.174336493856202"><ele>471.75</ele><time>2026-04-26T07:45:55Z</time></trkpt><trkpt lat="38.024868953235355" lon="15.174214716098321"><ele>473.5</ele><time>2026-04-26T07:45:56Z</time></trkpt><trkpt lat="38.024790399522246" lon="15.17407534008225"><ele>475.25</ele><time>2026-04-26T07:45:57Z</time></trkpt><trkpt lat="38.024743607189116" lon="15.173926305583477"><ele>477.0</ele><time>2026-04-26T07:45:58Z</time></trkpt><trkpt lat="38.02469241359892" lon="15.173783057542215"><ele>477.25</ele><time>2026-04-26T07:45:59Z</time></trkpt><trkpt lat="38.02461971825732" lon="15.173654714637612"><ele>477.5</ele><time>2026-04-26T07:46:00Z</time></trkpt><trkpt lat="38.02452375939142" lon="15.173539774247075"><ele>477.75</ele><time>2026-04-26T07:46:01Z</time></trkpt><trkpt lat="38.02442103774662" lon="15.17342554157282"><ele>478.0</ele><time>2026-04-26T07:46:02Z</time></trkpt><trkpt lat="38.024316503880264" lon="15.17330616773061"><ele>480.75</ele><time>2026-04-26T07:46:03Z</time></trkpt><trkpt lat="38.02422164927052" lon="15.173177245551953"><ele>483.5</ele><time>2026-04-26T07:46:04Z</time></trkpt><trkpt lat="38.02413904714051" lon="15.173051088520715"><ele>486.25</ele><time>2026-04-26T07:46:05Z</time></trkpt><trkpt lat="38.02406451497692" lon="15.172934706599731"><ele>489.0</ele><time>2026-04-26T07:46:06Z</time></trkpt><trkpt lat="38.024012641582644" lon="15.172820245862878"><ele>489.0</ele><time>2026-04-26T07:46:07Z</time></trkpt><trkpt lat="38.02398718495158" lon="15.17271241656784"><ele>489.0</ele><time>2026-04-26T07:46:08Z</time></trkpt><trkpt lat="38.023991590226956" lon="15.17262058689387"><ele>489.0</ele><time>2026-04-26T07:46:09Z</time></trkpt><trkpt lat="38.02407325712696" lon="15.172512738942217"><ele>489.0</ele><time>2026-04-26T07:46:11Z</time></trkpt><trkpt lat="38.024186857243755" lon="15.172494977654583"><ele>489.0</ele><time>2026-04-26T07:46:13Z</time></trkpt><trkpt lat="38.02426444983707" lon="15.172630428154276"><ele>489.0</ele><time>2026-04-26T07:46:15Z</time></trkpt><trkpt lat="38.0242810027038" lon="15.172737365139216"><ele>489.0</ele><time>2026-04-26T07:46:16Z</time></trkpt><trkpt lat="38.02431693410215" lon="15.172842544345501"><ele>489.0</ele><time>2026-04-26T07:46:17Z</time></trkpt><trkpt lat="38.02436452034097" lon="15.172948243306887"><ele>489.0</ele><time>2026-04-26T07:46:18Z</time></trkpt><trkpt lat="38.02442836404344" lon="15.173052390925015"><ele>489.0</ele><time>2026-04-26T07:46:19Z</time></trkpt><trkpt lat="38.024516972051806" lon="15.173134919336343"><ele>486.79999999999995</ele><time>2026-04-26T07:46:20Z</time></trkpt><trkpt lat="38.0246173874838" lon="15.173202994355524"><ele>484.59999999999997</ele><time>2026-04-26T07:46:21Z</time></trkpt><trkpt lat="38.024720719142415" lon="15.173266755271262"><ele>482.4</ele><time>2026-04-26T07:46:22Z</time></trkpt><trkpt lat="38.02481723939661" lon="15.173343203066919"><ele>480.2</ele><time>2026-04-26T07:46:23Z</time></trkpt><trkpt lat="38.02487202170473" lon="15.173447791102065"><ele>478.0</ele><time>2026-04-26T07:46:24Z</time></trkpt><trkpt lat="38.02490976536195" lon="15.173552299352538"><ele>478.0</ele><time>2026-04-26T07:46:25Z</time></trkpt><trkpt lat="38.02496102462629" lon="15.173645091805822"><ele>477.99999999999994</ele><time>2026-04-26T07:46:26Z</time></trkpt><trkpt lat="38.02503130779427" lon="15.173736764974525"><ele>477.99999999999994</ele><time>2026-04-26T07:46:27Z</time></trkpt><trkpt lat="38.02511772508403" lon="15.173819023601274"><ele>478.0</ele><time>2026-04-26T07:46:28Z</time></trkpt><trkpt lat="38.02521700976149" lon="15.173879492140134"><ele>478.0</ele><time>2026-04-26T07:46:29Z</time></trkpt><trkpt lat="38.02532435687438" lon="15.173944357776072"><ele>476.0</ele><time>2026-04-26T07:46:30Z</time></trkpt><trkpt lat="38.0254370511833" lon="15.17401145808241"><ele>474.0</ele><time>2026-04-26T07:46:31Z</time></trkpt><trkpt lat="38.02555312907302" lon="15.174079970817496"><ele>472.0</ele><time>2026-04-26T07:46:32Z</time></trkpt><trkpt lat="38.02567218408594" lon="15.174151333125922"><ele>470.0</ele><time>2026-04-26T07:46:33Z</time></trkpt><trkpt lat="38.02578621699934" lon="15.17422471088137"><ele>476.0</ele><time>2026-04-26T07:46:34Z</time></trkpt><trkpt lat="38.02588372180242" lon="15.174298325956737"><ele>482.0</ele><time>2026-04-26T07:46:35Z</time></trkpt><trkpt lat="38.02595917319085" lon="15.174368880313061"><ele>488.0</ele><time>2026-04-26T07:46:36Z</time></trkpt><trkpt lat="38.02602062821574" lon="15.174426668959137"><ele>494.0</ele><time>2026-04-26T07:46:37Z</time></trkpt><trkpt lat="38.026118938137174" lon="15.174446731411393"><ele>500.0</ele><time>2026-04-26T07:46:39Z</time></trkpt><trkpt lat="38.026198158643886" lon="15.174335452264394"><ele>500.0</ele><time>2026-04-26T07:46:41Z</time></trkpt><trkpt lat="38.0261969459977" lon="15.174249458738258"><ele>500.0</ele><time>2026-04-26T07:46:42Z</time></trkpt><trkpt lat="38.026147588783246" lon="15.174172364728246"><ele>500.0</ele><time>2026-04-26T07:46:43Z</time></trkpt><trkpt lat="38.02606261822803" lon="15.174113495488442"><ele>500.0</ele><time>2026-04-26T07:46:44Z</time></trkpt><trkpt lat="38.025959850421444" lon="15.174047197680709"><ele>500.0</ele><time>2026-04-26T07:46:45Z</time></trkpt><trkpt lat="38.02584719220262" lon="15.17395223866844"><ele>500.0</ele><time>2026-04-26T07:46:46Z</time></trkpt><trkpt lat="38.02571422471127" lon="15.173855234467172"><ele>500.0</ele><time>2026-04-26T07:46:47Z</time></trkpt><trkpt lat="38.025608044415605" lon="15.17376225725739"><ele>500.0</ele><time>2026-04-26T07:46:48Z</time></trkpt><trkpt lat="38.02550348691347" lon="15.1736808839422"><ele>500.0</ele><time>2026-04-26T07:46:49Z</time></trkpt><trkpt lat="38.025421109724604" lon="15.173569734628247"><ele>500.0</ele><time>2026-04-26T07:46:50Z</time></trkpt><trkpt lat="38.025338284224546" lon="15.173444003219808"><ele>500.0</ele><time>2026-04-26T07:46:51Z</time></trkpt><trkpt lat="38.02525913686014" lon="15.173311208859703"><ele>500.0</ele><time>2026-04-26T07:46:52Z</time></trkpt><trkpt lat="38.02519269768199" lon="15.173172375854994"><ele>500.0</ele><time>2026-04-26T07:46:53Z</time></trkpt><trkpt lat="38.02513784835605" lon="15.173033002874568"><ele>504.0</ele><time>2026-04-26T07:46:54Z</time></trkpt><trkpt lat="38.02510455349716" lon="15.172893800990767"><ele>508.0</ele><time>2026-04-26T07:46:55Z</time></trkpt><trkpt lat="38.02509583455105" lon="15.172753576438685"><ele>512.0</ele><time>2026-04-26T07:46:56Z</time></trkpt><trkpt lat="38.02510799208761" lon="15.172621849670557"><ele>516.0</ele><time>2026-04-26T07:46:57Z</time></trkpt><trkpt lat="38.0251311785761" lon="15.172508603672425"><ele>520.0</ele><time>2026-04-26T07:46:58Z</time></trkpt><trkpt lat="38.025103586078686" lon="15.17239252113564"><ele>518.2</ele><time>2026-04-26T07:46:59Z</time></trkpt><trkpt lat="38.02504191455238" lon="15.172297660380556"><ele>516.4</ele><time>2026-04-26T07:47:00Z</time></trkpt><trkpt lat="38.0249616671613" lon="15.172236262335755"><ele>514.6</ele><time>2026-04-26T07:47:01Z</time></trkpt><trkpt lat="38.024853960254454" lon="15.172193569015661"><ele>512.8</ele><time>2026-04-26T07:47:02Z</time></trkpt><trkpt lat="38.024744626986504" lon="15.172133900580413"><ele>511.0</ele><time>2026-04-26T07:47:03Z</time></trkpt><trkpt lat="38.024643596478214" lon="15.17206624245555"><ele>511.0</ele><time>2026-04-26T07:47:04Z</time></trkpt><trkpt lat="38.024564538148205" lon="15.172005161428935"><ele>511.0</ele><time>2026-04-26T07:47:05Z</time></trkpt><trkpt lat="38.02448539488437" lon="15.171952512447964"><ele>511.0</ele><time>2026-04-26T07:47:06Z</time></trkpt><trkpt lat="38.02443162526001" lon="15.171872455235507"><ele>511.0</ele><time>2026-04-26T07:47:07Z</time></trkpt><trkpt lat="38.02439212893489" lon="15.171777627316072"><ele>511.0</ele><time>2026-04-26T07:47:08Z</time></trkpt><trkpt lat="38.02435143404264" lon="15.171659409729136"><ele>511.0</ele><time>2026-04-26T07:47:09Z</time></trkpt><trkpt lat="38.02433094856581" lon="15.171539688394002"><ele>511.0</ele><time>2026-04-26T07:47:10Z</time></trkpt><trkpt lat="38.024290336323496" lon="15.17141371878674"><ele>511.0</ele><time>2026-04-26T07:47:11Z</time></trkpt><trkpt lat="38.024255868620116" lon="15.171297379115448"><ele>511.0</ele><time>2026-04-26T07:47:12Z</time></trkpt><trkpt lat="38.02420910904173" lon="15.171178354773792"><ele>511.0</ele><time>2026-04-26T07:47:13Z</time></trkpt><trkpt lat="38.02413157962551" lon="15.171062761617073"><ele>509.8</ele><time>2026-04-26T07:47:14Z</time></trkpt><trkpt lat="38.0240324874756" lon="15.170965435452617"><ele>508.6</ele><time>2026-04-26T07:47:15Z</time></trkpt><trkpt lat="38.02393404441243" lon="15.170874291549435"><ele>507.4</ele><time>2026-04-26T07:47:16Z</time></trkpt><trkpt lat="38.02385351601931" lon="15.17079509842983"><ele>506.2</ele><time>2026-04-26T07:47:17Z</time></trkpt><trkpt lat="38.023783693765495" lon="15.170716494717366"><ele>505.0</ele><time>2026-04-26T07:47:18Z</time></trkpt><trkpt lat="38.02372226355787" lon="15.170644650639039"><ele>508.6666666666667</ele><time>2026-04-26T07:47:19Z</time></trkpt><trkpt lat="38.02366089311674" lon="15.17057728044749"><ele>512.3333333333334</ele><time>2026-04-26T07:47:20Z</time></trkpt><trkpt lat="38.02359879191617" lon="15.170521184192445"><ele>516.0</ele><time>2026-04-26T07:47:21Z</time></trkpt><trkpt lat="38.023539827265374" lon="15.170470752283443"><ele>519.6666666666666</ele><time>2026-04-26T07:47:22Z</time></trkpt><trkpt lat="38.02346943844317" lon="15.170442138011115"><ele>523.3333333333333</ele><time>2026-04-26T07:47:23Z</time></trkpt><trkpt lat="38.02335775472912" lon="15.170413310364804"><ele>527.0</ele><time>2026-04-26T07:47:24Z</time></trkpt><trkpt lat="38.023257627436536" lon="15.170404973071502"><ele>527.0</ele><time>2026-04-26T07:47:25Z</time></trkpt><trkpt lat="38.02313883281112" lon="15.170401827871826"><ele>527.0</ele><time>2026-04-26T07:47:26Z</time></trkpt><trkpt lat="38.023016059972285" lon="15.170399031012865"><ele>527.0</ele><time>2026-04-26T07:47:27Z</time></trkpt><trkpt lat="38.02288495469691" lon="15.170397362695605"><ele>527.0</ele><time>2026-04-26T07:47:28Z</time></trkpt><trkpt lat="38.02276233029775" lon="15.17036385794709"><ele>527.0</ele><time>2026-04-26T07:47:29Z</time></trkpt><trkpt lat="38.02266239908876" lon="15.170296702395415"><ele>527.0</ele><time>2026-04-26T07:47:30Z</time></trkpt><trkpt lat="38.022566785730035" lon="15.170226786611856"><ele>527.0</ele><time>2026-04-26T07:47:31Z</time></trkpt><trkpt lat="38.02247268192476" lon="15.170157527310009"><ele>527.0</ele><time>2026-04-26T07:47:32Z</time></trkpt><trkpt lat="38.02237335910971" lon="15.170088934524532"><ele>527.0</ele><time>2026-04-26T07:47:33Z</time></trkpt><trkpt lat="38.022289700719675" lon="15.170004763333763"><ele>528.2</ele><time>2026-04-26T07:47:34Z</time></trkpt><trkpt lat="38.02222323663017" lon="15.169897843366758"><ele>529.4000000000001</ele><time>2026-04-26T07:47:35Z</time></trkpt><trkpt lat="38.02214674802697" lon="15.169794339815885"><ele>530.5999999999999</ele><time>2026-04-26T07:47:36Z</time></trkpt><trkpt lat="38.022070818710674" lon="15.16969404484924"><ele>531.8</ele><time>2026-04-26T07:47:37Z</time></trkpt><trkpt lat="38.02199508252806" lon="15.169595668454091"><ele>533.0</ele><time>2026-04-26T07:47:38Z</time></trkpt><trkpt lat="38.021927903592356" lon="15.169488298294237"><ele>533.7142857142857</ele><time>2026-04-26T07:47:39Z</time></trkpt><trkpt lat="38.021882189105625" lon="15.169380322791751"><ele>534.4285714285713</ele><time>2026-04-26T07:47:40Z</time></trkpt><trkpt lat="38.021878979735064" lon="15.16928384023788"><ele>535.1428571428571</ele><time>2026-04-26T07:47:41Z</time></trkpt><trkpt lat="38.021902954993195" lon="15.169207688961858"><ele>535.8571428571429</ele><time>2026-04-26T07:47:42Z</time></trkpt><trkpt lat="38.02194273281362" lon="15.169134341359054"><ele>536.5714285714287</ele><time>2026-04-26T07:47:43Z</time></trkpt><trkpt lat="38.02200197169576" lon="15.169089099211996"><ele>537.2857142857143</ele><time>2026-04-26T07:47:44Z</time></trkpt><trkpt lat="38.022068592413646" lon="15.169081373144433"><ele>538.0</ele><time>2026-04-26T07:47:45Z</time></trkpt><trkpt lat="38.02214180243663" lon="15.169108300935221"><ele>538.0</ele><time>2026-04-26T07:47:46Z</time></trkpt><trkpt lat="38.02220495621048" lon="15.169186477979881"><ele>538.0</ele><time>2026-04-26T07:47:47Z</time></trkpt><trkpt lat="38.022269575676624" lon="15.169285132333378"><ele>538.0</ele><time>2026-04-26T07:47:48Z</time></trkpt><trkpt lat="38.022343498602346" lon="15.169378813701176"><ele>538.0</ele><time>2026-04-26T07:47:49Z</time></trkpt><trkpt lat="38.02240647262454" lon="15.169497030505479"><ele>538.0</ele><time>2026-04-26T07:47:50Z</time></trkpt><trkpt lat="38.02246525012001" lon="15.169628228571602"><ele>535.25</ele><time>2026-04-26T07:47:51Z</time></trkpt><trkpt lat="38.02255724121053" lon="15.169734699139399"><ele>532.5</ele><time>2026-04-26T07:47:52Z</time></trkpt><trkpt lat="38.02266619548619" lon="15.169820107756737"><ele>529.75</ele><time>2026-04-26T07:47:53Z</time></trkpt><trkpt lat="38.02276602726555" lon="15.169903098072002"><ele>527.0</ele><time>2026-04-26T07:47:54Z</time></trkpt><trkpt lat="38.02287375018994" lon="15.169941018236619"><ele>527.0</ele><time>2026-04-26T07:47:55Z</time></trkpt><trkpt lat="38.022985405941775" lon="15.16993025643504"><ele>527.0</ele><time>2026-04-26T07:47:56Z</time></trkpt><trkpt lat="38.02309737292621" lon="15.169902841777226"><ele>527.0</ele><time>2026-04-26T07:47:57Z</time></trkpt><trkpt lat="38.02320992369492" lon="15.169869080324942"><ele>527.0</ele><time>2026-04-26T07:47:58Z</time></trkpt><trkpt lat="38.02332190897025" lon="15.169837976344624"><ele>534.8000000000001</ele><time>2026-04-26T07:47:59Z</time></trkpt><trkpt lat="38.02342373963655" lon="15.169794293091584"><ele>542.6</ele><time>2026-04-26T07:48:00Z</time></trkpt><trkpt lat="38.02350769528107" lon="15.169709580418475"><ele>550.4000000000001</ele><time>2026-04-26T07:48:01Z</time></trkpt><trkpt lat="38.02356416675289" lon="15.169587868255462"><ele>558.2</ele><time>2026-04-26T07:48:02Z</time></trkpt><trkpt lat="38.02360657279682" lon="15.169453818078463"><ele>566.0</ele><time>2026-04-26T07:48:03Z</time></trkpt><trkpt lat="38.02362611251946" lon="15.169312891544003"><ele>566.0</ele><time>2026-04-26T07:48:04Z</time></trkpt><trkpt lat="38.02363717308081" lon="15.169165579224671"><ele>566.0</ele><time>2026-04-26T07:48:05Z</time></trkpt><trkpt lat="38.02366265502125" lon="15.169021730863907"><ele>566.0</ele><time>2026-04-26T07:48:06Z</time></trkpt><trkpt lat="38.023706312365626" lon="15.168885978176526"><ele>566.0</ele><time>2026-04-26T07:48:07Z</time></trkpt><trkpt lat="38.02375635258316" lon="15.168767957506567"><ele>569.1666666666666</ele><time>2026-04-26T07:48:08Z</time></trkpt><trkpt lat="38.02380135962198" lon="15.168665576653757"><ele>572.3333333333333</ele><time>2026-04-26T07:48:09Z</time></trkpt><trkpt lat="38.023828177583376" lon="15.168569879379028"><ele>575.5</ele><time>2026-04-26T07:48:10Z</time></trkpt><trkpt lat="38.0238278990363" lon="15.16848414261299"><ele>578.6666666666666</ele><time>2026-04-26T07:48:11Z</time></trkpt><trkpt lat="38.02378794256454" lon="15.168415393592063"><ele>581.8333333333334</ele><time>2026-04-26T07:48:12Z</time></trkpt><trkpt lat="38.02372811412315" lon="15.168366068322685"><ele>585.0</ele><time>2026-04-26T07:48:13Z</time></trkpt><trkpt lat="38.0236528878035" lon="15.168359581664765"><ele>585.0</ele><time>2026-04-26T07:48:14Z</time></trkpt><trkpt lat="38.02357810716723" lon="15.168413502748006"><ele>585.0</ele><time>2026-04-26T07:48:15Z</time></trkpt><trkpt lat="38.02352120065346" lon="15.168506767940313"><ele>585.0</ele><time>2026-04-26T07:48:16Z</time></trkpt><trkpt lat="38.02348266366421" lon="15.16863925285213"><ele>585.0</ele><time>2026-04-26T07:48:17Z</time></trkpt><trkpt lat="38.023440643585886" lon="15.168776964148368"><ele>585.0</ele><time>2026-04-26T07:48:18Z</time></trkpt><trkpt lat="38.0233699256773" lon="15.168916880759692"><ele>578.6</ele><time>2026-04-26T07:48:19Z</time></trkpt><trkpt lat="38.02330050819233" lon="15.169037332752033"><ele>572.2</ele><time>2026-04-26T07:48:20Z</time></trkpt><trkpt lat="38.023237915487876" lon="15.169139699982031"><ele>565.8</ele><time>2026-04-26T07:48:21Z</time></trkpt><trkpt lat="38.02315319918354" lon="15.169192731365534"><ele>559.4</ele><time>2026-04-26T07:48:22Z</time></trkpt><trkpt lat="38.02306232546693" lon="15.169221879610157"><ele>553.0</ele><time>2026-04-26T07:48:23Z</time></trkpt><trkpt lat="38.022975349429665" lon="15.169227502699169"><ele>553.0</ele><time>2026-04-26T07:48:24Z</time></trkpt><trkpt lat="38.02288015724885" lon="15.16920367226617"><ele>553.0</ele><time>2026-04-26T07:48:25Z</time></trkpt><trkpt lat="38.022802280778514" lon="15.169136983227746"><ele>553.0</ele><time>2026-04-26T07:48:26Z</time></trkpt><trkpt lat="38.02274248466568" lon="15.169031617705727"><ele>553.0</ele><time>2026-04-26T07:48:27Z</time></trkpt><trkpt lat="38.02269720402574" lon="15.168895233812115"><ele>553.0</ele><time>2026-04-26T07:48:28Z</time></trkpt><trkpt lat="38.02264274787876" lon="15.16879616677648"><ele>554.6</ele><time>2026-04-26T07:48:29Z</time></trkpt><trkpt lat="38.02258839652585" lon="15.168679042013125"><ele>556.1999999999999</ele><time>2026-04-26T07:48:30Z</time></trkpt><trkpt lat="38.02253708268136" lon="15.168553940098889"><ele>557.8</ele><time>2026-04-26T07:48:31Z</time></trkpt><trkpt lat="38.0224869991526" lon="15.168424791967263"><ele>559.4</ele><time>2026-04-26T07:48:32Z</time></trkpt><trkpt lat="38.022429554675796" lon="15.168295302628882"><ele>561.0</ele><time>2026-04-26T07:48:33Z</time></trkpt><trkpt lat="38.02237690251071" lon="15.168162123703505"><ele>566.4</ele><time>2026-04-26T07:48:34Z</time></trkpt><trkpt lat="38.02232393629318" lon="15.168032828617308"><ele>571.8</ele><time>2026-04-26T07:48:35Z</time></trkpt><trkpt lat="38.02224735074181" lon="15.167927030849476"><ele>577.1999999999999</ele><time>2026-04-26T07:48:36Z</time></trkpt><trkpt lat="38.022160780951474" lon="15.16783966455095"><ele>582.6</ele><time>2026-04-26T07:48:37Z</time></trkpt><trkpt lat="38.02206780430383" lon="15.167764997796485"><ele>588.0</ele><time>2026-04-26T07:48:38Z</time></trkpt><trkpt lat="38.021978535553586" lon="15.167687035668184"><ele>588.0</ele><time>2026-04-26T07:48:39Z</time></trkpt><trkpt lat="38.02188828631377" lon="15.167606659441832"><ele>588.0</ele><time>2026-04-26T07:48:40Z</time></trkpt><trkpt lat="38.02179262776017" lon="15.167531071936272"><ele>588.0</ele><time>2026-04-26T07:48:41Z</time></trkpt><trkpt lat="38.02169409045066" lon="15.167458211379964"><ele>588.0</ele><time>2026-04-26T07:48:42Z</time></trkpt><trkpt lat="38.02160280823354" lon="15.1673906440752"><ele>588.0</ele><time>2026-04-26T07:48:43Z</time></trkpt><trkpt lat="38.021525383350905" lon="15.167315556670045"><ele>589.4</ele><time>2026-04-26T07:48:44Z</time></trkpt><trkpt lat="38.02146096094356" lon="15.167220736952242"><ele>590.8</ele><time>2026-04-26T07:48:45Z</time></trkpt><trkpt lat="38.021410218326636" lon="15.167117179751997"><ele>592.2</ele><time>2026-04-26T07:48:46Z</time></trkpt><trkpt lat="38.02135974042046" lon="15.16701015189557"><ele>593.6</ele><time>2026-04-26T07:48:47Z</time></trkpt><trkpt lat="38.02131509105386" lon="15.166919432848903"><ele>595.0</ele><time>2026-04-26T07:48:48Z</time></trkpt><trkpt lat="38.021267894119006" lon="15.166846343547551"><ele>595.0</ele><time>2026-04-26T07:48:49Z</time></trkpt><trkpt lat="38.02119558151943" lon="15.16682635820469"><ele>595.0</ele><time>2026-04-26T07:48:50Z</time></trkpt><trkpt lat="38.02112671990267" lon="15.166851546889392"><ele>595.0</ele><time>2026-04-26T07:48:51Z</time></trkpt><trkpt lat="38.02105108360499" lon="15.166880130449679"><ele>595.0</ele><time>2026-04-26T07:48:52Z</time></trkpt><trkpt lat="38.02096579782426" lon="15.166905487391041"><ele>595.0</ele><time>2026-04-26T07:48:53Z</time></trkpt><trkpt lat="38.02087106984678" lon="15.16691853507406"><ele>595.0</ele><time>2026-04-26T07:48:54Z</time></trkpt><trkpt lat="38.02077230739954" lon="15.16691257775093"><ele>596.0</ele><time>2026-04-26T07:48:55Z</time></trkpt><trkpt lat="38.02067233550784" lon="15.16687134611949"><ele>597.0</ele><time>2026-04-26T07:48:56Z</time></trkpt><trkpt lat="38.02057165224081" lon="15.166822138512334"><ele>598.0</ele><time>2026-04-26T07:48:57Z</time></trkpt><trkpt lat="38.02046129064971" lon="15.166797482933497"><ele>599.0</ele><time>2026-04-26T07:48:58Z</time></trkpt><trkpt lat="38.020352727824374" lon="15.166770200876975"><ele>600.0</ele><time>2026-04-26T07:48:59Z</time></trkpt><trkpt lat="38.020263091724274" lon="15.166735617687838"><ele>600.0</ele><time>2026-04-26T07:49:00Z</time></trkpt><trkpt lat="38.02018325288348" lon="15.166710353114334"><ele>600.0</ele><time>2026-04-26T07:49:01Z</time></trkpt><trkpt lat="38.02011433319512" lon="15.166712391454038"><ele>600.0</ele><time>2026-04-26T07:49:02Z</time></trkpt><trkpt lat="38.02005043506785" lon="15.166751403659548"><ele>600.0</ele><time>2026-04-26T07:49:03Z</time></trkpt><trkpt lat="38.02000682577771" lon="15.16683482671221"><ele>600.0</ele><time>2026-04-26T07:49:04Z</time></trkpt><trkpt lat="38.01998613586776" lon="15.166939093146302"><ele>600.0</ele><time>2026-04-26T07:49:05Z</time></trkpt><trkpt lat="38.019968360103235" lon="15.167042728683528"><ele>604.0</ele><time>2026-04-26T07:49:06Z</time></trkpt><trkpt lat="38.019960071431406" lon="15.167141415455353"><ele>608.0</ele><time>2026-04-26T07:49:07Z</time></trkpt><trkpt lat="38.01995324094703" lon="15.167258071255537"><ele>612.0</ele><time>2026-04-26T07:49:08Z</time></trkpt><trkpt lat="38.01992130263413" lon="15.167377148107072"><ele>616.0</ele><time>2026-04-26T07:49:09Z</time></trkpt><trkpt lat="38.01989101475872" lon="15.167499738613271"><ele>620.0</ele><time>2026-04-26T07:49:10Z</time></trkpt><trkpt lat="38.01986048418149" lon="15.167618538033667"><ele>621.6</ele><time>2026-04-26T07:49:11Z</time></trkpt><trkpt lat="38.01983015503293" lon="15.167746338892425"><ele>623.2</ele><time>2026-04-26T07:49:12Z</time></trkpt><trkpt lat="38.01978705439136" lon="15.167853591997"><ele>624.8</ele><time>2026-04-26T07:49:13Z</time></trkpt><trkpt lat="38.019744533427975" lon="15.167944976164748"><ele>626.4</ele><time>2026-04-26T07:49:14Z</time></trkpt><trkpt lat="38.01972133697437" lon="15.168055999492308"><ele>628.0</ele><time>2026-04-26T07:49:15Z</time></trkpt><trkpt lat="38.0197154772849" lon="15.168170294462751"><ele>627.5</ele><time>2026-04-26T07:49:16Z</time></trkpt><trkpt lat="38.019715014897116" lon="15.168273257157205"><ele>627.0</ele><time>2026-04-26T07:49:17Z</time></trkpt><trkpt lat="38.01972301865749" lon="15.168366725728175"><ele>626.5</ele><time>2026-04-26T07:49:18Z</time></trkpt><trkpt lat="38.01971830675996" lon="15.168455837223094"><ele>626.0</ele><time>2026-04-26T07:49:19Z</time></trkpt><trkpt lat="38.01968805423105" lon="15.16854249548924"><ele>625.5</ele><time>2026-04-26T07:49:20Z</time></trkpt><trkpt lat="38.01963115364283" lon="15.1686036417276"><ele>625.0</ele><time>2026-04-26T07:49:21Z</time></trkpt><trkpt lat="38.01956803005051" lon="15.168658314450235"><ele>625.0</ele><time>2026-04-26T07:49:22Z</time></trkpt><trkpt lat="38.01949309992113" lon="15.168695456684521"><ele>625.0</ele><time>2026-04-26T07:49:23Z</time></trkpt><trkpt lat="38.01941586255251" lon="15.16872103068565"><ele>625.0</ele><time>2026-04-26T07:49:24Z</time></trkpt><trkpt lat="38.01933898405366" lon="15.168755086137972"><ele>625.0</ele><time>2026-04-26T07:49:25Z</time></trkpt><trkpt lat="38.019260894306186" lon="15.168793131567101"><ele>625.0</ele><time>2026-04-26T07:49:26Z</time></trkpt><trkpt lat="38.01918420973635" lon="15.168831422439231"><ele>625.0</ele><time>2026-04-26T07:49:27Z</time></trkpt><trkpt lat="38.01911022503206" lon="15.168870229805558"><ele>625.8333333333334</ele><time>2026-04-26T07:49:28Z</time></trkpt><trkpt lat="38.019048972338574" lon="15.168927711616348"><ele>626.6666666666667</ele><time>2026-04-26T07:49:29Z</time></trkpt><trkpt lat="38.019003384491754" lon="15.169010364998222"><ele>627.5</ele><time>2026-04-26T07:49:30Z</time></trkpt><trkpt lat="38.018968655540995" lon="15.16911899754633"><ele>628.3333333333334</ele><time>2026-04-26T07:49:31Z</time></trkpt><trkpt lat="38.01894837770915" lon="15.169232617383354"><ele>629.1666666666666</ele><time>2026-04-26T07:49:32Z</time></trkpt><trkpt lat="38.01892803667622" lon="15.169341092233436"><ele>630.0</ele><time>2026-04-26T07:49:33Z</time></trkpt><trkpt lat="38.01894335227148" lon="15.169454318488382"><ele>630.0</ele><time>2026-04-26T07:49:34Z</time></trkpt><trkpt lat="38.01898078916677" lon="15.169564387374"><ele>630.0</ele><time>2026-04-26T07:49:35Z</time></trkpt><trkpt lat="38.019047590134456" lon="15.169656678611066"><ele>630.0</ele><time>2026-04-26T07:49:36Z</time></trkpt><trkpt lat="38.0191136773595" lon="15.169734667011108"><ele>630.0</ele><time>2026-04-26T07:49:37Z</time></trkpt><trkpt lat="38.019188009403024" lon="15.169807841609364"><ele>630.0</ele><time>2026-04-26T07:49:38Z</time></trkpt><trkpt lat="38.0192706748475" lon="15.169889815722817"><ele>627.75</ele><time>2026-04-26T07:49:39Z</time></trkpt><trkpt lat="38.01935661884995" lon="15.169976858175389"><ele>625.5</ele><time>2026-04-26T07:49:40Z</time></trkpt><trkpt lat="38.01944961788575" lon="15.170070293967978"><ele>623.25</ele><time>2026-04-26T07:49:41Z</time></trkpt><trkpt lat="38.01954213168271" lon="15.170169740758746"><ele>621.0</ele><time>2026-04-26T07:49:42Z</time></trkpt><trkpt lat="38.01962958601946" lon="15.170276997703711"><ele>621.0</ele><time>2026-04-26T07:49:43Z</time></trkpt><trkpt lat="38.019688619102844" lon="15.170403113703498"><ele>621.0</ele><time>2026-04-26T07:49:44Z</time></trkpt><trkpt lat="38.019750035903805" lon="15.17051589033326"><ele>621.0</ele><time>2026-04-26T07:49:45Z</time></trkpt><trkpt lat="38.01981734346641" lon="15.170622370775696"><ele>621.0</ele><time>2026-04-26T07:49:46Z</time></trkpt><trkpt lat="38.01988261936671" lon="15.170729745533501"><ele>621.0</ele><time>2026-04-26T07:49:47Z</time></trkpt><trkpt lat="38.019943203579444" lon="15.170835418523913"><ele>619.8</ele><time>2026-04-26T07:49:48Z</time></trkpt><trkpt lat="38.01998627391458" lon="15.170946528347098"><ele>618.6</ele><time>2026-04-26T07:49:49Z</time></trkpt><trkpt lat="38.02000534323328" lon="15.171059863708766"><ele>617.4</ele><time>2026-04-26T07:49:50Z</time></trkpt><trkpt lat="38.02002620415102" lon="15.171175933299015"><ele>616.2</ele><time>2026-04-26T07:49:51Z</time></trkpt><trkpt lat="38.020044881656524" lon="15.17129592112948"><ele>615.0</ele><time>2026-04-26T07:49:52Z</time></trkpt><trkpt lat="38.02006295768799" lon="15.171421571702986"><ele>617.4</ele><time>2026-04-26T07:49:53Z</time></trkpt><trkpt lat="38.02006418030897" lon="15.171556401167983"><ele>619.8</ele><time>2026-04-26T07:49:54Z</time></trkpt><trkpt lat="38.020068543060596" lon="15.171687244617436"><ele>622.2</ele><time>2026-04-26T07:49:55Z</time></trkpt><trkpt lat="38.02010385508691" lon="15.171810996656033"><ele>624.6</ele><time>2026-04-26T07:49:56Z</time></trkpt><trkpt lat="38.02015932342798" lon="15.171937190172553"><ele>627.0</ele><time>2026-04-26T07:49:57Z</time></trkpt><trkpt lat="38.020224943878866" lon="15.172062526452331"><ele>627.0</ele><time>2026-04-26T07:49:58Z</time></trkpt><trkpt lat="38.020302878152826" lon="15.172183898171243"><ele>627.0</ele><time>2026-04-26T07:49:59Z</time></trkpt><trkpt lat="38.02036736004392" lon="15.17228126021258"><ele>627.0</ele><time>2026-04-26T07:50:00Z</time></trkpt><trkpt lat="38.02042169011872" lon="15.172370116497747"><ele>627.0</ele><time>2026-04-26T07:50:01Z</time></trkpt><trkpt lat="38.02047080070342" lon="15.172455329511143"><ele>627.0</ele><time>2026-04-26T07:50:02Z</time></trkpt><trkpt lat="38.02051590507487" lon="15.172537112839297"><ele>629.3333333333334</ele><time>2026-04-26T07:50:03Z</time></trkpt><trkpt lat="38.02054826652131" lon="15.17262566927952"><ele>631.6666666666666</ele><time>2026-04-26T07:50:04Z</time></trkpt><trkpt lat="38.02056399839054" lon="15.172729557069715"><ele>634.0</ele><time>2026-04-26T07:50:05Z</time></trkpt><trkpt lat="38.0205649229801" lon="15.17284703749182"><ele>636.3333333333333</ele><time>2026-04-26T07:50:06Z</time></trkpt><trkpt lat="38.020558588236206" lon="15.17296567048242"><ele>638.6666666666666</ele><time>2026-04-26T07:50:07Z</time></trkpt><trkpt lat="38.02054682846705" lon="15.17308577931706"><ele>641.0</ele><time>2026-04-26T07:50:08Z</time></trkpt><trkpt lat="38.020520187483534" lon="15.173208867646531"><ele>642.4</ele><time>2026-04-26T07:50:09Z</time></trkpt><trkpt lat="38.02048034346131" lon="15.173327648147817"><ele>643.8</ele><time>2026-04-26T07:50:10Z</time></trkpt><trkpt lat="38.02044135572545" lon="15.173452639350728"><ele>645.1999999999999</ele><time>2026-04-26T07:50:11Z</time></trkpt><trkpt lat="38.020406033443415" lon="15.173578449577581"><ele>646.5999999999999</ele><time>2026-04-26T07:50:12Z</time></trkpt><trkpt lat="38.02037956124629" lon="15.173697640674419"><ele>648.0</ele><time>2026-04-26T07:50:13Z</time></trkpt><trkpt lat="38.0203831818621" lon="15.173813842487812"><ele>648.0</ele><time>2026-04-26T07:50:14Z</time></trkpt><trkpt lat="38.020403279343164" lon="15.173933591084536"><ele>648.0</ele><time>2026-04-26T07:50:15Z</time></trkpt><trkpt lat="38.020441463714796" lon="15.17405465613507"><ele>648.0</ele><time>2026-04-26T07:50:16Z</time></trkpt><trkpt lat="38.020463765341745" lon="15.174179027176283"><ele>648.0</ele><time>2026-04-26T07:50:17Z</time></trkpt><trkpt lat="38.02047061131283" lon="15.17431178317465"><ele>648.0</ele><time>2026-04-26T07:50:18Z</time></trkpt><trkpt lat="38.02046451569565" lon="15.174450666284386"><ele>648.8</ele><time>2026-04-26T07:50:19Z</time></trkpt><trkpt lat="38.020447346119475" lon="15.174581290295942"><ele>649.5999999999999</ele><time>2026-04-26T07:50:20Z</time></trkpt><trkpt lat="38.020426707024846" lon="15.174703694870278"><ele>650.4000000000001</ele><time>2026-04-26T07:50:21Z</time></trkpt><trkpt lat="38.02038955456945" lon="15.174816649578183"><ele>651.2</ele><time>2026-04-26T07:50:22Z</time></trkpt><trkpt lat="38.020341475086" lon="15.174907914410431"><ele>652.0</ele><time>2026-04-26T07:50:23Z</time></trkpt><trkpt lat="38.0202765298916" lon="15.174975764460283"><ele>652.0</ele><time>2026-04-26T07:50:24Z</time></trkpt><trkpt lat="38.020211105152434" lon="15.175027195327887"><ele>652.0</ele><time>2026-04-26T07:50:25Z</time></trkpt><trkpt lat="38.020134897218675" lon="15.175074461659786"><ele>652.0</ele><time>2026-04-26T07:50:26Z</time></trkpt><trkpt lat="38.020057076620986" lon="15.175140609042318"><ele>652.0</ele><time>2026-04-26T07:50:27Z</time></trkpt><trkpt lat="38.01997818535151" lon="15.175235043967627"><ele>652.0</ele><time>2026-04-26T07:50:28Z</time></trkpt><trkpt lat="38.01990241613759" lon="15.17534068644961"><ele>657.75</ele><time>2026-04-26T07:50:29Z</time></trkpt><trkpt lat="38.01982687229808" lon="15.175465172801216"><ele>663.5</ele><time>2026-04-26T07:50:30Z</time></trkpt><trkpt lat="38.01975695013933" lon="15.175585626668942"><ele>669.25</ele><time>2026-04-26T07:50:31Z</time></trkpt><trkpt lat="38.01968708914472" lon="15.175713652334066"><ele>675.0</ele><time>2026-04-26T07:50:32Z</time></trkpt><trkpt lat="38.01961555001976" lon="15.175830431922755"><ele>675.0</ele><time>2026-04-26T07:50:33Z</time></trkpt><trkpt lat="38.01954534136292" lon="15.175947941358586"><ele>675.0</ele><time>2026-04-26T07:50:34Z</time></trkpt><trkpt lat="38.01949384458039" lon="15.17609280953345"><ele>675.0</ele><time>2026-04-26T07:50:35Z</time></trkpt><trkpt lat="38.019452826043185" lon="15.17623642926867"><ele>675.0</ele><time>2026-04-26T07:50:36Z</time></trkpt><trkpt lat="38.01942180123171" lon="15.176385671679318"><ele>672.0</ele><time>2026-04-26T07:50:37Z</time></trkpt><trkpt lat="38.0194006319774" lon="15.176538215243625"><ele>669.0</ele><time>2026-04-26T07:50:38Z</time></trkpt><trkpt lat="38.019376617291954" lon="15.176696914464108"><ele>666.0</ele><time>2026-04-26T07:50:39Z</time></trkpt><trkpt lat="38.01935827916325" lon="15.176860836004977"><ele>663.0</ele><time>2026-04-26T07:50:40Z</time></trkpt><trkpt lat="38.01935385783823" lon="15.177014779249618"><ele>663.0</ele><time>2026-04-26T07:50:41Z</time></trkpt><trkpt lat="38.01938065244872" lon="15.17716411764433"><ele>663.0</ele><time>2026-04-26T07:50:42Z</time></trkpt><trkpt lat="38.01943546151666" lon="15.177307485889608"><ele>663.0</ele><time>2026-04-26T07:50:43Z</time></trkpt><trkpt lat="38.01949526880253" lon="15.177452240321278"><ele>663.0</ele><time>2026-04-26T07:50:44Z</time></trkpt><trkpt lat="38.01954674878673" lon="15.177581229287652"><ele>663.2</ele><time>2026-04-26T07:50:45Z</time></trkpt><trkpt lat="38.01957952323951" lon="15.177701206412634"><ele>663.4</ele><time>2026-04-26T07:50:46Z</time></trkpt><trkpt lat="38.01958711041198" lon="15.177834281639374"><ele>663.6</ele><time>2026-04-26T07:50:47Z</time></trkpt><trkpt lat="38.01958798027676" lon="15.17798362987217"><ele>663.8000000000001</ele><time>2026-04-26T07:50:48Z</time></trkpt><trkpt lat="38.019624650289366" lon="15.178130284771283"><ele>664.0</ele><time>2026-04-26T07:50:49Z</time></trkpt><trkpt lat="38.01968563858911" lon="15.178271989624799"><ele>662.2</ele><time>2026-04-26T07:50:50Z</time></trkpt><trkpt lat="38.01975545298088" lon="15.178396293536782"><ele>660.4000000000001</ele><time>2026-04-26T07:50:51Z</time></trkpt><trkpt lat="38.01981820595274" lon="15.17850168865744"><ele>658.6</ele><time>2026-04-26T07:50:52Z</time></trkpt><trkpt lat="38.019877089392075" lon="15.178596293757169"><ele>656.8</ele><time>2026-04-26T07:50:53Z</time></trkpt><trkpt lat="38.019919888901164" lon="15.178683349941661"><ele>655.0</ele><time>2026-04-26T07:50:54Z</time></trkpt><trkpt lat="38.0199362616871" lon="15.178771543423757"><ele>655.0</ele><time>2026-04-26T07:50:55Z</time></trkpt><trkpt lat="38.01991251959956" lon="15.178850682757723"><ele>655.0</ele><time>2026-04-26T07:50:56Z</time></trkpt><trkpt lat="38.01980660881801" lon="15.178884939808842"><ele>655.0</ele><time>2026-04-26T07:50:58Z</time></trkpt><trkpt lat="38.019747261758425" lon="15.178839890658278"><ele>655.0</ele><time>2026-04-26T07:50:59Z</time></trkpt><trkpt lat="38.019696407125934" lon="15.178776336068722"><ele>655.0</ele><time>2026-04-26T07:51:00Z</time></trkpt><trkpt lat="38.01965015782833" lon="15.178692494416353"><ele>655.0</ele><time>2026-04-26T07:51:01Z</time></trkpt><trkpt lat="38.0195930578151" lon="15.178597527251522"><ele>655.0</ele><time>2026-04-26T07:51:02Z</time></trkpt><trkpt lat="38.019532531625465" lon="15.178488325253431"><ele>655.0</ele><time>2026-04-26T07:51:03Z</time></trkpt><trkpt lat="38.019465662335094" lon="15.17836971112521"><ele>655.0</ele><time>2026-04-26T07:51:04Z</time></trkpt><trkpt lat="38.01939282050424" lon="15.17824469571608"><ele>655.0</ele><time>2026-04-26T07:51:05Z</time></trkpt><trkpt lat="38.019319484569756" lon="15.178115951682276"><ele>655.0</ele><time>2026-04-26T07:51:06Z</time></trkpt><trkpt lat="38.01924413662577" lon="15.177989165003408"><ele>655.0</ele><time>2026-04-26T07:51:07Z</time></trkpt><trkpt lat="38.01916898766207" lon="15.177862789324228"><ele>655.0</ele><time>2026-04-26T07:51:08Z</time></trkpt><trkpt lat="38.01909338314624" lon="15.177732778465487"><ele>655.0</ele><time>2026-04-26T07:51:09Z</time></trkpt><trkpt lat="38.01901954661431" lon="15.17759690931668"><ele>655.0</ele><time>2026-04-26T07:51:10Z</time></trkpt><trkpt lat="38.01895953721201" lon="15.17746115514693"><ele>655.0</ele><time>2026-04-26T07:51:11Z</time></trkpt><trkpt lat="38.01890910466124" lon="15.177329164646048"><ele>655.0</ele><time>2026-04-26T07:51:12Z</time></trkpt><trkpt lat="38.01888656322757" lon="15.177190053705756"><ele>655.0</ele><time>2026-04-26T07:51:13Z</time></trkpt><trkpt lat="38.01885535109805" lon="15.177058546029667"><ele>661.0</ele><time>2026-04-26T07:51:14Z</time></trkpt><trkpt lat="38.018861457817195" lon="15.176919393644585"><ele>667.0</ele><time>2026-04-26T07:51:15Z</time></trkpt><trkpt lat="38.01886456405831" lon="15.176777892062635"><ele>673.0</ele><time>2026-04-26T07:51:16Z</time></trkpt><trkpt lat="38.01887703885014" lon="15.176631631081317"><ele>679.0</ele><time>2026-04-26T07:51:17Z</time></trkpt><trkpt lat="38.018917671756256" lon="15.17648739396036"><ele>683.75</ele><time>2026-04-26T07:51:18Z</time></trkpt><trkpt lat="38.01895221321725" lon="15.176344536719203"><ele>688.5</ele><time>2026-04-26T07:51:19Z</time></trkpt><trkpt lat="38.01900484765394" lon="15.176208855683692"><ele>693.25</ele><time>2026-04-26T07:51:20Z</time></trkpt><trkpt lat="38.01905144086222" lon="15.176063029960064"><ele>698.0</ele><time>2026-04-26T07:51:21Z</time></trkpt><trkpt lat="38.019113908318445" lon="15.175929327249596"><ele>694.4</ele><time>2026-04-26T07:51:22Z</time></trkpt><trkpt lat="38.01916908222218" lon="15.175793545004831"><ele>690.8</ele><time>2026-04-26T07:51:23Z</time></trkpt><trkpt lat="38.01921647701742" lon="15.175657359522834"><ele>687.2</ele><time>2026-04-26T07:51:24Z</time></trkpt><trkpt lat="38.01925810790821" lon="15.175529843059527"><ele>683.6</ele><time>2026-04-26T07:51:25Z</time></trkpt><trkpt lat="38.01927638354936" lon="15.175402948362777"><ele>680.0</ele><time>2026-04-26T07:51:26Z</time></trkpt><trkpt lat="38.01927577728023" lon="15.175276847784444"><ele>680.0</ele><time>2026-04-26T07:51:27Z</time></trkpt><trkpt lat="38.01926240255779" lon="15.175142732676242"><ele>680.0</ele><time>2026-04-26T07:51:28Z</time></trkpt><trkpt lat="38.01924843572012" lon="15.175008125120996"><ele>680.0</ele><time>2026-04-26T07:51:29Z</time></trkpt><trkpt lat="38.01924538610539" lon="15.17486843137885"><ele>680.0</ele><time>2026-04-26T07:51:30Z</time></trkpt><trkpt lat="38.01926541434042" lon="15.174734025162493"><ele>680.0</ele><time>2026-04-26T07:51:31Z</time></trkpt><trkpt lat="38.0193040470687" lon="15.174612484178454"><ele>680.8</ele><time>2026-04-26T07:51:32Z</time></trkpt><trkpt lat="38.0193069512088" lon="15.174493647387129"><ele>681.6</ele><time>2026-04-26T07:51:33Z</time></trkpt><trkpt lat="38.01928406890969" lon="15.174374509270457"><ele>682.4000000000001</ele><time>2026-04-26T07:51:34Z</time></trkpt><trkpt lat="38.01922913467772" lon="15.174259613665225"><ele>683.2</ele><time>2026-04-26T07:51:35Z</time></trkpt><trkpt lat="38.01918306046493" lon="15.17413591344491"><ele>684.0</ele><time>2026-04-26T07:51:36Z</time></trkpt><trkpt lat="38.01913761048092" lon="15.174008066854473"><ele>689.5</ele><time>2026-04-26T07:51:37Z</time></trkpt><trkpt lat="38.01908172780971" lon="15.173883584418954"><ele>695.0</ele><time>2026-04-26T07:51:38Z</time></trkpt><trkpt lat="38.019059483611976" lon="15.17373504997904"><ele>700.5</ele><time>2026-04-26T07:51:39Z</time></trkpt><trkpt lat="38.01903927329298" lon="15.173588827941945"><ele>706.0</ele><time>2026-04-26T07:51:40Z</time></trkpt><trkpt lat="38.019017695506356" lon="15.173444130427695"><ele>706.0</ele><time>2026-04-26T07:51:41Z</time></trkpt><trkpt lat="38.019013093690994" lon="15.173309592854741"><ele>706.0</ele><time>2026-04-26T07:51:42Z</time></trkpt><trkpt lat="38.0189987834516" lon="15.173194547598106"><ele>706.0</ele><time>2026-04-26T07:51:43Z</time></trkpt><trkpt lat="38.018963599240585" lon="15.173107933265536"><ele>706.0</ele><time>2026-04-26T07:51:44Z</time></trkpt><trkpt lat="38.01891248670811" lon="15.173041893740528"><ele>706.0</ele><time>2026-04-26T07:51:45Z</time></trkpt><trkpt lat="38.0188575652834" lon="15.172965965489247"><ele>706.0</ele><time>2026-04-26T07:51:46Z</time></trkpt><trkpt lat="38.01878512894629" lon="15.17289475722635"><ele>703.8</ele><time>2026-04-26T07:51:47Z</time></trkpt><trkpt lat="38.01870777753369" lon="15.172831883557444"><ele>701.5999999999999</ele><time>2026-04-26T07:51:48Z</time></trkpt><trkpt lat="38.01862152231124" lon="15.172767473719725"><ele>699.4</ele><time>2026-04-26T07:51:49Z</time></trkpt><trkpt lat="38.01853130800242" lon="15.172700187031248"><ele>697.2</ele><time>2026-04-26T07:51:50Z</time></trkpt><trkpt lat="38.0184295775991" lon="15.172647415278496"><ele>695.0</ele><time>2026-04-26T07:51:51Z</time></trkpt><trkpt lat="38.018331832204886" lon="15.172587467720497"><ele>696.8</ele><time>2026-04-26T07:51:52Z</time></trkpt><trkpt lat="38.01825411651315" lon="15.172495403702918"><ele>698.6</ele><time>2026-04-26T07:51:53Z</time></trkpt><trkpt lat="38.01818066209815" lon="15.172394838227962"><ele>700.4000000000001</ele><time>2026-04-26T07:51:54Z</time></trkpt><trkpt lat="38.018120751956296" lon="15.17228049664609"><ele>702.2</ele><time>2026-04-26T07:51:55Z</time></trkpt><trkpt lat="38.0180753647764" lon="15.172152902302342"><ele>704.0</ele><time>2026-04-26T07:51:56Z</time></trkpt><trkpt lat="38.0180301581208" lon="15.172022267676656"><ele>704.0</ele><time>2026-04-26T07:51:57Z</time></trkpt><trkpt lat="38.01797771668829" lon="15.17189973498471"><ele>704.0</ele><time>2026-04-26T07:51:58Z</time></trkpt><trkpt lat="38.01791250703079" lon="15.171784586313112"><ele>704.0</ele><time>2026-04-26T07:51:59Z</time></trkpt><trkpt lat="38.01784606124967" lon="15.171672138976659"><ele>704.0</ele><time>2026-04-26T07:52:00Z</time></trkpt><trkpt lat="38.017776303752484" lon="15.171564483225994"><ele>704.0</ele><time>2026-04-26T07:52:01Z</time></trkpt><trkpt lat="38.017697841170325" lon="15.171468795048177"><ele>702.6</ele><time>2026-04-26T07:52:02Z</time></trkpt><trkpt lat="38.01759732774581" lon="15.171407544166646"><ele>701.2</ele><time>2026-04-26T07:52:03Z</time></trkpt><trkpt lat="38.01749765283188" lon="15.171339861935934"><ele>699.8000000000001</ele><time>2026-04-26T07:52:04Z</time></trkpt><trkpt lat="38.01738971850524" lon="15.171309840379518"><ele>698.4000000000001</ele><time>2026-04-26T07:52:05Z</time></trkpt><trkpt lat="38.01730750516067" lon="15.17124993292072"><ele>697.0</ele><time>2026-04-26T07:52:06Z</time></trkpt><trkpt lat="38.017245914474394" lon="15.171201019757849"><ele>698.8333333333334</ele><time>2026-04-26T07:52:07Z</time></trkpt><trkpt lat="38.017194902403716" lon="15.171137353692288"><ele>700.6666666666667</ele><time>2026-04-26T07:52:08Z</time></trkpt><trkpt lat="38.017183738019604" lon="15.171032439847295"><ele>702.5</ele><time>2026-04-26T07:52:09Z</time></trkpt><trkpt lat="38.01719881710187" lon="15.17092476448027"><ele>704.3333333333334</ele><time>2026-04-26T07:52:10Z</time></trkpt><trkpt lat="38.017192492276514" lon="15.170808353686589"><ele>706.1666666666666</ele><time>2026-04-26T07:52:11Z</time></trkpt><trkpt lat="38.017175342938145" lon="15.170690547594235"><ele>708.0</ele><time>2026-04-26T07:52:12Z</time></trkpt><trkpt lat="38.01714129681497" lon="15.17057463155813"><ele>708.0</ele><time>2026-04-26T07:52:13Z</time></trkpt><trkpt lat="38.01708142168195" lon="15.170477817484702"><ele>708.0</ele><time>2026-04-26T07:52:14Z</time></trkpt><trkpt lat="38.0169996937113" lon="15.170431537405351"><ele>708.0</ele><time>2026-04-26T07:52:15Z</time></trkpt><trkpt lat="38.016925228871926" lon="15.170437832597473"><ele>708.0</ele><time>2026-04-26T07:52:16Z</time></trkpt><trkpt lat="38.01685495340169" lon="15.170463838118284"><ele>708.0</ele><time>2026-04-26T07:52:17Z</time></trkpt><trkpt lat="38.01682685585202" lon="15.170586822580937"><ele>708.0</ele><time>2026-04-26T07:52:18Z</time></trkpt><trkpt lat="38.0168206684811" lon="15.17069111415361"><ele>710.5999999999999</ele><time>2026-04-26T07:52:19Z</time></trkpt><trkpt lat="38.01683386604219" lon="15.170799135550158"><ele>713.1999999999999</ele><time>2026-04-26T07:52:20Z</time></trkpt><trkpt lat="38.01685264138007" lon="15.170914152976966"><ele>715.8</ele><time>2026-04-26T07:52:21Z</time></trkpt><trkpt lat="38.01687315243615" lon="15.171045133511345"><ele>718.4</ele><time>2026-04-26T07:52:22Z</time></trkpt><trkpt lat="38.01690277528965" lon="15.171179073673777"><ele>721.0</ele><time>2026-04-26T07:52:23Z</time></trkpt><trkpt lat="38.01691565232449" lon="15.171321625437686"><ele>721.0</ele><time>2026-04-26T07:52:24Z</time></trkpt><trkpt lat="38.016939412827824" lon="15.171463145815958"><ele>721.0</ele><time>2026-04-26T07:52:25Z</time></trkpt><trkpt lat="38.01696449264314" lon="15.171607115592693"><ele>721.0</ele><time>2026-04-26T07:52:26Z</time></trkpt><trkpt lat="38.01700668337381" lon="15.171744116964073"><ele>721.0</ele><time>2026-04-26T07:52:27Z</time></trkpt><trkpt lat="38.017074502042554" lon="15.17186963105523"><ele>722.5</ele><time>2026-04-26T07:52:28Z</time></trkpt><trkpt lat="38.01715259970822" lon="15.17199611447255"><ele>724.0</ele><time>2026-04-26T07:52:29Z</time></trkpt><trkpt lat="38.0172302350163" lon="15.172135707430204"><ele>725.5</ele><time>2026-04-26T07:52:30Z</time></trkpt><trkpt lat="38.01730839922532" lon="15.172281741678422"><ele>727.0</ele><time>2026-04-26T07:52:31Z</time></trkpt><trkpt lat="38.017377411119654" lon="15.172435252056562"><ele>725.25</ele><time>2026-04-26T07:52:32Z</time></trkpt><trkpt lat="38.01743915329262" lon="15.172591846996305"><ele>723.5</ele><time>2026-04-26T07:52:33Z</time></trkpt><trkpt lat="38.01749834810099" lon="15.172743749090104"><ele>721.75</ele><time>2026-04-26T07:52:34Z</time></trkpt><trkpt lat="38.017548418000324" lon="15.172902477557372"><ele>720.0</ele><time>2026-04-26T07:52:35Z</time></trkpt><trkpt lat="38.01757797087195" lon="15.173065109089784"><ele>723.5</ele><time>2026-04-26T07:52:36Z</time></trkpt><trkpt lat="38.01762306374517" lon="15.173218711293531"><ele>727.0</ele><time>2026-04-26T07:52:37Z</time></trkpt><trkpt lat="38.01767139031158" lon="15.173367457626458"><ele>730.5</ele><time>2026-04-26T07:52:38Z</time></trkpt><trkpt lat="38.017728122106156" lon="15.173535045293347"><ele>734.0</ele><time>2026-04-26T07:52:39Z</time></trkpt><trkpt lat="38.017789782449015" lon="15.173694847409369"><ele>734.0</ele><time>2026-04-26T07:52:40Z</time></trkpt><trkpt lat="38.017845422424266" lon="15.173857096344772"><ele>734.0</ele><time>2026-04-26T07:52:41Z</time></trkpt><trkpt lat="38.017902524789875" lon="15.1740242581172"><ele>734.0</ele><time>2026-04-26T07:52:42Z</time></trkpt><trkpt lat="38.01795280569815" lon="15.174187020151459"><ele>734.0</ele><time>2026-04-26T07:52:43Z</time></trkpt><trkpt lat="38.017985621398665" lon="15.174313616893881"><ele>733.5</ele><time>2026-04-26T07:52:44Z</time></trkpt><trkpt lat="38.01801702198986" lon="15.17441125787575"><ele>733.0</ele><time>2026-04-26T07:52:45Z</time></trkpt><trkpt lat="38.01803691914113" lon="15.174505006457235"><ele>732.5</ele><time>2026-04-26T07:52:46Z</time></trkpt><trkpt lat="38.01802682297258" lon="15.174591438058009"><ele>732.0</ele><time>2026-04-26T07:52:47Z</time></trkpt><trkpt lat="38.01799319484319" lon="15.174664200095277"><ele>731.5</ele><time>2026-04-26T07:52:48Z</time></trkpt><trkpt lat="38.017887848196885" lon="15.174751723794706"><ele>731.0</ele><time>2026-04-26T07:52:50Z</time></trkpt><trkpt lat="38.01780740021178" lon="15.174756025805793"><ele>731.0</ele><time>2026-04-26T07:52:51Z</time></trkpt><trkpt lat="38.01772839985591" lon="15.174715116609821"><ele>731.0</ele><time>2026-04-26T07:52:52Z</time></trkpt><trkpt lat="38.017666002310364" lon="15.174637408919933"><ele>731.0</ele><time>2026-04-26T07:52:53Z</time></trkpt><trkpt lat="38.01766477090374" lon="15.174526455435412"><ele>731.0</ele><time>2026-04-26T07:52:54Z</time></trkpt><trkpt lat="38.01765404578845" lon="15.174404793159066"><ele>731.0</ele><time>2026-04-26T07:52:55Z</time></trkpt><trkpt lat="38.01763249694388" lon="15.174279873771091"><ele>731.0</ele><time>2026-04-26T07:52:56Z</time></trkpt><trkpt lat="38.01761902623179" lon="15.174141216093641"><ele>731.0</ele><time>2026-04-26T07:52:57Z</time></trkpt><trkpt lat="38.01759671075459" lon="15.17400935442003"><ele>731.0</ele><time>2026-04-26T07:52:58Z</time></trkpt><trkpt lat="38.017559413638914" lon="15.173879683099573"><ele>731.0</ele><time>2026-04-26T07:52:59Z</time></trkpt><trkpt lat="38.01750874937164" lon="15.173753859084476"><ele>731.0</ele><time>2026-04-26T07:53:00Z</time></trkpt><trkpt lat="38.01746921809452" lon="15.17361897905534"><ele>732.1999999999999</ele><time>2026-04-26T07:53:01Z</time></trkpt><trkpt lat="38.01742177339424" lon="15.173486591242424"><ele>733.4</ele><time>2026-04-26T07:53:02Z</time></trkpt><trkpt lat="38.01736084951389" lon="15.1733671464798"><ele>734.6</ele><time>2026-04-26T07:53:03Z</time></trkpt><trkpt lat="38.017322403869606" lon="15.173233399174338"><ele>735.8</ele><time>2026-04-26T07:53:04Z</time></trkpt><trkpt lat="38.017281670090284" lon="15.173114018010338"><ele>737.0</ele><time>2026-04-26T07:53:05Z</time></trkpt><trkpt lat="38.01723809259266" lon="15.173011503019934"><ele>737.0</ele><time>2026-04-26T07:53:06Z</time></trkpt><trkpt lat="38.01718042831811" lon="15.17293012193056"><ele>737.0</ele><time>2026-04-26T07:53:07Z</time></trkpt><trkpt lat="38.01711461035651" lon="15.172861227328072"><ele>737.0</ele><time>2026-04-26T07:53:08Z</time></trkpt><trkpt lat="38.01703425323237" lon="15.17281262582077"><ele>737.0</ele><time>2026-04-26T07:53:09Z</time></trkpt><trkpt lat="38.01695728893198" lon="15.172751711863185"><ele>737.0</ele><time>2026-04-26T07:53:10Z</time></trkpt><trkpt lat="38.01686573565336" lon="15.1726929753409"><ele>737.0</ele><time>2026-04-26T07:53:11Z</time></trkpt><trkpt lat="38.01676458603269" lon="15.172627777536514"><ele>737.0</ele><time>2026-04-26T07:53:12Z</time></trkpt><trkpt lat="38.01665404693212" lon="15.172563494246905"><ele>737.0</ele><time>2026-04-26T07:53:13Z</time></trkpt><trkpt lat="38.01654212691722" lon="15.172496752017604"><ele>737.0</ele><time>2026-04-26T07:53:14Z</time></trkpt><trkpt lat="38.01643814735769" lon="15.172415528018394"><ele>736.0</ele><time>2026-04-26T07:53:15Z</time></trkpt><trkpt lat="38.0163596504388" lon="15.172306733797514"><ele>735.0</ele><time>2026-04-26T07:53:16Z</time></trkpt><trkpt lat="38.01629795891613" lon="15.172179276983522"><ele>734.0</ele><time>2026-04-26T07:53:17Z</time></trkpt><trkpt lat="38.01623512051337" lon="15.172044809678708"><ele>733.0</ele><time>2026-04-26T07:53:18Z</time></trkpt><trkpt lat="38.01616874891267" lon="15.171906630711552"><ele>733.0</ele><time>2026-04-26T07:53:19Z</time></trkpt><trkpt lat="38.016099308578745" lon="15.17176313564558"><ele>733.0</ele><time>2026-04-26T07:53:20Z</time></trkpt><trkpt lat="38.016023507826226" lon="15.171612232605803"><ele>733.0</ele><time>2026-04-26T07:53:21Z</time></trkpt><trkpt lat="38.01593730166947" lon="15.171463559471034"><ele>733.0</ele><time>2026-04-26T07:53:22Z</time></trkpt><trkpt lat="38.01585592088141" lon="15.171295804073873"><ele>727.6666666666667</ele><time>2026-04-26T07:53:23Z</time></trkpt><trkpt lat="38.015778255342184" lon="15.17111853202196"><ele>722.3333333333334</ele><time>2026-04-26T07:53:24Z</time></trkpt><trkpt lat="38.01570386884422" lon="15.170945020362904"><ele>717.0</ele><time>2026-04-26T07:53:25Z</time></trkpt><trkpt lat="38.015639241191096" lon="15.170789140527084"><ele>721.0</ele><time>2026-04-26T07:53:26Z</time></trkpt><trkpt lat="38.01558829729734" lon="15.170652870415323"><ele>725.0</ele><time>2026-04-26T07:53:27Z</time></trkpt><trkpt lat="38.01554894514332" lon="15.170531244549327"><ele>729.0</ele><time>2026-04-26T07:53:28Z</time></trkpt><trkpt lat="38.01551233238559" lon="15.170424012868466"><ele>733.0</ele><time>2026-04-26T07:53:29Z</time></trkpt><trkpt lat="38.015480297013795" lon="15.170334552230662"><ele>737.0</ele><time>2026-04-26T07:53:30Z</time></trkpt><trkpt lat="38.01545258837058" lon="15.170234557427094"><ele>737.0</ele><time>2026-04-26T07:53:32Z</time></trkpt><trkpt lat="38.01542961919945" lon="15.17015054123942"><ele>737.0</ele><time>2026-04-26T07:54:14Z</time></trkpt><trkpt lat="38.01540863854663" lon="15.1700563707473"><ele>737.0</ele><time>2026-04-26T07:54:15Z</time></trkpt><trkpt lat="38.01539078537696" lon="15.16993565313377"><ele>737.0</ele><time>2026-04-26T07:54:16Z</time></trkpt><trkpt lat="38.01537295744653" lon="15.169819180346586"><ele>737.0</ele><time>2026-04-26T07:54:17Z</time></trkpt><trkpt lat="38.01535040292315" lon="15.16969458415925"><ele>737.0</ele><time>2026-04-26T07:54:18Z</time></trkpt><trkpt lat="38.01532479621273" lon="15.169564431585625"><ele>740.4000000000001</ele><time>2026-04-26T07:54:19Z</time></trkpt><trkpt lat="38.01530559916325" lon="15.169440917167623"><ele>743.8000000000001</ele><time>2026-04-26T07:54:20Z</time></trkpt><trkpt lat="38.01529214320611" lon="15.169331010331579"><ele>747.2</ele><time>2026-04-26T07:54:21Z</time></trkpt><trkpt lat="38.01527865036817" lon="15.169214706881936"><ele>750.6</ele><time>2026-04-26T07:54:22Z</time></trkpt><trkpt lat="38.015261527346965" lon="15.169104083815686"><ele>754.0</ele><time>2026-04-26T07:54:23Z</time></trkpt><trkpt lat="38.01523658479338" lon="15.168999587134458"><ele>753.0</ele><time>2026-04-26T07:54:24Z</time></trkpt><trkpt lat="38.015204615767956" lon="15.168903159869911"><ele>752.0</ele><time>2026-04-26T07:54:25Z</time></trkpt><trkpt lat="38.015158385115015" lon="15.168807413052598"><ele>751.0</ele><time>2026-04-26T07:54:26Z</time></trkpt><trkpt lat="38.01509664566184" lon="15.168722150462285"><ele>750.0</ele><time>2026-04-26T07:54:27Z</time></trkpt><trkpt lat="38.015031303620916" lon="15.168630326389668"><ele>749.0</ele><time>2026-04-26T07:54:28Z</time></trkpt><trkpt lat="38.014973980988856" lon="15.168527354232976"><ele>749.0</ele><time>2026-04-26T07:54:29Z</time></trkpt><trkpt lat="38.01493264102018" lon="15.168410321828588"><ele>749.0</ele><time>2026-04-26T07:54:30Z</time></trkpt><trkpt lat="38.014898793868284" lon="15.168299414191345"><ele>749.0</ele><time>2026-04-26T07:54:31Z</time></trkpt><trkpt lat="38.01487488521492" lon="15.16816105772485"><ele>749.0</ele><time>2026-04-26T07:54:32Z</time></trkpt><trkpt lat="38.01481805358449" lon="15.168015729227633"><ele>749.0</ele><time>2026-04-26T07:54:33Z</time></trkpt><trkpt lat="38.014759697692966" lon="15.167871670467726"><ele>757.5</ele><time>2026-04-26T07:54:34Z</time></trkpt><trkpt lat="38.01470346101761" lon="15.167721178130712"><ele>766.0</ele><time>2026-04-26T07:54:35Z</time></trkpt><trkpt lat="38.014638180880894" lon="15.167587447129666"><ele>774.5</ele><time>2026-04-26T07:54:36Z</time></trkpt><trkpt lat="38.01457243427276" lon="15.167476292893863"><ele>783.0</ele><time>2026-04-26T07:54:37Z</time></trkpt><trkpt lat="38.014512514199915" lon="15.167349711164121"><ele>785.75</ele><time>2026-04-26T07:54:38Z</time></trkpt><trkpt lat="38.014427189438884" lon="15.16723380256609"><ele>788.5</ele><time>2026-04-26T07:54:39Z</time></trkpt><trkpt lat="38.01432470739789" lon="15.167125607894503"><ele>791.25</ele><time>2026-04-26T07:54:40Z</time></trkpt><trkpt lat="38.01421988237528" lon="15.167055427856903"><ele>794.0</ele><time>2026-04-26T07:54:41Z</time></trkpt><trkpt lat="38.014095199431274" lon="15.167062913864031"><ele>794.0</ele><time>2026-04-26T07:54:42Z</time></trkpt><trkpt lat="38.01398787294972" lon="15.167026227945017"><ele>794.0</ele><time>2026-04-26T07:54:43Z</time></trkpt><trkpt lat="38.01387712485998" lon="15.167011114856555"><ele>794.0</ele><time>2026-04-26T07:54:44Z</time></trkpt><trkpt lat="38.01376804427236" lon="15.166993912157569"><ele>794.0</ele><time>2026-04-26T07:54:45Z</time></trkpt><trkpt lat="38.01367271196811" lon="15.166970227446615"><ele>794.0</ele><time>2026-04-26T07:54:46Z</time></trkpt><trkpt lat="38.013592448187836" lon="15.166935139706442"><ele>794.0</ele><time>2026-04-26T07:54:47Z</time></trkpt><trkpt lat="38.013532989372784" lon="15.166891401154572"><ele>794.0</ele><time>2026-04-26T07:54:48Z</time></trkpt><trkpt lat="38.01348424071787" lon="15.166813496264721"><ele>794.0</ele><time>2026-04-26T07:54:49Z</time></trkpt><trkpt lat="38.01348130959435" lon="15.166716105655453"><ele>794.0</ele><time>2026-04-26T07:54:50Z</time></trkpt><trkpt lat="38.01352079705774" lon="15.166639118188979"><ele>794.0</ele><time>2026-04-26T07:54:51Z</time></trkpt><trkpt lat="38.01357485833858" lon="15.166580712544384"><ele>794.0</ele><time>2026-04-26T07:54:52Z</time></trkpt><trkpt lat="38.01365085149743" lon="15.166558273024568"><ele>794.0</ele><time>2026-04-26T07:54:53Z</time></trkpt><trkpt lat="38.013740985153675" lon="15.166571457694257"><ele>794.0</ele><time>2026-04-26T07:54:54Z</time></trkpt><trkpt lat="38.01383713467293" lon="15.166586302139915"><ele>794.0</ele><time>2026-04-26T07:54:55Z</time></trkpt><trkpt lat="38.01393632626422" lon="15.166592199303672"><ele>794.0</ele><time>2026-04-26T07:54:56Z</time></trkpt><trkpt lat="38.01403533506564" lon="15.166614753291086"><ele>794.0</ele><time>2026-04-26T07:54:57Z</time></trkpt><trkpt lat="38.01412959175308" lon="15.166667133741036"><ele>794.0</ele><time>2026-04-26T07:54:58Z</time></trkpt><trkpt lat="38.014220333673144" lon="15.166745500710967"><ele>796.8000000000001</ele><time>2026-04-26T07:54:59Z</time></trkpt><trkpt lat="38.014316281193715" lon="15.166818580081472"><ele>799.6</ele><time>2026-04-26T07:55:00Z</time></trkpt><trkpt lat="38.01441422692189" lon="15.166885780163419"><ele>802.4</ele><time>2026-04-26T07:55:01Z</time></trkpt><trkpt lat="38.01450508965038" lon="15.166936203994446"><ele>805.2</ele><time>2026-04-26T07:55:02Z</time></trkpt><trkpt lat="38.014597135934295" lon="15.166952026470984"><ele>808.0</ele><time>2026-04-26T07:55:03Z</time></trkpt><trkpt lat="38.01467061788022" lon="15.166924717794185"><ele>808.0</ele><time>2026-04-26T07:55:04Z</time></trkpt><trkpt lat="38.014731872057766" lon="15.166861472438493"><ele>808.0</ele><time>2026-04-26T07:55:05Z</time></trkpt><trkpt lat="38.01478012751823" lon="15.166750076962385"><ele>808.0</ele><time>2026-04-26T07:55:06Z</time></trkpt><trkpt lat="38.01480524056581" lon="15.16662010115679"><ele>808.0</ele><time>2026-04-26T07:55:07Z</time></trkpt><trkpt lat="38.01481874024213" lon="15.16647422242657"><ele>808.0</ele><time>2026-04-26T07:55:08Z</time></trkpt><trkpt lat="38.01482953134036" lon="15.166317414236758"><ele>815.25</ele><time>2026-04-26T07:55:09Z</time></trkpt><trkpt lat="38.01482130381497" lon="15.166167949345935"><ele>822.5</ele><time>2026-04-26T07:55:10Z</time></trkpt><trkpt lat="38.01479072005328" lon="15.166021012613262"><ele>829.75</ele><time>2026-04-26T07:55:11Z</time></trkpt><trkpt lat="38.0147432505687" lon="15.16587544236943"><ele>837.0</ele><time>2026-04-26T07:55:12Z</time></trkpt><trkpt lat="38.01472429750577" lon="15.165716450985622"><ele>844.0</ele><time>2026-04-26T07:55:13Z</time></trkpt><trkpt lat="38.01470789442187" lon="15.165564168148043"><ele>851.0</ele><time>2026-04-26T07:55:14Z</time></trkpt><trkpt lat="38.014695273354754" lon="15.16541203691203"><ele>858.0</ele><time>2026-04-26T07:55:15Z</time></trkpt><trkpt lat="38.01471611386612" lon="15.165255085469473"><ele>865.0</ele><time>2026-04-26T07:55:16Z</time></trkpt><trkpt lat="38.01475161521668" lon="15.165112563705755"><ele>865.0</ele><time>2026-04-26T07:55:17Z</time></trkpt><trkpt lat="38.014801890425844" lon="15.164973806758066"><ele>865.0</ele><time>2026-04-26T07:55:18Z</time></trkpt><trkpt lat="38.01484907168748" lon="15.164831386155951"><ele>865.0</ele><time>2026-04-26T07:55:19Z</time></trkpt><trkpt lat="38.01489024639481" lon="15.164687254474668"><ele>865.0</ele><time>2026-04-26T07:55:20Z</time></trkpt><trkpt lat="38.01494092362666" lon="15.164539972347418"><ele>869.75</ele><time>2026-04-26T07:55:21Z</time></trkpt><trkpt lat="38.014964991880795" lon="15.164382630661363"><ele>874.5</ele><time>2026-04-26T07:55:22Z</time></trkpt><trkpt lat="38.01497670934197" lon="15.164228729987624"><ele>879.25</ele><time>2026-04-26T07:55:23Z</time></trkpt><trkpt lat="38.01499601723569" lon="15.164079069035935"><ele>884.0</ele><time>2026-04-26T07:55:24Z</time></trkpt><trkpt lat="38.01501941859378" lon="15.163945828476"><ele>884.6</ele><time>2026-04-26T07:55:25Z</time></trkpt><trkpt lat="38.01503053870505" lon="15.16382048529287"><ele>885.2</ele><time>2026-04-26T07:55:26Z</time></trkpt><trkpt lat="38.01500200336301" lon="15.163702043442095"><ele>885.8000000000001</ele><time>2026-04-26T07:55:27Z</time></trkpt><trkpt lat="38.01494977784421" lon="15.16359468038952"><ele>886.4000000000001</ele><time>2026-04-26T07:55:28Z</time></trkpt><trkpt lat="38.01486792732134" lon="15.163506046026676"><ele>887.0</ele><time>2026-04-26T07:55:29Z</time></trkpt><trkpt lat="38.01478010532304" lon="15.163426572099883"><ele>887.0</ele><time>2026-04-26T07:55:30Z</time></trkpt><trkpt lat="38.014718589190345" lon="15.16331357323955"><ele>887.0</ele><time>2026-04-26T07:55:31Z</time></trkpt><trkpt lat="38.014691331506526" lon="15.163178600518556"><ele>887.0</ele><time>2026-04-26T07:55:32Z</time></trkpt><trkpt lat="38.014728531670315" lon="15.163038810531045"><ele>887.0</ele><time>2026-04-26T07:55:33Z</time></trkpt><trkpt lat="38.014761953721596" lon="15.162906414030456"><ele>887.0</ele><time>2026-04-26T07:55:34Z</time></trkpt><trkpt lat="38.014787675699594" lon="15.162759839449768"><ele>888.75</ele><time>2026-04-26T07:55:35Z</time></trkpt><trkpt lat="38.01481978798317" lon="15.16260987411743"><ele>890.5</ele><time>2026-04-26T07:55:36Z</time></trkpt><trkpt lat="38.014852271807406" lon="15.162461095334"><ele>892.25</ele><time>2026-04-26T07:55:37Z</time></trkpt><trkpt lat="38.01487945218389" lon="15.162311645896665"><ele>894.0</ele><time>2026-04-26T07:55:38Z</time></trkpt><trkpt lat="38.01488802066897" lon="15.162158513793106"><ele>896.5</ele><time>2026-04-26T07:55:39Z</time></trkpt><trkpt lat="38.014912590767366" lon="15.162011852761086"><ele>899.0</ele><time>2026-04-26T07:55:40Z</time></trkpt><trkpt lat="38.01496757846017" lon="15.161880536529248"><ele>901.5</ele><time>2026-04-26T07:55:41Z</time></trkpt><trkpt lat="38.015043333492656" lon="15.16176992515374"><ele>904.0</ele><time>2026-04-26T07:55:42Z</time></trkpt><trkpt lat="38.015095729096736" lon="15.16163965100543"><ele>900.4000000000001</ele><time>2026-04-26T07:55:43Z</time></trkpt><trkpt lat="38.01511180319032" lon="15.161489062786593"><ele>896.8000000000001</ele><time>2026-04-26T07:55:44Z</time></trkpt><trkpt lat="38.01511280342867" lon="15.161336305730407"><ele>893.1999999999999</ele><time>2026-04-26T07:55:45Z</time></trkpt><trkpt lat="38.01513382643519" lon="15.161207249444365"><ele>889.5999999999999</ele><time>2026-04-26T07:55:46Z</time></trkpt><trkpt lat="38.0151833681036" lon="15.161110675606388"><ele>886.0</ele><time>2026-04-26T07:55:47Z</time></trkpt><trkpt lat="38.01525180123333" lon="15.161047312119319"><ele>886.0</ele><time>2026-04-26T07:55:48Z</time></trkpt><trkpt lat="38.01533926681811" lon="15.161016872572587"><ele>885.9999999999999</ele><time>2026-04-26T07:55:49Z</time></trkpt><trkpt lat="38.01544174750037" lon="15.161022858562019"><ele>885.9999999999999</ele><time>2026-04-26T07:55:50Z</time></trkpt><trkpt lat="38.015542455858935" lon="15.161053675540195"><ele>886.0</ele><time>2026-04-26T07:55:51Z</time></trkpt><trkpt lat="38.01563813516234" lon="15.161112574817258"><ele>886.0</ele><time>2026-04-26T07:55:52Z</time></trkpt><trkpt lat="38.015729123895085" lon="15.161196032364257"><ele>886.0</ele><time>2026-04-26T07:55:53Z</time></trkpt><trkpt lat="38.01580981231771" lon="15.16125865457975"><ele>885.9999999999999</ele><time>2026-04-26T07:55:54Z</time></trkpt><trkpt lat="38.01590354322637" lon="15.161281944955626"><ele>885.9999999999999</ele><time>2026-04-26T07:55:55Z</time></trkpt><trkpt lat="38.016000269411236" lon="15.161236372221008"><ele>886.0</ele><time>2026-04-26T07:55:56Z</time></trkpt><trkpt lat="38.016084965041635" lon="15.161131947478065"><ele>886.0</ele><time>2026-04-26T07:55:57Z</time></trkpt><trkpt lat="38.016152452214584" lon="15.161012162433169"><ele>883.0</ele><time>2026-04-26T07:55:58Z</time></trkpt><trkpt lat="38.016229351449894" lon="15.160889974005405"><ele>880.0</ele><time>2026-04-26T07:55:59Z</time></trkpt><trkpt lat="38.01631632389802" lon="15.160766109089902"><ele>877.0</ele><time>2026-04-26T07:56:00Z</time></trkpt><trkpt lat="38.016406968835305" lon="15.160640580247843"><ele>874.0</ele><time>2026-04-26T07:56:01Z</time></trkpt><trkpt lat="38.01650912286699" lon="15.160524976866204"><ele>876.25</ele><time>2026-04-26T07:56:02Z</time></trkpt><trkpt lat="38.016632150261856" lon="15.160433638970813"><ele>878.5</ele><time>2026-04-26T07:56:03Z</time></trkpt><trkpt lat="38.01675341022925" lon="15.160331874966118"><ele>880.75</ele><time>2026-04-26T07:56:04Z</time></trkpt><trkpt lat="38.01687531514622" lon="15.160225477826502"><ele>883.0</ele><time>2026-04-26T07:56:05Z</time></trkpt><trkpt lat="38.01699981093651" lon="15.160115622626353"><ele>883.0</ele><time>2026-04-26T07:56:06Z</time></trkpt><trkpt lat="38.0171246437598" lon="15.160004208980723"><ele>883.0</ele><time>2026-04-26T07:56:07Z</time></trkpt><trkpt lat="38.01724033481275" lon="15.159903194737275"><ele>883.0</ele><time>2026-04-26T07:56:08Z</time></trkpt><trkpt lat="38.01735145474931" lon="15.159814813117384"><ele>883.0</ele><time>2026-04-26T07:56:09Z</time></trkpt><trkpt lat="38.017456055469204" lon="15.15973728081174"><ele>883.3333333333333</ele><time>2026-04-26T07:56:10Z</time></trkpt><trkpt lat="38.01755367405352" lon="15.15966705895637"><ele>883.6666666666666</ele><time>2026-04-26T07:56:11Z</time></trkpt><trkpt lat="38.01764007511102" lon="15.159605909030907"><ele>884.0</ele><time>2026-04-26T07:56:12Z</time></trkpt><trkpt lat="38.01771363141414" lon="15.15955486479739"><ele>884.3333333333333</ele><time>2026-04-26T07:56:13Z</time></trkpt><trkpt lat="38.01776800691275" lon="15.159488535476536"><ele>884.6666666666666</ele><time>2026-04-26T07:56:14Z</time></trkpt><trkpt lat="38.01779918672935" lon="15.159400808399976"><ele>885.0</ele><time>2026-04-26T07:56:15Z</time></trkpt><trkpt lat="38.01780025297993" lon="15.159303110908674"><ele>885.0</ele><time>2026-04-26T07:56:16Z</time></trkpt><trkpt lat="38.017775760764906" lon="15.15920186217083"><ele>885.0</ele><time>2026-04-26T07:56:17Z</time></trkpt><trkpt lat="38.01771742039765" lon="15.15909279304626"><ele>885.0</ele><time>2026-04-26T07:56:18Z</time></trkpt><trkpt lat="38.017639033730234" lon="15.158982111972575"><ele>885.0</ele><time>2026-04-26T07:56:19Z</time></trkpt><trkpt lat="38.017579419245244" lon="15.158839422503647"><ele>885.0</ele><time>2026-04-26T07:56:20Z</time></trkpt><trkpt lat="38.01748740210926" lon="15.1587087953897"><ele>886.5</ele><time>2026-04-26T07:56:21Z</time></trkpt><trkpt lat="38.017409294115986" lon="15.158556883094318"><ele>888.0</ele><time>2026-04-26T07:56:22Z</time></trkpt><trkpt lat="38.01731948041449" lon="15.158400201846675"><ele>889.5</ele><time>2026-04-26T07:56:23Z</time></trkpt><trkpt lat="38.01723046411443" lon="15.158242590721526"><ele>891.0</ele><time>2026-04-26T07:56:24Z</time></trkpt><trkpt lat="38.01714806338211" lon="15.158074424580388"><ele>891.0</ele><time>2026-04-26T07:56:25Z</time></trkpt><trkpt lat="38.0170807915594" lon="15.157905375739134"><ele>891.0</ele><time>2026-04-26T07:56:26Z</time></trkpt><trkpt lat="38.01702541723786" lon="15.157725607163313"><ele>891.0</ele><time>2026-04-26T07:56:27Z</time></trkpt><trkpt lat="38.016982819805875" lon="15.15753567995211"><ele>883.6666666666667</ele><time>2026-04-26T07:56:28Z</time></trkpt><trkpt lat="38.016940920905604" lon="15.157343368005607"><ele>876.3333333333334</ele><time>2026-04-26T07:56:29Z</time></trkpt><trkpt lat="38.01689709537875" lon="15.157155037142132"><ele>869.0</ele><time>2026-04-26T07:56:30Z</time></trkpt><trkpt lat="38.01685193539873" lon="15.156975230249522"><ele>869.0</ele><time>2026-04-26T07:56:31Z</time></trkpt><trkpt lat="38.01680816054601" lon="15.156808160367744"><ele>869.0</ele><time>2026-04-26T07:56:32Z</time></trkpt><trkpt lat="38.01676341930105" lon="15.156668261479469"><ele>869.0</ele><time>2026-04-26T07:56:33Z</time></trkpt><trkpt lat="38.01668551797439" lon="15.156550726905705"><ele>869.0</ele><time>2026-04-26T07:56:34Z</time></trkpt><trkpt lat="38.01656640285775" lon="15.156469993133332"><ele>864.5</ele><time>2026-04-26T07:56:35Z</time></trkpt><trkpt lat="38.016430626536255" lon="15.15643739924734"><ele>860.0</ele><time>2026-04-26T07:56:36Z</time></trkpt><trkpt lat="38.01628793918725" lon="15.156429182056511"><ele>855.5</ele><time>2026-04-26T07:56:37Z</time></trkpt><trkpt lat="38.0161458391342" lon="15.156392785917776"><ele>851.0</ele><time>2026-04-26T07:56:38Z</time></trkpt><trkpt lat="38.01601656016559" lon="15.15632701148198"><ele>851.0</ele><time>2026-04-26T07:56:39Z</time></trkpt><trkpt lat="38.01589089418735" lon="15.156271373903905"><ele>851.0</ele><time>2026-04-26T07:56:40Z</time></trkpt><trkpt lat="38.01576129806372" lon="15.15623988361319"><ele>851.0</ele><time>2026-04-26T07:56:41Z</time></trkpt><trkpt lat="38.01562218960362" lon="15.156242810771602"><ele>851.0</ele><time>2026-04-26T07:56:42Z</time></trkpt><trkpt lat="38.01547610243415" lon="15.156281613270535"><ele>854.0</ele><time>2026-04-26T07:56:43Z</time></trkpt><trkpt lat="38.01532290046595" lon="15.156301681549545"><ele>857.0</ele><time>2026-04-26T07:56:44Z</time></trkpt><trkpt lat="38.01518235952872" lon="15.1563538216835"><ele>860.0</ele><time>2026-04-26T07:56:45Z</time></trkpt><trkpt lat="38.015043804278356" lon="15.15637998809981"><ele>863.0</ele><time>2026-04-26T07:56:46Z</time></trkpt><trkpt lat="38.01491937034865" lon="15.156402281978222"><ele>869.4</ele><time>2026-04-26T07:56:47Z</time></trkpt><trkpt lat="38.014813585902225" lon="15.15641061769864"><ele>875.8</ele><time>2026-04-26T07:56:48Z</time></trkpt><trkpt lat="38.014736018714196" lon="15.15638772438883"><ele>882.2</ele><time>2026-04-26T07:56:49Z</time></trkpt><trkpt lat="38.01469555755502" lon="15.156291152542801"><ele>888.6</ele><time>2026-04-26T07:56:50Z</time></trkpt><trkpt lat="38.014662686861854" lon="15.156183935543307"><ele>895.0</ele><time>2026-04-26T07:56:51Z</time></trkpt><trkpt lat="38.01468573168267" lon="15.15605312971854"><ele>895.0</ele><time>2026-04-26T07:56:52Z</time></trkpt><trkpt lat="38.014770487885315" lon="15.1559478755146"><ele>895.0</ele><time>2026-04-26T07:56:53Z</time></trkpt><trkpt lat="38.01486569797967" lon="15.155854106765084"><ele>895.0</ele><time>2026-04-26T07:56:54Z</time></trkpt><trkpt lat="38.014960318599314" lon="15.155744297609465"><ele>895.0</ele><time>2026-04-26T07:56:55Z</time></trkpt><trkpt lat="38.01506320423751" lon="15.155621280477076"><ele>890.0</ele><time>2026-04-26T07:56:56Z</time></trkpt><trkpt lat="38.01517729817062" lon="15.155506145941677"><ele>885.0</ele><time>2026-04-26T07:56:57Z</time></trkpt><trkpt lat="38.015307563296986" lon="15.155419351432112"><ele>880.0</ele><time>2026-04-26T07:56:58Z</time></trkpt><trkpt lat="38.01545051611346" lon="15.155358674158709"><ele>875.0</ele><time>2026-04-26T07:56:59Z</time></trkpt><trkpt lat="38.01559833554486" lon="15.15531173367351"><ele>875.0</ele><time>2026-04-26T07:57:00Z</time></trkpt><trkpt lat="38.01574774594399" lon="15.155247039839582"><ele>875.0</ele><time>2026-04-26T07:57:01Z</time></trkpt><trkpt lat="38.01589759912602" lon="15.155182637362618"><ele>875.0</ele><time>2026-04-26T07:57:02Z</time></trkpt><trkpt lat="38.01604288341214" lon="15.15516397044785"><ele>870.25</ele><time>2026-04-26T07:57:03Z</time></trkpt><trkpt lat="38.0161816200238" lon="15.155141097782813"><ele>865.5</ele><time>2026-04-26T07:57:04Z</time></trkpt><trkpt lat="38.01630643556342" lon="15.155085988564577"><ele>860.75</ele><time>2026-04-26T07:57:05Z</time></trkpt><trkpt lat="38.01642005024474" lon="15.154980585551433"><ele>856.0</ele><time>2026-04-26T07:57:06Z</time></trkpt><trkpt lat="38.016526304156315" lon="15.154823430115432"><ele>856.0</ele><time>2026-04-26T07:57:07Z</time></trkpt><trkpt lat="38.016635625213304" lon="15.15464929270414"><ele>856.0</ele><time>2026-04-26T07:57:08Z</time></trkpt><trkpt lat="38.016757958593836" lon="15.154504724790227"><ele>856.0</ele><time>2026-04-26T07:57:09Z</time></trkpt><trkpt lat="38.01689884656485" lon="15.154398040480844"><ele>850.3333333333333</ele><time>2026-04-26T07:57:10Z</time></trkpt><trkpt lat="38.01705914722292" lon="15.154337659799449"><ele>844.6666666666667</ele><time>2026-04-26T07:57:11Z</time></trkpt><trkpt lat="38.01721936708251" lon="15.154267084688176"><ele>839.0</ele><time>2026-04-26T07:57:12Z</time></trkpt><trkpt lat="38.017376892704384" lon="15.15419569670623"><ele>835.25</ele><time>2026-04-26T07:57:13Z</time></trkpt><trkpt lat="38.017529505637086" lon="15.15412784864631"><ele>831.5</ele><time>2026-04-26T07:57:14Z</time></trkpt><trkpt lat="38.017657733090516" lon="15.154071693957947"><ele>827.75</ele><time>2026-04-26T07:57:15Z</time></trkpt><trkpt lat="38.0177690598296" lon="15.154015960438166"><ele>824.0</ele><time>2026-04-26T07:57:16Z</time></trkpt><trkpt lat="38.01785145120879" lon="15.15395081095402"><ele>824.0</ele><time>2026-04-26T07:57:17Z</time></trkpt><trkpt lat="38.01791388527538" lon="15.153843125504062"><ele>824.0</ele><time>2026-04-26T07:57:18Z</time></trkpt><trkpt lat="38.01794439898007" lon="15.153684026924797"><ele>824.0</ele><time>2026-04-26T07:57:19Z</time></trkpt><trkpt lat="38.01799040534285" lon="15.15352615875851"><ele>824.0</ele><time>2026-04-26T07:57:20Z</time></trkpt><trkpt lat="38.01802598197249" lon="15.153352078163522"><ele>820.25</ele><time>2026-04-26T07:57:21Z</time></trkpt><trkpt lat="38.018061595268" lon="15.153177818068105"><ele>816.5</ele><time>2026-04-26T07:57:22Z</time></trkpt><trkpt lat="38.018097400126" lon="15.15300997751182"><ele>812.75</ele><time>2026-04-26T07:57:23Z</time></trkpt><trkpt lat="38.0181840811301" lon="15.152863634763662"><ele>809.0</ele><time>2026-04-26T07:57:24Z</time></trkpt><trkpt lat="38.01832074269768" lon="15.15276104431986"><ele>809.0</ele><time>2026-04-26T07:57:25Z</time></trkpt><trkpt lat="38.018468992203445" lon="15.152663106077512"><ele>809.0</ele><time>2026-04-26T07:57:26Z</time></trkpt><trkpt lat="38.018639754182566" lon="15.15255570956133"><ele>809.0</ele><time>2026-04-26T07:57:27Z</time></trkpt><trkpt lat="38.018825589963996" lon="15.152435237320919"><ele>807.0</ele><time>2026-04-26T07:57:28Z</time></trkpt><trkpt lat="38.019041361052494" lon="15.1522876799958"><ele>805.0</ele><time>2026-04-26T07:57:29Z</time></trkpt><trkpt lat="38.01925177721553" lon="15.152146693163989"><ele>805.0</ele><time>2026-04-26T07:57:30Z</time></trkpt><trkpt lat="38.01943760632023" lon="15.152020740665831"><ele>805.0</ele><time>2026-04-26T07:57:31Z</time></trkpt><trkpt lat="38.019611355711575" lon="15.151901140932512"><ele>805.0</ele><time>2026-04-26T07:57:32Z</time></trkpt><trkpt lat="38.01976727380391" lon="15.151798956060171"><ele>805.0</ele><time>2026-04-26T07:57:33Z</time></trkpt><trkpt lat="38.019907190763625" lon="15.151716635448198"><ele>805.0</ele><time>2026-04-26T07:57:34Z</time></trkpt><trkpt lat="38.020035935910975" lon="15.15166291131697"><ele>805.0</ele><time>2026-04-26T07:57:35Z</time></trkpt><trkpt lat="38.02015864419701" lon="15.151659110081676"><ele>805.0</ele><time>2026-04-26T07:57:36Z</time></trkpt><trkpt lat="38.02027119259301" lon="15.15171261212965"><ele>806.5</ele><time>2026-04-26T07:57:37Z</time></trkpt><trkpt lat="38.020371193618374" lon="15.151801031504732"><ele>808.0</ele><time>2026-04-26T07:57:38Z</time></trkpt><trkpt lat="38.020461135146554" lon="15.15191623577321"><ele>809.5</ele><time>2026-04-26T07:57:39Z</time></trkpt><trkpt lat="38.02056151121669" lon="15.15200356243804"><ele>811.0</ele><time>2026-04-26T07:57:40Z</time></trkpt><trkpt lat="38.02066488585785" lon="15.152036100506004"><ele>811.0</ele><time>2026-04-26T07:57:41Z</time></trkpt><trkpt lat="38.02076268030447" lon="15.152025579786494"><ele>811.0</ele><time>2026-04-26T07:57:42Z</time></trkpt><trkpt lat="38.0208563652562" lon="15.15197161967631"><ele>811.0</ele><time>2026-04-26T07:57:43Z</time></trkpt><trkpt lat="38.02096131665728" lon="15.15189373407767"><ele>811.0</ele><time>2026-04-26T07:57:44Z</time></trkpt><trkpt lat="38.021088702772985" lon="15.151800019396541"><ele>812.3333333333333</ele><time>2026-04-26T07:57:45Z</time></trkpt><trkpt lat="38.021228878846074" lon="15.15169755609446"><ele>813.6666666666667</ele><time>2026-04-26T07:57:46Z</time></trkpt><trkpt lat="38.0213729584455" lon="15.151581165382641"><ele>815.0</ele><time>2026-04-26T07:57:47Z</time></trkpt><trkpt lat="38.0215061745274" lon="15.151436423460764"><ele>815.3333333333334</ele><time>2026-04-26T07:57:48Z</time></trkpt><trkpt lat="38.02162827635709" lon="15.151267787912923"><ele>815.6666666666667</ele><time>2026-04-26T07:57:49Z</time></trkpt><trkpt lat="38.021750563153425" lon="15.151081089755898"><ele>816.0</ele><time>2026-04-26T07:57:50Z</time></trkpt><trkpt lat="38.021886591859705" lon="15.150918818289405"><ele>816.0</ele><time>2026-04-26T07:57:51Z</time></trkpt><trkpt lat="38.02200306455022" lon="15.150760970741256"><ele>816.0</ele><time>2026-04-26T07:57:52Z</time></trkpt><trkpt lat="38.02211374978042" lon="15.150614482336044"><ele>816.0</ele><time>2026-04-26T07:57:53Z</time></trkpt><trkpt lat="38.02220094372173" lon="15.150480885482255"><ele>816.25</ele><time>2026-04-26T07:57:54Z</time></trkpt><trkpt lat="38.02230457616509" lon="15.150408570735388"><ele>816.5</ele><time>2026-04-26T07:57:55Z</time></trkpt><trkpt lat="38.022425250820966" lon="15.150416752035598"><ele>816.75</ele><time>2026-04-26T07:57:56Z</time></trkpt><trkpt lat="38.02255294711205" lon="15.150406457529579"><ele>817.0</ele><time>2026-04-26T07:57:57Z</time></trkpt><trkpt lat="38.0226845608166" lon="15.150429222312223"><ele>817.0</ele><time>2026-04-26T07:57:58Z</time></trkpt><trkpt lat="38.02282203228455" lon="15.150429791666859"><ele>817.0</ele><time>2026-04-26T07:57:59Z</time></trkpt><trkpt lat="38.022968521044724" lon="15.150440053715672"><ele>817.0</ele><time>2026-04-26T07:58:00Z</time></trkpt><trkpt lat="38.02312683513819" lon="15.15045148581687"><ele>817.0</ele><time>2026-04-26T07:58:01Z</time></trkpt><trkpt lat="38.02329129642038" lon="15.15044575103965"><ele>814.6666666666666</ele><time>2026-04-26T07:58:02Z</time></trkpt><trkpt lat="38.023457303221136" lon="15.150431189023143"><ele>812.3333333333333</ele><time>2026-04-26T07:58:03Z</time></trkpt><trkpt lat="38.02361123896885" lon="15.150418459647584"><ele>810.0</ele><time>2026-04-26T07:58:04Z</time></trkpt><trkpt lat="38.02374947554503" lon="15.150412062476788"><ele>810.0</ele><time>2026-04-26T07:58:05Z</time></trkpt><trkpt lat="38.02387066285031" lon="15.150405919159324"><ele>810.0</ele><time>2026-04-26T07:58:06Z</time></trkpt><trkpt lat="38.02397305870473" lon="15.15039296980999"><ele>810.0</ele><time>2026-04-26T07:58:07Z</time></trkpt><trkpt lat="38.02406720155337" lon="15.150342810845062"><ele>810.0</ele><time>2026-04-26T07:58:08Z</time></trkpt><trkpt lat="38.02415150175961" lon="15.150245401124318"><ele>810.0</ele><time>2026-04-26T07:58:09Z</time></trkpt><trkpt lat="38.02422585626103" lon="15.150117988729855"><ele>809.75</ele><time>2026-04-26T07:58:10Z</time></trkpt><trkpt lat="38.024258326490084" lon="15.149951295647334"><ele>809.5</ele><time>2026-04-26T07:58:11Z</time></trkpt><trkpt lat="38.02430687665856" lon="15.149795822723483"><ele>809.25</ele><time>2026-04-26T07:58:12Z</time></trkpt><trkpt lat="38.02438756819703" lon="15.149677321370053"><ele>809.0</ele><time>2026-04-26T07:58:13Z</time></trkpt><trkpt lat="38.02449273005043" lon="15.149569899548862"><ele>809.0</ele><time>2026-04-26T07:58:14Z</time></trkpt><trkpt lat="38.02459461053446" lon="15.149448300077124"><ele>809.0</ele><time>2026-04-26T07:58:15Z</time></trkpt><trkpt lat="38.024705936487" lon="15.149338402582515"><ele>809.0</ele><time>2026-04-26T07:58:16Z</time></trkpt><trkpt lat="38.0248159708931" lon="15.149227843946033"><ele>809.0</ele><time>2026-04-26T07:58:17Z</time></trkpt><trkpt lat="38.024922325115256" lon="15.149123217684448"><ele>804.8000000000001</ele><time>2026-04-26T07:58:18Z</time></trkpt><trkpt lat="38.02502553392148" lon="15.149025881602249"><ele>800.6</ele><time>2026-04-26T07:58:19Z</time></trkpt><trkpt lat="38.025122510478624" lon="15.148929830546553"><ele>796.4</ele><time>2026-04-26T07:58:20Z</time></trkpt><trkpt lat="38.02520295968659" lon="15.148839070256638"><ele>792.2</ele><time>2026-04-26T07:58:21Z</time></trkpt><trkpt lat="38.02525891183844" lon="15.148751540474596"><ele>788.0</ele><time>2026-04-26T07:58:22Z</time></trkpt><trkpt lat="38.025275167075854" lon="15.148639385297072"><ele>788.0</ele><time>2026-04-26T07:58:23Z</time></trkpt><trkpt lat="38.02525670994244" lon="15.148520127109808"><ele>788.0</ele><time>2026-04-26T07:58:24Z</time></trkpt><trkpt lat="38.02523836516014" lon="15.148401835104355"><ele>788.0</ele><time>2026-04-26T07:58:25Z</time></trkpt><trkpt lat="38.02512782206109" lon="15.148323492572386"><ele>788.0</ele><time>2026-04-26T07:58:26Z</time></trkpt><trkpt lat="38.02504441288866" lon="15.14824145546996"><ele>788.0</ele><time>2026-04-26T07:58:27Z</time></trkpt><trkpt lat="38.024991977246" lon="15.148124437297652"><ele>792.5</ele><time>2026-04-26T07:58:28Z</time></trkpt><trkpt lat="38.02494212491624" lon="15.147998229154851"><ele>797.0</ele><time>2026-04-26T07:58:29Z</time></trkpt><trkpt lat="38.02491052692027" lon="15.147863430744746"><ele>801.5</ele><time>2026-04-26T07:58:30Z</time></trkpt><trkpt lat="38.02488299429726" lon="15.147725450293617"><ele>806.0</ele><time>2026-04-26T07:58:31Z</time></trkpt><trkpt lat="38.024849127818" lon="15.147585241795475"><ele>806.0</ele><time>2026-04-26T07:58:32Z</time></trkpt><trkpt lat="38.02485448166575" lon="15.147438967421149"><ele>806.0</ele><time>2026-04-26T07:58:33Z</time></trkpt><trkpt lat="38.0248847692219" lon="15.147295527002266"><ele>806.0</ele><time>2026-04-26T07:58:34Z</time></trkpt><trkpt lat="38.02493832391407" lon="15.147165207936782"><ele>806.0</ele><time>2026-04-26T07:58:35Z</time></trkpt><trkpt lat="38.02499918089302" lon="15.147042654918916"><ele>799.75</ele><time>2026-04-26T07:58:36Z</time></trkpt><trkpt lat="38.02505924218751" lon="15.146918337207014"><ele>793.5</ele><time>2026-04-26T07:58:37Z</time></trkpt><trkpt lat="38.025107632360736" lon="15.146786152961615"><ele>787.25</ele><time>2026-04-26T07:58:38Z</time></trkpt><trkpt lat="38.02514817397977" lon="15.146653059512449"><ele>781.0</ele><time>2026-04-26T07:58:39Z</time></trkpt><trkpt lat="38.02518028504084" lon="15.146520744935401"><ele>778.1999999999999</ele><time>2026-04-26T07:58:40Z</time></trkpt><trkpt lat="38.02520542971938" lon="15.146391064940023"><ele>775.4</ele><time>2026-04-26T07:58:41Z</time></trkpt><trkpt lat="38.0252160328117" lon="15.146256799954765"><ele>772.6</ele><time>2026-04-26T07:58:42Z</time></trkpt><trkpt lat="38.025217076731494" lon="15.146122725792864"><ele>769.8</ele><time>2026-04-26T07:58:43Z</time></trkpt><trkpt lat="38.02521286019889" lon="15.145988109530922"><ele>767.0</ele><time>2026-04-26T07:58:44Z</time></trkpt><trkpt lat="38.02520618816675" lon="15.145852995196122"><ele>767.0</ele><time>2026-04-26T07:58:45Z</time></trkpt><trkpt lat="38.02519299130648" lon="15.145717032015467"><ele>767.0</ele><time>2026-04-26T07:58:46Z</time></trkpt><trkpt lat="38.02520019370524" lon="15.14557226020713"><ele>767.0</ele><time>2026-04-26T07:58:47Z</time></trkpt><trkpt lat="38.02519512836759" lon="15.145428385691119"><ele>767.0</ele><time>2026-04-26T07:58:48Z</time></trkpt><trkpt lat="38.025187238675166" lon="15.145290439530413"><ele>767.0</ele><time>2026-04-26T07:58:49Z</time></trkpt><trkpt lat="38.02520147545262" lon="15.145149317353365"><ele>765.6</ele><time>2026-04-26T07:58:50Z</time></trkpt><trkpt lat="38.02520407688788" lon="15.145009909344077"><ele>764.2</ele><time>2026-04-26T07:58:51Z</time></trkpt><trkpt lat="38.02520518386651" lon="15.144874149799168"><ele>762.8</ele><time>2026-04-26T07:58:52Z</time></trkpt><trkpt lat="38.02522586915767" lon="15.144744187013321"><ele>761.4</ele><time>2026-04-26T07:58:53Z</time></trkpt><trkpt lat="38.02526672602755" lon="15.14462378953266"><ele>760.0</ele><time>2026-04-26T07:58:54Z</time></trkpt><trkpt lat="38.025317283395076" lon="15.144511175593774"><ele>759.4</ele><time>2026-04-26T07:58:55Z</time></trkpt><trkpt lat="38.02537063361301" lon="15.144399894218017"><ele>758.8</ele><time>2026-04-26T07:58:56Z</time></trkpt><trkpt lat="38.02541705454533" lon="15.144282744780027"><ele>758.2</ele><time>2026-04-26T07:58:57Z</time></trkpt><trkpt lat="38.02546336580643" lon="15.14416574239382"><ele>757.6</ele><time>2026-04-26T07:58:58Z</time></trkpt><trkpt lat="38.02551491213539" lon="15.144053988993518"><ele>757.0</ele><time>2026-04-26T07:58:59Z</time></trkpt><trkpt lat="38.02556801252775" lon="15.143939905439986"><ele>757.0</ele><time>2026-04-26T07:59:00Z</time></trkpt><trkpt lat="38.02561547450508" lon="15.14382188923739"><ele>757.0</ele><time>2026-04-26T07:59:01Z</time></trkpt><trkpt lat="38.0256645718881" lon="15.143706425947666"><ele>757.0</ele><time>2026-04-26T07:59:02Z</time></trkpt><trkpt lat="38.025711355430595" lon="15.143592840408314"><ele>757.0</ele><time>2026-04-26T07:59:03Z</time></trkpt><trkpt lat="38.025745355439895" lon="15.143471969123258"><ele>757.0</ele><time>2026-04-26T07:59:04Z</time></trkpt><trkpt lat="38.02576484885668" lon="15.14334556588118"><ele>757.0</ele><time>2026-04-26T07:59:05Z</time></trkpt><trkpt lat="38.02576460272436" lon="15.143214299066576"><ele>757.0</ele><time>2026-04-26T07:59:06Z</time></trkpt><trkpt lat="38.02575472026439" lon="15.143080138749465"><ele>757.0</ele><time>2026-04-26T07:59:07Z</time></trkpt><trkpt lat="38.02575488737573" lon="15.14294796130424"><ele>757.0</ele><time>2026-04-26T07:59:08Z</time></trkpt><trkpt lat="38.02576032249825" lon="15.142813568936015"><ele>757.0</ele><time>2026-04-26T07:59:09Z</time></trkpt><trkpt lat="38.02576417283961" lon="15.142678632827634"><ele>758.2</ele><time>2026-04-26T07:59:10Z</time></trkpt><trkpt lat="38.02576318215234" lon="15.142540054516871"><ele>759.4000000000001</ele><time>2026-04-26T07:59:11Z</time></trkpt><trkpt lat="38.02576552675622" lon="15.142399484521121"><ele>760.5999999999999</ele><time>2026-04-26T07:59:12Z</time></trkpt><trkpt lat="38.02576916267714" lon="15.142257426536748"><ele>761.8</ele><time>2026-04-26T07:59:13Z</time></trkpt><trkpt lat="38.02577424068619" lon="15.14211243142374"><ele>763.0</ele><time>2026-04-26T07:59:14Z</time></trkpt><trkpt lat="38.02577018936346" lon="15.141967254834286"><ele>763.25</ele><time>2026-04-26T07:59:15Z</time></trkpt><trkpt lat="38.0257685829915" lon="15.141824553969732"><ele>763.5</ele><time>2026-04-26T07:59:16Z</time></trkpt><trkpt lat="38.02576726904392" lon="15.141680419342803"><ele>763.75</ele><time>2026-04-26T07:59:17Z</time></trkpt><trkpt lat="38.02576700376227" lon="15.141532902725915"><ele>764.0</ele><time>2026-04-26T07:59:18Z</time></trkpt><trkpt lat="38.02578272280697" lon="15.141392643834816"><ele>764.25</ele><time>2026-04-26T07:59:19Z</time></trkpt><trkpt lat="38.02580557120363" lon="15.141250130696816"><ele>764.5</ele><time>2026-04-26T07:59:20Z</time></trkpt><trkpt lat="38.02583615258753" lon="15.141110491453059"><ele>764.75</ele><time>2026-04-26T07:59:21Z</time></trkpt><trkpt lat="38.0258700190749" lon="15.140967754428617"><ele>765.0</ele><time>2026-04-26T07:59:22Z</time></trkpt><trkpt lat="38.025900323365576" lon="15.140829208315886"><ele>765.5</ele><time>2026-04-26T07:59:23Z</time></trkpt><trkpt lat="38.025930899739315" lon="15.140688721225327"><ele>766.0</ele><time>2026-04-26T07:59:24Z</time></trkpt><trkpt lat="38.025967771391755" lon="15.140551698475617"><ele>766.5</ele><time>2026-04-26T07:59:25Z</time></trkpt><trkpt lat="38.02601994727319" lon="15.140423644205908"><ele>767.0</ele><time>2026-04-26T07:59:26Z</time></trkpt><trkpt lat="38.026089254222455" lon="15.140309849007524"><ele>767.0</ele><time>2026-04-26T07:59:27Z</time></trkpt><trkpt lat="38.026161949453865" lon="15.14020151212598"><ele>767.0</ele><time>2026-04-26T07:59:28Z</time></trkpt><trkpt lat="38.02623549679677" lon="15.140091743741044"><ele>767.0</ele><time>2026-04-26T07:59:29Z</time></trkpt><trkpt lat="38.02630236835668" lon="15.139975905451797"><ele>767.0</ele><time>2026-04-26T07:59:30Z</time></trkpt><trkpt lat="38.02637111860644" lon="15.13986283370184"><ele>766.0</ele><time>2026-04-26T07:59:31Z</time></trkpt><trkpt lat="38.02644028726843" lon="15.139750187707493"><ele>765.0</ele><time>2026-04-26T07:59:32Z</time></trkpt><trkpt lat="38.02651086811731" lon="15.139639672846066"><ele>764.0</ele><time>2026-04-26T07:59:33Z</time></trkpt><trkpt lat="38.02658423995907" lon="15.139531923771187"><ele>763.0</ele><time>2026-04-26T07:59:34Z</time></trkpt><trkpt lat="38.026660576602914" lon="15.139429391404956"><ele>762.0</ele><time>2026-04-26T07:59:35Z</time></trkpt><trkpt lat="38.026745904480016" lon="15.139333544468423"><ele>762.0</ele><time>2026-04-26T07:59:36Z</time></trkpt><trkpt lat="38.0268362306665" lon="15.139240167943113"><ele>762.0</ele><time>2026-04-26T07:59:37Z</time></trkpt><trkpt lat="38.026927301357226" lon="15.139142903988645"><ele>762.0</ele><time>2026-04-26T07:59:38Z</time></trkpt><trkpt lat="38.027014849909534" lon="15.139040342452986"><ele>762.0</ele><time>2026-04-26T07:59:39Z</time></trkpt><trkpt lat="38.02710379962534" lon="15.138941661126324"><ele>762.5</ele><time>2026-04-26T07:59:40Z</time></trkpt><trkpt lat="38.02720062305301" lon="15.138857666566805"><ele>763.0</ele><time>2026-04-26T07:59:41Z</time></trkpt><trkpt lat="38.02730585055278" lon="15.138794875137718"><ele>763.5</ele><time>2026-04-26T07:59:42Z</time></trkpt><trkpt lat="38.027416864989526" lon="15.138757114991055"><ele>764.0</ele><time>2026-04-26T07:59:43Z</time></trkpt><trkpt lat="38.02752910244181" lon="15.138731243734268"><ele>762.0</ele><time>2026-04-26T07:59:44Z</time></trkpt><trkpt lat="38.027640201743935" lon="15.138707325892007"><ele>760.0</ele><time>2026-04-26T07:59:45Z</time></trkpt><trkpt lat="38.02775008649019" lon="15.138679252783323"><ele>758.0</ele><time>2026-04-26T07:59:46Z</time></trkpt><trkpt lat="38.027860722504265" lon="15.138653042688112"><ele>756.0</ele><time>2026-04-26T07:59:47Z</time></trkpt><trkpt lat="38.02797224757327" lon="15.138625014107724"><ele>756.0</ele><time>2026-04-26T07:59:48Z</time></trkpt><trkpt lat="38.02808414761808" lon="15.138598759722923"><ele>756.0</ele><time>2026-04-26T07:59:49Z</time></trkpt><trkpt lat="38.02819733514961" lon="15.138575925553248"><ele>756.0</ele><time>2026-04-26T07:59:50Z</time></trkpt><trkpt lat="38.028311793064404" lon="15.138549063053718"><ele>756.0</ele><time>2026-04-26T07:59:51Z</time></trkpt><trkpt lat="38.02841875949483" lon="15.13850557807743"><ele>756.5999999999999</ele><time>2026-04-26T07:59:52Z</time></trkpt><trkpt lat="38.02851780794228" lon="15.138450059410248"><ele>757.2</ele><time>2026-04-26T07:59:53Z</time></trkpt><trkpt lat="38.028605855239086" lon="15.138372479945364"><ele>757.8</ele><time>2026-04-26T07:59:54Z</time></trkpt><trkpt lat="38.02867978202771" lon="15.138270083561094"><ele>758.4000000000001</ele><time>2026-04-26T07:59:55Z</time></trkpt><trkpt lat="38.02872943441216" lon="15.13814895964882"><ele>759.0</ele><time>2026-04-26T07:59:56Z</time></trkpt><trkpt lat="38.0287470642852" lon="15.13801703508908"><ele>759.0</ele><time>2026-04-26T07:59:57Z</time></trkpt><trkpt lat="38.02873641605608" lon="15.137886345197042"><ele>759.0</ele><time>2026-04-26T07:59:58Z</time></trkpt><trkpt lat="38.02875711999202" lon="15.137756230202932"><ele>759.0</ele><time>2026-04-26T07:59:59Z</time></trkpt><trkpt lat="38.028754623460465" lon="15.137630364095214"><ele>759.0</ele><time>2026-04-26T08:00:00Z</time></trkpt><trkpt lat="38.02881836771643" lon="15.1375284486278"><ele>759.0</ele><time>2026-04-26T08:00:01Z</time></trkpt><trkpt lat="38.028900882133" lon="15.137458510670784"><ele>759.0</ele><time>2026-04-26T08:00:02Z</time></trkpt><trkpt lat="38.0289795394485" lon="15.137391102513261"><ele>759.0</ele><time>2026-04-26T08:00:03Z</time></trkpt><trkpt lat="38.029047821175155" lon="15.13731671766659"><ele>759.0</ele><time>2026-04-26T08:00:04Z</time></trkpt><trkpt lat="38.02910686405044" lon="15.137230532105546"><ele>759.0</ele><time>2026-04-26T08:00:05Z</time></trkpt><trkpt lat="38.02916516287727" lon="15.137147742363304"><ele>759.0</ele><time>2026-04-26T08:00:06Z</time></trkpt><trkpt lat="38.029226506131074" lon="15.137071143834014"><ele>759.0</ele><time>2026-04-26T08:00:07Z</time></trkpt><trkpt lat="38.02928967766108" lon="15.136996722190656"><ele>759.0</ele><time>2026-04-26T08:00:08Z</time></trkpt><trkpt lat="38.02935148723878" lon="15.136924338286871"><ele>759.0</ele><time>2026-04-26T08:00:09Z</time></trkpt><trkpt lat="38.029424085263" lon="15.136872858139608"><ele>759.0</ele><time>2026-04-26T08:00:10Z</time></trkpt><trkpt lat="38.02950479988736" lon="15.13687132928182"><ele>759.0</ele><time>2026-04-26T08:00:11Z</time></trkpt><trkpt lat="38.02958261676481" lon="15.136907975589153"><ele>759.0</ele><time>2026-04-26T08:00:12Z</time></trkpt><trkpt lat="38.029657665147646" lon="15.136939439916445"><ele>759.0</ele><time>2026-04-26T08:00:13Z</time></trkpt><trkpt lat="38.029737390116864" lon="15.13695135782765"><ele>759.0</ele><time>2026-04-26T08:00:14Z</time></trkpt><trkpt lat="38.02981855770192" lon="15.136946300549754"><ele>759.0</ele><time>2026-04-26T08:00:15Z</time></trkpt><trkpt lat="38.029897623774126" lon="15.136919914982036"><ele>759.0</ele><time>2026-04-26T08:00:16Z</time></trkpt><trkpt lat="38.0299755242952" lon="15.136890593647248"><ele>759.0</ele><time>2026-04-26T08:00:17Z</time></trkpt><trkpt lat="38.03005421748315" lon="15.136864319794384"><ele>759.0</ele><time>2026-04-26T08:00:18Z</time></trkpt><trkpt lat="38.030134673442255" lon="15.136840818869343"><ele>759.0</ele><time>2026-04-26T08:00:19Z</time></trkpt><trkpt lat="38.03021354066632" lon="15.13681054796776"><ele>755.2</ele><time>2026-04-26T08:00:20Z</time></trkpt><trkpt lat="38.03029135911471" lon="15.136779109813213"><ele>751.4000000000001</ele><time>2026-04-26T08:00:21Z</time></trkpt><trkpt lat="38.030375053936275" lon="15.136758910189997"><ele>747.6</ele><time>2026-04-26T08:00:22Z</time></trkpt><trkpt lat="38.030474032617136" lon="15.136748652453031"><ele>743.8</ele><time>2026-04-26T08:00:23Z</time></trkpt><trkpt lat="38.03058817108793" lon="15.136722623987039"><ele>740.0</ele><time>2026-04-26T08:00:24Z</time></trkpt><trkpt lat="38.03071535405356" lon="15.136695019043502"><ele>742.5</ele><time>2026-04-26T08:00:25Z</time></trkpt><trkpt lat="38.03085016030226" lon="15.136661006939779"><ele>745.0</ele><time>2026-04-26T08:00:26Z</time></trkpt><trkpt lat="38.03099452319378" lon="15.13662272659505"><ele>747.5</ele><time>2026-04-26T08:00:27Z</time></trkpt><trkpt lat="38.03114002251664" lon="15.136582993069743"><ele>750.0</ele><time>2026-04-26T08:00:28Z</time></trkpt><trkpt lat="38.031277464391735" lon="15.136498657453439"><ele>750.0</ele><time>2026-04-26T08:00:29Z</time></trkpt><trkpt lat="38.03140710578209" lon="15.136372271406819"><ele>750.0</ele><time>2026-04-26T08:00:30Z</time></trkpt><trkpt lat="38.03153054864307" lon="15.136250935428265"><ele>750.0</ele><time>2026-04-26T08:00:31Z</time></trkpt><trkpt lat="38.03165130208995" lon="15.136145096701515"><ele>747.5</ele><time>2026-04-26T08:00:32Z</time></trkpt><trkpt lat="38.03175942705787" lon="15.136035383794896"><ele>745.0</ele><time>2026-04-26T08:00:33Z</time></trkpt><trkpt lat="38.03184980429511" lon="15.135891013215064"><ele>742.5</ele><time>2026-04-26T08:00:34Z</time></trkpt><trkpt lat="38.03194653693125" lon="15.13577367397671"><ele>740.0</ele><time>2026-04-26T08:00:35Z</time></trkpt><trkpt lat="38.03202849331826" lon="15.135684936813277"><ele>740.0</ele><time>2026-04-26T08:00:36Z</time></trkpt><trkpt lat="38.03214284609419" lon="15.1356685508796"><ele>740.0</ele><time>2026-04-26T08:00:37Z</time></trkpt><trkpt lat="38.03225911575078" lon="15.1357123843402"><ele>740.0</ele><time>2026-04-26T08:00:38Z</time></trkpt><trkpt lat="38.032376501243284" lon="15.135791889013626"><ele>740.0</ele><time>2026-04-26T08:00:39Z</time></trkpt><trkpt lat="38.03249362238583" lon="15.135840539718671"><ele>733.25</ele><time>2026-04-26T08:00:40Z</time></trkpt><trkpt lat="38.03261237717166" lon="15.135835412101367"><ele>726.5</ele><time>2026-04-26T08:00:41Z</time></trkpt><trkpt lat="38.0327220929475" lon="15.135784477067636"><ele>719.75</ele><time>2026-04-26T08:00:42Z</time></trkpt><trkpt lat="38.03280918920503" lon="15.135692595786507"><ele>713.0</ele><time>2026-04-26T08:00:43Z</time></trkpt><trkpt lat="38.03287813778165" lon="15.135592970173137"><ele>713.0</ele><time>2026-04-26T08:00:44Z</time></trkpt><trkpt lat="38.03291418029169" lon="15.135471919705596"><ele>713.0</ele><time>2026-04-26T08:00:45Z</time></trkpt><trkpt lat="38.03295330440942" lon="15.135380242433987"><ele>713.0</ele><time>2026-04-26T08:00:46Z</time></trkpt><trkpt lat="38.032920426794774" lon="15.135228627220348"><ele>713.0</ele><time>2026-04-26T08:00:47Z</time></trkpt><trkpt lat="38.032882920460395" lon="15.135147390631218"><ele>713.0</ele><time>2026-04-26T08:00:48Z</time></trkpt><trkpt lat="38.03282651075405" lon="15.135001500513756"><ele>713.0</ele><time>2026-04-26T08:00:50Z</time></trkpt><trkpt lat="38.032776193479584" lon="15.134932892715938"><ele>713.0</ele><time>2026-04-26T08:00:51Z</time></trkpt><trkpt lat="38.03272129710292" lon="15.134867612321797"><ele>713.0</ele><time>2026-04-26T08:00:52Z</time></trkpt><trkpt lat="38.032646379204785" lon="15.13483104297193"><ele>713.0</ele><time>2026-04-26T08:00:53Z</time></trkpt><trkpt lat="38.03259293854026" lon="15.134761908970424"><ele>713.0</ele><time>2026-04-26T08:00:54Z</time></trkpt><trkpt lat="38.032535615737295" lon="15.134688945311643"><ele>713.0</ele><time>2026-04-26T08:00:55Z</time></trkpt><trkpt lat="38.03248252762233" lon="15.134593805193298"><ele>710.25</ele><time>2026-04-26T08:00:56Z</time></trkpt><trkpt lat="38.0324685207474" lon="15.134462691357445"><ele>707.5</ele><time>2026-04-26T08:00:57Z</time></trkpt><trkpt lat="38.03250070768338" lon="15.134327481303949"><ele>704.75</ele><time>2026-04-26T08:00:58Z</time></trkpt><trkpt lat="38.032574905068735" lon="15.134194238047277"><ele>702.0</ele><time>2026-04-26T08:00:59Z</time></trkpt><trkpt lat="38.03262751757729" lon="15.134062718481832"><ele>701.25</ele><time>2026-04-26T08:01:00Z</time></trkpt><trkpt lat="38.032643464991786" lon="15.133924094160355"><ele>700.5</ele><time>2026-04-26T08:01:01Z</time></trkpt><trkpt lat="38.03262158987155" lon="15.1337708706614"><ele>699.75</ele><time>2026-04-26T08:01:02Z</time></trkpt><trkpt lat="38.032587270280025" lon="15.133607536066815"><ele>699.0</ele><time>2026-04-26T08:01:03Z</time></trkpt><trkpt lat="38.032556275275944" lon="15.133431958524135"><ele>699.0</ele><time>2026-04-26T08:01:04Z</time></trkpt><trkpt lat="38.03255245717948" lon="15.133244752339001"><ele>699.0</ele><time>2026-04-26T08:01:05Z</time></trkpt><trkpt lat="38.03251803676372" lon="15.13306133357192"><ele>699.0</ele><time>2026-04-26T08:01:06Z</time></trkpt><trkpt lat="38.03249927806036" lon="15.132871444819806"><ele>699.0</ele><time>2026-04-26T08:01:07Z</time></trkpt><trkpt lat="38.03247335728016" lon="15.132677780136838"><ele>702.6666666666666</ele><time>2026-04-26T08:01:08Z</time></trkpt><trkpt lat="38.03242952241711" lon="15.132479060577287"><ele>706.3333333333333</ele><time>2026-04-26T08:01:09Z</time></trkpt><trkpt lat="38.03236642978861" lon="15.132281265691272"><ele>710.0</ele><time>2026-04-26T08:01:10Z</time></trkpt><trkpt lat="38.0323180129807" lon="15.132069966249746"><ele>702.0</ele><time>2026-04-26T08:01:11Z</time></trkpt><trkpt lat="38.03225157395811" lon="15.131886526681773"><ele>694.0</ele><time>2026-04-26T08:01:12Z</time></trkpt><trkpt lat="38.032206917934005" lon="15.131705376044877"><ele>686.0</ele><time>2026-04-26T08:01:13Z</time></trkpt><trkpt lat="38.03215356412894" lon="15.13153836003447"><ele>677.5</ele><time>2026-04-26T08:01:14Z</time></trkpt><trkpt lat="38.03208123372748" lon="15.131396793549072"><ele>669.0</ele><time>2026-04-26T08:01:15Z</time></trkpt><trkpt lat="38.03199052898171" lon="15.131280693933705"><ele>660.5</ele><time>2026-04-26T08:01:16Z</time></trkpt><trkpt lat="38.031903973468346" lon="15.131195118170938"><ele>652.0</ele><time>2026-04-26T08:01:17Z</time></trkpt><trkpt lat="38.031807860927366" lon="15.131163398687423"><ele>652.0</ele><time>2026-04-26T08:01:18Z</time></trkpt><trkpt lat="38.031702558918326" lon="15.131186415206333"><ele>652.0</ele><time>2026-04-26T08:01:19Z</time></trkpt><trkpt lat="38.031588662429066" lon="15.13123821057299"><ele>652.0</ele><time>2026-04-26T08:01:20Z</time></trkpt><trkpt lat="38.03146141430125" lon="15.131289436073896"><ele>652.0</ele><time>2026-04-26T08:01:21Z</time></trkpt><trkpt lat="38.03132652707774" lon="15.131354021388278"><ele>655.25</ele><time>2026-04-26T08:01:22Z</time></trkpt><trkpt lat="38.03120501132378" lon="15.13145716998281"><ele>658.5</ele><time>2026-04-26T08:01:23Z</time></trkpt><trkpt lat="38.03111089187542" lon="15.131599622544172"><ele>661.75</ele><time>2026-04-26T08:01:24Z</time></trkpt><trkpt lat="38.031022061379005" lon="15.131755449248988"><ele>665.0</ele><time>2026-04-26T08:01:25Z</time></trkpt><trkpt lat="38.03092044494149" lon="15.13189967074411"><ele>658.0</ele><time>2026-04-26T08:01:26Z</time></trkpt><trkpt lat="38.03079109518497" lon="15.132006906522331"><ele>651.0</ele><time>2026-04-26T08:01:27Z</time></trkpt><trkpt lat="38.03064604652501" lon="15.132081133185773"><ele>644.0</ele><time>2026-04-26T08:01:28Z</time></trkpt><trkpt lat="38.03049263264732" lon="15.132102340341168"><ele>644.0</ele><time>2026-04-26T08:01:29Z</time></trkpt><trkpt lat="38.030338727362015" lon="15.13213033642405"><ele>644.0</ele><time>2026-04-26T08:01:30Z</time></trkpt><trkpt lat="38.03017102295406" lon="15.132168596656083"><ele>644.0</ele><time>2026-04-26T08:01:31Z</time></trkpt><trkpt lat="38.02998065914783" lon="15.132238485410216"><ele>638.3333333333333</ele><time>2026-04-26T08:01:32Z</time></trkpt><trkpt lat="38.02980695719046" lon="15.132300806710633"><ele>632.6666666666666</ele><time>2026-04-26T08:01:33Z</time></trkpt><trkpt lat="38.02964951572992" lon="15.132362304197093"><ele>627.0</ele><time>2026-04-26T08:01:34Z</time></trkpt><trkpt lat="38.02951124260168" lon="15.132431536306015"><ele>635.75</ele><time>2026-04-26T08:01:35Z</time></trkpt><trkpt lat="38.029398603193684" lon="15.132530117188391"><ele>644.5</ele><time>2026-04-26T08:01:36Z</time></trkpt><trkpt lat="38.02930132937325" lon="15.132616859595528"><ele>653.25</ele><time>2026-04-26T08:01:37Z</time></trkpt><trkpt lat="38.02920547566584" lon="15.132653655181015"><ele>662.0</ele><time>2026-04-26T08:01:38Z</time></trkpt><trkpt lat="38.0291002617523" lon="15.132646868876872"><ele>662.75</ele><time>2026-04-26T08:01:39Z</time></trkpt><trkpt lat="38.02902510776952" lon="15.13255784652532"><ele>663.5</ele><time>2026-04-26T08:01:40Z</time></trkpt><trkpt lat="38.028923929019754" lon="15.132455260749365"><ele>664.25</ele><time>2026-04-26T08:01:41Z</time></trkpt><trkpt lat="38.02880932401844" lon="15.132351210624122"><ele>665.0</ele><time>2026-04-26T08:01:42Z</time></trkpt><trkpt lat="38.028693059122965" lon="15.132224840150023"><ele>658.25</ele><time>2026-04-26T08:01:43Z</time></trkpt><trkpt lat="38.028584694723754" lon="15.132109455852115"><ele>651.5</ele><time>2026-04-26T08:01:44Z</time></trkpt><trkpt lat="38.02848300447076" lon="15.13203502216299"><ele>644.75</ele><time>2026-04-26T08:01:45Z</time></trkpt><trkpt lat="38.0283769557796" lon="15.132015715606563"><ele>638.0</ele><time>2026-04-26T08:01:46Z</time></trkpt><trkpt lat="38.02827198138594" lon="15.13206279137842"><ele>635.0</ele><time>2026-04-26T08:01:47Z</time></trkpt><trkpt lat="38.02818189205031" lon="15.13214862250364"><ele>632.0</ele><time>2026-04-26T08:01:48Z</time></trkpt><trkpt lat="38.028083971809785" lon="15.132242212793868"><ele>629.0</ele><time>2026-04-26T08:01:49Z</time></trkpt><trkpt lat="38.027954028851326" lon="15.13228750273285"><ele>626.0</ele><time>2026-04-26T08:01:50Z</time></trkpt><trkpt lat="38.02783037397478" lon="15.132259583001822"><ele>626.0</ele><time>2026-04-26T08:01:51Z</time></trkpt><trkpt lat="38.027729433282865" lon="15.13218113530577"><ele>626.0</ele><time>2026-04-26T08:01:52Z</time></trkpt><trkpt lat="38.02763077730286" lon="15.132128412978492"><ele>626.0</ele><time>2026-04-26T08:01:53Z</time></trkpt><trkpt lat="38.02752567523821" lon="15.13210024920331"><ele>626.0</ele><time>2026-04-26T08:01:54Z</time></trkpt><trkpt lat="38.02741284502117" lon="15.13211261379195"><ele>626.0</ele><time>2026-04-26T08:01:55Z</time></trkpt><trkpt lat="38.02729589162424" lon="15.132161505094562"><ele>624.75</ele><time>2026-04-26T08:01:56Z</time></trkpt><trkpt lat="38.02717706503428" lon="15.132235867251293"><ele>623.5</ele><time>2026-04-26T08:01:57Z</time></trkpt><trkpt lat="38.02704853436525" lon="15.132311414774705"><ele>622.25</ele><time>2026-04-26T08:01:58Z</time></trkpt><trkpt lat="38.02690770256574" lon="15.132371367218536"><ele>621.0</ele><time>2026-04-26T08:01:59Z</time></trkpt><trkpt lat="38.02677661006915" lon="15.132395669635002"><ele>618.75</ele><time>2026-04-26T08:02:00Z</time></trkpt><trkpt lat="38.02664363629582" lon="15.13237020334751"><ele>616.5</ele><time>2026-04-26T08:02:01Z</time></trkpt><trkpt lat="38.02652100237793" lon="15.132295922686792"><ele>614.25</ele><time>2026-04-26T08:02:02Z</time></trkpt><trkpt lat="38.026413242645525" lon="15.132205687977875"><ele>612.0</ele><time>2026-04-26T08:02:03Z</time></trkpt><trkpt lat="38.0263052971224" lon="15.132150354646656"><ele>612.0</ele><time>2026-04-26T08:02:04Z</time></trkpt><trkpt lat="38.02619713628446" lon="15.132124940260987"><ele>612.0</ele><time>2026-04-26T08:02:05Z</time></trkpt><trkpt lat="38.02607811798275" lon="15.132135242767395"><ele>612.0</ele><time>2026-04-26T08:02:06Z</time></trkpt><trkpt lat="38.02594882130837" lon="15.132182208115466"><ele>612.0</ele><time>2026-04-26T08:02:07Z</time></trkpt><trkpt lat="38.02581601648488" lon="15.132237365060163"><ele>614.5</ele><time>2026-04-26T08:02:08Z</time></trkpt><trkpt lat="38.02567249017921" lon="15.132283066752436"><ele>617.0</ele><time>2026-04-26T08:02:09Z</time></trkpt><trkpt lat="38.02552526245045" lon="15.13232576059199"><ele>619.5</ele><time>2026-04-26T08:02:10Z</time></trkpt><trkpt lat="38.02538459204875" lon="15.132377647272225"><ele>622.0</ele><time>2026-04-26T08:02:11Z</time></trkpt><trkpt lat="38.02525681446311" lon="15.132443055801485"><ele>622.0</ele><time>2026-04-26T08:02:12Z</time></trkpt><trkpt lat="38.025132663150266" lon="15.132520568534515"><ele>622.0</ele><time>2026-04-26T08:02:13Z</time></trkpt><trkpt lat="38.024998158524646" lon="15.132592601083887"><ele>622.0</ele><time>2026-04-26T08:02:14Z</time></trkpt><trkpt lat="38.024854012536714" lon="15.13266500945467"><ele>622.0</ele><time>2026-04-26T08:02:15Z</time></trkpt><trkpt lat="38.024704291744385" lon="15.132754285287564"><ele>615.0</ele><time>2026-04-26T08:02:16Z</time></trkpt><trkpt lat="38.02456629875681" lon="15.132846912479451"><ele>608.0</ele><time>2026-04-26T08:02:17Z</time></trkpt><trkpt lat="38.0244406297141" lon="15.13293254815899"><ele>601.0</ele><time>2026-04-26T08:02:18Z</time></trkpt><trkpt lat="38.02431906939342" lon="15.133020357622543"><ele>594.0</ele><time>2026-04-26T08:02:19Z</time></trkpt><trkpt lat="38.024225646755376" lon="15.133132861108106"><ele>593.5</ele><time>2026-04-26T08:02:20Z</time></trkpt><trkpt lat="38.02415011720697" lon="15.133271314601092"><ele>593.0</ele><time>2026-04-26T08:02:21Z</time></trkpt><trkpt lat="38.02407486298295" lon="15.133418185171163"><ele>592.5</ele><time>2026-04-26T08:02:22Z</time></trkpt><trkpt lat="38.023965761002856" lon="15.133525570147219"><ele>592.0</ele><time>2026-04-26T08:02:23Z</time></trkpt><trkpt lat="38.02383348309612" lon="15.13361455671002"><ele>592.0</ele><time>2026-04-26T08:02:24Z</time></trkpt><trkpt lat="38.023706876155686" lon="15.133710888037655"><ele>592.0</ele><time>2026-04-26T08:02:25Z</time></trkpt><trkpt lat="38.023582341646154" lon="15.133794046388644"><ele>592.0</ele><time>2026-04-26T08:02:26Z</time></trkpt><trkpt lat="38.02348009714023" lon="15.133880963654004"><ele>592.0</ele><time>2026-04-26T08:02:27Z</time></trkpt><trkpt lat="38.023407252613524" lon="15.134004018392785"><ele>588.5</ele><time>2026-04-26T08:02:28Z</time></trkpt><trkpt lat="38.023370000143814" lon="15.134151090109803"><ele>585.0</ele><time>2026-04-26T08:02:29Z</time></trkpt><trkpt lat="38.02332571948863" lon="15.134296922685566"><ele>581.5</ele><time>2026-04-26T08:02:30Z</time></trkpt><trkpt lat="38.02323314258619" lon="15.134421915893082"><ele>578.0</ele><time>2026-04-26T08:02:31Z</time></trkpt><trkpt lat="38.02310947248702" lon="15.134493420462185"><ele>578.0</ele><time>2026-04-26T08:02:32Z</time></trkpt><trkpt lat="38.02297349047863" lon="15.134561416972854"><ele>578.0</ele><time>2026-04-26T08:02:33Z</time></trkpt><trkpt lat="38.02284567727638" lon="15.134636769445123"><ele>578.0</ele><time>2026-04-26T08:02:34Z</time></trkpt><trkpt lat="38.02273352287398" lon="15.134707034932617"><ele>578.0</ele><time>2026-04-26T08:02:35Z</time></trkpt><trkpt lat="38.02264421328822" lon="15.134792431903449"><ele>576.75</ele><time>2026-04-26T08:02:36Z</time></trkpt><trkpt lat="38.02258696564758" lon="15.134921771094474"><ele>575.5</ele><time>2026-04-26T08:02:37Z</time></trkpt><trkpt lat="38.0225532396036" lon="15.135054423431333"><ele>574.25</ele><time>2026-04-26T08:02:38Z</time></trkpt><trkpt lat="38.022482249109196" lon="15.135152809594823"><ele>573.0</ele><time>2026-04-26T08:02:39Z</time></trkpt><trkpt lat="38.02236894079924" lon="15.135210368928679"><ele>573.0</ele><time>2026-04-26T08:02:40Z</time></trkpt><trkpt lat="38.02224324535402" lon="15.135225833553228"><ele>573.0</ele><time>2026-04-26T08:02:41Z</time></trkpt><trkpt lat="38.02210711671131" lon="15.135236081769015"><ele>573.0</ele><time>2026-04-26T08:02:42Z</time></trkpt><trkpt lat="38.02196789054631" lon="15.135296043804768"><ele>573.0</ele><time>2026-04-26T08:02:43Z</time></trkpt><trkpt lat="38.02182664852714" lon="15.135391970457633"><ele>573.0</ele><time>2026-04-26T08:02:44Z</time></trkpt><trkpt lat="38.021686455718424" lon="15.135486973030956"><ele>573.0</ele><time>2026-04-26T08:02:45Z</time></trkpt><trkpt lat="38.0215659693674" lon="15.135585389988904"><ele>573.0</ele><time>2026-04-26T08:02:46Z</time></trkpt><trkpt lat="38.02144736896114" lon="15.13568721671641"><ele>573.0</ele><time>2026-04-26T08:02:47Z</time></trkpt><trkpt lat="38.02135147715976" lon="15.1357776987"><ele>571.0</ele><time>2026-04-26T08:02:48Z</time></trkpt><trkpt lat="38.021273754177095" lon="15.13589227389317"><ele>569.0</ele><time>2026-04-26T08:02:49Z</time></trkpt><trkpt lat="38.02124306115383" lon="15.136001737533544"><ele>567.0</ele><time>2026-04-26T08:02:50Z</time></trkpt><trkpt lat="38.02122726913465" lon="15.136124584417141"><ele>565.0</ele><time>2026-04-26T08:02:52Z</time></trkpt><trkpt lat="38.02121803539506" lon="15.136207963988356"><ele>563.0</ele><time>2026-04-26T08:03:07Z</time></trkpt><trkpt lat="38.0212039120404" lon="15.136306727873563"><ele>563.0</ele><time>2026-04-26T08:03:09Z</time></trkpt><trkpt lat="38.02118795665179" lon="15.136427652748978"><ele>563.0</ele><time>2026-04-26T08:03:11Z</time></trkpt><trkpt lat="38.02117861753071" lon="15.13650946007011"><ele>563.0</ele><time>2026-04-26T08:03:12Z</time></trkpt><trkpt lat="38.02116361278173" lon="15.13659506660432"><ele>563.0</ele><time>2026-04-26T08:03:13Z</time></trkpt><trkpt lat="38.021134389128484" lon="15.136679170419182"><ele>563.0</ele><time>2026-04-26T08:03:14Z</time></trkpt><trkpt lat="38.02109811785139" lon="15.136768187771503"><ele>563.0</ele><time>2026-04-26T08:03:15Z</time></trkpt><trkpt lat="38.02109548520984" lon="15.136877463596736"><ele>565.8</ele><time>2026-04-26T08:03:16Z</time></trkpt><trkpt lat="38.02110581331183" lon="15.137000303635672"><ele>568.5999999999999</ele><time>2026-04-26T08:03:17Z</time></trkpt><trkpt lat="38.02109070023385" lon="15.137112829480575"><ele>571.4000000000001</ele><time>2026-04-26T08:03:18Z</time></trkpt><trkpt lat="38.021035373449415" lon="15.13719518543605"><ele>574.2</ele><time>2026-04-26T08:03:19Z</time></trkpt><trkpt lat="38.02094407310484" lon="15.137256842917743"><ele>577.0</ele><time>2026-04-26T08:03:20Z</time></trkpt><trkpt lat="38.02086878066885" lon="15.137368247433452"><ele>579.25</ele><time>2026-04-26T08:03:21Z</time></trkpt><trkpt lat="38.020836926248236" lon="15.137537832839639"><ele>581.5</ele><time>2026-04-26T08:03:22Z</time></trkpt><trkpt lat="38.02082478667405" lon="15.13769544548925"><ele>583.75</ele><time>2026-04-26T08:03:23Z</time></trkpt><trkpt lat="38.02079393782396" lon="15.13782299099947"><ele>586.0</ele><time>2026-04-26T08:03:24Z</time></trkpt><trkpt lat="38.0207365893394" lon="15.137936738403628"><ele>586.25</ele><time>2026-04-26T08:03:25Z</time></trkpt><trkpt lat="38.02063748628945" lon="15.13799966461455"><ele>586.5</ele><time>2026-04-26T08:03:26Z</time></trkpt><trkpt lat="38.02051780121597" lon="15.138027662796278"><ele>586.75</ele><time>2026-04-26T08:03:27Z</time></trkpt><trkpt lat="38.02038535005236" lon="15.138047153553735"><ele>587.0</ele><time>2026-04-26T08:03:28Z</time></trkpt><trkpt lat="38.02025452288555" lon="15.138065647680895"><ele>587.0</ele><time>2026-04-26T08:03:29Z</time></trkpt><trkpt lat="38.02012116704314" lon="15.138039058997729"><ele>587.0</ele><time>2026-04-26T08:03:30Z</time></trkpt><trkpt lat="38.01999911523309" lon="15.13793379356351"><ele>587.0</ele><time>2026-04-26T08:03:31Z</time></trkpt><trkpt lat="38.019898167976535" lon="15.13780309255161"><ele>587.0</ele><time>2026-04-26T08:03:32Z</time></trkpt><trkpt lat="38.019838387730786" lon="15.137643093747739"><ele>589.25</ele><time>2026-04-26T08:03:33Z</time></trkpt><trkpt lat="38.019826174684816" lon="15.13745894360395"><ele>591.5</ele><time>2026-04-26T08:03:34Z</time></trkpt><trkpt lat="38.01981013732999" lon="15.137290012553605"><ele>593.75</ele><time>2026-04-26T08:03:35Z</time></trkpt><trkpt lat="38.01973068096925" lon="15.137143056750473"><ele>596.0</ele><time>2026-04-26T08:03:36Z</time></trkpt><trkpt lat="38.01959567453815" lon="15.13704833946898"><ele>590.6666666666666</ele><time>2026-04-26T08:03:37Z</time></trkpt><trkpt lat="38.019442869389145" lon="15.136990394733397"><ele>585.3333333333334</ele><time>2026-04-26T08:03:38Z</time></trkpt><trkpt lat="38.019283568797455" lon="15.136936078026"><ele>580.0</ele><time>2026-04-26T08:03:39Z</time></trkpt><trkpt lat="38.01912772311863" lon="15.136873698317423"><ele>580.0</ele><time>2026-04-26T08:03:40Z</time></trkpt><trkpt lat="38.01897725334957" lon="15.136810950513121"><ele>580.0</ele><time>2026-04-26T08:03:41Z</time></trkpt><trkpt lat="38.01882581931407" lon="15.136750185242777"><ele>580.0</ele><time>2026-04-26T08:03:42Z</time></trkpt><trkpt lat="38.018672167105926" lon="15.136695694259995"><ele>580.0</ele><time>2026-04-26T08:03:43Z</time></trkpt><trkpt lat="38.018511273631404" lon="15.136662538737575"><ele>580.0</ele><time>2026-04-26T08:03:44Z</time></trkpt><trkpt lat="38.018347614331624" lon="15.136668284852423"><ele>580.0</ele><time>2026-04-26T08:03:45Z</time></trkpt><trkpt lat="38.01819391833567" lon="15.136719012897569"><ele>578.0</ele><time>2026-04-26T08:03:46Z</time></trkpt><trkpt lat="38.01805093327299" lon="15.136789991770112"><ele>576.0</ele><time>2026-04-26T08:03:47Z</time></trkpt><trkpt lat="38.017917454755654" lon="15.13690087361016"><ele>574.0</ele><time>2026-04-26T08:03:48Z</time></trkpt><trkpt lat="38.01779096372739" lon="15.137020186986732"><ele>574.0</ele><time>2026-04-26T08:03:49Z</time></trkpt><trkpt lat="38.017674528761745" lon="15.137127483921335"><ele>574.0</ele><time>2026-04-26T08:03:50Z</time></trkpt><trkpt lat="38.01755426703899" lon="15.13721700390929"><ele>574.0</ele><time>2026-04-26T08:03:51Z</time></trkpt><trkpt lat="38.017421670104376" lon="15.137251661493051"><ele>574.0</ele><time>2026-04-26T08:03:52Z</time></trkpt><trkpt lat="38.01728037584929" lon="15.137259066335167"><ele>574.25</ele><time>2026-04-26T08:03:53Z</time></trkpt><trkpt lat="38.017139955481774" lon="15.137227071227962"><ele>574.5</ele><time>2026-04-26T08:03:54Z</time></trkpt><trkpt lat="38.01700459586373" lon="15.137158152993289"><ele>574.75</ele><time>2026-04-26T08:03:55Z</time></trkpt><trkpt lat="38.016884991590565" lon="15.137080001981845"><ele>575.0</ele><time>2026-04-26T08:03:56Z</time></trkpt><trkpt lat="38.01677259844453" lon="15.136996033480791"><ele>576.75</ele><time>2026-04-26T08:03:57Z</time></trkpt><trkpt lat="38.01665156561656" lon="15.136976833013362"><ele>578.5</ele><time>2026-04-26T08:03:58Z</time></trkpt><trkpt lat="38.0165195256942" lon="15.137001875653956"><ele>580.25</ele><time>2026-04-26T08:03:59Z</time></trkpt><trkpt lat="38.016387409133735" lon="15.137062062527121"><ele>582.0</ele><time>2026-04-26T08:04:00Z</time></trkpt><trkpt lat="38.01626209207296" lon="15.137104575177302"><ele>582.0</ele><time>2026-04-26T08:04:01Z</time></trkpt><trkpt lat="38.016164811085915" lon="15.137106983375906"><ele>582.0</ele><time>2026-04-26T08:04:02Z</time></trkpt><trkpt lat="38.016087953659515" lon="15.137063523096025"><ele>582.0</ele><time>2026-04-26T08:04:03Z</time></trkpt><trkpt lat="38.01603448227921" lon="15.136974888409899"><ele>582.0</ele><time>2026-04-26T08:04:04Z</time></trkpt><trkpt lat="38.01601264621351" lon="15.136861756440819"><ele>582.0</ele><time>2026-04-26T08:04:05Z</time></trkpt><trkpt lat="38.01597166583144" lon="15.136740830135084"><ele>582.0</ele><time>2026-04-26T08:04:06Z</time></trkpt><trkpt lat="38.01592100384228" lon="15.136607044066569"><ele>582.0</ele><time>2026-04-26T08:04:07Z</time></trkpt><trkpt lat="38.01588259653662" lon="15.136460335972197"><ele>582.0</ele><time>2026-04-26T08:04:08Z</time></trkpt><trkpt lat="38.015820491562756" lon="15.136352061417318"><ele>582.0</ele><time>2026-04-26T08:04:09Z</time></trkpt><trkpt lat="38.01573134801034" lon="15.136294100170852"><ele>582.0</ele><time>2026-04-26T08:04:10Z</time></trkpt><trkpt lat="38.015621634730714" lon="15.1362721729561"><ele>581.0</ele><time>2026-04-26T08:04:11Z</time></trkpt><trkpt lat="38.01550937001577" lon="15.136296598168768"><ele>580.0</ele><time>2026-04-26T08:04:12Z</time></trkpt><trkpt lat="38.01538350841693" lon="15.136365554869498"><ele>579.0</ele><time>2026-04-26T08:04:13Z</time></trkpt><trkpt lat="38.01524375384911" lon="15.136421960753829"><ele>578.0</ele><time>2026-04-26T08:04:14Z</time></trkpt><trkpt lat="38.01508742023572" lon="15.136481002591443"><ele>580.4</ele><time>2026-04-26T08:04:15Z</time></trkpt><trkpt lat="38.01495964592337" lon="15.1365567283836"><ele>582.8</ele><time>2026-04-26T08:04:16Z</time></trkpt><trkpt lat="38.01485183996322" lon="15.136581569371717"><ele>585.2</ele><time>2026-04-26T08:04:17Z</time></trkpt><trkpt lat="38.014760814102615" lon="15.136549075202748"><ele>587.6</ele><time>2026-04-26T08:04:18Z</time></trkpt><trkpt lat="38.01470266510938" lon="15.136451837478717"><ele>590.0</ele><time>2026-04-26T08:04:19Z</time></trkpt><trkpt lat="38.01467428616626" lon="15.136339898924529"><ele>591.5</ele><time>2026-04-26T08:04:20Z</time></trkpt><trkpt lat="38.01463527516471" lon="15.136204058015657"><ele>593.0</ele><time>2026-04-26T08:04:21Z</time></trkpt><trkpt lat="38.0145800924277" lon="15.136063367759636"><ele>594.5</ele><time>2026-04-26T08:04:22Z</time></trkpt><trkpt lat="38.01452119394171" lon="15.135903500619245"><ele>596.0</ele><time>2026-04-26T08:04:23Z</time></trkpt><trkpt lat="38.0145112965039" lon="15.135716935953022"><ele>598.5</ele><time>2026-04-26T08:04:24Z</time></trkpt><trkpt lat="38.01453574812575" lon="15.135519884468684"><ele>601.0</ele><time>2026-04-26T08:04:25Z</time></trkpt><trkpt lat="38.014561819898006" lon="15.135330764790156"><ele>603.5</ele><time>2026-04-26T08:04:26Z</time></trkpt><trkpt lat="38.014567432976314" lon="15.135162968829913"><ele>606.0</ele><time>2026-04-26T08:04:27Z</time></trkpt><trkpt lat="38.01457150441749" lon="15.135015875769042"><ele>606.0</ele><time>2026-04-26T08:04:28Z</time></trkpt><trkpt lat="38.0145851294616" lon="15.134895782382193"><ele>606.0</ele><time>2026-04-26T08:04:29Z</time></trkpt><trkpt lat="38.014626725999314" lon="15.134804669451995"><ele>606.0</ele><time>2026-04-26T08:04:30Z</time></trkpt><trkpt lat="38.01468432066965" lon="15.134735353209413"><ele>606.0</ele><time>2026-04-26T08:04:31Z</time></trkpt><trkpt lat="38.014741960459226" lon="15.134687416957096"><ele>606.0</ele><time>2026-04-26T08:04:32Z</time></trkpt><trkpt lat="38.014803830942405" lon="15.134642579644115"><ele>606.0</ele><time>2026-04-26T08:04:33Z</time></trkpt><trkpt lat="38.01488008128942" lon="15.134576473257281"><ele>608.25</ele><time>2026-04-26T08:04:34Z</time></trkpt><trkpt lat="38.01496831980985" lon="15.13449201069796"><ele>610.5</ele><time>2026-04-26T08:04:35Z</time></trkpt><trkpt lat="38.01506970312326" lon="15.13440893715717"><ele>612.75</ele><time>2026-04-26T08:04:36Z</time></trkpt><trkpt lat="38.01515983390331" lon="15.134312228347136"><ele>615.0</ele><time>2026-04-26T08:04:37Z</time></trkpt><trkpt lat="38.01524371006225" lon="15.134186167220138"><ele>615.25</ele><time>2026-04-26T08:04:38Z</time></trkpt><trkpt lat="38.01532018398868" lon="15.134047209215332"><ele>615.5</ele><time>2026-04-26T08:04:39Z</time></trkpt><trkpt lat="38.01539513511589" lon="15.133899187364522"><ele>615.75</ele><time>2026-04-26T08:04:40Z</time></trkpt><trkpt lat="38.01547303887271" lon="15.133741529174683"><ele>616.0</ele><time>2026-04-26T08:04:41Z</time></trkpt><trkpt lat="38.01555481165031" lon="15.133579407401895"><ele>616.0</ele><time>2026-04-26T08:04:42Z</time></trkpt><trkpt lat="38.01562031021415" lon="15.13344199211797"><ele>616.0</ele><time>2026-04-26T08:04:43Z</time></trkpt><trkpt lat="38.01568723342435" lon="15.133324658694018"><ele>616.0</ele><time>2026-04-26T08:04:44Z</time></trkpt><trkpt lat="38.01574446928089" lon="15.133214996131825"><ele>616.0</ele><time>2026-04-26T08:04:45Z</time></trkpt><trkpt lat="38.01579948314782" lon="15.133097421072414"><ele>614.2</ele><time>2026-04-26T08:04:46Z</time></trkpt><trkpt lat="38.015856174917744" lon="15.133000794113869"><ele>612.4000000000001</ele><time>2026-04-26T08:04:47Z</time></trkpt><trkpt lat="38.015889714721204" lon="15.132878065477666"><ele>610.6</ele><time>2026-04-26T08:04:48Z</time></trkpt><trkpt lat="38.01590446207328" lon="15.132734390254699"><ele>608.8000000000001</ele><time>2026-04-26T08:04:49Z</time></trkpt><trkpt lat="38.015940917799036" lon="15.132596777716783"><ele>607.0</ele><time>2026-04-26T08:04:50Z</time></trkpt><trkpt lat="38.015998239935804" lon="15.132472233291479"><ele>607.6</ele><time>2026-04-26T08:04:51Z</time></trkpt><trkpt lat="38.01604392269445" lon="15.132333474096269"><ele>608.2</ele><time>2026-04-26T08:04:52Z</time></trkpt><trkpt lat="38.01606565401208" lon="15.132199428090447"><ele>608.8</ele><time>2026-04-26T08:04:53Z</time></trkpt><trkpt lat="38.01606211548833" lon="15.132073767875994"><ele>609.4</ele><time>2026-04-26T08:04:54Z</time></trkpt><trkpt lat="38.01606007364378" lon="15.131958716023881"><ele>610.0</ele><time>2026-04-26T08:04:55Z</time></trkpt><trkpt lat="38.01605997431602" lon="15.131846083515743"><ele>610.0</ele><time>2026-04-26T08:04:56Z</time></trkpt><trkpt lat="38.01605424801067" lon="15.131746602736794"><ele>610.0</ele><time>2026-04-26T08:04:57Z</time></trkpt><trkpt lat="38.016042453730535" lon="15.13165095145308"><ele>610.0</ele><time>2026-04-26T08:04:58Z</time></trkpt><trkpt lat="38.01601198444931" lon="15.131562695683158"><ele>610.0</ele><time>2026-04-26T08:04:59Z</time></trkpt><trkpt lat="38.01595609289699" lon="15.131496254143816"><ele>610.0</ele><time>2026-04-26T08:05:00Z</time></trkpt><trkpt lat="38.0158948259277" lon="15.131435722777823"><ele>610.0</ele><time>2026-04-26T08:05:01Z</time></trkpt><trkpt lat="38.0158295124771" lon="15.131383579439"><ele>612.0</ele><time>2026-04-26T08:05:02Z</time></trkpt><trkpt lat="38.01576131125893" lon="15.131336260430315"><ele>614.0</ele><time>2026-04-26T08:05:03Z</time></trkpt><trkpt lat="38.01568947648714" lon="15.131302100196462"><ele>616.0</ele><time>2026-04-26T08:05:04Z</time></trkpt><trkpt lat="38.01561205212497" lon="15.13129985543575"><ele>618.0</ele><time>2026-04-26T08:05:05Z</time></trkpt><trkpt lat="38.015530356864495" lon="15.131311459268693"><ele>620.0</ele><time>2026-04-26T08:05:06Z</time></trkpt><trkpt lat="38.01545458080422" lon="15.13133950974333"><ele>622.0</ele><time>2026-04-26T08:05:07Z</time></trkpt><trkpt lat="38.01538885925992" lon="15.131363347637695"><ele>622.0</ele><time>2026-04-26T08:05:08Z</time></trkpt><trkpt lat="38.01526568939883" lon="15.13132154812607"><ele>622.0</ele><time>2026-04-26T08:05:10Z</time></trkpt><trkpt lat="38.01520558704521" lon="15.131272998326484"><ele>622.0</ele><time>2026-04-26T08:05:11Z</time></trkpt><trkpt lat="38.01515325700802" lon="15.131217315664385"><ele>622.0</ele><time>2026-04-26T08:05:12Z</time></trkpt><trkpt lat="38.01510191463907" lon="15.131162557457444"><ele>622.0</ele><time>2026-04-26T08:05:13Z</time></trkpt><trkpt lat="38.015021934016666" lon="15.13108566862937"><ele>622.0</ele><time>2026-04-26T08:05:15Z</time></trkpt><trkpt lat="38.0149604167664" lon="15.131025432495681"><ele>622.0</ele><time>2026-04-26T08:05:17Z</time></trkpt><trkpt lat="38.01491459580072" lon="15.130948528350412"><ele>622.0</ele><time>2026-04-26T08:05:21Z</time></trkpt><trkpt lat="38.01492389110207" lon="15.130861838837967"><ele>622.0</ele><time>2026-04-26T08:05:25Z</time></trkpt><trkpt lat="38.014964587470324" lon="15.130800646577368"><ele>622.0</ele><time>2026-04-26T08:05:37Z</time></trkpt><trkpt lat="38.014996858233594" lon="15.130728314723036"><ele>622.0</ele><time>2026-04-26T08:06:02Z</time></trkpt><trkpt lat="38.01502980531498" lon="15.130631501190852"><ele>622.0</ele><time>2026-04-26T08:07:07Z</time></trkpt><trkpt lat="38.015079503587735" lon="15.130567837123497"><ele>622.0</ele><time>2026-04-26T08:07:17Z</time></trkpt><trkpt lat="38.015030210509444" lon="15.130624017718885"><ele>621.6666666666667</ele><time>2026-04-26T08:07:32Z</time></trkpt><trkpt lat="38.01501186649907" lon="15.130546976618048"><ele>621.3333333333334</ele><time>2026-04-26T08:08:24Z</time></trkpt><trkpt lat="38.01497743304167" lon="15.130468042355139"><ele>621.0</ele><time>2026-04-26T08:09:32Z</time></trkpt><trkpt lat="38.0149145057568" lon="15.1304531454235"><ele>620.6666666666666</ele><time>2026-04-26T08:11:03Z</time></trkpt><trkpt lat="38.015000742253406" lon="15.130509972970563"><ele>620.3333333333333</ele><time>2026-04-26T08:11:15Z</time></trkpt><trkpt lat="38.01494955527008" lon="15.130398096671003"><ele>620.0</ele><time>2026-04-26T08:12:31Z</time></trkpt><trkpt lat="38.014999361913965" lon="15.130474454168738"><ele>620.0</ele><time>2026-04-26T08:13:35Z</time></trkpt><trkpt lat="38.014937072105276" lon="15.130374410889829"><ele>620.0</ele><time>2026-04-26T08:14:17.999Z</time></trkpt><trkpt lat="38.015061948042515" lon="15.130545009563514"><ele>620.0</ele><time>2026-04-26T08:14:40Z</time></trkpt><trkpt lat="38.01507711008768" lon="15.130464962990649"><ele>620.0</ele><time>2026-04-26T08:14:56Z</time></trkpt><trkpt lat="38.0148584264025" lon="15.130252545321197"><ele>620.0</ele><time>2026-04-26T08:14:57Z</time></trkpt><trkpt lat="38.01479786456878" lon="15.130361836404536"><ele>620.0</ele><time>2026-04-26T08:14:58Z</time></trkpt><trkpt lat="38.01479037726499" lon="15.130454954017896"><ele>620.0</ele><time>2026-04-26T08:15:00Z</time></trkpt><trkpt lat="38.0148712329292" lon="15.13044003503909"><ele>620.0</ele><time>2026-04-26T08:15:01Z</time></trkpt><trkpt lat="38.014957120366596" lon="15.130481545663722"><ele>620.0</ele><time>2026-04-26T08:15:02Z</time></trkpt><trkpt lat="38.0150307787112" lon="15.130530405364073"><ele>620.0</ele><time>2026-04-26T08:15:05Z</time></trkpt><trkpt lat="38.01511111226852" lon="15.130580938850908"><ele>620.0</ele><time>2026-04-26T08:15:08Z</time></trkpt><trkpt lat="38.015043574212434" lon="15.13051990551359"><ele>620.0</ele><time>2026-04-26T08:15:09Z</time></trkpt><trkpt lat="38.01497510993711" lon="15.130449609635487"><ele>620.0</ele><time>2026-04-26T08:16:15.012Z</time></trkpt><trkpt lat="38.014910778486616" lon="15.130426396729325"><ele>620.0</ele><time>2026-04-26T08:16:17Z</time></trkpt><trkpt lat="38.01498341594853" lon="15.130463050871375"><ele>620.0</ele><time>2026-04-26T08:16:33Z</time></trkpt><trkpt lat="38.01502740823432" lon="15.130538176763146"><ele>620.0</ele><time>2026-04-26T08:17:21Z</time></trkpt><trkpt lat="38.01502089582921" lon="15.130625664039616"><ele>620.0</ele><time>2026-04-26T08:22:09Z</time></trkpt><trkpt lat="38.015010571886" lon="15.130719318372341"><ele>620.0</ele><time>2026-04-26T08:23:45Z</time></trkpt><trkpt lat="38.01505817978224" lon="15.130663233298266"><ele>620.0</ele><time>2026-04-26T08:24:00Z</time></trkpt><trkpt lat="38.01500324089463" lon="15.130705350257514"><ele>620.0</ele><time>2026-04-26T08:24:07Z</time></trkpt><trkpt lat="38.01496652228676" lon="15.130799304510555"><ele>620.0</ele><time>2026-04-26T08:24:10Z</time></trkpt><trkpt lat="38.014916817944275" lon="15.13086889157234"><ele>620.0</ele><time>2026-04-26T08:24:13Z</time></trkpt><trkpt lat="38.01489158724711" lon="15.130948985903295"><ele>620.0</ele><time>2026-04-26T08:24:17Z</time></trkpt><trkpt lat="38.01496086015157" lon="15.13102217244116"><ele>620.3333333333333</ele><time>2026-04-26T08:24:19Z</time></trkpt><trkpt lat="38.01501857407219" lon="15.131075651282941"><ele>620.6666666666666</ele><time>2026-04-26T08:24:21Z</time></trkpt><trkpt lat="38.015064200824604" lon="15.13115697354391"><ele>621.0</ele><time>2026-04-26T08:24:23Z</time></trkpt><trkpt lat="38.015134422750016" lon="15.131219090110584"><ele>621.3333333333334</ele><time>2026-04-26T08:24:25Z</time></trkpt><trkpt lat="38.015196778448846" lon="15.1313009098784"><ele>621.6666666666667</ele><time>2026-04-26T08:24:27Z</time></trkpt><trkpt lat="38.01526667378451" lon="15.131386627314248"><ele>622.0</ele><time>2026-04-26T08:24:29Z</time></trkpt><trkpt lat="38.01539545325357" lon="15.131388292197773"><ele>622.0</ele><time>2026-04-26T08:24:31Z</time></trkpt><trkpt lat="38.01551232409606" lon="15.131393858702344"><ele>622.0</ele><time>2026-04-26T08:24:33Z</time></trkpt><trkpt lat="38.01560230315751" lon="15.131338750430741"><ele>622.0</ele><time>2026-04-26T08:24:35Z</time></trkpt><trkpt lat="38.01569601321018" lon="15.131321157041304"><ele>622.0</ele><time>2026-04-26T08:24:37Z</time></trkpt><trkpt lat="38.0157808262644" lon="15.131382722815363"><ele>622.0</ele><time>2026-04-26T08:24:39Z</time></trkpt><trkpt lat="38.015870720664275" lon="15.131457477254296"><ele>620.0</ele><time>2026-04-26T08:24:41Z</time></trkpt><trkpt lat="38.015947781159944" lon="15.131535328137625"><ele>618.0</ele><time>2026-04-26T08:24:43Z</time></trkpt><trkpt lat="38.016001593523384" lon="15.131648155892515"><ele>616.0</ele><time>2026-04-26T08:24:45Z</time></trkpt><trkpt lat="38.01601577328402" lon="15.131770623402602"><ele>614.0</ele><time>2026-04-26T08:24:47Z</time></trkpt><trkpt lat="38.01601016123684" lon="15.131854162537852"><ele>612.0</ele><time>2026-04-26T08:24:48Z</time></trkpt><trkpt lat="38.01601885762556" lon="15.131944390149815"><ele>610.0</ele><time>2026-04-26T08:24:49Z</time></trkpt><trkpt lat="38.016014692140935" lon="15.132028382858183"><ele>610.0</ele><time>2026-04-26T08:24:50Z</time></trkpt><trkpt lat="38.01601011399551" lon="15.132130502312586"><ele>610.0</ele><time>2026-04-26T08:24:51Z</time></trkpt><trkpt lat="38.01601346826129" lon="15.132234454919988"><ele>610.0</ele><time>2026-04-26T08:24:52Z</time></trkpt><trkpt lat="38.015991602825004" lon="15.132334407900208"><ele>610.0</ele><time>2026-04-26T08:24:53Z</time></trkpt><trkpt lat="38.015952757672395" lon="15.13244763915439"><ele>610.0</ele><time>2026-04-26T08:24:54Z</time></trkpt><trkpt lat="38.01591558480555" lon="15.132573246676614"><ele>610.0</ele><time>2026-04-26T08:24:55Z</time></trkpt><trkpt lat="38.015877572678576" lon="15.13268377998727"><ele>609.5</ele><time>2026-04-26T08:24:56Z</time></trkpt><trkpt lat="38.01584647365339" lon="15.132783932649719"><ele>609.0</ele><time>2026-04-26T08:24:57Z</time></trkpt><trkpt lat="38.015815717308165" lon="15.132879843670144"><ele>608.5</ele><time>2026-04-26T08:24:58Z</time></trkpt><trkpt lat="38.01578939577973" lon="15.13296000888687"><ele>608.0</ele><time>2026-04-26T08:24:59Z</time></trkpt><trkpt lat="38.01573680376043" lon="15.133013209086343"><ele>607.5</ele><time>2026-04-26T08:25:00Z</time></trkpt><trkpt lat="38.01570602887846" lon="15.133098468700927"><ele>607.0</ele><time>2026-04-26T08:25:01Z</time></trkpt><trkpt lat="38.015672952541095" lon="15.133194118761024"><ele>608.8000000000001</ele><time>2026-04-26T08:25:02Z</time></trkpt><trkpt lat="38.015642630525186" lon="15.133268866997641"><ele>610.6</ele><time>2026-04-26T08:25:03Z</time></trkpt><trkpt lat="38.01557663918776" lon="15.133388700271535"><ele>612.4000000000001</ele><time>2026-04-26T08:25:05Z</time></trkpt><trkpt lat="38.01551374733131" lon="15.133497730793776"><ele>614.2</ele><time>2026-04-26T08:25:07Z</time></trkpt><trkpt lat="38.015461300123995" lon="15.133617354972591"><ele>616.0</ele><time>2026-04-26T08:25:09Z</time></trkpt><trkpt lat="38.015406056703576" lon="15.13372671696814"><ele>616.0</ele><time>2026-04-26T08:25:11Z</time></trkpt><trkpt lat="38.015350981618234" lon="15.133831442175074"><ele>616.0</ele><time>2026-04-26T08:25:13Z</time></trkpt><trkpt lat="38.01530285760405" lon="15.133932637450599"><ele>616.0</ele><time>2026-04-26T08:25:15Z</time></trkpt><trkpt lat="38.01523585506972" lon="15.134038629268781"><ele>616.0</ele><time>2026-04-26T08:25:17Z</time></trkpt><trkpt lat="38.01518243760473" lon="15.134136465784692"><ele>616.0</ele><time>2026-04-26T08:25:19Z</time></trkpt><trkpt lat="38.01512741470228" lon="15.134234989793839"><ele>615.8</ele><time>2026-04-26T08:25:21Z</time></trkpt><trkpt lat="38.01505524357167" lon="15.134328210168002"><ele>615.6</ele><time>2026-04-26T08:25:23Z</time></trkpt><trkpt lat="38.014990485901656" lon="15.13440468055921"><ele>615.4</ele><time>2026-04-26T08:25:25Z</time></trkpt><trkpt lat="38.01491731699898" lon="15.13445516565111"><ele>615.2</ele><time>2026-04-26T08:25:27Z</time></trkpt><trkpt lat="38.014831652246485" lon="15.134537690308816"><ele>615.0</ele><time>2026-04-26T08:25:29Z</time></trkpt><trkpt lat="38.01474673856399" lon="15.1345858546335"><ele>615.0</ele><time>2026-04-26T08:25:31Z</time></trkpt><trkpt lat="38.01468099092833" lon="15.134666535908705"><ele>615.0</ele><time>2026-04-26T08:25:33Z</time></trkpt><trkpt lat="38.01461317575455" lon="15.13471734137545"><ele>615.0</ele><time>2026-04-26T08:25:35Z</time></trkpt><trkpt lat="38.01455110920579" lon="15.13480868715099"><ele>615.0</ele><time>2026-04-26T08:25:37Z</time></trkpt><trkpt lat="38.01449212344317" lon="15.134876999443447"><ele>615.0</ele><time>2026-04-26T08:25:39Z</time></trkpt><trkpt lat="38.01448985944105" lon="15.135050308386274"><ele>613.5</ele><time>2026-04-26T08:25:42Z</time></trkpt><trkpt lat="38.014502618259804" lon="15.135188726131497"><ele>612.0</ele><time>2026-04-26T08:25:44Z</time></trkpt><trkpt lat="38.01450410091262" lon="15.135312145077611"><ele>610.5</ele><time>2026-04-26T08:25:45Z</time></trkpt><trkpt lat="38.014499362745795" lon="15.135408477008214"><ele>609.0</ele><time>2026-04-26T08:25:46Z</time></trkpt><trkpt lat="38.01450129278097" lon="15.135513853732986"><ele>607.5</ele><time>2026-04-26T08:25:47Z</time></trkpt><trkpt lat="38.01449727123708" lon="15.13561494688934"><ele>606.0</ele><time>2026-04-26T08:25:48Z</time></trkpt><trkpt lat="38.01449122373186" lon="15.135705220619979"><ele>604.5714285714286</ele><time>2026-04-26T08:25:49Z</time></trkpt><trkpt lat="38.01449304447883" lon="15.135802249621515"><ele>603.1428571428571</ele><time>2026-04-26T08:25:50Z</time></trkpt><trkpt lat="38.01449462573668" lon="15.135884224910805"><ele>601.7142857142857</ele><time>2026-04-26T08:25:51Z</time></trkpt><trkpt lat="38.014505975732895" lon="15.135967788259254"><ele>600.2857142857142</ele><time>2026-04-26T08:25:52Z</time></trkpt><trkpt lat="38.01455350180939" lon="15.136055256721813"><ele>598.8571428571428</ele><time>2026-04-26T08:25:53Z</time></trkpt><trkpt lat="38.01458533498272" lon="15.13613966802708"><ele>597.4285714285714</ele><time>2026-04-26T08:25:54Z</time></trkpt><trkpt lat="38.0146194123597" lon="15.136225652168335"><ele>596.0</ele><time>2026-04-26T08:25:55Z</time></trkpt><trkpt lat="38.01464791455347" lon="15.136308915934814"><ele>596.0</ele><time>2026-04-26T08:25:56Z</time></trkpt><trkpt lat="38.014678828265176" lon="15.13638685333495"><ele>596.0</ele><time>2026-04-26T08:25:57Z</time></trkpt><trkpt lat="38.01471981345642" lon="15.136473504482838"><ele>596.0</ele><time>2026-04-26T08:25:58Z</time></trkpt><trkpt lat="38.014777756619054" lon="15.136535835819963"><ele>596.0</ele><time>2026-04-26T08:25:59Z</time></trkpt><trkpt lat="38.01485813576189" lon="15.136591205476343"><ele>596.0</ele><time>2026-04-26T08:26:00Z</time></trkpt><trkpt lat="38.01497977896645" lon="15.136563283967144"><ele>596.0</ele><time>2026-04-26T08:26:01Z</time></trkpt><trkpt lat="38.01508870370177" lon="15.136522620861152"><ele>591.5</ele><time>2026-04-26T08:26:02Z</time></trkpt><trkpt lat="38.01521290912971" lon="15.13647520428429"><ele>587.0</ele><time>2026-04-26T08:26:03Z</time></trkpt><trkpt lat="38.015337674289185" lon="15.136427573987824"><ele>582.5</ele><time>2026-04-26T08:26:04Z</time></trkpt><trkpt lat="38.01545486498423" lon="15.136382835350803"><ele>578.0</ele><time>2026-04-26T08:26:05Z</time></trkpt><trkpt lat="38.01555341149431" lon="15.136345214277618"><ele>578.0</ele><time>2026-04-26T08:26:06Z</time></trkpt><trkpt lat="38.015651029313304" lon="15.136300014954434"><ele>578.0</ele><time>2026-04-26T08:26:07Z</time></trkpt><trkpt lat="38.01574072162707" lon="15.136330278577184"><ele>578.0</ele><time>2026-04-26T08:26:08Z</time></trkpt><trkpt lat="38.01581309189776" lon="15.136401202284139"><ele>578.0</ele><time>2026-04-26T08:26:09Z</time></trkpt><trkpt lat="38.01584904216985" lon="15.136521043537623"><ele>578.0</ele><time>2026-04-26T08:26:10Z</time></trkpt><trkpt lat="38.015869368757144" lon="15.136662418818883"><ele>578.8</ele><time>2026-04-26T08:26:11Z</time></trkpt><trkpt lat="38.01593461817969" lon="15.136780154511543"><ele>579.5999999999999</ele><time>2026-04-26T08:26:12Z</time></trkpt><trkpt lat="38.015973948414256" lon="15.136905265190508"><ele>580.4000000000001</ele><time>2026-04-26T08:26:13Z</time></trkpt><trkpt lat="38.0160102780217" lon="15.137013548396542"><ele>581.2</ele><time>2026-04-26T08:26:14Z</time></trkpt><trkpt lat="38.01606058940653" lon="15.137081136767764"><ele>582.0</ele><time>2026-04-26T08:26:15Z</time></trkpt><trkpt lat="38.016176168018454" lon="15.137154328542339"><ele>582.0</ele><time>2026-04-26T08:26:17Z</time></trkpt><trkpt lat="38.016258588021735" lon="15.137137621852412"><ele>582.0</ele><time>2026-04-26T08:26:18Z</time></trkpt><trkpt lat="38.01633616425484" lon="15.137111978832387"><ele>582.0</ele><time>2026-04-26T08:26:19Z</time></trkpt><trkpt lat="38.0164257023979" lon="15.13707739522208"><ele>582.0</ele><time>2026-04-26T08:26:20Z</time></trkpt><trkpt lat="38.016516551436155" lon="15.13704334415153"><ele>582.0</ele><time>2026-04-26T08:26:21Z</time></trkpt><trkpt lat="38.016602290302814" lon="15.137019078898735"><ele>582.0</ele><time>2026-04-26T08:26:22Z</time></trkpt><trkpt lat="38.01669043906785" lon="15.137018342420387"><ele>580.6</ele><time>2026-04-26T08:26:23Z</time></trkpt><trkpt lat="38.016781428353205" lon="15.137043017631562"><ele>579.2</ele><time>2026-04-26T08:26:24Z</time></trkpt><trkpt lat="38.01686485968632" lon="15.137103087602624"><ele>577.8</ele><time>2026-04-26T08:26:25Z</time></trkpt><trkpt lat="38.01695824604567" lon="15.137163850350305"><ele>576.4</ele><time>2026-04-26T08:26:26Z</time></trkpt><trkpt lat="38.01704074643854" lon="15.13721466230697"><ele>575.0</ele><time>2026-04-26T08:26:27Z</time></trkpt><trkpt lat="38.017117049877925" lon="15.137233053291533"><ele>575.0</ele><time>2026-04-26T08:26:28Z</time></trkpt><trkpt lat="38.01719747136818" lon="15.137260703496803"><ele>575.0</ele><time>2026-04-26T08:26:29Z</time></trkpt><trkpt lat="38.01729851027996" lon="15.137267122753785"><ele>575.0</ele><time>2026-04-26T08:26:30Z</time></trkpt><trkpt lat="38.01740686475799" lon="15.13725262465022"><ele>575.0</ele><time>2026-04-26T08:26:31Z</time></trkpt><trkpt lat="38.01752131541761" lon="15.137229266820043"><ele>575.0</ele><time>2026-04-26T08:26:32Z</time></trkpt><trkpt lat="38.01763578328594" lon="15.137179593881621"><ele>574.75</ele><time>2026-04-26T08:26:33Z</time></trkpt><trkpt lat="38.017742225159125" lon="15.137090165561762"><ele>574.5</ele><time>2026-04-26T08:26:34Z</time></trkpt><trkpt lat="38.017858641835716" lon="15.136997514880532"><ele>574.25</ele><time>2026-04-26T08:26:35Z</time></trkpt><trkpt lat="38.017974889637095" lon="15.136899007597489"><ele>574.0</ele><time>2026-04-26T08:26:36Z</time></trkpt><trkpt lat="38.01809306103315" lon="15.13681711971777"><ele>574.0</ele><time>2026-04-26T08:26:37Z</time></trkpt><trkpt lat="38.01822140240972" lon="15.136752910820311"><ele>574.0</ele><time>2026-04-26T08:26:38Z</time></trkpt><trkpt lat="38.018353927745146" lon="15.136720526848427"><ele>574.0</ele><time>2026-04-26T08:26:39Z</time></trkpt><trkpt lat="38.018487915285974" lon="15.136716965358762"><ele>574.0</ele><time>2026-04-26T08:26:40Z</time></trkpt><trkpt lat="38.0186154871094" lon="15.136741611215658"><ele>575.5</ele><time>2026-04-26T08:26:41Z</time></trkpt><trkpt lat="38.018739427153925" lon="15.136765968616075"><ele>577.0</ele><time>2026-04-26T08:26:42Z</time></trkpt><trkpt lat="38.01885909816055" lon="15.13680125067418"><ele>578.5</ele><time>2026-04-26T08:26:43Z</time></trkpt><trkpt lat="38.01897841911683" lon="15.136850605819571"><ele>580.0</ele><time>2026-04-26T08:26:44Z</time></trkpt><trkpt lat="38.0190922413224" lon="15.13689614113069"><ele>579.5</ele><time>2026-04-26T08:26:45Z</time></trkpt><trkpt lat="38.01920558316734" lon="15.136942226990168"><ele>579.0</ele><time>2026-04-26T08:26:46Z</time></trkpt><trkpt lat="38.01931649563985" lon="15.136990514986069"><ele>578.5</ele><time>2026-04-26T08:26:47Z</time></trkpt><trkpt lat="38.01942216749087" lon="15.137041480538427"><ele>578.0</ele><time>2026-04-26T08:26:48Z</time></trkpt><trkpt lat="38.01953609378922" lon="15.13707896008446"><ele>578.0</ele><time>2026-04-26T08:26:49Z</time></trkpt><trkpt lat="38.01963827280905" lon="15.137130366926657"><ele>578.0</ele><time>2026-04-26T08:26:50Z</time></trkpt><trkpt lat="38.019718985228266" lon="15.1372268202645"><ele>578.0</ele><time>2026-04-26T08:26:51Z</time></trkpt><trkpt lat="38.019774249009245" lon="15.13734645357887"><ele>578.0</ele><time>2026-04-26T08:26:52Z</time></trkpt><trkpt lat="38.01981691762028" lon="15.13747499681919"><ele>578.0</ele><time>2026-04-26T08:26:53Z</time></trkpt><trkpt lat="38.019823530933564" lon="15.137612346202184"><ele>580.25</ele><time>2026-04-26T08:26:54Z</time></trkpt><trkpt lat="38.01984504139068" lon="15.137761875470975"><ele>582.5</ele><time>2026-04-26T08:26:55Z</time></trkpt><trkpt lat="38.01991945849448" lon="15.137888920684645"><ele>584.75</ele><time>2026-04-26T08:26:56Z</time></trkpt><trkpt lat="38.02000797883722" lon="15.137974756869756"><ele>587.0</ele><time>2026-04-26T08:26:57Z</time></trkpt><trkpt lat="38.02009231958557" lon="15.138038085164334"><ele>587.0</ele><time>2026-04-26T08:26:58Z</time></trkpt><trkpt lat="38.02018275198363" lon="15.138072180378865"><ele>587.0</ele><time>2026-04-26T08:26:59Z</time></trkpt><trkpt lat="38.020278693015726" lon="15.138080289695035"><ele>587.0</ele><time>2026-04-26T08:27:00Z</time></trkpt><trkpt lat="38.0203847413803" lon="15.13806894015698"><ele>587.0</ele><time>2026-04-26T08:27:01Z</time></trkpt><trkpt lat="38.020492432869446" lon="15.138041242511475"><ele>587.0</ele><time>2026-04-26T08:27:02Z</time></trkpt><trkpt lat="38.0205991128336" lon="15.137994549263203"><ele>587.0</ele><time>2026-04-26T08:27:03Z</time></trkpt><trkpt lat="38.0207091777626" lon="15.137965701488758"><ele>587.0</ele><time>2026-04-26T08:27:04Z</time></trkpt><trkpt lat="38.02079095212606" lon="15.137894678648605"><ele>587.0</ele><time>2026-04-26T08:27:05Z</time></trkpt><trkpt lat="38.020825546129714" lon="15.137778953136138"><ele>587.0</ele><time>2026-04-26T08:27:06Z</time></trkpt><trkpt lat="38.02084546831516" lon="15.137662060431802"><ele>587.0</ele><time>2026-04-26T08:27:07Z</time></trkpt><trkpt lat="38.020872941912636" lon="15.13755323133328"><ele>586.8333333333333</ele><time>2026-04-26T08:27:08Z</time></trkpt><trkpt lat="38.02089906381304" lon="15.137443064502254"><ele>586.6666666666666</ele><time>2026-04-26T08:27:09Z</time></trkpt><trkpt lat="38.02092970787089" lon="15.137337333330525"><ele>586.5</ele><time>2026-04-26T08:27:10Z</time></trkpt><trkpt lat="38.02098699799536" lon="15.137251901986788"><ele>586.3333333333334</ele><time>2026-04-26T08:27:11Z</time></trkpt><trkpt lat="38.02106095443457" lon="15.137196274702234"><ele>586.1666666666667</ele><time>2026-04-26T08:27:12Z</time></trkpt><trkpt lat="38.02112175019849" lon="15.137157911426385"><ele>586.0</ele><time>2026-04-26T08:27:13Z</time></trkpt><trkpt lat="38.02115549803272" lon="15.137088722277515"><ele>584.2</ele><time>2026-04-26T08:27:14Z</time></trkpt><trkpt lat="38.021158447207696" lon="15.136968638634489"><ele>582.4000000000001</ele><time>2026-04-26T08:27:16Z</time></trkpt><trkpt lat="38.021140851973016" lon="15.136887859945865"><ele>580.6</ele><time>2026-04-26T08:28:14Z</time></trkpt><trkpt lat="38.021160715983" lon="15.136756293203511"><ele>578.8000000000001</ele><time>2026-04-26T08:28:16Z</time></trkpt><trkpt lat="38.02116442090256" lon="15.136639252898716"><ele>577.0</ele><time>2026-04-26T08:28:17Z</time></trkpt><trkpt lat="38.021139160928705" lon="15.136516482417754"><ele>574.2</ele><time>2026-04-26T08:28:18Z</time></trkpt><trkpt lat="38.02114270053155" lon="15.136402653114951"><ele>571.4000000000001</ele><time>2026-04-26T08:28:19Z</time></trkpt><trkpt lat="38.02115028899222" lon="15.136280473469517"><ele>568.5999999999999</ele><time>2026-04-26T08:28:20Z</time></trkpt><trkpt lat="38.02115842865769" lon="15.136144430100614"><ele>565.8</ele><time>2026-04-26T08:28:21Z</time></trkpt><trkpt lat="38.02116806038962" lon="15.135996560619915"><ele>563.0</ele><time>2026-04-26T08:28:22Z</time></trkpt><trkpt lat="38.021193587908044" lon="15.135851304178635"><ele>559.4</ele><time>2026-04-26T08:28:23Z</time></trkpt><trkpt lat="38.0212530652005" lon="15.135711479857612"><ele>555.8</ele><time>2026-04-26T08:28:24Z</time></trkpt><trkpt lat="38.02130876549065" lon="15.135588136453793"><ele>552.2</ele><time>2026-04-26T08:28:25Z</time></trkpt><trkpt lat="38.02135736563768" lon="15.135482942925815"><ele>548.6</ele><time>2026-04-26T08:28:26Z</time></trkpt><trkpt lat="38.02141678307896" lon="15.135398368498814"><ele>545.0</ele><time>2026-04-26T08:28:27Z</time></trkpt><trkpt lat="38.021508876716695" lon="15.135368154982883"><ele>545.0</ele><time>2026-04-26T08:28:28Z</time></trkpt><trkpt lat="38.021595562838414" lon="15.1353103978086"><ele>545.0</ele><time>2026-04-26T08:28:29Z</time></trkpt><trkpt lat="38.0216965606597" lon="15.135237039060986"><ele>545.0</ele><time>2026-04-26T08:28:30Z</time></trkpt><trkpt lat="38.02180386852666" lon="15.135154897428974"><ele>545.0</ele><time>2026-04-26T08:28:31Z</time></trkpt><trkpt lat="38.02191890689476" lon="15.135089624214958"><ele>545.5</ele><time>2026-04-26T08:28:32Z</time></trkpt><trkpt lat="38.02203710251725" lon="15.135019168697472"><ele>546.0</ele><time>2026-04-26T08:28:33Z</time></trkpt><trkpt lat="38.02215550757456" lon="15.134915991226531"><ele>546.5</ele><time>2026-04-26T08:28:34Z</time></trkpt><trkpt lat="38.02227420314291" lon="15.134844698613874"><ele>547.0</ele><time>2026-04-26T08:28:35Z</time></trkpt><trkpt lat="38.02235225627083" lon="15.13469336004235"><ele>547.0</ele><time>2026-04-26T08:28:36Z</time></trkpt><trkpt lat="38.02240744253189" lon="15.134520299018739"><ele>547.0</ele><time>2026-04-26T08:28:37Z</time></trkpt><trkpt lat="38.022499776679176" lon="15.13439107616514"><ele>547.0</ele><time>2026-04-26T08:28:38Z</time></trkpt><trkpt lat="38.02261816859595" lon="15.134292059635946"><ele>547.0</ele><time>2026-04-26T08:28:39Z</time></trkpt><trkpt lat="38.022733953622414" lon="15.134217876235994"><ele>548.6</ele><time>2026-04-26T08:28:40Z</time></trkpt><trkpt lat="38.02285054717596" lon="15.134210540808475"><ele>550.2</ele><time>2026-04-26T08:28:41Z</time></trkpt><trkpt lat="38.022959367708324" lon="15.134150834030619"><ele>551.8</ele><time>2026-04-26T08:28:42Z</time></trkpt><trkpt lat="38.02302630364526" lon="15.134045974724492"><ele>553.4</ele><time>2026-04-26T08:28:43Z</time></trkpt><trkpt lat="38.023050581147025" lon="15.13392007889436"><ele>555.0</ele><time>2026-04-26T08:28:44Z</time></trkpt><trkpt lat="38.02305953389089" lon="15.133786896294609"><ele>555.0</ele><time>2026-04-26T08:28:45Z</time></trkpt><trkpt lat="38.02302455043918" lon="15.133626284486258"><ele>555.0</ele><time>2026-04-26T08:28:46Z</time></trkpt><trkpt lat="38.02298870938129" lon="15.133473061775563"><ele>555.0</ele><time>2026-04-26T08:28:47Z</time></trkpt><trkpt lat="38.02298552672453" lon="15.13332608268419"><ele>555.0</ele><time>2026-04-26T08:28:48Z</time></trkpt><trkpt lat="38.02302145448025" lon="15.133184366764905"><ele>557.25</ele><time>2026-04-26T08:28:49Z</time></trkpt><trkpt lat="38.023104913760676" lon="15.13308458686912"><ele>559.5</ele><time>2026-04-26T08:28:50Z</time></trkpt><trkpt lat="38.02320875122457" lon="15.133033306613298"><ele>561.75</ele><time>2026-04-26T08:28:51Z</time></trkpt><trkpt lat="38.023312157038326" lon="15.132980472684494"><ele>564.0</ele><time>2026-04-26T08:28:52Z</time></trkpt><trkpt lat="38.02342724763734" lon="15.132932398930267"><ele>564.0</ele><time>2026-04-26T08:28:53Z</time></trkpt><trkpt lat="38.02355506090993" lon="15.132886300833427"><ele>564.0</ele><time>2026-04-26T08:28:54Z</time></trkpt><trkpt lat="38.02368563147607" lon="15.132825470779958"><ele>564.0</ele><time>2026-04-26T08:28:55Z</time></trkpt><trkpt lat="38.023805770855375" lon="15.132725291803716"><ele>564.0</ele><time>2026-04-26T08:28:56Z</time></trkpt><trkpt lat="38.0239169827988" lon="15.132593046916119"><ele>564.0</ele><time>2026-04-26T08:28:57Z</time></trkpt><trkpt lat="38.02403428127157" lon="15.132461655114199"><ele>564.0</ele><time>2026-04-26T08:28:58Z</time></trkpt><trkpt lat="38.02415895810576" lon="15.132337851488979"><ele>564.0</ele><time>2026-04-26T08:28:59Z</time></trkpt><trkpt lat="38.02428385582482" lon="15.13221795159952"><ele>563.25</ele><time>2026-04-26T08:29:00Z</time></trkpt><trkpt lat="38.024393704786455" lon="15.132098144356465"><ele>562.5</ele><time>2026-04-26T08:29:01Z</time></trkpt><trkpt lat="38.02450791728579" lon="15.13198129961602"><ele>561.75</ele><time>2026-04-26T08:29:02Z</time></trkpt><trkpt lat="38.024619509587396" lon="15.131871627364475"><ele>561.0</ele><time>2026-04-26T08:29:03Z</time></trkpt><trkpt lat="38.02472702609681" lon="15.131753709493726"><ele>561.0</ele><time>2026-04-26T08:29:04Z</time></trkpt><trkpt lat="38.02483223544864" lon="15.131624422815046"><ele>561.0</ele><time>2026-04-26T08:29:05Z</time></trkpt><trkpt lat="38.024940685787996" lon="15.131499687543446"><ele>561.0</ele><time>2026-04-26T08:29:06Z</time></trkpt><trkpt lat="38.025057925521985" lon="15.131385316020044"><ele>561.0</ele><time>2026-04-26T08:29:07Z</time></trkpt><trkpt lat="38.02518462734333" lon="15.131278816590102"><ele>559.6666666666666</ele><time>2026-04-26T08:29:08Z</time></trkpt><trkpt lat="38.02531875285079" lon="15.131185759730611"><ele>558.3333333333333</ele><time>2026-04-26T08:29:09Z</time></trkpt><trkpt lat="38.02545659566164" lon="15.131112757494915"><ele>557.0</ele><time>2026-04-26T08:29:10Z</time></trkpt><trkpt lat="38.02558278567876" lon="15.130995075969956"><ele>557.0</ele><time>2026-04-26T08:29:11Z</time></trkpt><trkpt lat="38.025671148273204" lon="15.130860310553015"><ele>557.0</ele><time>2026-04-26T08:29:12Z</time></trkpt><trkpt lat="38.02575434934893" lon="15.130736394008263"><ele>557.0</ele><time>2026-04-26T08:29:13Z</time></trkpt><trkpt lat="38.02585750190866" lon="15.13065228773942"><ele>557.0</ele><time>2026-04-26T08:29:14Z</time></trkpt><trkpt lat="38.02597975453953" lon="15.13060171070595"><ele>555.75</ele><time>2026-04-26T08:29:15Z</time></trkpt><trkpt lat="38.02610389503255" lon="15.130589832635293"><ele>554.5</ele><time>2026-04-26T08:29:16Z</time></trkpt><trkpt lat="38.026233918250874" lon="15.130614474793834"><ele>553.25</ele><time>2026-04-26T08:29:17Z</time></trkpt><trkpt lat="38.02634467278136" lon="15.130674139723812"><ele>552.0</ele><time>2026-04-26T08:29:18Z</time></trkpt><trkpt lat="38.02648796726401" lon="15.130732621592468"><ele>552.6666666666666</ele><time>2026-04-26T08:29:19Z</time></trkpt><trkpt lat="38.026630397151976" lon="15.130756159068723"><ele>553.3333333333333</ele><time>2026-04-26T08:29:20Z</time></trkpt><trkpt lat="38.02678690187953" lon="15.130741969109488"><ele>554.0</ele><time>2026-04-26T08:29:21Z</time></trkpt><trkpt lat="38.0269377090693" lon="15.130691799703591"><ele>554.0</ele><time>2026-04-26T08:29:22Z</time></trkpt><trkpt lat="38.02708301052891" lon="15.130631369287144"><ele>554.0</ele><time>2026-04-26T08:29:23Z</time></trkpt><trkpt lat="38.02722783423486" lon="15.130558646801852"><ele>554.0</ele><time>2026-04-26T08:29:24Z</time></trkpt><trkpt lat="38.02737198300847" lon="15.130482261847195"><ele>557.6666666666666</ele><time>2026-04-26T08:29:25Z</time></trkpt><trkpt lat="38.02751730232439" lon="15.130398918960873"><ele>561.3333333333334</ele><time>2026-04-26T08:29:26Z</time></trkpt><trkpt lat="38.027670717935166" lon="15.130326855221591"><ele>565.0</ele><time>2026-04-26T08:29:27Z</time></trkpt><trkpt lat="38.02782744933871" lon="15.130253563262483"><ele>565.0</ele><time>2026-04-26T08:29:28Z</time></trkpt><trkpt lat="38.027978352722876" lon="15.130178072181248"><ele>565.0</ele><time>2026-04-26T08:29:29Z</time></trkpt><trkpt lat="38.02811680560038" lon="15.130120688612045"><ele>565.0</ele><time>2026-04-26T08:29:30Z</time></trkpt><trkpt lat="38.028244070337855" lon="15.13007662609489"><ele>565.0</ele><time>2026-04-26T08:29:31Z</time></trkpt><trkpt lat="38.028357454312136" lon="15.130047026607139"><ele>567.25</ele><time>2026-04-26T08:29:32Z</time></trkpt><trkpt lat="38.028468918806404" lon="15.130065941764995"><ele>569.5</ele><time>2026-04-26T08:29:33Z</time></trkpt><trkpt lat="38.02856107371048" lon="15.130142633620924"><ele>571.75</ele><time>2026-04-26T08:29:34Z</time></trkpt><trkpt lat="38.02865810634511" lon="15.130237296020184"><ele>574.0</ele><time>2026-04-26T08:29:35Z</time></trkpt><trkpt lat="38.028761932030704" lon="15.130332077184514"><ele>574.0</ele><time>2026-04-26T08:29:36Z</time></trkpt><trkpt lat="38.02885043395116" lon="15.13044923220915"><ele>574.0</ele><time>2026-04-26T08:29:37Z</time></trkpt><trkpt lat="38.028918099712364" lon="15.130570120223576"><ele>574.0</ele><time>2026-04-26T08:29:38Z</time></trkpt><trkpt lat="38.029000107262725" lon="15.130648185167013"><ele>574.0</ele><time>2026-04-26T08:29:39Z</time></trkpt><trkpt lat="38.0291074410288" lon="15.130678839446896"><ele>569.75</ele><time>2026-04-26T08:29:40Z</time></trkpt><trkpt lat="38.02922689101785" lon="15.130644661181744"><ele>565.5</ele><time>2026-04-26T08:29:41Z</time></trkpt><trkpt lat="38.029340023298424" lon="15.130608141424165"><ele>561.25</ele><time>2026-04-26T08:29:42Z</time></trkpt><trkpt lat="38.029448376696266" lon="15.130557229284618"><ele>557.0</ele><time>2026-04-26T08:29:43Z</time></trkpt><trkpt lat="38.029536784403675" lon="15.130505729715182"><ele>557.0</ele><time>2026-04-26T08:29:44Z</time></trkpt><trkpt lat="38.02963832904316" lon="15.130460199442288"><ele>557.0</ele><time>2026-04-26T08:29:45Z</time></trkpt><trkpt lat="38.02973824046176" lon="15.130406004769716"><ele>557.0</ele><time>2026-04-26T08:29:46Z</time></trkpt><trkpt lat="38.02982618138167" lon="15.13032752905815"><ele>557.0</ele><time>2026-04-26T08:29:47Z</time></trkpt><trkpt lat="38.02991768194042" lon="15.130255326366353"><ele>557.0</ele><time>2026-04-26T08:29:48Z</time></trkpt><trkpt lat="38.03001660318445" lon="15.130190240676127"><ele>560.25</ele><time>2026-04-26T08:29:49Z</time></trkpt><trkpt lat="38.03011010940077" lon="15.130103568055087"><ele>563.5</ele><time>2026-04-26T08:29:50Z</time></trkpt><trkpt lat="38.03020685256768" lon="15.130007867924451"><ele>566.75</ele><time>2026-04-26T08:29:51Z</time></trkpt><trkpt lat="38.03030925360888" lon="15.129912885179568"><ele>570.0</ele><time>2026-04-26T08:29:52Z</time></trkpt><trkpt lat="38.03041273561922" lon="15.129808178253192"><ele>561.0</ele><time>2026-04-26T08:29:53Z</time></trkpt><trkpt lat="38.03051581023067" lon="15.129699812241636"><ele>552.0</ele><time>2026-04-26T08:29:54Z</time></trkpt><trkpt lat="38.030610315908376" lon="15.129581852721689"><ele>543.0</ele><time>2026-04-26T08:29:55Z</time></trkpt><trkpt lat="38.030678677528286" lon="15.129442845978636"><ele>534.0</ele><time>2026-04-26T08:29:56Z</time></trkpt><trkpt lat="38.030756984448445" lon="15.129305736730494"><ele>534.5</ele><time>2026-04-26T08:29:57Z</time></trkpt><trkpt lat="38.030864161987196" lon="15.129199412923686"><ele>535.0</ele><time>2026-04-26T08:29:58Z</time></trkpt><trkpt lat="38.03099319916949" lon="15.129130139630208"><ele>535.5</ele><time>2026-04-26T08:29:59Z</time></trkpt><trkpt lat="38.031135711693885" lon="15.129090243883486"><ele>536.0</ele><time>2026-04-26T08:30:00Z</time></trkpt><trkpt lat="38.031285997267375" lon="15.129038480558341"><ele>536.0</ele><time>2026-04-26T08:30:01Z</time></trkpt><trkpt lat="38.03143501330198" lon="15.128969028383462"><ele>536.0</ele><time>2026-04-26T08:30:02Z</time></trkpt><trkpt lat="38.031568728644864" lon="15.12886372625704"><ele>536.0</ele><time>2026-04-26T08:30:03Z</time></trkpt><trkpt lat="38.03170360930436" lon="15.128742796918319"><ele>539.3333333333333</ele><time>2026-04-26T08:30:04Z</time></trkpt><trkpt lat="38.03184366193057" lon="15.128617996525016"><ele>542.6666666666666</ele><time>2026-04-26T08:30:05Z</time></trkpt><trkpt lat="38.03199737068083" lon="15.128512719622224"><ele>546.0</ele><time>2026-04-26T08:30:06Z</time></trkpt><trkpt lat="38.03215283852027" lon="15.128426223647688"><ele>546.0</ele><time>2026-04-26T08:30:07Z</time></trkpt><trkpt lat="38.03231376232114" lon="15.128359909839151"><ele>546.0</ele><time>2026-04-26T08:30:08Z</time></trkpt><trkpt lat="38.03247170820603" lon="15.128328480189905"><ele>546.0</ele><time>2026-04-26T08:30:09Z</time></trkpt><trkpt lat="38.0326225342753" lon="15.128341589483114"><ele>549.25</ele><time>2026-04-26T08:30:10Z</time></trkpt><trkpt lat="38.03276498908107" lon="15.12837983087815"><ele>552.5</ele><time>2026-04-26T08:30:11Z</time></trkpt><trkpt lat="38.03289919613944" lon="15.128437789305677"><ele>555.75</ele><time>2026-04-26T08:30:12Z</time></trkpt><trkpt lat="38.03302481677374" lon="15.128540428654842"><ele>559.0</ele><time>2026-04-26T08:30:13Z</time></trkpt><trkpt lat="38.03311505175982" lon="15.128638521548577"><ele>559.0</ele><time>2026-04-26T08:30:14Z</time></trkpt><trkpt lat="38.03321071440203" lon="15.128679828757807"><ele>559.0</ele><time>2026-04-26T08:30:15Z</time></trkpt><trkpt lat="38.033315132475835" lon="15.128638106065484"><ele>559.0</ele><time>2026-04-26T08:30:16Z</time></trkpt><trkpt lat="38.03340466933071" lon="15.128543321584633"><ele>559.0</ele><time>2026-04-26T08:30:17Z</time></trkpt><trkpt lat="38.033479308320246" lon="15.128428847123056"><ele>559.0</ele><time>2026-04-26T08:30:18Z</time></trkpt><trkpt lat="38.033566971715835" lon="15.128341932778872"><ele>558.6</ele><time>2026-04-26T08:30:19Z</time></trkpt><trkpt lat="38.03367844891569" lon="15.128328789086273"><ele>558.2</ele><time>2026-04-26T08:30:20Z</time></trkpt><trkpt lat="38.03377211377148" lon="15.128393985840496"><ele>557.8000000000001</ele><time>2026-04-26T08:30:21Z</time></trkpt><trkpt lat="38.03380832569737" lon="15.12850241230739"><ele>557.4</ele><time>2026-04-26T08:30:22Z</time></trkpt><trkpt lat="38.03384734825239" lon="15.12862373224762"><ele>557.0</ele><time>2026-04-26T08:30:23Z</time></trkpt><trkpt lat="38.033913745529816" lon="15.128736146740614"><ele>557.0</ele><time>2026-04-26T08:30:24Z</time></trkpt><trkpt lat="38.03398727643344" lon="15.128858571940375"><ele>557.0</ele><time>2026-04-26T08:30:25Z</time></trkpt><trkpt lat="38.03409317009117" lon="15.128956496239713"><ele>557.0</ele><time>2026-04-26T08:30:26Z</time></trkpt><trkpt lat="38.03422627683974" lon="15.12900229822284"><ele>557.0</ele><time>2026-04-26T08:30:27Z</time></trkpt><trkpt lat="38.0343815025189" lon="15.12900180991438"><ele>559.6666666666666</ele><time>2026-04-26T08:30:28Z</time></trkpt><trkpt lat="38.034529410693764" lon="15.129063924164427"><ele>562.3333333333334</ele><time>2026-04-26T08:30:29Z</time></trkpt><trkpt lat="38.03466140942279" lon="15.129170510283483"><ele>565.0</ele><time>2026-04-26T08:30:30Z</time></trkpt><trkpt lat="38.03479780407939" lon="15.129250593135078"><ele>565.0</ele><time>2026-04-26T08:30:31Z</time></trkpt><trkpt lat="38.03493321831392" lon="15.129328642766461"><ele>565.0</ele><time>2026-04-26T08:30:32Z</time></trkpt><trkpt lat="38.03504867248254" lon="15.129407922712486"><ele>565.0</ele><time>2026-04-26T08:30:33Z</time></trkpt><trkpt lat="38.03514198882861" lon="15.129490116117633"><ele>565.0</ele><time>2026-04-26T08:30:34Z</time></trkpt><trkpt lat="38.03519607463175" lon="15.129601681424388"><ele>563.2</ele><time>2026-04-26T08:30:35Z</time></trkpt><trkpt lat="38.03520911418914" lon="15.129729546701979"><ele>561.4</ele><time>2026-04-26T08:30:36Z</time></trkpt><trkpt lat="38.03519235443123" lon="15.129873105493191"><ele>559.6</ele><time>2026-04-26T08:30:37Z</time></trkpt><trkpt lat="38.03515503685886" lon="15.130007328926123"><ele>557.8</ele><time>2026-04-26T08:30:38Z</time></trkpt><trkpt lat="38.03512198222994" lon="15.130144171438388"><ele>556.0</ele><time>2026-04-26T08:30:39Z</time></trkpt><trkpt lat="38.03509929132218" lon="15.130273651956182"><ele>556.0</ele><time>2026-04-26T08:30:40Z</time></trkpt><trkpt lat="38.0350846327013" lon="15.130395502955428"><ele>556.0</ele><time>2026-04-26T08:30:41Z</time></trkpt><trkpt lat="38.035102769934575" lon="15.130507358689298"><ele>556.0</ele><time>2026-04-26T08:30:42Z</time></trkpt><trkpt lat="38.03516831965412" lon="15.13059434149905"><ele>556.0</ele><time>2026-04-26T08:30:43Z</time></trkpt><trkpt lat="38.03526077512954" lon="15.13063245992319"><ele>556.0</ele><time>2026-04-26T08:30:44Z</time></trkpt><trkpt lat="38.03536676265004" lon="15.130656177157107"><ele>556.0</ele><time>2026-04-26T08:30:45Z</time></trkpt><trkpt lat="38.035469299025834" lon="15.13067990094114"><ele>556.0</ele><time>2026-04-26T08:30:46Z</time></trkpt><trkpt lat="38.03557476207742" lon="15.130693035472035"><ele>556.0</ele><time>2026-04-26T08:30:47Z</time></trkpt><trkpt lat="38.03569810124477" lon="15.130682560259945"><ele>556.0</ele><time>2026-04-26T08:30:48Z</time></trkpt><trkpt lat="38.03581679151475" lon="15.130622356898359"><ele>549.0</ele><time>2026-04-26T08:30:49Z</time></trkpt><trkpt lat="38.035925446869705" lon="15.130515049329338"><ele>542.0</ele><time>2026-04-26T08:30:50Z</time></trkpt><trkpt lat="38.036024135860316" lon="15.130391988558992"><ele>535.0</ele><time>2026-04-26T08:30:51Z</time></trkpt><trkpt lat="38.03613109553998" lon="15.130283842567025"><ele>528.0</ele><time>2026-04-26T08:30:52Z</time></trkpt><trkpt lat="38.03626533238465" lon="15.130227538734331"><ele>528.0</ele><time>2026-04-26T08:30:53Z</time></trkpt><trkpt lat="38.03639523425789" lon="15.130214673212501"><ele>528.0</ele><time>2026-04-26T08:30:54Z</time></trkpt><trkpt lat="38.03651987901611" lon="15.130220011323699"><ele>528.0</ele><time>2026-04-26T08:30:55Z</time></trkpt><trkpt lat="38.03664144068034" lon="15.130234798083505"><ele>528.0</ele><time>2026-04-26T08:30:56Z</time></trkpt><trkpt lat="38.03676308820356" lon="15.130260127625798"><ele>526.25</ele><time>2026-04-26T08:30:57Z</time></trkpt><trkpt lat="38.03688632634714" lon="15.130310130753712"><ele>524.5</ele><time>2026-04-26T08:30:58Z</time></trkpt><trkpt lat="38.03700374913556" lon="15.130372874775194"><ele>522.75</ele><time>2026-04-26T08:30:59Z</time></trkpt><trkpt lat="38.03710484772161" lon="15.130468735922658"><ele>521.0</ele><time>2026-04-26T08:31:00Z</time></trkpt><trkpt lat="38.037181619789635" lon="15.130594435517546"><ele>521.0</ele><time>2026-04-26T08:31:01Z</time></trkpt><trkpt lat="38.03723044490665" lon="15.1307168915054"><ele>521.0</ele><time>2026-04-26T08:31:02Z</time></trkpt><trkpt lat="38.037290131842276" lon="15.130807144859846"><ele>521.0</ele><time>2026-04-26T08:31:03Z</time></trkpt><trkpt lat="38.03738404069449" lon="15.130838851042638"><ele>521.0</ele><time>2026-04-26T08:31:04Z</time></trkpt><trkpt lat="38.03749572301145" lon="15.13083330936728"><ele>521.0</ele><time>2026-04-26T08:31:05Z</time></trkpt><trkpt lat="38.03760877620972" lon="15.130801657788108"><ele>519.25</ele><time>2026-04-26T08:31:06Z</time></trkpt><trkpt lat="38.037722373911166" lon="15.130720107392406"><ele>517.5</ele><time>2026-04-26T08:31:07Z</time></trkpt><trkpt lat="38.03780245396156" lon="15.130595982266117"><ele>515.75</ele><time>2026-04-26T08:31:08Z</time></trkpt><trkpt lat="38.03788905096212" lon="15.130473908792656"><ele>514.0</ele><time>2026-04-26T08:31:09Z</time></trkpt><trkpt lat="38.037958442963216" lon="15.130321233483375"><ele>514.0</ele><time>2026-04-26T08:31:10Z</time></trkpt><trkpt lat="38.03803482661904" lon="15.130174679625885"><ele>514.0</ele><time>2026-04-26T08:31:11Z</time></trkpt><trkpt lat="38.03804648887752" lon="15.129988108399433"><ele>514.0</ele><time>2026-04-26T08:31:12Z</time></trkpt><trkpt lat="38.038049505683674" lon="15.129799840017949"><ele>514.0</ele><time>2026-04-26T08:31:13Z</time></trkpt><trkpt lat="38.03808489808801" lon="15.129608302997585"><ele>507.33333333333337</ele><time>2026-04-26T08:31:14Z</time></trkpt><trkpt lat="38.038156335970186" lon="15.129433858531485"><ele>500.66666666666663</ele><time>2026-04-26T08:31:15Z</time></trkpt><trkpt lat="38.038232283805925" lon="15.12925624273978"><ele>494.0</ele><time>2026-04-26T08:31:16Z</time></trkpt><trkpt lat="38.038306608468694" lon="15.129057114557574"><ele>494.0</ele><time>2026-04-26T08:31:17Z</time></trkpt><trkpt lat="38.03840356126127" lon="15.128866761300964"><ele>494.0</ele><time>2026-04-26T08:31:18Z</time></trkpt><trkpt lat="38.038499984623144" lon="15.128675885712022"><ele>494.0</ele><time>2026-04-26T08:31:19Z</time></trkpt><trkpt lat="38.03860612960931" lon="15.128492981744253"><ele>494.0</ele><time>2026-04-26T08:31:20Z</time></trkpt><trkpt lat="38.03870908034127" lon="15.128314744254322"><ele>494.0</ele><time>2026-04-26T08:31:21Z</time></trkpt><trkpt lat="38.038816195383596" lon="15.128157731131136"><ele>494.0</ele><time>2026-04-26T08:31:22Z</time></trkpt><trkpt lat="38.03889628968917" lon="15.12798736878239"><ele>495.0</ele><time>2026-04-26T08:31:23Z</time></trkpt><trkpt lat="38.03895330010523" lon="15.127808619273077"><ele>496.0</ele><time>2026-04-26T08:31:24Z</time></trkpt><trkpt lat="38.039025393150666" lon="15.127669824881693"><ele>497.0</ele><time>2026-04-26T08:31:25Z</time></trkpt><trkpt lat="38.03909901305126" lon="15.127567138618371"><ele>498.0</ele><time>2026-04-26T08:31:26Z</time></trkpt><trkpt lat="38.03919833924624" lon="15.127510106278454"><ele>498.0</ele><time>2026-04-26T08:31:27Z</time></trkpt><trkpt lat="38.03931478646561" lon="15.12750578910641"><ele>498.0</ele><time>2026-04-26T08:31:28Z</time></trkpt><trkpt lat="38.03943831562854" lon="15.127553922973156"><ele>498.0</ele><time>2026-04-26T08:31:29Z</time></trkpt><trkpt lat="38.03954197976543" lon="15.127647465495905"><ele>498.0</ele><time>2026-04-26T08:31:30Z</time></trkpt><trkpt lat="38.03963203661238" lon="15.127771439863588"><ele>498.0</ele><time>2026-04-26T08:31:31Z</time></trkpt><trkpt lat="38.03972569101814" lon="15.127856398384724"><ele>498.0</ele><time>2026-04-26T08:31:32Z</time></trkpt><trkpt lat="38.03982820669234" lon="15.127911260030489"><ele>498.0</ele><time>2026-04-26T08:31:33Z</time></trkpt><trkpt lat="38.039937029339384" lon="15.127901165877955"><ele>498.0</ele><time>2026-04-26T08:31:34Z</time></trkpt><trkpt lat="38.040048872618065" lon="15.127857944282367"><ele>495.75</ele><time>2026-04-26T08:31:35Z</time></trkpt><trkpt lat="38.040161125510934" lon="15.127819043591428"><ele>493.5</ele><time>2026-04-26T08:31:36Z</time></trkpt><trkpt lat="38.04027722554792" lon="15.127844150098998"><ele>491.25</ele><time>2026-04-26T08:31:37Z</time></trkpt><trkpt lat="38.040404454375484" lon="15.127898291874999"><ele>489.0</ele><time>2026-04-26T08:31:38Z</time></trkpt><trkpt lat="38.040526300626624" lon="15.127997032418614"><ele>489.0</ele><time>2026-04-26T08:31:39Z</time></trkpt><trkpt lat="38.04065270905269" lon="15.128081298193523"><ele>489.0</ele><time>2026-04-26T08:31:40Z</time></trkpt><trkpt lat="38.04079937062074" lon="15.128104926070774"><ele>489.0</ele><time>2026-04-26T08:31:41Z</time></trkpt><trkpt lat="38.040953617315026" lon="15.128130576615796"><ele>489.0</ele><time>2026-04-26T08:31:42Z</time></trkpt><trkpt lat="38.04110424887717" lon="15.128183684874426"><ele>493.33333333333337</ele><time>2026-04-26T08:31:43Z</time></trkpt><trkpt lat="38.041241827462095" lon="15.128286801377568"><ele>497.6666666666667</ele><time>2026-04-26T08:31:44Z</time></trkpt><trkpt lat="38.04137104499005" lon="15.128405641350964"><ele>502.0</ele><time>2026-04-26T08:31:45Z</time></trkpt><trkpt lat="38.041490452955564" lon="15.128539997045207"><ele>502.0</ele><time>2026-04-26T08:31:46Z</time></trkpt><trkpt lat="38.0415949680924" lon="15.128677633510952"><ele>502.0</ele><time>2026-04-26T08:31:47Z</time></trkpt><trkpt lat="38.04169326111362" lon="15.128804633945295"><ele>502.0</ele><time>2026-04-26T08:31:48Z</time></trkpt><trkpt lat="38.041748861931275" lon="15.128946114626633"><ele>502.0</ele><time>2026-04-26T08:31:49Z</time></trkpt><trkpt lat="38.04177817272613" lon="15.12905985245922"><ele>503.0</ele><time>2026-04-26T08:31:50Z</time></trkpt><trkpt lat="38.04182062811621" lon="15.129134942097712"><ele>504.00000000000006</ele><time>2026-04-26T08:31:51Z</time></trkpt><trkpt lat="38.04191029125653" lon="15.129176279044813"><ele>505.00000000000006</ele><time>2026-04-26T08:31:52Z</time></trkpt><trkpt lat="38.04201027626923" lon="15.129173750525357"><ele>506.0</ele><time>2026-04-26T08:31:53Z</time></trkpt><trkpt lat="38.04211797930756" lon="15.129152499190242"><ele>507.0</ele><time>2026-04-26T08:31:54Z</time></trkpt><trkpt lat="38.04224003535691" lon="15.12912409900591"><ele>507.0</ele><time>2026-04-26T08:31:55Z</time></trkpt><trkpt lat="38.04236284343714" lon="15.129081010687155"><ele>507.0</ele><time>2026-04-26T08:31:56Z</time></trkpt><trkpt lat="38.04248606150751" lon="15.12901941753047"><ele>507.0</ele><time>2026-04-26T08:31:57Z</time></trkpt><trkpt lat="38.042610644218776" lon="15.128931441205582"><ele>507.0</ele><time>2026-04-26T08:31:58Z</time></trkpt><trkpt lat="38.042746095908676" lon="15.128864075574743"><ele>492.33333333333337</ele><time>2026-04-26T08:31:59Z</time></trkpt><trkpt lat="38.04289530801069" lon="15.128818814305042"><ele>477.6666666666667</ele><time>2026-04-26T08:32:00Z</time></trkpt><trkpt lat="38.04304997355999" lon="15.12880317861253"><ele>463.0</ele><time>2026-04-26T08:32:01Z</time></trkpt><trkpt lat="38.0432023882566" lon="15.128800719011494"><ele>465.25</ele><time>2026-04-26T08:32:02Z</time></trkpt><trkpt lat="38.04334611736567" lon="15.128781026346815"><ele>467.5</ele><time>2026-04-26T08:32:03Z</time></trkpt><trkpt lat="38.04347375247524" lon="15.128749673383656"><ele>469.75</ele><time>2026-04-26T08:32:04Z</time></trkpt><trkpt lat="38.043592148897545" lon="15.128704956252912"><ele>472.0</ele><time>2026-04-26T08:32:05Z</time></trkpt><trkpt lat="38.043698069345055" lon="15.128647417968665"><ele>472.0</ele><time>2026-04-26T08:32:06Z</time></trkpt><trkpt lat="38.04379373092378" lon="15.128581852761332"><ele>472.00000000000006</ele><time>2026-04-26T08:32:07Z</time></trkpt><trkpt lat="38.043882741998424" lon="15.128521137954694"><ele>472.00000000000006</ele><time>2026-04-26T08:32:08Z</time></trkpt><trkpt lat="38.04397513730886" lon="15.12846665779514"><ele>472.0</ele><time>2026-04-26T08:32:09Z</time></trkpt><trkpt lat="38.044032519992705" lon="15.128364010683752"><ele>472.0</ele><time>2026-04-26T08:32:10Z</time></trkpt><trkpt lat="38.04403620242512" lon="15.128235131329701"><ele>469.20000000000005</ele><time>2026-04-26T08:32:11Z</time></trkpt><trkpt lat="38.04399145851673" lon="15.128109735376672"><ele>466.40000000000003</ele><time>2026-04-26T08:32:12Z</time></trkpt><trkpt lat="38.043925871754446" lon="15.128001040650462"><ele>463.59999999999997</ele><time>2026-04-26T08:32:13Z</time></trkpt><trkpt lat="38.04385675284128" lon="15.127886130482036"><ele>460.79999999999995</ele><time>2026-04-26T08:32:14Z</time></trkpt><trkpt lat="38.043792777713506" lon="15.127760314639055"><ele>458.0</ele><time>2026-04-26T08:32:15Z</time></trkpt><trkpt lat="38.043744403829" lon="15.12761934184541"><ele>458.0</ele><time>2026-04-26T08:32:16Z</time></trkpt><trkpt lat="38.043713856547264" lon="15.127469322710192"><ele>458.0</ele><time>2026-04-26T08:32:17Z</time></trkpt><trkpt lat="38.043703220909045" lon="15.127309031886146"><ele>458.0</ele><time>2026-04-26T08:32:18Z</time></trkpt><trkpt lat="38.04364846415391" lon="15.127168918525784"><ele>458.0</ele><time>2026-04-26T08:32:19Z</time></trkpt><trkpt lat="38.04359683880704" lon="15.127036847604344"><ele>458.59999999999997</ele><time>2026-04-26T08:32:20Z</time></trkpt><trkpt lat="38.043547364467265" lon="15.126907054230509"><ele>459.19999999999993</ele><time>2026-04-26T08:32:21Z</time></trkpt><trkpt lat="38.04350770890612" lon="15.126780487117795"><ele>459.8</ele><time>2026-04-26T08:32:22Z</time></trkpt><trkpt lat="38.04348778311663" lon="15.126648518770294"><ele>460.4</ele><time>2026-04-26T08:32:23Z</time></trkpt><trkpt lat="38.043480692638255" lon="15.126508193546217"><ele>461.0</ele><time>2026-04-26T08:32:24Z</time></trkpt><trkpt lat="38.04347795180759" lon="15.126365356678168"><ele>459.8</ele><time>2026-04-26T08:32:25Z</time></trkpt><trkpt lat="38.04346502601367" lon="15.126216912772195"><ele>458.6</ele><time>2026-04-26T08:32:26Z</time></trkpt><trkpt lat="38.0434652941751" lon="15.126076013055519"><ele>457.4</ele><time>2026-04-26T08:32:27Z</time></trkpt><trkpt lat="38.04347256371332" lon="15.125947477642113"><ele>456.2</ele><time>2026-04-26T08:32:28Z</time></trkpt><trkpt lat="38.043472303273724" lon="15.125811325676418"><ele>455.0</ele><time>2026-04-26T08:32:29Z</time></trkpt><trkpt lat="38.043487866598184" lon="15.125699533724019"><ele>452.0</ele><time>2026-04-26T08:32:30Z</time></trkpt><trkpt lat="38.04352018792479" lon="15.12558993384304"><ele>449.0</ele><time>2026-04-26T08:32:31Z</time></trkpt><trkpt lat="38.043557358631304" lon="15.125474308522387"><ele>446.0</ele><time>2026-04-26T08:32:32Z</time></trkpt><trkpt lat="38.043594374298486" lon="15.12536753449503"><ele>443.0</ele><time>2026-04-26T08:32:33Z</time></trkpt><trkpt lat="38.04361037095057" lon="15.1252526511566"><ele>440.0</ele><time>2026-04-26T08:32:34Z</time></trkpt><trkpt lat="38.043636767734014" lon="15.125145746470698"><ele>439.99999999999994</ele><time>2026-04-26T08:32:35Z</time></trkpt><trkpt lat="38.04367519017952" lon="15.12504685524072"><ele>440.0</ele><time>2026-04-26T08:32:36Z</time></trkpt><trkpt lat="38.0437433143431" lon="15.124980911337326"><ele>440.0</ele><time>2026-04-26T08:32:37Z</time></trkpt><trkpt lat="38.043824893388404" lon="15.124957003531849"><ele>440.0</ele><time>2026-04-26T08:32:38Z</time></trkpt><trkpt lat="38.04389894764786" lon="15.124964383830257"><ele>439.99999999999994</ele><time>2026-04-26T08:32:39Z</time></trkpt><trkpt lat="38.04397205781217" lon="15.1249565663012"><ele>440.0</ele><time>2026-04-26T08:32:40Z</time></trkpt><trkpt lat="38.044044868381505" lon="15.124948774453571"><ele>439.99999999999994</ele><time>2026-04-26T08:32:41Z</time></trkpt><trkpt lat="38.04411378487446" lon="15.124940211930674"><ele>440.0</ele><time>2026-04-26T08:32:42Z</time></trkpt><trkpt lat="38.04418133885293" lon="15.124945426171353"><ele>440.0</ele><time>2026-04-26T08:32:43Z</time></trkpt><trkpt lat="38.044250181802155" lon="15.124926893370322"><ele>440.0</ele><time>2026-04-26T08:32:44Z</time></trkpt><trkpt lat="38.04431489304828" lon="15.1248999692635"><ele>440.0</ele><time>2026-04-26T08:32:45Z</time></trkpt><trkpt lat="38.04438423285269" lon="15.124868571094217"><ele>439.99999999999994</ele><time>2026-04-26T08:32:46Z</time></trkpt><trkpt lat="38.04444611009502" lon="15.124842607849343"><ele>440.0</ele><time>2026-04-26T08:32:47Z</time></trkpt><trkpt lat="38.04456715032074" lon="15.124814238105731"><ele>440.1428571428571</ele><time>2026-04-26T08:32:49Z</time></trkpt><trkpt lat="38.04464001445959" lon="15.124801515647784"><ele>440.2857142857143</ele><time>2026-04-26T08:32:50Z</time></trkpt><trkpt lat="38.044705328580434" lon="15.124788372839589"><ele>440.42857142857144</ele><time>2026-04-26T08:32:51Z</time></trkpt><trkpt lat="38.044779413720526" lon="15.124788105243347"><ele>440.57142857142856</ele><time>2026-04-26T08:32:52Z</time></trkpt><trkpt lat="38.04485664289153" lon="15.12478229184317"><ele>440.7142857142857</ele><time>2026-04-26T08:32:53Z</time></trkpt><trkpt lat="38.0449308767656" lon="15.12477697243403"><ele>440.85714285714283</ele><time>2026-04-26T08:32:54Z</time></trkpt><trkpt lat="38.04501200590131" lon="15.124779775145292"><ele>441.0</ele><time>2026-04-26T08:32:55Z</time></trkpt><trkpt lat="38.04508879701765" lon="15.12478069562611"><ele>441.0</ele><time>2026-04-26T08:32:56Z</time></trkpt><trkpt lat="38.045160255061276" lon="15.124794221463638"><ele>441.0</ele><time>2026-04-26T08:32:57Z</time></trkpt><trkpt lat="38.04522939896199" lon="15.124785905071146"><ele>441.0</ele><time>2026-04-26T08:32:58Z</time></trkpt><trkpt lat="38.045289975045385" lon="15.124752160743986"><ele>441.0</ele><time>2026-04-26T08:32:59Z</time></trkpt><trkpt lat="38.045345511993844" lon="15.124690746278448"><ele>441.0</ele><time>2026-04-26T08:33:00Z</time></trkpt><trkpt lat="38.045383180167384" lon="15.124623403550808"><ele>441.0</ele><time>2026-04-26T08:33:01Z</time></trkpt><trkpt lat="38.04541354662744" lon="15.1245476361574"><ele>441.0</ele><time>2026-04-26T08:33:02Z</time></trkpt><trkpt lat="38.04541649778757" lon="15.124452256576074"><ele>441.0</ele><time>2026-04-26T08:33:03Z</time></trkpt><trkpt lat="38.045408982671056" lon="15.124359313769958"><ele>441.0</ele><time>2026-04-26T08:33:04Z</time></trkpt><trkpt lat="38.04539597364361" lon="15.124274158023082"><ele>441.0</ele><time>2026-04-26T08:33:05Z</time></trkpt><trkpt lat="38.04538134181189" lon="15.124182636335606"><ele>441.0</ele><time>2026-04-26T08:33:06Z</time></trkpt><trkpt lat="38.045370677317194" lon="15.124091801164301"><ele>441.0</ele><time>2026-04-26T08:33:07Z</time></trkpt><trkpt lat="38.045374553200155" lon="15.123998233675417"><ele>441.0</ele><time>2026-04-26T08:33:08Z</time></trkpt><trkpt lat="38.045382982482096" lon="15.123884377495381"><ele>438.8</ele><time>2026-04-26T08:33:09Z</time></trkpt><trkpt lat="38.04537307928789" lon="15.123762989303252"><ele>436.6</ele><time>2026-04-26T08:33:10Z</time></trkpt><trkpt lat="38.045377966871534" lon="15.123641464225901"><ele>434.4</ele><time>2026-04-26T08:33:11Z</time></trkpt><trkpt lat="38.04540111005649" lon="15.123516849734735"><ele>432.2</ele><time>2026-04-26T08:33:12Z</time></trkpt><trkpt lat="38.04543679376153" lon="15.123394651894422"><ele>430.0</ele><time>2026-04-26T08:33:13Z</time></trkpt><trkpt lat="38.04545452836015" lon="15.123279263566968"><ele>431.1666666666667</ele><time>2026-04-26T08:33:14Z</time></trkpt><trkpt lat="38.045433830643944" lon="15.1231701648774"><ele>432.33333333333337</ele><time>2026-04-26T08:33:15Z</time></trkpt><trkpt lat="38.04537660040214" lon="15.123074584919717"><ele>433.5</ele><time>2026-04-26T08:33:16Z</time></trkpt><trkpt lat="38.04529782814448" lon="15.123003370883175"><ele>434.66666666666663</ele><time>2026-04-26T08:33:17Z</time></trkpt><trkpt lat="38.04524471755289" lon="15.122917850241908"><ele>435.8333333333333</ele><time>2026-04-26T08:33:18Z</time></trkpt><trkpt lat="38.0451866428329" lon="15.122842347274387"><ele>437.0</ele><time>2026-04-26T08:33:19Z</time></trkpt><trkpt lat="38.04512899920979" lon="15.122767278627338"><ele>437.0</ele><time>2026-04-26T08:33:20Z</time></trkpt><trkpt lat="38.04506744177007" lon="15.122708421200599"><ele>437.0</ele><time>2026-04-26T08:33:21Z</time></trkpt><trkpt lat="38.04502859826943" lon="15.122631475850344"><ele>437.0</ele><time>2026-04-26T08:33:22Z</time></trkpt><trkpt lat="38.044976857262746" lon="15.122556437723555"><ele>437.0</ele><time>2026-04-26T08:33:23Z</time></trkpt><trkpt lat="38.0449565617378" lon="15.122460370568845"><ele>437.0</ele><time>2026-04-26T08:33:24Z</time></trkpt><trkpt lat="38.04496969060229" lon="15.122375162823563"><ele>437.0</ele><time>2026-04-26T08:33:25Z</time></trkpt><trkpt lat="38.045000301676275" lon="15.122288486673874"><ele>437.0</ele><time>2026-04-26T08:33:26Z</time></trkpt><trkpt lat="38.04505260961058" lon="15.122222906332121"><ele>436.85714285714283</ele><time>2026-04-26T08:33:27Z</time></trkpt><trkpt lat="38.04510965471108" lon="15.122175316037286"><ele>436.7142857142857</ele><time>2026-04-26T08:33:28Z</time></trkpt><trkpt lat="38.04516967762251" lon="15.122136061334748"><ele>436.57142857142856</ele><time>2026-04-26T08:33:29Z</time></trkpt><trkpt lat="38.045225720758864" lon="15.1220921493804"><ele>436.42857142857144</ele><time>2026-04-26T08:33:30Z</time></trkpt><trkpt lat="38.045279632731926" lon="15.122043262109026"><ele>436.28571428571433</ele><time>2026-04-26T08:33:31Z</time></trkpt><trkpt lat="38.04533733355787" lon="15.121986340559392"><ele>436.14285714285717</ele><time>2026-04-26T08:33:32Z</time></trkpt><trkpt lat="38.0453948314712" lon="15.121920936361565"><ele>436.0</ele><time>2026-04-26T08:33:33Z</time></trkpt><trkpt lat="38.04543973951848" lon="15.121836874221335"><ele>436.00000000000006</ele><time>2026-04-26T08:33:34Z</time></trkpt><trkpt lat="38.045458719640706" lon="15.12173551119079"><ele>436.0</ele><time>2026-04-26T08:33:35Z</time></trkpt><trkpt lat="38.04545267446611" lon="15.121633095522007"><ele>436.0</ele><time>2026-04-26T08:33:36Z</time></trkpt><trkpt lat="38.04541670234502" lon="15.121529364865978"><ele>436.0</ele><time>2026-04-26T08:33:37Z</time></trkpt><trkpt lat="38.045375293585295" lon="15.121424675256868"><ele>436.00000000000006</ele><time>2026-04-26T08:33:38Z</time></trkpt><trkpt lat="38.04533606202965" lon="15.121314333544676"><ele>436.0</ele><time>2026-04-26T08:33:39Z</time></trkpt><trkpt lat="38.045290305462956" lon="15.121198448336791"><ele>434.6</ele><time>2026-04-26T08:33:40Z</time></trkpt><trkpt lat="38.04524723695912" lon="15.121082700978462"><ele>433.20000000000005</ele><time>2026-04-26T08:33:41Z</time></trkpt><trkpt lat="38.04520531268155" lon="15.120969560264532"><ele>431.79999999999995</ele><time>2026-04-26T08:33:42Z</time></trkpt><trkpt lat="38.04516652694448" lon="15.120855428539048"><ele>430.4</ele><time>2026-04-26T08:33:43Z</time></trkpt><trkpt lat="38.0451360681826" lon="15.120735895502886"><ele>429.0</ele><time>2026-04-26T08:33:44Z</time></trkpt><trkpt lat="38.04511114118444" lon="15.120621412569987"><ele>428.79999999999995</ele><time>2026-04-26T08:33:45Z</time></trkpt><trkpt lat="38.04509179558351" lon="15.12050901939681"><ele>428.59999999999997</ele><time>2026-04-26T08:33:46Z</time></trkpt><trkpt lat="38.045073463182995" lon="15.120399071248663"><ele>428.4</ele><time>2026-04-26T08:33:47Z</time></trkpt><trkpt lat="38.045067213298665" lon="15.120288805009803"><ele>428.2</ele><time>2026-04-26T08:33:48Z</time></trkpt><trkpt lat="38.045056403408026" lon="15.120170761447635"><ele>428.0</ele><time>2026-04-26T08:33:49Z</time></trkpt><trkpt lat="38.0450399625608" lon="15.12005756416492"><ele>428.0</ele><time>2026-04-26T08:33:50Z</time></trkpt><trkpt lat="38.04502417520423" lon="15.11994181490368"><ele>427.99999999999994</ele><time>2026-04-26T08:33:51Z</time></trkpt><trkpt lat="38.0450156836761" lon="15.119825077450471"><ele>427.99999999999994</ele><time>2026-04-26T08:33:52Z</time></trkpt><trkpt lat="38.045017389700405" lon="15.119705983693919"><ele>428.0</ele><time>2026-04-26T08:33:53Z</time></trkpt><trkpt lat="38.04503128468044" lon="15.119588976213393"><ele>428.0</ele><time>2026-04-26T08:33:54Z</time></trkpt><trkpt lat="38.0450618181868" lon="15.119470486836708"><ele>426.59999999999997</ele><time>2026-04-26T08:33:55Z</time></trkpt><trkpt lat="38.04510473262926" lon="15.11936060313239"><ele>425.19999999999993</ele><time>2026-04-26T08:33:56Z</time></trkpt><trkpt lat="38.045157860558916" lon="15.119255757192375"><ele>423.8</ele><time>2026-04-26T08:33:57Z</time></trkpt><trkpt lat="38.045215049382335" lon="15.119154450925633"><ele>422.4</ele><time>2026-04-26T08:33:58Z</time></trkpt><trkpt lat="38.045272270323075" lon="15.119053989227192"><ele>421.0</ele><time>2026-04-26T08:33:59Z</time></trkpt><trkpt lat="38.045328033499985" lon="15.118953640526646"><ele>417.20000000000005</ele><time>2026-04-26T08:34:00Z</time></trkpt><trkpt lat="38.04538217860548" lon="15.118853832848984"><ele>413.40000000000003</ele><time>2026-04-26T08:34:01Z</time></trkpt><trkpt lat="38.04543955528893" lon="15.11875820693773"><ele>409.6</ele><time>2026-04-26T08:34:02Z</time></trkpt><trkpt lat="38.0454995122391" lon="15.118663497533031"><ele>405.8</ele><time>2026-04-26T08:34:03Z</time></trkpt><trkpt lat="38.04556631334161" lon="15.11857392362985"><ele>402.0</ele><time>2026-04-26T08:34:04Z</time></trkpt><trkpt lat="38.04563532719456" lon="15.118493067366376"><ele>402.0</ele><time>2026-04-26T08:34:05Z</time></trkpt><trkpt lat="38.045704106257546" lon="15.118410401936588"><ele>402.0</ele><time>2026-04-26T08:34:06Z</time></trkpt><trkpt lat="38.04577249737855" lon="15.118331051949356"><ele>402.0</ele><time>2026-04-26T08:34:07Z</time></trkpt><trkpt lat="38.04584311249594" lon="15.11825152472399"><ele>402.0</ele><time>2026-04-26T08:34:08Z</time></trkpt><trkpt lat="38.045917348348276" lon="15.118176990199142"><ele>402.0</ele><time>2026-04-26T08:34:09Z</time></trkpt><trkpt lat="38.04599380249583" lon="15.118106685194705"><ele>399.8</ele><time>2026-04-26T08:34:10Z</time></trkpt><trkpt lat="38.046069740473264" lon="15.118038036064473"><ele>397.6</ele><time>2026-04-26T08:34:11Z</time></trkpt><trkpt lat="38.046143385482715" lon="15.117973945419353"><ele>395.40000000000003</ele><time>2026-04-26T08:34:12Z</time></trkpt><trkpt lat="38.046219839894434" lon="15.117900799565422"><ele>393.20000000000005</ele><time>2026-04-26T08:34:13Z</time></trkpt><trkpt lat="38.046301838086464" lon="15.117824763442643"><ele>391.0</ele><time>2026-04-26T08:34:14Z</time></trkpt><trkpt lat="38.04638484048953" lon="15.1177512418911"><ele>391.0</ele><time>2026-04-26T08:34:15Z</time></trkpt><trkpt lat="38.046471088528634" lon="15.11768398835645"><ele>391.0</ele><time>2026-04-26T08:34:16Z</time></trkpt><trkpt lat="38.04656197567363" lon="15.117617860112015"><ele>391.0</ele><time>2026-04-26T08:34:17Z</time></trkpt><trkpt lat="38.046659632421736" lon="15.11757140626111"><ele>391.0</ele><time>2026-04-26T08:34:18Z</time></trkpt><trkpt lat="38.046765492789994" lon="15.1175566658459"><ele>391.0</ele><time>2026-04-26T08:34:19Z</time></trkpt><trkpt lat="38.04686962164624" lon="15.117574628920742"><ele>394.6</ele><time>2026-04-26T08:34:20Z</time></trkpt><trkpt lat="38.046969864598566" lon="15.117604372574945"><ele>398.20000000000005</ele><time>2026-04-26T08:34:21Z</time></trkpt><trkpt lat="38.04707305113475" lon="15.11763273084601"><ele>401.79999999999995</ele><time>2026-04-26T08:34:22Z</time></trkpt><trkpt lat="38.04717579156444" lon="15.11765566054913"><ele>405.4</ele><time>2026-04-26T08:34:23Z</time></trkpt><trkpt lat="38.04727614374562" lon="15.11765799606004"><ele>409.0</ele><time>2026-04-26T08:34:24Z</time></trkpt><trkpt lat="38.04737080517445" lon="15.117648095595001"><ele>408.6</ele><time>2026-04-26T08:34:25Z</time></trkpt><trkpt lat="38.047460845015856" lon="15.117616700470213"><ele>408.2</ele><time>2026-04-26T08:34:26Z</time></trkpt><trkpt lat="38.04754410007256" lon="15.117574762937673"><ele>407.8</ele><time>2026-04-26T08:34:27Z</time></trkpt><trkpt lat="38.04762295448674" lon="15.117521927179883"><ele>407.40000000000003</ele><time>2026-04-26T08:34:28Z</time></trkpt><trkpt lat="38.04769960440416" lon="15.117461025748645"><ele>407.0</ele><time>2026-04-26T08:34:29Z</time></trkpt><trkpt lat="38.047778386350934" lon="15.117402682262183"><ele>400.8</ele><time>2026-04-26T08:34:30Z</time></trkpt><trkpt lat="38.04786281785914" lon="15.117348227343582"><ele>394.6</ele><time>2026-04-26T08:34:31Z</time></trkpt><trkpt lat="38.04795061546091" lon="15.117301322498108"><ele>388.40000000000003</ele><time>2026-04-26T08:34:32Z</time></trkpt><trkpt lat="38.04804612876198" lon="15.117265976298558"><ele>382.20000000000005</ele><time>2026-04-26T08:34:33Z</time></trkpt><trkpt lat="38.04814748824369" lon="15.117244487098182"><ele>376.0</ele><time>2026-04-26T08:34:34Z</time></trkpt><trkpt lat="38.048250825228955" lon="15.117241676224811"><ele>375.20000000000005</ele><time>2026-04-26T08:34:35Z</time></trkpt><trkpt lat="38.04835284040358" lon="15.117242081212622"><ele>374.40000000000003</ele><time>2026-04-26T08:34:36Z</time></trkpt><trkpt lat="38.04845262983796" lon="15.117262390412646"><ele>373.6</ele><time>2026-04-26T08:34:37Z</time></trkpt><trkpt lat="38.04854542335187" lon="15.117301716458547"><ele>372.8</ele><time>2026-04-26T08:34:38Z</time></trkpt><trkpt lat="38.04863392057229" lon="15.117359474403626"><ele>372.0</ele><time>2026-04-26T08:34:39Z</time></trkpt><trkpt lat="38.0487229875567" lon="15.117415726575782"><ele>377.8</ele><time>2026-04-26T08:34:40Z</time></trkpt><trkpt lat="38.048816910176605" lon="15.117451603759738"><ele>383.6</ele><time>2026-04-26T08:34:41Z</time></trkpt><trkpt lat="38.04891436577417" lon="15.117475110741877"><ele>389.40000000000003</ele><time>2026-04-26T08:34:42Z</time></trkpt><trkpt lat="38.04901465271903" lon="15.117484302597385"><ele>395.20000000000005</ele><time>2026-04-26T08:34:43Z</time></trkpt><trkpt lat="38.04911836029207" lon="15.117491337057393"><ele>401.0</ele><time>2026-04-26T08:34:44Z</time></trkpt><trkpt lat="38.04921950307214" lon="15.11751159080959"><ele>401.0</ele><time>2026-04-26T08:34:45Z</time></trkpt><trkpt lat="38.049320228125865" lon="15.117531076337453"><ele>401.0</ele><time>2026-04-26T08:34:46Z</time></trkpt><trkpt lat="38.04942452654336" lon="15.117551004149533"><ele>401.0</ele><time>2026-04-26T08:34:47Z</time></trkpt><trkpt lat="38.0495289798005" lon="15.117571744062396"><ele>401.0</ele><time>2026-04-26T08:34:48Z</time></trkpt><trkpt lat="38.04963416325302" lon="15.117595516275363"><ele>401.0</ele><time>2026-04-26T08:34:49Z</time></trkpt><trkpt lat="38.04973957707857" lon="15.117619179143242"><ele>401.0</ele><time>2026-04-26T08:34:50Z</time></trkpt><trkpt lat="38.049845155047784" lon="15.1176409857124"><ele>401.0</ele><time>2026-04-26T08:34:51Z</time></trkpt><trkpt lat="38.049950380392886" lon="15.11765657259094"><ele>401.0</ele><time>2026-04-26T08:34:52Z</time></trkpt><trkpt lat="38.050055380495216" lon="15.117671763203875"><ele>401.0</ele><time>2026-04-26T08:34:53Z</time></trkpt><trkpt lat="38.05015910727972" lon="15.117685894534485"><ele>401.0</ele><time>2026-04-26T08:34:54Z</time></trkpt><trkpt lat="38.050261655556184" lon="15.1177045951891"><ele>398.8</ele><time>2026-04-26T08:34:55Z</time></trkpt><trkpt lat="38.05036595298949" lon="15.117723926794085"><ele>396.6</ele><time>2026-04-26T08:34:56Z</time></trkpt><trkpt lat="38.05046644247911" lon="15.117736517239896"><ele>394.4</ele><time>2026-04-26T08:34:57Z</time></trkpt><trkpt lat="38.05056171617669" lon="15.117735029226154"><ele>392.2</ele><time>2026-04-26T08:34:58Z</time></trkpt><trkpt lat="38.050647477445885" lon="15.117709277473814"><ele>390.0</ele><time>2026-04-26T08:34:59Z</time></trkpt><trkpt lat="38.050729302187044" lon="15.117655312931031"><ele>389.6</ele><time>2026-04-26T08:35:00Z</time></trkpt><trkpt lat="38.05080420722468" lon="15.11757607482223"><ele>389.2</ele><time>2026-04-26T08:35:01Z</time></trkpt><trkpt lat="38.05086685400217" lon="15.117482607107455"><ele>388.79999999999995</ele><time>2026-04-26T08:35:02Z</time></trkpt><trkpt lat="38.05092144911328" lon="15.117374654848419"><ele>388.4</ele><time>2026-04-26T08:35:03Z</time></trkpt><trkpt lat="38.05097205550487" lon="15.117262398811118"><ele>388.0</ele><time>2026-04-26T08:35:04Z</time></trkpt><trkpt lat="38.05102827907785" lon="15.117151980585"><ele>384.0</ele><time>2026-04-26T08:35:05Z</time></trkpt><trkpt lat="38.051100171419" lon="15.11705349261863"><ele>380.0</ele><time>2026-04-26T08:35:06Z</time></trkpt><trkpt lat="38.05118713565474" lon="15.116974272365297"><ele>376.0</ele><time>2026-04-26T08:35:07Z</time></trkpt><trkpt lat="38.051287530416985" lon="15.116913097660946"><ele>372.0</ele><time>2026-04-26T08:35:08Z</time></trkpt><trkpt lat="38.051392871620315" lon="15.116873340801428"><ele>368.0</ele><time>2026-04-26T08:35:09Z</time></trkpt><trkpt lat="38.05150354311981" lon="15.116864805320096"><ele>368.0</ele><time>2026-04-26T08:35:10Z</time></trkpt><trkpt lat="38.05161565404775" lon="15.116886430158717"><ele>368.0</ele><time>2026-04-26T08:35:11Z</time></trkpt><trkpt lat="38.05172319674684" lon="15.116930745984638"><ele>368.0</ele><time>2026-04-26T08:35:12Z</time></trkpt><trkpt lat="38.05182345472285" lon="15.116991423324428"><ele>368.0</ele><time>2026-04-26T08:35:13Z</time></trkpt><trkpt lat="38.05191775878672" lon="15.117066397896158"><ele>368.0</ele><time>2026-04-26T08:35:14Z</time></trkpt><trkpt lat="38.05200854909549" lon="15.117142475089034"><ele>368.4</ele><time>2026-04-26T08:35:15Z</time></trkpt><trkpt lat="38.05209655147336" lon="15.117223208880135"><ele>368.79999999999995</ele><time>2026-04-26T08:35:16Z</time></trkpt><trkpt lat="38.05217890176819" lon="15.1173081927663"><ele>369.2</ele><time>2026-04-26T08:35:17Z</time></trkpt><trkpt lat="38.05226075587293" lon="15.117392757665181"><ele>369.6</ele><time>2026-04-26T08:35:18Z</time></trkpt><trkpt lat="38.052352662887124" lon="15.117457052214654"><ele>370.0</ele><time>2026-04-26T08:35:19Z</time></trkpt><trkpt lat="38.05245315484261" lon="15.117495538865311"><ele>371.8</ele><time>2026-04-26T08:35:20Z</time></trkpt><trkpt lat="38.052555840787356" lon="15.117502268297397"><ele>373.6</ele><time>2026-04-26T08:35:21Z</time></trkpt><trkpt lat="38.052659196517794" lon="15.117488654578985"><ele>375.4</ele><time>2026-04-26T08:35:21.999Z</time></trkpt><trkpt lat="38.052762036043816" lon="15.117464787094912"><ele>377.2</ele><time>2026-04-26T08:35:22.999Z</time></trkpt><trkpt lat="38.05286807018757" lon="15.117441385770679"><ele>379.0</ele><time>2026-04-26T08:35:23.999Z</time></trkpt><trkpt lat="38.05297340098221" lon="15.117412897464241"><ele>378.3333333333333</ele><time>2026-04-26T08:35:24.999Z</time></trkpt><trkpt lat="38.053073923269196" lon="15.117386848107843"><ele>377.66666666666663</ele><time>2026-04-26T08:35:25.999Z</time></trkpt><trkpt lat="38.053161191030256" lon="15.117375270084393"><ele>377.0</ele><time>2026-04-26T08:35:26.999Z</time></trkpt><trkpt lat="38.053237236573" lon="15.117392390685966"><ele>376.3333333333333</ele><time>2026-04-26T08:35:27.999Z</time></trkpt><trkpt lat="38.05329975745709" lon="15.117442373883717"><ele>375.6666666666667</ele><time>2026-04-26T08:35:28.999Z</time></trkpt><trkpt lat="38.05333900212006" lon="15.117525068797317"><ele>375.0</ele><time>2026-04-26T08:35:29.999Z</time></trkpt><trkpt lat="38.05336275083988" lon="15.117612575915764"><ele>375.0</ele><time>2026-04-26T08:35:30.999Z</time></trkpt><trkpt lat="38.053394741356996" lon="15.117701440033217"><ele>375.0</ele><time>2026-04-26T08:35:31.999Z</time></trkpt><trkpt lat="38.053434588088514" lon="15.117794702178893"><ele>375.0</ele><time>2026-04-26T08:35:32.999Z</time></trkpt><trkpt lat="38.05348087423375" lon="15.117891237823729"><ele>375.0</ele><time>2026-04-26T08:35:33.999Z</time></trkpt><trkpt lat="38.053531929714644" lon="15.117991988517785"><ele>375.0</ele><time>2026-04-26T08:35:34.999Z</time></trkpt><trkpt lat="38.05358274879103" lon="15.118093893496422"><ele>375.0</ele><time>2026-04-26T08:35:35.999Z</time></trkpt><trkpt lat="38.05364580948331" lon="15.11818569105985"><ele>378.4</ele><time>2026-04-26T08:35:36.999Z</time></trkpt><trkpt lat="38.0537262774177" lon="15.118257280283268"><ele>381.8</ele><time>2026-04-26T08:35:37.999Z</time></trkpt><trkpt lat="38.05381293405399" lon="15.1183086925223"><ele>385.20000000000005</ele><time>2026-04-26T08:35:38.999Z</time></trkpt><trkpt lat="38.05390501882997" lon="15.118348601854137"><ele>388.6</ele><time>2026-04-26T08:35:39.999Z</time></trkpt><trkpt lat="38.05398890982791" lon="15.118408596923853"><ele>392.0</ele><time>2026-04-26T08:35:40.999Z</time></trkpt><trkpt lat="38.0540776936617" lon="15.11846294505994"><ele>386.0</ele><time>2026-04-26T08:35:42Z</time></trkpt><trkpt lat="38.054161892880735" lon="15.118537304108273"><ele>380.0</ele><time>2026-04-26T08:35:43Z</time></trkpt><trkpt lat="38.05423872978683" lon="15.118620367888862"><ele>374.0</ele><time>2026-04-26T08:35:44Z</time></trkpt><trkpt lat="38.05430348828884" lon="15.118728359185704"><ele>368.0</ele><time>2026-04-26T08:35:45Z</time></trkpt><trkpt lat="38.05435303241986" lon="15.118835587374209"><ele>362.0</ele><time>2026-04-26T08:35:46Z</time></trkpt><trkpt lat="38.054385868602985" lon="15.118961921614648"><ele>364.8</ele><time>2026-04-26T08:35:47Z</time></trkpt><trkpt lat="38.05439781264708" lon="15.119092975944694"><ele>367.6</ele><time>2026-04-26T08:35:48Z</time></trkpt><trkpt lat="38.05439400014716" lon="15.119230178455322"><ele>370.40000000000003</ele><time>2026-04-26T08:35:49Z</time></trkpt><trkpt lat="38.05439193382342" lon="15.119364272195714"><ele>373.20000000000005</ele><time>2026-04-26T08:35:50Z</time></trkpt><trkpt lat="38.05439862736588" lon="15.119502815833481"><ele>376.0</ele><time>2026-04-26T08:35:51Z</time></trkpt><trkpt lat="38.05441101899679" lon="15.119641591442084"><ele>376.0</ele><time>2026-04-26T08:35:52Z</time></trkpt><trkpt lat="38.05442908921465" lon="15.1197797502373"><ele>376.0</ele><time>2026-04-26T08:35:53Z</time></trkpt><trkpt lat="38.05444373305825" lon="15.119919501305153"><ele>376.0</ele><time>2026-04-26T08:35:54Z</time></trkpt><trkpt lat="38.05446803168557" lon="15.120054246959784"><ele>376.0</ele><time>2026-04-26T08:35:55Z</time></trkpt><trkpt lat="38.05450767340882" lon="15.12017677063825"><ele>376.0</ele><time>2026-04-26T08:35:56Z</time></trkpt><trkpt lat="38.054556296583" lon="15.120287948660254"><ele>375.8</ele><time>2026-04-26T08:35:57Z</time></trkpt><trkpt lat="38.0546084833938" lon="15.120395034322515"><ele>375.6</ele><time>2026-04-26T08:35:58Z</time></trkpt><trkpt lat="38.05464682817771" lon="15.12050315824283"><ele>375.4</ele><time>2026-04-26T08:35:59Z</time></trkpt><trkpt lat="38.05466893060059" lon="15.120617296118917"><ele>375.2</ele><time>2026-04-26T08:36:00Z</time></trkpt><trkpt lat="38.054675723640756" lon="15.12073274368988"><ele>375.0</ele><time>2026-04-26T08:36:01Z</time></trkpt><trkpt lat="38.05466703901982" lon="15.120847425863795"><ele>374.5</ele><time>2026-04-26T08:36:02Z</time></trkpt><trkpt lat="38.05463946432067" lon="15.120953785941063"><ele>374.0</ele><time>2026-04-26T08:36:03Z</time></trkpt><trkpt lat="38.05459890109888" lon="15.121052093758385"><ele>373.5</ele><time>2026-04-26T08:36:04Z</time></trkpt><trkpt lat="38.054560674263655" lon="15.121148601268878"><ele>373.0</ele><time>2026-04-26T08:36:05Z</time></trkpt><trkpt lat="38.054547910450516" lon="15.121254579435416"><ele>372.5</ele><time>2026-04-26T08:36:06Z</time></trkpt><trkpt lat="38.05457312827839" lon="15.121356158573162"><ele>372.0</ele><time>2026-04-26T08:36:07Z</time></trkpt><trkpt lat="38.054627043881396" lon="15.12143874432174"><ele>372.0</ele><time>2026-04-26T08:36:08Z</time></trkpt><trkpt lat="38.05469643839022" lon="15.121500925092839"><ele>372.0</ele><time>2026-04-26T08:36:09Z</time></trkpt><trkpt lat="38.054775515237566" lon="15.121548438396236"><ele>372.0</ele><time>2026-04-26T08:36:10Z</time></trkpt><trkpt lat="38.05486149152346" lon="15.121584098695877"><ele>372.0</ele><time>2026-04-26T08:36:11Z</time></trkpt><trkpt lat="38.054945929820626" lon="15.121623837560938"><ele>372.0</ele><time>2026-04-26T08:36:12Z</time></trkpt><trkpt lat="38.05502702131496" lon="15.12166936342223"><ele>372.0</ele><time>2026-04-26T08:36:13Z</time></trkpt><trkpt lat="38.05511020227352" lon="15.121720405475799"><ele>369.0</ele><time>2026-04-26T08:36:14Z</time></trkpt><trkpt lat="38.05519272150512" lon="15.121765852566908"><ele>366.0</ele><time>2026-04-26T08:36:15Z</time></trkpt><trkpt lat="38.05527846067233" lon="15.121797470371027"><ele>363.0</ele><time>2026-04-26T08:36:16Z</time></trkpt><trkpt lat="38.05537013080317" lon="15.121815234998143"><ele>360.0</ele><time>2026-04-26T08:36:17Z</time></trkpt><trkpt lat="38.05546385006841" lon="15.121829823897615"><ele>357.0</ele><time>2026-04-26T08:36:18Z</time></trkpt><trkpt lat="38.0555568393358" lon="15.121850578050896"><ele>357.0</ele><time>2026-04-26T08:36:19Z</time></trkpt><trkpt lat="38.0556520341663" lon="15.1218687920919"><ele>357.0</ele><time>2026-04-26T08:36:20Z</time></trkpt><trkpt lat="38.0557522127597" lon="15.121885590388782"><ele>357.0</ele><time>2026-04-26T08:36:21Z</time></trkpt><trkpt lat="38.05585440299484" lon="15.121920993556872"><ele>357.0</ele><time>2026-04-26T08:36:22Z</time></trkpt><trkpt lat="38.055949874233754" lon="15.121982070651647"><ele>357.0</ele><time>2026-04-26T08:36:23Z</time></trkpt><trkpt lat="38.0560497036236" lon="15.122050026665665"><ele>353.0</ele><time>2026-04-26T08:36:24Z</time></trkpt><trkpt lat="38.05615185502721" lon="15.122112517815765"><ele>349.0</ele><time>2026-04-26T08:36:25Z</time></trkpt><trkpt lat="38.056249595454645" lon="15.122164400404131"><ele>345.0</ele><time>2026-04-26T08:36:26Z</time></trkpt><trkpt lat="38.05634922989924" lon="15.122223761898601"><ele>341.0</ele><time>2026-04-26T08:36:27Z</time></trkpt><trkpt lat="38.05643582790272" lon="15.122285417586538"><ele>337.0</ele><time>2026-04-26T08:36:28Z</time></trkpt><trkpt lat="38.056513526309956" lon="15.12232845761988"><ele>337.0</ele><time>2026-04-26T08:36:29Z</time></trkpt><trkpt lat="38.056589024324126" lon="15.122336791621573"><ele>337.0</ele><time>2026-04-26T08:36:30Z</time></trkpt><trkpt lat="38.05667161617059" lon="15.122294554097456"><ele>337.0</ele><time>2026-04-26T08:36:31Z</time></trkpt><trkpt lat="38.05671699772029" lon="15.12219891292156"><ele>337.0</ele><time>2026-04-26T08:36:32Z</time></trkpt><trkpt lat="38.05672141928737" lon="15.122078589986792"><ele>337.0</ele><time>2026-04-26T08:36:33Z</time></trkpt><trkpt lat="38.056708660209395" lon="15.121975191412414"><ele>337.0</ele><time>2026-04-26T08:36:34Z</time></trkpt><trkpt lat="38.05666970727504" lon="15.121884182276487"><ele>337.0</ele><time>2026-04-26T08:36:35Z</time></trkpt><trkpt lat="38.05661211386878" lon="15.121795519592554"><ele>337.0</ele><time>2026-04-26T08:36:36Z</time></trkpt><trkpt lat="38.056539385374464" lon="15.121734115578436"><ele>337.0</ele><time>2026-04-26T08:36:37Z</time></trkpt><trkpt lat="38.05645508022542" lon="15.121694319910612"><ele>337.0</ele><time>2026-04-26T08:36:38Z</time></trkpt><trkpt lat="38.05636117419931" lon="15.121678080050216"><ele>337.0</ele><time>2026-04-26T08:36:39Z</time></trkpt><trkpt lat="38.0562667022483" lon="15.12168225288137"><ele>337.0</ele><time>2026-04-26T08:36:40Z</time></trkpt><trkpt lat="38.05617748282006" lon="15.121682698205433"><ele>337.0</ele><time>2026-04-26T08:36:41Z</time></trkpt><trkpt lat="38.05608874781796" lon="15.121669112525899"><ele>337.0</ele><time>2026-04-26T08:36:42Z</time></trkpt><trkpt lat="38.055997606318" lon="15.121644904972676"><ele>337.0</ele><time>2026-04-26T08:36:43Z</time></trkpt><trkpt lat="38.05591376621015" lon="15.12159827210545"><ele>337.0</ele><time>2026-04-26T08:36:44Z</time></trkpt><trkpt lat="38.05583401708204" lon="15.12152840955632"><ele>338.8</ele><time>2026-04-26T08:36:45Z</time></trkpt><trkpt lat="38.05575457798262" lon="15.121448613722752"><ele>340.6</ele><time>2026-04-26T08:36:46Z</time></trkpt><trkpt lat="38.05568994252696" lon="15.12136180652482"><ele>342.40000000000003</ele><time>2026-04-26T08:36:47Z</time></trkpt><trkpt lat="38.055662130172294" lon="15.121253515130896"><ele>344.20000000000005</ele><time>2026-04-26T08:36:48Z</time></trkpt><trkpt lat="38.055671315834125" lon="15.121131482686316"><ele>346.0</ele><time>2026-04-26T08:36:49Z</time></trkpt><trkpt lat="38.055733150526954" lon="15.121032958303152"><ele>341.8</ele><time>2026-04-26T08:36:50Z</time></trkpt><trkpt lat="38.05579990427246" lon="15.120949500492689"><ele>337.6</ele><time>2026-04-26T08:36:51Z</time></trkpt><trkpt lat="38.055863516968195" lon="15.120870581407077"><ele>333.4</ele><time>2026-04-26T08:36:52Z</time></trkpt><trkpt lat="38.055911848252954" lon="15.12077619723532"><ele>329.2</ele><time>2026-04-26T08:36:53Z</time></trkpt><trkpt lat="38.055950107501275" lon="15.120676843722357"><ele>325.0</ele><time>2026-04-26T08:36:54Z</time></trkpt><trkpt lat="38.0559798601902" lon="15.12056725325632"><ele>324.2</ele><time>2026-04-26T08:36:55Z</time></trkpt><trkpt lat="38.05599432345521" lon="15.120451080796714"><ele>323.4</ele><time>2026-04-26T08:36:56Z</time></trkpt><trkpt lat="38.055990769659" lon="15.120322862058579"><ele>322.6</ele><time>2026-04-26T08:36:57Z</time></trkpt><trkpt lat="38.055972747089655" lon="15.120191441909915"><ele>321.8</ele><time>2026-04-26T08:36:58Z</time></trkpt><trkpt lat="38.05595068290475" lon="15.120058947920155"><ele>321.0</ele><time>2026-04-26T08:36:59Z</time></trkpt><trkpt lat="38.05593239933144" lon="15.119922381749776"><ele>321.4</ele><time>2026-04-26T08:37:00Z</time></trkpt><trkpt lat="38.05592647380887" lon="15.119785726714829"><ele>321.8</ele><time>2026-04-26T08:37:01Z</time></trkpt><trkpt lat="38.055942762872135" lon="15.119652386189761"><ele>322.2</ele><time>2026-04-26T08:37:02Z</time></trkpt><trkpt lat="38.0559933791588" lon="15.119510947297401"><ele>322.59999999999997</ele><time>2026-04-26T08:37:03Z</time></trkpt><trkpt lat="38.05604511486303" lon="15.119383171327788"><ele>323.0</ele><time>2026-04-26T08:37:04Z</time></trkpt><trkpt lat="38.05608932334912" lon="15.119248740757977"><ele>323.0</ele><time>2026-04-26T08:37:05Z</time></trkpt><trkpt lat="38.05613003971791" lon="15.119122671005686"><ele>323.0</ele><time>2026-04-26T08:37:06Z</time></trkpt><trkpt lat="38.056165232062845" lon="15.118977351736469"><ele>323.0</ele><time>2026-04-26T08:37:07Z</time></trkpt><trkpt lat="38.05617826838868" lon="15.118857091512227"><ele>323.0</ele><time>2026-04-26T08:37:08Z</time></trkpt><trkpt lat="38.05621702105149" lon="15.118741528730954"><ele>323.0</ele><time>2026-04-26T08:37:09Z</time></trkpt><trkpt lat="38.05624667867024" lon="15.118625127777188"><ele>322.59999999999997</ele><time>2026-04-26T08:37:10Z</time></trkpt><trkpt lat="38.05627808404836" lon="15.118519357662471"><ele>322.2</ele><time>2026-04-26T08:37:11Z</time></trkpt><trkpt lat="38.05631715869648" lon="15.118407763775437"><ele>321.8</ele><time>2026-04-26T08:37:12Z</time></trkpt><trkpt lat="38.056367711115854" lon="15.118312906475698"><ele>321.4</ele><time>2026-04-26T08:37:13Z</time></trkpt><trkpt lat="38.05643190026619" lon="15.11823249377336"><ele>321.0</ele><time>2026-04-26T08:37:14Z</time></trkpt><trkpt lat="38.05650165751283" lon="15.118161139374092"><ele>317.1666666666667</ele><time>2026-04-26T08:37:15Z</time></trkpt><trkpt lat="38.05656709524258" lon="15.118093992071822"><ele>313.3333333333333</ele><time>2026-04-26T08:37:16Z</time></trkpt><trkpt lat="38.056626849065026" lon="15.11802208297511"><ele>309.5</ele><time>2026-04-26T08:37:17Z</time></trkpt><trkpt lat="38.05667854800027" lon="15.117938292388954"><ele>305.66666666666663</ele><time>2026-04-26T08:37:18Z</time></trkpt><trkpt lat="38.056736051700504" lon="15.117881389311696"><ele>301.8333333333333</ele><time>2026-04-26T08:37:19Z</time></trkpt><trkpt lat="38.056799109147185" lon="15.117863590745195"><ele>298.0</ele><time>2026-04-26T08:37:20Z</time></trkpt><trkpt lat="38.056866188253025" lon="15.117896519418226"><ele>298.0</ele><time>2026-04-26T08:37:21Z</time></trkpt><trkpt lat="38.056883890821666" lon="15.118000768526784"><ele>298.0</ele><time>2026-04-26T08:37:22Z</time></trkpt><trkpt lat="38.05686912548645" lon="15.118081553096403"><ele>298.0</ele><time>2026-04-26T08:37:23Z</time></trkpt><trkpt lat="38.0568229755172" lon="15.118147668063601"><ele>298.0</ele><time>2026-04-26T08:37:24Z</time></trkpt><trkpt lat="38.05674901490983" lon="15.118188964230992"><ele>298.0</ele><time>2026-04-26T08:37:25Z</time></trkpt><trkpt lat="38.05666974048233" lon="15.11822468764766"><ele>298.0</ele><time>2026-04-26T08:37:26Z</time></trkpt><trkpt lat="38.05658828476194" lon="15.118271234046636"><ele>301.8333333333333</ele><time>2026-04-26T08:37:27Z</time></trkpt><trkpt lat="38.056515611190285" lon="15.118325054612274"><ele>305.66666666666663</ele><time>2026-04-26T08:37:27.999Z</time></trkpt><trkpt lat="38.05645808358346" lon="15.118406757941672"><ele>309.5</ele><time>2026-04-26T08:37:28.999Z</time></trkpt><trkpt lat="38.0564192668674" lon="15.118501484036225"><ele>313.3333333333333</ele><time>2026-04-26T08:37:29.999Z</time></trkpt><trkpt lat="38.056404425795954" lon="15.118626367592391"><ele>317.1666666666667</ele><time>2026-04-26T08:37:30.999Z</time></trkpt><trkpt lat="38.05638326207408" lon="15.118735999340897"><ele>321.0</ele><time>2026-04-26T08:37:31.999Z</time></trkpt><trkpt lat="38.056370894791215" lon="15.11884322967303"><ele>321.0</ele><time>2026-04-26T08:37:32.999Z</time></trkpt><trkpt lat="38.056367636191915" lon="15.118963478971478"><ele>321.0</ele><time>2026-04-26T08:37:33.999Z</time></trkpt><trkpt lat="38.056377741383066" lon="15.119090048617219"><ele>321.0</ele><time>2026-04-26T08:37:34.999Z</time></trkpt><trkpt lat="38.05637271487195" lon="15.119203386598528"><ele>321.0</ele><time>2026-04-26T08:37:35.999Z</time></trkpt><trkpt lat="38.05637202142771" lon="15.119317608081612"><ele>321.0</ele><time>2026-04-26T08:37:36.999Z</time></trkpt><trkpt lat="38.05636613087195" lon="15.11942975371083"><ele>321.0</ele><time>2026-04-26T08:37:37.999Z</time></trkpt><trkpt lat="38.05636602748713" lon="15.11954250324506"><ele>321.0</ele><time>2026-04-26T08:37:38.999Z</time></trkpt><trkpt lat="38.05636202373202" lon="15.119654310369445"><ele>321.0</ele><time>2026-04-26T08:37:39.999Z</time></trkpt><trkpt lat="38.056363271674805" lon="15.119758438276845"><ele>321.0</ele><time>2026-04-26T08:37:40.999Z</time></trkpt><trkpt lat="38.05637224802174" lon="15.119861343508676"><ele>321.0</ele><time>2026-04-26T08:37:41.999Z</time></trkpt><trkpt lat="38.05641510920398" lon="15.119938512979697"><ele>321.0</ele><time>2026-04-26T08:37:42.999Z</time></trkpt><trkpt lat="38.0565004496621" lon="15.119996096572914"><ele>321.0</ele><time>2026-04-26T08:37:43.999Z</time></trkpt><trkpt lat="38.05658041130848" lon="15.120055309810025"><ele>321.0</ele><time>2026-04-26T08:37:44.999Z</time></trkpt><trkpt lat="38.05666437981179" lon="15.120083577239892"><ele>321.0</ele><time>2026-04-26T08:37:45.999Z</time></trkpt><trkpt lat="38.05674327998863" lon="15.120093282791844"><ele>321.0</ele><time>2026-04-26T08:37:47Z</time></trkpt><trkpt lat="38.05682352170684" lon="15.120107953169445"><ele>321.0</ele><time>2026-04-26T08:37:48Z</time></trkpt><trkpt lat="38.05689891842561" lon="15.120135351615236"><ele>321.0</ele><time>2026-04-26T08:37:49Z</time></trkpt><trkpt lat="38.056975618088686" lon="15.120151586595403"><ele>313.75</ele><time>2026-04-26T08:37:50Z</time></trkpt><trkpt lat="38.05704300158665" lon="15.12020278514696"><ele>306.5</ele><time>2026-04-26T08:37:51Z</time></trkpt><trkpt lat="38.05713224192198" lon="15.120283470699425"><ele>299.25</ele><time>2026-04-26T08:37:52Z</time></trkpt><trkpt lat="38.05724193522032" lon="15.120382988301607"><ele>292.0</ele><time>2026-04-26T08:37:53Z</time></trkpt><trkpt lat="38.05737036285614" lon="15.120486880811509"><ele>289.3333333333333</ele><time>2026-04-26T08:37:54Z</time></trkpt><trkpt lat="38.057532653737084" lon="15.120635470328613"><ele>286.6666666666667</ele><time>2026-04-26T08:37:55Z</time></trkpt><trkpt lat="38.05772699671744" lon="15.120808240123692"><ele>284.0</ele><time>2026-04-26T08:37:56Z</time></trkpt><trkpt lat="38.05793447465328" lon="15.120990693224538"><ele>284.0</ele><time>2026-04-26T08:37:57Z</time></trkpt><trkpt lat="38.058147192531095" lon="15.121187249047352"><ele>284.0</ele><time>2026-04-26T08:37:58Z</time></trkpt><trkpt lat="38.05834265091263" lon="15.121363503535054"><ele>280.5</ele><time>2026-04-26T08:37:59Z</time></trkpt><trkpt lat="38.05853563361464" lon="15.121522625087255"><ele>277.0</ele><time>2026-04-26T08:38:00Z</time></trkpt><trkpt lat="38.058733357559525" lon="15.121648521214395"><ele>277.0</ele><time>2026-04-26T08:38:01Z</time></trkpt><trkpt lat="38.05893319809681" lon="15.121744444743594"><ele>277.0</ele><time>2026-04-26T08:38:02Z</time></trkpt><trkpt lat="38.059131213635816" lon="15.121845503529059"><ele>277.0</ele><time>2026-04-26T08:38:03Z</time></trkpt><trkpt lat="38.05931528813144" lon="15.121912515904345"><ele>270.75</ele><time>2026-04-26T08:38:04Z</time></trkpt><trkpt lat="38.0594683167391" lon="15.122014073377992"><ele>264.5</ele><time>2026-04-26T08:38:05Z</time></trkpt><trkpt lat="38.05958731969624" lon="15.122107809168767"><ele>258.25</ele><time>2026-04-26T08:38:06Z</time></trkpt><trkpt lat="38.05967077049184" lon="15.122202080061621"><ele>252.0</ele><time>2026-04-26T08:38:07Z</time></trkpt><trkpt lat="38.05970639910163" lon="15.122313020152538"><ele>254.6</ele><time>2026-04-26T08:38:08Z</time></trkpt><trkpt lat="38.05970201729978" lon="15.122435692075403"><ele>257.2</ele><time>2026-04-26T08:38:09Z</time></trkpt><trkpt lat="38.05963852536334" lon="15.122529031256944"><ele>259.8</ele><time>2026-04-26T08:38:10Z</time></trkpt><trkpt lat="38.05955067147214" lon="15.122601717157128"><ele>262.4</ele><time>2026-04-26T08:38:11Z</time></trkpt><trkpt lat="38.0594339330004" lon="15.122676699358152"><ele>265.0</ele><time>2026-04-26T08:38:12Z</time></trkpt><trkpt lat="38.05931994983797" lon="15.122819908926296"><ele>265.0</ele><time>2026-04-26T08:38:13Z</time></trkpt><trkpt lat="38.05917952400331" lon="15.122947813790441"><ele>265.0</ele><time>2026-04-26T08:38:14Z</time></trkpt><trkpt lat="38.05899601956729" lon="15.123031628087858"><ele>265.0</ele><time>2026-04-26T08:38:15Z</time></trkpt><trkpt lat="38.05880620633997" lon="15.123158041541588"><ele>263.66666666666663</ele><time>2026-04-26T08:38:16Z</time></trkpt><trkpt lat="38.05866285363434" lon="15.123276051846018"><ele>262.3333333333333</ele><time>2026-04-26T08:38:17Z</time></trkpt><trkpt lat="38.05855242550907" lon="15.123401878260486"><ele>261.0</ele><time>2026-04-26T08:38:18Z</time></trkpt><trkpt lat="38.058470909160974" lon="15.12356016952504"><ele>261.0</ele><time>2026-04-26T08:38:19Z</time></trkpt><trkpt lat="38.058428035818494" lon="15.12376501104337"><ele>261.0</ele><time>2026-04-26T08:38:20Z</time></trkpt><trkpt lat="38.05839808769652" lon="15.12398209803093"><ele>261.0</ele><time>2026-04-26T08:38:21Z</time></trkpt><trkpt lat="38.05836268582784" lon="15.124171389800441"><ele>257.25</ele><time>2026-04-26T08:38:22Z</time></trkpt><trkpt lat="38.058328507233036" lon="15.12432920448686"><ele>253.5</ele><time>2026-04-26T08:38:23Z</time></trkpt><trkpt lat="38.058318757953316" lon="15.124472542270484"><ele>249.75</ele><time>2026-04-26T08:38:24Z</time></trkpt><trkpt lat="38.05835486203953" lon="15.124605870887484"><ele>246.0</ele><time>2026-04-26T08:38:25Z</time></trkpt><trkpt lat="38.058425544758016" lon="15.124714390947334"><ele>246.0</ele><time>2026-04-26T08:38:26Z</time></trkpt><trkpt lat="38.05853484684596" lon="15.124773516023563"><ele>246.0</ele><time>2026-04-26T08:38:27Z</time></trkpt><trkpt lat="38.05866707010522" lon="15.124787835442575"><ele>246.0</ele><time>2026-04-26T08:38:28Z</time></trkpt><trkpt lat="38.05881706343781" lon="15.12475628686178"><ele>246.0</ele><time>2026-04-26T08:38:29Z</time></trkpt><trkpt lat="38.05898605712766" lon="15.124709953540759"><ele>240.33333333333331</ele><time>2026-04-26T08:38:30Z</time></trkpt><trkpt lat="38.05918158232435" lon="15.124675670900235"><ele>234.66666666666666</ele><time>2026-04-26T08:38:31Z</time></trkpt><trkpt lat="38.059355592121776" lon="15.124639991159412"><ele>229.0</ele><time>2026-04-26T08:38:32Z</time></trkpt><trkpt lat="38.05950519003513" lon="15.124610844594386"><ele>229.0</ele><time>2026-04-26T08:38:33Z</time></trkpt><trkpt lat="38.05961635968471" lon="15.124591995507648"><ele>228.99999999999997</ele><time>2026-04-26T08:38:34Z</time></trkpt><trkpt lat="38.05970194848045" lon="15.1245857419843"><ele>228.99999999999997</ele><time>2026-04-26T08:38:35Z</time></trkpt><trkpt lat="38.05977613214364" lon="15.124645463626148"><ele>229.0</ele><time>2026-04-26T08:38:36Z</time></trkpt><trkpt lat="38.059802719507694" lon="15.124762772900812"><ele>229.0</ele><time>2026-04-26T08:38:37Z</time></trkpt><trkpt lat="38.05978749269749" lon="15.124903296373807"><ele>240.0</ele><time>2026-04-26T08:38:38Z</time></trkpt><trkpt lat="38.05975069119477" lon="15.12507926997116"><ele>251.0</ele><time>2026-04-26T08:38:39Z</time></trkpt><trkpt lat="38.059731323232874" lon="15.125286337172659"><ele>262.0</ele><time>2026-04-26T08:38:40Z</time></trkpt><trkpt lat="38.05972209895127" lon="15.125474433648236"><ele>262.0</ele><time>2026-04-26T08:38:41Z</time></trkpt><trkpt lat="38.059729548153086" lon="15.125626049048382"><ele>262.0</ele><time>2026-04-26T08:38:42Z</time></trkpt><trkpt lat="38.05977273941706" lon="15.125738232905437"><ele>262.0</ele><time>2026-04-26T08:38:43Z</time></trkpt><trkpt lat="38.059856165483616" lon="15.125820213022346"><ele>262.0</ele><time>2026-04-26T08:38:44Z</time></trkpt><trkpt lat="38.059953944799574" lon="15.125874788584351"><ele>262.0</ele><time>2026-04-26T08:38:45Z</time></trkpt><trkpt lat="38.060057030209215" lon="15.125909301021814"><ele>256.25</ele><time>2026-04-26T08:38:46Z</time></trkpt><trkpt lat="38.06015101890426" lon="15.125871967363613"><ele>250.5</ele><time>2026-04-26T08:38:47Z</time></trkpt><trkpt lat="38.06022518848969" lon="15.125772607778433"><ele>244.75</ele><time>2026-04-26T08:38:48Z</time></trkpt><trkpt lat="38.06028411572134" lon="15.12562170602248"><ele>239.0</ele><time>2026-04-26T08:38:49Z</time></trkpt><trkpt lat="38.06036617769962" lon="15.125475797329557"><ele>233.66666666666669</ele><time>2026-04-26T08:38:50Z</time></trkpt><trkpt lat="38.06049534176349" lon="15.125336506608475"><ele>228.33333333333331</ele><time>2026-04-26T08:38:51Z</time></trkpt><trkpt lat="38.06061551005684" lon="15.125177556207179"><ele>223.0</ele><time>2026-04-26T08:38:52Z</time></trkpt><trkpt lat="38.06073043383706" lon="15.124985410096976"><ele>217.33333333333331</ele><time>2026-04-26T08:38:53Z</time></trkpt><trkpt lat="38.060820417788165" lon="15.124780342910483"><ele>211.66666666666669</ele><time>2026-04-26T08:38:54Z</time></trkpt><trkpt lat="38.06089414499173" lon="15.124614728929027"><ele>206.0</ele><time>2026-04-26T08:38:55Z</time></trkpt><trkpt lat="38.06102026050318" lon="15.124523328164058"><ele>206.0</ele><time>2026-04-26T08:38:56Z</time></trkpt><trkpt lat="38.06115489638941" lon="15.124450135809976"><ele>206.0</ele><time>2026-04-26T08:38:57Z</time></trkpt><trkpt lat="38.06129985498357" lon="15.124409861112488"><ele>206.0</ele><time>2026-04-26T08:38:58Z</time></trkpt><trkpt lat="38.0614658404073" lon="15.124416439953237"><ele>211.0</ele><time>2026-04-26T08:38:59Z</time></trkpt><trkpt lat="38.061633573498014" lon="15.12433183129679"><ele>216.0</ele><time>2026-04-26T08:39:00Z</time></trkpt><trkpt lat="38.06177036636318" lon="15.124192398457886"><ele>221.0</ele><time>2026-04-26T08:39:01Z</time></trkpt><trkpt lat="38.06190547388397" lon="15.124064216563868"><ele>213.25</ele><time>2026-04-26T08:39:02Z</time></trkpt><trkpt lat="38.06204740361334" lon="15.123972713613158"><ele>205.5</ele><time>2026-04-26T08:39:03Z</time></trkpt><trkpt lat="38.062173541538584" lon="15.123906562868061"><ele>197.75</ele><time>2026-04-26T08:39:04Z</time></trkpt><trkpt lat="38.06229409077036" lon="15.12387701188795"><ele>190.0</ele><time>2026-04-26T08:39:05Z</time></trkpt><trkpt lat="38.06243115999705" lon="15.123890903255075"><ele>188.66666666666669</ele><time>2026-04-26T08:39:06Z</time></trkpt><trkpt lat="38.06257285698979" lon="15.12395059858246"><ele>187.33333333333334</ele><time>2026-04-26T08:39:07Z</time></trkpt><trkpt lat="38.06271715125831" lon="15.124036217458794"><ele>186.0</ele><time>2026-04-26T08:39:08Z</time></trkpt><trkpt lat="38.06286740580137" lon="15.124144341330393"><ele>197.0</ele><time>2026-04-26T08:39:09Z</time></trkpt><trkpt lat="38.0630037127114" lon="15.124252062791902"><ele>208.0</ele><time>2026-04-26T08:39:10Z</time></trkpt><trkpt lat="38.06311757073376" lon="15.124352343099911"><ele>219.0</ele><time>2026-04-26T08:39:11Z</time></trkpt><trkpt lat="38.06320532917873" lon="15.12446080370166"><ele>230.0</ele><time>2026-04-26T08:39:12Z</time></trkpt><trkpt lat="38.063251625220786" lon="15.124602355721777"><ele>232.5</ele><time>2026-04-26T08:39:13Z</time></trkpt><trkpt lat="38.06328578286299" lon="15.124755392414809"><ele>235.0</ele><time>2026-04-26T08:39:14Z</time></trkpt><trkpt lat="38.063364226686076" lon="15.124903100582635"><ele>237.5</ele><time>2026-04-26T08:39:15Z</time></trkpt><trkpt lat="38.06350704527076" lon="15.125016341456462"><ele>240.0</ele><time>2026-04-26T08:39:16Z</time></trkpt><trkpt lat="38.06365948944234" lon="15.125090648368849"><ele>240.0</ele><time>2026-04-26T08:39:17Z</time></trkpt><trkpt lat="38.063786751539105" lon="15.125242858533337"><ele>240.0</ele><time>2026-04-26T08:39:18Z</time></trkpt><trkpt lat="38.063901082373775" lon="15.125427885772282"><ele>240.0</ele><time>2026-04-26T08:39:19Z</time></trkpt><trkpt lat="38.06400602585753" lon="15.125597053625528"><ele>234.66666666666669</ele><time>2026-04-26T08:39:20Z</time></trkpt><trkpt lat="38.06409168856743" lon="15.125754772881576"><ele>229.33333333333334</ele><time>2026-04-26T08:39:21Z</time></trkpt><trkpt lat="38.06415950723493" lon="15.125925644158027"><ele>224.0</ele><time>2026-04-26T08:39:22Z</time></trkpt><trkpt lat="38.06418539543602" lon="15.126127376812864"><ele>224.0</ele><time>2026-04-26T08:39:23Z</time></trkpt><trkpt lat="38.06422705667934" lon="15.126302321164273"><ele>224.0</ele><time>2026-04-26T08:39:24Z</time></trkpt><trkpt lat="38.06425949018817" lon="15.126454949785028"><ele>224.0</ele><time>2026-04-26T08:39:25Z</time></trkpt><trkpt lat="38.064303170240166" lon="15.126581534239225"><ele>224.0</ele><time>2026-04-26T08:39:26Z</time></trkpt><trkpt lat="38.06436699936098" lon="15.126692766653774"><ele>224.0</ele><time>2026-04-26T08:39:27Z</time></trkpt><trkpt lat="38.064463485986934" lon="15.126743181372929"><ele>223.99999999999997</ele><time>2026-04-26T08:39:28Z</time></trkpt><trkpt lat="38.06455287679267" lon="15.126753362246065"><ele>223.99999999999997</ele><time>2026-04-26T08:39:29Z</time></trkpt><trkpt lat="38.06465528808393" lon="15.126680177590819"><ele>224.0</ele><time>2026-04-26T08:39:30Z</time></trkpt><trkpt lat="38.06475405357582" lon="15.126571848618077"><ele>224.0</ele><time>2026-04-26T08:39:31Z</time></trkpt><trkpt lat="38.06484032206358" lon="15.126440127110985"><ele>224.0</ele><time>2026-04-26T08:39:32Z</time></trkpt><trkpt lat="38.06492867251549" lon="15.126304123685186"><ele>224.0</ele><time>2026-04-26T08:39:33Z</time></trkpt><trkpt lat="38.06507123186552" lon="15.126238081385898"><ele>224.0</ele><time>2026-04-26T08:39:34Z</time></trkpt><trkpt lat="38.06519938140912" lon="15.126222309745927"><ele>224.0</ele><time>2026-04-26T08:39:35Z</time></trkpt><trkpt lat="38.06529055605121" lon="15.126231237635746"><ele>226.5</ele><time>2026-04-26T08:39:36Z</time></trkpt><trkpt lat="38.065372946392095" lon="15.126308512313116"><ele>229.0</ele><time>2026-04-26T08:39:37Z</time></trkpt><trkpt lat="38.0654190190013" lon="15.126436477140292"><ele>231.5</ele><time>2026-04-26T08:39:38Z</time></trkpt><trkpt lat="38.06542143384052" lon="15.12658267046675"><ele>234.0</ele><time>2026-04-26T08:39:39Z</time></trkpt><trkpt lat="38.06542166466989" lon="15.126746084441073"><ele>234.0</ele><time>2026-04-26T08:39:40Z</time></trkpt><trkpt lat="38.06545115418632" lon="15.126886052168752"><ele>233.99999999999997</ele><time>2026-04-26T08:39:41Z</time></trkpt><trkpt lat="38.0655015812727" lon="15.126989583421691"><ele>233.99999999999997</ele><time>2026-04-26T08:39:42Z</time></trkpt><trkpt lat="38.06559175102677" lon="15.127048792158542"><ele>234.0</ele><time>2026-04-26T08:39:43Z</time></trkpt><trkpt lat="38.06571060935775" lon="15.127042704326056"><ele>234.0</ele><time>2026-04-26T08:39:44Z</time></trkpt><trkpt lat="38.065839375462716" lon="15.127009583916017"><ele>230.75</ele><time>2026-04-26T08:39:45Z</time></trkpt><trkpt lat="38.065972088475434" lon="15.127005247193596"><ele>227.5</ele><time>2026-04-26T08:39:46Z</time></trkpt><trkpt lat="38.066086581668436" lon="15.127064853604661"><ele>224.25</ele><time>2026-04-26T08:39:47Z</time></trkpt><trkpt lat="38.06618718378092" lon="15.127168432005504"><ele>221.0</ele><time>2026-04-26T08:39:48Z</time></trkpt><trkpt lat="38.0662790540821" lon="15.127291281871644"><ele>221.0</ele><time>2026-04-26T08:39:49Z</time></trkpt><trkpt lat="38.06637444421134" lon="15.127390810867123"><ele>221.00000000000003</ele><time>2026-04-26T08:39:50Z</time></trkpt><trkpt lat="38.0664709068621" lon="15.127431916752887"><ele>221.00000000000003</ele><time>2026-04-26T08:39:51Z</time></trkpt><trkpt lat="38.06656845651258" lon="15.127426949177199"><ele>221.0</ele><time>2026-04-26T08:39:52Z</time></trkpt><trkpt lat="38.066652668138765" lon="15.127365511898166"><ele>221.0</ele><time>2026-04-26T08:39:53Z</time></trkpt><trkpt lat="38.06669955463476" lon="15.127246179378492"><ele>217.5</ele><time>2026-04-26T08:39:54Z</time></trkpt><trkpt lat="38.066713672490124" lon="15.127100743583991"><ele>214.0</ele><time>2026-04-26T08:39:55Z</time></trkpt><trkpt lat="38.06670221684826" lon="15.126934809148405"><ele>210.5</ele><time>2026-04-26T08:39:56Z</time></trkpt><trkpt lat="38.06673184892815" lon="15.126788721423027"><ele>207.0</ele><time>2026-04-26T08:39:57Z</time></trkpt><trkpt lat="38.06679147014038" lon="15.126682988738564"><ele>207.0</ele><time>2026-04-26T08:39:58Z</time></trkpt><trkpt lat="38.06685119223651" lon="15.126633100168034"><ele>207.0</ele><time>2026-04-26T08:39:59Z</time></trkpt><trkpt lat="38.066924182452155" lon="15.126635661624102"><ele>207.0</ele><time>2026-04-26T08:40:00Z</time></trkpt><trkpt lat="38.06701364872724" lon="15.126675438922959"><ele>207.0</ele><time>2026-04-26T08:40:01Z</time></trkpt><trkpt lat="38.06710791281387" lon="15.126752726341687"><ele>207.0</ele><time>2026-04-26T08:40:02Z</time></trkpt><trkpt lat="38.06719369915863" lon="15.12686694427625"><ele>207.0</ele><time>2026-04-26T08:40:03Z</time></trkpt><trkpt lat="38.06730221078206" lon="15.12692891570326"><ele>207.0</ele><time>2026-04-26T08:40:04Z</time></trkpt><trkpt lat="38.067421625167526" lon="15.126933880686671"><ele>207.0</ele><time>2026-04-26T08:40:05Z</time></trkpt><trkpt lat="38.06754939358196" lon="15.126868332604934"><ele>207.0</ele><time>2026-04-26T08:40:06Z</time></trkpt><trkpt lat="38.06766254063608" lon="15.126770724340657"><ele>208.5</ele><time>2026-04-26T08:40:07Z</time></trkpt><trkpt lat="38.06778681972215" lon="15.126700261985293"><ele>210.0</ele><time>2026-04-26T08:40:08Z</time></trkpt><trkpt lat="38.0679194831606" lon="15.126695334527897"><ele>211.5</ele><time>2026-04-26T08:40:09Z</time></trkpt><trkpt lat="38.06804936070987" lon="15.126745354868495"><ele>213.0</ele><time>2026-04-26T08:40:10Z</time></trkpt><trkpt lat="38.06817938763461" lon="15.126794971969115"><ele>212.0</ele><time>2026-04-26T08:40:11Z</time></trkpt><trkpt lat="38.068282133886804" lon="15.126896174611048"><ele>211.0</ele><time>2026-04-26T08:40:12Z</time></trkpt><trkpt lat="38.06836055213761" lon="15.12701156205441"><ele>210.0</ele><time>2026-04-26T08:40:13Z</time></trkpt><trkpt lat="38.06842224967165" lon="15.127144872243845"><ele>209.0</ele><time>2026-04-26T08:40:14Z</time></trkpt><trkpt lat="38.06849424359917" lon="15.127253008680825"><ele>209.0</ele><time>2026-04-26T08:40:15Z</time></trkpt><trkpt lat="38.068610183168836" lon="15.127316138477122"><ele>209.0</ele><time>2026-04-26T08:40:16Z</time></trkpt><trkpt lat="38.06873575777834" lon="15.127342676390711"><ele>209.0</ele><time>2026-04-26T08:40:17Z</time></trkpt><trkpt lat="38.068856014589905" lon="15.12732857186505"><ele>209.0</ele><time>2026-04-26T08:40:18Z</time></trkpt><trkpt lat="38.06896483946545" lon="15.12728925075789"><ele>209.0</ele><time>2026-04-26T08:40:19Z</time></trkpt><trkpt lat="38.06905135513649" lon="15.127170342878507"><ele>209.0</ele><time>2026-04-26T08:40:20Z</time></trkpt><trkpt lat="38.06913246436629" lon="15.12709591083876"><ele>209.0</ele><time>2026-04-26T08:40:21Z</time></trkpt><trkpt lat="38.06923938094289" lon="15.12712006906715"><ele>209.0</ele><time>2026-04-26T08:40:22Z</time></trkpt><trkpt lat="38.06932959953897" lon="15.127201938721594"><ele>209.0</ele><time>2026-04-26T08:40:23Z</time></trkpt><trkpt lat="38.06942548421295" lon="15.12728280522254"><ele>207.75</ele><time>2026-04-26T08:40:24Z</time></trkpt><trkpt lat="38.069563866357846" lon="15.127288402866938"><ele>206.5</ele><time>2026-04-26T08:40:25Z</time></trkpt><trkpt lat="38.069703236374224" lon="15.127303804392508"><ele>205.25</ele><time>2026-04-26T08:40:26Z</time></trkpt><trkpt lat="38.0698327641785" lon="15.127400932936856"><ele>204.0</ele><time>2026-04-26T08:40:27Z</time></trkpt><trkpt lat="38.06995404650341" lon="15.127516300416595"><ele>204.0</ele><time>2026-04-26T08:40:28Z</time></trkpt><trkpt lat="38.07010432927893" lon="15.127589467672703"><ele>204.0</ele><time>2026-04-26T08:40:29Z</time></trkpt><trkpt lat="38.07023614322257" lon="15.127616326849532"><ele>204.0</ele><time>2026-04-26T08:40:30Z</time></trkpt><trkpt lat="38.070363261404424" lon="15.127620435629678"><ele>204.0</ele><time>2026-04-26T08:40:31Z</time></trkpt><trkpt lat="38.07046427007048" lon="15.127657552622821"><ele>204.0</ele><time>2026-04-26T08:40:32Z</time></trkpt><trkpt lat="38.070541806999444" lon="15.127744120139933"><ele>204.0</ele><time>2026-04-26T08:40:33Z</time></trkpt><trkpt lat="38.070580639991526" lon="15.127875857311066"><ele>204.0</ele><time>2026-04-26T08:40:34Z</time></trkpt><trkpt lat="38.070566395651255" lon="15.128014004846301"><ele>204.0</ele><time>2026-04-26T08:40:35Z</time></trkpt><trkpt lat="38.07056226316459" lon="15.128105876836893"><ele>204.0</ele><time>2026-04-26T08:40:36Z</time></trkpt><trkpt lat="38.07055507218527" lon="15.12820573599128"><ele>201.79999999999998</ele><time>2026-04-26T08:40:37Z</time></trkpt><trkpt lat="38.07059905813438" lon="15.128306272441261"><ele>199.6</ele><time>2026-04-26T08:40:39Z</time></trkpt><trkpt lat="38.07079236015229" lon="15.128319376066745"><ele>197.4</ele><time>2026-04-26T08:42:13Z</time></trkpt><trkpt lat="38.07085841658357" lon="15.12832996371518"><ele>195.2</ele><time>2026-04-26T08:42:14Z</time></trkpt><trkpt lat="38.07092333823167" lon="15.128344300241864"><ele>193.0</ele><time>2026-04-26T08:42:15Z</time></trkpt><trkpt lat="38.07100498597086" lon="15.128349836470578"><ele>192.99999999999997</ele><time>2026-04-26T08:42:16Z</time></trkpt><trkpt lat="38.071068981017746" lon="15.12838980735696"><ele>193.0</ele><time>2026-04-26T08:42:17Z</time></trkpt><trkpt lat="38.07111711287952" lon="15.12846892187921"><ele>193.0</ele><time>2026-04-26T08:42:18Z</time></trkpt><trkpt lat="38.07115616886135" lon="15.128568512165675"><ele>193.0</ele><time>2026-04-26T08:42:19Z</time></trkpt><trkpt lat="38.0712078019553" lon="15.128654676154815"><ele>192.99999999999997</ele><time>2026-04-26T08:42:20Z</time></trkpt><trkpt lat="38.071315278129305" lon="15.128687244542922"><ele>193.0</ele><time>2026-04-26T08:42:21Z</time></trkpt><trkpt lat="38.07143106097652" lon="15.128707510623299"><ele>193.0</ele><time>2026-04-26T08:42:22Z</time></trkpt><trkpt lat="38.07149056513669" lon="15.128654272248776"><ele>193.0</ele><time>2026-04-26T08:42:23Z</time></trkpt><trkpt lat="38.07158561415214" lon="15.128649718117263"><ele>193.0</ele><time>2026-04-26T08:42:24Z</time></trkpt><trkpt lat="38.07168377642397" lon="15.128651578905464"><ele>193.0</ele><time>2026-04-26T08:42:25Z</time></trkpt><trkpt lat="38.071778145052164" lon="15.128674467830958"><ele>193.0</ele><time>2026-04-26T08:42:26Z</time></trkpt><trkpt lat="38.07188138662253" lon="15.128696338182934"><ele>187.2</ele><time>2026-04-26T08:42:27Z</time></trkpt><trkpt lat="38.07198421813168" lon="15.128731365097343"><ele>181.4</ele><time>2026-04-26T08:42:28Z</time></trkpt><trkpt lat="38.07209281052459" lon="15.128759723861764"><ele>175.6</ele><time>2026-04-26T08:42:29Z</time></trkpt><trkpt lat="38.072200771466086" lon="15.128792832024276"><ele>169.79999999999998</ele><time>2026-04-26T08:42:30Z</time></trkpt><trkpt lat="38.07231490899006" lon="15.128821814099593"><ele>164.0</ele><time>2026-04-26T08:42:31Z</time></trkpt><trkpt lat="38.072431177549035" lon="15.128845446835639"><ele>161.5</ele><time>2026-04-26T08:42:32Z</time></trkpt><trkpt lat="38.072545078298695" lon="15.128867849232119"><ele>159.0</ele><time>2026-04-26T08:42:33Z</time></trkpt><trkpt lat="38.07266211032441" lon="15.128894914780114"><ele>156.5</ele><time>2026-04-26T08:42:34Z</time></trkpt><trkpt lat="38.07277103244534" lon="15.12891638285005"><ele>154.0</ele><time>2026-04-26T08:42:35Z</time></trkpt><trkpt lat="38.072880261147816" lon="15.128939735172311"><ele>154.0</ele><time>2026-04-26T08:42:36Z</time></trkpt><trkpt lat="38.072979442119326" lon="15.12897159414072"><ele>154.0</ele><time>2026-04-26T08:42:37Z</time></trkpt><trkpt lat="38.073077101349" lon="15.128999035124126"><ele>154.0</ele><time>2026-04-26T08:42:38Z</time></trkpt><trkpt lat="38.07318174062997" lon="15.129025643146353"><ele>154.0</ele><time>2026-04-26T08:42:39Z</time></trkpt><trkpt lat="38.07328364797959" lon="15.129052260821805"><ele>154.0</ele><time>2026-04-26T08:42:40Z</time></trkpt><trkpt lat="38.073380501063326" lon="15.129077150959839"><ele>156.4</ele><time>2026-04-26T08:42:41Z</time></trkpt><trkpt lat="38.07348215367957" lon="15.129103040016508"><ele>158.8</ele><time>2026-04-26T08:42:42Z</time></trkpt><trkpt lat="38.07358687727467" lon="15.129130432661153"><ele>161.20000000000002</ele><time>2026-04-26T08:42:43Z</time></trkpt><trkpt lat="38.07369246316818" lon="15.129157969156598"><ele>163.60000000000002</ele><time>2026-04-26T08:42:44Z</time></trkpt><trkpt lat="38.073795665791664" lon="15.129199871355505"><ele>166.0</ele><time>2026-04-26T08:42:45Z</time></trkpt><trkpt lat="38.07389300252831" lon="15.129266662525989"><ele>166.0</ele><time>2026-04-26T08:42:46Z</time></trkpt><trkpt lat="38.073980143224105" lon="15.129348633717793"><ele>166.0</ele><time>2026-04-26T08:42:47Z</time></trkpt><trkpt lat="38.0740778745276" lon="15.129426710939965"><ele>166.0</ele><time>2026-04-26T08:42:48Z</time></trkpt><trkpt lat="38.074174516960575" lon="15.12948575948235"><ele>166.0</ele><time>2026-04-26T08:42:49Z</time></trkpt><trkpt lat="38.07428000459964" lon="15.129537243192152"><ele>166.0</ele><time>2026-04-26T08:42:50Z</time></trkpt><trkpt lat="38.07438477716977" lon="15.129558061182303"><ele>164.0</ele><time>2026-04-26T08:42:51Z</time></trkpt><trkpt lat="38.074495197527526" lon="15.129564877231504"><ele>162.0</ele><time>2026-04-26T08:42:52Z</time></trkpt><trkpt lat="38.074608014518084" lon="15.129557723039339"><ele>160.0</ele><time>2026-04-26T08:42:53Z</time></trkpt><trkpt lat="38.074713363722175" lon="15.129559192523468"><ele>158.0</ele><time>2026-04-26T08:42:54Z</time></trkpt><trkpt lat="38.07482008407148" lon="15.129568118911545"><ele>156.0</ele><time>2026-04-26T08:42:55Z</time></trkpt><trkpt lat="38.07492599960906" lon="15.129581350518649"><ele>153.8</ele><time>2026-04-26T08:42:56Z</time></trkpt><trkpt lat="38.07502259965678" lon="15.129588265460512"><ele>151.6</ele><time>2026-04-26T08:42:57Z</time></trkpt><trkpt lat="38.075128898485445" lon="15.129562416874913"><ele>149.4</ele><time>2026-04-26T08:42:58Z</time></trkpt><trkpt lat="38.0752235763471" lon="15.129545234498764"><ele>147.2</ele><time>2026-04-26T08:42:59Z</time></trkpt><trkpt lat="38.07532729797849" lon="15.129547266806103"><ele>145.0</ele><time>2026-04-26T08:43:00Z</time></trkpt><trkpt lat="38.0754321141916" lon="15.129571375947702"><ele>145.0</ele><time>2026-04-26T08:43:01Z</time></trkpt><trkpt lat="38.075526349813124" lon="15.129619182363315"><ele>145.0</ele><time>2026-04-26T08:43:02Z</time></trkpt><trkpt lat="38.0756018893623" lon="15.129699753400288"><ele>145.0</ele><time>2026-04-26T08:43:03Z</time></trkpt><trkpt lat="38.07568602898567" lon="15.129777265156962"><ele>145.0</ele><time>2026-04-26T08:43:04Z</time></trkpt><trkpt lat="38.075793116156106" lon="15.129808726780304"><ele>145.0</ele><time>2026-04-26T08:43:05Z</time></trkpt><trkpt lat="38.07592278262197" lon="15.1297746903844"><ele>144.6</ele><time>2026-04-26T08:43:06Z</time></trkpt><trkpt lat="38.07602552459872" lon="15.129759253708663"><ele>144.2</ele><time>2026-04-26T08:43:07Z</time></trkpt><trkpt lat="38.076127786527806" lon="15.12976674376354"><ele>143.8</ele><time>2026-04-26T08:43:08Z</time></trkpt><trkpt lat="38.07621727817106" lon="15.129784213777455"><ele>143.4</ele><time>2026-04-26T08:43:09Z</time></trkpt><trkpt lat="38.07629755091178" lon="15.129808965785948"><ele>143.0</ele><time>2026-04-26T08:43:10Z</time></trkpt><trkpt lat="38.076362805145" lon="15.129850828964427"><ele>145.4</ele><time>2026-04-26T08:43:11Z</time></trkpt><trkpt lat="38.07642721433428" lon="15.129905477577177"><ele>147.8</ele><time>2026-04-26T08:43:12Z</time></trkpt><trkpt lat="38.07649766918882" lon="15.12997689606907"><ele>150.2</ele><time>2026-04-26T08:43:13Z</time></trkpt><trkpt lat="38.07656973041352" lon="15.13007438414805"><ele>152.6</ele><time>2026-04-26T08:43:14Z</time></trkpt><trkpt lat="38.07664288223903" lon="15.130188443826267"><ele>155.0</ele><time>2026-04-26T08:43:15Z</time></trkpt><trkpt lat="38.07671888538296" lon="15.130305716106088"><ele>155.0</ele><time>2026-04-26T08:43:16Z</time></trkpt><trkpt lat="38.076817827344826" lon="15.130407129150523"><ele>155.0</ele><time>2026-04-26T08:43:17Z</time></trkpt><trkpt lat="38.07695281539894" lon="15.13045802342745"><ele>155.0</ele><time>2026-04-26T08:43:18Z</time></trkpt><trkpt lat="38.07708868491203" lon="15.130469359460944"><ele>155.0</ele><time>2026-04-26T08:43:19Z</time></trkpt><trkpt lat="38.077231084489576" lon="15.130481876478287"><ele>155.0</ele><time>2026-04-26T08:43:20Z</time></trkpt><trkpt lat="38.07737605148534" lon="15.130530550009956"><ele>155.0</ele><time>2026-04-26T08:43:21Z</time></trkpt><trkpt lat="38.07751465488679" lon="15.130605897612838"><ele>155.0</ele><time>2026-04-26T08:43:22Z</time></trkpt><trkpt lat="38.077666350022646" lon="15.130643276851524"><ele>151.33333333333331</ele><time>2026-04-26T08:43:23Z</time></trkpt><trkpt lat="38.07782618588539" lon="15.130639858393334"><ele>147.66666666666666</ele><time>2026-04-26T08:43:24Z</time></trkpt><trkpt lat="38.077999780340164" lon="15.130625201466785"><ele>144.0</ele><time>2026-04-26T08:43:25Z</time></trkpt><trkpt lat="38.07819451409064" lon="15.130602461038752"><ele>145.33333333333334</ele><time>2026-04-26T08:43:26Z</time></trkpt><trkpt lat="38.07840046267815" lon="15.13055405390356"><ele>146.66666666666669</ele><time>2026-04-26T08:43:27Z</time></trkpt><trkpt lat="38.07858798804433" lon="15.13047994653662"><ele>148.0</ele><time>2026-04-26T08:43:28Z</time></trkpt><trkpt lat="38.07877889271373" lon="15.130375366844046"><ele>148.0</ele><time>2026-04-26T08:43:29Z</time></trkpt><trkpt lat="38.07896382521311" lon="15.130267359720309"><ele>148.0</ele><time>2026-04-26T08:43:30Z</time></trkpt><trkpt lat="38.07913870659643" lon="15.130167088416417"><ele>148.0</ele><time>2026-04-26T08:43:31Z</time></trkpt><trkpt lat="38.079312591623335" lon="15.130096807747835"><ele>150.33333333333334</ele><time>2026-04-26T08:43:32Z</time></trkpt><trkpt lat="38.07949087547664" lon="15.130055288212738"><ele>152.66666666666666</ele><time>2026-04-26T08:43:33Z</time></trkpt><trkpt lat="38.079669841935164" lon="15.130049494576317"><ele>155.0</ele><time>2026-04-26T08:43:34Z</time></trkpt><trkpt lat="38.07983810040962" lon="15.130051611559416"><ele>157.0</ele><time>2026-04-26T08:43:35Z</time></trkpt><trkpt lat="38.07999759984153" lon="15.130061942475159"><ele>159.0</ele><time>2026-04-26T08:43:36Z</time></trkpt><trkpt lat="38.08015239742524" lon="15.130084694285086"><ele>161.0</ele><time>2026-04-26T08:43:37Z</time></trkpt><trkpt lat="38.08029565644964" lon="15.130141677671785"><ele>161.0</ele><time>2026-04-26T08:43:38Z</time></trkpt><trkpt lat="38.08040860403978" lon="15.13025102765953"><ele>161.0</ele><time>2026-04-26T08:43:39Z</time></trkpt><trkpt lat="38.08051369042741" lon="15.130391062692219"><ele>161.0</ele><time>2026-04-26T08:43:40Z</time></trkpt><trkpt lat="38.080635482469695" lon="15.130543664302097"><ele>160.0</ele><time>2026-04-26T08:43:41Z</time></trkpt><trkpt lat="38.08076791793692" lon="15.130711783952787"><ele>159.0</ele><time>2026-04-26T08:43:42Z</time></trkpt><trkpt lat="38.080905844447194" lon="15.130898233030528"><ele>158.0</ele><time>2026-04-26T08:43:43Z</time></trkpt><trkpt lat="38.08104982677197" lon="15.131101287710772"><ele>157.66666666666666</ele><time>2026-04-26T08:43:44Z</time></trkpt><trkpt lat="38.08120666755875" lon="15.131306614828938"><ele>157.33333333333334</ele><time>2026-04-26T08:43:45Z</time></trkpt><trkpt lat="38.08136662675905" lon="15.1314970404895"><ele>157.0</ele><time>2026-04-26T08:43:46Z</time></trkpt><trkpt lat="38.08152406969604" lon="15.131663980536125"><ele>157.0</ele><time>2026-04-26T08:43:47Z</time></trkpt><trkpt lat="38.08167977437862" lon="15.131816759061524"><ele>157.0</ele><time>2026-04-26T08:43:48Z</time></trkpt><trkpt lat="38.08181959961002" lon="15.13197819702653"><ele>157.0</ele><time>2026-04-26T08:43:49Z</time></trkpt><trkpt lat="38.08194237689224" lon="15.132145381626877"><ele>157.0</ele><time>2026-04-26T08:43:50Z</time></trkpt><trkpt lat="38.0820665168512" lon="15.132306340948515"><ele>157.0</ele><time>2026-04-26T08:43:51Z</time></trkpt><trkpt lat="38.08218547235633" lon="15.132461540647656"><ele>157.0</ele><time>2026-04-26T08:43:52Z</time></trkpt><trkpt lat="38.082298649058394" lon="15.132610548733545"><ele>155.0</ele><time>2026-04-26T08:43:53Z</time></trkpt><trkpt lat="38.08240913040251" lon="15.132749363582162"><ele>153.0</ele><time>2026-04-26T08:43:54Z</time></trkpt><trkpt lat="38.082517535605724" lon="15.132883988474422"><ele>151.0</ele><time>2026-04-26T08:43:55Z</time></trkpt><trkpt lat="38.08264558048203" lon="15.132977963651006"><ele>151.0</ele><time>2026-04-26T08:43:56Z</time></trkpt><trkpt lat="38.082787768395285" lon="15.133017394199037"><ele>151.0</ele><time>2026-04-26T08:43:57Z</time></trkpt><trkpt lat="38.08292506240528" lon="15.133011373290522"><ele>151.0</ele><time>2026-04-26T08:43:58Z</time></trkpt><trkpt lat="38.08306404888344" lon="15.132978129887741"><ele>151.0</ele><time>2026-04-26T08:43:59Z</time></trkpt><trkpt lat="38.08319554731248" lon="15.132968067118703"><ele>147.5</ele><time>2026-04-26T08:44:00Z</time></trkpt><trkpt lat="38.083332017599936" lon="15.132959398006683"><ele>144.0</ele><time>2026-04-26T08:44:01Z</time></trkpt><trkpt lat="38.083472942052346" lon="15.132951371515398"><ele>140.5</ele><time>2026-04-26T08:44:02Z</time></trkpt><trkpt lat="38.083615632673954" lon="15.132943584153303"><ele>137.0</ele><time>2026-04-26T08:44:03Z</time></trkpt><trkpt lat="38.08376071072369" lon="15.13293819653044"><ele>137.0</ele><time>2026-04-26T08:44:04Z</time></trkpt><trkpt lat="38.08390255042359" lon="15.132941231875844"><ele>137.0</ele><time>2026-04-26T08:44:05Z</time></trkpt><trkpt lat="38.084038203264534" lon="15.132951037303727"><ele>137.0</ele><time>2026-04-26T08:44:06Z</time></trkpt><trkpt lat="38.08417116663378" lon="15.132964164026475"><ele>137.0</ele><time>2026-04-26T08:44:07Z</time></trkpt><trkpt lat="38.084300859659066" lon="15.132982115941445"><ele>135.25</ele><time>2026-04-26T08:44:08Z</time></trkpt><trkpt lat="38.08442497686304" lon="15.13300043780531"><ele>133.5</ele><time>2026-04-26T08:44:09Z</time></trkpt><trkpt lat="38.084549426842244" lon="15.133028462165903"><ele>131.75</ele><time>2026-04-26T08:44:10Z</time></trkpt><trkpt lat="38.08466505188315" lon="15.133095160715206"><ele>130.0</ele><time>2026-04-26T08:44:11Z</time></trkpt><trkpt lat="38.08476194538606" lon="15.133197053286121"><ele>132.0</ele><time>2026-04-26T08:44:12Z</time></trkpt><trkpt lat="38.08485173835053" lon="15.133300973842427"><ele>134.0</ele><time>2026-04-26T08:44:13Z</time></trkpt><trkpt lat="38.08494794496532" lon="15.133403244929925"><ele>136.0</ele><time>2026-04-26T08:44:14Z</time></trkpt><trkpt lat="38.085043287508" lon="15.133491544719504"><ele>138.0</ele><time>2026-04-26T08:44:15Z</time></trkpt><trkpt lat="38.085126128464154" lon="15.133576975457622"><ele>138.0</ele><time>2026-04-26T08:44:16Z</time></trkpt><trkpt lat="38.08521408350466" lon="15.133659120584143"><ele>138.0</ele><time>2026-04-26T08:44:17Z</time></trkpt><trkpt lat="38.085314150601796" lon="15.13371258750723"><ele>138.0</ele><time>2026-04-26T08:44:18Z</time></trkpt><trkpt lat="38.08542448135239" lon="15.133715438385426"><ele>138.0</ele><time>2026-04-26T08:44:19Z</time></trkpt><trkpt lat="38.08553516679673" lon="15.13370301864959"><ele>138.0</ele><time>2026-04-26T08:44:20Z</time></trkpt><trkpt lat="38.085649952888346" lon="15.13367099839104"><ele>136.25</ele><time>2026-04-26T08:44:21Z</time></trkpt><trkpt lat="38.085764726980635" lon="15.133638492431032"><ele>134.5</ele><time>2026-04-26T08:44:22Z</time></trkpt><trkpt lat="38.08587628673254" lon="15.13359339180095"><ele>132.75</ele><time>2026-04-26T08:44:23Z</time></trkpt><trkpt lat="38.0859863210586" lon="15.133541886921948"><ele>131.0</ele><time>2026-04-26T08:44:24Z</time></trkpt><trkpt lat="38.08609384648578" lon="15.133488329987387"><ele>131.0</ele><time>2026-04-26T08:44:25Z</time></trkpt><trkpt lat="38.086197306217265" lon="15.133425931593528"><ele>131.0</ele><time>2026-04-26T08:44:26Z</time></trkpt><trkpt lat="38.08629390943156" lon="15.133352645954455"><ele>131.0</ele><time>2026-04-26T08:44:27Z</time></trkpt><trkpt lat="38.08637818310441" lon="15.133255749805183"><ele>131.0</ele><time>2026-04-26T08:44:28Z</time></trkpt><trkpt lat="38.086445140217464" lon="15.133146620660744"><ele>128.0</ele><time>2026-04-26T08:44:29Z</time></trkpt><trkpt lat="38.086513004546276" lon="15.133032382756657"><ele>125.0</ele><time>2026-04-26T08:44:30Z</time></trkpt><trkpt lat="38.08659524886114" lon="15.132934816150682"><ele>122.0</ele><time>2026-04-26T08:44:31Z</time></trkpt><trkpt lat="38.086668333887026" lon="15.132834475610814"><ele>119.0</ele><time>2026-04-26T08:44:32Z</time></trkpt><trkpt lat="38.086754438577934" lon="15.13275089716035"><ele>116.0</ele><time>2026-04-26T08:44:33Z</time></trkpt><trkpt lat="38.086852876378636" lon="15.13271178270983"><ele>116.0</ele><time>2026-04-26T08:44:34Z</time></trkpt><trkpt lat="38.08696242033534" lon="15.132719083455173"><ele>116.0</ele><time>2026-04-26T08:44:35Z</time></trkpt><trkpt lat="38.08706961623607" lon="15.132757934772469"><ele>116.0</ele><time>2026-04-26T08:44:36Z</time></trkpt><trkpt lat="38.08716276622483" lon="15.132780746357982"><ele>116.0</ele><time>2026-04-26T08:44:37Z</time></trkpt><trkpt lat="38.087259523463466" lon="15.132800711993255"><ele>116.0</ele><time>2026-04-26T08:44:38Z</time></trkpt><trkpt lat="38.08734975485106" lon="15.132823750329036"><ele>116.00000000000001</ele><time>2026-04-26T08:44:39Z</time></trkpt><trkpt lat="38.08742707076187" lon="15.132843776562797"><ele>116.0</ele><time>2026-04-26T08:44:40Z</time></trkpt><trkpt lat="38.08749678001472" lon="15.13285980076351"><ele>116.00000000000001</ele><time>2026-04-26T08:44:41Z</time></trkpt><trkpt lat="38.087565627763446" lon="15.132875051617182"><ele>116.00000000000001</ele><time>2026-04-26T08:44:42Z</time></trkpt><trkpt lat="38.0876328983061" lon="15.132881723655213"><ele>116.0</ele><time>2026-04-26T08:44:43Z</time></trkpt><trkpt lat="38.08770793043697" lon="15.132902215155042"><ele>116.00000000000001</ele><time>2026-04-26T08:44:44Z</time></trkpt><trkpt lat="38.08778394796748" lon="15.132935375815409"><ele>116.00000000000001</ele><time>2026-04-26T08:44:45Z</time></trkpt><trkpt lat="38.08787207641238" lon="15.132969856708078"><ele>115.66666666666666</ele><time>2026-04-26T08:44:46Z</time></trkpt><trkpt lat="38.0879637565439" lon="15.132993148565594"><ele>115.33333333333333</ele><time>2026-04-26T08:44:47Z</time></trkpt><trkpt lat="38.08804544195398" lon="15.133034837499208"><ele>115.0</ele><time>2026-04-26T08:44:48Z</time></trkpt><trkpt lat="38.088130085218594" lon="15.133087796217676"><ele>114.66666666666666</ele><time>2026-04-26T08:44:49Z</time></trkpt><trkpt lat="38.08818163238905" lon="15.133156938210155"><ele>114.33333333333333</ele><time>2026-04-26T08:44:50Z</time></trkpt><trkpt lat="38.088232091021624" lon="15.133229563970604"><ele>114.0</ele><time>2026-04-26T08:44:51Z</time></trkpt><trkpt lat="38.088279854622506" lon="15.13330102490553"><ele>116.0</ele><time>2026-04-26T08:44:52Z</time></trkpt><trkpt lat="38.08833155371574" lon="15.133399084749021"><ele>118.0</ele><time>2026-04-26T08:44:53Z</time></trkpt><trkpt lat="38.08835683641238" lon="15.13350595756509"><ele>120.0</ele><time>2026-04-26T08:44:54Z</time></trkpt><trkpt lat="38.08833697539958" lon="15.13364244356836"><ele>122.0</ele><time>2026-04-26T08:44:55Z</time></trkpt><trkpt lat="38.088345089993666" lon="15.13374915567517"><ele>124.0</ele><time>2026-04-26T08:44:56Z</time></trkpt><trkpt lat="38.0883053396754" lon="15.133839817042622"><ele>125.6</ele><time>2026-04-26T08:44:57Z</time></trkpt><trkpt lat="38.08824046973111" lon="15.133892027156485"><ele>127.2</ele><time>2026-04-26T08:44:58Z</time></trkpt><trkpt lat="38.08817072518663" lon="15.133934050429561"><ele>128.79999999999998</ele><time>2026-04-26T08:44:59Z</time></trkpt><trkpt lat="38.088082366660586" lon="15.13400016500667"><ele>130.4</ele><time>2026-04-26T08:45:00Z</time></trkpt><trkpt lat="38.087971761156595" lon="15.13405197607822"><ele>132.0</ele><time>2026-04-26T08:45:01Z</time></trkpt><trkpt lat="38.08786550481971" lon="15.134125362398425"><ele>132.0</ele><time>2026-04-26T08:45:02Z</time></trkpt><trkpt lat="38.08776222921266" lon="15.134240242501345"><ele>132.0</ele><time>2026-04-26T08:45:03Z</time></trkpt><trkpt lat="38.08766103518086" lon="15.134368212679373"><ele>132.0</ele><time>2026-04-26T08:45:04Z</time></trkpt><trkpt lat="38.08756565878414" lon="15.134519789417556"><ele>132.0</ele><time>2026-04-26T08:45:05Z</time></trkpt><trkpt lat="38.087464994290265" lon="15.134675098727197"><ele>135.75</ele><time>2026-04-26T08:45:06Z</time></trkpt><trkpt lat="38.08738351070904" lon="15.134846549032526"><ele>139.5</ele><time>2026-04-26T08:45:07Z</time></trkpt><trkpt lat="38.08733437438857" lon="15.135020938488207"><ele>143.25</ele><time>2026-04-26T08:45:08Z</time></trkpt><trkpt lat="38.08728243067171" lon="15.135187698741198"><ele>147.0</ele><time>2026-04-26T08:45:09Z</time></trkpt><trkpt lat="38.087243721597126" lon="15.135326489316245"><ele>147.0</ele><time>2026-04-26T08:45:10Z</time></trkpt><trkpt lat="38.08725154604585" lon="15.135470479550223"><ele>147.0</ele><time>2026-04-26T08:45:11Z</time></trkpt><trkpt lat="38.08729540192598" lon="15.135604624739116"><ele>147.0</ele><time>2026-04-26T08:45:12Z</time></trkpt><trkpt lat="38.0873695816526" lon="15.13572794884649"><ele>147.0</ele><time>2026-04-26T08:45:13Z</time></trkpt><trkpt lat="38.08747383058028" lon="15.135824824163064"><ele>138.5</ele><time>2026-04-26T08:45:14Z</time></trkpt><trkpt lat="38.08759251592769" lon="15.135931283858929"><ele>130.0</ele><time>2026-04-26T08:45:15Z</time></trkpt><trkpt lat="38.087708191945" lon="15.136024136348496"><ele>121.5</ele><time>2026-04-26T08:45:16Z</time></trkpt><trkpt lat="38.08783881823599" lon="15.136102146369428"><ele>113.0</ele><time>2026-04-26T08:45:17Z</time></trkpt><trkpt lat="38.087988842393294" lon="15.13612119569524"><ele>113.0</ele><time>2026-04-26T08:45:18Z</time></trkpt><trkpt lat="38.088134466154074" lon="15.136096954995885"><ele>113.0</ele><time>2026-04-26T08:45:19Z</time></trkpt><trkpt lat="38.08827357442405" lon="15.13610026791344"><ele>113.0</ele><time>2026-04-26T08:45:20Z</time></trkpt><trkpt lat="38.08840025731678" lon="15.13609564704934"><ele>113.0</ele><time>2026-04-26T08:45:21Z</time></trkpt><trkpt lat="38.088518866954566" lon="15.136116190932382"><ele>111.75</ele><time>2026-04-26T08:45:22Z</time></trkpt><trkpt lat="38.08862714726152" lon="15.136177697207808"><ele>110.5</ele><time>2026-04-26T08:45:23Z</time></trkpt><trkpt lat="38.08872843649534" lon="15.136249253935723"><ele>109.25</ele><time>2026-04-26T08:45:24Z</time></trkpt><trkpt lat="38.088812923806906" lon="15.136364767228008"><ele>108.0</ele><time>2026-04-26T08:45:25Z</time></trkpt><trkpt lat="38.088897604535944" lon="15.136497052626115"><ele>107.33333333333334</ele><time>2026-04-26T08:45:26Z</time></trkpt><trkpt lat="38.088995044644015" lon="15.136637104000997"><ele>106.66666666666667</ele><time>2026-04-26T08:45:27Z</time></trkpt><trkpt lat="38.08909173087121" lon="15.136791483265961"><ele>106.0</ele><time>2026-04-26T08:45:28Z</time></trkpt><trkpt lat="38.08919649711066" lon="15.136954664012721"><ele>106.0</ele><time>2026-04-26T08:45:29Z</time></trkpt><trkpt lat="38.08930447956066" lon="15.137137371667453"><ele>106.0</ele><time>2026-04-26T08:45:30Z</time></trkpt><trkpt lat="38.089413387663654" lon="15.137317139377044"><ele>106.0</ele><time>2026-04-26T08:45:31Z</time></trkpt><trkpt lat="38.089506449750836" lon="15.137479694881012"><ele>106.75</ele><time>2026-04-26T08:45:32Z</time></trkpt><trkpt lat="38.08959517448839" lon="15.137614629214577"><ele>107.5</ele><time>2026-04-26T08:45:33Z</time></trkpt><trkpt lat="38.08966518415662" lon="15.137723888215909"><ele>108.25</ele><time>2026-04-26T08:45:34Z</time></trkpt><trkpt lat="38.089730239039746" lon="15.13783873897376"><ele>109.0</ele><time>2026-04-26T08:45:35Z</time></trkpt><trkpt lat="38.08980133349075" lon="15.13796017899227"><ele>109.0</ele><time>2026-04-26T08:45:36Z</time></trkpt><trkpt lat="38.08988309678434" lon="15.138087027049485"><ele>109.0</ele><time>2026-04-26T08:45:37Z</time></trkpt><trkpt lat="38.08997109849824" lon="15.138219427675565"><ele>109.0</ele><time>2026-04-26T08:45:38Z</time></trkpt><trkpt lat="38.09005599249682" lon="15.138359308987296"><ele>109.0</ele><time>2026-04-26T08:45:39Z</time></trkpt><trkpt lat="38.090149398439856" lon="15.13850460829148"><ele>107.0</ele><time>2026-04-26T08:45:40Z</time></trkpt><trkpt lat="38.09023970829817" lon="15.138654415953777"><ele>105.0</ele><time>2026-04-26T08:45:41Z</time></trkpt><trkpt lat="38.09032580160179" lon="15.138813816804475"><ele>103.0</ele><time>2026-04-26T08:45:42Z</time></trkpt><trkpt lat="38.09041782207958" lon="15.138970491260647"><ele>107.33333333333334</ele><time>2026-04-26T08:45:43Z</time></trkpt><trkpt lat="38.090517440331276" lon="15.139127547142955"><ele>111.66666666666666</ele><time>2026-04-26T08:45:44Z</time></trkpt><trkpt lat="38.09061729992884" lon="15.139282801212707"><ele>116.0</ele><time>2026-04-26T08:45:45Z</time></trkpt><trkpt lat="38.09071958710635" lon="15.139439266033484"><ele>111.33333333333333</ele><time>2026-04-26T08:45:46Z</time></trkpt><trkpt lat="38.09082309472146" lon="15.139598342518044"><ele>106.66666666666666</ele><time>2026-04-26T08:45:47Z</time></trkpt><trkpt lat="38.090913917805956" lon="15.13977060831152"><ele>102.0</ele><time>2026-04-26T08:45:48Z</time></trkpt><trkpt lat="38.09099028295969" lon="15.139953493322158"><ele>102.0</ele><time>2026-04-26T08:45:49Z</time></trkpt><trkpt lat="38.091031444008166" lon="15.140143289118653"><ele>102.0</ele><time>2026-04-26T08:45:50Z</time></trkpt><trkpt lat="38.09105964436146" lon="15.140337284467519"><ele>102.0</ele><time>2026-04-26T08:45:51Z</time></trkpt><trkpt lat="38.09111296333759" lon="15.14053191669705"><ele>101.33333333333334</ele><time>2026-04-26T08:45:52Z</time></trkpt><trkpt lat="38.09114096975635" lon="15.140736269865535"><ele>100.66666666666667</ele><time>2026-04-26T08:45:53Z</time></trkpt><trkpt lat="38.09116376035965" lon="15.140944507457647"><ele>100.0</ele><time>2026-04-26T08:45:54Z</time></trkpt><trkpt lat="38.091212635012745" lon="15.14115089357976"><ele>100.0</ele><time>2026-04-26T08:45:55Z</time></trkpt><trkpt lat="38.091248927137286" lon="15.141347770546245"><ele>100.0</ele><time>2026-04-26T08:45:56Z</time></trkpt><trkpt lat="38.09126275599331" lon="15.141516241072138"><ele>100.0</ele><time>2026-04-26T08:45:57Z</time></trkpt><trkpt lat="38.0912707274699" lon="15.141658142114975"><ele>100.0</ele><time>2026-04-26T08:45:58Z</time></trkpt><trkpt lat="38.091273426182276" lon="15.14179735703424"><ele>100.5</ele><time>2026-04-26T08:45:59Z</time></trkpt><trkpt lat="38.091242649828644" lon="15.141944652967757"><ele>101.0</ele><time>2026-04-26T08:46:00Z</time></trkpt><trkpt lat="38.0911944415518" lon="15.142080630644447"><ele>101.5</ele><time>2026-04-26T08:46:01Z</time></trkpt><trkpt lat="38.09114056466485" lon="15.14223204664231"><ele>102.0</ele><time>2026-04-26T08:46:02Z</time></trkpt><trkpt lat="38.0911016464975" lon="15.14241214311084"><ele>102.5</ele><time>2026-04-26T08:46:03Z</time></trkpt><trkpt lat="38.091049914073636" lon="15.142575371094853"><ele>103.0</ele><time>2026-04-26T08:46:04Z</time></trkpt><trkpt lat="38.0909966335936" lon="15.142737091395043"><ele>103.5</ele><time>2026-04-26T08:46:05Z</time></trkpt><trkpt lat="38.09098978279745" lon="15.142892598214885"><ele>104.0</ele><time>2026-04-26T08:46:06Z</time></trkpt><trkpt lat="38.09101941066832" lon="15.143027893736038"><ele>104.0</ele><time>2026-04-26T08:46:07Z</time></trkpt><trkpt lat="38.09108075938122" lon="15.14315287953023"><ele>104.0</ele><time>2026-04-26T08:46:08Z</time></trkpt><trkpt lat="38.0911735433091" lon="15.143264542063514"><ele>104.0</ele><time>2026-04-26T08:46:09Z</time></trkpt><trkpt lat="38.091278374242656" lon="15.143384128844671"><ele>104.0</ele><time>2026-04-26T08:46:10Z</time></trkpt><trkpt lat="38.09137864767029" lon="15.14352578601603"><ele>103.33333333333333</ele><time>2026-04-26T08:46:11Z</time></trkpt><trkpt lat="38.091492542954754" lon="15.143678641535297"><ele>102.66666666666666</ele><time>2026-04-26T08:46:12Z</time></trkpt><trkpt lat="38.09161574876377" lon="15.14382826804491"><ele>102.0</ele><time>2026-04-26T08:46:13Z</time></trkpt><trkpt lat="38.091737791898915" lon="15.143981797259169"><ele>102.0</ele><time>2026-04-26T08:46:14Z</time></trkpt><trkpt lat="38.091852601778854" lon="15.144135717035985"><ele>102.0</ele><time>2026-04-26T08:46:15Z</time></trkpt><trkpt lat="38.091967045771725" lon="15.144287877114593"><ele>102.0</ele><time>2026-04-26T08:46:16Z</time></trkpt><trkpt lat="38.092087543173925" lon="15.144435326903311"><ele>102.0</ele><time>2026-04-26T08:46:17Z</time></trkpt><trkpt lat="38.09220716762548" lon="15.144581934574072"><ele>102.0</ele><time>2026-04-26T08:46:18Z</time></trkpt><trkpt lat="38.09232267886517" lon="15.14473047020435"><ele>102.0</ele><time>2026-04-26T08:46:19Z</time></trkpt><trkpt lat="38.092430457811105" lon="15.144875544779469"><ele>101.5</ele><time>2026-04-26T08:46:20Z</time></trkpt><trkpt lat="38.09253654268756" lon="15.145011847038603"><ele>101.0</ele><time>2026-04-26T08:46:21Z</time></trkpt><trkpt lat="38.09263822094641" lon="15.14514102817564"><ele>100.5</ele><time>2026-04-26T08:46:22Z</time></trkpt><trkpt lat="38.09274204960959" lon="15.145278779822643"><ele>100.0</ele><time>2026-04-26T08:46:23Z</time></trkpt><trkpt lat="38.09284954592477" lon="15.145422204068446"><ele>100.0</ele><time>2026-04-26T08:46:24Z</time></trkpt><trkpt lat="38.09296166871247" lon="15.145563891678517"><ele>100.0</ele><time>2026-04-26T08:46:25Z</time></trkpt><trkpt lat="38.093084890956" lon="15.145684754753704"><ele>100.0</ele><time>2026-04-26T08:46:26Z</time></trkpt><trkpt lat="38.09321439277756" lon="15.145772945672217"><ele>100.25</ele><time>2026-04-26T08:46:27Z</time></trkpt><trkpt lat="38.0933462778442" lon="15.145832604611902"><ele>100.5</ele><time>2026-04-26T08:46:28Z</time></trkpt><trkpt lat="38.09348235460574" lon="15.145879471476466"><ele>100.75</ele><time>2026-04-26T08:46:29Z</time></trkpt><trkpt lat="38.09362241857158" lon="15.145885852725005"><ele>101.0</ele><time>2026-04-26T08:46:30Z</time></trkpt><trkpt lat="38.09376696132087" lon="15.145857720469898"><ele>101.0</ele><time>2026-04-26T08:46:31Z</time></trkpt><trkpt lat="38.09391254857458" lon="15.145806192799547"><ele>101.0</ele><time>2026-04-26T08:46:32Z</time></trkpt><trkpt lat="38.09404238749438" lon="15.145755101106813"><ele>101.0</ele><time>2026-04-26T08:46:33Z</time></trkpt><trkpt lat="38.0941637902423" lon="15.145710307925514"><ele>101.0</ele><time>2026-04-26T08:46:34Z</time></trkpt><trkpt lat="38.09427664821536" lon="15.145665322085852"><ele>99.0</ele><time>2026-04-26T08:46:35Z</time></trkpt><trkpt lat="38.09438539377988" lon="15.145615609784958"><ele>97.0</ele><time>2026-04-26T08:46:36Z</time></trkpt><trkpt lat="38.094509480628496" lon="15.14557202161022"><ele>95.0</ele><time>2026-04-26T08:46:37Z</time></trkpt><trkpt lat="38.0946501696473" lon="15.145548510387421"><ele>93.0</ele><time>2026-04-26T08:46:38Z</time></trkpt><trkpt lat="38.09479877777195" lon="15.145552113389698"><ele>92.66666666666667</ele><time>2026-04-26T08:46:39Z</time></trkpt><trkpt lat="38.094952472530366" lon="15.145576987885704"><ele>92.33333333333334</ele><time>2026-04-26T08:46:40Z</time></trkpt><trkpt lat="38.095110488779994" lon="15.145595210817913"><ele>92.0</ele><time>2026-04-26T08:46:41Z</time></trkpt><trkpt lat="38.09527301714636" lon="15.14561345307677"><ele>92.0</ele><time>2026-04-26T08:46:42Z</time></trkpt><trkpt lat="38.09543785803895" lon="15.145639232327927"><ele>92.0</ele><time>2026-04-26T08:46:43Z</time></trkpt><trkpt lat="38.09560521627957" lon="15.145665718872669"><ele>92.0</ele><time>2026-04-26T08:46:44Z</time></trkpt><trkpt lat="38.095772910973096" lon="15.145650250198651"><ele>92.0</ele><time>2026-04-26T08:46:45Z</time></trkpt><trkpt lat="38.09592861577076" lon="15.145568114170747"><ele>92.0</ele><time>2026-04-26T08:46:46Z</time></trkpt><trkpt lat="38.096059454491595" lon="15.145432658619498"><ele>92.0</ele><time>2026-04-26T08:46:47Z</time></trkpt><trkpt lat="38.09617204038636" lon="15.145318756001249"><ele>92.0</ele><time>2026-04-26T08:46:48Z</time></trkpt><trkpt lat="38.09630830193085" lon="15.145282799651392"><ele>92.0</ele><time>2026-04-26T08:46:49Z</time></trkpt><trkpt lat="38.09644037444114" lon="15.145289814040682"><ele>92.0</ele><time>2026-04-26T08:46:50Z</time></trkpt><trkpt lat="38.09657285040449" lon="15.145326459782394"><ele>92.0</ele><time>2026-04-26T08:46:51Z</time></trkpt><trkpt lat="38.09671450459153" lon="15.145353475524802"><ele>92.33333333333334</ele><time>2026-04-26T08:46:52Z</time></trkpt><trkpt lat="38.09686819585975" lon="15.145335920926106"><ele>92.66666666666667</ele><time>2026-04-26T08:46:53Z</time></trkpt><trkpt lat="38.097026347159684" lon="15.145289253964986"><ele>93.0</ele><time>2026-04-26T08:46:54Z</time></trkpt><trkpt lat="38.09718215888123" lon="15.145222869380703"><ele>93.0</ele><time>2026-04-26T08:46:55Z</time></trkpt><trkpt lat="38.097337997679" lon="15.145139864578374"><ele>93.0</ele><time>2026-04-26T08:46:56Z</time></trkpt><trkpt lat="38.0974940227588" lon="15.145082499471247"><ele>93.0</ele><time>2026-04-26T08:46:57Z</time></trkpt><trkpt lat="38.09762919086437" lon="15.144977211122447"><ele>92.33333333333333</ele><time>2026-04-26T08:46:58Z</time></trkpt><trkpt lat="38.09774014916465" lon="15.144826378481929"><ele>91.66666666666666</ele><time>2026-04-26T08:46:59Z</time></trkpt><trkpt lat="38.09784629525106" lon="15.144682296818216"><ele>91.0</ele><time>2026-04-26T08:47:00Z</time></trkpt><trkpt lat="38.097941796930826" lon="15.144545542703279"><ele>91.0</ele><time>2026-04-26T08:47:01Z</time></trkpt><trkpt lat="38.09802854727678" lon="15.144404793953465"><ele>91.0</ele><time>2026-04-26T08:47:02Z</time></trkpt><trkpt lat="38.09809682784817" lon="15.144264621134626"><ele>91.0</ele><time>2026-04-26T08:47:03Z</time></trkpt><trkpt lat="38.09812021865073" lon="15.144089120737164"><ele>91.0</ele><time>2026-04-26T08:47:04Z</time></trkpt><trkpt lat="38.09811491884583" lon="15.143904831219132"><ele>90.0</ele><time>2026-04-26T08:47:05Z</time></trkpt><trkpt lat="38.09806550576451" lon="15.143741083336398"><ele>89.0</ele><time>2026-04-26T08:47:06Z</time></trkpt><trkpt lat="38.09802020900068" lon="15.143598754185264"><ele>88.0</ele><time>2026-04-26T08:47:07Z</time></trkpt><trkpt lat="38.09798406590691" lon="15.143494095572251"><ele>87.0</ele><time>2026-04-26T08:47:08Z</time></trkpt><trkpt lat="38.09799527706768" lon="15.143377054282686"><ele>86.0</ele><time>2026-04-26T08:47:09Z</time></trkpt><trkpt lat="38.098057539850146" lon="15.14328398515952"><ele>86.0</ele><time>2026-04-26T08:47:10Z</time></trkpt><trkpt lat="38.09814627001797" lon="15.143227932865074"><ele>86.0</ele><time>2026-04-26T08:47:11Z</time></trkpt><trkpt lat="38.09824316949888" lon="15.143180176823218"><ele>86.0</ele><time>2026-04-26T08:47:12Z</time></trkpt><trkpt lat="38.09834012247729" lon="15.143103802611442"><ele>86.0</ele><time>2026-04-26T08:47:13Z</time></trkpt><trkpt lat="38.09844544028843" lon="15.143012017686697"><ele>86.0</ele><time>2026-04-26T08:47:14Z</time></trkpt><trkpt lat="38.0985552129062" lon="15.142920590246058"><ele>85.4</ele><time>2026-04-26T08:47:15Z</time></trkpt><trkpt lat="38.09865539312982" lon="15.142845117457126"><ele>84.8</ele><time>2026-04-26T08:47:16Z</time></trkpt><trkpt lat="38.09875676767028" lon="15.142807985322175"><ele>84.2</ele><time>2026-04-26T08:47:17Z</time></trkpt><trkpt lat="38.09885537446738" lon="15.142838493405115"><ele>83.60000000000001</ele><time>2026-04-26T08:47:18Z</time></trkpt><trkpt lat="38.09894228124591" lon="15.142923988702139"><ele>83.0</ele><time>2026-04-26T08:47:19Z</time></trkpt><trkpt lat="38.09903464400546" lon="15.143030847645687"><ele>82.66666666666667</ele><time>2026-04-26T08:47:20Z</time></trkpt><trkpt lat="38.099138130119826" lon="15.143138546872658"><ele>82.33333333333333</ele><time>2026-04-26T08:47:21Z</time></trkpt><trkpt lat="38.09923508351743" lon="15.143276394121097"><ele>82.0</ele><time>2026-04-26T08:47:22Z</time></trkpt><trkpt lat="38.09935986454042" lon="15.143427028960321"><ele>83.5</ele><time>2026-04-26T08:47:23Z</time></trkpt><trkpt lat="38.0994811833534" lon="15.143534027755685"><ele>85.0</ele><time>2026-04-26T08:47:24Z</time></trkpt><trkpt lat="38.09961345060076" lon="15.143618031583735"><ele>86.5</ele><time>2026-04-26T08:47:25Z</time></trkpt><trkpt lat="38.099759509937066" lon="15.143661504327968"><ele>88.0</ele><time>2026-04-26T08:47:26Z</time></trkpt><trkpt lat="38.099911917262865" lon="15.143670284983273"><ele>86.75</ele><time>2026-04-26T08:47:27Z</time></trkpt><trkpt lat="38.10007005483781" lon="15.143646928740607"><ele>85.5</ele><time>2026-04-26T08:47:28Z</time></trkpt><trkpt lat="38.10021193786797" lon="15.143604864852627"><ele>84.25</ele><time>2026-04-26T08:47:29Z</time></trkpt><trkpt lat="38.100344423349405" lon="15.143575973070993"><ele>83.0</ele><time>2026-04-26T08:47:30Z</time></trkpt><trkpt lat="38.10046721832533" lon="15.143564994058227"><ele>83.0</ele><time>2026-04-26T08:47:31Z</time></trkpt><trkpt lat="38.100581331272814" lon="15.143592261279005"><ele>83.0</ele><time>2026-04-26T08:47:32Z</time></trkpt><trkpt lat="38.100675646096214" lon="15.14365949464663"><ele>83.0</ele><time>2026-04-26T08:47:33Z</time></trkpt><trkpt lat="38.10073430977882" lon="15.143771986593851"><ele>83.0</ele><time>2026-04-26T08:47:34Z</time></trkpt><trkpt lat="38.10075433276129" lon="15.14391612935961"><ele>83.0</ele><time>2026-04-26T08:47:35Z</time></trkpt><trkpt lat="38.100778572085055" lon="15.144069807684048"><ele>83.0</ele><time>2026-04-26T08:47:36Z</time></trkpt><trkpt lat="38.10085992825886" lon="15.14421574485298"><ele>83.0</ele><time>2026-04-26T08:47:37Z</time></trkpt><trkpt lat="38.10096927390779" lon="15.144343491241079"><ele>83.0</ele><time>2026-04-26T08:47:38Z</time></trkpt><trkpt lat="38.10111531670568" lon="15.14442940399172"><ele>83.0</ele><time>2026-04-26T08:47:39Z</time></trkpt><trkpt lat="38.10127980581397" lon="15.144486606966588"><ele>83.0</ele><time>2026-04-26T08:47:40Z</time></trkpt><trkpt lat="38.10144454093481" lon="15.144582258154362"><ele>83.0</ele><time>2026-04-26T08:47:41Z</time></trkpt><trkpt lat="38.10157889330855" lon="15.14469787158817"><ele>82.33333333333334</ele><time>2026-04-26T08:47:42Z</time></trkpt><trkpt lat="38.10170237117789" lon="15.144818028040083"><ele>81.66666666666667</ele><time>2026-04-26T08:47:43Z</time></trkpt><trkpt lat="38.101826634886976" lon="15.14494624051438"><ele>81.0</ele><time>2026-04-26T08:47:44Z</time></trkpt><trkpt lat="38.10194784843237" lon="15.14508358077355"><ele>81.0</ele><time>2026-04-26T08:47:45Z</time></trkpt><trkpt lat="38.10206743042175" lon="15.14520838101668"><ele>81.0</ele><time>2026-04-26T08:47:46Z</time></trkpt><trkpt lat="38.10217598304031" lon="15.145325113783876"><ele>81.0</ele><time>2026-04-26T08:47:47Z</time></trkpt><trkpt lat="38.1022676808344" lon="15.145448867899468"><ele>81.0</ele><time>2026-04-26T08:47:48Z</time></trkpt><trkpt lat="38.102332037550674" lon="15.145607522997414"><ele>79.5</ele><time>2026-04-26T08:47:49Z</time></trkpt><trkpt lat="38.10236331078046" lon="15.145784989524374"><ele>78.0</ele><time>2026-04-26T08:47:50Z</time></trkpt><trkpt lat="38.102399104527116" lon="15.14594813077858"><ele>76.5</ele><time>2026-04-26T08:47:51Z</time></trkpt><trkpt lat="38.10245546776615" lon="15.14607731090952"><ele>75.0</ele><time>2026-04-26T08:47:52Z</time></trkpt><trkpt lat="38.10254800571685" lon="15.146162056977797"><ele>75.0</ele><time>2026-04-26T08:47:53Z</time></trkpt><trkpt lat="38.102659071173456" lon="15.146190511670673"><ele>75.0</ele><time>2026-04-26T08:47:54Z</time></trkpt><trkpt lat="38.10277310796261" lon="15.146153217149786"><ele>75.0</ele><time>2026-04-26T08:47:55Z</time></trkpt><trkpt lat="38.10287968081816" lon="15.146054024287634"><ele>75.0</ele><time>2026-04-26T08:47:56Z</time></trkpt><trkpt lat="38.10298592507036" lon="15.145930946919611"><ele>75.0</ele><time>2026-04-26T08:47:57Z</time></trkpt><trkpt lat="38.10309335864665" lon="15.14580287353462"><ele>75.0</ele><time>2026-04-26T08:47:58Z</time></trkpt><trkpt lat="38.10320616224163" lon="15.145717903766553"><ele>75.0</ele><time>2026-04-26T08:47:59Z</time></trkpt><trkpt lat="38.10332436251904" lon="15.145685192829548"><ele>75.0</ele><time>2026-04-26T08:48:00Z</time></trkpt><trkpt lat="38.10343092682348" lon="15.14571108775293"><ele>74.2</ele><time>2026-04-26T08:48:01Z</time></trkpt><trkpt lat="38.10352753293568" lon="15.145780416931666"><ele>73.4</ele><time>2026-04-26T08:48:02Z</time></trkpt><trkpt lat="38.103633670563966" lon="15.145846375275715"><ele>72.6</ele><time>2026-04-26T08:48:03Z</time></trkpt><trkpt lat="38.10372188139669" lon="15.14592655255615"><ele>71.8</ele><time>2026-04-26T08:48:04Z</time></trkpt><trkpt lat="38.1037923527705" lon="15.14602233511356"><ele>71.0</ele><time>2026-04-26T08:48:05Z</time></trkpt><trkpt lat="38.1038531778478" lon="15.146115209507249"><ele>71.0</ele><time>2026-04-26T08:48:06Z</time></trkpt><trkpt lat="38.10390772159396" lon="15.146215937684556"><ele>71.0</ele><time>2026-04-26T08:48:07Z</time></trkpt><trkpt lat="38.103980403470494" lon="15.146308415801379"><ele>71.0</ele><time>2026-04-26T08:48:08Z</time></trkpt><trkpt lat="38.10406993398787" lon="15.146395786844518"><ele>71.0</ele><time>2026-04-26T08:48:09Z</time></trkpt><trkpt lat="38.10416060373564" lon="15.146492722293685"><ele>71.0</ele><time>2026-04-26T08:48:10Z</time></trkpt><trkpt lat="38.10424583144991" lon="15.146606103510704"><ele>71.6</ele><time>2026-04-26T08:48:11Z</time></trkpt><trkpt lat="38.104303770212084" lon="15.146738382634847"><ele>72.19999999999999</ele><time>2026-04-26T08:48:12Z</time></trkpt><trkpt lat="38.104341024029594" lon="15.146873365241968"><ele>72.80000000000001</ele><time>2026-04-26T08:48:13Z</time></trkpt><trkpt lat="38.104411078689175" lon="15.146976851662691"><ele>73.4</ele><time>2026-04-26T08:48:14Z</time></trkpt><trkpt lat="38.10451106636348" lon="15.147016418184231"><ele>74.0</ele><time>2026-04-26T08:48:15Z</time></trkpt><trkpt lat="38.104605127293475" lon="15.146981529710391"><ele>74.0</ele><time>2026-04-26T08:48:16Z</time></trkpt><trkpt lat="38.104672124298716" lon="15.146908356134238"><ele>74.0</ele><time>2026-04-26T08:48:17Z</time></trkpt><trkpt lat="38.104733562088065" lon="15.14679580351672"><ele>74.0</ele><time>2026-04-26T08:48:18Z</time></trkpt><trkpt lat="38.104778553723584" lon="15.146653041538784"><ele>74.0</ele><time>2026-04-26T08:48:19Z</time></trkpt><trkpt lat="38.104789600098954" lon="15.146479437699242"><ele>72.25</ele><time>2026-04-26T08:48:20Z</time></trkpt><trkpt lat="38.10479916067871" lon="15.146295100645348"><ele>70.5</ele><time>2026-04-26T08:48:21Z</time></trkpt><trkpt lat="38.10477184196587" lon="15.146117618298097"><ele>68.75</ele><time>2026-04-26T08:48:22Z</time></trkpt><trkpt lat="38.10474252732301" lon="15.145974510094618"><ele>67.0</ele><time>2026-04-26T08:48:23Z</time></trkpt><trkpt lat="38.1047269442333" lon="15.14585319854644"><ele>67.0</ele><time>2026-04-26T08:48:24Z</time></trkpt><trkpt lat="38.10475729796709" lon="15.145749535269452"><ele>67.0</ele><time>2026-04-26T08:48:25Z</time></trkpt><trkpt lat="38.10483755969812" lon="15.145695349850048"><ele>67.0</ele><time>2026-04-26T08:48:26Z</time></trkpt><trkpt lat="38.10492031025109" lon="15.145651441103215"><ele>67.0</ele><time>2026-04-26T08:48:27Z</time></trkpt><trkpt lat="38.1050032157315" lon="15.145591243289026"><ele>67.0</ele><time>2026-04-26T08:48:28Z</time></trkpt><trkpt lat="38.105112754169404" lon="15.145541953500398"><ele>66.25</ele><time>2026-04-26T08:48:29Z</time></trkpt><trkpt lat="38.10522770995329" lon="15.145472890888101"><ele>65.5</ele><time>2026-04-26T08:48:30Z</time></trkpt><trkpt lat="38.1053547108411" lon="15.145477863015243"><ele>64.75</ele><time>2026-04-26T08:48:31Z</time></trkpt><trkpt lat="38.105468703186276" lon="15.14551929241513"><ele>64.0</ele><time>2026-04-26T08:48:32Z</time></trkpt><trkpt lat="38.10558476590497" lon="15.145594546249635"><ele>64.0</ele><time>2026-04-26T08:48:33Z</time></trkpt><trkpt lat="38.105695024301816" lon="15.145707969906683"><ele>64.0</ele><time>2026-04-26T08:48:34Z</time></trkpt><trkpt lat="38.105825196467634" lon="15.145807288358025"><ele>64.0</ele><time>2026-04-26T08:48:35Z</time></trkpt><trkpt lat="38.10596028225621" lon="15.1459200373298"><ele>66.0</ele><time>2026-04-26T08:48:36Z</time></trkpt><trkpt lat="38.10606796075366" lon="15.14609109586246"><ele>68.0</ele><time>2026-04-26T08:48:37Z</time></trkpt><trkpt lat="38.106161112675856" lon="15.146262779034442"><ele>70.0</ele><time>2026-04-26T08:48:38Z</time></trkpt><trkpt lat="38.106262354849044" lon="15.146411885946156"><ele>73.0</ele><time>2026-04-26T08:48:39Z</time></trkpt><trkpt lat="38.10635656071066" lon="15.14656273488911"><ele>76.0</ele><time>2026-04-26T08:48:40Z</time></trkpt><trkpt lat="38.1064461721269" lon="15.146715549748816"><ele>79.0</ele><time>2026-04-26T08:48:41Z</time></trkpt><trkpt lat="38.10653918449443" lon="15.146867568622937"><ele>76.5</ele><time>2026-04-26T08:48:42Z</time></trkpt><trkpt lat="38.10665016727993" lon="15.146995203323026"><ele>74.0</ele><time>2026-04-26T08:48:43Z</time></trkpt><trkpt lat="38.10678298410661" lon="15.147083918776282"><ele>71.5</ele><time>2026-04-26T08:48:44Z</time></trkpt><trkpt lat="38.10691892468975" lon="15.147147991338063"><ele>69.0</ele><time>2026-04-26T08:48:45Z</time></trkpt><trkpt lat="38.1070448849672" lon="15.147224594773771"><ele>69.0</ele><time>2026-04-26T08:48:46Z</time></trkpt><trkpt lat="38.107154351346686" lon="15.147330774066731"><ele>69.0</ele><time>2026-04-26T08:48:47Z</time></trkpt><trkpt lat="38.107252442730505" lon="15.147459614517555"><ele>69.0</ele><time>2026-04-26T08:48:48Z</time></trkpt><trkpt lat="38.107341734932106" lon="15.147598229791754"><ele>69.0</ele><time>2026-04-26T08:48:49Z</time></trkpt><trkpt lat="38.107437893049436" lon="15.147734294278832"><ele>68.0</ele><time>2026-04-26T08:48:50Z</time></trkpt><trkpt lat="38.107532710898205" lon="15.147871143267185"><ele>67.0</ele><time>2026-04-26T08:48:51Z</time></trkpt><trkpt lat="38.107620374635026" lon="15.148001158908057"><ele>66.0</ele><time>2026-04-26T08:48:52Z</time></trkpt><trkpt lat="38.1076897703979" lon="15.148125261860839"><ele>65.0</ele><time>2026-04-26T08:48:53Z</time></trkpt><trkpt lat="38.10774279629438" lon="15.148250376467631"><ele>67.0</ele><time>2026-04-26T08:48:54Z</time></trkpt><trkpt lat="38.10777184417947" lon="15.148383807143873"><ele>69.0</ele><time>2026-04-26T08:48:55Z</time></trkpt><trkpt lat="38.107749537733646" lon="15.148529945743668"><ele>71.0</ele><time>2026-04-26T08:48:56Z</time></trkpt><trkpt lat="38.107695226199446" lon="15.148682171100182"><ele>73.0</ele><time>2026-04-26T08:48:57Z</time></trkpt><trkpt lat="38.10766662767399" lon="15.148851159905718"><ele>73.0</ele><time>2026-04-26T08:48:58Z</time></trkpt><trkpt lat="38.10768010160239" lon="15.149033453099303"><ele>73.0</ele><time>2026-04-26T08:48:59Z</time></trkpt><trkpt lat="38.10772215238806" lon="15.14919658568551"><ele>73.0</ele><time>2026-04-26T08:49:00Z</time></trkpt><trkpt lat="38.107781714891786" lon="15.149318620009716"><ele>73.0</ele><time>2026-04-26T08:49:01Z</time></trkpt><trkpt lat="38.10786885079888" lon="15.149415198709887"><ele>72.5</ele><time>2026-04-26T08:49:02Z</time></trkpt><trkpt lat="38.10797936624062" lon="15.149462681651622"><ele>72.0</ele><time>2026-04-26T08:49:03Z</time></trkpt><trkpt lat="38.10810046351062" lon="15.149446688660424"><ele>71.5</ele><time>2026-04-26T08:49:04Z</time></trkpt><trkpt lat="38.10821974638668" lon="15.149367856194283"><ele>71.0</ele><time>2026-04-26T08:49:05Z</time></trkpt><trkpt lat="38.10833257345693" lon="15.149247874093811"><ele>71.0</ele><time>2026-04-26T08:49:06Z</time></trkpt><trkpt lat="38.108459134105864" lon="15.149156687438493"><ele>71.0</ele><time>2026-04-26T08:49:07Z</time></trkpt><trkpt lat="38.10858245287275" lon="15.149120873998262"><ele>71.0</ele><time>2026-04-26T08:49:08Z</time></trkpt><trkpt lat="38.10869487297697" lon="15.149119889202664"><ele>71.0</ele><time>2026-04-26T08:49:09Z</time></trkpt><trkpt lat="38.10878894345551" lon="15.149129737407144"><ele>71.0</ele><time>2026-04-26T08:49:10Z</time></trkpt><trkpt lat="38.1088736571627" lon="15.149081968240598"><ele>71.0</ele><time>2026-04-26T08:49:11Z</time></trkpt><trkpt lat="38.108921501183" lon="15.148975911495898"><ele>71.0</ele><time>2026-04-26T08:49:12Z</time></trkpt><trkpt lat="38.10894399221092" lon="15.148837919425638"><ele>71.0</ele><time>2026-04-26T08:49:13Z</time></trkpt><trkpt lat="38.108967953877084" lon="15.148682118820496"><ele>71.0</ele><time>2026-04-26T08:49:14Z</time></trkpt><trkpt lat="38.10904801185993" lon="15.148536003084342"><ele>71.25</ele><time>2026-04-26T08:49:15Z</time></trkpt><trkpt lat="38.109137479003586" lon="15.14838764877794"><ele>71.5</ele><time>2026-04-26T08:49:16Z</time></trkpt><trkpt lat="38.10922048630018" lon="15.148233530614768"><ele>71.75</ele><time>2026-04-26T08:49:17Z</time></trkpt><trkpt lat="38.10930320157894" lon="15.148080726965423"><ele>72.0</ele><time>2026-04-26T08:49:18Z</time></trkpt><trkpt lat="38.109387803315826" lon="15.147929762698324"><ele>70.0</ele><time>2026-04-26T08:49:19Z</time></trkpt><trkpt lat="38.10947891066917" lon="15.147782030181933"><ele>68.0</ele><time>2026-04-26T08:49:20Z</time></trkpt><trkpt lat="38.10958231797842" lon="15.14764173859514"><ele>66.0</ele><time>2026-04-26T08:49:21Z</time></trkpt><trkpt lat="38.10969847656162" lon="15.147513989503508"><ele>66.0</ele><time>2026-04-26T08:49:22Z</time></trkpt><trkpt lat="38.10983493558779" lon="15.14742118592769"><ele>66.0</ele><time>2026-04-26T08:49:23Z</time></trkpt><trkpt lat="38.10996440397826" lon="15.147337316071349"><ele>66.0</ele><time>2026-04-26T08:49:24Z</time></trkpt><trkpt lat="38.1100826926574" lon="15.147244977638966"><ele>66.0</ele><time>2026-04-26T08:49:25Z</time></trkpt><trkpt lat="38.11019227724838" lon="15.14714010651422"><ele>67.0</ele><time>2026-04-26T08:49:26Z</time></trkpt><trkpt lat="38.11027728482482" lon="15.147000704751283"><ele>68.0</ele><time>2026-04-26T08:49:27Z</time></trkpt><trkpt lat="38.11033986294044" lon="15.146854697052856"><ele>69.0</ele><time>2026-04-26T08:49:28Z</time></trkpt><trkpt lat="38.110411703980695" lon="15.146725630757611"><ele>70.0</ele><time>2026-04-26T08:49:29Z</time></trkpt><trkpt lat="38.11050493837652" lon="15.146624435725997"><ele>70.0</ele><time>2026-04-26T08:49:30Z</time></trkpt><trkpt lat="38.110621616743565" lon="15.146578104338603"><ele>70.0</ele><time>2026-04-26T08:49:31Z</time></trkpt><trkpt lat="38.110739372523156" lon="15.146539513007472"><ele>70.0</ele><time>2026-04-26T08:49:32Z</time></trkpt><trkpt lat="38.11084175278644" lon="15.146456651912096"><ele>70.0</ele><time>2026-04-26T08:49:33Z</time></trkpt><trkpt lat="38.11094134823716" lon="15.146371717101436"><ele>68.25</ele><time>2026-04-26T08:49:34Z</time></trkpt><trkpt lat="38.11104880027883" lon="15.146297809861519"><ele>66.5</ele><time>2026-04-26T08:49:35Z</time></trkpt><trkpt lat="38.111172746778024" lon="15.14626249360876"><ele>64.75</ele><time>2026-04-26T08:49:36Z</time></trkpt><trkpt lat="38.1113025718681" lon="15.146281918149795"><ele>63.0</ele><time>2026-04-26T08:49:37Z</time></trkpt><trkpt lat="38.111432384121706" lon="15.146309416251599"><ele>63.0</ele><time>2026-04-26T08:49:38Z</time></trkpt><trkpt lat="38.111564823853094" lon="15.146316901173732"><ele>63.0</ele><time>2026-04-26T08:49:39Z</time></trkpt><trkpt lat="38.11170001908109" lon="15.146325775438417"><ele>63.0</ele><time>2026-04-26T08:49:40Z</time></trkpt><trkpt lat="38.11183559655314" lon="15.146353598161912"><ele>63.0</ele><time>2026-04-26T08:49:41Z</time></trkpt><trkpt lat="38.111977765481" lon="15.146355937949918"><ele>64.0</ele><time>2026-04-26T08:49:42Z</time></trkpt><trkpt lat="38.11211600006808" lon="15.146308137906471"><ele>65.0</ele><time>2026-04-26T08:49:43Z</time></trkpt><trkpt lat="38.112242352128355" lon="15.14623657124419"><ele>66.0</ele><time>2026-04-26T08:49:44Z</time></trkpt><trkpt lat="38.11236071389645" lon="15.146172237301581"><ele>67.0</ele><time>2026-04-26T08:49:45Z</time></trkpt><trkpt lat="38.11246832581967" lon="15.146100721994921"><ele>69.75</ele><time>2026-04-26T08:49:46Z</time></trkpt><trkpt lat="38.11255022710257" lon="15.14599572914048"><ele>72.5</ele><time>2026-04-26T08:49:47Z</time></trkpt><trkpt lat="38.11258673063936" lon="15.145847283039641"><ele>75.25</ele><time>2026-04-26T08:49:48Z</time></trkpt><trkpt lat="38.112624985318625" lon="15.14569690067782"><ele>78.0</ele><time>2026-04-26T08:49:49Z</time></trkpt><trkpt lat="38.11265605303891" lon="15.145550944709555"><ele>72.0</ele><time>2026-04-26T08:49:50Z</time></trkpt><trkpt lat="38.11271468358801" lon="15.145415903773456"><ele>66.0</ele><time>2026-04-26T08:49:51Z</time></trkpt><trkpt lat="38.11281621245862" lon="15.14532722356362"><ele>60.0</ele><time>2026-04-26T08:49:52Z</time></trkpt><trkpt lat="38.112940398740555" lon="15.1453000177304"><ele>54.0</ele><time>2026-04-26T08:49:53Z</time></trkpt><trkpt lat="38.11305881916447" lon="15.145310722993587"><ele>54.0</ele><time>2026-04-26T08:49:54Z</time></trkpt><trkpt lat="38.11316559524744" lon="15.145378402458439"><ele>54.0</ele><time>2026-04-26T08:49:55Z</time></trkpt><trkpt lat="38.1132397767164" lon="15.145512072200612"><ele>54.0</ele><time>2026-04-26T08:49:56Z</time></trkpt><trkpt lat="38.113308198421606" lon="15.145656694498651"><ele>54.0</ele><time>2026-04-26T08:49:57Z</time></trkpt><trkpt lat="38.113409864157155" lon="15.14578159799338"><ele>64.0</ele><time>2026-04-26T08:49:58Z</time></trkpt><trkpt lat="38.11353316872388" lon="15.145888673879396"><ele>74.0</ele><time>2026-04-26T08:49:59Z</time></trkpt><trkpt lat="38.113679148294885" lon="15.145964902590276"><ele>84.0</ele><time>2026-04-26T08:50:00Z</time></trkpt><trkpt lat="38.11383735890042" lon="15.146001710409465"><ele>84.0</ele><time>2026-04-26T08:50:01Z</time></trkpt><trkpt lat="38.11400745889609" lon="15.145980417557233"><ele>84.0</ele><time>2026-04-26T08:50:02Z</time></trkpt><trkpt lat="38.11417580714675" lon="15.145935515442757"><ele>84.0</ele><time>2026-04-26T08:50:03Z</time></trkpt><trkpt lat="38.114335615646375" lon="15.145936924815064"><ele>80.66666666666667</ele><time>2026-04-26T08:50:04Z</time></trkpt><trkpt lat="38.11448571018455" lon="15.145965242589154"><ele>77.33333333333334</ele><time>2026-04-26T08:50:05Z</time></trkpt><trkpt lat="38.114633672526104" lon="15.145990356302574"><ele>74.0</ele><time>2026-04-26T08:50:06Z</time></trkpt><trkpt lat="38.11478852005523" lon="15.145994365720117"><ele>75.0</ele><time>2026-04-26T08:50:07Z</time></trkpt><trkpt lat="38.11494940818637" lon="15.145986680577609"><ele>76.0</ele><time>2026-04-26T08:50:08Z</time></trkpt><trkpt lat="38.11511321100764" lon="15.145984363715836"><ele>77.0</ele><time>2026-04-26T08:50:09Z</time></trkpt><trkpt lat="38.11528115563353" lon="15.145981955389761"><ele>77.0</ele><time>2026-04-26T08:50:10Z</time></trkpt><trkpt lat="38.115442071759496" lon="15.145974308178848"><ele>77.0</ele><time>2026-04-26T08:50:11Z</time></trkpt><trkpt lat="38.115595491553044" lon="15.1459629674468"><ele>77.0</ele><time>2026-04-26T08:50:12Z</time></trkpt><trkpt lat="38.11574448836592" lon="15.145943152134066"><ele>77.66666666666667</ele><time>2026-04-26T08:50:13Z</time></trkpt><trkpt lat="38.115891226909405" lon="15.145895234809661"><ele>78.33333333333333</ele><time>2026-04-26T08:50:14Z</time></trkpt><trkpt lat="38.11603271145009" lon="15.145802903228475"><ele>79.0</ele><time>2026-04-26T08:50:15Z</time></trkpt><trkpt lat="38.11617188647683" lon="15.145666008005401"><ele>75.0</ele><time>2026-04-26T08:50:16Z</time></trkpt><trkpt lat="38.11632307687266" lon="15.145514209736945"><ele>71.0</ele><time>2026-04-26T08:50:17Z</time></trkpt><trkpt lat="38.11644825664143" lon="15.145346025919867"><ele>67.0</ele><time>2026-04-26T08:50:18Z</time></trkpt><trkpt lat="38.11656341597959" lon="15.14516843083607"><ele>64.0</ele><time>2026-04-26T08:50:19Z</time></trkpt><trkpt lat="38.116652201938926" lon="15.144976954280096"><ele>61.0</ele><time>2026-04-26T08:50:20Z</time></trkpt><trkpt lat="38.1167647192051" lon="15.144802145664107"><ele>58.0</ele><time>2026-04-26T08:50:21Z</time></trkpt><trkpt lat="38.116920499759736" lon="15.144669393694876"><ele>58.0</ele><time>2026-04-26T08:50:22Z</time></trkpt><trkpt lat="38.11704866237128" lon="15.144520762528082"><ele>58.0</ele><time>2026-04-26T08:50:23Z</time></trkpt><trkpt lat="38.117162733440196" lon="15.144386908377545"><ele>58.0</ele><time>2026-04-26T08:50:24Z</time></trkpt><trkpt lat="38.11726090428002" lon="15.14424218633927"><ele>58.0</ele><time>2026-04-26T08:50:25Z</time></trkpt><trkpt lat="38.11735019455946" lon="15.144124144429941"><ele>58.0</ele><time>2026-04-26T08:50:26Z</time></trkpt><trkpt lat="38.11747403908972" lon="15.144095741020593"><ele>58.0</ele><time>2026-04-26T08:50:27Z</time></trkpt><trkpt lat="38.11760806253753" lon="15.144107817545903"><ele>58.0</ele><time>2026-04-26T08:50:28Z</time></trkpt><trkpt lat="38.117756170218414" lon="15.144110912554474"><ele>58.33333333333333</ele><time>2026-04-26T08:50:29Z</time></trkpt><trkpt lat="38.117921290093896" lon="15.144045043119707"><ele>58.66666666666667</ele><time>2026-04-26T08:50:30Z</time></trkpt><trkpt lat="38.11808536383595" lon="15.143924498212508"><ele>59.0</ele><time>2026-04-26T08:50:31Z</time></trkpt><trkpt lat="38.11823836466661" lon="15.143822025597958"><ele>59.0</ele><time>2026-04-26T08:50:32Z</time></trkpt><trkpt lat="38.118380728559174" lon="15.143739862853568"><ele>59.0</ele><time>2026-04-26T08:50:33Z</time></trkpt><trkpt lat="38.11852830560241" lon="15.143679494466513"><ele>59.0</ele><time>2026-04-26T08:50:34Z</time></trkpt><trkpt lat="38.11867049622383" lon="15.143651739383913"><ele>59.0</ele><time>2026-04-26T08:50:35Z</time></trkpt><trkpt lat="38.11880823237803" lon="15.143642254216143"><ele>59.0</ele><time>2026-04-26T08:50:36Z</time></trkpt><trkpt lat="38.118936181771765" lon="15.143624786140942"><ele>59.0</ele><time>2026-04-26T08:50:37Z</time></trkpt><trkpt lat="38.11904606989778" lon="15.14360290035723"><ele>59.0</ele><time>2026-04-26T08:50:38Z</time></trkpt><trkpt lat="38.11913732205759" lon="15.143551325766232"><ele>58.0</ele><time>2026-04-26T08:50:39Z</time></trkpt><trkpt lat="38.119186516004376" lon="15.143433201240008"><ele>57.0</ele><time>2026-04-26T08:50:40Z</time></trkpt><trkpt lat="38.119212581660044" lon="15.143285949654425"><ele>56.0</ele><time>2026-04-26T08:50:41Z</time></trkpt><trkpt lat="38.11917477650994" lon="15.143121832972644"><ele>55.0</ele><time>2026-04-26T08:50:42Z</time></trkpt><trkpt lat="38.11915555088677" lon="15.142972883710883"><ele>55.0</ele><time>2026-04-26T08:50:43Z</time></trkpt><trkpt lat="38.119165889981225" lon="15.142846347664829"><ele>55.0</ele><time>2026-04-26T08:50:44Z</time></trkpt><trkpt lat="38.11924681795701" lon="15.142746861670743"><ele>55.0</ele><time>2026-04-26T08:50:45Z</time></trkpt><trkpt lat="38.119331136287585" lon="15.142674064833043"><ele>55.0</ele><time>2026-04-26T08:50:46Z</time></trkpt><trkpt lat="38.11941540412724" lon="15.142585751342558"><ele>55.0</ele><time>2026-04-26T08:50:47Z</time></trkpt><trkpt lat="38.1194742472572" lon="15.14244534635981"><ele>52.0</ele><time>2026-04-26T08:50:48Z</time></trkpt><trkpt lat="38.119482291954576" lon="15.142269937660698"><ele>49.0</ele><time>2026-04-26T08:50:49Z</time></trkpt><trkpt lat="38.11947807577223" lon="15.14210790443074"><ele>46.0</ele><time>2026-04-26T08:50:50Z</time></trkpt><trkpt lat="38.11946444156329" lon="15.141969180962613"><ele>43.0</ele><time>2026-04-26T08:50:51Z</time></trkpt><trkpt lat="38.11947261911436" lon="15.14183889222413"><ele>43.0</ele><time>2026-04-26T08:50:52Z</time></trkpt><trkpt lat="38.11955305585532" lon="15.141742046054109"><ele>43.0</ele><time>2026-04-26T08:50:53Z</time></trkpt><trkpt lat="38.11966059808101" lon="15.141706859431201"><ele>43.0</ele><time>2026-04-26T08:50:54Z</time></trkpt><trkpt lat="38.11976671949195" lon="15.141648243622004"><ele>43.0</ele><time>2026-04-26T08:50:55Z</time></trkpt><trkpt lat="38.119873581757375" lon="15.141577061461263"><ele>42.75</ele><time>2026-04-26T08:50:56Z</time></trkpt><trkpt lat="38.11999566898086" lon="15.14149963135067"><ele>42.5</ele><time>2026-04-26T08:50:57Z</time></trkpt><trkpt lat="38.12012047186714" lon="15.141406664704498"><ele>42.25</ele><time>2026-04-26T08:50:58Z</time></trkpt><trkpt lat="38.120262785262646" lon="15.141331441191198"><ele>42.0</ele><time>2026-04-26T08:50:59Z</time></trkpt><trkpt lat="38.120425646342945" lon="15.141288381195436"><ele>42.0</ele><time>2026-04-26T08:51:00Z</time></trkpt><trkpt lat="38.120585360055685" lon="15.141259299404272"><ele>42.0</ele><time>2026-04-26T08:51:01Z</time></trkpt><trkpt lat="38.12072782926686" lon="15.141248125501019"><ele>42.0</ele><time>2026-04-26T08:51:02Z</time></trkpt><trkpt lat="38.1208580046799" lon="15.141267463556831"><ele>42.0</ele><time>2026-04-26T08:51:03Z</time></trkpt><trkpt lat="38.120986805138116" lon="15.14129998217997"><ele>43.0</ele><time>2026-04-26T08:51:04Z</time></trkpt><trkpt lat="38.12108086397784" lon="15.141333928640748"><ele>44.0</ele><time>2026-04-26T08:51:05Z</time></trkpt><trkpt lat="38.12115885540723" lon="15.141305038797059"><ele>45.0</ele><time>2026-04-26T08:51:06Z</time></trkpt><trkpt lat="38.12121216236705" lon="15.141215574642189"><ele>46.0</ele><time>2026-04-26T08:51:07Z</time></trkpt><trkpt lat="38.12122509308943" lon="15.14109935476054"><ele>47.0</ele><time>2026-04-26T08:51:08Z</time></trkpt><trkpt lat="38.1212101219887" lon="15.140973791188586"><ele>47.0</ele><time>2026-04-26T08:51:09Z</time></trkpt><trkpt lat="38.1211588598372" lon="15.140856743262725"><ele>47.0</ele><time>2026-04-26T08:51:10Z</time></trkpt><trkpt lat="38.12112311648783" lon="15.140751912717269"><ele>47.0</ele><time>2026-04-26T08:51:11Z</time></trkpt><trkpt lat="38.12113149531867" lon="15.140650837945179"><ele>47.0</ele><time>2026-04-26T08:51:12Z</time></trkpt><trkpt lat="38.12116441102049" lon="15.14053782107849"><ele>47.0</ele><time>2026-04-26T08:51:13Z</time></trkpt><trkpt lat="38.12128859408226" lon="15.140470200753404"><ele>44.33333333333333</ele><time>2026-04-26T08:51:14Z</time></trkpt><trkpt lat="38.121408538489966" lon="15.140368756676454"><ele>41.666666666666664</ele><time>2026-04-26T08:51:15Z</time></trkpt><trkpt lat="38.121563059945885" lon="15.140345303160897"><ele>39.0</ele><time>2026-04-26T08:51:16Z</time></trkpt><trkpt lat="38.12171724953606" lon="15.140337814562239"><ele>39.0</ele><time>2026-04-26T08:51:17Z</time></trkpt><trkpt lat="38.121851621474164" lon="15.140356536249316"><ele>39.0</ele><time>2026-04-26T08:51:18Z</time></trkpt><trkpt lat="38.12197344554603" lon="15.140377929570432"><ele>39.0</ele><time>2026-04-26T08:51:19Z</time></trkpt><trkpt lat="38.1220847925242" lon="15.140382729530499"><ele>39.0</ele><time>2026-04-26T08:51:20Z</time></trkpt><trkpt lat="38.12218635043538" lon="15.140381598349304"><ele>39.0</ele><time>2026-04-26T08:51:21Z</time></trkpt><trkpt lat="38.12228099691995" lon="15.140383439146659"><ele>39.0</ele><time>2026-04-26T08:51:22Z</time></trkpt><trkpt lat="38.12237393383535" lon="15.140392321574838"><ele>39.0</ele><time>2026-04-26T08:51:23Z</time></trkpt><trkpt lat="38.12245974400823" lon="15.140393689347615"><ele>39.0</ele><time>2026-04-26T08:51:24Z</time></trkpt><trkpt lat="38.12255068282353" lon="15.140413062515439"><ele>39.0</ele><time>2026-04-26T08:51:25Z</time></trkpt><trkpt lat="38.12264362266549" lon="15.140439857761173"><ele>38.4</ele><time>2026-04-26T08:51:26Z</time></trkpt><trkpt lat="38.12274429810376" lon="15.140494464488123"><ele>37.8</ele><time>2026-04-26T08:51:27Z</time></trkpt><trkpt lat="38.1228393848596" lon="15.140558358505183"><ele>37.2</ele><time>2026-04-26T08:51:28Z</time></trkpt><trkpt lat="38.12292691339941" lon="15.140688059607152"><ele>36.6</ele><time>2026-04-26T08:51:29Z</time></trkpt><trkpt lat="38.122961050758654" lon="15.14077957159432"><ele>36.0</ele><time>2026-04-26T08:51:30Z</time></trkpt><trkpt lat="38.12300528142071" lon="15.140867541734577"><ele>36.833333333333336</ele><time>2026-04-26T08:51:31Z</time></trkpt><trkpt lat="38.12306872055556" lon="15.140944624629224"><ele>37.666666666666664</ele><time>2026-04-26T08:51:32Z</time></trkpt><trkpt lat="38.12316008950886" lon="15.140982133686114"><ele>38.5</ele><time>2026-04-26T08:51:33Z</time></trkpt><trkpt lat="38.12322858075749" lon="15.140992654982908"><ele>39.33333333333333</ele><time>2026-04-26T08:51:34Z</time></trkpt><trkpt lat="38.123327049677556" lon="15.140976344892191"><ele>40.166666666666664</ele><time>2026-04-26T08:51:35Z</time></trkpt><trkpt lat="38.123411441612895" lon="15.141030835617975"><ele>41.0</ele><time>2026-04-26T08:51:36Z</time></trkpt><trkpt lat="38.12351731018397" lon="15.14103040496778"><ele>41.0</ele><time>2026-04-26T08:51:37Z</time></trkpt><trkpt lat="38.12363011045488" lon="15.14103327998065"><ele>41.0</ele><time>2026-04-26T08:51:38Z</time></trkpt><trkpt lat="38.12374721277567" lon="15.141025773176468"><ele>41.0</ele><time>2026-04-26T08:51:39Z</time></trkpt><trkpt lat="38.12380941026138" lon="15.141039550004278"><ele>41.0</ele><time>2026-04-26T08:51:40Z</time></trkpt><trkpt lat="38.123904688281456" lon="15.141060295938628"><ele>41.0</ele><time>2026-04-26T08:51:42Z</time></trkpt><trkpt lat="38.12404580470977" lon="15.141008790507167"><ele>39.25</ele><time>2026-04-26T08:51:44Z</time></trkpt><trkpt lat="38.124140985403656" lon="15.141066822353714"><ele>37.5</ele><time>2026-04-26T08:51:45Z</time></trkpt><trkpt lat="38.12425164501578" lon="15.141093141550499"><ele>35.75</ele><time>2026-04-26T08:51:46Z</time></trkpt><trkpt lat="38.124375043634934" lon="15.141105244971241"><ele>34.0</ele><time>2026-04-26T08:51:47Z</time></trkpt><trkpt lat="38.12451325612446" lon="15.141120753909714"><ele>34.0</ele><time>2026-04-26T08:51:48Z</time></trkpt><trkpt lat="38.124639777863536" lon="15.141139415266565"><ele>34.0</ele><time>2026-04-26T08:51:49Z</time></trkpt><trkpt lat="38.12477418600891" lon="15.141130352177335"><ele>34.0</ele><time>2026-04-26T08:51:50Z</time></trkpt><trkpt lat="38.12491184500704" lon="15.141103199297934"><ele>34.0</ele><time>2026-04-26T08:51:51Z</time></trkpt><trkpt lat="38.125065350425736" lon="15.141053648604862"><ele>33.0</ele><time>2026-04-26T08:51:52Z</time></trkpt><trkpt lat="38.125205787033146" lon="15.140991132511882"><ele>32.0</ele><time>2026-04-26T08:51:53Z</time></trkpt><trkpt lat="38.125346980497106" lon="15.140935123583086"><ele>31.0</ele><time>2026-04-26T08:51:54Z</time></trkpt><trkpt lat="38.12547982123138" lon="15.140881826979452"><ele>30.0</ele><time>2026-04-26T08:51:55Z</time></trkpt><trkpt lat="38.12561274977659" lon="15.140833516188053"><ele>30.75</ele><time>2026-04-26T08:51:56Z</time></trkpt><trkpt lat="38.12573549463528" lon="15.14076823253467"><ele>31.5</ele><time>2026-04-26T08:51:57Z</time></trkpt><trkpt lat="38.12584694452623" lon="15.140721840885371"><ele>32.25</ele><time>2026-04-26T08:51:58Z</time></trkpt><trkpt lat="38.12595459877723" lon="15.140671100011309"><ele>33.0</ele><time>2026-04-26T08:51:59Z</time></trkpt><trkpt lat="38.12605258128222" lon="15.140629191795268"><ele>31.2</ele><time>2026-04-26T08:52:00Z</time></trkpt><trkpt lat="38.126150466096774" lon="15.140594971724092"><ele>29.4</ele><time>2026-04-26T08:52:01Z</time></trkpt><trkpt lat="38.126253014078806" lon="15.140549148739964"><ele>27.599999999999998</ele><time>2026-04-26T08:52:02Z</time></trkpt><trkpt lat="38.1263529237078" lon="15.140518129771964"><ele>25.799999999999997</ele><time>2026-04-26T08:52:03Z</time></trkpt><trkpt lat="38.126450777346065" lon="15.140491679333165"><ele>24.0</ele><time>2026-04-26T08:52:04Z</time></trkpt><trkpt lat="38.12653584401272" lon="15.140452589256002"><ele>24.0</ele><time>2026-04-26T08:52:05Z</time></trkpt><trkpt lat="38.12661392651801" lon="15.140401731081617"><ele>24.0</ele><time>2026-04-26T08:52:06Z</time></trkpt><trkpt lat="38.12666775072956" lon="15.140301466892337"><ele>24.0</ele><time>2026-04-26T08:52:07Z</time></trkpt><trkpt lat="38.12667466942441" lon="15.140151935066958"><ele>24.0</ele><time>2026-04-26T08:52:08Z</time></trkpt><trkpt lat="38.12664529014504" lon="15.140003981183508"><ele>24.0</ele><time>2026-04-26T08:52:09Z</time></trkpt><trkpt lat="38.1266240621683" lon="15.139850008116383"><ele>24.0</ele><time>2026-04-26T08:52:10Z</time></trkpt><trkpt lat="38.12659251991794" lon="15.139719638206804"><ele>24.0</ele><time>2026-04-26T08:52:11Z</time></trkpt><trkpt lat="38.12655279081192" lon="15.139562890669293"><ele>24.0</ele><time>2026-04-26T08:52:12Z</time></trkpt><trkpt lat="38.126514040775135" lon="15.139431084348294"><ele>24.0</ele><time>2026-04-26T08:52:13Z</time></trkpt><trkpt lat="38.12646438513715" lon="15.13933535921558"><ele>24.0</ele><time>2026-04-26T08:52:14Z</time></trkpt><trkpt lat="38.12641770433556" lon="15.139254168397061"><ele>23.999999999999996</ele><time>2026-04-26T08:52:15Z</time></trkpt><trkpt lat="38.126368819108414" lon="15.139180798247832"><ele>24.0</ele><time>2026-04-26T08:52:16Z</time></trkpt><trkpt lat="38.12631967219258" lon="15.139115019396545"><ele>24.0</ele><time>2026-04-26T08:52:17Z</time></trkpt><trkpt lat="38.12628674552211" lon="15.139037664179051"><ele>24.0</ele><time>2026-04-26T08:52:18Z</time></trkpt><trkpt lat="38.12628973591834" lon="15.138952412277133"><ele>24.0</ele><time>2026-04-26T08:52:19Z</time></trkpt><trkpt lat="38.12631916755499" lon="15.138878482363937"><ele>23.999999999999996</ele><time>2026-04-26T08:52:20Z</time></trkpt><trkpt lat="38.12637571412053" lon="15.138819454396117"><ele>24.0</ele><time>2026-04-26T08:52:21Z</time></trkpt><trkpt lat="38.12645207178251" lon="15.138770859562456"><ele>24.0</ele><time>2026-04-26T08:52:22Z</time></trkpt><trkpt lat="38.12655171662253" lon="15.138745772777051"><ele>24.0</ele><time>2026-04-26T08:52:23Z</time></trkpt><trkpt lat="38.126682048399516" lon="15.138695491220588"><ele>24.0</ele><time>2026-04-26T08:52:24Z</time></trkpt><trkpt lat="38.126851408066834" lon="15.138630923914546"><ele>24.0</ele><time>2026-04-26T08:52:25Z</time></trkpt><trkpt lat="38.12704509533463" lon="15.138575191933057"><ele>24.0</ele><time>2026-04-26T08:52:26Z</time></trkpt><trkpt lat="38.127199856770545" lon="15.138557179180502"><ele>24.0</ele><time>2026-04-26T08:52:27Z</time></trkpt><trkpt lat="38.12732089978653" lon="15.1385437272682"><ele>24.0</ele><time>2026-04-26T08:52:28Z</time></trkpt><trkpt lat="38.12740815023772" lon="15.138532273609913"><ele>24.0</ele><time>2026-04-26T08:52:29Z</time></trkpt><trkpt lat="38.12746545933024" lon="15.138479067412588"><ele>24.0</ele><time>2026-04-26T08:52:30Z</time></trkpt><trkpt lat="38.12749085631275" lon="15.13839333890155"><ele>24.0</ele><time>2026-04-26T08:52:31Z</time></trkpt><trkpt lat="38.127474346297184" lon="15.138308330133457"><ele>24.0</ele><time>2026-04-26T08:52:32Z</time></trkpt><trkpt lat="38.12742432677583" lon="15.138243201430974"><ele>24.0</ele><time>2026-04-26T08:52:33Z</time></trkpt><trkpt lat="38.12736139845546" lon="15.138166367988507"><ele>24.0</ele><time>2026-04-26T08:52:34Z</time></trkpt><trkpt lat="38.12724375075538" lon="15.138216388792298"><ele>24.0</ele><time>2026-04-26T08:52:35Z</time></trkpt><trkpt lat="38.12713122493102" lon="15.138250136295746"><ele>24.0</ele><time>2026-04-26T08:52:36Z</time></trkpt><trkpt lat="38.126998573085274" lon="15.138291148013568"><ele>24.0</ele><time>2026-04-26T08:52:37Z</time></trkpt><trkpt lat="38.1268778585568" lon="15.138350123404232"><ele>24.0</ele><time>2026-04-26T08:52:38Z</time></trkpt><trkpt lat="38.12678847408359" lon="15.138374578397585"><ele>24.0</ele><time>2026-04-26T08:52:39Z</time></trkpt><trkpt lat="38.12672599365939" lon="15.138389141877099"><ele>24.0</ele><time>2026-04-26T08:52:40Z</time></trkpt><trkpt lat="38.12665358021056" lon="15.138404217158397"><ele>24.0</ele><time>2026-04-26T08:52:42Z</time></trkpt><trkpt lat="38.12658729502561" lon="15.138402386659754"><ele>24.0</ele><time>2026-04-26T08:53:13Z</time></trkpt><trkpt lat="38.12653263346829" lon="15.138447301750235"><ele>24.0</ele><time>2026-04-26T08:53:16Z</time></trkpt><trkpt lat="38.12651975856352" lon="15.13862694415604"><ele>24.0</ele><time>2026-04-26T08:53:18Z</time></trkpt><trkpt lat="38.126557168078456" lon="15.13874986870641"><ele>24.0</ele><time>2026-04-26T08:53:19Z</time></trkpt><trkpt lat="38.12660772795214" lon="15.138891882405003"><ele>24.0</ele><time>2026-04-26T08:53:20Z</time></trkpt><trkpt lat="38.12665490727201" lon="15.139039241280422"><ele>24.0</ele><time>2026-04-26T08:53:21Z</time></trkpt><trkpt lat="38.12670839590818" lon="15.139178770609206"><ele>24.0</ele><time>2026-04-26T08:53:22Z</time></trkpt><trkpt lat="38.126798593628784" lon="15.139318584476857"><ele>24.0</ele><time>2026-04-26T08:53:23Z</time></trkpt><trkpt lat="38.12692173636766" lon="15.139444823187064"><ele>24.0</ele><time>2026-04-26T08:53:24Z</time></trkpt><trkpt lat="38.127039341892655" lon="15.139543064255212"><ele>24.0</ele><time>2026-04-26T08:53:25Z</time></trkpt><trkpt lat="38.127161616143304" lon="15.139633169111503"><ele>24.0</ele><time>2026-04-26T08:53:26Z</time></trkpt><trkpt lat="38.12727312407855" lon="15.139725217538249"><ele>24.0</ele><time>2026-04-26T08:53:27Z</time></trkpt><trkpt lat="38.12737223893262" lon="15.13982286770993"><ele>23.75</ele><time>2026-04-26T08:53:28Z</time></trkpt><trkpt lat="38.12744794974941" lon="15.139938033854145"><ele>23.5</ele><time>2026-04-26T08:53:29Z</time></trkpt><trkpt lat="38.12750469981297" lon="15.140060783035151"><ele>23.25</ele><time>2026-04-26T08:53:30Z</time></trkpt><trkpt lat="38.12755708350514" lon="15.140191501362702"><ele>23.0</ele><time>2026-04-26T08:53:31Z</time></trkpt><trkpt lat="38.12760314592257" lon="15.14033216102008"><ele>23.0</ele><time>2026-04-26T08:53:32Z</time></trkpt><trkpt lat="38.12762535204179" lon="15.140483879971901"><ele>23.0</ele><time>2026-04-26T08:53:33Z</time></trkpt><trkpt lat="38.127662086304234" lon="15.140634206965407"><ele>23.0</ele><time>2026-04-26T08:53:34Z</time></trkpt><trkpt lat="38.127703055581506" lon="15.14079520775893"><ele>23.0</ele><time>2026-04-26T08:53:35Z</time></trkpt><trkpt lat="38.12774614900548" lon="15.140957670040402"><ele>22.25</ele><time>2026-04-26T08:53:36Z</time></trkpt><trkpt lat="38.12779292146414" lon="15.141116050450599"><ele>21.5</ele><time>2026-04-26T08:53:37Z</time></trkpt><trkpt lat="38.12783642627996" lon="15.14125659926632"><ele>20.75</ele><time>2026-04-26T08:53:38Z</time></trkpt><trkpt lat="38.12787692007277" lon="15.141384053354424"><ele>20.0</ele><time>2026-04-26T08:53:39Z</time></trkpt><trkpt lat="38.127915325745064" lon="15.141493035923515"><ele>20.0</ele><time>2026-04-26T08:53:40Z</time></trkpt><trkpt lat="38.1279553376346" lon="15.141608610032467"><ele>20.0</ele><time>2026-04-26T08:53:41Z</time></trkpt><trkpt lat="38.127980396332696" lon="15.141713446312412"><ele>20.0</ele><time>2026-04-26T08:53:42Z</time></trkpt><trkpt lat="38.12799971852974" lon="15.14180924233335"><ele>20.0</ele><time>2026-04-26T08:53:43Z</time></trkpt><trkpt lat="38.12803310642133" lon="15.141891903989878"><ele>20.0</ele><time>2026-04-26T08:53:44Z</time></trkpt><trkpt lat="38.12806161989599" lon="15.14196676938694"><ele>20.0</ele><time>2026-04-26T08:53:45Z</time></trkpt><trkpt lat="38.12809276692097" lon="15.142037501559273"><ele>20.0</ele><time>2026-04-26T08:53:46Z</time></trkpt><trkpt lat="38.128122847648726" lon="15.142114716253872"><ele>20.0</ele><time>2026-04-26T08:53:47Z</time></trkpt><trkpt lat="38.12815574222965" lon="15.142189199268222"><ele>20.0</ele><time>2026-04-26T08:53:48Z</time></trkpt><trkpt lat="38.12816669808921" lon="15.142280660445955"><ele>20.0</ele><time>2026-04-26T08:53:49Z</time></trkpt><trkpt lat="38.12819768151546" lon="15.142419418355695"><ele>20.0</ele><time>2026-04-26T08:53:51Z</time></trkpt><trkpt lat="38.128301013163025" lon="15.142478367528652"><ele>20.0</ele><time>2026-04-26T08:53:53Z</time></trkpt><trkpt lat="38.12839745709126" lon="15.142476610447922"><ele>19.25</ele><time>2026-04-26T08:53:55Z</time></trkpt><trkpt lat="38.12827089837867" lon="15.142622566297922"><ele>18.5</ele><time>2026-04-26T08:53:57Z</time></trkpt><trkpt lat="38.1284110075265" lon="15.142663582637987"><ele>17.75</ele><time>2026-04-26T08:54:00Z</time></trkpt><trkpt lat="38.128489833044405" lon="15.142683724371485"><ele>17.0</ele><time>2026-04-26T08:54:03Z</time></trkpt><trkpt lat="38.128495877365" lon="15.14259411896277"><ele>16.999999999999996</ele><time>2026-04-26T08:54:07Z</time></trkpt><trkpt lat="38.128432142236456" lon="15.142575007140247"><ele>17.0</ele><time>2026-04-26T08:55:47Z</time></trkpt><trkpt lat="38.12837588792252" lon="15.142617093883395"><ele>17.0</ele><time>2026-04-26T08:55:54Z</time></trkpt><trkpt lat="38.12845778422774" lon="15.142593793332063"><ele>17.0</ele><time>2026-04-26T08:56:19Z</time></trkpt><trkpt lat="38.12851608178403" lon="15.1425300511404"><ele>17.0</ele><time>2026-04-26T08:59:12Z</time></trkpt><trkpt lat="38.12846627158225" lon="15.142469574397936"><ele>16.999999999999996</ele><time>2026-04-26T08:59:16Z</time></trkpt><trkpt lat="38.128382516828594" lon="15.142469216780428"><ele>17.0</ele><time>2026-04-26T08:59:18Z</time></trkpt><trkpt lat="38.12830674795118" lon="15.142478793840267"><ele>17.0</ele><time>2026-04-26T08:59:21Z</time></trkpt><trkpt lat="38.128285714453575" lon="15.142605711049768"><ele>17.0</ele><time>2026-04-26T08:59:25Z</time></trkpt><trkpt lat="38.12832153373213" lon="15.142691669110231"><ele>17.0</ele><time>2026-04-26T08:59:26Z</time></trkpt><trkpt lat="38.12834395932482" lon="15.142781584494026"><ele>17.0</ele><time>2026-04-26T08:59:27Z</time></trkpt><trkpt lat="38.12834517485722" lon="15.142876272859757"><ele>17.0</ele><time>2026-04-26T08:59:28Z</time></trkpt><trkpt lat="38.128375913040585" lon="15.142961535618747"><ele>17.0</ele><time>2026-04-26T08:59:29Z</time></trkpt><trkpt lat="38.128402754236326" lon="15.143056464547263"><ele>17.0</ele><time>2026-04-26T08:59:30Z</time></trkpt><trkpt lat="38.1284355420405" lon="15.143161743162194"><ele>17.0</ele><time>2026-04-26T08:59:31Z</time></trkpt><trkpt lat="38.1284650816166" lon="15.143277029487333"><ele>17.0</ele><time>2026-04-26T08:59:32Z</time></trkpt><trkpt lat="38.128495277537304" lon="15.143400628859395"><ele>17.0</ele><time>2026-04-26T08:59:33Z</time></trkpt><trkpt lat="38.12853644862072" lon="15.143524483212985"><ele>17.0</ele><time>2026-04-26T08:59:34Z</time></trkpt><trkpt lat="38.12857232476893" lon="15.143634864700443"><ele>16.999999999999996</ele><time>2026-04-26T08:59:35Z</time></trkpt><trkpt lat="38.12859640588605" lon="15.14372715224815"><ele>17.0</ele><time>2026-04-26T08:59:36Z</time></trkpt><trkpt lat="38.12861186680924" lon="15.143811504869932"><ele>17.0</ele><time>2026-04-26T08:59:37Z</time></trkpt><trkpt lat="38.12863568332471" lon="15.143898546516985"><ele>17.0</ele><time>2026-04-26T08:59:38Z</time></trkpt><trkpt lat="38.128650545846" lon="15.143980176909928"><ele>17.0</ele><time>2026-04-26T08:59:39Z</time></trkpt><trkpt lat="38.12868434247511" lon="15.144057305302562"><ele>16.999999999999996</ele><time>2026-04-26T08:59:40Z</time></trkpt><trkpt lat="38.12870422135139" lon="15.144152218393822"><ele>17.0</ele><time>2026-04-26T08:59:41Z</time></trkpt><trkpt lat="38.12872512130639" lon="15.144251099797287"><ele>17.333333333333336</ele><time>2026-04-26T08:59:42Z</time></trkpt><trkpt lat="38.128767619220085" lon="15.144346551918371"><ele>17.666666666666668</ele><time>2026-04-26T08:59:43Z</time></trkpt><trkpt lat="38.12879781144993" lon="15.144448350565716"><ele>18.0</ele><time>2026-04-26T08:59:44Z</time></trkpt><trkpt lat="38.128837455807904" lon="15.144540698401862"><ele>18.333333333333332</ele><time>2026-04-26T08:59:45Z</time></trkpt><trkpt lat="38.12887589796018" lon="15.14463394820673"><ele>18.666666666666664</ele><time>2026-04-26T08:59:46Z</time></trkpt><trkpt lat="38.12892166489281" lon="15.144730010711084"><ele>19.0</ele><time>2026-04-26T08:59:47Z</time></trkpt><trkpt lat="38.12896110795651" lon="15.144828036575166"><ele>19.799999999999997</ele><time>2026-04-26T08:59:48Z</time></trkpt><trkpt lat="38.129015964719876" lon="15.144929411319962"><ele>20.599999999999998</ele><time>2026-04-26T08:59:49Z</time></trkpt><trkpt lat="38.12906581377849" lon="15.145049496482288"><ele>21.4</ele><time>2026-04-26T08:59:50Z</time></trkpt><trkpt lat="38.1291044544729" lon="15.145169950211818"><ele>22.2</ele><time>2026-04-26T08:59:51Z</time></trkpt><trkpt lat="38.12914768864262" lon="15.14529585755466"><ele>23.0</ele><time>2026-04-26T08:59:52Z</time></trkpt><trkpt lat="38.1291874073609" lon="15.145415897229869"><ele>21.799999999999997</ele><time>2026-04-26T08:59:53Z</time></trkpt><trkpt lat="38.1292364313664" lon="15.145536378552913"><ele>20.599999999999998</ele><time>2026-04-26T08:59:54Z</time></trkpt><trkpt lat="38.12929054504885" lon="15.145656467737222"><ele>19.4</ele><time>2026-04-26T08:59:55Z</time></trkpt><trkpt lat="38.12935127450648" lon="15.1457942305173"><ele>18.2</ele><time>2026-04-26T08:59:56Z</time></trkpt><trkpt lat="38.12939994355798" lon="15.14591326247065"><ele>17.0</ele><time>2026-04-26T08:59:57Z</time></trkpt><trkpt lat="38.1294454935809" lon="15.146011831289709"><ele>17.0</ele><time>2026-04-26T08:59:58Z</time></trkpt><trkpt lat="38.129494620012096" lon="15.146113532327488"><ele>17.0</ele><time>2026-04-26T08:59:59Z</time></trkpt><trkpt lat="38.129527467839786" lon="15.146203933563756"><ele>17.0</ele><time>2026-04-26T09:00:00Z</time></trkpt><trkpt lat="38.12954992914785" lon="15.146279340131834"><ele>17.0</ele><time>2026-04-26T09:00:01Z</time></trkpt><trkpt lat="38.12957907261966" lon="15.146360772133036"><ele>17.0</ele><time>2026-04-26T09:00:02Z</time></trkpt><trkpt lat="38.12961444919142" lon="15.14644782251393"><ele>17.0</ele><time>2026-04-26T09:00:03Z</time></trkpt><trkpt lat="38.129644555540565" lon="15.146530226835923"><ele>18.0</ele><time>2026-04-26T09:00:04Z</time></trkpt><trkpt lat="38.129689175361605" lon="15.146669995249072"><ele>19.0</ele><time>2026-04-26T09:00:06Z</time></trkpt><trkpt lat="38.129732820287636" lon="15.146797086439502"><ele>20.0</ele><time>2026-04-26T09:00:08Z</time></trkpt><trkpt lat="38.129772118259226" lon="15.146909365531224"><ele>21.0</ele><time>2026-04-26T09:00:10Z</time></trkpt><trkpt lat="38.12979707947948" lon="15.146993231731214"><ele>22.0</ele><time>2026-04-26T09:00:12Z</time></trkpt><trkpt lat="38.12982561291577" lon="15.147065308704423"><ele>22.0</ele><time>2026-04-26T09:00:14Z</time></trkpt><trkpt lat="38.12985477907538" lon="15.1471536174876"><ele>22.0</ele><time>2026-04-26T09:00:16Z</time></trkpt><trkpt lat="38.129894688443585" lon="15.147282965365484"><ele>22.0</ele><time>2026-04-26T09:00:18Z</time></trkpt><trkpt lat="38.12993223415627" lon="15.14736905977286"><ele>22.0</ele><time>2026-04-26T09:00:19Z</time></trkpt><trkpt lat="38.129989096809936" lon="15.147461218084876"><ele>22.0</ele><time>2026-04-26T09:00:20Z</time></trkpt><trkpt lat="38.130029641728264" lon="15.14757387700299"><ele>20.75</ele><time>2026-04-26T09:00:21Z</time></trkpt><trkpt lat="38.130075493225604" lon="15.147724721365584"><ele>19.5</ele><time>2026-04-26T09:00:22Z</time></trkpt><trkpt lat="38.13012392319039" lon="15.147908533172288"><ele>18.25</ele><time>2026-04-26T09:00:23Z</time></trkpt><trkpt lat="38.13015107151291" lon="15.148072257280608"><ele>17.0</ele><time>2026-04-26T09:00:24Z</time></trkpt><trkpt lat="38.13018293305716" lon="15.148245118064922"><ele>16.75</ele><time>2026-04-26T09:00:25Z</time></trkpt><trkpt lat="38.13021281533039" lon="15.148439050622953"><ele>16.5</ele><time>2026-04-26T09:00:26Z</time></trkpt><trkpt lat="38.13024569663198" lon="15.148612619468379"><ele>16.25</ele><time>2026-04-26T09:00:27Z</time></trkpt><trkpt lat="38.13027218208397" lon="15.148793774728537"><ele>16.0</ele><time>2026-04-26T09:00:28Z</time></trkpt><trkpt lat="38.13030037598135" lon="15.148965095042877"><ele>16.5</ele><time>2026-04-26T09:00:29Z</time></trkpt><trkpt lat="38.13033037219316" lon="15.149104350493618"><ele>17.0</ele><time>2026-04-26T09:00:30Z</time></trkpt><trkpt lat="38.130374030547436" lon="15.149255380792681"><ele>17.5</ele><time>2026-04-26T09:00:31Z</time></trkpt><trkpt lat="38.13043449655225" lon="15.14940075131443"><ele>18.0</ele><time>2026-04-26T09:00:32Z</time></trkpt><trkpt lat="38.13051042159688" lon="15.149538781134714"><ele>18.0</ele><time>2026-04-26T09:00:33Z</time></trkpt><trkpt lat="38.13061019790073" lon="15.149681890112909"><ele>18.0</ele><time>2026-04-26T09:00:34Z</time></trkpt><trkpt lat="38.13072598311284" lon="15.149825969442603"><ele>18.0</ele><time>2026-04-26T09:00:35Z</time></trkpt><trkpt lat="38.130847233244445" lon="15.149969767790614"><ele>17.666666666666668</ele><time>2026-04-26T09:00:36Z</time></trkpt><trkpt lat="38.13099693142405" lon="15.150106810007568"><ele>17.333333333333336</ele><time>2026-04-26T09:00:37Z</time></trkpt><trkpt lat="38.131154881300915" lon="15.150281693873273"><ele>17.0</ele><time>2026-04-26T09:00:38Z</time></trkpt><trkpt lat="38.131289271956966" lon="15.15045774555674"><ele>17.0</ele><time>2026-04-26T09:00:39Z</time></trkpt><trkpt lat="38.13139731055952" lon="15.150626689056104"><ele>17.0</ele><time>2026-04-26T09:00:40Z</time></trkpt><trkpt lat="38.131490075942764" lon="15.150786026476085"><ele>17.0</ele><time>2026-04-26T09:00:41Z</time></trkpt><trkpt lat="38.131572414742855" lon="15.150924842435769"><ele>17.0</ele><time>2026-04-26T09:00:42Z</time></trkpt><trkpt lat="38.13164783333885" lon="15.151053838706193"><ele>17.0</ele><time>2026-04-26T09:00:43Z</time></trkpt><trkpt lat="38.13171461532341" lon="15.151172973933415"><ele>17.0</ele><time>2026-04-26T09:00:44Z</time></trkpt><trkpt lat="38.13176738624664" lon="15.151297898884582"><ele>17.0</ele><time>2026-04-26T09:00:45Z</time></trkpt><trkpt lat="38.131829765316596" lon="15.151433555315414"><ele>17.5</ele><time>2026-04-26T09:00:46Z</time></trkpt><trkpt lat="38.1319004555765" lon="15.151574785713683"><ele>18.0</ele><time>2026-04-26T09:00:47Z</time></trkpt><trkpt lat="38.13196567671871" lon="15.151730515254497"><ele>18.5</ele><time>2026-04-26T09:00:48Z</time></trkpt><trkpt lat="38.1320254655926" lon="15.151913289482001"><ele>19.0</ele><time>2026-04-26T09:00:49Z</time></trkpt><trkpt lat="38.13209182077611" lon="15.152096585839177"><ele>19.0</ele><time>2026-04-26T09:00:50Z</time></trkpt><trkpt lat="38.132165936195626" lon="15.152295832769342"><ele>19.0</ele><time>2026-04-26T09:00:51Z</time></trkpt><trkpt lat="38.1322501395122" lon="15.152498726768059"><ele>19.0</ele><time>2026-04-26T09:00:52Z</time></trkpt><trkpt lat="38.13234701079537" lon="15.152701325362377"><ele>18.333333333333332</ele><time>2026-04-26T09:00:53Z</time></trkpt><trkpt lat="38.13244864315807" lon="15.152904916595864"><ele>17.666666666666668</ele><time>2026-04-26T09:00:54Z</time></trkpt><trkpt lat="38.132555036599065" lon="15.153114395952162"><ele>17.0</ele><time>2026-04-26T09:00:55Z</time></trkpt><trkpt lat="38.132661291585045" lon="15.153325204645034"><ele>17.0</ele><time>2026-04-26T09:00:56Z</time></trkpt><trkpt lat="38.1327692687345" lon="15.15354229216452"><ele>17.0</ele><time>2026-04-26T09:00:57Z</time></trkpt><trkpt lat="38.13287582594287" lon="15.153765809456884"><ele>17.0</ele><time>2026-04-26T09:00:58Z</time></trkpt><trkpt lat="38.13298054586034" lon="15.153990070834487"><ele>16.333333333333336</ele><time>2026-04-26T09:00:59Z</time></trkpt><trkpt lat="38.13309124129974" lon="15.154213975938132"><ele>15.666666666666668</ele><time>2026-04-26T09:01:00Z</time></trkpt><trkpt lat="38.13320181575008" lon="15.154435431558449"><ele>15.0</ele><time>2026-04-26T09:01:01Z</time></trkpt><trkpt lat="38.133313622556194" lon="15.154662330034055"><ele>17.666666666666668</ele><time>2026-04-26T09:01:02Z</time></trkpt><trkpt lat="38.13342461190122" lon="15.154887007115018"><ele>20.333333333333336</ele><time>2026-04-26T09:01:03Z</time></trkpt><trkpt lat="38.13353427963762" lon="15.155111237319748"><ele>23.0</ele><time>2026-04-26T09:01:04Z</time></trkpt><trkpt lat="38.133641839278454" lon="15.155336229304543"><ele>23.0</ele><time>2026-04-26T09:01:05Z</time></trkpt><trkpt lat="38.133747950594326" lon="15.155563961519972"><ele>23.0</ele><time>2026-04-26T09:01:06Z</time></trkpt><trkpt lat="38.133850646636446" lon="15.155787126134285"><ele>23.0</ele><time>2026-04-26T09:01:07Z</time></trkpt><trkpt lat="38.133944740657036" lon="15.155993800772404"><ele>22.0</ele><time>2026-04-26T09:01:08Z</time></trkpt><trkpt lat="38.13402978803849" lon="15.156188544109975"><ele>21.0</ele><time>2026-04-26T09:01:09Z</time></trkpt><trkpt lat="38.134106603946734" lon="15.156369855793987"><ele>20.0</ele><time>2026-04-26T09:01:10Z</time></trkpt><trkpt lat="38.134171473272524" lon="15.156540300347183"><ele>20.0</ele><time>2026-04-26T09:01:11Z</time></trkpt><trkpt lat="38.13421204323347" lon="15.156694943064347"><ele>20.0</ele><time>2026-04-26T09:01:12Z</time></trkpt><trkpt lat="38.13421676695842" lon="15.156850275185374"><ele>20.0</ele><time>2026-04-26T09:01:13Z</time></trkpt><trkpt lat="38.13416883067404" lon="15.15698412884004"><ele>20.0</ele><time>2026-04-26T09:01:14Z</time></trkpt><trkpt lat="38.13408364681215" lon="15.157065567564212"><ele>21.25</ele><time>2026-04-26T09:01:15Z</time></trkpt><trkpt lat="38.13398176428715" lon="15.15710551651154"><ele>22.5</ele><time>2026-04-26T09:01:16Z</time></trkpt><trkpt lat="38.13386612917805" lon="15.157102098119678"><ele>23.75</ele><time>2026-04-26T09:01:17Z</time></trkpt><trkpt lat="38.13373735734294" lon="15.157108416707676"><ele>25.0</ele><time>2026-04-26T09:01:18Z</time></trkpt><trkpt lat="38.13364139970205" lon="15.157180727460533"><ele>25.0</ele><time>2026-04-26T09:01:19Z</time></trkpt><trkpt lat="38.1335609089835" lon="15.157290297204236"><ele>25.0</ele><time>2026-04-26T09:01:20Z</time></trkpt><trkpt lat="38.133504018511836" lon="15.157456563864894"><ele>25.0</ele><time>2026-04-26T09:01:21Z</time></trkpt><trkpt lat="38.133457257976396" lon="15.157638340405535"><ele>25.0</ele><time>2026-04-26T09:01:22Z</time></trkpt><trkpt lat="38.13339598180821" lon="15.157829971262743"><ele>25.0</ele><time>2026-04-26T09:01:23Z</time></trkpt><trkpt lat="38.133321418406666" lon="15.158037816540862"><ele>25.0</ele><time>2026-04-26T09:01:24Z</time></trkpt><trkpt lat="38.13324322393844" lon="15.15827197203316"><ele>25.0</ele><time>2026-04-26T09:01:25Z</time></trkpt><trkpt lat="38.13316403149342" lon="15.158525336294016"><ele>25.0</ele><time>2026-04-26T09:01:26Z</time></trkpt><trkpt lat="38.13308622549061" lon="15.158765765259446"><ele>25.0</ele><time>2026-04-26T09:01:27Z</time></trkpt><trkpt lat="38.133015631541944" lon="15.158983722851033"><ele>25.0</ele><time>2026-04-26T09:01:28Z</time></trkpt><trkpt lat="38.13294961481981" lon="15.159192755912533"><ele>25.333333333333336</ele><time>2026-04-26T09:01:29Z</time></trkpt><trkpt lat="38.13290151697754" lon="15.159397267828966"><ele>25.666666666666664</ele><time>2026-04-26T09:01:30Z</time></trkpt><trkpt lat="38.13286660885702" lon="15.159593281808798"><ele>26.0</ele><time>2026-04-26T09:01:31Z</time></trkpt><trkpt lat="38.132849393224014" lon="15.159788333947425"><ele>25.666666666666664</ele><time>2026-04-26T09:01:32Z</time></trkpt><trkpt lat="38.132848027812265" lon="15.159990438512676"><ele>25.333333333333336</ele><time>2026-04-26T09:01:33Z</time></trkpt><trkpt lat="38.132874728894606" lon="15.160211145840774"><ele>25.0</ele><time>2026-04-26T09:01:34Z</time></trkpt><trkpt lat="38.132905029523066" lon="15.160435213348375"><ele>25.0</ele><time>2026-04-26T09:01:35Z</time></trkpt><trkpt lat="38.13293741431128" lon="15.1606876097576"><ele>25.0</ele><time>2026-04-26T09:01:36Z</time></trkpt><trkpt lat="38.132977966379926" lon="15.160952758293242"><ele>25.0</ele><time>2026-04-26T09:01:37Z</time></trkpt><trkpt lat="38.13302497017617" lon="15.161257776783732"><ele>28.5</ele><time>2026-04-26T09:01:38Z</time></trkpt><trkpt lat="38.13306522798745" lon="15.161583993470549"><ele>32.0</ele><time>2026-04-26T09:01:39Z</time></trkpt><trkpt lat="38.13309157310448" lon="15.161891165064956"><ele>32.0</ele><time>2026-04-26T09:01:40Z</time></trkpt><trkpt lat="38.13311510455971" lon="15.16217215084519"><ele>32.0</ele><time>2026-04-26T09:01:41Z</time></trkpt><trkpt lat="38.133140638092335" lon="15.162430939004826"><ele>32.0</ele><time>2026-04-26T09:01:42Z</time></trkpt><trkpt lat="38.13316780478875" lon="15.162667553558103"><ele>30.333333333333332</ele><time>2026-04-26T09:01:43Z</time></trkpt><trkpt lat="38.13319646785375" lon="15.162886185418985"><ele>28.666666666666664</ele><time>2026-04-26T09:01:44Z</time></trkpt><trkpt lat="38.13322680116453" lon="15.1630922310522"><ele>27.0</ele><time>2026-04-26T09:01:45Z</time></trkpt><trkpt lat="38.13325539396126" lon="15.163282161114699"><ele>27.0</ele><time>2026-04-26T09:01:46Z</time></trkpt><trkpt lat="38.13327547833354" lon="15.163456042532454"><ele>27.0</ele><time>2026-04-26T09:01:47Z</time></trkpt><trkpt lat="38.13329394311015" lon="15.163636240450977"><ele>27.0</ele><time>2026-04-26T09:01:48Z</time></trkpt><trkpt lat="38.133311085230844" lon="15.163813127307781"><ele>27.0</ele><time>2026-04-26T09:01:49Z</time></trkpt><trkpt lat="38.13332765750929" lon="15.163982860877072"><ele>27.0</ele><time>2026-04-26T09:01:50Z</time></trkpt><trkpt lat="38.13334562999657" lon="15.164145607704869"><ele>27.0</ele><time>2026-04-26T09:01:51Z</time></trkpt><trkpt lat="38.13336331134998" lon="15.164311512925885"><ele>27.0</ele><time>2026-04-26T09:01:52Z</time></trkpt><trkpt lat="38.13338451432365" lon="15.164483321709152"><ele>27.0</ele><time>2026-04-26T09:01:53Z</time></trkpt><trkpt lat="38.13341866289599" lon="15.164662105577378"><ele>27.0</ele><time>2026-04-26T09:01:54Z</time></trkpt><trkpt lat="38.13348009994698" lon="15.164844775729073"><ele>27.0</ele><time>2026-04-26T09:01:55Z</time></trkpt><trkpt lat="38.133555206046374" lon="15.16501913489388"><ele>27.0</ele><time>2026-04-26T09:01:56Z</time></trkpt><trkpt lat="38.133650282673926" lon="15.165209071061668"><ele>27.666666666666664</ele><time>2026-04-26T09:01:57Z</time></trkpt><trkpt lat="38.13372575692839" lon="15.165386697383601"><ele>28.333333333333332</ele><time>2026-04-26T09:01:58Z</time></trkpt><trkpt lat="38.133801852664035" lon="15.165560809304157"><ele>29.0</ele><time>2026-04-26T09:01:59Z</time></trkpt><trkpt lat="38.13387734649697" lon="15.165725984471731"><ele>29.2</ele><time>2026-04-26T09:02:00Z</time></trkpt><trkpt lat="38.13394472562951" lon="15.165879630368522"><ele>29.4</ele><time>2026-04-26T09:02:01Z</time></trkpt><trkpt lat="38.13400416633671" lon="15.166008388357639"><ele>29.6</ele><time>2026-04-26T09:02:02Z</time></trkpt><trkpt lat="38.134050530476856" lon="15.166118289622764"><ele>29.8</ele><time>2026-04-26T09:02:03Z</time></trkpt><trkpt lat="38.13409146307094" lon="15.16621324826194"><ele>30.0</ele><time>2026-04-26T09:02:04Z</time></trkpt><trkpt lat="38.13413700520694" lon="15.16631134071207"><ele>30.0</ele><time>2026-04-26T09:02:05Z</time></trkpt><trkpt lat="38.13418977730201" lon="15.166426875971196"><ele>30.0</ele><time>2026-04-26T09:02:06Z</time></trkpt><trkpt lat="38.13424296067855" lon="15.166548976047771"><ele>30.0</ele><time>2026-04-26T09:02:07Z</time></trkpt><trkpt lat="38.134305948593" lon="15.166678040726744"><ele>30.0</ele><time>2026-04-26T09:02:08Z</time></trkpt><trkpt lat="38.134359408168486" lon="15.166796547055345"><ele>30.0</ele><time>2026-04-26T09:02:09Z</time></trkpt><trkpt lat="38.134407229652425" lon="15.166903208040623"><ele>29.8</ele><time>2026-04-26T09:02:10Z</time></trkpt><trkpt lat="38.13445399098803" lon="15.167002071652123"><ele>29.6</ele><time>2026-04-26T09:02:11Z</time></trkpt><trkpt lat="38.1344985774901" lon="15.167092677093118"><ele>29.4</ele><time>2026-04-26T09:02:12Z</time></trkpt><trkpt lat="38.13455495912319" lon="15.167179371770562"><ele>29.2</ele><time>2026-04-26T09:02:13Z</time></trkpt><trkpt lat="38.134619427593776" lon="15.167277606585444"><ele>29.0</ele><time>2026-04-26T09:02:14Z</time></trkpt><trkpt lat="38.134685908400755" lon="15.167387055872211"><ele>29.0</ele><time>2026-04-26T09:02:15Z</time></trkpt><trkpt lat="38.13475317875107" lon="15.167513503824464"><ele>29.0</ele><time>2026-04-26T09:02:16Z</time></trkpt><trkpt lat="38.134832521571944" lon="15.167643056684074"><ele>29.0</ele><time>2026-04-26T09:02:17Z</time></trkpt><trkpt lat="38.134907172188065" lon="15.167765626196882"><ele>29.0</ele><time>2026-04-26T09:02:18Z</time></trkpt><trkpt lat="38.134965866407654" lon="15.16787390965416"><ele>29.0</ele><time>2026-04-26T09:02:19Z</time></trkpt><trkpt lat="38.13502118968061" lon="15.167972208565255"><ele>29.0</ele><time>2026-04-26T09:02:20Z</time></trkpt><trkpt lat="38.135083872255706" lon="15.168056732948164"><ele>29.0</ele><time>2026-04-26T09:02:21Z</time></trkpt><trkpt lat="38.135145512892386" lon="15.168155075166865"><ele>29.0</ele><time>2026-04-26T09:02:22Z</time></trkpt><trkpt lat="38.13522323766098" lon="15.168262674227236"><ele>29.0</ele><time>2026-04-26T09:02:23Z</time></trkpt><trkpt lat="38.13530830784915" lon="15.168391363442616"><ele>29.0</ele><time>2026-04-26T09:02:24Z</time></trkpt><trkpt lat="38.13540020506585" lon="15.168537940013167"><ele>29.0</ele><time>2026-04-26T09:02:25Z</time></trkpt><trkpt lat="38.13550473077081" lon="15.168694926825102"><ele>29.0</ele><time>2026-04-26T09:02:26Z</time></trkpt><trkpt lat="38.13561798577376" lon="15.168872360862725"><ele>30.333333333333332</ele><time>2026-04-26T09:02:27Z</time></trkpt><trkpt lat="38.135738095529966" lon="15.16906876824607"><ele>31.666666666666664</ele><time>2026-04-26T09:02:28Z</time></trkpt><trkpt lat="38.13587843091298" lon="15.169263609026888"><ele>33.0</ele><time>2026-04-26T09:02:29Z</time></trkpt><trkpt lat="38.13601143167409" lon="15.169434848772049"><ele>33.0</ele><time>2026-04-26T09:02:30Z</time></trkpt><trkpt lat="38.136125162376445" lon="15.169596317315824"><ele>33.0</ele><time>2026-04-26T09:02:31Z</time></trkpt><trkpt lat="38.13620024616888" lon="15.169763422361447"><ele>33.0</ele><time>2026-04-26T09:02:32Z</time></trkpt><trkpt lat="38.136244923961385" lon="15.169946127519077"><ele>36.0</ele><time>2026-04-26T09:02:33Z</time></trkpt><trkpt lat="38.13627273472626" lon="15.170139524334468"><ele>39.0</ele><time>2026-04-26T09:02:34Z</time></trkpt><trkpt lat="38.136315029601505" lon="15.170343306265533"><ele>42.0</ele><time>2026-04-26T09:02:35Z</time></trkpt><trkpt lat="38.136362745049304" lon="15.170557604745778"><ele>45.33333333333333</ele><time>2026-04-26T09:02:36Z</time></trkpt><trkpt lat="38.136402072651286" lon="15.170781368353108"><ele>48.666666666666664</ele><time>2026-04-26T09:02:37Z</time></trkpt><trkpt lat="38.1364353231853" lon="15.171007794828032"><ele>52.0</ele><time>2026-04-26T09:02:38Z</time></trkpt><trkpt lat="38.13644013913722" lon="15.171242804432234"><ele>52.0</ele><time>2026-04-26T09:02:39Z</time></trkpt><trkpt lat="38.13641352830939" lon="15.171475178351388"><ele>52.0</ele><time>2026-04-26T09:02:40Z</time></trkpt><trkpt lat="38.13637674607619" lon="15.171713860783289"><ele>52.0</ele><time>2026-04-26T09:02:41Z</time></trkpt><trkpt lat="38.13634163296652" lon="15.171952447568831"><ele>52.0</ele><time>2026-04-26T09:02:42Z</time></trkpt><trkpt lat="38.13630331401411" lon="15.172182137668512"><ele>52.0</ele><time>2026-04-26T09:02:43Z</time></trkpt><trkpt lat="38.13626401089585" lon="15.17239244635474"><ele>52.0</ele><time>2026-04-26T09:02:44Z</time></trkpt><trkpt lat="38.13623450975014" lon="15.172590779107228"><ele>51.75</ele><time>2026-04-26T09:02:45Z</time></trkpt><trkpt lat="38.136204045751846" lon="15.172771999338925"><ele>51.5</ele><time>2026-04-26T09:02:46Z</time></trkpt><trkpt lat="38.13617247603064" lon="15.172938868923051"><ele>51.25</ele><time>2026-04-26T09:02:47Z</time></trkpt><trkpt lat="38.13614105193509" lon="15.173097854636062"><ele>51.0</ele><time>2026-04-26T09:02:48Z</time></trkpt><trkpt lat="38.136113162775914" lon="15.173254435630662"><ele>51.0</ele><time>2026-04-26T09:02:49Z</time></trkpt><trkpt lat="38.136093642850646" lon="15.173403282046156"><ele>51.0</ele><time>2026-04-26T09:02:50Z</time></trkpt><trkpt lat="38.13607753880655" lon="15.173541488336284"><ele>51.0</ele><time>2026-04-26T09:02:51Z</time></trkpt><trkpt lat="38.13606001379035" lon="15.173687984371668"><ele>51.0</ele><time>2026-04-26T09:02:52Z</time></trkpt><trkpt lat="38.13604939350099" lon="15.173826824064902"><ele>51.0</ele><time>2026-04-26T09:02:53Z</time></trkpt><trkpt lat="38.13604185766114" lon="15.173970827456808"><ele>51.0</ele><time>2026-04-26T09:02:54Z</time></trkpt><trkpt lat="38.136041645060686" lon="15.174121033056364"><ele>51.0</ele><time>2026-04-26T09:02:55Z</time></trkpt><trkpt lat="38.13601050749943" lon="15.174272953635418"><ele>51.0</ele><time>2026-04-26T09:02:56Z</time></trkpt><trkpt lat="38.136019144544655" lon="15.174411225686393"><ele>51.0</ele><time>2026-04-26T09:02:57Z</time></trkpt><trkpt lat="38.13600751841225" lon="15.174532717566448"><ele>51.0</ele><time>2026-04-26T09:02:58Z</time></trkpt><trkpt lat="38.13597116975554" lon="15.174628654111988"><ele>51.0</ele><time>2026-04-26T09:02:59Z</time></trkpt><trkpt lat="38.13595504796601" lon="15.174706735252276"><ele>51.0</ele><time>2026-04-26T09:03:00Z</time></trkpt><trkpt lat="38.135939643138755" lon="15.17478931866906"><ele>51.0</ele><time>2026-04-26T09:03:01Z</time></trkpt><trkpt lat="38.13592575810189" lon="15.174887662948873"><ele>51.0</ele><time>2026-04-26T09:03:02Z</time></trkpt><trkpt lat="38.13590435653861" lon="15.175011215942732"><ele>49.333333333333336</ele><time>2026-04-26T09:03:03Z</time></trkpt><trkpt lat="38.13588248775129" lon="15.175170218397785"><ele>47.66666666666667</ele><time>2026-04-26T09:03:04Z</time></trkpt><trkpt lat="38.13584445755053" lon="15.175358024815274"><ele>46.0</ele><time>2026-04-26T09:03:05Z</time></trkpt><trkpt lat="38.13578384656633" lon="15.175574059885879"><ele>47.333333333333336</ele><time>2026-04-26T09:03:06Z</time></trkpt><trkpt lat="38.13571136247771" lon="15.175811754436259"><ele>48.66666666666667</ele><time>2026-04-26T09:03:07Z</time></trkpt><trkpt lat="38.13563120821264" lon="15.176073571893362"><ele>50.0</ele><time>2026-04-26T09:03:08Z</time></trkpt><trkpt lat="38.1355449133697" lon="15.176358778452794"><ele>49.0</ele><time>2026-04-26T09:03:09Z</time></trkpt><trkpt lat="38.13545998156329" lon="15.176646178535117"><ele>48.0</ele><time>2026-04-26T09:03:10Z</time></trkpt><trkpt lat="38.13537821867353" lon="15.17690691730703"><ele>48.0</ele><time>2026-04-26T09:03:11Z</time></trkpt><trkpt lat="38.13529472282263" lon="15.17714221365428"><ele>48.0</ele><time>2026-04-26T09:03:12Z</time></trkpt><trkpt lat="38.135193907048375" lon="15.177353202603005"><ele>48.0</ele><time>2026-04-26T09:03:13Z</time></trkpt><trkpt lat="38.135073287950526" lon="15.177548525166646"><ele>46.333333333333336</ele><time>2026-04-26T09:03:14Z</time></trkpt><trkpt lat="38.134932413523785" lon="15.1777309927867"><ele>44.66666666666667</ele><time>2026-04-26T09:03:15Z</time></trkpt><trkpt lat="38.134797901088916" lon="15.177910993633656"><ele>43.0</ele><time>2026-04-26T09:03:16Z</time></trkpt><trkpt lat="38.13466981517416" lon="15.178081138022936"><ele>46.333333333333336</ele><time>2026-04-26T09:03:17Z</time></trkpt><trkpt lat="38.13454900147101" lon="15.178244475509668"><ele>49.66666666666667</ele><time>2026-04-26T09:03:18Z</time></trkpt><trkpt lat="38.13444737271226" lon="15.178407676255931"><ele>53.0</ele><time>2026-04-26T09:03:19Z</time></trkpt><trkpt lat="38.13437765558037" lon="15.178594572284478"><ele>53.0</ele><time>2026-04-26T09:03:20Z</time></trkpt><trkpt lat="38.13433732748538" lon="15.178796035764778"><ele>53.0</ele><time>2026-04-26T09:03:21Z</time></trkpt><trkpt lat="38.13431146527495" lon="15.179010812286384"><ele>53.0</ele><time>2026-04-26T09:03:22Z</time></trkpt><trkpt lat="38.13430005679448" lon="15.179216198969707"><ele>52.25</ele><time>2026-04-26T09:03:23Z</time></trkpt><trkpt lat="38.13427669801083" lon="15.179377483049944"><ele>51.5</ele><time>2026-04-26T09:03:24Z</time></trkpt><trkpt lat="38.13422938286354" lon="15.179504578039136"><ele>50.75</ele><time>2026-04-26T09:03:25Z</time></trkpt><trkpt lat="38.13414819529594" lon="15.179593068768163"><ele>50.0</ele><time>2026-04-26T09:03:26Z</time></trkpt><trkpt lat="38.13404182455689" lon="15.179631699859407"><ele>51.75</ele><time>2026-04-26T09:03:27Z</time></trkpt><trkpt lat="38.13391572340362" lon="15.1796093900955"><ele>53.5</ele><time>2026-04-26T09:03:28Z</time></trkpt><trkpt lat="38.133798195448186" lon="15.179580601853443"><ele>55.25</ele><time>2026-04-26T09:03:29Z</time></trkpt><trkpt lat="38.13368218343065" lon="15.179529064017554"><ele>57.0</ele><time>2026-04-26T09:03:30Z</time></trkpt><trkpt lat="38.13354473382916" lon="15.179477610809926"><ele>57.0</ele><time>2026-04-26T09:03:31Z</time></trkpt><trkpt lat="38.133407490333624" lon="15.179407658378377"><ele>57.0</ele><time>2026-04-26T09:03:32Z</time></trkpt><trkpt lat="38.133277565997574" lon="15.179365018118672"><ele>57.0</ele><time>2026-04-26T09:03:33Z</time></trkpt><trkpt lat="38.13314737381115" lon="15.179379586296037"><ele>57.0</ele><time>2026-04-26T09:03:34Z</time></trkpt><trkpt lat="38.13302328942225" lon="15.179455400138618"><ele>57.75</ele><time>2026-04-26T09:03:35Z</time></trkpt><trkpt lat="38.132910310283535" lon="15.17955249076268"><ele>58.5</ele><time>2026-04-26T09:03:36Z</time></trkpt><trkpt lat="38.132824892792556" lon="15.179697814098686"><ele>59.25</ele><time>2026-04-26T09:03:37Z</time></trkpt><trkpt lat="38.13274043703788" lon="15.179878332839342"><ele>60.0</ele><time>2026-04-26T09:03:38Z</time></trkpt><trkpt lat="38.13268391768511" lon="15.180096049386131"><ele>60.0</ele><time>2026-04-26T09:03:39Z</time></trkpt><trkpt lat="38.132630781241296" lon="15.180317662229502"><ele>60.0</ele><time>2026-04-26T09:03:40Z</time></trkpt><trkpt lat="38.132598585460215" lon="15.180546967959929"><ele>60.0</ele><time>2026-04-26T09:03:41Z</time></trkpt><trkpt lat="38.132594835575354" lon="15.180769664869992"><ele>59.0</ele><time>2026-04-26T09:03:42Z</time></trkpt><trkpt lat="38.13260722534674" lon="15.180998526282439"><ele>58.0</ele><time>2026-04-26T09:03:43Z</time></trkpt><trkpt lat="38.13264137643638" lon="15.181239380969322"><ele>57.0</ele><time>2026-04-26T09:03:44Z</time></trkpt><trkpt lat="38.13270003019363" lon="15.18147879103395"><ele>54.33333333333333</ele><time>2026-04-26T09:03:45Z</time></trkpt><trkpt lat="38.13279260771325" lon="15.1817099335031"><ele>51.666666666666664</ele><time>2026-04-26T09:03:46Z</time></trkpt><trkpt lat="38.13291210700418" lon="15.181926988952222"><ele>49.0</ele><time>2026-04-26T09:03:47Z</time></trkpt><trkpt lat="38.133033876029515" lon="15.18214166359007"><ele>49.0</ele><time>2026-04-26T09:03:48Z</time></trkpt><trkpt lat="38.133143536201736" lon="15.182344689441534"><ele>49.0</ele><time>2026-04-26T09:03:49Z</time></trkpt><trkpt lat="38.13324872063139" lon="15.182542978397448"><ele>49.0</ele><time>2026-04-26T09:03:50Z</time></trkpt><trkpt lat="38.133352822375436" lon="15.182739142936157"><ele>49.33333333333333</ele><time>2026-04-26T09:03:51Z</time></trkpt><trkpt lat="38.133454979711594" lon="15.182938916406858"><ele>49.66666666666667</ele><time>2026-04-26T09:03:52Z</time></trkpt><trkpt lat="38.13355594933623" lon="15.183141480890699"><ele>50.0</ele><time>2026-04-26T09:03:53Z</time></trkpt><trkpt lat="38.13366137363491" lon="15.183345606944695"><ele>49.333333333333336</ele><time>2026-04-26T09:03:54Z</time></trkpt><trkpt lat="38.133770365777984" lon="15.183549452477235"><ele>48.66666666666667</ele><time>2026-04-26T09:03:55Z</time></trkpt><trkpt lat="38.13387507256812" lon="15.183749792589083"><ele>48.0</ele><time>2026-04-26T09:03:56Z</time></trkpt><trkpt lat="38.133974555868825" lon="15.183936665259617"><ele>47.0</ele><time>2026-04-26T09:03:57Z</time></trkpt><trkpt lat="38.13406501518794" lon="15.184104190635622"><ele>46.0</ele><time>2026-04-26T09:03:58Z</time></trkpt><trkpt lat="38.13413422376486" lon="15.184244848971725"><ele>45.0</ele><time>2026-04-26T09:03:59Z</time></trkpt><trkpt lat="38.13420289837631" lon="15.184368773693388"><ele>44.0</ele><time>2026-04-26T09:04:00Z</time></trkpt><trkpt lat="38.134262375697865" lon="15.184483889082397"><ele>44.0</ele><time>2026-04-26T09:04:01Z</time></trkpt><trkpt lat="38.1343229681933" lon="15.184593710775141"><ele>44.0</ele><time>2026-04-26T09:04:02Z</time></trkpt><trkpt lat="38.13437685656701" lon="15.184700808152769"><ele>44.0</ele><time>2026-04-26T09:04:03Z</time></trkpt><trkpt lat="38.13442980909588" lon="15.184808115307"><ele>44.0</ele><time>2026-04-26T09:04:04Z</time></trkpt><trkpt lat="38.13448679198745" lon="15.184916711972683"><ele>44.0</ele><time>2026-04-26T09:04:05Z</time></trkpt><trkpt lat="38.13454114128968" lon="15.18502599830182"><ele>45.400000000000006</ele><time>2026-04-26T09:04:06Z</time></trkpt><trkpt lat="38.13461762347713" lon="15.18512303837783"><ele>46.8</ele><time>2026-04-26T09:04:07Z</time></trkpt><trkpt lat="38.13470495303557" lon="15.185206574926791"><ele>48.2</ele><time>2026-04-26T09:04:08Z</time></trkpt><trkpt lat="38.134797277236146" lon="15.18527936647029"><ele>49.599999999999994</ele><time>2026-04-26T09:04:09Z</time></trkpt><trkpt lat="38.13489146795887" lon="15.185350711894337"><ele>51.0</ele><time>2026-04-26T09:04:10Z</time></trkpt><trkpt lat="38.13498787253734" lon="15.185419974369202"><ele>51.0</ele><time>2026-04-26T09:04:11Z</time></trkpt><trkpt lat="38.13509930543594" lon="15.185495106703165"><ele>51.0</ele><time>2026-04-26T09:04:12Z</time></trkpt><trkpt lat="38.135216948773355" lon="15.185585965396276"><ele>51.0</ele><time>2026-04-26T09:04:13Z</time></trkpt><trkpt lat="38.13533896101653" lon="15.185696712227085"><ele>51.0</ele><time>2026-04-26T09:04:14Z</time></trkpt><trkpt lat="38.13547520789448" lon="15.185807030518804"><ele>50.66666666666667</ele><time>2026-04-26T09:04:15Z</time></trkpt><trkpt lat="38.13563753534962" lon="15.185933472884539"><ele>50.333333333333336</ele><time>2026-04-26T09:04:16Z</time></trkpt><trkpt lat="38.13583822660808" lon="15.186097368037407"><ele>50.0</ele><time>2026-04-26T09:04:17Z</time></trkpt><trkpt lat="38.13606585429139" lon="15.186305152889735"><ele>51.0</ele><time>2026-04-26T09:04:18Z</time></trkpt><trkpt lat="38.13632812093507" lon="15.186521629196744"><ele>52.0</ele><time>2026-04-26T09:04:19Z</time></trkpt><trkpt lat="38.13661046080511" lon="15.186734111138955"><ele>52.0</ele><time>2026-04-26T09:04:20Z</time></trkpt><trkpt lat="38.13684143124895" lon="15.186935050404387"><ele>52.0</ele><time>2026-04-26T09:04:21Z</time></trkpt><trkpt lat="38.13703140416062" lon="15.187113014386613"><ele>52.0</ele><time>2026-04-26T09:04:22Z</time></trkpt><trkpt lat="38.13719714951889" lon="15.187260124689084"><ele>52.0</ele><time>2026-04-26T09:04:23Z</time></trkpt><trkpt lat="38.137338080994226" lon="15.187374609229863"><ele>52.0</ele><time>2026-04-26T09:04:24Z</time></trkpt><trkpt lat="38.13748529189309" lon="15.187472062709356"><ele>51.666666666666664</ele><time>2026-04-26T09:04:25Z</time></trkpt><trkpt lat="38.13763868112244" lon="15.187535039092547"><ele>51.33333333333333</ele><time>2026-04-26T09:04:26Z</time></trkpt><trkpt lat="38.137821569167755" lon="15.187552197885323"><ele>51.0</ele><time>2026-04-26T09:04:27Z</time></trkpt><trkpt lat="38.13799506693454" lon="15.187583187556694"><ele>51.0</ele><time>2026-04-26T09:04:28Z</time></trkpt><trkpt lat="38.13816993450363" lon="15.187623444480106"><ele>51.0</ele><time>2026-04-26T09:04:29Z</time></trkpt><trkpt lat="38.138341694600456" lon="15.18767512661026"><ele>51.0</ele><time>2026-04-26T09:04:30Z</time></trkpt><trkpt lat="38.13850427133974" lon="15.187749077617104"><ele>48.0</ele><time>2026-04-26T09:04:31Z</time></trkpt><trkpt lat="38.13866171593355" lon="15.187808695634248"><ele>45.0</ele><time>2026-04-26T09:04:32Z</time></trkpt><trkpt lat="38.13883987006971" lon="15.187838359681717"><ele>42.0</ele><time>2026-04-26T09:04:33Z</time></trkpt><trkpt lat="38.13901115978242" lon="15.187859264569735"><ele>41.0</ele><time>2026-04-26T09:04:34Z</time></trkpt><trkpt lat="38.13915630085552" lon="15.187887980053038"><ele>40.0</ele><time>2026-04-26T09:04:35Z</time></trkpt><trkpt lat="38.139283460094596" lon="15.187907714019834"><ele>39.0</ele><time>2026-04-26T09:04:36Z</time></trkpt><trkpt lat="38.139408642641364" lon="15.187927127462313"><ele>38.0</ele><time>2026-04-26T09:04:37Z</time></trkpt><trkpt lat="38.139535231538076" lon="15.187944973211764"><ele>38.0</ele><time>2026-04-26T09:04:38Z</time></trkpt><trkpt lat="38.139675800304616" lon="15.187969933556817"><ele>38.0</ele><time>2026-04-26T09:04:39Z</time></trkpt><trkpt lat="38.13981715660954" lon="15.188015160669732"><ele>38.0</ele><time>2026-04-26T09:04:40Z</time></trkpt><trkpt lat="38.13995854696461" lon="15.188070538070637"><ele>38.0</ele><time>2026-04-26T09:04:41Z</time></trkpt><trkpt lat="38.14010378773746" lon="15.188119449529342"><ele>37.666666666666664</ele><time>2026-04-26T09:04:42Z</time></trkpt><trkpt lat="38.140258849510545" lon="15.18815334818227"><ele>37.333333333333336</ele><time>2026-04-26T09:04:43Z</time></trkpt><trkpt lat="38.14043324697185" lon="15.188184392532134"><ele>37.0</ele><time>2026-04-26T09:04:44Z</time></trkpt><trkpt lat="38.140630155216535" lon="15.188201451868833"><ele>38.333333333333336</ele><time>2026-04-26T09:04:45Z</time></trkpt><trkpt lat="38.14083998840209" lon="15.188196872992593"><ele>39.666666666666664</ele><time>2026-04-26T09:04:46Z</time></trkpt><trkpt lat="38.141058746378256" lon="15.188192077198611"><ele>41.0</ele><time>2026-04-26T09:04:47Z</time></trkpt><trkpt lat="38.14126729619348" lon="15.188179364223059"><ele>41.0</ele><time>2026-04-26T09:04:48Z</time></trkpt><trkpt lat="38.141467570986805" lon="15.188169635726098"><ele>41.0</ele><time>2026-04-26T09:04:49Z</time></trkpt><trkpt lat="38.141664822585554" lon="15.188173472069616"><ele>41.0</ele><time>2026-04-26T09:04:50Z</time></trkpt><trkpt lat="38.14186512332466" lon="15.188194024504627"><ele>41.0</ele><time>2026-04-26T09:04:51Z</time></trkpt><trkpt lat="38.14207978086466" lon="15.188247598410243"><ele>41.0</ele><time>2026-04-26T09:04:52Z</time></trkpt><trkpt lat="38.142304236780475" lon="15.188313576975004"><ele>41.0</ele><time>2026-04-26T09:04:53Z</time></trkpt><trkpt lat="38.14254951500605" lon="15.188377912093669"><ele>37.5</ele><time>2026-04-26T09:04:54Z</time></trkpt><trkpt lat="38.14278661780063" lon="15.188432409233133"><ele>34.0</ele><time>2026-04-26T09:04:55Z</time></trkpt><trkpt lat="38.14299315350014" lon="15.18849392780345"><ele>34.0</ele><time>2026-04-26T09:04:56Z</time></trkpt><trkpt lat="38.14318167095766" lon="15.188565696224959"><ele>34.0</ele><time>2026-04-26T09:04:57Z</time></trkpt><trkpt lat="38.143354941933154" lon="15.188666246632954"><ele>34.0</ele><time>2026-04-26T09:04:58Z</time></trkpt><trkpt lat="38.143513782357736" lon="15.188804371842643"><ele>34.0</ele><time>2026-04-26T09:04:59Z</time></trkpt><trkpt lat="38.14364356621511" lon="15.188974426019204"><ele>34.0</ele><time>2026-04-26T09:05:00Z</time></trkpt><trkpt lat="38.14374742574798" lon="15.189165598946895"><ele>34.0</ele><time>2026-04-26T09:05:01Z</time></trkpt><trkpt lat="38.14383416320993" lon="15.1893734827317"><ele>34.0</ele><time>2026-04-26T09:05:02Z</time></trkpt><trkpt lat="38.14388759329918" lon="15.189613204594904"><ele>34.0</ele><time>2026-04-26T09:05:03Z</time></trkpt><trkpt lat="38.14390296082872" lon="15.189871241283024"><ele>34.0</ele><time>2026-04-26T09:05:04Z</time></trkpt><trkpt lat="38.14390422277964" lon="15.190144589085719"><ele>34.5</ele><time>2026-04-26T09:05:05Z</time></trkpt><trkpt lat="38.14391159721891" lon="15.190436696166959"><ele>35.0</ele><time>2026-04-26T09:05:06Z</time></trkpt><trkpt lat="38.143923363984385" lon="15.190739671858006"><ele>42.0</ele><time>2026-04-26T09:05:07Z</time></trkpt><trkpt lat="38.14393142618465" lon="15.191059699985791"><ele>49.0</ele><time>2026-04-26T09:05:08Z</time></trkpt><trkpt lat="38.1439437670539" lon="15.19140847041282"><ele>55.33333333333333</ele><time>2026-04-26T09:05:09Z</time></trkpt><trkpt lat="38.143953003518824" lon="15.191706746038253"><ele>61.66666666666667</ele><time>2026-04-26T09:05:10.022Z</time></trkpt><trkpt lat="38.14396081043652" lon="15.191932951515566"><ele>68.0</ele><time>2026-04-26T09:05:11.022Z</time></trkpt><trkpt lat="38.143966967022656" lon="15.192138028882763"><ele>68.0</ele><time>2026-04-26T09:05:12.023Z</time></trkpt><trkpt lat="38.14397357342531" lon="15.192319964311073"><ele>68.0</ele><time>2026-04-26T09:05:13.024Z</time></trkpt><trkpt lat="38.1439822489278" lon="15.192503398400511"><ele>68.0</ele><time>2026-04-26T09:05:14.015Z</time></trkpt><trkpt lat="38.143981522916015" lon="15.192745998515926"><ele>64.0</ele><time>2026-04-26T09:05:16Z</time></trkpt><trkpt lat="38.14398323415718" lon="15.19292257355552"><ele>60.0</ele><time>2026-04-26T09:05:17Z</time></trkpt><trkpt lat="38.143965809466835" lon="15.193180691741333"><ele>56.0</ele><time>2026-04-26T09:05:18Z</time></trkpt><trkpt lat="38.143940898408864" lon="15.19338632702619"><ele>52.66666666666667</ele><time>2026-04-26T09:05:19Z</time></trkpt><trkpt lat="38.14389429608689" lon="15.193589025541103"><ele>49.333333333333336</ele><time>2026-04-26T09:05:20Z</time></trkpt><trkpt lat="38.14385897850315" lon="15.1938220961111"><ele>46.0</ele><time>2026-04-26T09:05:21Z</time></trkpt><trkpt lat="38.14375518854351" lon="15.194076384701553"><ele>45.333333333333336</ele><time>2026-04-26T09:05:22Z</time></trkpt><trkpt lat="38.1436712151612" lon="15.19433075041711"><ele>44.666666666666664</ele><time>2026-04-26T09:05:23Z</time></trkpt><trkpt lat="38.143577760157925" lon="15.194592941708743"><ele>44.0</ele><time>2026-04-26T09:05:24Z</time></trkpt><trkpt lat="38.143482125384836" lon="15.194869624688096"><ele>43.0</ele><time>2026-04-26T09:05:25Z</time></trkpt><trkpt lat="38.14337393589052" lon="15.195162327855527"><ele>42.0</ele><time>2026-04-26T09:05:26Z</time></trkpt><trkpt lat="38.1432708044916" lon="15.195443753927071"><ele>43.333333333333336</ele><time>2026-04-26T09:05:27Z</time></trkpt><trkpt lat="38.14316456095807" lon="15.195694356485266"><ele>44.66666666666667</ele><time>2026-04-26T09:05:28Z</time></trkpt><trkpt lat="38.14307078201613" lon="15.195946034074272"><ele>46.0</ele><time>2026-04-26T09:05:29Z</time></trkpt><trkpt lat="38.14298621988325" lon="15.196203583649815"><ele>46.0</ele><time>2026-04-26T09:05:30Z</time></trkpt><trkpt lat="38.14290984784327" lon="15.196481663251882"><ele>46.0</ele><time>2026-04-26T09:05:31Z</time></trkpt><trkpt lat="38.142844776213245" lon="15.19679585191566"><ele>45.0</ele><time>2026-04-26T09:05:32Z</time></trkpt><trkpt lat="38.142787344985535" lon="15.197140266092418"><ele>44.0</ele><time>2026-04-26T09:05:33Z</time></trkpt><trkpt lat="38.14274297663866" lon="15.197510454374065"><ele>44.0</ele><time>2026-04-26T09:05:34Z</time></trkpt><trkpt lat="38.142723753817734" lon="15.19791598943734"><ele>44.0</ele><time>2026-04-26T09:05:35Z</time></trkpt><trkpt lat="38.142716843672964" lon="15.198297317869645"><ele>43.5</ele><time>2026-04-26T09:05:36Z</time></trkpt><trkpt lat="38.14271353616353" lon="15.198647409227807"><ele>43.0</ele><time>2026-04-26T09:05:37Z</time></trkpt><trkpt lat="38.14270775320354" lon="15.198942735600511"><ele>42.66666666666667</ele><time>2026-04-26T09:05:38Z</time></trkpt><trkpt lat="38.142706273006745" lon="15.199223654585209"><ele>42.333333333333336</ele><time>2026-04-26T09:05:39Z</time></trkpt><trkpt lat="38.14270622304992" lon="15.199490924018736"><ele>42.0</ele><time>2026-04-26T09:05:40Z</time></trkpt><trkpt lat="38.142709597925446" lon="15.199742181179216"><ele>41.333333333333336</ele><time>2026-04-26T09:05:41Z</time></trkpt><trkpt lat="38.14271251682499" lon="15.19998174474613"><ele>40.66666666666667</ele><time>2026-04-26T09:05:42Z</time></trkpt><trkpt lat="38.14271419592163" lon="15.200220530317164"><ele>40.0</ele><time>2026-04-26T09:05:43Z</time></trkpt><trkpt lat="38.142713748100924" lon="15.200457189580371"><ele>40.0</ele><time>2026-04-26T09:05:44Z</time></trkpt><trkpt lat="38.14270839075639" lon="15.200692356684597"><ele>40.0</ele><time>2026-04-26T09:05:45Z</time></trkpt><trkpt lat="38.14270642228396" lon="15.200924010401627"><ele>40.0</ele><time>2026-04-26T09:05:46Z</time></trkpt><trkpt lat="38.142711030337146" lon="15.201147934292853"><ele>40.0</ele><time>2026-04-26T09:05:47Z</time></trkpt><trkpt lat="38.14272890380831" lon="15.20137029437197"><ele>40.0</ele><time>2026-04-26T09:05:48Z</time></trkpt><trkpt lat="38.14275964674729" lon="15.201586892505873"><ele>40.0</ele><time>2026-04-26T09:05:49Z</time></trkpt><trkpt lat="38.14280393015953" lon="15.201800373239127"><ele>40.0</ele><time>2026-04-26T09:05:50Z</time></trkpt><trkpt lat="38.142860994824375" lon="15.202012623025883"><ele>40.0</ele><time>2026-04-26T09:05:51Z</time></trkpt><trkpt lat="38.14292768931577" lon="15.202223509528624"><ele>40.0</ele><time>2026-04-26T09:05:52Z</time></trkpt><trkpt lat="38.143011277886885" lon="15.202426434734825"><ele>40.0</ele><time>2026-04-26T09:05:53Z</time></trkpt><trkpt lat="38.143113473752514" lon="15.202617225988837"><ele>40.0</ele><time>2026-04-26T09:05:54Z</time></trkpt><trkpt lat="38.1432241868813" lon="15.202803924368554"><ele>40.0</ele><time>2026-04-26T09:05:55Z</time></trkpt><trkpt lat="38.14334157249832" lon="15.202985431755417"><ele>40.333333333333336</ele><time>2026-04-26T09:05:56Z</time></trkpt><trkpt lat="38.143454078301346" lon="15.20315278050163"><ele>40.666666666666664</ele><time>2026-04-26T09:05:57Z</time></trkpt><trkpt lat="38.14355888994756" lon="15.203308461470233"><ele>41.0</ele><time>2026-04-26T09:05:58Z</time></trkpt><trkpt lat="38.1436583061011" lon="15.203456917336883"><ele>41.0</ele><time>2026-04-26T09:05:59Z</time></trkpt><trkpt lat="38.14375683588878" lon="15.203609848585034"><ele>41.0</ele><time>2026-04-26T09:06:00Z</time></trkpt><trkpt lat="38.14385004180486" lon="15.20376842529332"><ele>41.0</ele><time>2026-04-26T09:06:01Z</time></trkpt><trkpt lat="38.143928354517655" lon="15.203924960772925"><ele>41.0</ele><time>2026-04-26T09:06:02Z</time></trkpt><trkpt lat="38.14399839381648" lon="15.204080976000117"><ele>41.0</ele><time>2026-04-26T09:06:03Z</time></trkpt><trkpt lat="38.144063855831206" lon="15.204244443116483"><ele>41.0</ele><time>2026-04-26T09:06:04Z</time></trkpt><trkpt lat="38.14412226761843" lon="15.204409990537533"><ele>41.0</ele><time>2026-04-26T09:06:05Z</time></trkpt><trkpt lat="38.14416596686275" lon="15.20456001405252"><ele>41.0</ele><time>2026-04-26T09:06:06Z</time></trkpt><trkpt lat="38.14419724551673" lon="15.20468594937841"><ele>41.0</ele><time>2026-04-26T09:06:07Z</time></trkpt><trkpt lat="38.14422370599926" lon="15.204805004114922"><ele>41.0</ele><time>2026-04-26T09:06:08Z</time></trkpt><trkpt lat="38.144241923938836" lon="15.204914219862562"><ele>41.0</ele><time>2026-04-26T09:06:09Z</time></trkpt><trkpt lat="38.14425107828303" lon="15.205017371177021"><ele>41.0</ele><time>2026-04-26T09:06:10Z</time></trkpt><trkpt lat="38.144253387173244" lon="15.20511833003584"><ele>41.199999999999996</ele><time>2026-04-26T09:06:11Z</time></trkpt><trkpt lat="38.144262141334146" lon="15.205211847504176"><ele>41.4</ele><time>2026-04-26T09:06:12Z</time></trkpt><trkpt lat="38.144300689265805" lon="15.205308311620138"><ele>41.6</ele><time>2026-04-26T09:06:13Z</time></trkpt><trkpt lat="38.144348449728426" lon="15.205422021076293"><ele>41.8</ele><time>2026-04-26T09:06:14Z</time></trkpt><trkpt lat="38.14438909876763" lon="15.205573375195844"><ele>42.0</ele><time>2026-04-26T09:06:15Z</time></trkpt><trkpt lat="38.144435929400636" lon="15.205749374581771"><ele>42.5</ele><time>2026-04-26T09:06:16Z</time></trkpt><trkpt lat="38.144481032347954" lon="15.205938970497419"><ele>43.0</ele><time>2026-04-26T09:06:17Z</time></trkpt><trkpt lat="38.14449871585134" lon="15.206118288863028"><ele>43.5</ele><time>2026-04-26T09:06:18Z</time></trkpt><trkpt lat="38.1445161795181" lon="15.206281757667014"><ele>44.0</ele><time>2026-04-26T09:06:19Z</time></trkpt><trkpt lat="38.14453837288512" lon="15.206414271096694"><ele>44.25</ele><time>2026-04-26T09:06:20Z</time></trkpt><trkpt lat="38.14456184525721" lon="15.206555693309761"><ele>44.5</ele><time>2026-04-26T09:06:21Z</time></trkpt><trkpt lat="38.14459730119811" lon="15.206705299913525"><ele>44.75</ele><time>2026-04-26T09:06:22Z</time></trkpt><trkpt lat="38.14463050118796" lon="15.2068724608122"><ele>45.0</ele><time>2026-04-26T09:06:23Z</time></trkpt><trkpt lat="38.14466090298984" lon="15.207055809033358"><ele>45.0</ele><time>2026-04-26T09:06:24Z</time></trkpt><trkpt lat="38.14469564542939" lon="15.207242670514855"><ele>45.0</ele><time>2026-04-26T09:06:25Z</time></trkpt><trkpt lat="38.14473133995023" lon="15.207430592145952"><ele>45.0</ele><time>2026-04-26T09:06:26Z</time></trkpt><trkpt lat="38.14475953138806" lon="15.207618842242775"><ele>45.75</ele><time>2026-04-26T09:06:27Z</time></trkpt><trkpt lat="38.144793849518635" lon="15.207798212892241"><ele>46.5</ele><time>2026-04-26T09:06:28Z</time></trkpt><trkpt lat="38.144827510915434" lon="15.207969721528446"><ele>47.25</ele><time>2026-04-26T09:06:29Z</time></trkpt><trkpt lat="38.14486141610592" lon="15.208132211663225"><ele>48.0</ele><time>2026-04-26T09:06:30Z</time></trkpt><trkpt lat="38.14489772059376" lon="15.2082986017651"><ele>48.0</ele><time>2026-04-26T09:06:31Z</time></trkpt><trkpt lat="38.14494011254846" lon="15.208456350615567"><ele>48.0</ele><time>2026-04-26T09:06:32Z</time></trkpt><trkpt lat="38.14498585892614" lon="15.208603894786812"><ele>48.0</ele><time>2026-04-26T09:06:33Z</time></trkpt><trkpt lat="38.14502261411168" lon="15.208746316534675"><ele>48.0</ele><time>2026-04-26T09:06:34Z</time></trkpt><trkpt lat="38.14503524670899" lon="15.208884404937765"><ele>48.333333333333336</ele><time>2026-04-26T09:06:35Z</time></trkpt><trkpt lat="38.14501816411678" lon="15.209011970097329"><ele>48.66666666666667</ele><time>2026-04-26T09:06:36Z</time></trkpt><trkpt lat="38.14500082363149" lon="15.209128168234491"><ele>49.0</ele><time>2026-04-26T09:06:37Z</time></trkpt><trkpt lat="38.14498139154663" lon="15.2092302882299"><ele>49.333333333333336</ele><time>2026-04-26T09:06:38Z</time></trkpt><trkpt lat="38.14495756558935" lon="15.209318771489306"><ele>49.66666666666667</ele><time>2026-04-26T09:06:39Z</time></trkpt><trkpt lat="38.14493409436636" lon="15.20940190173711"><ele>50.0</ele><time>2026-04-26T09:06:40Z</time></trkpt><trkpt lat="38.144915383702774" lon="15.20948009588707"><ele>50.0</ele><time>2026-04-26T09:06:41Z</time></trkpt><trkpt lat="38.14489863893085" lon="15.209601904381245"><ele>50.0</ele><time>2026-04-26T09:06:43Z</time></trkpt><trkpt lat="38.14488646456506" lon="15.209711236293622"><ele>50.0</ele><time>2026-04-26T09:06:45Z</time></trkpt><trkpt lat="38.14489201792827" lon="15.209819508806476"><ele>50.0</ele><time>2026-04-26T09:06:47Z</time></trkpt><trkpt lat="38.14491561027893" lon="15.209946848597733"><ele>50.0</ele><time>2026-04-26T09:06:49Z</time></trkpt><trkpt lat="38.144963240568" lon="15.210096873766899"><ele>50.4</ele><time>2026-04-26T09:06:51Z</time></trkpt><trkpt lat="38.1449957316366" lon="15.210181199595873"><ele>50.8</ele><time>2026-04-26T09:06:52Z</time></trkpt><trkpt lat="38.14503302402466" lon="15.210292576576203"><ele>51.2</ele><time>2026-04-26T09:06:53Z</time></trkpt><trkpt lat="38.145084997013726" lon="15.21043117572774"><ele>51.6</ele><time>2026-04-26T09:06:54Z</time></trkpt><trkpt lat="38.14513313444844" lon="15.210556112470341"><ele>52.0</ele><time>2026-04-26T09:06:55Z</time></trkpt><trkpt lat="38.145174220426604" lon="15.210654085348748"><ele>52.166666666666664</ele><time>2026-04-26T09:06:56Z</time></trkpt><trkpt lat="38.14521544787042" lon="15.210743160837954"><ele>52.33333333333333</ele><time>2026-04-26T09:06:57Z</time></trkpt><trkpt lat="38.14524099235613" lon="15.210825090629903"><ele>52.5</ele><time>2026-04-26T09:06:58Z</time></trkpt><trkpt lat="38.14528959224263" lon="15.210970394063093"><ele>52.66666666666667</ele><time>2026-04-26T09:07:00Z</time></trkpt><trkpt lat="38.14531912090733" lon="15.211045741906512"><ele>52.833333333333336</ele><time>2026-04-26T09:07:01Z</time></trkpt><trkpt lat="38.145352894522496" lon="15.211129880077868"><ele>53.0</ele><time>2026-04-26T09:07:02Z</time></trkpt><trkpt lat="38.14538141510762" lon="15.211209838884539"><ele>53.0</ele><time>2026-04-26T09:07:03Z</time></trkpt><trkpt lat="38.14544388190543" lon="15.211371465967618"><ele>53.0</ele><time>2026-04-26T09:07:05Z</time></trkpt><trkpt lat="38.14548877506677" lon="15.211468404731567"><ele>53.0</ele><time>2026-04-26T09:07:06Z</time></trkpt><trkpt lat="38.14553387778761" lon="15.21157344498159"><ele>53.0</ele><time>2026-04-26T09:07:07Z</time></trkpt><trkpt lat="38.145585158026456" lon="15.21168387986921"><ele>53.0</ele><time>2026-04-26T09:07:08Z</time></trkpt><trkpt lat="38.14562811676606" lon="15.211778948362484"><ele>53.16666666666667</ele><time>2026-04-26T09:07:09Z</time></trkpt><trkpt lat="38.14566109361932" lon="15.211864372323761"><ele>53.333333333333336</ele><time>2026-04-26T09:07:10Z</time></trkpt><trkpt lat="38.14569398966248" lon="15.21194458909284"><ele>53.5</ele><time>2026-04-26T09:07:11Z</time></trkpt><trkpt lat="38.145727386070774" lon="15.212015862401689"><ele>53.66666666666667</ele><time>2026-04-26T09:07:12Z</time></trkpt><trkpt lat="38.1457562890267" lon="15.21209143945861"><ele>53.833333333333336</ele><time>2026-04-26T09:07:13Z</time></trkpt><trkpt lat="38.14578487031495" lon="15.212167965964422"><ele>54.0</ele><time>2026-04-26T09:07:14Z</time></trkpt><trkpt lat="38.145844203991274" lon="15.21229789246963"><ele>54.14285714285714</ele><time>2026-04-26T09:07:16Z</time></trkpt><trkpt lat="38.1458765887053" lon="15.212369041190144"><ele>54.285714285714285</ele><time>2026-04-26T09:07:17Z</time></trkpt><trkpt lat="38.14591101734545" lon="15.212454454631915"><ele>54.42857142857143</ele><time>2026-04-26T09:07:18Z</time></trkpt><trkpt lat="38.145937329956354" lon="15.212542806305562"><ele>54.57142857142857</ele><time>2026-04-26T09:07:19Z</time></trkpt><trkpt lat="38.14596992353631" lon="15.212626286102577"><ele>54.714285714285715</ele><time>2026-04-26T09:07:20Z</time></trkpt><trkpt lat="38.145995057935515" lon="15.21270398281942"><ele>54.857142857142854</ele><time>2026-04-26T09:07:21Z</time></trkpt><trkpt lat="38.14602004217087" lon="15.212777978948774"><ele>55.0</ele><time>2026-04-26T09:07:22Z</time></trkpt><trkpt lat="38.146065650988355" lon="15.212912343295182"><ele>55.0</ele><time>2026-04-26T09:07:24Z</time></trkpt><trkpt lat="38.146117489004936" lon="15.21304447702057"><ele>55.0</ele><time>2026-04-26T09:07:26Z</time></trkpt><trkpt lat="38.14614261591937" lon="15.21312311673941"><ele>55.0</ele><time>2026-04-26T09:07:27Z</time></trkpt><trkpt lat="38.146192534724385" lon="15.213271609783598"><ele>55.0</ele><time>2026-04-26T09:07:29Z</time></trkpt><trkpt lat="38.14622818372339" lon="15.213347858919938"><ele>55.0</ele><time>2026-04-26T09:07:30Z</time></trkpt><trkpt lat="38.146257405996465" lon="15.213434827634694"><ele>55.0</ele><time>2026-04-26T09:07:31Z</time></trkpt><trkpt lat="38.146298884223825" lon="15.213508802429292"><ele>55.0</ele><time>2026-04-26T09:07:32Z</time></trkpt><trkpt lat="38.14633508880287" lon="15.213602762663841"><ele>55.0</ele><time>2026-04-26T09:07:33Z</time></trkpt><trkpt lat="38.14638290103943" lon="15.213703766884818"><ele>55.0</ele><time>2026-04-26T09:07:34Z</time></trkpt><trkpt lat="38.14643395205081" lon="15.213815726266947"><ele>55.0</ele><time>2026-04-26T09:07:35Z</time></trkpt><trkpt lat="38.146466328726525" lon="15.213958406403842"><ele>55.25</ele><time>2026-04-26T09:07:36Z</time></trkpt><trkpt lat="38.146518448355835" lon="15.214100011065343"><ele>55.5</ele><time>2026-04-26T09:07:37Z</time></trkpt><trkpt lat="38.146569965854944" lon="15.214249882789506"><ele>55.75</ele><time>2026-04-26T09:07:38Z</time></trkpt><trkpt lat="38.14662095980226" lon="15.214393752257058"><ele>56.0</ele><time>2026-04-26T09:07:39Z</time></trkpt><trkpt lat="38.14666636400055" lon="15.214534639346425"><ele>55.8</ele><time>2026-04-26T09:07:40Z</time></trkpt><trkpt lat="38.146713106928516" lon="15.214663672934135"><ele>55.599999999999994</ele><time>2026-04-26T09:07:41Z</time></trkpt><trkpt lat="38.146769363691355" lon="15.21479210431074"><ele>55.4</ele><time>2026-04-26T09:07:42Z</time></trkpt><trkpt lat="38.1468249937536" lon="15.214910081296328"><ele>55.2</ele><time>2026-04-26T09:07:43Z</time></trkpt><trkpt lat="38.14688218876176" lon="15.215031870525344"><ele>55.0</ele><time>2026-04-26T09:07:44Z</time></trkpt><trkpt lat="38.146949104772425" lon="15.215150691798044"><ele>55.0</ele><time>2026-04-26T09:07:45Z</time></trkpt><trkpt lat="38.146997497994654" lon="15.215249602751049"><ele>55.0</ele><time>2026-04-26T09:07:46Z</time></trkpt><trkpt lat="38.1470182904469" lon="15.215345934656154"><ele>55.0</ele><time>2026-04-26T09:07:47Z</time></trkpt><trkpt lat="38.14705322837942" lon="15.215440484121059"><ele>55.0</ele><time>2026-04-26T09:07:48Z</time></trkpt><trkpt lat="38.14708458986064" lon="15.215554872934705"><ele>55.0</ele><time>2026-04-26T09:07:49Z</time></trkpt><trkpt lat="38.147132539916534" lon="15.215670804264812"><ele>54.99999999999999</ele><time>2026-04-26T09:07:50Z</time></trkpt><trkpt lat="38.147170155604606" lon="15.215790945413733"><ele>55.0</ele><time>2026-04-26T09:07:51Z</time></trkpt><trkpt lat="38.14721657454674" lon="15.21590070910798"><ele>55.0</ele><time>2026-04-26T09:07:52Z</time></trkpt><trkpt lat="38.1472532143998" lon="15.216006344906319"><ele>55.0</ele><time>2026-04-26T09:07:53Z</time></trkpt><trkpt lat="38.147285031894256" lon="15.216089346491664"><ele>54.99999999999999</ele><time>2026-04-26T09:07:54Z</time></trkpt><trkpt lat="38.147313339233605" lon="15.216170616441097"><ele>55.0</ele><time>2026-04-26T09:07:55Z</time></trkpt><trkpt lat="38.14734208551881" lon="15.216242638419702"><ele>54.99999999999999</ele><time>2026-04-26T09:07:56Z</time></trkpt><trkpt lat="38.14736876364864" lon="15.2163158278552"><ele>55.0</ele><time>2026-04-26T09:07:57Z</time></trkpt><trkpt lat="38.14740413634452" lon="15.216391179782294"><ele>55.0</ele><time>2026-04-26T09:07:58Z</time></trkpt><trkpt lat="38.14743674316463" lon="15.216472441124266"><ele>55.0</ele><time>2026-04-26T09:07:59Z</time></trkpt><trkpt lat="38.14746690527152" lon="15.216559394254372"><ele>54.99999999999999</ele><time>2026-04-26T09:08:00Z</time></trkpt><trkpt lat="38.14750099306325" lon="15.216651440440515"><ele>55.0</ele><time>2026-04-26T09:08:01Z</time></trkpt><trkpt lat="38.14754693779765" lon="15.216757045880977"><ele>55.0</ele><time>2026-04-26T09:08:02Z</time></trkpt><trkpt lat="38.14759281772073" lon="15.216869597708381"><ele>55.0</ele><time>2026-04-26T09:08:03Z</time></trkpt><trkpt lat="38.147628153812924" lon="15.216959486840606"><ele>55.0</ele><time>2026-04-26T09:08:04Z</time></trkpt><trkpt lat="38.14767934962666" lon="15.217099539517287"><ele>55.0</ele><time>2026-04-26T09:08:06Z</time></trkpt><trkpt lat="38.14772082751184" lon="15.217221385055664"><ele>55.0</ele><time>2026-04-26T09:08:08Z</time></trkpt><trkpt lat="38.14778510220287" lon="15.217379788072838"><ele>54.25</ele><time>2026-04-26T09:08:10Z</time></trkpt><trkpt lat="38.14782603903745" lon="15.217493510629854"><ele>53.5</ele><time>2026-04-26T09:08:11Z</time></trkpt><trkpt lat="38.14786880736247" lon="15.217629299868031"><ele>52.75</ele><time>2026-04-26T09:08:12Z</time></trkpt><trkpt lat="38.14791582084821" lon="15.217782390204246"><ele>52.0</ele><time>2026-04-26T09:08:13Z</time></trkpt><trkpt lat="38.14798376328655" lon="15.217962092605532"><ele>52.0</ele><time>2026-04-26T09:08:14Z</time></trkpt><trkpt lat="38.14805784714952" lon="15.218146782849892"><ele>52.0</ele><time>2026-04-26T09:08:15Z</time></trkpt><trkpt lat="38.14812829265606" lon="15.218318503105795"><ele>52.0</ele><time>2026-04-26T09:08:16Z</time></trkpt><trkpt lat="38.1481888924529" lon="15.218479906658741"><ele>52.0</ele><time>2026-04-26T09:08:17Z</time></trkpt><trkpt lat="38.148242399910764" lon="15.218628712345781"><ele>52.0</ele><time>2026-04-26T09:08:18Z</time></trkpt><trkpt lat="38.14829499933009" lon="15.218764062094525"><ele>52.0</ele><time>2026-04-26T09:08:19Z</time></trkpt><trkpt lat="38.14834404107084" lon="15.218903197047755"><ele>52.0</ele><time>2026-04-26T09:08:20Z</time></trkpt><trkpt lat="38.148398384532086" lon="15.219037416597319"><ele>52.0</ele><time>2026-04-26T09:08:21Z</time></trkpt><trkpt lat="38.14845421093992" lon="15.219170560676138"><ele>52.0</ele><time>2026-04-26T09:08:22Z</time></trkpt><trkpt lat="38.148501747511844" lon="15.219293469016128"><ele>52.0</ele><time>2026-04-26T09:08:23Z</time></trkpt><trkpt lat="38.14854427282174" lon="15.219396738131431"><ele>52.0</ele><time>2026-04-26T09:08:24Z</time></trkpt><trkpt lat="38.14858590671977" lon="15.219497037089539"><ele>52.0</ele><time>2026-04-26T09:08:25Z</time></trkpt><trkpt lat="38.148628141472265" lon="15.219586050710626"><ele>51.99999999999999</ele><time>2026-04-26T09:08:26Z</time></trkpt><trkpt lat="38.148671840844564" lon="15.219663273380641"><ele>52.0</ele><time>2026-04-26T09:08:27Z</time></trkpt><trkpt lat="38.14869111487667" lon="15.219745688482494"><ele>52.0</ele><time>2026-04-26T09:08:28Z</time></trkpt><trkpt lat="38.14874871549558" lon="15.219891263930467"><ele>52.0</ele><time>2026-04-26T09:08:30Z</time></trkpt><trkpt lat="38.148780263324056" lon="15.219970785976072"><ele>51.99999999999999</ele><time>2026-04-26T09:08:31Z</time></trkpt><trkpt lat="38.14881891916173" lon="15.220065453869893"><ele>52.0</ele><time>2026-04-26T09:08:32Z</time></trkpt><trkpt lat="38.14885655678346" lon="15.220160329733403"><ele>51.99999999999999</ele><time>2026-04-26T09:08:33Z</time></trkpt><trkpt lat="38.14889219537747" lon="15.220260951162471"><ele>52.0</ele><time>2026-04-26T09:08:34Z</time></trkpt><trkpt lat="38.148938493943184" lon="15.22036656747097"><ele>52.0</ele><time>2026-04-26T09:08:35Z</time></trkpt><trkpt lat="38.148978997331525" lon="15.220468140523998"><ele>52.0</ele><time>2026-04-26T09:08:36Z</time></trkpt><trkpt lat="38.149010306855295" lon="15.220551908893189"><ele>51.99999999999999</ele><time>2026-04-26T09:08:37Z</time></trkpt><trkpt lat="38.14905361508156" lon="15.220644124629988"><ele>52.0</ele><time>2026-04-26T09:08:38Z</time></trkpt><trkpt lat="38.14908717395636" lon="15.220739966442945"><ele>51.666666666666664</ele><time>2026-04-26T09:08:39Z</time></trkpt><trkpt lat="38.14911867821915" lon="15.220829712311753"><ele>51.33333333333333</ele><time>2026-04-26T09:08:40Z</time></trkpt><trkpt lat="38.14916517689858" lon="15.220917817758254"><ele>51.0</ele><time>2026-04-26T09:08:41Z</time></trkpt><trkpt lat="38.149208968012694" lon="15.2210238987819"><ele>50.66666666666667</ele><time>2026-04-26T09:08:42Z</time></trkpt><trkpt lat="38.149232582224926" lon="15.221110786757901"><ele>50.333333333333336</ele><time>2026-04-26T09:08:43Z</time></trkpt><trkpt lat="38.14926409814708" lon="15.221193194216571"><ele>50.0</ele><time>2026-04-26T09:08:44Z</time></trkpt><trkpt lat="38.149314882891154" lon="15.221298395557552"><ele>50.0</ele><time>2026-04-26T09:08:45Z</time></trkpt><trkpt lat="38.14937751870078" lon="15.22143316692804"><ele>50.0</ele><time>2026-04-26T09:08:46Z</time></trkpt><trkpt lat="38.149431558700826" lon="15.221587463522027"><ele>50.0</ele><time>2026-04-26T09:08:47Z</time></trkpt><trkpt lat="38.14948836784291" lon="15.221761632914351"><ele>50.0</ele><time>2026-04-26T09:08:48Z</time></trkpt><trkpt lat="38.14955510140855" lon="15.221929758933127"><ele>50.25</ele><time>2026-04-26T09:08:49Z</time></trkpt><trkpt lat="38.149613088825134" lon="15.222076124070309"><ele>50.5</ele><time>2026-04-26T09:08:50Z</time></trkpt><trkpt lat="38.14966940615095" lon="15.222225631036942"><ele>50.75</ele><time>2026-04-26T09:08:51Z</time></trkpt><trkpt lat="38.14972245350236" lon="15.22238027723102"><ele>51.0</ele><time>2026-04-26T09:08:52Z</time></trkpt><trkpt lat="38.14978108183337" lon="15.222536338902334"><ele>51.0</ele><time>2026-04-26T09:08:53Z</time></trkpt><trkpt lat="38.14983744668409" lon="15.222679713919888"><ele>51.0</ele><time>2026-04-26T09:08:54Z</time></trkpt><trkpt lat="38.14989272857511" lon="15.22282782321291"><ele>51.0</ele><time>2026-04-26T09:08:55Z</time></trkpt><trkpt lat="38.14994540504778" lon="15.222977519269941"><ele>51.0</ele><time>2026-04-26T09:08:56Z</time></trkpt><trkpt lat="38.14999606326893" lon="15.223114316327854"><ele>51.75</ele><time>2026-04-26T09:08:57Z</time></trkpt><trkpt lat="38.15005155866205" lon="15.223254168753414"><ele>52.5</ele><time>2026-04-26T09:08:58Z</time></trkpt><trkpt lat="38.15010726542266" lon="15.223411982240862"><ele>53.25</ele><time>2026-04-26T09:08:59Z</time></trkpt><trkpt lat="38.15015301877925" lon="15.223559263241706"><ele>54.0</ele><time>2026-04-26T09:09:00Z</time></trkpt><trkpt lat="38.15022366447141" lon="15.223700289874282"><ele>54.0</ele><time>2026-04-26T09:09:01Z</time></trkpt><trkpt lat="38.15030158548485" lon="15.223866691226922"><ele>54.0</ele><time>2026-04-26T09:09:02Z</time></trkpt><trkpt lat="38.15037509495409" lon="15.224050518874158"><ele>54.0</ele><time>2026-04-26T09:09:03Z</time></trkpt><trkpt lat="38.150453796856155" lon="15.22424847232454"><ele>53.66666666666667</ele><time>2026-04-26T09:09:04Z</time></trkpt><trkpt lat="38.15052005889293" lon="15.224471831299722"><ele>53.333333333333336</ele><time>2026-04-26T09:09:05Z</time></trkpt><trkpt lat="38.15058769930747" lon="15.224654710450537"><ele>53.0</ele><time>2026-04-26T09:09:06Z</time></trkpt><trkpt lat="38.15064634230418" lon="15.224795863815606"><ele>53.16666666666667</ele><time>2026-04-26T09:09:07Z</time></trkpt><trkpt lat="38.150695835960406" lon="15.224904658519112"><ele>53.333333333333336</ele><time>2026-04-26T09:09:08Z</time></trkpt><trkpt lat="38.150737114931964" lon="15.224985984908866"><ele>53.5</ele><time>2026-04-26T09:09:09Z</time></trkpt><trkpt lat="38.15074662193588" lon="15.225073929510035"><ele>53.66666666666667</ele><time>2026-04-26T09:09:10Z</time></trkpt><trkpt lat="38.15077739762523" lon="15.225146293308592"><ele>53.833333333333336</ele><time>2026-04-26T09:09:11Z</time></trkpt><trkpt lat="38.15084285685608" lon="15.225265396219097"><ele>54.0</ele><time>2026-04-26T09:09:13Z</time></trkpt><trkpt lat="38.15089458550695" lon="15.225416543016456"><ele>54.0</ele><time>2026-04-26T09:09:15Z</time></trkpt><trkpt lat="38.15093067002302" lon="15.225541576644337"><ele>54.00000000000001</ele><time>2026-04-26T09:09:17Z</time></trkpt><trkpt lat="38.15095966294083" lon="15.225621314098019"><ele>54.00000000000001</ele><time>2026-04-26T09:09:18Z</time></trkpt><trkpt lat="38.15101200182598" lon="15.225720677105812"><ele>54.0</ele><time>2026-04-26T09:09:19Z</time></trkpt><trkpt lat="38.15106713903087" lon="15.225850473625453"><ele>54.0</ele><time>2026-04-26T09:09:20Z</time></trkpt><trkpt lat="38.15111691111019" lon="15.225984593893124"><ele>54.6</ele><time>2026-04-26T09:09:21Z</time></trkpt><trkpt lat="38.151171632670625" lon="15.226122166856937"><ele>55.2</ele><time>2026-04-26T09:09:22Z</time></trkpt><trkpt lat="38.151217111723746" lon="15.226241119710693"><ele>55.800000000000004</ele><time>2026-04-26T09:09:23Z</time></trkpt><trkpt lat="38.15125725925606" lon="15.226343822406303"><ele>56.400000000000006</ele><time>2026-04-26T09:09:24Z</time></trkpt><trkpt lat="38.151300625386284" lon="15.226444775878523"><ele>57.0</ele><time>2026-04-26T09:09:25Z</time></trkpt><trkpt lat="38.1513443455466" lon="15.226550229476938"><ele>57.0</ele><time>2026-04-26T09:09:26Z</time></trkpt><trkpt lat="38.15139579211747" lon="15.226673326875535"><ele>57.0</ele><time>2026-04-26T09:09:27Z</time></trkpt><trkpt lat="38.151449079996944" lon="15.226803157540964"><ele>57.0</ele><time>2026-04-26T09:09:28Z</time></trkpt><trkpt lat="38.15150880051333" lon="15.226955706804624"><ele>57.0</ele><time>2026-04-26T09:09:29Z</time></trkpt><trkpt lat="38.15156129241351" lon="15.22714380010674"><ele>57.75</ele><time>2026-04-26T09:09:30Z</time></trkpt><trkpt lat="38.151629932642166" lon="15.227326179425818"><ele>58.5</ele><time>2026-04-26T09:09:31Z</time></trkpt><trkpt lat="38.151692919191035" lon="15.22749450464724"><ele>59.25</ele><time>2026-04-26T09:09:32Z</time></trkpt><trkpt lat="38.15175177940618" lon="15.227629535354877"><ele>60.0</ele><time>2026-04-26T09:09:33Z</time></trkpt><trkpt lat="38.151807593313464" lon="15.227760525372725"><ele>60.0</ele><time>2026-04-26T09:09:34Z</time></trkpt><trkpt lat="38.15186984377099" lon="15.22791012723683"><ele>60.0</ele><time>2026-04-26T09:09:35Z</time></trkpt><trkpt lat="38.15193060293927" lon="15.228074826849216"><ele>60.0</ele><time>2026-04-26T09:09:36Z</time></trkpt><trkpt lat="38.15200618558763" lon="15.228266059749593"><ele>60.0</ele><time>2026-04-26T09:09:37Z</time></trkpt><trkpt lat="38.152066953594364" lon="15.228436649430323"><ele>60.5</ele><time>2026-04-26T09:09:38Z</time></trkpt><trkpt lat="38.15212901368644" lon="15.228588940799938"><ele>61.0</ele><time>2026-04-26T09:09:39Z</time></trkpt><trkpt lat="38.152185861309185" lon="15.228738686093854"><ele>61.5</ele><time>2026-04-26T09:09:40Z</time></trkpt><trkpt lat="38.152240753811476" lon="15.228875355459815"><ele>62.0</ele><time>2026-04-26T09:09:41Z</time></trkpt><trkpt lat="38.15229933910352" lon="15.229010446540588"><ele>62.0</ele><time>2026-04-26T09:09:42Z</time></trkpt><trkpt lat="38.1523471654441" lon="15.229145806888324"><ele>62.0</ele><time>2026-04-26T09:09:43Z</time></trkpt><trkpt lat="38.15239705956" lon="15.22927396135358"><ele>62.0</ele><time>2026-04-26T09:09:44Z</time></trkpt><trkpt lat="38.152443581603364" lon="15.229399211715604"><ele>62.0</ele><time>2026-04-26T09:09:45Z</time></trkpt><trkpt lat="38.15249154736244" lon="15.229522214019003"><ele>62.0</ele><time>2026-04-26T09:09:46Z</time></trkpt><trkpt lat="38.15253549590006" lon="15.229639790180228"><ele>62.0</ele><time>2026-04-26T09:09:47Z</time></trkpt><trkpt lat="38.152575652747295" lon="15.229756067872938"><ele>62.0</ele><time>2026-04-26T09:09:48Z</time></trkpt><trkpt lat="38.15260409759697" lon="15.229883181920775"><ele>62.0</ele><time>2026-04-26T09:09:49Z</time></trkpt><trkpt lat="38.152647941254244" lon="15.230001075752948"><ele>62.0</ele><time>2026-04-26T09:09:50Z</time></trkpt><trkpt lat="38.15269270339426" lon="15.230111638909898"><ele>62.0</ele><time>2026-04-26T09:09:51Z</time></trkpt><trkpt lat="38.152764214566204" lon="15.230209746866604"><ele>62.0</ele><time>2026-04-26T09:09:52Z</time></trkpt><trkpt lat="38.15282231353798" lon="15.230308231926726"><ele>62.0</ele><time>2026-04-26T09:09:53Z</time></trkpt><trkpt lat="38.15287589082849" lon="15.230408812811582"><ele>62.0</ele><time>2026-04-26T09:09:54Z</time></trkpt><trkpt lat="38.15293795668058" lon="15.23049769920415"><ele>62.0</ele><time>2026-04-26T09:09:55Z</time></trkpt><trkpt lat="38.153000562098896" lon="15.230589045962223"><ele>62.0</ele><time>2026-04-26T09:09:56Z</time></trkpt><trkpt lat="38.15307477890924" lon="15.230690604071135"><ele>62.0</ele><time>2026-04-26T09:09:57Z</time></trkpt><trkpt lat="38.15315731930945" lon="15.230797951278674"><ele>62.0</ele><time>2026-04-26T09:09:58Z</time></trkpt><trkpt lat="38.15324523962029" lon="15.230913250841539"><ele>62.0</ele><time>2026-04-26T09:09:59Z</time></trkpt><trkpt lat="38.15333768392609" lon="15.231030653391231"><ele>62.0</ele><time>2026-04-26T09:10:00Z</time></trkpt><trkpt lat="38.15342750077404" lon="15.23113370747472"><ele>61.8</ele><time>2026-04-26T09:10:01Z</time></trkpt><trkpt lat="38.15351545860637" lon="15.231228115194652"><ele>61.6</ele><time>2026-04-26T09:10:02Z</time></trkpt><trkpt lat="38.15359681456808" lon="15.231333837788046"><ele>61.39999999999999</ele><time>2026-04-26T09:10:03Z</time></trkpt><trkpt lat="38.15367309633093" lon="15.231432944540202"><ele>61.199999999999996</ele><time>2026-04-26T09:10:04Z</time></trkpt><trkpt lat="38.15373528469985" lon="15.231521846034857"><ele>61.0</ele><time>2026-04-26T09:10:05Z</time></trkpt><trkpt lat="38.15378071688568" lon="15.23161008237628"><ele>60.599999999999994</ele><time>2026-04-26T09:10:06Z</time></trkpt><trkpt lat="38.15382928943649" lon="15.231692977791383"><ele>60.199999999999996</ele><time>2026-04-26T09:10:07Z</time></trkpt><trkpt lat="38.15388561702095" lon="15.231768796700807"><ele>59.800000000000004</ele><time>2026-04-26T09:10:08Z</time></trkpt><trkpt lat="38.153967445047414" lon="15.231852455151202"><ele>59.400000000000006</ele><time>2026-04-26T09:10:09Z</time></trkpt><trkpt lat="38.15403708981265" lon="15.23198992041648"><ele>59.0</ele><time>2026-04-26T09:10:10Z</time></trkpt><trkpt lat="38.1541212913119" lon="15.232167114334636"><ele>57.66666666666667</ele><time>2026-04-26T09:10:11Z</time></trkpt><trkpt lat="38.154209359671185" lon="15.232359879969687"><ele>56.33333333333333</ele><time>2026-04-26T09:10:12Z</time></trkpt><trkpt lat="38.15427931329871" lon="15.232516591342135"><ele>55.0</ele><time>2026-04-26T09:10:13Z</time></trkpt><trkpt lat="38.154346884415034" lon="15.232680023136767"><ele>55.0</ele><time>2026-04-26T09:10:14Z</time></trkpt><trkpt lat="38.15443153315529" lon="15.23285223888528"><ele>55.0</ele><time>2026-04-26T09:10:15Z</time></trkpt><trkpt lat="38.15452247323278" lon="15.233027058442477"><ele>55.0</ele><time>2026-04-26T09:10:16Z</time></trkpt><trkpt lat="38.15463290740874" lon="15.233192498653713"><ele>54.666666666666664</ele><time>2026-04-26T09:10:17Z</time></trkpt><trkpt lat="38.15477019802116" lon="15.233343260775833"><ele>54.33333333333333</ele><time>2026-04-26T09:10:18Z</time></trkpt><trkpt lat="38.15492296769081" lon="15.233496830338957"><ele>54.0</ele><time>2026-04-26T09:10:19Z</time></trkpt><trkpt lat="38.155049511687544" lon="15.233657223670685"><ele>53.66666666666667</ele><time>2026-04-26T09:10:20Z</time></trkpt><trkpt lat="38.15516203867955" lon="15.233808648958753"><ele>53.333333333333336</ele><time>2026-04-26T09:10:21Z</time></trkpt><trkpt lat="38.155274856983624" lon="15.2339688162153"><ele>53.0</ele><time>2026-04-26T09:10:22Z</time></trkpt><trkpt lat="38.15539051624984" lon="15.234132348794816"><ele>52.66666666666667</ele><time>2026-04-26T09:10:23Z</time></trkpt><trkpt lat="38.155501624692775" lon="15.234315514581787"><ele>52.33333333333333</ele><time>2026-04-26T09:10:24Z</time></trkpt><trkpt lat="38.15560398012793" lon="15.234531963467237"><ele>52.0</ele><time>2026-04-26T09:10:25Z</time></trkpt><trkpt lat="38.15569722347279" lon="15.234748721228344"><ele>51.33333333333333</ele><time>2026-04-26T09:10:26Z</time></trkpt><trkpt lat="38.15578734200449" lon="15.234947569263648"><ele>50.66666666666667</ele><time>2026-04-26T09:10:27Z</time></trkpt><trkpt lat="38.155875600468185" lon="15.23513790860486"><ele>50.0</ele><time>2026-04-26T09:10:28Z</time></trkpt><trkpt lat="38.155960571957145" lon="15.235312534347546"><ele>50.0</ele><time>2026-04-26T09:10:29Z</time></trkpt><trkpt lat="38.156035845490344" lon="15.23549242637934"><ele>50.0</ele><time>2026-04-26T09:10:30Z</time></trkpt><trkpt lat="38.156121440323496" lon="15.23567822158867"><ele>50.0</ele><time>2026-04-26T09:10:31Z</time></trkpt><trkpt lat="38.15621171388269" lon="15.235869006249851"><ele>50.0</ele><time>2026-04-26T09:10:32Z</time></trkpt><trkpt lat="38.15629749362466" lon="15.236065531748174"><ele>50.0</ele><time>2026-04-26T09:10:33Z</time></trkpt><trkpt lat="38.15638887360784" lon="15.236251545824004"><ele>50.0</ele><time>2026-04-26T09:10:34Z</time></trkpt><trkpt lat="38.1564732714904" lon="15.236417082241475"><ele>49.75</ele><time>2026-04-26T09:10:35Z</time></trkpt><trkpt lat="38.1565450353791" lon="15.236581196825666"><ele>49.5</ele><time>2026-04-26T09:10:36Z</time></trkpt><trkpt lat="38.15659947763659" lon="15.236718972872414"><ele>49.25</ele><time>2026-04-26T09:10:37Z</time></trkpt><trkpt lat="38.156658202004145" lon="15.236834749046524"><ele>49.0</ele><time>2026-04-26T09:10:38Z</time></trkpt><trkpt lat="38.156708172539254" lon="15.23693593175462"><ele>49.0</ele><time>2026-04-26T09:10:39Z</time></trkpt><trkpt lat="38.15674950879654" lon="15.237036753873515"><ele>49.0</ele><time>2026-04-26T09:10:40Z</time></trkpt><trkpt lat="38.15679060887558" lon="15.237138869327227"><ele>49.0</ele><time>2026-04-26T09:10:41Z</time></trkpt><trkpt lat="38.15684601318869" lon="15.237244478872492"><ele>49.0</ele><time>2026-04-26T09:10:42Z</time></trkpt><trkpt lat="38.15691998457525" lon="15.237366702493748"><ele>49.0</ele><time>2026-04-26T09:10:43Z</time></trkpt><trkpt lat="38.15700385993279" lon="15.237508496028754"><ele>49.666666666666664</ele><time>2026-04-26T09:10:44Z</time></trkpt><trkpt lat="38.15709850035156" lon="15.237660855821341"><ele>50.33333333333333</ele><time>2026-04-26T09:10:45Z</time></trkpt><trkpt lat="38.15719995334266" lon="15.237821179270123"><ele>51.0</ele><time>2026-04-26T09:10:46Z</time></trkpt><trkpt lat="38.15730985346762" lon="15.237989909214786"><ele>50.0</ele><time>2026-04-26T09:10:47Z</time></trkpt><trkpt lat="38.1574232333818" lon="15.23817911875827"><ele>49.0</ele><time>2026-04-26T09:10:48Z</time></trkpt><trkpt lat="38.15754124071744" lon="15.238367836998783"><ele>48.0</ele><time>2026-04-26T09:10:49Z</time></trkpt><trkpt lat="38.15765644923434" lon="15.238537437638287"><ele>48.0</ele><time>2026-04-26T09:10:50Z</time></trkpt><trkpt lat="38.15776962070176" lon="15.238714092170847"><ele>48.0</ele><time>2026-04-26T09:10:51Z</time></trkpt><trkpt lat="38.15788630487249" lon="15.238875977093262"><ele>48.0</ele><time>2026-04-26T09:10:52Z</time></trkpt><trkpt lat="38.15800357626217" lon="15.239029326269785"><ele>48.0</ele><time>2026-04-26T09:10:53Z</time></trkpt><trkpt lat="38.15811769906349" lon="15.239180119111895"><ele>48.0</ele><time>2026-04-26T09:10:54Z</time></trkpt><trkpt lat="38.15823983780569" lon="15.239331561502805"><ele>48.0</ele><time>2026-04-26T09:10:55Z</time></trkpt><trkpt lat="38.15835597930221" lon="15.239483798008425"><ele>48.0</ele><time>2026-04-26T09:10:56Z</time></trkpt><trkpt lat="38.15846946597821" lon="15.239643336689296"><ele>48.0</ele><time>2026-04-26T09:10:57Z</time></trkpt><trkpt lat="38.15858051733222" lon="15.2397961527155"><ele>48.0</ele><time>2026-04-26T09:10:58Z</time></trkpt><trkpt lat="38.158685547024945" lon="15.239950326230037"><ele>48.25</ele><time>2026-04-26T09:10:59Z</time></trkpt><trkpt lat="38.1587848082322" lon="15.240099992637242"><ele>48.5</ele><time>2026-04-26T09:11:00Z</time></trkpt><trkpt lat="38.15887101819737" lon="15.240248887400888"><ele>48.75</ele><time>2026-04-26T09:11:01Z</time></trkpt><trkpt lat="38.15895110522636" lon="15.240389517318308"><ele>49.0</ele><time>2026-04-26T09:11:02Z</time></trkpt><trkpt lat="38.15902547174975" lon="15.24051794363038"><ele>49.25</ele><time>2026-04-26T09:11:03Z</time></trkpt><trkpt lat="38.159090160792445" lon="15.24064016822596"><ele>49.5</ele><time>2026-04-26T09:11:04Z</time></trkpt><trkpt lat="38.15914922810338" lon="15.24076838740473"><ele>49.75</ele><time>2026-04-26T09:11:05Z</time></trkpt><trkpt lat="38.15920613887556" lon="15.240902541648435"><ele>50.0</ele><time>2026-04-26T09:11:06Z</time></trkpt><trkpt lat="38.15925802789206" lon="15.241037558142144"><ele>50.0</ele><time>2026-04-26T09:11:07Z</time></trkpt><trkpt lat="38.15930497757143" lon="15.241172764333493"><ele>50.0</ele><time>2026-04-26T09:11:08Z</time></trkpt><trkpt lat="38.15935307593934" lon="15.241296515550287"><ele>50.0</ele><time>2026-04-26T09:11:09Z</time></trkpt><trkpt lat="38.15939989061794" lon="15.241418920801014"><ele>50.0</ele><time>2026-04-26T09:11:10Z</time></trkpt><trkpt lat="38.1594405653442" lon="15.241526790253182"><ele>50.0</ele><time>2026-04-26T09:11:11Z</time></trkpt><trkpt lat="38.15948627403543" lon="15.24162531525455"><ele>50.6</ele><time>2026-04-26T09:11:12Z</time></trkpt><trkpt lat="38.15952477953814" lon="15.241696404526142"><ele>51.2</ele><time>2026-04-26T09:11:13Z</time></trkpt><trkpt lat="38.15956352839928" lon="15.241762303045531"><ele>51.8</ele><time>2026-04-26T09:11:16Z</time></trkpt><trkpt lat="38.15964810551874" lon="15.241887884012137"><ele>52.4</ele><time>2026-04-26T09:11:23Z</time></trkpt><trkpt lat="38.1597084371701" lon="15.241992199944315"><ele>53.0</ele><time>2026-04-26T09:11:24Z</time></trkpt><trkpt lat="38.15978083910345" lon="15.242113906114774"><ele>53.0</ele><time>2026-04-26T09:11:25Z</time></trkpt><trkpt lat="38.15985913718934" lon="15.242263723560342"><ele>53.0</ele><time>2026-04-26T09:11:26Z</time></trkpt><trkpt lat="38.159959585191345" lon="15.242406250238432"><ele>53.0</ele><time>2026-04-26T09:11:27Z</time></trkpt><trkpt lat="38.160068266970605" lon="15.242531476821238"><ele>53.0</ele><time>2026-04-26T09:11:28Z</time></trkpt><trkpt lat="38.16019555638782" lon="15.242666992200448"><ele>52.333333333333336</ele><time>2026-04-26T09:11:29Z</time></trkpt><trkpt lat="38.160354335284495" lon="15.242805782554713"><ele>51.66666666666667</ele><time>2026-04-26T09:11:30Z</time></trkpt><trkpt lat="38.16056374614447" lon="15.242953883550474"><ele>51.0</ele><time>2026-04-26T09:11:31Z</time></trkpt><trkpt lat="38.16074767607955" lon="15.243104176163353"><ele>50.0</ele><time>2026-04-26T09:11:32Z</time></trkpt><trkpt lat="38.16090494839818" lon="15.24324155025358"><ele>49.0</ele><time>2026-04-26T09:11:33Z</time></trkpt><trkpt lat="38.161051910235656" lon="15.243372490964028"><ele>48.0</ele><time>2026-04-26T09:11:34Z</time></trkpt><trkpt lat="38.161188334384406" lon="15.243499610712592"><ele>48.0</ele><time>2026-04-26T09:11:35Z</time></trkpt><trkpt lat="38.1613045942252" lon="15.243626721826042"><ele>48.0</ele><time>2026-04-26T09:11:36Z</time></trkpt><trkpt lat="38.1614124241467" lon="15.24373841996128"><ele>48.0</ele><time>2026-04-26T09:11:37Z</time></trkpt><trkpt lat="38.161523284158115" lon="15.243853406634317"><ele>48.0</ele><time>2026-04-26T09:11:38Z</time></trkpt><trkpt lat="38.16163021484372" lon="15.243973616522009"><ele>48.33333333333333</ele><time>2026-04-26T09:11:39Z</time></trkpt><trkpt lat="38.16175309212955" lon="15.24411197267594"><ele>48.666666666666664</ele><time>2026-04-26T09:11:40Z</time></trkpt><trkpt lat="38.16189376301265" lon="15.244247837550517"><ele>49.0</ele><time>2026-04-26T09:11:41Z</time></trkpt><trkpt lat="38.16204654414338" lon="15.244404519473434"><ele>49.0</ele><time>2026-04-26T09:11:42Z</time></trkpt><trkpt lat="38.1621857505022" lon="15.244562003039617"><ele>49.0</ele><time>2026-04-26T09:11:43Z</time></trkpt><trkpt lat="38.16230413821912" lon="15.24470167928445"><ele>49.0</ele><time>2026-04-26T09:11:44Z</time></trkpt><trkpt lat="38.16242145063622" lon="15.244828676342648"><ele>50.666666666666664</ele><time>2026-04-26T09:11:45Z</time></trkpt><trkpt lat="38.16254278757723" lon="15.244962185668186"><ele>52.33333333333333</ele><time>2026-04-26T09:11:46Z</time></trkpt><trkpt lat="38.16266128602979" lon="15.245111549214318"><ele>54.0</ele><time>2026-04-26T09:11:47Z</time></trkpt><trkpt lat="38.16277788152658" lon="15.245268518680051"><ele>54.0</ele><time>2026-04-26T09:11:48Z</time></trkpt><trkpt lat="38.16289665303553" lon="15.24543535013151"><ele>54.0</ele><time>2026-04-26T09:11:49Z</time></trkpt><trkpt lat="38.16300776290614" lon="15.245606870588432"><ele>54.0</ele><time>2026-04-26T09:11:50Z</time></trkpt><trkpt lat="38.16309577258099" lon="15.245770230962169"><ele>54.25</ele><time>2026-04-26T09:11:51Z</time></trkpt><trkpt lat="38.163183639088636" lon="15.245913053992966"><ele>54.5</ele><time>2026-04-26T09:11:52Z</time></trkpt><trkpt lat="38.16327307212989" lon="15.246037756265677"><ele>54.75</ele><time>2026-04-26T09:11:53Z</time></trkpt><trkpt lat="38.16335499463629" lon="15.246145102050223"><ele>55.0</ele><time>2026-04-26T09:11:54Z</time></trkpt><trkpt lat="38.16341473316601" lon="15.24625523915765"><ele>55.166666666666664</ele><time>2026-04-26T09:11:55Z</time></trkpt><trkpt lat="38.16347895467782" lon="15.246350776676584"><ele>55.33333333333333</ele><time>2026-04-26T09:11:56Z</time></trkpt><trkpt lat="38.16353802485746" lon="15.246453232646978"><ele>55.5</ele><time>2026-04-26T09:11:57Z</time></trkpt><trkpt lat="38.163596713026415" lon="15.246544294823279"><ele>55.66666666666667</ele><time>2026-04-26T09:11:58Z</time></trkpt><trkpt lat="38.163647108996905" lon="15.246627709618"><ele>55.833333333333336</ele><time>2026-04-26T09:11:59Z</time></trkpt><trkpt lat="38.16369364281046" lon="15.246697174460271"><ele>56.0</ele><time>2026-04-26T09:12:00Z</time></trkpt><trkpt lat="38.16376057898054" lon="15.246766331210596"><ele>56.0</ele><time>2026-04-26T09:12:01Z</time></trkpt><trkpt lat="38.163819304901" lon="15.246865966860721"><ele>55.99999999999999</ele><time>2026-04-26T09:12:02Z</time></trkpt><trkpt lat="38.16388450990762" lon="15.24695533263252"><ele>55.99999999999999</ele><time>2026-04-26T09:12:03Z</time></trkpt><trkpt lat="38.16394595712058" lon="15.247045278028818"><ele>56.0</ele><time>2026-04-26T09:12:04Z</time></trkpt><trkpt lat="38.16401207086531" lon="15.24713853071533"><ele>56.0</ele><time>2026-04-26T09:12:05Z</time></trkpt><trkpt lat="38.16408784612475" lon="15.247226532977294"><ele>56.5</ele><time>2026-04-26T09:12:06Z</time></trkpt><trkpt lat="38.16416313258802" lon="15.247321044774212"><ele>57.0</ele><time>2026-04-26T09:12:07Z</time></trkpt><trkpt lat="38.164258977060214" lon="15.247418142390156"><ele>57.5</ele><time>2026-04-26T09:12:08Z</time></trkpt><trkpt lat="38.16437623705613" lon="15.247561586736257"><ele>58.0</ele><time>2026-04-26T09:12:09Z</time></trkpt><trkpt lat="38.1645346328015" lon="15.247729529497482"><ele>58.0</ele><time>2026-04-26T09:12:10Z</time></trkpt><trkpt lat="38.16465991216545" lon="15.247890557229216"><ele>58.0</ele><time>2026-04-26T09:12:11Z</time></trkpt><trkpt lat="38.16476250754453" lon="15.248013891274306"><ele>58.0</ele><time>2026-04-26T09:12:12Z</time></trkpt><trkpt lat="38.164851790064866" lon="15.248113722216871"><ele>58.0</ele><time>2026-04-26T09:12:13Z</time></trkpt><trkpt lat="38.16492615188288" lon="15.248200844924671"><ele>58.33333333333333</ele><time>2026-04-26T09:12:14Z</time></trkpt><trkpt lat="38.164988236266886" lon="15.248280959534727"><ele>58.666666666666664</ele><time>2026-04-26T09:12:15Z</time></trkpt><trkpt lat="38.165050998554726" lon="15.248356624355294"><ele>59.0</ele><time>2026-04-26T09:12:16Z</time></trkpt><trkpt lat="38.16511101744356" lon="15.248435799876015"><ele>59.33333333333333</ele><time>2026-04-26T09:12:17Z</time></trkpt><trkpt lat="38.16517253365982" lon="15.248513756813738"><ele>59.666666666666664</ele><time>2026-04-26T09:12:18Z</time></trkpt><trkpt lat="38.16523279622433" lon="15.248599079946038"><ele>60.0</ele><time>2026-04-26T09:12:19Z</time></trkpt><trkpt lat="38.16530535802413" lon="15.248694956799545"><ele>60.0</ele><time>2026-04-26T09:12:20Z</time></trkpt><trkpt lat="38.165387953672756" lon="15.248780857538975"><ele>60.0</ele><time>2026-04-26T09:12:21Z</time></trkpt><trkpt lat="38.16546846438308" lon="15.248879299371083"><ele>60.0</ele><time>2026-04-26T09:12:22Z</time></trkpt><trkpt lat="38.16554630994807" lon="15.248973840027979"><ele>60.0</ele><time>2026-04-26T09:12:23Z</time></trkpt><trkpt lat="38.165631260248574" lon="15.249082672576836"><ele>60.0</ele><time>2026-04-26T09:12:24Z</time></trkpt><trkpt lat="38.165711696816324" lon="15.249200831195436"><ele>60.5</ele><time>2026-04-26T09:12:25Z</time></trkpt><trkpt lat="38.16577727406471" lon="15.249341264100504"><ele>61.0</ele><time>2026-04-26T09:12:26Z</time></trkpt><trkpt lat="38.16584241759271" lon="15.249462680177215"><ele>61.5</ele><time>2026-04-26T09:12:27Z</time></trkpt><trkpt lat="38.16591709609109" lon="15.249578689961503"><ele>62.0</ele><time>2026-04-26T09:12:28Z</time></trkpt><trkpt lat="38.16600004380103" lon="15.249675907750161"><ele>62.00000000000001</ele><time>2026-04-26T09:12:29Z</time></trkpt><trkpt lat="38.16606023271519" lon="15.249755721853179"><ele>62.0</ele><time>2026-04-26T09:12:30Z</time></trkpt><trkpt lat="38.16611859554434" lon="15.24982339667788"><ele>62.0</ele><time>2026-04-26T09:12:31Z</time></trkpt><trkpt lat="38.1661715825787" lon="15.249880480254427"><ele>62.0</ele><time>2026-04-26T09:12:32Z</time></trkpt><trkpt lat="38.166247016902126" lon="15.249987480223588"><ele>62.00000000000001</ele><time>2026-04-26T09:12:34Z</time></trkpt><trkpt lat="38.16629153735211" lon="15.250045458042731"><ele>62.0</ele><time>2026-04-26T09:12:35Z</time></trkpt><trkpt lat="38.16635271564161" lon="15.250121914230949"><ele>62.2</ele><time>2026-04-26T09:12:36Z</time></trkpt><trkpt lat="38.16642936175021" lon="15.25021352002774"><ele>62.400000000000006</ele><time>2026-04-26T09:12:37Z</time></trkpt><trkpt lat="38.16651747503627" lon="15.250255554441676"><ele>62.599999999999994</ele><time>2026-04-26T09:12:38Z</time></trkpt><trkpt lat="38.16659924527678" lon="15.25031991652394"><ele>62.8</ele><time>2026-04-26T09:12:39Z</time></trkpt><trkpt lat="38.166681493708744" lon="15.250400725468863"><ele>63.0</ele><time>2026-04-26T09:12:40Z</time></trkpt><trkpt lat="38.166777658690094" lon="15.250505176254023"><ele>64.0</ele><time>2026-04-26T09:12:41Z</time></trkpt><trkpt lat="38.166878881587664" lon="15.25063849086063"><ele>65.0</ele><time>2026-04-26T09:12:42Z</time></trkpt><trkpt lat="38.1670042830427" lon="15.250798882979906"><ele>66.0</ele><time>2026-04-26T09:12:43Z</time></trkpt><trkpt lat="38.16716674914169" lon="15.250969410798303"><ele>66.0</ele><time>2026-04-26T09:12:44Z</time></trkpt><trkpt lat="38.167323028193316" lon="15.251118782746357"><ele>66.0</ele><time>2026-04-26T09:12:45Z</time></trkpt><trkpt lat="38.16747040967795" lon="15.251244831017146"><ele>66.0</ele><time>2026-04-26T09:12:46Z</time></trkpt><trkpt lat="38.16760119994448" lon="15.251368890804198"><ele>66.33333333333333</ele><time>2026-04-26T09:12:47Z</time></trkpt><trkpt lat="38.16772901630224" lon="15.251501195049665"><ele>66.66666666666666</ele><time>2026-04-26T09:12:48Z</time></trkpt><trkpt lat="38.16785543240946" lon="15.251628867867606"><ele>67.0</ele><time>2026-04-26T09:12:49Z</time></trkpt><trkpt lat="38.16797981365664" lon="15.251757097391634"><ele>67.0</ele><time>2026-04-26T09:12:50Z</time></trkpt><trkpt lat="38.16810103758345" lon="15.251867972181708"><ele>67.0</ele><time>2026-04-26T09:12:51Z</time></trkpt><trkpt lat="38.16822864039294" lon="15.251978645947904"><ele>67.0</ele><time>2026-04-26T09:12:52Z</time></trkpt><trkpt lat="38.16834791676668" lon="15.252079204288586"><ele>67.0</ele><time>2026-04-26T09:12:53Z</time></trkpt><trkpt lat="38.1684556631418" lon="15.252175645648768"><ele>66.25</ele><time>2026-04-26T09:12:54Z</time></trkpt><trkpt lat="38.16857157905566" lon="15.25228277426168"><ele>65.5</ele><time>2026-04-26T09:12:55Z</time></trkpt><trkpt lat="38.1686921426441" lon="15.25238954003342"><ele>64.75</ele><time>2026-04-26T09:12:56Z</time></trkpt><trkpt lat="38.16880719645446" lon="15.252493489968288"><ele>64.0</ele><time>2026-04-26T09:12:57Z</time></trkpt><trkpt lat="38.168918264697076" lon="15.252593039498754"><ele>63.75</ele><time>2026-04-26T09:12:58Z</time></trkpt><trkpt lat="38.16902665658592" lon="15.252694020454959"><ele>63.5</ele><time>2026-04-26T09:12:59Z</time></trkpt><trkpt lat="38.16912624560802" lon="15.252786403671678"><ele>63.25</ele><time>2026-04-26T09:13:00Z</time></trkpt><trkpt lat="38.16922244934742" lon="15.25287111002802"><ele>63.0</ele><time>2026-04-26T09:13:01Z</time></trkpt><trkpt lat="38.16931915091425" lon="15.252958181199302"><ele>63.0</ele><time>2026-04-26T09:13:02Z</time></trkpt><trkpt lat="38.1694201278254" lon="15.253045767649207"><ele>63.0</ele><time>2026-04-26T09:13:03Z</time></trkpt><trkpt lat="38.169524852304754" lon="15.253136987605753"><ele>63.0</ele><time>2026-04-26T09:13:04Z</time></trkpt><trkpt lat="38.1696313987095" lon="15.253234711380735"><ele>63.0</ele><time>2026-04-26T09:13:05Z</time></trkpt><trkpt lat="38.169735058032785" lon="15.253340296796479"><ele>63.5</ele><time>2026-04-26T09:13:06Z</time></trkpt><trkpt lat="38.16981477972748" lon="15.253463384421075"><ele>64.0</ele><time>2026-04-26T09:13:07Z</time></trkpt><trkpt lat="38.16986496609796" lon="15.253602887525949"><ele>64.5</ele><time>2026-04-26T09:13:08Z</time></trkpt><trkpt lat="38.16988960262663" lon="15.253748143757138"><ele>65.0</ele><time>2026-04-26T09:13:09Z</time></trkpt><trkpt lat="38.169901080384115" lon="15.253890433150625"><ele>65.0</ele><time>2026-04-26T09:13:10Z</time></trkpt><trkpt lat="38.169906750547845" lon="15.254044645717945"><ele>65.0</ele><time>2026-04-26T09:13:11Z</time></trkpt><trkpt lat="38.16991603715372" lon="15.254201911863339"><ele>65.0</ele><time>2026-04-26T09:13:12Z</time></trkpt><trkpt lat="38.16992409249771" lon="15.254351987032951"><ele>65.0</ele><time>2026-04-26T09:13:13Z</time></trkpt><trkpt lat="38.16993051314478" lon="15.254500926622276"><ele>65.0</ele><time>2026-04-26T09:13:14Z</time></trkpt><trkpt lat="38.16993868795325" lon="15.254648178630363"><ele>65.0</ele><time>2026-04-26T09:13:15Z</time></trkpt><trkpt lat="38.169949352890974" lon="15.254792422391176"><ele>65.0</ele><time>2026-04-26T09:13:16Z</time></trkpt><trkpt lat="38.16995701791218" lon="15.254936878250378"><ele>65.0</ele><time>2026-04-26T09:13:17Z</time></trkpt><trkpt lat="38.169959176199754" lon="15.255080094710355"><ele>65.2</ele><time>2026-04-26T09:13:18Z</time></trkpt><trkpt lat="38.16996211440843" lon="15.255222622761508"><ele>65.4</ele><time>2026-04-26T09:13:19Z</time></trkpt><trkpt lat="38.16997014877793" lon="15.25536539448195"><ele>65.6</ele><time>2026-04-26T09:13:20Z</time></trkpt><trkpt lat="38.16997847078684" lon="15.255505678442525"><ele>65.8</ele><time>2026-04-26T09:13:21Z</time></trkpt><trkpt lat="38.170003480472474" lon="15.255643743159908"><ele>66.0</ele><time>2026-04-26T09:13:22Z</time></trkpt><trkpt lat="38.170056775807275" lon="15.255764516648961"><ele>66.2</ele><time>2026-04-26T09:13:23Z</time></trkpt><trkpt lat="38.17012763494255" lon="15.255867457464385"><ele>66.39999999999999</ele><time>2026-04-26T09:13:24Z</time></trkpt><trkpt lat="38.170213692244225" lon="15.255950230267288"><ele>66.6</ele><time>2026-04-26T09:13:25Z</time></trkpt><trkpt lat="38.17029376554683" lon="15.25602432764261"><ele>66.8</ele><time>2026-04-26T09:13:26Z</time></trkpt><trkpt lat="38.170371176752745" lon="15.256098048942915"><ele>67.0</ele><time>2026-04-26T09:13:27Z</time></trkpt><trkpt lat="38.17044443016387" lon="15.256161654550505"><ele>67.0</ele><time>2026-04-26T09:13:28Z</time></trkpt><trkpt lat="38.17049048041544" lon="15.25625872869087"><ele>67.0</ele><time>2026-04-26T09:13:29Z</time></trkpt><trkpt lat="38.17057231728893" lon="15.256346731682916"><ele>67.0</ele><time>2026-04-26T09:13:30Z</time></trkpt><trkpt lat="38.17065289022924" lon="15.256426919274576"><ele>67.0</ele><time>2026-04-26T09:13:31Z</time></trkpt><trkpt lat="38.17072804515816" lon="15.256526388092581"><ele>67.0</ele><time>2026-04-26T09:13:32Z</time></trkpt><trkpt lat="38.170888859711226" lon="15.256539789358003"><ele>66.25</ele><time>2026-04-26T09:13:33Z</time></trkpt><trkpt lat="38.17100680305938" lon="15.25661841180705"><ele>65.5</ele><time>2026-04-26T09:13:34Z</time></trkpt><trkpt lat="38.17111962949901" lon="15.256700524041548"><ele>64.75</ele><time>2026-04-26T09:13:35Z</time></trkpt><trkpt lat="38.17124017185955" lon="15.256775497910391"><ele>64.0</ele><time>2026-04-26T09:13:36Z</time></trkpt><trkpt lat="38.17136613934365" lon="15.256831596303881"><ele>64.0</ele><time>2026-04-26T09:13:37Z</time></trkpt><trkpt lat="38.171491994223516" lon="15.25687908921053"><ele>64.0</ele><time>2026-04-26T09:13:38Z</time></trkpt><trkpt lat="38.17160483834361" lon="15.256925592267779"><ele>64.0</ele><time>2026-04-26T09:13:39Z</time></trkpt><trkpt lat="38.171709434234785" lon="15.256967268159384"><ele>64.0</ele><time>2026-04-26T09:13:40Z</time></trkpt><trkpt lat="38.17180573229861" lon="15.25700421223719"><ele>64.0</ele><time>2026-04-26T09:13:41Z</time></trkpt><trkpt lat="38.17189385306229" lon="15.257038547396682"><ele>64.0</ele><time>2026-04-26T09:13:42Z</time></trkpt><trkpt lat="38.17197778520642" lon="15.257068941763725"><ele>64.0</ele><time>2026-04-26T09:13:43Z</time></trkpt><trkpt lat="38.17206622770059" lon="15.257098798453482"><ele>64.0</ele><time>2026-04-26T09:13:44Z</time></trkpt><trkpt lat="38.1721588833775" lon="15.257129169557274"><ele>64.0</ele><time>2026-04-26T09:13:45Z</time></trkpt><trkpt lat="38.17225309659758" lon="15.257154949951087"><ele>64.0</ele><time>2026-04-26T09:13:46Z</time></trkpt><trkpt lat="38.17235438376925" lon="15.257189705825686"><ele>64.0</ele><time>2026-04-26T09:13:47Z</time></trkpt><trkpt lat="38.17245993036598" lon="15.257236306373967"><ele>64.0</ele><time>2026-04-26T09:13:48Z</time></trkpt><trkpt lat="38.17256486781557" lon="15.257286745425167"><ele>64.0</ele><time>2026-04-26T09:13:49Z</time></trkpt><trkpt lat="38.17267016176617" lon="15.257346146698566"><ele>64.0</ele><time>2026-04-26T09:13:50Z</time></trkpt><trkpt lat="38.17277541906716" lon="15.257417294689855"><ele>65.5</ele><time>2026-04-26T09:13:51Z</time></trkpt><trkpt lat="38.17288315865036" lon="15.257494625005817"><ele>67.0</ele><time>2026-04-26T09:13:52Z</time></trkpt><trkpt lat="38.172990838581065" lon="15.257579968856975"><ele>68.5</ele><time>2026-04-26T09:13:53Z</time></trkpt><trkpt lat="38.173105341834024" lon="15.257664135027747"><ele>70.0</ele><time>2026-04-26T09:13:54Z</time></trkpt><trkpt lat="38.17322309828988" lon="15.257748469995583"><ele>70.0</ele><time>2026-04-26T09:13:55Z</time></trkpt><trkpt lat="38.17334187405202" lon="15.257842815349777"><ele>70.0</ele><time>2026-04-26T09:13:56Z</time></trkpt><trkpt lat="38.173469295423075" lon="15.257944744694083"><ele>70.0</ele><time>2026-04-26T09:13:57Z</time></trkpt><trkpt lat="38.173606880247654" lon="15.25805822147257"><ele>70.0</ele><time>2026-04-26T09:13:58Z</time></trkpt><trkpt lat="38.173753293903886" lon="15.258174581878107"><ele>70.0</ele><time>2026-04-26T09:13:59Z</time></trkpt><trkpt lat="38.173889414250965" lon="15.258293332241697"><ele>70.0</ele><time>2026-04-26T09:14:00Z</time></trkpt><trkpt lat="38.1740185809006" lon="15.25840519282473"><ele>69.33333333333333</ele><time>2026-04-26T09:14:01Z</time></trkpt><trkpt lat="38.17414749589463" lon="15.25851663868618"><ele>68.66666666666667</ele><time>2026-04-26T09:14:02Z</time></trkpt><trkpt lat="38.174266388368956" lon="15.258629851596547"><ele>68.0</ele><time>2026-04-26T09:14:03Z</time></trkpt><trkpt lat="38.174391414525694" lon="15.258744616922904"><ele>68.0</ele><time>2026-04-26T09:14:04Z</time></trkpt><trkpt lat="38.174512397914285" lon="15.25886051653576"><ele>68.0</ele><time>2026-04-26T09:14:05Z</time></trkpt><trkpt lat="38.174625958392255" lon="15.258969782574106"><ele>68.0</ele><time>2026-04-26T09:14:06Z</time></trkpt><trkpt lat="38.17473687082575" lon="15.25907826747542"><ele>68.0</ele><time>2026-04-26T09:14:07Z</time></trkpt><trkpt lat="38.174844603912156" lon="15.259196009586226"><ele>68.66666666666667</ele><time>2026-04-26T09:14:08Z</time></trkpt><trkpt lat="38.17496073157964" lon="15.259337987060258"><ele>69.33333333333333</ele><time>2026-04-26T09:14:09Z</time></trkpt><trkpt lat="38.17508517180834" lon="15.259495571530737"><ele>70.0</ele><time>2026-04-26T09:14:10Z</time></trkpt><trkpt lat="38.17521434005224" lon="15.259668258060486"><ele>70.66666666666666</ele><time>2026-04-26T09:14:11Z</time></trkpt><trkpt lat="38.1753403586751" lon="15.25983649152008"><ele>71.33333333333333</ele><time>2026-04-26T09:14:12Z</time></trkpt><trkpt lat="38.175453826545" lon="15.260009338484796"><ele>72.0</ele><time>2026-04-26T09:14:13Z</time></trkpt><trkpt lat="38.175560636561244" lon="15.260189301793856"><ele>72.0</ele><time>2026-04-26T09:14:14Z</time></trkpt><trkpt lat="38.175682983506" lon="15.260316371656263"><ele>72.0</ele><time>2026-04-26T09:14:15Z</time></trkpt><trkpt lat="38.17579727715367" lon="15.26045483685132"><ele>72.0</ele><time>2026-04-26T09:14:16Z</time></trkpt><trkpt lat="38.17589062176764" lon="15.26059939416261"><ele>71.5</ele><time>2026-04-26T09:14:17Z</time></trkpt><trkpt lat="38.17597018766614" lon="15.260743420398677"><ele>71.0</ele><time>2026-04-26T09:14:18Z</time></trkpt><trkpt lat="38.17604816657439" lon="15.260864080527362"><ele>70.5</ele><time>2026-04-26T09:14:19Z</time></trkpt><trkpt lat="38.1761256140633" lon="15.260988230721994"><ele>70.0</ele><time>2026-04-26T09:14:20Z</time></trkpt><trkpt lat="38.17619530586063" lon="15.261120866949119"><ele>70.0</ele><time>2026-04-26T09:14:21Z</time></trkpt><trkpt lat="38.1762797632587" lon="15.261264547298657"><ele>70.0</ele><time>2026-04-26T09:14:22Z</time></trkpt><trkpt lat="38.1763681867747" lon="15.261388982919094"><ele>70.0</ele><time>2026-04-26T09:14:23Z</time></trkpt><trkpt lat="38.176450257038525" lon="15.261529810538043"><ele>70.0</ele><time>2026-04-26T09:14:24Z</time></trkpt><trkpt lat="38.17652776756915" lon="15.261685587601843"><ele>69.75</ele><time>2026-04-26T09:14:25Z</time></trkpt><trkpt lat="38.17660848303649" lon="15.261842486313473"><ele>69.5</ele><time>2026-04-26T09:14:26Z</time></trkpt><trkpt lat="38.17669434332778" lon="15.2619726573568"><ele>69.25</ele><time>2026-04-26T09:14:27Z</time></trkpt><trkpt lat="38.17677458214386" lon="15.262111375621156"><ele>69.0</ele><time>2026-04-26T09:14:28Z</time></trkpt><trkpt lat="38.1768561497861" lon="15.262241924889311"><ele>69.2</ele><time>2026-04-26T09:14:29Z</time></trkpt><trkpt lat="38.17693568693023" lon="15.262362997185452"><ele>69.4</ele><time>2026-04-26T09:14:30Z</time></trkpt><trkpt lat="38.17701062023955" lon="15.262467116726585"><ele>69.6</ele><time>2026-04-26T09:14:31Z</time></trkpt><trkpt lat="38.17707701454589" lon="15.262552603017829"><ele>69.8</ele><time>2026-04-26T09:14:32Z</time></trkpt><trkpt lat="38.17713880793729" lon="15.262607052096367"><ele>70.0</ele><time>2026-04-26T09:14:33Z</time></trkpt><trkpt lat="38.17720701458973" lon="15.262660539775457"><ele>70.0</ele><time>2026-04-26T09:14:35Z</time></trkpt><trkpt lat="38.1772938924329" lon="15.26273646507774"><ele>70.0</ele><time>2026-04-26T09:14:37Z</time></trkpt><trkpt lat="38.17734607225607" lon="15.262821236331419"><ele>70.0</ele><time>2026-04-26T09:14:38Z</time></trkpt><trkpt lat="38.17740771196829" lon="15.262944250344393"><ele>70.0</ele><time>2026-04-26T09:14:39Z</time></trkpt><trkpt lat="38.17750315194601" lon="15.263049770293819"><ele>70.0</ele><time>2026-04-26T09:14:40Z</time></trkpt><trkpt lat="38.17759877384039" lon="15.263180459873764"><ele>69.66666666666666</ele><time>2026-04-26T09:14:41Z</time></trkpt><trkpt lat="38.17770192425452" lon="15.263330594105597"><ele>69.33333333333333</ele><time>2026-04-26T09:14:42Z</time></trkpt><trkpt lat="38.177823213997236" lon="15.263499007461201"><ele>69.0</ele><time>2026-04-26T09:14:43Z</time></trkpt><trkpt lat="38.177940648129976" lon="15.26365586746645"><ele>69.0</ele><time>2026-04-26T09:14:44Z</time></trkpt><trkpt lat="38.17804891367336" lon="15.263800597616482"><ele>69.0</ele><time>2026-04-26T09:14:45Z</time></trkpt><trkpt lat="38.178154926055306" lon="15.263932520810663"><ele>69.0</ele><time>2026-04-26T09:14:46Z</time></trkpt><trkpt lat="38.17824821200845" lon="15.264067355143705"><ele>69.0</ele><time>2026-04-26T09:14:47Z</time></trkpt><trkpt lat="38.17833819093563" lon="15.264199067024213"><ele>69.0</ele><time>2026-04-26T09:14:48Z</time></trkpt><trkpt lat="38.17842616962286" lon="15.264317174175334"><ele>69.0</ele><time>2026-04-26T09:14:49Z</time></trkpt><trkpt lat="38.178498308528056" lon="15.264429329236659"><ele>69.0</ele><time>2026-04-26T09:14:50Z</time></trkpt><trkpt lat="38.178570475045866" lon="15.264540123635975"><ele>69.0</ele><time>2026-04-26T09:14:51Z</time></trkpt><trkpt lat="38.178652529768954" lon="15.264652620719932"><ele>69.0</ele><time>2026-04-26T09:14:52Z</time></trkpt><trkpt lat="38.17873321481107" lon="15.264768447047578"><ele>69.0</ele><time>2026-04-26T09:14:53Z</time></trkpt><trkpt lat="38.17881467015726" lon="15.264888634888624"><ele>69.0</ele><time>2026-04-26T09:14:54Z</time></trkpt><trkpt lat="38.1788973492372" lon="15.265015681522149"><ele>69.0</ele><time>2026-04-26T09:14:55Z</time></trkpt><trkpt lat="38.1789672485358" lon="15.265144911140778"><ele>68.33333333333333</ele><time>2026-04-26T09:14:56Z</time></trkpt><trkpt lat="38.17902530898913" lon="15.265262867489316"><ele>67.66666666666667</ele><time>2026-04-26T09:14:57Z</time></trkpt><trkpt lat="38.179075254748646" lon="15.265359279741809"><ele>67.0</ele><time>2026-04-26T09:14:58Z</time></trkpt><trkpt lat="38.17911224992181" lon="15.265459355484143"><ele>66.33333333333334</ele><time>2026-04-26T09:14:59Z</time></trkpt><trkpt lat="38.17915209635399" lon="15.265545365630945"><ele>65.66666666666667</ele><time>2026-04-26T09:15:00Z</time></trkpt><trkpt lat="38.17919476586117" lon="15.265636791237759"><ele>65.0</ele><time>2026-04-26T09:15:01Z</time></trkpt><trkpt lat="38.17923817481161" lon="15.265721415591468"><ele>64.83333333333334</ele><time>2026-04-26T09:15:02Z</time></trkpt><trkpt lat="38.17928538228539" lon="15.265803713461784"><ele>64.66666666666667</ele><time>2026-04-26T09:15:03Z</time></trkpt><trkpt lat="38.1793339471166" lon="15.265891103637513"><ele>64.5</ele><time>2026-04-26T09:15:04Z</time></trkpt><trkpt lat="38.179374739351665" lon="15.265974373326516"><ele>64.33333333333333</ele><time>2026-04-26T09:15:05Z</time></trkpt><trkpt lat="38.17941651031155" lon="15.266057891514762"><ele>64.16666666666666</ele><time>2026-04-26T09:15:06Z</time></trkpt><trkpt lat="38.179445936456425" lon="15.266138088028352"><ele>64.0</ele><time>2026-04-26T09:15:07Z</time></trkpt><trkpt lat="38.179470319129344" lon="15.266229759784926"><ele>63.99999999999999</ele><time>2026-04-26T09:15:08Z</time></trkpt><trkpt lat="38.17947950520122" lon="15.266322933206844"><ele>64.0</ele><time>2026-04-26T09:15:09Z</time></trkpt><trkpt lat="38.179456629443315" lon="15.266401833775813"><ele>64.0</ele><time>2026-04-26T09:15:10Z</time></trkpt><trkpt lat="38.17945930103542" lon="15.266530960639388"><ele>64.0</ele><time>2026-04-26T09:15:12Z</time></trkpt><trkpt lat="38.17954565121468" lon="15.266645236416217"><ele>63.99999999999999</ele><time>2026-04-26T09:15:14Z</time></trkpt><trkpt lat="38.17962139312407" lon="15.266689198818574"><ele>64.0</ele><time>2026-04-26T09:15:15Z</time></trkpt><trkpt lat="38.17969618402115" lon="15.266744648600827"><ele>64.0</ele><time>2026-04-26T09:15:16Z</time></trkpt><trkpt lat="38.17975770141338" lon="15.266836629308775"><ele>64.0</ele><time>2026-04-26T09:15:17Z</time></trkpt><trkpt lat="38.17981326797567" lon="15.266956582952908"><ele>64.0</ele><time>2026-04-26T09:15:18Z</time></trkpt><trkpt lat="38.17988981277978" lon="15.267082224745648"><ele>64.0</ele><time>2026-04-26T09:15:19Z</time></trkpt><trkpt lat="38.17996696596431" lon="15.267220492954145"><ele>64.0</ele><time>2026-04-26T09:15:20Z</time></trkpt><trkpt lat="38.180056707415" lon="15.267376700262556"><ele>64.0</ele><time>2026-04-26T09:15:21Z</time></trkpt><trkpt lat="38.18016166628872" lon="15.267553001711391"><ele>64.0</ele><time>2026-04-26T09:15:22Z</time></trkpt><trkpt lat="38.18032704066778" lon="15.267706714913697"><ele>64.0</ele><time>2026-04-26T09:15:23Z</time></trkpt><trkpt lat="38.18050703322848" lon="15.267836704738109"><ele>64.0</ele><time>2026-04-26T09:15:24Z</time></trkpt><trkpt lat="38.18071029064171" lon="15.267957065255935"><ele>64.0</ele><time>2026-04-26T09:15:25Z</time></trkpt><trkpt lat="38.18090794811824" lon="15.26806938597415"><ele>62.0</ele><time>2026-04-26T09:15:26Z</time></trkpt><trkpt lat="38.181090261185226" lon="15.268178483336849"><ele>60.0</ele><time>2026-04-26T09:15:27Z</time></trkpt><trkpt lat="38.18125765292834" lon="15.268273786477318"><ele>58.0</ele><time>2026-04-26T09:15:28Z</time></trkpt><trkpt lat="38.18140731083985" lon="15.26835963167232"><ele>56.5</ele><time>2026-04-26T09:15:29Z</time></trkpt><trkpt lat="38.18154247960594" lon="15.268441602984089"><ele>55.0</ele><time>2026-04-26T09:15:30Z</time></trkpt><trkpt lat="38.18166219930036" lon="15.268514428988444"><ele>53.5</ele><time>2026-04-26T09:15:31Z</time></trkpt><trkpt lat="38.18177319716052" lon="15.268577984217425"><ele>52.0</ele><time>2026-04-26T09:15:32Z</time></trkpt><trkpt lat="38.18187264527478" lon="15.268632456985626"><ele>52.0</ele><time>2026-04-26T09:15:33Z</time></trkpt><trkpt lat="38.181966461912985" lon="15.268691045333918"><ele>52.0</ele><time>2026-04-26T09:15:34Z</time></trkpt><trkpt lat="38.18205529345251" lon="15.268744062081975"><ele>52.0</ele><time>2026-04-26T09:15:35Z</time></trkpt><trkpt lat="38.1821377356288" lon="15.268792753916781"><ele>52.0</ele><time>2026-04-26T09:15:36Z</time></trkpt><trkpt lat="38.18222074206784" lon="15.268841956456635"><ele>52.0</ele><time>2026-04-26T09:15:37Z</time></trkpt><trkpt lat="38.18231569569282" lon="15.268894230703768"><ele>50.75</ele><time>2026-04-26T09:15:38Z</time></trkpt><trkpt lat="38.18241529202071" lon="15.26895136122532"><ele>49.5</ele><time>2026-04-26T09:15:39Z</time></trkpt><trkpt lat="38.1825463395102" lon="15.269026486637081"><ele>48.25</ele><time>2026-04-26T09:15:40Z</time></trkpt><trkpt lat="38.1827148242909" lon="15.269115771325339"><ele>47.0</ele><time>2026-04-26T09:15:41Z</time></trkpt><trkpt lat="38.18290780079631" lon="15.269222331105425"><ele>47.0</ele><time>2026-04-26T09:15:42Z</time></trkpt><trkpt lat="38.183060739700835" lon="15.269308102715486"><ele>47.0</ele><time>2026-04-26T09:15:43Z</time></trkpt><trkpt lat="38.1831758027174" lon="15.269372545906457"><ele>47.0</ele><time>2026-04-26T09:15:44Z</time></trkpt><trkpt lat="38.18328240121605" lon="15.269427296479027"><ele>47.0</ele><time>2026-04-26T09:15:45Z</time></trkpt><trkpt lat="38.18336744612228" lon="15.269475699727977"><ele>46.666666666666664</ele><time>2026-04-26T09:15:46Z</time></trkpt><trkpt lat="38.18343971619735" lon="15.26952532113269"><ele>46.33333333333333</ele><time>2026-04-26T09:15:47Z</time></trkpt><trkpt lat="38.18350289489444" lon="15.269574856524473"><ele>46.0</ele><time>2026-04-26T09:15:48Z</time></trkpt><trkpt lat="38.18354427336733" lon="15.269640563549643"><ele>45.666666666666664</ele><time>2026-04-26T09:15:49Z</time></trkpt><trkpt lat="38.18357301404013" lon="15.26973419875847"><ele>45.333333333333336</ele><time>2026-04-26T09:15:50Z</time></trkpt><trkpt lat="38.18360834212253" lon="15.269838682602565"><ele>45.0</ele><time>2026-04-26T09:15:51Z</time></trkpt><trkpt lat="38.18369125846323" lon="15.269921070347337"><ele>45.0</ele><time>2026-04-26T09:15:52Z</time></trkpt><trkpt lat="38.183782972253304" lon="15.26994613386579"><ele>45.0</ele><time>2026-04-26T09:15:53Z</time></trkpt><trkpt lat="38.18386856549955" lon="15.26991631185701"><ele>45.0</ele><time>2026-04-26T09:15:54Z</time></trkpt><trkpt lat="38.183940914557986" lon="15.269873418750759"><ele>45.0</ele><time>2026-04-26T09:15:55Z</time></trkpt><trkpt lat="38.18402327078905" lon="15.269876995600956"><ele>45.0</ele><time>2026-04-26T09:15:56Z</time></trkpt><trkpt lat="38.18411621073619" lon="15.269907347938933"><ele>45.0</ele><time>2026-04-26T09:15:57Z</time></trkpt><trkpt lat="38.18421402165437" lon="15.269974205951968"><ele>45.0</ele><time>2026-04-26T09:15:58Z</time></trkpt><trkpt lat="38.1843280288531" lon="15.27004219180853"><ele>45.0</ele><time>2026-04-26T09:15:59Z</time></trkpt><trkpt lat="38.184461997490935" lon="15.270079453765842"><ele>45.0</ele><time>2026-04-26T09:16:00Z</time></trkpt><trkpt lat="38.18459709969881" lon="15.270164630013442"><ele>45.0</ele><time>2026-04-26T09:16:01Z</time></trkpt><trkpt lat="38.184743720740464" lon="15.270269084822575"><ele>44.333333333333336</ele><time>2026-04-26T09:16:02Z</time></trkpt><trkpt lat="38.18490899117596" lon="15.270366426043585"><ele>43.66666666666667</ele><time>2026-04-26T09:16:03Z</time></trkpt><trkpt lat="38.18508544719058" lon="15.270470948648361"><ele>43.0</ele><time>2026-04-26T09:16:04Z</time></trkpt><trkpt lat="38.18528087878934" lon="15.270584835244144"><ele>43.0</ele><time>2026-04-26T09:16:05Z</time></trkpt><trkpt lat="38.185509575124605" lon="15.27070865588239"><ele>43.0</ele><time>2026-04-26T09:16:06Z</time></trkpt><trkpt lat="38.185766223247754" lon="15.270846862746303"><ele>42.5</ele><time>2026-04-26T09:16:07Z</time></trkpt><trkpt lat="38.186026463330016" lon="15.271028894404868"><ele>42.0</ele><time>2026-04-26T09:16:08Z</time></trkpt><trkpt lat="38.18625496413154" lon="15.271239492889851"><ele>42.0</ele><time>2026-04-26T09:16:09Z</time></trkpt><trkpt lat="38.186464726319905" lon="15.271450689424036"><ele>42.0</ele><time>2026-04-26T09:16:10Z</time></trkpt><trkpt lat="38.186658697727076" lon="15.271647401301912"><ele>42.0</ele><time>2026-04-26T09:16:11Z</time></trkpt><trkpt lat="38.186840478719276" lon="15.27184292222379"><ele>42.0</ele><time>2026-04-26T09:16:12Z</time></trkpt><trkpt lat="38.18702506440232" lon="15.272035687103893"><ele>42.0</ele><time>2026-04-26T09:16:13Z</time></trkpt><trkpt lat="38.18719898873613" lon="15.272230344205685"><ele>42.0</ele><time>2026-04-26T09:16:14Z</time></trkpt><trkpt lat="38.18735799721871" lon="15.272421571120946"><ele>41.333333333333336</ele><time>2026-04-26T09:16:15Z</time></trkpt><trkpt lat="38.18751370652575" lon="15.27259257273583"><ele>40.66666666666667</ele><time>2026-04-26T09:16:16Z</time></trkpt><trkpt lat="38.18765167567599" lon="15.272728436491732"><ele>40.0</ele><time>2026-04-26T09:16:17Z</time></trkpt><trkpt lat="38.187780539468804" lon="15.272855468831732"><ele>40.0</ele><time>2026-04-26T09:16:18Z</time></trkpt><trkpt lat="38.18789656159826" lon="15.272962061866199"><ele>40.0</ele><time>2026-04-26T09:16:19Z</time></trkpt><trkpt lat="38.18799133540263" lon="15.27304440889338"><ele>40.0</ele><time>2026-04-26T09:16:20Z</time></trkpt><trkpt lat="38.18806741517143" lon="15.273106849448723"><ele>40.0</ele><time>2026-04-26T09:16:21Z</time></trkpt><trkpt lat="38.18814100268567" lon="15.273139263937102"><ele>40.0</ele><time>2026-04-26T09:16:22Z</time></trkpt><trkpt lat="38.188216907484744" lon="15.273252074427175"><ele>40.4</ele><time>2026-04-26T09:16:24Z</time></trkpt><trkpt lat="38.18828417606031" lon="15.273377826938322"><ele>40.8</ele><time>2026-04-26T09:16:26Z</time></trkpt><trkpt lat="38.18834398207934" lon="15.273502221814088"><ele>41.2</ele><time>2026-04-26T09:16:28Z</time></trkpt><trkpt lat="38.188402824127834" lon="15.273559010826181"><ele>41.6</ele><time>2026-04-26T09:16:29Z</time></trkpt><trkpt lat="38.18846336477545" lon="15.273609629818896"><ele>42.0</ele><time>2026-04-26T09:16:30Z</time></trkpt><trkpt lat="38.188521364312074" lon="15.27368209742336"><ele>42.0</ele><time>2026-04-26T09:16:31Z</time></trkpt><trkpt lat="38.18859979164774" lon="15.273739203892447"><ele>42.0</ele><time>2026-04-26T09:16:32Z</time></trkpt><trkpt lat="38.18867238336603" lon="15.273788120443141"><ele>42.0</ele><time>2026-04-26T09:16:33Z</time></trkpt><trkpt lat="38.188737393269435" lon="15.273833346690967"><ele>42.0</ele><time>2026-04-26T09:16:34Z</time></trkpt><trkpt lat="38.1887956817161" lon="15.273874056886546"><ele>42.0</ele><time>2026-04-26T09:16:35Z</time></trkpt><trkpt lat="38.18889816067481" lon="15.273952956877752"><ele>42.0</ele><time>2026-04-26T09:16:37Z</time></trkpt><trkpt lat="38.1889809947105" lon="15.274035358432684"><ele>41.4</ele><time>2026-04-26T09:16:39Z</time></trkpt><trkpt lat="38.18904888589529" lon="15.274083929344334"><ele>40.800000000000004</ele><time>2026-04-26T09:16:41Z</time></trkpt><trkpt lat="38.18908080306876" lon="15.274163392026388"><ele>40.2</ele><time>2026-04-26T09:17:34Z</time></trkpt><trkpt lat="38.18918259458698" lon="15.274219029422081"><ele>39.6</ele><time>2026-04-26T09:17:36Z</time></trkpt><trkpt lat="38.18929772506014" lon="15.27428138026244"><ele>39.0</ele><time>2026-04-26T09:17:38Z</time></trkpt><trkpt lat="38.1893750627059" lon="15.274264440711928"><ele>39.0</ele><time>2026-04-26T09:17:39Z</time></trkpt><trkpt lat="38.189464946677745" lon="15.274334745725039"><ele>39.0</ele><time>2026-04-26T09:17:41Z</time></trkpt><trkpt lat="38.189534253653136" lon="15.274385958996092"><ele>39.0</ele><time>2026-04-26T09:17:43Z</time></trkpt><trkpt lat="38.18960679009846" lon="15.27443526417412"><ele>39.0</ele><time>2026-04-26T09:17:45Z</time></trkpt><trkpt lat="38.18969985336582" lon="15.274493337414071"><ele>39.0</ele><time>2026-04-26T09:17:47Z</time></trkpt><trkpt lat="38.189803703971585" lon="15.27453549898923"><ele>38.333333333333336</ele><time>2026-04-26T09:17:49Z</time></trkpt><trkpt lat="38.18988279271598" lon="15.27457701645044"><ele>37.666666666666664</ele><time>2026-04-26T09:17:51Z</time></trkpt><trkpt lat="38.18997519397598" lon="15.274592509019515"><ele>37.0</ele><time>2026-04-26T09:17:53Z</time></trkpt><trkpt lat="38.190039179341525" lon="15.27458440102417"><ele>36.33333333333333</ele><time>2026-04-26T09:17:54Z</time></trkpt><trkpt lat="38.19011374320543" lon="15.27459658243676"><ele>35.666666666666664</ele><time>2026-04-26T09:17:55Z</time></trkpt><trkpt lat="38.190196294530494" lon="15.274614154535726"><ele>35.0</ele><time>2026-04-26T09:17:56Z</time></trkpt><trkpt lat="38.190276733250364" lon="15.274653129055624"><ele>35.0</ele><time>2026-04-26T09:17:57Z</time></trkpt><trkpt lat="38.190340842680186" lon="15.274666625634227"><ele>35.0</ele><time>2026-04-26T09:17:58Z</time></trkpt><trkpt lat="38.19043940709903" lon="15.274667205676634"><ele>35.0</ele><time>2026-04-26T09:18:00Z</time></trkpt><trkpt lat="38.19052861370131" lon="15.274673319856069"><ele>35.0</ele><time>2026-04-26T09:18:02Z</time></trkpt><trkpt lat="38.19060881123697" lon="15.274679649492269"><ele>35.0</ele><time>2026-04-26T09:18:04Z</time></trkpt><trkpt lat="38.190683061456916" lon="15.274735517527978"><ele>35.0</ele><time>2026-04-26T09:18:06Z</time></trkpt><trkpt lat="38.190764817148995" lon="15.274753217426904"><ele>34.8</ele><time>2026-04-26T09:18:08Z</time></trkpt><trkpt lat="38.19083293744966" lon="15.274767862447234"><ele>34.6</ele><time>2026-04-26T09:18:09Z</time></trkpt><trkpt lat="38.19092984737066" lon="15.274783964203994"><ele>34.4</ele><time>2026-04-26T09:18:10Z</time></trkpt><trkpt lat="38.19103528560864" lon="15.274797973436991"><ele>34.2</ele><time>2026-04-26T09:18:11Z</time></trkpt><trkpt lat="38.19117433313505" lon="15.274819212524076"><ele>34.0</ele><time>2026-04-26T09:18:12Z</time></trkpt><trkpt lat="38.19135069616142" lon="15.274856809465858"><ele>32.66666666666667</ele><time>2026-04-26T09:18:13Z</time></trkpt><trkpt lat="38.19153606389461" lon="15.274908057371373"><ele>31.333333333333336</ele><time>2026-04-26T09:18:14Z</time></trkpt><trkpt lat="38.19171484894191" lon="15.274983158541419"><ele>30.0</ele><time>2026-04-26T09:18:15Z</time></trkpt><trkpt lat="38.19187418125778" lon="15.275094906365645"><ele>30.0</ele><time>2026-04-26T09:18:16Z</time></trkpt><trkpt lat="38.19201858507941" lon="15.275238656834967"><ele>30.0</ele><time>2026-04-26T09:18:17Z</time></trkpt><trkpt lat="38.19213171500963" lon="15.275414911624564"><ele>30.0</ele><time>2026-04-26T09:18:18Z</time></trkpt><trkpt lat="38.19221476794006" lon="15.275605469704997"><ele>30.0</ele><time>2026-04-26T09:18:19Z</time></trkpt><trkpt lat="38.19228199922774" lon="15.275825293772362"><ele>30.0</ele><time>2026-04-26T09:18:20Z</time></trkpt><trkpt lat="38.19235572482507" lon="15.276053454199245"><ele>30.0</ele><time>2026-04-26T09:18:21Z</time></trkpt><trkpt lat="38.19235841449811" lon="15.276320701216322"><ele>31.0</ele><time>2026-04-26T09:18:22Z</time></trkpt><trkpt lat="38.192372296844255" lon="15.27661493107524"><ele>32.0</ele><time>2026-04-26T09:18:23Z</time></trkpt><trkpt lat="38.19238708243296" lon="15.276919808837873"><ele>32.0</ele><time>2026-04-26T09:18:24Z</time></trkpt><trkpt lat="38.19240780471249" lon="15.277237622590297"><ele>32.0</ele><time>2026-04-26T09:18:25Z</time></trkpt><trkpt lat="38.192437716367785" lon="15.27757367311891"><ele>32.5</ele><time>2026-04-26T09:18:26Z</time></trkpt><trkpt lat="38.19246363845931" lon="15.277929756759958"><ele>33.0</ele><time>2026-04-26T09:18:27Z</time></trkpt><trkpt lat="38.192485810584024" lon="15.278315070899234"><ele>34.5</ele><time>2026-04-26T09:18:28Z</time></trkpt><trkpt lat="38.19249548703891" lon="15.278729036590624"><ele>36.0</ele><time>2026-04-26T09:18:29Z</time></trkpt><trkpt lat="38.19251828310736" lon="15.279169810544063"><ele>36.0</ele><time>2026-04-26T09:18:30Z</time></trkpt><trkpt lat="38.19254403009263" lon="15.27962979128114"><ele>36.0</ele><time>2026-04-26T09:18:31Z</time></trkpt><trkpt lat="38.19259090003922" lon="15.280101506154965"><ele>36.0</ele><time>2026-04-26T09:18:32Z</time></trkpt><trkpt lat="38.19265370874323" lon="15.28058288449031"><ele>36.0</ele><time>2026-04-26T09:18:33Z</time></trkpt><trkpt lat="38.192726821436345" lon="15.281076449059656"><ele>42.0</ele><time>2026-04-26T09:18:34Z</time></trkpt><trkpt lat="38.192813176058486" lon="15.281568914263612"><ele>48.0</ele><time>2026-04-26T09:18:35Z</time></trkpt><trkpt lat="38.19292249857586" lon="15.282052864797423"><ele>51.5</ele><time>2026-04-26T09:18:36Z</time></trkpt><trkpt lat="38.19303946421048" lon="15.282532722287382"><ele>55.0</ele><time>2026-04-26T09:18:37Z</time></trkpt><trkpt lat="38.19316512892458" lon="15.283014533488863"><ele>56.0</ele><time>2026-04-26T09:18:38Z</time></trkpt><trkpt lat="38.19329744251504" lon="15.28349094737418"><ele>57.0</ele><time>2026-04-26T09:18:39Z</time></trkpt><trkpt lat="38.193428868633426" lon="15.283970167735763"><ele>57.0</ele><time>2026-04-26T09:18:40Z</time></trkpt><trkpt lat="38.1935507819647" lon="15.284457559527365"><ele>57.0</ele><time>2026-04-26T09:18:41Z</time></trkpt><trkpt lat="38.193659482697264" lon="15.284952848431574"><ele>53.5</ele><time>2026-04-26T09:18:42Z</time></trkpt><trkpt lat="38.19375965059208" lon="15.285460746797789"><ele>50.0</ele><time>2026-04-26T09:18:43Z</time></trkpt><trkpt lat="38.19384834116059" lon="15.285974846057458"><ele>52.0</ele><time>2026-04-26T09:18:44Z</time></trkpt><trkpt lat="38.1939380928946" lon="15.286493571489379"><ele>54.0</ele><time>2026-04-26T09:18:45Z</time></trkpt><trkpt lat="38.194027583742454" lon="15.287027453645793"><ele>65.0</ele><time>2026-04-26T09:18:46Z</time></trkpt><trkpt lat="38.19411807975849" lon="15.287589938116234"><ele>61.0</ele><time>2026-04-26T09:18:47.025Z</time></trkpt><trkpt lat="38.19421159264335" lon="15.288146357945921"><ele>57.0</ele><time>2026-04-26T09:18:48.023Z</time></trkpt><trkpt lat="38.19431001521099" lon="15.288712105136812"><ele>45.0</ele><time>2026-04-26T09:18:49.023Z</time></trkpt><trkpt lat="38.194411861449026" lon="15.28928244736065"><ele>30.0</ele><time>2026-04-26T09:18:50.019Z</time></trkpt><trkpt lat="38.19451320377943" lon="15.289848568469234"><ele>30.0</ele><time>2026-04-26T09:18:51Z</time></trkpt><trkpt lat="38.194559231645506" lon="15.290404608622755"><ele>30.0</ele><time>2026-04-26T09:18:52Z</time></trkpt><trkpt lat="38.19464980176867" lon="15.290966279441779"><ele>29.0</ele><time>2026-04-26T09:18:53Z</time></trkpt><trkpt lat="38.194743539363344" lon="15.291523795116516"><ele>28.0</ele><time>2026-04-26T09:18:54Z</time></trkpt><trkpt lat="38.194832154398256" lon="15.292072673357"><ele>27.5</ele><time>2026-04-26T09:18:55Z</time></trkpt><trkpt lat="38.19491170726117" lon="15.292618719165546"><ele>27.0</ele><time>2026-04-26T09:18:56Z</time></trkpt><trkpt lat="38.19497295325647" lon="15.293165030430849"><ele>27.0</ele><time>2026-04-26T09:18:57Z</time></trkpt><trkpt lat="38.19501687437688" lon="15.293713053290697"><ele>27.0</ele><time>2026-04-26T09:18:58Z</time></trkpt><trkpt lat="38.195032949100785" lon="15.294262317893235"><ele>29.5</ele><time>2026-04-26T09:18:59Z</time></trkpt><trkpt lat="38.19502559018811" lon="15.29481033891434"><ele>32.0</ele><time>2026-04-26T09:19:00Z</time></trkpt><trkpt lat="38.19500288499162" lon="15.295351269728226"><ele>32.5</ele><time>2026-04-26T09:19:01Z</time></trkpt><trkpt lat="38.19497097658443" lon="15.295889476216704"><ele>33.0</ele><time>2026-04-26T09:19:02Z</time></trkpt><trkpt lat="38.19494238111852" lon="15.296425153054667"><ele>32.0</ele><time>2026-04-26T09:19:03Z</time></trkpt><trkpt lat="38.194905213207726" lon="15.296960926697746"><ele>31.0</ele><time>2026-04-26T09:19:04Z</time></trkpt><trkpt lat="38.19486192897272" lon="15.297496173845575"><ele>37.5</ele><time>2026-04-26T09:19:05Z</time></trkpt><trkpt lat="38.19482212276648" lon="15.298030247093196"><ele>44.0</ele><time>2026-04-26T09:19:06Z</time></trkpt><trkpt lat="38.194786522650716" lon="15.298559982268527"><ele>47.5</ele><time>2026-04-26T09:19:07Z</time></trkpt><trkpt lat="38.19475373897913" lon="15.299087024841773"><ele>51.0</ele><time>2026-04-26T09:19:08Z</time></trkpt><trkpt lat="38.1947342480475" lon="15.299611466700727"><ele>51.0</ele><time>2026-04-26T09:19:09Z</time></trkpt><trkpt lat="38.194732723078026" lon="15.3001341808333"><ele>51.0</ele><time>2026-04-26T09:19:10Z</time></trkpt><trkpt lat="38.19475441930663" lon="15.30066143906262"><ele>50.0</ele><time>2026-04-26T09:19:11Z</time></trkpt><trkpt lat="38.194794065120796" lon="15.301192087307694"><ele>49.0</ele><time>2026-04-26T09:19:12Z</time></trkpt><trkpt lat="38.1948535310138" lon="15.301719827838951"><ele>47.5</ele><time>2026-04-26T09:19:13Z</time></trkpt><trkpt lat="38.194924763625906" lon="15.302255321896023"><ele>46.0</ele><time>2026-04-26T09:19:14Z</time></trkpt><trkpt lat="38.19500434415347" lon="15.302797704041547"><ele>45.0</ele><time>2026-04-26T09:19:15Z</time></trkpt><trkpt lat="38.19508086499978" lon="15.303347438385646"><ele>44.0</ele><time>2026-04-26T09:19:16Z</time></trkpt><trkpt lat="38.195158104993375" lon="15.30390096841245"><ele>45.5</ele><time>2026-04-26T09:19:17Z</time></trkpt><trkpt lat="38.195229740393266" lon="15.304444686575195"><ele>47.0</ele><time>2026-04-26T09:19:18Z</time></trkpt><trkpt lat="38.19530173576553" lon="15.304979895728799"><ele>47.5</ele><time>2026-04-26T09:19:19Z</time></trkpt><trkpt lat="38.195374231729524" lon="15.305499987486945"><ele>48.0</ele><time>2026-04-26T09:19:20Z</time></trkpt><trkpt lat="38.195449746344075" lon="15.306008573489999"><ele>49.0</ele><time>2026-04-26T09:19:21Z</time></trkpt><trkpt lat="38.19552277330474" lon="15.306497420936116"><ele>50.0</ele><time>2026-04-26T09:19:22Z</time></trkpt><trkpt lat="38.195594853849464" lon="15.30697382525225"><ele>52.5</ele><time>2026-04-26T09:19:23Z</time></trkpt><trkpt lat="38.195665006351966" lon="15.307451228905004"><ele>55.0</ele><time>2026-04-26T09:19:24Z</time></trkpt><trkpt lat="38.19573084836627" lon="15.307929607070536"><ele>57.5</ele><time>2026-04-26T09:19:25Z</time></trkpt><trkpt lat="38.19578144954512" lon="15.30840747745279"><ele>60.0</ele><time>2026-04-26T09:19:26Z</time></trkpt><trkpt lat="38.19581150228376" lon="15.308882503260302"><ele>59.0</ele><time>2026-04-26T09:19:27Z</time></trkpt><trkpt lat="38.19581259302865" lon="15.309347947078624"><ele>58.0</ele><time>2026-04-26T09:19:28Z</time></trkpt><trkpt lat="38.195789532935116" lon="15.309809380208899"><ele>57.0</ele><time>2026-04-26T09:19:29Z</time></trkpt><trkpt lat="38.195752360770285" lon="15.31026183948259"><ele>56.0</ele><time>2026-04-26T09:19:30Z</time></trkpt><trkpt lat="38.19570891398543" lon="15.310704902528798"><ele>60.5</ele><time>2026-04-26T09:19:31Z</time></trkpt><trkpt lat="38.19566161103434" lon="15.311133204577763"><ele>65.0</ele><time>2026-04-26T09:19:32Z</time></trkpt><trkpt lat="38.19561929718905" lon="15.311540299765587"><ele>66.0</ele><time>2026-04-26T09:19:33Z</time></trkpt><trkpt lat="38.195585853338095" lon="15.311931182668337"><ele>67.0</ele><time>2026-04-26T09:19:34Z</time></trkpt><trkpt lat="38.19556507577585" lon="15.312303980199065"><ele>68.5</ele><time>2026-04-26T09:19:35Z</time></trkpt><trkpt lat="38.19555150463867" lon="15.312660492806728"><ele>70.0</ele><time>2026-04-26T09:19:36Z</time></trkpt><trkpt lat="38.195544540094026" lon="15.312985534712269"><ele>67.0</ele><time>2026-04-26T09:19:37Z</time></trkpt><trkpt lat="38.19554721418163" lon="15.3132807440065"><ele>64.0</ele><time>2026-04-26T09:19:38.016Z</time></trkpt><trkpt lat="38.195557968828304" lon="15.313549972017983"><ele>61.0</ele><time>2026-04-26T09:19:39.022Z</time></trkpt><trkpt lat="38.19557639277033" lon="15.313804985452476"><ele>57.33333333333333</ele><time>2026-04-26T09:19:40.016Z</time></trkpt><trkpt lat="38.19559725963297" lon="15.314052989659"><ele>53.66666666666667</ele><time>2026-04-26T09:19:41.016Z</time></trkpt><trkpt lat="38.19561861802571" lon="15.31429282726463"><ele>50.0</ele><time>2026-04-26T09:19:42.022Z</time></trkpt><trkpt lat="38.19573746997695" lon="15.314832692980128"><ele>47.25</ele><time>2026-04-26T09:19:44Z</time></trkpt><trkpt lat="38.1957719176346" lon="15.315052139040903"><ele>44.5</ele><time>2026-04-26T09:19:45Z</time></trkpt><trkpt lat="38.19581015334247" lon="15.315241633454368"><ele>41.75</ele><time>2026-04-26T09:19:46Z</time></trkpt><trkpt lat="38.19582817034595" lon="15.315368619934222"><ele>39.0</ele><time>2026-04-26T09:19:47Z</time></trkpt><trkpt lat="38.195855486055734" lon="15.315494137917256"><ele>37.0</ele><time>2026-04-26T09:19:48Z</time></trkpt><trkpt lat="38.195887182569415" lon="15.315633093933391"><ele>35.0</ele><time>2026-04-26T09:19:49Z</time></trkpt><trkpt lat="38.19592750785513" lon="15.31576315444229"><ele>33.0</ele><time>2026-04-26T09:19:50Z</time></trkpt><trkpt lat="38.196002635099354" lon="15.315900549517085"><ele>31.0</ele><time>2026-04-26T09:19:51Z</time></trkpt><trkpt lat="38.19605716963944" lon="15.316050804259465"><ele>31.0</ele><time>2026-04-26T09:19:52Z</time></trkpt><trkpt lat="38.19610446409998" lon="15.316215577332414"><ele>31.0</ele><time>2026-04-26T09:19:53Z</time></trkpt><trkpt lat="38.19615997934124" lon="15.316392581896352"><ele>31.0</ele><time>2026-04-26T09:19:54Z</time></trkpt><trkpt lat="38.19622304438143" lon="15.316580132269385"><ele>31.0</ele><time>2026-04-26T09:19:55Z</time></trkpt><trkpt lat="38.1962922221492" lon="15.316779294384578"><ele>29.666666666666668</ele><time>2026-04-26T09:19:56Z</time></trkpt><trkpt lat="38.196363831316404" lon="15.316978729049323"><ele>28.333333333333336</ele><time>2026-04-26T09:19:57Z</time></trkpt><trkpt lat="38.19643859933124" lon="15.317183407140906"><ele>27.0</ele><time>2026-04-26T09:19:58Z</time></trkpt><trkpt lat="38.19651456996049" lon="15.31738453718211"><ele>26.0</ele><time>2026-04-26T09:19:59Z</time></trkpt><trkpt lat="38.19659169998114" lon="15.31758720352607"><ele>25.0</ele><time>2026-04-26T09:20:00Z</time></trkpt><trkpt lat="38.19666982345977" lon="15.317792480270741"><ele>24.0</ele><time>2026-04-26T09:20:01Z</time></trkpt><trkpt lat="38.196747640529125" lon="15.31799695190467"><ele>23.333333333333332</ele><time>2026-04-26T09:20:02Z</time></trkpt><trkpt lat="38.19682288969513" lon="15.318194676115311"><ele>22.666666666666664</ele><time>2026-04-26T09:20:03Z</time></trkpt><trkpt lat="38.19689881630301" lon="15.31839399010585"><ele>22.0</ele><time>2026-04-26T09:20:04Z</time></trkpt><trkpt lat="38.19697666835545" lon="15.318598233561712"><ele>22.0</ele><time>2026-04-26T09:20:05Z</time></trkpt><trkpt lat="38.197055080133566" lon="15.318803945462728"><ele>22.0</ele><time>2026-04-26T09:20:06Z</time></trkpt><trkpt lat="38.19713581689182" lon="15.319015756877914"><ele>22.0</ele><time>2026-04-26T09:20:07Z</time></trkpt><trkpt lat="38.19721843996497" lon="15.319232517025105"><ele>22.0</ele><time>2026-04-26T09:20:08Z</time></trkpt><trkpt lat="38.1973033889822" lon="15.319455379252565"><ele>22.0</ele><time>2026-04-26T09:20:09Z</time></trkpt><trkpt lat="38.1973915824495" lon="15.31968675068213"><ele>22.0</ele><time>2026-04-26T09:20:10Z</time></trkpt><trkpt lat="38.19748511497116" lon="15.319932131726187"><ele>22.0</ele><time>2026-04-26T09:20:11Z</time></trkpt><trkpt lat="38.19758802929334" lon="15.320202125345103"><ele>22.0</ele><time>2026-04-26T09:20:12Z</time></trkpt><trkpt lat="38.19769563462895" lon="15.320484426147312"><ele>21.5</ele><time>2026-04-26T09:20:13Z</time></trkpt><trkpt lat="38.1977990815798" lon="15.320755817525923"><ele>21.0</ele><time>2026-04-26T09:20:14Z</time></trkpt><trkpt lat="38.19789309898092" lon="15.321002470501769"><ele>21.0</ele><time>2026-04-26T09:20:15Z</time></trkpt><trkpt lat="38.19798290789325" lon="15.321238082557635"><ele>21.0</ele><time>2026-04-26T09:20:16Z</time></trkpt><trkpt lat="38.198065954714494" lon="15.32146138378984"><ele>21.0</ele><time>2026-04-26T09:20:17Z</time></trkpt><trkpt lat="38.198151216297006" lon="15.321691818350995"><ele>20.666666666666668</ele><time>2026-04-26T09:20:18Z</time></trkpt><trkpt lat="38.19823710454618" lon="15.32192814454602"><ele>20.333333333333336</ele><time>2026-04-26T09:20:19Z</time></trkpt><trkpt lat="38.19831737677267" lon="15.322169623872036"><ele>20.0</ele><time>2026-04-26T09:20:20Z</time></trkpt><trkpt lat="38.198396973770144" lon="15.32242328215371"><ele>20.0</ele><time>2026-04-26T09:20:21Z</time></trkpt><trkpt lat="38.19847565877581" lon="15.32268751711944"><ele>20.0</ele><time>2026-04-26T09:20:22Z</time></trkpt><trkpt lat="38.198549310729256" lon="15.322957367050652"><ele>20.0</ele><time>2026-04-26T09:20:23Z</time></trkpt><trkpt lat="38.198613947732476" lon="15.323218399795858"><ele>20.0</ele><time>2026-04-26T09:20:24Z</time></trkpt><trkpt lat="38.1986757696901" lon="15.323485397670368"><ele>20.0</ele><time>2026-04-26T09:20:25Z</time></trkpt><trkpt lat="38.198733243797456" lon="15.32375375853591"><ele>20.0</ele><time>2026-04-26T09:20:26Z</time></trkpt><trkpt lat="38.198784787719596" lon="15.324017900048423"><ele>20.666666666666668</ele><time>2026-04-26T09:20:27Z</time></trkpt><trkpt lat="38.19883005333822" lon="15.324275960458156"><ele>21.333333333333332</ele><time>2026-04-26T09:20:28Z</time></trkpt><trkpt lat="38.19886848121111" lon="15.324534115753744"><ele>22.0</ele><time>2026-04-26T09:20:29Z</time></trkpt><trkpt lat="38.19890214303552" lon="15.32478837506101"><ele>23.0</ele><time>2026-04-26T09:20:30Z</time></trkpt><trkpt lat="38.198932567944894" lon="15.325032805547366"><ele>24.0</ele><time>2026-04-26T09:20:31Z</time></trkpt><trkpt lat="38.19895361245905" lon="15.325287814341696"><ele>25.0</ele><time>2026-04-26T09:20:32Z</time></trkpt><trkpt lat="38.198975236283516" lon="15.325546780600435"><ele>28.666666666666668</ele><time>2026-04-26T09:20:33Z</time></trkpt><trkpt lat="38.19899401381714" lon="15.325807619919724"><ele>32.333333333333336</ele><time>2026-04-26T09:20:34Z</time></trkpt><trkpt lat="38.199006960732966" lon="15.326079994222994"><ele>36.0</ele><time>2026-04-26T09:20:35Z</time></trkpt><trkpt lat="38.19901888744739" lon="15.326343803726672"><ele>41.0</ele><time>2026-04-26T09:20:36Z</time></trkpt><trkpt lat="38.19903035508271" lon="15.326597458672952"><ele>46.0</ele><time>2026-04-26T09:20:37.025Z</time></trkpt><trkpt lat="38.199040662182455" lon="15.326825443571659"><ele>51.0</ele><time>2026-04-26T09:20:38.017Z</time></trkpt><trkpt lat="38.19905037308665" lon="15.327040399737653"><ele>56.66666666666667</ele><time>2026-04-26T09:20:39.016Z</time></trkpt><trkpt lat="38.19906028435945" lon="15.327259930824706"><ele>62.333333333333336</ele><time>2026-04-26T09:20:40.025Z</time></trkpt><trkpt lat="38.19907075194424" lon="15.327491784099635"><ele>68.0</ele><time>2026-04-26T09:20:41.023Z</time></trkpt><trkpt lat="38.19908129975344" lon="15.327725414197625"><ele>68.0</ele><time>2026-04-26T09:20:42.024Z</time></trkpt><trkpt lat="38.199091752330126" lon="15.3279569347004"><ele>68.0</ele><time>2026-04-26T09:20:43.024Z</time></trkpt><trkpt lat="38.19967428225856" lon="15.331613849862787"><ele>55.66666666666667</ele><time>2026-04-26T09:20:58Z</time></trkpt><trkpt lat="38.199721314814894" lon="15.331824189618995"><ele>43.333333333333336</ele><time>2026-04-26T09:20:59Z</time></trkpt><trkpt lat="38.19979408705431" lon="15.331989143559948"><ele>31.0</ele><time>2026-04-26T09:21:00Z</time></trkpt><trkpt lat="38.19983690557709" lon="15.332157142149194"><ele>28.75</ele><time>2026-04-26T09:21:01Z</time></trkpt><trkpt lat="38.1998877748842" lon="15.332329187147275"><ele>26.5</ele><time>2026-04-26T09:21:02Z</time></trkpt><trkpt lat="38.19993747028914" lon="15.332494546811342"><ele>24.25</ele><time>2026-04-26T09:21:03Z</time></trkpt><trkpt lat="38.19998828775665" lon="15.332648643977434"><ele>22.0</ele><time>2026-04-26T09:21:04Z</time></trkpt><trkpt lat="38.200036648998655" lon="15.332787966470784"><ele>22.0</ele><time>2026-04-26T09:21:05Z</time></trkpt><trkpt lat="38.200080501992986" lon="15.332914018243859"><ele>22.0</ele><time>2026-04-26T09:21:06Z</time></trkpt><trkpt lat="38.20011398768039" lon="15.333046391399131"><ele>22.0</ele><time>2026-04-26T09:21:07Z</time></trkpt><trkpt lat="38.20013077389715" lon="15.33319390501807"><ele>22.0</ele><time>2026-04-26T09:21:08Z</time></trkpt><trkpt lat="38.20013724340864" lon="15.333344003805172"><ele>22.25</ele><time>2026-04-26T09:21:09Z</time></trkpt><trkpt lat="38.2001416033781" lon="15.333501648330703"><ele>22.5</ele><time>2026-04-26T09:21:10Z</time></trkpt><trkpt lat="38.200169366771306" lon="15.333678907533912"><ele>22.75</ele><time>2026-04-26T09:21:11Z</time></trkpt><trkpt lat="38.200228925831944" lon="15.333875339211428"><ele>23.0</ele><time>2026-04-26T09:21:12Z</time></trkpt><trkpt lat="38.20031534063587" lon="15.334070199082873"><ele>23.0</ele><time>2026-04-26T09:21:13Z</time></trkpt><trkpt lat="38.200413850272504" lon="15.334295886438825"><ele>23.0</ele><time>2026-04-26T09:21:14Z</time></trkpt><trkpt lat="38.20051154084759" lon="15.334580269387263"><ele>23.0</ele><time>2026-04-26T09:21:15Z</time></trkpt><trkpt lat="38.200636076078446" lon="15.334894789663439"><ele>22.5</ele><time>2026-04-26T09:21:16Z</time></trkpt><trkpt lat="38.20077109141368" lon="15.335244490964586"><ele>22.0</ele><time>2026-04-26T09:21:17Z</time></trkpt><trkpt lat="38.20091829514224" lon="15.33562993153824"><ele>22.0</ele><time>2026-04-26T09:21:18Z</time></trkpt><trkpt lat="38.20106860346959" lon="15.336041566306267"><ele>22.0</ele><time>2026-04-26T09:21:19Z</time></trkpt><trkpt lat="38.20122144718985" lon="15.336474007310649"><ele>21.5</ele><time>2026-04-26T09:21:20Z</time></trkpt><trkpt lat="38.20137858892251" lon="15.336923504634582"><ele>21.0</ele><time>2026-04-26T09:21:21Z</time></trkpt><trkpt lat="38.20153190814168" lon="15.337394871497349"><ele>20.0</ele><time>2026-04-26T09:21:22Z</time></trkpt><trkpt lat="38.20168048056833" lon="15.337882478876322"><ele>19.0</ele><time>2026-04-26T09:21:23Z</time></trkpt><trkpt lat="38.20183670384182" lon="15.338379860140632"><ele>19.0</ele><time>2026-04-26T09:21:24Z</time></trkpt><trkpt lat="38.20199711592356" lon="15.33888337940384"><ele>19.0</ele><time>2026-04-26T09:21:25Z</time></trkpt><trkpt lat="38.20215930428528" lon="15.3393973711517"><ele>19.5</ele><time>2026-04-26T09:21:26Z</time></trkpt><trkpt lat="38.20231903265855" lon="15.339914821207792"><ele>20.0</ele><time>2026-04-26T09:21:27Z</time></trkpt><trkpt lat="38.2024874602603" lon="15.34043463969952"><ele>20.5</ele><time>2026-04-26T09:21:28Z</time></trkpt><trkpt lat="38.202664402618694" lon="15.340950758199833"><ele>21.0</ele><time>2026-04-26T09:21:29Z</time></trkpt><trkpt lat="38.20285886027768" lon="15.341459026099166"><ele>21.0</ele><time>2026-04-26T09:21:30Z</time></trkpt><trkpt lat="38.20307881778885" lon="15.341958158538416"><ele>20.0</ele><time>2026-04-26T09:21:31Z</time></trkpt><trkpt lat="38.20331424276835" lon="15.342441730067774"><ele>19.0</ele><time>2026-04-26T09:21:32Z</time></trkpt><trkpt lat="38.203570446065676" lon="15.34291603936675"><ele>19.0</ele><time>2026-04-26T09:21:33Z</time></trkpt><trkpt lat="38.203841595443855" lon="15.343376987544127"><ele>17.0</ele><time>2026-04-26T09:21:34Z</time></trkpt><trkpt lat="38.2041298643892" lon="15.343823022425127"><ele>18.0</ele><time>2026-04-26T09:21:35Z</time></trkpt><trkpt lat="38.204424479282224" lon="15.344264807152882"><ele>19.0</ele><time>2026-04-26T09:21:36Z</time></trkpt><trkpt lat="38.20471569286366" lon="15.344714828759615"><ele>18.0</ele><time>2026-04-26T09:21:37Z</time></trkpt><trkpt lat="38.20498770579453" lon="15.345174683011233"><ele>17.0</ele><time>2026-04-26T09:21:38Z</time></trkpt><trkpt lat="38.205230535769864" lon="15.345646675382088"><ele>16.0</ele><time>2026-04-26T09:21:39Z</time></trkpt><trkpt lat="38.205451809557786" lon="15.346135105803803"><ele>17.0</ele><time>2026-04-26T09:21:40Z</time></trkpt><trkpt lat="38.205644154856145" lon="15.346638446689562"><ele>18.0</ele><time>2026-04-26T09:21:41Z</time></trkpt><trkpt lat="38.20579879703929" lon="15.347145991477316"><ele>17.5</ele><time>2026-04-26T09:21:42Z</time></trkpt><trkpt lat="38.20592938992073" lon="15.34765470363062"><ele>17.0</ele><time>2026-04-26T09:21:43Z</time></trkpt><trkpt lat="38.20602837676237" lon="15.348167275238653"><ele>18.5</ele><time>2026-04-26T09:21:44Z</time></trkpt><trkpt lat="38.20609360820071" lon="15.348678081502662"><ele>20.0</ele><time>2026-04-26T09:21:45Z</time></trkpt><trkpt lat="38.20614182391704" lon="15.349193599466455"><ele>20.0</ele><time>2026-04-26T09:21:46Z</time></trkpt><trkpt lat="38.206172710889625" lon="15.349703572514354"><ele>20.0</ele><time>2026-04-26T09:21:47Z</time></trkpt><trkpt lat="38.20619932034121" lon="15.350216600854615"><ele>19.5</ele><time>2026-04-26T09:21:48Z</time></trkpt><trkpt lat="38.2062274238316" lon="15.350729725212672"><ele>19.0</ele><time>2026-04-26T09:21:49Z</time></trkpt><trkpt lat="38.20625590793197" lon="15.351251648871758"><ele>19.5</ele><time>2026-04-26T09:21:50Z</time></trkpt><trkpt lat="38.206283981802834" lon="15.351775751528805"><ele>20.0</ele><time>2026-04-26T09:21:51Z</time></trkpt><trkpt lat="38.206327266292966" lon="15.352301879269431"><ele>21.0</ele><time>2026-04-26T09:21:52Z</time></trkpt><trkpt lat="38.20637943243377" lon="15.352826095668627"><ele>22.0</ele><time>2026-04-26T09:21:53Z</time></trkpt><trkpt lat="38.20644308267376" lon="15.353342010064459"><ele>25.0</ele><time>2026-04-26T09:21:54Z</time></trkpt><trkpt lat="38.206528486025924" lon="15.353857264624846"><ele>28.0</ele><time>2026-04-26T09:21:55Z</time></trkpt><trkpt lat="38.206645603304345" lon="15.35436881560253"><ele>30.0</ele><time>2026-04-26T09:21:56Z</time></trkpt><trkpt lat="38.206772453720795" lon="15.354879410772954"><ele>32.0</ele><time>2026-04-26T09:21:57Z</time></trkpt><trkpt lat="38.20689359514882" lon="15.355398344545339"><ele>32.0</ele><time>2026-04-26T09:21:58Z</time></trkpt><trkpt lat="38.20700741663686" lon="15.355919497478354"><ele>32.0</ele><time>2026-04-26T09:21:59Z</time></trkpt><trkpt lat="38.20711605801074" lon="15.356443163649361"><ele>32.0</ele><time>2026-04-26T09:22:00Z</time></trkpt><trkpt lat="38.20722449681107" lon="15.356974516812944"><ele>32.0</ele><time>2026-04-26T09:22:01Z</time></trkpt><trkpt lat="38.20734160449535" lon="15.357501609894266"><ele>41.0</ele><time>2026-04-26T09:22:02Z</time></trkpt><trkpt lat="38.20747247883152" lon="15.358014279082767"><ele>50.0</ele><time>2026-04-26T09:22:03Z</time></trkpt><trkpt lat="38.20759649108845" lon="15.358520587471807"><ele>58.5</ele><time>2026-04-26T09:22:04Z</time></trkpt><trkpt lat="38.207699175702835" lon="15.359027093122341"><ele>67.0</ele><time>2026-04-26T09:22:05Z</time></trkpt><trkpt lat="38.207788070458484" lon="15.359534258646148"><ele>64.0</ele><time>2026-04-26T09:22:06.024Z</time></trkpt><trkpt lat="38.207850244776374" lon="15.360011779825395"><ele>61.0</ele><time>2026-04-26T09:22:07.023Z</time></trkpt><trkpt lat="38.20789198077711" lon="15.360487227972758"><ele>64.5</ele><time>2026-04-26T09:22:08.02Z</time></trkpt><trkpt lat="38.20792088062699" lon="15.36094986769711"><ele>68.0</ele><time>2026-04-26T09:22:09Z</time></trkpt><trkpt lat="38.20800082007345" lon="15.361439271388988"><ele>76.0</ele><time>2026-04-26T09:22:10Z</time></trkpt><trkpt lat="38.20804105225741" lon="15.361906482576584"><ele>84.0</ele><time>2026-04-26T09:22:11Z</time></trkpt><trkpt lat="38.20808358534758" lon="15.362377903832124"><ele>90.0</ele><time>2026-04-26T09:22:12.022Z</time></trkpt><trkpt lat="38.20813528004944" lon="15.362829435232864"><ele>96.0</ele><time>2026-04-26T09:22:13.019Z</time></trkpt><trkpt lat="38.208201301267145" lon="15.36327468331977"><ele>96.0</ele><time>2026-04-26T09:22:14.015Z</time></trkpt><trkpt lat="38.208284418201224" lon="15.363717319225461"><ele>96.0</ele><time>2026-04-26T09:22:15.014Z</time></trkpt><trkpt lat="38.208371935564074" lon="15.364161676923"><ele>42.0</ele><time>2026-04-26T09:22:16.018Z</time></trkpt><trkpt lat="38.20893284868282" lon="15.365662733107214"><ele>41.0</ele><time>2026-04-26T09:22:19Z</time></trkpt><trkpt lat="38.20908785886071" lon="15.366105935483477"><ele>40.0</ele><time>2026-04-26T09:22:20Z</time></trkpt><trkpt lat="38.20932365669516" lon="15.366527384383877"><ele>43.0</ele><time>2026-04-26T09:22:21Z</time></trkpt><trkpt lat="38.20954520108971" lon="15.366946923524358"><ele>46.0</ele><time>2026-04-26T09:22:22Z</time></trkpt><trkpt lat="38.20976852968425" lon="15.36737500618138"><ele>52.0</ele><time>2026-04-26T09:22:23Z</time></trkpt><trkpt lat="38.20997694498137" lon="15.367820207624536"><ele>58.0</ele><time>2026-04-26T09:22:24Z</time></trkpt><trkpt lat="38.21014420258592" lon="15.368222495628991"><ele>62.5</ele><time>2026-04-26T09:22:25Z</time></trkpt><trkpt lat="38.21031330415069" lon="15.368664603923994"><ele>67.0</ele><time>2026-04-26T09:22:26Z</time></trkpt><trkpt lat="38.21045854233503" lon="15.369130977985318"><ele>70.5</ele><time>2026-04-26T09:22:27Z</time></trkpt><trkpt lat="38.210592497521255" lon="15.369610897312983"><ele>74.0</ele><time>2026-04-26T09:22:28Z</time></trkpt><trkpt lat="38.21073138837907" lon="15.370095089814617"><ele>67.0</ele><time>2026-04-26T09:22:29Z</time></trkpt><trkpt lat="38.21087414986381" lon="15.370591459854456"><ele>60.0</ele><time>2026-04-26T09:22:30Z</time></trkpt><trkpt lat="38.211013315659876" lon="15.371101158508235"><ele>68.5</ele><time>2026-04-26T09:22:31Z</time></trkpt><trkpt lat="38.21115239669382" lon="15.371612973879115"><ele>77.0</ele><time>2026-04-26T09:22:32Z</time></trkpt><trkpt lat="38.21129729209245" lon="15.372140458677338"><ele>73.5</ele><time>2026-04-26T09:22:33Z</time></trkpt><trkpt lat="38.211445463631556" lon="15.37267918163874"><ele>70.0</ele><time>2026-04-26T09:22:34Z</time></trkpt><trkpt lat="38.21159956081676" lon="15.373236030159601"><ele>70.0</ele><time>2026-04-26T09:22:35.018Z</time></trkpt><trkpt lat="38.21175535087047" lon="15.373795070859194"><ele>61.0</ele><time>2026-04-26T09:22:36.027Z</time></trkpt><trkpt lat="38.21189667289587" lon="15.37431122817142"><ele>52.0</ele><time>2026-04-26T09:22:37Z</time></trkpt><trkpt lat="38.211975688678635" lon="15.374770084486627"><ele>50.5</ele><time>2026-04-26T09:22:38Z</time></trkpt><trkpt lat="38.21209408951859" lon="15.37524753873708"><ele>49.0</ele><time>2026-04-26T09:22:39Z</time></trkpt><trkpt lat="38.212220430947696" lon="15.37571673269792"><ele>51.0</ele><time>2026-04-26T09:22:40Z</time></trkpt><trkpt lat="38.21235534149337" lon="15.376170078359557"><ele>53.0</ele><time>2026-04-26T09:22:41Z</time></trkpt><trkpt lat="38.212503001111784" lon="15.376612229099022"><ele>63.5</ele><time>2026-04-26T09:22:42Z</time></trkpt><trkpt lat="38.21266446212544" lon="15.37704735710489"><ele>74.0</ele><time>2026-04-26T09:22:43Z</time></trkpt><trkpt lat="38.212836572710756" lon="15.377475458227158"><ele>82.0</ele><time>2026-04-26T09:22:44Z</time></trkpt><trkpt lat="38.21302798078366" lon="15.377903957791961"><ele>90.0</ele><time>2026-04-26T09:22:45.02Z</time></trkpt><trkpt lat="38.2132348278175" lon="15.378315808623015"><ele>90.0</ele><time>2026-04-26T09:22:46.024Z</time></trkpt><trkpt lat="38.21344934940408" lon="15.378714219028112"><ele>90.0</ele><time>2026-04-26T09:22:47.014Z</time></trkpt><trkpt lat="38.213678329474135" lon="15.379105357529347"><ele>89.5</ele><time>2026-04-26T09:22:48.015Z</time></trkpt><trkpt lat="38.21391395123745" lon="15.379491698270646"><ele>89.0</ele><time>2026-04-26T09:22:49.022Z</time></trkpt><trkpt lat="38.21448326114399" lon="15.380162168308514"><ele>77.0</ele><time>2026-04-26T09:22:51Z</time></trkpt><trkpt lat="38.214752201441776" lon="15.380507254746869"><ele>65.0</ele><time>2026-04-26T09:22:52Z</time></trkpt><trkpt lat="38.215038056487" lon="15.380824806258843"><ele>61.0</ele><time>2026-04-26T09:22:53Z</time></trkpt><trkpt lat="38.21533926001636" lon="15.381119034032041"><ele>57.0</ele><time>2026-04-26T09:22:54Z</time></trkpt><trkpt lat="38.21564071132945" lon="15.381416376149271"><ele>59.0</ele><time>2026-04-26T09:22:55Z</time></trkpt><trkpt lat="38.21594694647008" lon="15.381716311934278"><ele>61.0</ele><time>2026-04-26T09:22:56Z</time></trkpt><trkpt lat="38.216264982706136" lon="15.382027665642962"><ele>59.5</ele><time>2026-04-26T09:22:57Z</time></trkpt><trkpt lat="38.21658769002454" lon="15.382332802428852"><ele>58.0</ele><time>2026-04-26T09:22:58Z</time></trkpt><trkpt lat="38.21691192114897" lon="15.382638638125483"><ele>58.0</ele><time>2026-04-26T09:22:59Z</time></trkpt><trkpt lat="38.21722916979629" lon="15.382932906633352"><ele>58.0</ele><time>2026-04-26T09:23:00Z</time></trkpt><trkpt lat="38.21753937395944" lon="15.38322325589315"><ele>53.5</ele><time>2026-04-26T09:23:01Z</time></trkpt><trkpt lat="38.21783296721781" lon="15.38350210574922"><ele>49.0</ele><time>2026-04-26T09:23:02Z</time></trkpt><trkpt lat="38.2181142426179" lon="15.383769427998118"><ele>50.5</ele><time>2026-04-26T09:23:03Z</time></trkpt><trkpt lat="38.218385985948814" lon="15.384023904350006"><ele>52.0</ele><time>2026-04-26T09:23:04Z</time></trkpt><trkpt lat="38.218649245218565" lon="15.384265959344278"><ele>52.0</ele><time>2026-04-26T09:23:05Z</time></trkpt><trkpt lat="38.218902800923686" lon="15.38450138442588"><ele>52.0</ele><time>2026-04-26T09:23:06Z</time></trkpt><trkpt lat="38.219144002614854" lon="15.38472938810674"><ele>53.0</ele><time>2026-04-26T09:23:07Z</time></trkpt><trkpt lat="38.21937832056504" lon="15.384952602812696"><ele>54.0</ele><time>2026-04-26T09:23:08Z</time></trkpt><trkpt lat="38.21960246921806" lon="15.385165588825574"><ele>54.0</ele><time>2026-04-26T09:23:09Z</time></trkpt><trkpt lat="38.219808742890905" lon="15.38536514455939"><ele>54.0</ele><time>2026-04-26T09:23:10Z</time></trkpt><trkpt lat="38.2200049283584" lon="15.385551815825087"><ele>55.5</ele><time>2026-04-26T09:23:11Z</time></trkpt><trkpt lat="38.2201881515382" lon="15.385729621670603"><ele>57.0</ele><time>2026-04-26T09:23:12Z</time></trkpt><trkpt lat="38.22036355079144" lon="15.38589967850419"><ele>57.0</ele><time>2026-04-26T09:23:13Z</time></trkpt><trkpt lat="38.220536575995276" lon="15.386066511936361"><ele>57.0</ele><time>2026-04-26T09:23:14Z</time></trkpt><trkpt lat="38.22069914365041" lon="15.3862364954073"><ele>57.0</ele><time>2026-04-26T09:23:15Z</time></trkpt><trkpt lat="38.220851501373446" lon="15.386415459292579"><ele>59.0</ele><time>2026-04-26T09:23:16Z</time></trkpt><trkpt lat="38.220998077145616" lon="15.386595227297317"><ele>61.0</ele><time>2026-04-26T09:23:17Z</time></trkpt><trkpt lat="38.2211441938653" lon="15.386774675899458"><ele>63.0</ele><time>2026-04-26T09:23:18Z</time></trkpt><trkpt lat="38.22128812450238" lon="15.386962310767577"><ele>63.0</ele><time>2026-04-26T09:23:19.023Z</time></trkpt><trkpt lat="38.22142383289494" lon="15.387148197097297"><ele>63.0</ele><time>2026-04-26T09:23:20.017Z</time></trkpt><trkpt lat="38.22155787334241" lon="15.387339572078355"><ele>63.0</ele><time>2026-04-26T09:23:21.023Z</time></trkpt><trkpt lat="38.22168645977179" lon="15.387538074340155"><ele>67.33333333333333</ele><time>2026-04-26T09:23:22.017Z</time></trkpt><trkpt lat="38.22181292257375" lon="15.387748288264781"><ele>71.66666666666666</ele><time>2026-04-26T09:23:23.024Z</time></trkpt><trkpt lat="38.221935687389106" lon="15.387959776537329"><ele>76.0</ele><time>2026-04-26T09:23:24.024Z</time></trkpt><trkpt lat="38.222618401086166" lon="15.389221413075354"><ele>65.66666666666666</ele><time>2026-04-26T09:23:30Z</time></trkpt><trkpt lat="38.22271810515884" lon="15.389447744804585"><ele>55.33333333333333</ele><time>2026-04-26T09:23:31Z</time></trkpt><trkpt lat="38.222827213090454" lon="15.389682851187855"><ele>45.0</ele><time>2026-04-26T09:23:32Z</time></trkpt><trkpt lat="38.222925096902834" lon="15.389914596652513"><ele>43.333333333333336</ele><time>2026-04-26T09:23:33Z</time></trkpt><trkpt lat="38.22301176790277" lon="15.390155318969526"><ele>41.66666666666667</ele><time>2026-04-26T09:23:34Z</time></trkpt><trkpt lat="38.22310224709405" lon="15.390402458864777"><ele>40.0</ele><time>2026-04-26T09:23:35Z</time></trkpt><trkpt lat="38.223170916531544" lon="15.390636562733366"><ele>40.0</ele><time>2026-04-26T09:23:36Z</time></trkpt><trkpt lat="38.22325982354077" lon="15.390893171628"><ele>40.0</ele><time>2026-04-26T09:23:37Z</time></trkpt><trkpt lat="38.2233541923534" lon="15.391146875133224"><ele>40.0</ele><time>2026-04-26T09:23:38Z</time></trkpt><trkpt lat="38.2234415411728" lon="15.391397058907701"><ele>42.66666666666667</ele><time>2026-04-26T09:23:39Z</time></trkpt><trkpt lat="38.223530034301525" lon="15.39164341789608"><ele>45.333333333333336</ele><time>2026-04-26T09:23:40Z</time></trkpt><trkpt lat="38.22361627951158" lon="15.391884840038237"><ele>48.0</ele><time>2026-04-26T09:23:41Z</time></trkpt><trkpt lat="38.223701302329935" lon="15.392124408677704"><ele>54.33333333333333</ele><time>2026-04-26T09:23:42Z</time></trkpt><trkpt lat="38.22378201212884" lon="15.392361103547517"><ele>60.666666666666664</ele><time>2026-04-26T09:23:43Z</time></trkpt><trkpt lat="38.22386347677997" lon="15.3925984831576"><ele>67.0</ele><time>2026-04-26T09:23:44.015Z</time></trkpt><trkpt lat="38.22394226577377" lon="15.392830512735586"><ele>59.0</ele><time>2026-04-26T09:23:45.02Z</time></trkpt><trkpt lat="38.224016677495705" lon="15.393062548757477"><ele>51.0</ele><time>2026-04-26T09:23:46.026Z</time></trkpt><trkpt lat="38.224083613088325" lon="15.393287196684215"><ele>43.0</ele><time>2026-04-26T09:23:47Z</time></trkpt><trkpt lat="38.22415481106325" lon="15.393536648540767"><ele>43.0</ele><time>2026-04-26T09:23:48Z</time></trkpt><trkpt lat="38.224224692569955" lon="15.393778982672032"><ele>43.0</ele><time>2026-04-26T09:23:49Z</time></trkpt><trkpt lat="38.22428468220154" lon="15.394021680724181"><ele>43.0</ele><time>2026-04-26T09:23:50Z</time></trkpt><trkpt lat="38.22433757624762" lon="15.394267598044504"><ele>44.333333333333336</ele><time>2026-04-26T09:23:51Z</time></trkpt><trkpt lat="38.224391900962125" lon="15.394515419604632"><ele>45.666666666666664</ele><time>2026-04-26T09:23:52Z</time></trkpt><trkpt lat="38.22444169614709" lon="15.394763412975593"><ele>47.0</ele><time>2026-04-26T09:23:53Z</time></trkpt><trkpt lat="38.22448193978052" lon="15.39502173519303"><ele>39.666666666666664</ele><time>2026-04-26T09:23:54Z</time></trkpt><trkpt lat="38.22452499239865" lon="15.395276014713968"><ele>32.333333333333336</ele><time>2026-04-26T09:23:55Z</time></trkpt><trkpt lat="38.22457103920013" lon="15.395529968583787"><ele>25.0</ele><time>2026-04-26T09:23:56Z</time></trkpt><trkpt lat="38.224615335095756" lon="15.395783966974735"><ele>24.666666666666668</ele><time>2026-04-26T09:23:57Z</time></trkpt><trkpt lat="38.22466401883865" lon="15.396039628055817"><ele>24.333333333333336</ele><time>2026-04-26T09:23:58Z</time></trkpt><trkpt lat="38.22471321735259" lon="15.396294575297235"><ele>24.0</ele><time>2026-04-26T09:23:59Z</time></trkpt><trkpt lat="38.224756406020184" lon="15.396548708440577"><ele>24.0</ele><time>2026-04-26T09:24:00Z</time></trkpt><trkpt lat="38.22481011502265" lon="15.396802787850993"><ele>24.0</ele><time>2026-04-26T09:24:01Z</time></trkpt><trkpt lat="38.22486683575461" lon="15.397059491855122"><ele>24.0</ele><time>2026-04-26T09:24:02Z</time></trkpt><trkpt lat="38.22492678849795" lon="15.397318472369221"><ele>35.33333333333333</ele><time>2026-04-26T09:24:03Z</time></trkpt><trkpt lat="38.22499302499842" lon="15.397583602132437"><ele>46.666666666666664</ele><time>2026-04-26T09:24:04Z</time></trkpt><trkpt lat="38.22506625230997" lon="15.397857567950341"><ele>58.0</ele><time>2026-04-26T09:24:05.024Z</time></trkpt><trkpt lat="38.22513840482566" lon="15.398118392336993"><ele>60.33333333333333</ele><time>2026-04-26T09:24:06.024Z</time></trkpt><trkpt lat="38.22521466900084" lon="15.398368409288473"><ele>62.66666666666667</ele><time>2026-04-26T09:24:07.023Z</time></trkpt><trkpt lat="38.22529571704446" lon="15.398607001271793"><ele>65.0</ele><time>2026-04-26T09:24:08.015Z</time></trkpt><trkpt lat="38.225376648452446" lon="15.398838322832761"><ele>65.0</ele><time>2026-04-26T09:24:09.016Z</time></trkpt><trkpt lat="38.225468477186794" lon="15.399075838667436"><ele>65.0</ele><time>2026-04-26T09:24:10.024Z</time></trkpt><trkpt lat="38.225573405477625" lon="15.39933294973232"><ele>65.0</ele><time>2026-04-26T09:24:11.024Z</time></trkpt><trkpt lat="38.22600456423892" lon="15.400514602675475"><ele>57.0</ele><time>2026-04-26T09:24:14Z</time></trkpt><trkpt lat="38.22615208602612" lon="15.400903808255356"><ele>49.0</ele><time>2026-04-26T09:24:15Z</time></trkpt><trkpt lat="38.22635037337808" lon="15.40135306048032"><ele>42.0</ele><time>2026-04-26T09:24:16Z</time></trkpt><trkpt lat="38.22653403128819" lon="15.40181724835328"><ele>35.0</ele><time>2026-04-26T09:24:17Z</time></trkpt><trkpt lat="38.226708916601346" lon="15.402294774184039"><ele>35.0</ele><time>2026-04-26T09:24:18Z</time></trkpt><trkpt lat="38.22687534826742" lon="15.402785785060727"><ele>35.0</ele><time>2026-04-26T09:24:19Z</time></trkpt><trkpt lat="38.227042843712915" lon="15.403279673801793"><ele>39.5</ele><time>2026-04-26T09:24:20Z</time></trkpt><trkpt lat="38.227202657494125" lon="15.40378762451531"><ele>44.0</ele><time>2026-04-26T09:24:21Z</time></trkpt><trkpt lat="38.227346578069394" lon="15.404303217948554"><ele>36.5</ele><time>2026-04-26T09:24:22Z</time></trkpt><trkpt lat="38.227473021618415" lon="15.404827123690206"><ele>29.0</ele><time>2026-04-26T09:24:23Z</time></trkpt><trkpt lat="38.227579650587806" lon="15.405366932678941"><ele>34.0</ele><time>2026-04-26T09:24:24Z</time></trkpt><trkpt lat="38.22766316412542" lon="15.40591805893807"><ele>39.0</ele><time>2026-04-26T09:24:25Z</time></trkpt><trkpt lat="38.22773912769192" lon="15.406476563842931"><ele>50.5</ele><time>2026-04-26T09:24:26Z</time></trkpt><trkpt lat="38.227818677044276" lon="15.406995353770846"><ele>62.0</ele><time>2026-04-26T09:24:27Z</time></trkpt><trkpt lat="38.2279166399181" lon="15.407465236033808"><ele>69.0</ele><time>2026-04-26T09:24:28Z</time></trkpt><trkpt lat="38.22804131498955" lon="15.407906104581842"><ele>76.0</ele><time>2026-04-26T09:24:29.015Z</time></trkpt><trkpt lat="38.2281920872078" lon="15.408319863856462"><ele>59.0</ele><time>2026-04-26T09:24:30.015Z</time></trkpt><trkpt lat="38.228369794895855" lon="15.40871403230988"><ele>42.0</ele><time>2026-04-26T09:24:31.022Z</time></trkpt><trkpt lat="38.22856992473532" lon="15.409085397718261"><ele>34.5</ele><time>2026-04-26T09:24:32.018Z</time></trkpt><trkpt lat="38.228769108348146" lon="15.409449511688956"><ele>27.0</ele><time>2026-04-26T09:24:33Z</time></trkpt><trkpt lat="38.229194439417284" lon="15.409993653368556"><ele>25.5</ele><time>2026-04-26T09:24:34Z</time></trkpt><trkpt lat="38.22946914932845" lon="15.410402791549041"><ele>24.0</ele><time>2026-04-26T09:24:35Z</time></trkpt><trkpt lat="38.229722210041544" lon="15.410839136630727"><ele>23.0</ele><time>2026-04-26T09:24:36Z</time></trkpt><trkpt lat="38.229958350201045" lon="15.41130850362236"><ele>22.0</ele><time>2026-04-26T09:24:37Z</time></trkpt><trkpt lat="38.230194640183974" lon="15.41178465432503"><ele>20.5</ele><time>2026-04-26T09:24:38Z</time></trkpt><trkpt lat="38.230435043834376" lon="15.412262759872872"><ele>19.0</ele><time>2026-04-26T09:24:39Z</time></trkpt><trkpt lat="38.23066834575134" lon="15.412744510109873"><ele>26.0</ele><time>2026-04-26T09:24:40Z</time></trkpt><trkpt lat="38.23089887342539" lon="15.413233099816221"><ele>33.0</ele><time>2026-04-26T09:24:41Z</time></trkpt><trkpt lat="38.23112261729028" lon="15.413728083965216"><ele>28.5</ele><time>2026-04-26T09:24:42Z</time></trkpt><trkpt lat="38.23131987734818" lon="15.414217157777147"><ele>24.0</ele><time>2026-04-26T09:24:43Z</time></trkpt><trkpt lat="38.231481168360936" lon="15.414704352999735"><ele>24.0</ele><time>2026-04-26T09:24:44Z</time></trkpt><trkpt lat="38.23161007655553" lon="15.41519274142149"><ele>24.0</ele><time>2026-04-26T09:24:45Z</time></trkpt><trkpt lat="38.2317180188534" lon="15.415679657395907"><ele>28.0</ele><time>2026-04-26T09:24:46Z</time></trkpt><trkpt lat="38.2317999260351" lon="15.41616391920548"><ele>32.0</ele><time>2026-04-26T09:24:47Z</time></trkpt><trkpt lat="38.231856224240495" lon="15.416648826992576"><ele>34.0</ele><time>2026-04-26T09:24:48Z</time></trkpt><trkpt lat="38.23187850061006" lon="15.417131716542169"><ele>36.0</ele><time>2026-04-26T09:24:49Z</time></trkpt><trkpt lat="38.23187069580455" lon="15.417611836387113"><ele>35.5</ele><time>2026-04-26T09:24:50Z</time></trkpt><trkpt lat="38.23182797604883" lon="15.418090061861518"><ele>35.0</ele><time>2026-04-26T09:24:51Z</time></trkpt><trkpt lat="38.231761120106405" lon="15.418567000450004"><ele>30.0</ele><time>2026-04-26T09:24:52Z</time></trkpt><trkpt lat="38.23166573603677" lon="15.419024352239902"><ele>25.0</ele><time>2026-04-26T09:24:53Z</time></trkpt><trkpt lat="38.231548985562725" lon="15.41947972299079"><ele>25.0</ele><time>2026-04-26T09:24:54Z</time></trkpt><trkpt lat="38.23141860815404" lon="15.419926234737682"><ele>25.0</ele><time>2026-04-26T09:24:55Z</time></trkpt><trkpt lat="38.231287868806795" lon="15.420371162224162"><ele>26.0</ele><time>2026-04-26T09:24:56Z</time></trkpt><trkpt lat="38.231156837184784" lon="15.420801770198828"><ele>27.0</ele><time>2026-04-26T09:24:57Z</time></trkpt><trkpt lat="38.23103398377276" lon="15.421218587655362"><ele>28.0</ele><time>2026-04-26T09:24:58Z</time></trkpt><trkpt lat="38.230911904041015" lon="15.421624143697688"><ele>29.0</ele><time>2026-04-26T09:24:59Z</time></trkpt><trkpt lat="38.230791402514804" lon="15.422023452849661"><ele>28.5</ele><time>2026-04-26T09:25:00Z</time></trkpt><trkpt lat="38.23067402057413" lon="15.422413973548533"><ele>28.0</ele><time>2026-04-26T09:25:01Z</time></trkpt><trkpt lat="38.230563699972464" lon="15.422800603012593"><ele>28.5</ele><time>2026-04-26T09:25:02Z</time></trkpt><trkpt lat="38.23045775750295" lon="15.423182289495319"><ele>29.0</ele><time>2026-04-26T09:25:03Z</time></trkpt><trkpt lat="38.23036536723684" lon="15.423562998976713"><ele>31.0</ele><time>2026-04-26T09:25:04Z</time></trkpt><trkpt lat="38.2302887534786" lon="15.423943454026281"><ele>33.0</ele><time>2026-04-26T09:25:05Z</time></trkpt><trkpt lat="38.230223026722406" lon="15.4243259534009"><ele>35.5</ele><time>2026-04-26T09:25:06Z</time></trkpt><trkpt lat="38.230168584037465" lon="15.424697927560787"><ele>38.0</ele><time>2026-04-26T09:25:07Z</time></trkpt><trkpt lat="38.23012590300385" lon="15.425055256254554"><ele>38.0</ele><time>2026-04-26T09:25:08Z</time></trkpt><trkpt lat="38.23009877553035" lon="15.425413149017972"><ele>38.0</ele><time>2026-04-26T09:25:09Z</time></trkpt><trkpt lat="38.23007438769353" lon="15.425775664632287"><ele>40.0</ele><time>2026-04-26T09:25:10Z</time></trkpt><trkpt lat="38.230048444417285" lon="15.426147943475982"><ele>42.0</ele><time>2026-04-26T09:25:11.018Z</time></trkpt><trkpt lat="38.230020122689425" lon="15.426520558751497"><ele>48.5</ele><time>2026-04-26T09:25:12.025Z</time></trkpt><trkpt lat="38.22999409314626" lon="15.426897566151958"><ele>55.0</ele><time>2026-04-26T09:25:13.025Z</time></trkpt><trkpt lat="38.2299686752271" lon="15.427277164055784"><ele>46.0</ele><time>2026-04-26T09:25:14.024Z</time></trkpt><trkpt lat="38.229944933769055" lon="15.427654877804807"><ele>37.0</ele><time>2026-04-26T09:25:15.015Z</time></trkpt><trkpt lat="38.231531130185566" lon="15.432798173292943"><ele>37.5</ele><time>2026-04-26T09:25:29Z</time></trkpt><trkpt lat="38.23176968726064" lon="15.433076500076803"><ele>38.0</ele><time>2026-04-26T09:25:30Z</time></trkpt><trkpt lat="38.23201917324594" lon="15.433357589009427"><ele>38.0</ele><time>2026-04-26T09:25:31Z</time></trkpt><trkpt lat="38.232278226972916" lon="15.4336276256301"><ele>38.0</ele><time>2026-04-26T09:25:32Z</time></trkpt><trkpt lat="38.23252246833072" lon="15.433901543306062"><ele>41.5</ele><time>2026-04-26T09:25:33Z</time></trkpt><trkpt lat="38.23277237515927" lon="15.434180878639848"><ele>45.0</ele><time>2026-04-26T09:25:34Z</time></trkpt><trkpt lat="38.233027795277565" lon="15.434451898951417"><ele>39.5</ele><time>2026-04-26T09:25:35Z</time></trkpt><trkpt lat="38.233288827906094" lon="15.434715708022527"><ele>34.0</ele><time>2026-04-26T09:25:36Z</time></trkpt><trkpt lat="38.23355304155551" lon="15.434965675222864"><ele>34.0</ele><time>2026-04-26T09:25:37Z</time></trkpt><trkpt lat="38.23381610236433" lon="15.435200851613558"><ele>34.0</ele><time>2026-04-26T09:25:38Z</time></trkpt><trkpt lat="38.2340649223235" lon="15.435416229811619"><ele>37.0</ele><time>2026-04-26T09:25:39Z</time></trkpt><trkpt lat="38.23429728915283" lon="15.435618658037548"><ele>40.0</ele><time>2026-04-26T09:25:40Z</time></trkpt><trkpt lat="38.23450918245162" lon="15.435802908065575"><ele>40.0</ele><time>2026-04-26T09:25:41Z</time></trkpt><trkpt lat="38.23470992966566" lon="15.435975012738835"><ele>40.0</ele><time>2026-04-26T09:25:42Z</time></trkpt><trkpt lat="38.234899352939784" lon="15.436140870560568"><ele>43.66666666666667</ele><time>2026-04-26T09:25:43Z</time></trkpt><trkpt lat="38.235074381049174" lon="15.436303715639552"><ele>47.333333333333336</ele><time>2026-04-26T09:25:44Z</time></trkpt><trkpt lat="38.235251976342845" lon="15.436436407155112"><ele>51.0</ele><time>2026-04-26T09:25:45Z</time></trkpt><trkpt lat="38.235399167457985" lon="15.43657448658574"><ele>51.0</ele><time>2026-04-26T09:25:46Z</time></trkpt><trkpt lat="38.235489433579154" lon="15.436746568070577"><ele>51.0</ele><time>2026-04-26T09:25:47Z</time></trkpt><trkpt lat="38.235582325954184" lon="15.436868405745408"><ele>51.0</ele><time>2026-04-26T09:25:48Z</time></trkpt><trkpt lat="38.23566224756403" lon="15.436996653652352"><ele>51.0</ele><time>2026-04-26T09:25:49Z</time></trkpt><trkpt lat="38.23572497057724" lon="15.437120432206367"><ele>52.599999999999994</ele><time>2026-04-26T09:25:50Z</time></trkpt><trkpt lat="38.2357735101198" lon="15.437247084304683"><ele>54.2</ele><time>2026-04-26T09:25:51Z</time></trkpt><trkpt lat="38.23582591721742" lon="15.437360995220466"><ele>55.800000000000004</ele><time>2026-04-26T09:25:52Z</time></trkpt><trkpt lat="38.235880322575696" lon="15.437463816908283"><ele>57.400000000000006</ele><time>2026-04-26T09:25:53Z</time></trkpt><trkpt lat="38.23593583891937" lon="15.43756104056245"><ele>59.0</ele><time>2026-04-26T09:25:54Z</time></trkpt><trkpt lat="38.23598256058357" lon="15.437640188318039"><ele>59.0</ele><time>2026-04-26T09:25:55Z</time></trkpt><trkpt lat="38.236027214311946" lon="15.4377189391862"><ele>59.0</ele><time>2026-04-26T09:25:56Z</time></trkpt><trkpt lat="38.23606648516945" lon="15.437792489920183"><ele>59.0</ele><time>2026-04-26T09:25:57Z</time></trkpt><trkpt lat="38.23610414574588" lon="15.437867093222307"><ele>59.0</ele><time>2026-04-26T09:25:58Z</time></trkpt><trkpt lat="38.236146726793415" lon="15.437944928661565"><ele>59.0</ele><time>2026-04-26T09:25:59Z</time></trkpt><trkpt lat="38.23618978916646" lon="15.438013872124317"><ele>59.0</ele><time>2026-04-26T09:26:00Z</time></trkpt><trkpt lat="38.236229709539316" lon="15.438081777299786"><ele>59.0</ele><time>2026-04-26T09:26:01Z</time></trkpt><trkpt lat="38.236274333385545" lon="15.438152441442417"><ele>60.16666666666667</ele><time>2026-04-26T09:26:02Z</time></trkpt><trkpt lat="38.23632402348129" lon="15.438221518917695"><ele>61.333333333333336</ele><time>2026-04-26T09:26:03Z</time></trkpt><trkpt lat="38.23636809255035" lon="15.43828087900683"><ele>62.5</ele><time>2026-04-26T09:26:04Z</time></trkpt><trkpt lat="38.23643068071133" lon="15.438385717664596"><ele>63.66666666666667</ele><time>2026-04-26T09:26:06Z</time></trkpt><trkpt lat="38.23644637999928" lon="15.438475659908134"><ele>64.83333333333333</ele><time>2026-04-26T09:26:08Z</time></trkpt><trkpt lat="38.23643830241707" lon="15.438556905154604"><ele>66.0</ele><time>2026-04-26T09:26:11Z</time></trkpt><trkpt lat="38.236371093067106" lon="15.438591100561927"><ele>66.0</ele><time>2026-04-26T09:26:14Z</time></trkpt><trkpt lat="38.23631680390446" lon="15.438528282110175"><ele>66.0</ele><time>2026-04-26T09:26:16Z</time></trkpt><trkpt lat="38.236260778804734" lon="15.43848621349257"><ele>66.0</ele><time>2026-04-26T09:26:18Z</time></trkpt><trkpt lat="38.2361978999859" lon="15.438448758606897"><ele>66.0</ele><time>2026-04-26T09:26:20Z</time></trkpt><trkpt lat="38.23613926724948" lon="15.438399599447587"><ele>66.0</ele><time>2026-04-26T09:26:43Z</time></trkpt><trkpt lat="38.23607625961168" lon="15.438434615227495"><ele>66.0</ele><time>2026-04-26T09:26:49Z</time></trkpt><trkpt lat="38.23613705760374" lon="15.438404409242533"><ele>66.0</ele><time>2026-04-26T09:28:38Z</time></trkpt><trkpt lat="38.236165157203736" lon="15.438487017776422"><ele>66.0</ele><time>2026-04-26T09:31:04Z</time></trkpt><trkpt lat="38.23626195556175" lon="15.438521906407116"><ele>66.0</ele><time>2026-04-26T09:31:06Z</time></trkpt><trkpt lat="38.236338734181345" lon="15.438540225048152"><ele>66.0</ele><time>2026-04-26T09:31:08Z</time></trkpt><trkpt lat="38.236394916074225" lon="15.438584950936983"><ele>66.0</ele><time>2026-04-26T09:31:10Z</time></trkpt><trkpt lat="38.236446908275475" lon="15.438678488915423"><ele>66.0</ele><time>2026-04-26T09:31:12Z</time></trkpt><trkpt lat="38.23650227112489" lon="15.438759134135815"><ele>66.0</ele><time>2026-04-26T09:32:35Z</time></trkpt><trkpt lat="38.23659153156042" lon="15.438782815983442"><ele>64.75</ele><time>2026-04-26T09:32:37Z</time></trkpt><trkpt lat="38.2367009928578" lon="15.438806066446906"><ele>63.5</ele><time>2026-04-26T09:32:39Z</time></trkpt><trkpt lat="38.23677328920027" lon="15.438921068856883"><ele>62.25</ele><time>2026-04-26T09:32:41Z</time></trkpt><trkpt lat="38.2368603463013" lon="15.439022296190574"><ele>61.0</ele><time>2026-04-26T09:32:43Z</time></trkpt><trkpt lat="38.23695026943442" lon="15.439140814899526"><ele>60.99999999999999</ele><time>2026-04-26T09:32:45Z</time></trkpt><trkpt lat="38.23700210895986" lon="15.439206143629304"><ele>61.0</ele><time>2026-04-26T09:32:46Z</time></trkpt><trkpt lat="38.237051836172256" lon="15.43927636100106"><ele>61.0</ele><time>2026-04-26T09:32:47Z</time></trkpt><trkpt lat="38.23711367123604" lon="15.439349316471697"><ele>61.0</ele><time>2026-04-26T09:32:48Z</time></trkpt><trkpt lat="38.23718914514141" lon="15.439421467233483"><ele>60.99999999999999</ele><time>2026-04-26T09:32:49Z</time></trkpt><trkpt lat="38.237269899427424" lon="15.439493798456109"><ele>61.0</ele><time>2026-04-26T09:32:50Z</time></trkpt><trkpt lat="38.23734946818515" lon="15.439552505071527"><ele>61.599999999999994</ele><time>2026-04-26T09:32:51Z</time></trkpt><trkpt lat="38.237434125150784" lon="15.439600126640542"><ele>62.199999999999996</ele><time>2026-04-26T09:32:52Z</time></trkpt><trkpt lat="38.2375269851189" lon="15.439666648597278"><ele>62.800000000000004</ele><time>2026-04-26T09:32:53Z</time></trkpt><trkpt lat="38.23761278064847" lon="15.439733316369924"><ele>63.400000000000006</ele><time>2026-04-26T09:32:54Z</time></trkpt><trkpt lat="38.237694716409166" lon="15.439816580129145"><ele>64.0</ele><time>2026-04-26T09:32:55Z</time></trkpt><trkpt lat="38.23776105774097" lon="15.43991526246589"><ele>64.0</ele><time>2026-04-26T09:32:56Z</time></trkpt><trkpt lat="38.23782732811641" lon="15.440040490064725"><ele>64.0</ele><time>2026-04-26T09:32:57Z</time></trkpt><trkpt lat="38.237907025073405" lon="15.440192841615564"><ele>64.0</ele><time>2026-04-26T09:32:58Z</time></trkpt><trkpt lat="38.237996896566024" lon="15.44037606117626"><ele>64.0</ele><time>2026-04-26T09:32:59Z</time></trkpt><trkpt lat="38.238090597115416" lon="15.440590766110265"><ele>61.666666666666664</ele><time>2026-04-26T09:33:00Z</time></trkpt><trkpt lat="38.23818426854987" lon="15.440802241982029"><ele>59.33333333333333</ele><time>2026-04-26T09:33:01Z</time></trkpt><trkpt lat="38.23828120860087" lon="15.441021466306415"><ele>57.0</ele><time>2026-04-26T09:33:02Z</time></trkpt><trkpt lat="38.23837816346947" lon="15.441256481142956"><ele>52.0</ele><time>2026-04-26T09:33:03Z</time></trkpt><trkpt lat="38.23848203477477" lon="15.441507941864682"><ele>47.0</ele><time>2026-04-26T09:33:04Z</time></trkpt><trkpt lat="38.23859086933454" lon="15.441771940208206"><ele>47.0</ele><time>2026-04-26T09:33:05Z</time></trkpt><trkpt lat="38.23870113166313" lon="15.442041132233664"><ele>47.0</ele><time>2026-04-26T09:33:06Z</time></trkpt><trkpt lat="38.23881089889674" lon="15.442310364950131"><ele>45.0</ele><time>2026-04-26T09:33:07Z</time></trkpt><trkpt lat="38.238919271152405" lon="15.442576241075054"><ele>43.0</ele><time>2026-04-26T09:33:08Z</time></trkpt><trkpt lat="38.2390285921526" lon="15.442842129297306"><ele>37.0</ele><time>2026-04-26T09:33:09Z</time></trkpt><trkpt lat="38.239136592395504" lon="15.443104912297278"><ele>31.0</ele><time>2026-04-26T09:33:10Z</time></trkpt><trkpt lat="38.239249815841944" lon="15.443374690408541"><ele>31.0</ele><time>2026-04-26T09:33:11Z</time></trkpt><trkpt lat="38.23936266705926" lon="15.443644590512063"><ele>31.0</ele><time>2026-04-26T09:33:12Z</time></trkpt><trkpt lat="38.23947794520687" lon="15.443917303961783"><ele>30.5</ele><time>2026-04-26T09:33:13Z</time></trkpt><trkpt lat="38.239589488149015" lon="15.444198213105267"><ele>30.0</ele><time>2026-04-26T09:33:14Z</time></trkpt><trkpt lat="38.23970210037802" lon="15.444482732537477"><ele>30.0</ele><time>2026-04-26T09:33:15Z</time></trkpt><trkpt lat="38.23982157224121" lon="15.444769399598226"><ele>30.0</ele><time>2026-04-26T09:33:16Z</time></trkpt><trkpt lat="38.239941645511294" lon="15.445059776262235"><ele>30.0</ele><time>2026-04-26T09:33:17Z</time></trkpt><trkpt lat="38.240063398790326" lon="15.445355245651701"><ele>30.0</ele><time>2026-04-26T09:33:18Z</time></trkpt><trkpt lat="38.240190804711744" lon="15.445663473410352"><ele>29.5</ele><time>2026-04-26T09:33:19Z</time></trkpt><trkpt lat="38.240324649236186" lon="15.445989369786787"><ele>29.0</ele><time>2026-04-26T09:33:20Z</time></trkpt><trkpt lat="38.240472990356196" lon="15.446322127356398"><ele>28.0</ele><time>2026-04-26T09:33:21Z</time></trkpt><trkpt lat="38.24063393614295" lon="15.44664443217445"><ele>27.0</ele><time>2026-04-26T09:33:22Z</time></trkpt><trkpt lat="38.240804026752436" lon="15.446946274794442"><ele>31.0</ele><time>2026-04-26T09:33:23Z</time></trkpt><trkpt lat="38.24098272861296" lon="15.447229187981293"><ele>35.0</ele><time>2026-04-26T09:33:24Z</time></trkpt><trkpt lat="38.24117122750005" lon="15.44749805582247"><ele>35.0</ele><time>2026-04-26T09:33:25Z</time></trkpt><trkpt lat="38.241372655110546" lon="15.447744262514142"><ele>35.0</ele><time>2026-04-26T09:33:26Z</time></trkpt><trkpt lat="38.2415879376361" lon="15.447974475104608"><ele>36.5</ele><time>2026-04-26T09:33:27Z</time></trkpt><trkpt lat="38.241807282267274" lon="15.44818884591936"><ele>38.0</ele><time>2026-04-26T09:33:28Z</time></trkpt><trkpt lat="38.24202446946794" lon="15.448371941683101"><ele>38.0</ele><time>2026-04-26T09:33:29Z</time></trkpt><trkpt lat="38.24223391542046" lon="15.44852803397165"><ele>38.0</ele><time>2026-04-26T09:33:30Z</time></trkpt><trkpt lat="38.24243263600293" lon="15.448673986323893"><ele>37.666666666666664</ele><time>2026-04-26T09:33:31Z</time></trkpt><trkpt lat="38.24261957938146" lon="15.448809972013533"><ele>37.333333333333336</ele><time>2026-04-26T09:33:32Z</time></trkpt><trkpt lat="38.242798217567184" lon="15.448939179950093"><ele>37.0</ele><time>2026-04-26T09:33:33Z</time></trkpt><trkpt lat="38.242965166973775" lon="15.449057275680206"><ele>37.0</ele><time>2026-04-26T09:33:34Z</time></trkpt><trkpt lat="38.243122952029715" lon="15.449169335035892"><ele>37.0</ele><time>2026-04-26T09:33:35Z</time></trkpt><trkpt lat="38.24327323801183" lon="15.449283335334218"><ele>37.0</ele><time>2026-04-26T09:33:36Z</time></trkpt><trkpt lat="38.24341521674223" lon="15.449391856754016"><ele>35.5</ele><time>2026-04-26T09:33:37Z</time></trkpt><trkpt lat="38.24354761806712" lon="15.449495882119749"><ele>34.0</ele><time>2026-04-26T09:33:38Z</time></trkpt><trkpt lat="38.2436713768223" lon="15.449595035946487"><ele>32.5</ele><time>2026-04-26T09:33:39Z</time></trkpt><trkpt lat="38.24378920073045" lon="15.449684146618052"><ele>31.0</ele><time>2026-04-26T09:33:40Z</time></trkpt><trkpt lat="38.243904637036835" lon="15.449763995580115"><ele>30.0</ele><time>2026-04-26T09:33:41Z</time></trkpt><trkpt lat="38.244012312250135" lon="15.449841727533805"><ele>29.0</ele><time>2026-04-26T09:33:42Z</time></trkpt><trkpt lat="38.244110944819795" lon="15.449919650706601"><ele>28.0</ele><time>2026-04-26T09:33:43Z</time></trkpt><trkpt lat="38.244202159102024" lon="15.450003253935064"><ele>27.0</ele><time>2026-04-26T09:33:44Z</time></trkpt><trkpt lat="38.24428624919222" lon="15.45008708397014"><ele>27.0</ele><time>2026-04-26T09:33:45Z</time></trkpt><trkpt lat="38.2443739630127" lon="15.45015751707508"><ele>27.000000000000004</ele><time>2026-04-26T09:33:46Z</time></trkpt><trkpt lat="38.244457591948915" lon="15.45022356291083"><ele>27.000000000000004</ele><time>2026-04-26T09:33:47Z</time></trkpt><trkpt lat="38.24453259424772" lon="15.450290861717363"><ele>27.0</ele><time>2026-04-26T09:33:48Z</time></trkpt><trkpt lat="38.244604836735704" lon="15.450359179974416"><ele>27.0</ele><time>2026-04-26T09:33:49Z</time></trkpt><trkpt lat="38.244673225005485" lon="15.450424019162062"><ele>27.166666666666668</ele><time>2026-04-26T09:33:50Z</time></trkpt><trkpt lat="38.24473945743643" lon="15.450490865252844"><ele>27.333333333333336</ele><time>2026-04-26T09:33:51Z</time></trkpt><trkpt lat="38.244801629076875" lon="15.45055351871314"><ele>27.5</ele><time>2026-04-26T09:33:52Z</time></trkpt><trkpt lat="38.2448615872796" lon="15.450611465158302"><ele>27.666666666666668</ele><time>2026-04-26T09:33:53Z</time></trkpt><trkpt lat="38.24491910475509" lon="15.450669540200291"><ele>27.833333333333336</ele><time>2026-04-26T09:33:54Z</time></trkpt><trkpt lat="38.244977558476606" lon="15.450734725277089"><ele>28.0</ele><time>2026-04-26T09:33:55Z</time></trkpt><trkpt lat="38.24505234511469" lon="15.450812341280264"><ele>28.799999999999997</ele><time>2026-04-26T09:33:56Z</time></trkpt><trkpt lat="38.245132820819606" lon="15.450892338049188"><ele>29.599999999999998</ele><time>2026-04-26T09:33:57Z</time></trkpt><trkpt lat="38.245216840861445" lon="15.450979995442383"><ele>30.400000000000002</ele><time>2026-04-26T09:33:58Z</time></trkpt><trkpt lat="38.245304630886565" lon="15.451073306783226"><ele>31.200000000000003</ele><time>2026-04-26T09:33:59Z</time></trkpt><trkpt lat="38.24539465269009" lon="15.451175906293088"><ele>32.0</ele><time>2026-04-26T09:34:00Z</time></trkpt><trkpt lat="38.24547524077693" lon="15.451282793491663"><ele>33.25</ele><time>2026-04-26T09:34:01Z</time></trkpt><trkpt lat="38.245564419942326" lon="15.451387565796109"><ele>34.5</ele><time>2026-04-26T09:34:02Z</time></trkpt><trkpt lat="38.24565142474986" lon="15.45149252666352"><ele>35.75</ele><time>2026-04-26T09:34:03Z</time></trkpt><trkpt lat="38.2457343960155" lon="15.45159964237318"><ele>37.0</ele><time>2026-04-26T09:34:04Z</time></trkpt><trkpt lat="38.24581436745124" lon="15.451703796385416"><ele>37.0</ele><time>2026-04-26T09:34:05Z</time></trkpt><trkpt lat="38.245896496156526" lon="15.451806734094921"><ele>37.0</ele><time>2026-04-26T09:34:06Z</time></trkpt><trkpt lat="38.24597367682233" lon="15.451903107205926"><ele>37.0</ele><time>2026-04-26T09:34:07Z</time></trkpt><trkpt lat="38.24604929793406" lon="15.451996386032137"><ele>37.0</ele><time>2026-04-26T09:34:08Z</time></trkpt><trkpt lat="38.24611996239953" lon="15.452098560874346"><ele>37.0</ele><time>2026-04-26T09:34:09Z</time></trkpt><trkpt lat="38.24618931137758" lon="15.452183335646549"><ele>36.16666666666667</ele><time>2026-04-26T09:34:10Z</time></trkpt><trkpt lat="38.246242750369895" lon="15.452255450904048"><ele>35.333333333333336</ele><time>2026-04-26T09:34:11Z</time></trkpt><trkpt lat="38.2462981627136" lon="15.452324841005309"><ele>34.5</ele><time>2026-04-26T09:34:12Z</time></trkpt><trkpt lat="38.24635969002521" lon="15.452394312090611"><ele>33.666666666666664</ele><time>2026-04-26T09:34:13Z</time></trkpt><trkpt lat="38.24641007801653" lon="15.452463256696127"><ele>32.83333333333333</ele><time>2026-04-26T09:34:14Z</time></trkpt><trkpt lat="38.24646201127207" lon="15.452529510157392"><ele>32.0</ele><time>2026-04-26T09:34:15Z</time></trkpt><trkpt lat="38.24651698975461" lon="15.452590816108684"><ele>31.999999999999996</ele><time>2026-04-26T09:34:16Z</time></trkpt><trkpt lat="38.24656749427209" lon="15.452657343872787"><ele>32.0</ele><time>2026-04-26T09:34:17Z</time></trkpt><trkpt lat="38.24661673583938" lon="15.452726141384835"><ele>32.0</ele><time>2026-04-26T09:34:18Z</time></trkpt><trkpt lat="38.24667143085871" lon="15.45278358586827"><ele>32.0</ele><time>2026-04-26T09:34:19Z</time></trkpt><trkpt lat="38.24671465881798" lon="15.45284377174441"><ele>31.999999999999996</ele><time>2026-04-26T09:34:20Z</time></trkpt><trkpt lat="38.24677314900061" lon="15.452924354903784"><ele>32.0</ele><time>2026-04-26T09:34:22Z</time></trkpt><trkpt lat="38.24681970016654" lon="15.45301128141039"><ele>33.6</ele><time>2026-04-26T09:36:28Z</time></trkpt><trkpt lat="38.246907070530526" lon="15.453111657007227"><ele>35.2</ele><time>2026-04-26T09:36:30Z</time></trkpt><trkpt lat="38.24700640363382" lon="15.453231098378849"><ele>36.8</ele><time>2026-04-26T09:36:32Z</time></trkpt><trkpt lat="38.2470741951326" lon="15.453306671902507"><ele>38.4</ele><time>2026-04-26T09:36:33Z</time></trkpt><trkpt lat="38.24713769620228" lon="15.453404495044618"><ele>40.0</ele><time>2026-04-26T09:36:34Z</time></trkpt><trkpt lat="38.24720464040707" lon="15.453506611576183"><ele>40.0</ele><time>2026-04-26T09:36:35Z</time></trkpt><trkpt lat="38.24727153992313" lon="15.453633499852078"><ele>40.0</ele><time>2026-04-26T09:36:36Z</time></trkpt><trkpt lat="38.24735324833822" lon="15.453796517494844"><ele>40.0</ele><time>2026-04-26T09:36:37Z</time></trkpt><trkpt lat="38.24743872391198" lon="15.453973424671188"><ele>40.0</ele><time>2026-04-26T09:36:38Z</time></trkpt><trkpt lat="38.24752064141508" lon="15.454157390562726"><ele>36.0</ele><time>2026-04-26T09:36:39Z</time></trkpt><trkpt lat="38.247601970625055" lon="15.454358109908387"><ele>32.0</ele><time>2026-04-26T09:36:40Z</time></trkpt><trkpt lat="38.247679469508675" lon="15.454569487094698"><ele>28.0</ele><time>2026-04-26T09:36:41Z</time></trkpt><trkpt lat="38.24775012153604" lon="15.454781478894157"><ele>28.0</ele><time>2026-04-26T09:36:42Z</time></trkpt><trkpt lat="38.24780938390119" lon="15.454992564868022"><ele>28.0</ele><time>2026-04-26T09:36:43Z</time></trkpt><trkpt lat="38.24786453474489" lon="15.45521119290322"><ele>28.0</ele><time>2026-04-26T09:36:44Z</time></trkpt><trkpt lat="38.24792165623559" lon="15.455436335572388"><ele>32.66666666666667</ele><time>2026-04-26T09:36:45Z</time></trkpt><trkpt lat="38.247970420729814" lon="15.455689170837198"><ele>37.333333333333336</ele><time>2026-04-26T09:36:46Z</time></trkpt><trkpt lat="38.24800643837169" lon="15.455941998242409"><ele>42.0</ele><time>2026-04-26T09:36:47Z</time></trkpt><trkpt lat="38.24804110617942" lon="15.456233629773031"><ele>49.5</ele><time>2026-04-26T09:36:48Z</time></trkpt><trkpt lat="38.24806779555629" lon="15.456544418199922"><ele>57.0</ele><time>2026-04-26T09:36:49Z</time></trkpt><trkpt lat="38.24809959040528" lon="15.456916429321149"><ele>64.0</ele><time>2026-04-26T09:36:50.024Z</time></trkpt><trkpt lat="38.24812764427707" lon="15.457224091952328"><ele>71.0</ele><time>2026-04-26T09:36:51.024Z</time></trkpt><trkpt lat="38.24816436284948" lon="15.457541839851988"><ele>71.0</ele><time>2026-04-26T09:36:52.025Z</time></trkpt><trkpt lat="38.248212875241094" lon="15.457854011165537"><ele>71.0</ele><time>2026-04-26T09:36:53.018Z</time></trkpt><trkpt lat="38.24821882783524" lon="15.458157308676402"><ele>69.0</ele><time>2026-04-26T09:36:54.024Z</time></trkpt><trkpt lat="38.24823587602321" lon="15.458439508106117"><ele>67.0</ele><time>2026-04-26T09:36:55.024Z</time></trkpt><trkpt lat="38.248248812893934" lon="15.458642486924987"><ele>65.0</ele><time>2026-04-26T09:36:56.025Z</time></trkpt><trkpt lat="38.24827050979605" lon="15.458915804236243"><ele>58.5</ele><time>2026-04-26T09:36:57.026Z</time></trkpt><trkpt lat="38.24831255226605" lon="15.459280603254618"><ele>52.0</ele><time>2026-04-26T09:36:58Z</time></trkpt><trkpt lat="38.248394059199825" lon="15.460171366209808"><ele>52.0</ele><time>2026-04-26T09:36:59Z</time></trkpt><trkpt lat="38.248497793378746" lon="15.460505011297824"><ele>52.0</ele><time>2026-04-26T09:37:00Z</time></trkpt><trkpt lat="38.24861216000687" lon="15.460823535323795"><ele>52.0</ele><time>2026-04-26T09:37:01Z</time></trkpt><trkpt lat="38.2487244747315" lon="15.461138627102125"><ele>52.0</ele><time>2026-04-26T09:37:02Z</time></trkpt><trkpt lat="38.248900249657275" lon="15.461458714860804"><ele>54.0</ele><time>2026-04-26T09:37:03Z</time></trkpt><trkpt lat="38.249042177230486" lon="15.461757850816332"><ele>56.0</ele><time>2026-04-26T09:37:04Z</time></trkpt><trkpt lat="38.24921962016529" lon="15.462065358234003"><ele>62.0</ele><time>2026-04-26T09:37:05Z</time></trkpt><trkpt lat="38.24940169413216" lon="15.462370720770142"><ele>68.0</ele><time>2026-04-26T09:37:06Z</time></trkpt><trkpt lat="38.249585122832585" lon="15.46267984143215"><ele>64.0</ele><time>2026-04-26T09:37:07Z</time></trkpt><trkpt lat="38.24977079589196" lon="15.462992740456562"><ele>60.0</ele><time>2026-04-26T09:37:08Z</time></trkpt><trkpt lat="38.24995594752391" lon="15.463314839257542"><ele>60.0</ele><time>2026-04-26T09:37:09Z</time></trkpt><trkpt lat="38.25014064189141" lon="15.463640305612214"><ele>60.0</ele><time>2026-04-26T09:37:10Z</time></trkpt><trkpt lat="38.25033086410268" lon="15.463961853489645"><ele>66.0</ele><time>2026-04-26T09:37:11Z</time></trkpt><trkpt lat="38.250507153467474" lon="15.464290274561392"><ele>72.0</ele><time>2026-04-26T09:37:12Z</time></trkpt><trkpt lat="38.250679440951856" lon="15.464623680302864"><ele>72.0</ele><time>2026-04-26T09:37:13Z</time></trkpt><trkpt lat="38.25082000010047" lon="15.464970896146383"><ele>72.0</ele><time>2026-04-26T09:37:14Z</time></trkpt><trkpt lat="38.25093454832604" lon="15.465314355381684"><ele>75.5</ele><time>2026-04-26T09:37:15Z</time></trkpt><trkpt lat="38.251038004760545" lon="15.465664164347489"><ele>79.0</ele><time>2026-04-26T09:37:16Z</time></trkpt><trkpt lat="38.251103825031905" lon="15.466010213477752"><ele>82.5</ele><time>2026-04-26T09:37:17Z</time></trkpt><trkpt lat="38.251181269757005" lon="15.466370793887767"><ele>86.0</ele><time>2026-04-26T09:37:18Z</time></trkpt><trkpt lat="38.251230256130185" lon="15.466729897107202"><ele>86.0</ele><time>2026-04-26T09:37:19Z</time></trkpt><trkpt lat="38.251262807001844" lon="15.467087872950543"><ele>86.0</ele><time>2026-04-26T09:37:20Z</time></trkpt><trkpt lat="38.251286017409704" lon="15.46743835638558"><ele>89.5</ele><time>2026-04-26T09:37:21Z</time></trkpt><trkpt lat="38.251320310626014" lon="15.467776832913872"><ele>93.0</ele><time>2026-04-26T09:37:22Z</time></trkpt><trkpt lat="38.25127015091259" lon="15.468113034387217"><ele>93.5</ele><time>2026-04-26T09:37:23Z</time></trkpt><trkpt lat="38.251239546275706" lon="15.468439682996342"><ele>94.0</ele><time>2026-04-26T09:37:24Z</time></trkpt><trkpt lat="38.25118639943399" lon="15.468754322918612"><ele>87.5</ele><time>2026-04-26T09:37:25Z</time></trkpt><trkpt lat="38.25112413852191" lon="15.469068913013757"><ele>81.0</ele><time>2026-04-26T09:37:26Z</time></trkpt><trkpt lat="38.251046785625995" lon="15.469372406238353"><ele>75.0</ele><time>2026-04-26T09:37:27Z</time></trkpt><trkpt lat="38.2509583276935" lon="15.46967115935226"><ele>69.0</ele><time>2026-04-26T09:37:28Z</time></trkpt><trkpt lat="38.25085600623676" lon="15.469960048046165"><ele>69.0</ele><time>2026-04-26T09:37:29Z</time></trkpt><trkpt lat="38.25074040079367" lon="15.470242977566086"><ele>69.0</ele><time>2026-04-26T09:37:30Z</time></trkpt><trkpt lat="38.25061365168014" lon="15.470514967842194"><ele>67.5</ele><time>2026-04-26T09:37:31Z</time></trkpt><trkpt lat="38.25047578748836" lon="15.47078128789771"><ele>66.0</ele><time>2026-04-26T09:37:32Z</time></trkpt><trkpt lat="38.25032484507891" lon="15.471033065811568"><ele>67.5</ele><time>2026-04-26T09:37:33Z</time></trkpt><trkpt lat="38.250164372282995" lon="15.47127605461375"><ele>69.0</ele><time>2026-04-26T09:37:34Z</time></trkpt><trkpt lat="38.24999324937541" lon="15.471502165922432"><ele>69.0</ele><time>2026-04-26T09:37:35Z</time></trkpt><trkpt lat="38.249814811323404" lon="15.471721124394506"><ele>69.0</ele><time>2026-04-26T09:37:36Z</time></trkpt><trkpt lat="38.249624363272865" lon="15.471927603335505"><ele>74.5</ele><time>2026-04-26T09:37:37Z</time></trkpt><trkpt lat="38.2494247049254" lon="15.472122322981383"><ele>80.0</ele><time>2026-04-26T09:37:38Z</time></trkpt><trkpt lat="38.249215455952566" lon="15.472306124239099"><ele>80.0</ele><time>2026-04-26T09:37:39Z</time></trkpt><trkpt lat="38.24899983536099" lon="15.47247391931221"><ele>80.0</ele><time>2026-04-26T09:37:40Z</time></trkpt><trkpt lat="38.24877283746986" lon="15.47263182208066"><ele>80.5</ele><time>2026-04-26T09:37:41Z</time></trkpt><trkpt lat="38.24853560458311" lon="15.472790141883081"><ele>81.0</ele><time>2026-04-26T09:37:42Z</time></trkpt><trkpt lat="38.248297954880925" lon="15.472955312607553"><ele>89.0</ele><time>2026-04-26T09:37:43Z</time></trkpt><trkpt lat="38.24805687087405" lon="15.473121732685405"><ele>97.0</ele><time>2026-04-26T09:37:44Z</time></trkpt><trkpt lat="38.247812887049015" lon="15.473283283807454"><ele>97.0</ele><time>2026-04-26T09:37:45Z</time></trkpt><trkpt lat="38.24756502210589" lon="15.473436826486475"><ele>97.0</ele><time>2026-04-26T09:37:46Z</time></trkpt><trkpt lat="38.24731631052123" lon="15.473589084361622"><ele>95.5</ele><time>2026-04-26T09:37:47Z</time></trkpt><trkpt lat="38.24707367986564" lon="15.47375847566391"><ele>94.0</ele><time>2026-04-26T09:37:48Z</time></trkpt><trkpt lat="38.24683913586928" lon="15.473942308980558"><ele>90.5</ele><time>2026-04-26T09:37:49Z</time></trkpt><trkpt lat="38.2466077780943" lon="15.474134579995328"><ele>87.0</ele><time>2026-04-26T09:37:50Z</time></trkpt><trkpt lat="38.246388324308676" lon="15.474350886689596"><ele>87.0</ele><time>2026-04-26T09:37:51Z</time></trkpt><trkpt lat="38.24618369549746" lon="15.474584496402684"><ele>87.0</ele><time>2026-04-26T09:37:52Z</time></trkpt><trkpt lat="38.245987754857765" lon="15.4748362017087"><ele>96.5</ele><time>2026-04-26T09:37:53Z</time></trkpt><trkpt lat="38.24580755728402" lon="15.47510491851202"><ele>106.0</ele><time>2026-04-26T09:37:54Z</time></trkpt><trkpt lat="38.245641433115296" lon="15.475384913193125"><ele>100.5</ele><time>2026-04-26T09:37:55Z</time></trkpt><trkpt lat="38.2454894835183" lon="15.475678948412673"><ele>95.0</ele><time>2026-04-26T09:37:56Z</time></trkpt><trkpt lat="38.24534964355058" lon="15.47598201769771"><ele>106.0</ele><time>2026-04-26T09:37:57Z</time></trkpt><trkpt lat="38.24522137575972" lon="15.476294571834693"><ele>117.0</ele><time>2026-04-26T09:37:58Z</time></trkpt><trkpt lat="38.245103957265634" lon="15.476616962757811"><ele>117.0</ele><time>2026-04-26T09:37:59Z</time></trkpt><trkpt lat="38.24499226206136" lon="15.476947283472477"><ele>117.0</ele><time>2026-04-26T09:38:00Z</time></trkpt><trkpt lat="38.24487527504308" lon="15.477278053042308"><ele>122.0</ele><time>2026-04-26T09:38:01Z</time></trkpt><trkpt lat="38.244748471279095" lon="15.477611186238335"><ele>127.0</ele><time>2026-04-26T09:38:02Z</time></trkpt><trkpt lat="38.24461161562404" lon="15.477952182118743"><ele>135.0</ele><time>2026-04-26T09:38:03.022Z</time></trkpt><trkpt lat="38.24447073237798" lon="15.47829096249564"><ele>143.0</ele><time>2026-04-26T09:38:04.025Z</time></trkpt><trkpt lat="38.244314078914684" lon="15.47862207337684"><ele>141.0</ele><time>2026-04-26T09:38:05.025Z</time></trkpt><trkpt lat="38.244138651482366" lon="15.478939494618425"><ele>139.0</ele><time>2026-04-26T09:38:06.023Z</time></trkpt><trkpt lat="38.24394925645981" lon="15.479246996431364"><ele>126.5</ele><time>2026-04-26T09:38:07.027Z</time></trkpt><trkpt lat="38.24379624336794" lon="15.479518985390177"><ele>114.0</ele><time>2026-04-26T09:38:08Z</time></trkpt><trkpt lat="38.243581073954864" lon="15.479795358490554"><ele>114.0</ele><time>2026-04-26T09:38:09Z</time></trkpt><trkpt lat="38.243383341855505" lon="15.480064432952728"><ele>114.0</ele><time>2026-04-26T09:38:10Z</time></trkpt><trkpt lat="38.24317986714172" lon="15.480324051231815"><ele>116.5</ele><time>2026-04-26T09:38:11Z</time></trkpt><trkpt lat="38.24297662956036" lon="15.48058207793088"><ele>119.0</ele><time>2026-04-26T09:38:12Z</time></trkpt><trkpt lat="38.24277995757704" lon="15.480844305960632"><ele>119.0</ele><time>2026-04-26T09:38:13Z</time></trkpt><trkpt lat="38.24259312922316" lon="15.481120288453612"><ele>119.0</ele><time>2026-04-26T09:38:14Z</time></trkpt><trkpt lat="38.24241951907998" lon="15.481410516975059"><ele>134.0</ele><time>2026-04-26T09:38:15Z</time></trkpt><trkpt lat="38.24225979762349" lon="15.48170944390576"><ele>149.0</ele><time>2026-04-26T09:38:16Z</time></trkpt><trkpt lat="38.24211904163239" lon="15.482019682507806"><ele>151.5</ele><time>2026-04-26T09:38:17Z</time></trkpt><trkpt lat="38.24199137059785" lon="15.482337274065157"><ele>154.0</ele><time>2026-04-26T09:38:18Z</time></trkpt><trkpt lat="38.241875084283436" lon="15.482663825706211"><ele>153.0</ele><time>2026-04-26T09:38:19Z</time></trkpt><trkpt lat="38.24177676517102" lon="15.483002526968868"><ele>152.0</ele><time>2026-04-26T09:38:20Z</time></trkpt><trkpt lat="38.24169643285903" lon="15.48335043418406"><ele>152.0</ele><time>2026-04-26T09:38:21Z</time></trkpt><trkpt lat="38.24163036923977" lon="15.483706364984727"><ele>152.0</ele><time>2026-04-26T09:38:22Z</time></trkpt><trkpt lat="38.241567822672486" lon="15.484063883133624"><ele>151.5</ele><time>2026-04-26T09:38:23Z</time></trkpt><trkpt lat="38.241513047323025" lon="15.484430654574789"><ele>151.0</ele><time>2026-04-26T09:38:24Z</time></trkpt><trkpt lat="38.24145646779859" lon="15.484806713947808"><ele>153.0</ele><time>2026-04-26T09:38:25Z</time></trkpt><trkpt lat="38.24139377139922" lon="15.48518224015202"><ele>155.0</ele><time>2026-04-26T09:38:26Z</time></trkpt><trkpt lat="38.24132768166306" lon="15.485561159912109"><ele>157.0</ele><time>2026-04-26T09:38:27Z</time></trkpt><trkpt lat="38.24126227512922" lon="15.485943026946272"><ele>159.0</ele><time>2026-04-26T09:38:28Z</time></trkpt><trkpt lat="38.24119877401207" lon="15.486325001149982"><ele>160.5</ele><time>2026-04-26T09:38:29Z</time></trkpt><trkpt lat="38.241132009780564" lon="15.486712210059716"><ele>162.0</ele><time>2026-04-26T09:38:30Z</time></trkpt><trkpt lat="38.24104249459265" lon="15.487087923415071"><ele>163.0</ele><time>2026-04-26T09:38:31Z</time></trkpt><trkpt lat="38.24093666718157" lon="15.487460221476425"><ele>164.0</ele><time>2026-04-26T09:38:32Z</time></trkpt><trkpt lat="38.24081537239693" lon="15.487832120311134"><ele>161.0</ele><time>2026-04-26T09:38:33Z</time></trkpt><trkpt lat="38.24069096603541" lon="15.48820568875888"><ele>158.0</ele><time>2026-04-26T09:38:34Z</time></trkpt><trkpt lat="38.24057104062074" lon="15.488581493005615"><ele>159.0</ele><time>2026-04-26T09:38:35Z</time></trkpt><trkpt lat="38.24044825401796" lon="15.488960584906716"><ele>160.0</ele><time>2026-04-26T09:38:36Z</time></trkpt><trkpt lat="38.2403228489276" lon="15.489338068249113"><ele>164.0</ele><time>2026-04-26T09:38:37Z</time></trkpt><trkpt lat="38.24019834757226" lon="15.489729019635444"><ele>168.0</ele><time>2026-04-26T09:38:38Z</time></trkpt><trkpt lat="38.2400761561354" lon="15.490127979025337"><ele>172.5</ele><time>2026-04-26T09:38:39Z</time></trkpt><trkpt lat="38.239957310012954" lon="15.490536269742446"><ele>177.0</ele><time>2026-04-26T09:38:40Z</time></trkpt><trkpt lat="38.23984992737965" lon="15.490959489788173"><ele>170.5</ele><time>2026-04-26T09:38:41Z</time></trkpt><trkpt lat="38.23975636284877" lon="15.491392641764273"><ele>164.0</ele><time>2026-04-26T09:38:42Z</time></trkpt><trkpt lat="38.23967673412342" lon="15.491841286698554"><ele>167.0</ele><time>2026-04-26T09:38:43Z</time></trkpt><trkpt lat="38.239614013045646" lon="15.492307358352747"><ele>170.0</ele><time>2026-04-26T09:38:44Z</time></trkpt><trkpt lat="38.239562077845356" lon="15.492782763180672"><ele>175.0</ele><time>2026-04-26T09:38:45Z</time></trkpt><trkpt lat="38.23951264436481" lon="15.493256965463441"><ele>180.0</ele><time>2026-04-26T09:38:46Z</time></trkpt><trkpt lat="38.23945521190008" lon="15.493727525826902"><ele>181.0</ele><time>2026-04-26T09:38:47Z</time></trkpt><trkpt lat="38.23939766470628" lon="15.494196708748058"><ele>182.0</ele><time>2026-04-26T09:38:48Z</time></trkpt><trkpt lat="38.239340885089504" lon="15.494668832265582"><ele>183.5</ele><time>2026-04-26T09:38:49Z</time></trkpt><trkpt lat="38.23928251603305" lon="15.495139705062174"><ele>185.0</ele><time>2026-04-26T09:38:50Z</time></trkpt><trkpt lat="38.23920721786759" lon="15.495607979508652"><ele>191.0</ele><time>2026-04-26T09:38:51Z</time></trkpt><trkpt lat="38.23910763198155" lon="15.49606727678498"><ele>197.0</ele><time>2026-04-26T09:38:52Z</time></trkpt><trkpt lat="38.23898247497116" lon="15.496512543176337"><ele>198.0</ele><time>2026-04-26T09:38:53Z</time></trkpt><trkpt lat="38.23882882414719" lon="15.496935096465878"><ele>199.0</ele><time>2026-04-26T09:38:54Z</time></trkpt><trkpt lat="38.23864861969198" lon="15.497332568523026"><ele>199.0</ele><time>2026-04-26T09:38:55Z</time></trkpt><trkpt lat="38.23844324737769" lon="15.497706685346543"><ele>199.0</ele><time>2026-04-26T09:38:56Z</time></trkpt><trkpt lat="38.238221783462905" lon="15.498064817995648"><ele>199.0</ele><time>2026-04-26T09:38:57Z</time></trkpt><trkpt lat="38.237973635835466" lon="15.498393679235235"><ele>199.0</ele><time>2026-04-26T09:38:58Z</time></trkpt><trkpt lat="38.23770805026128" lon="15.498691648089606"><ele>200.5</ele><time>2026-04-26T09:38:59Z</time></trkpt><trkpt lat="38.23742969948143" lon="15.498964026583197"><ele>202.0</ele><time>2026-04-26T09:39:00Z</time></trkpt><trkpt lat="38.237130433796416" lon="15.499210815356431"><ele>202.0</ele><time>2026-04-26T09:39:01Z</time></trkpt><trkpt lat="38.23682211800349" lon="15.49943076341211"><ele>202.0</ele><time>2026-04-26T09:39:02Z</time></trkpt><trkpt lat="38.236506935981076" lon="15.499640524408827"><ele>205.0</ele><time>2026-04-26T09:39:03Z</time></trkpt><trkpt lat="38.23619275212007" lon="15.49984648897636"><ele>208.0</ele><time>2026-04-26T09:39:04Z</time></trkpt><trkpt lat="38.23587704506053" lon="15.500061995930897"><ele>206.5</ele><time>2026-04-26T09:39:05Z</time></trkpt><trkpt lat="38.235564884725456" lon="15.500296570287624"><ele>205.0</ele><time>2026-04-26T09:39:06Z</time></trkpt><trkpt lat="38.235257029261845" lon="15.50055616804674"><ele>207.5</ele><time>2026-04-26T09:39:07Z</time></trkpt><trkpt lat="38.23495176744593" lon="15.50083201183462"><ele>210.0</ele><time>2026-04-26T09:39:08Z</time></trkpt><trkpt lat="38.23464330300559" lon="15.501120345813474"><ele>214.0</ele><time>2026-04-26T09:39:09Z</time></trkpt><trkpt lat="38.234332759184646" lon="15.501411296372979"><ele>218.0</ele><time>2026-04-26T09:39:10Z</time></trkpt><trkpt lat="38.23402104947669" lon="15.501690119625305"><ele>219.5</ele><time>2026-04-26T09:39:11Z</time></trkpt><trkpt lat="38.23370851136406" lon="15.501954178409356"><ele>221.0</ele><time>2026-04-26T09:39:12Z</time></trkpt><trkpt lat="38.233392435736555" lon="15.50220985525609"><ele>224.5</ele><time>2026-04-26T09:39:13Z</time></trkpt><trkpt lat="38.23307034432439" lon="15.502448346695736"><ele>228.0</ele><time>2026-04-26T09:39:14Z</time></trkpt><trkpt lat="38.232742035604375" lon="15.50266927372469"><ele>228.0</ele><time>2026-04-26T09:39:15Z</time></trkpt><trkpt lat="38.2324202362866" lon="15.502909510728218"><ele>228.0</ele><time>2026-04-26T09:39:16Z</time></trkpt><trkpt lat="38.232105984466514" lon="15.503171866374275"><ele>232.0</ele><time>2026-04-26T09:39:17Z</time></trkpt><trkpt lat="38.23180039049672" lon="15.503452921015255"><ele>236.0</ele><time>2026-04-26T09:39:18Z</time></trkpt><trkpt lat="38.23151606796233" lon="15.503755776019686"><ele>238.5</ele><time>2026-04-26T09:39:19Z</time></trkpt><trkpt lat="38.23125576516354" lon="15.504089038429994"><ele>241.0</ele><time>2026-04-26T09:39:20Z</time></trkpt><trkpt lat="38.23101867127424" lon="15.50444598146811"><ele>244.5</ele><time>2026-04-26T09:39:21Z</time></trkpt><trkpt lat="38.23080898579886" lon="15.504830483873628"><ele>248.0</ele><time>2026-04-26T09:39:22Z</time></trkpt><trkpt lat="38.230621290638595" lon="15.505237176871754"><ele>250.0</ele><time>2026-04-26T09:39:23Z</time></trkpt><trkpt lat="38.23045783372526" lon="15.505659200534755"><ele>252.0</ele><time>2026-04-26T09:39:24Z</time></trkpt><trkpt lat="38.23030348232414" lon="15.506088436921983"><ele>253.0</ele><time>2026-04-26T09:39:25Z</time></trkpt><trkpt lat="38.23014401885531" lon="15.506519477172793"><ele>254.0</ele><time>2026-04-26T09:39:26Z</time></trkpt><trkpt lat="38.22998159083549" lon="15.506954121303941"><ele>257.5</ele><time>2026-04-26T09:39:27Z</time></trkpt><trkpt lat="38.22981759893341" lon="15.50739198414956"><ele>261.0</ele><time>2026-04-26T09:39:28Z</time></trkpt><trkpt lat="38.22965203525736" lon="15.507832974827961"><ele>267.0</ele><time>2026-04-26T09:39:29Z</time></trkpt><trkpt lat="38.22948709663969" lon="15.50828096904359"><ele>273.0</ele><time>2026-04-26T09:39:30Z</time></trkpt><trkpt lat="38.22931910191041" lon="15.508726614612089"><ele>279.5</ele><time>2026-04-26T09:39:31Z</time></trkpt><trkpt lat="38.22914863971666" lon="15.50917977571522"><ele>286.0</ele><time>2026-04-26T09:39:32Z</time></trkpt><trkpt lat="38.2289784328559" lon="15.50964252159596"><ele>304.5</ele><time>2026-04-26T09:39:33Z</time></trkpt><trkpt lat="38.22880365666871" lon="15.51012800755833"><ele>323.0</ele><time>2026-04-26T09:39:34.022Z</time></trkpt><trkpt lat="38.22863182169422" lon="15.510611996766933"><ele>332.5</ele><time>2026-04-26T09:39:35.015Z</time></trkpt><trkpt lat="38.228454733795424" lon="15.511109794557568"><ele>342.0</ele><time>2026-04-26T09:39:36.023Z</time></trkpt><trkpt lat="38.22827918894034" lon="15.511601509695163"><ele>357.5</ele><time>2026-04-26T09:39:37.016Z</time></trkpt><trkpt lat="38.228103994026505" lon="15.512087062751139"><ele>373.0</ele><time>2026-04-26T09:39:38.015Z</time></trkpt><trkpt lat="38.22234619878067" lon="15.524410614758287"><ele>317.5</ele><time>2026-04-26T09:40:11Z</time></trkpt><trkpt lat="38.22208091860776" lon="15.524719718055588"><ele>262.0</ele><time>2026-04-26T09:40:12Z</time></trkpt><trkpt lat="38.221856853927484" lon="15.5250579228606"><ele>262.0</ele><time>2026-04-26T09:40:13Z</time></trkpt><trkpt lat="38.221652491930925" lon="15.525388512509855"><ele>262.0</ele><time>2026-04-26T09:40:14Z</time></trkpt><trkpt lat="38.22146793588784" lon="15.525709365966216"><ele>259.0</ele><time>2026-04-26T09:40:15Z</time></trkpt><trkpt lat="38.22128793216735" lon="15.526044364818029"><ele>256.0</ele><time>2026-04-26T09:40:16.012Z</time></trkpt><trkpt lat="38.221112333980074" lon="15.526389998991693"><ele>256.0</ele><time>2026-04-26T09:40:17.012Z</time></trkpt><trkpt lat="38.22093471341303" lon="15.526749886463946"><ele>256.0</ele><time>2026-04-26T09:40:18.021Z</time></trkpt><trkpt lat="38.22075801507224" lon="15.527102634173039"><ele>253.0</ele><time>2026-04-26T09:40:19.013Z</time></trkpt><trkpt lat="38.22042297109795" lon="15.527540417402543"><ele>253.0</ele><time>2026-04-26T09:40:20Z</time></trkpt><trkpt lat="38.2203251932893" lon="15.52785255982037"><ele>253.0</ele><time>2026-04-26T09:40:21Z</time></trkpt><trkpt lat="38.22011527122864" lon="15.52819172540485"><ele>243.5</ele><time>2026-04-26T09:40:22Z</time></trkpt><trkpt lat="38.21989690517529" lon="15.528493164270197"><ele>234.0</ele><time>2026-04-26T09:40:23Z</time></trkpt><trkpt lat="38.21963897554461" lon="15.528783099492328"><ele>234.0</ele><time>2026-04-26T09:40:24Z</time></trkpt><trkpt lat="38.21936666435386" lon="15.529048940135695"><ele>234.0</ele><time>2026-04-26T09:40:25Z</time></trkpt><trkpt lat="38.21908561413641" lon="15.529298719519273"><ele>248.5</ele><time>2026-04-26T09:40:26Z</time></trkpt><trkpt lat="38.21877304421056" lon="15.52950978568503"><ele>263.0</ele><time>2026-04-26T09:40:27Z</time></trkpt><trkpt lat="38.21845066249419" lon="15.529705405966682"><ele>268.5</ele><time>2026-04-26T09:40:28Z</time></trkpt><trkpt lat="38.218109036417616" lon="15.529899138103364"><ele>274.0</ele><time>2026-04-26T09:40:29.025Z</time></trkpt><trkpt lat="38.21775947236449" lon="15.53010321359751"><ele>274.0</ele><time>2026-04-26T09:40:30.024Z</time></trkpt><trkpt lat="38.21739613040622" lon="15.530320721774785"><ele>274.0</ele><time>2026-04-26T09:40:31.025Z</time></trkpt><trkpt lat="38.21704707228479" lon="15.530521198451806"><ele>184.0</ele><time>2026-04-26T09:40:32.023Z</time></trkpt><trkpt lat="38.215366020650606" lon="15.531798715252926"><ele>169.0</ele><time>2026-04-26T09:40:37Z</time></trkpt><trkpt lat="38.21503938156338" lon="15.53224063811919"><ele>164.0</ele><time>2026-04-26T09:40:38Z</time></trkpt><trkpt lat="38.214736032582145" lon="15.532580947570795"><ele>159.0</ele><time>2026-04-26T09:40:39Z</time></trkpt><trkpt lat="38.2144303861995" lon="15.532933085116426"><ele>159.0</ele><time>2026-04-26T09:40:40Z</time></trkpt><trkpt lat="38.21413778291817" lon="15.533299869032334"><ele>159.0</ele><time>2026-04-26T09:40:41Z</time></trkpt><trkpt lat="38.21385469709938" lon="15.533689232818583"><ele>151.0</ele><time>2026-04-26T09:40:42Z</time></trkpt><trkpt lat="38.21357216810166" lon="15.534095264817879"><ele>143.0</ele><time>2026-04-26T09:40:43Z</time></trkpt><trkpt lat="38.21329369479523" lon="15.534524668589853"><ele>144.0</ele><time>2026-04-26T09:40:44Z</time></trkpt><trkpt lat="38.21302177517029" lon="15.534979992318107"><ele>145.0</ele><time>2026-04-26T09:40:45Z</time></trkpt><trkpt lat="38.21275301050382" lon="15.53545786134948"><ele>145.0</ele><time>2026-04-26T09:40:46Z</time></trkpt><trkpt lat="38.21249596850202" lon="15.535957290162766"><ele>123.0</ele><time>2026-04-26T09:40:47Z</time></trkpt><trkpt lat="38.21223489727384" lon="15.536476906767929"><ele>123.0</ele><time>2026-04-26T09:40:48Z</time></trkpt><trkpt lat="38.21197404892848" lon="15.53698420448847"><ele>118.0</ele><time>2026-04-26T09:40:49Z</time></trkpt><trkpt lat="38.21172933733535" lon="15.537466144591136"><ele>119.0</ele><time>2026-04-26T09:40:50Z</time></trkpt><trkpt lat="38.21149429714189" lon="15.537921390293185"><ele>120.0</ele><time>2026-04-26T09:40:51Z</time></trkpt><trkpt lat="38.21126130374032" lon="15.538365024750986"><ele>144.5</ele><time>2026-04-26T09:40:52Z</time></trkpt><trkpt lat="38.21103666042654" lon="15.53880995927583"><ele>169.0</ele><time>2026-04-26T09:40:53Z</time></trkpt><trkpt lat="38.21081298928931" lon="15.539246742354766"><ele>174.5</ele><time>2026-04-26T09:40:54Z</time></trkpt><trkpt lat="38.210584164043574" lon="15.539679209755654"><ele>180.0</ele><time>2026-04-26T09:40:55Z</time></trkpt><trkpt lat="38.21036147152468" lon="15.540103916890034"><ele>173.0</ele><time>2026-04-26T09:40:56Z</time></trkpt><trkpt lat="38.210146117658304" lon="15.540523865885218"><ele>166.0</ele><time>2026-04-26T09:40:57Z</time></trkpt><trkpt lat="38.209944637116955" lon="15.540922858060204"><ele>163.0</ele><time>2026-04-26T09:40:58Z</time></trkpt><trkpt lat="38.20974803128685" lon="15.541314589498478"><ele>160.0</ele><time>2026-04-26T09:40:59Z</time></trkpt><trkpt lat="38.209561137146714" lon="15.541705236168083"><ele>156.5</ele><time>2026-04-26T09:41:00Z</time></trkpt><trkpt lat="38.2093928963402" lon="15.54209591451273"><ele>153.0</ele><time>2026-04-26T09:41:01Z</time></trkpt><trkpt lat="38.20923074382139" lon="15.542483114559724"><ele>153.0</ele><time>2026-04-26T09:41:02Z</time></trkpt><trkpt lat="38.209078171611" lon="15.54286889401617"><ele>153.0</ele><time>2026-04-26T09:41:03Z</time></trkpt><trkpt lat="38.20893694402614" lon="15.543250457383637"><ele>148.5</ele><time>2026-04-26T09:41:04Z</time></trkpt><trkpt lat="38.20880066327017" lon="15.543624770428309"><ele>144.0</ele><time>2026-04-26T09:41:05Z</time></trkpt><trkpt lat="38.20866950944802" lon="15.54399523457879"><ele>144.0</ele><time>2026-04-26T09:41:06Z</time></trkpt><trkpt lat="38.20853868392997" lon="15.544361028925696"><ele>144.0</ele><time>2026-04-26T09:41:07Z</time></trkpt><trkpt lat="38.20839948155927" lon="15.54472694558284"><ele>142.5</ele><time>2026-04-26T09:41:08Z</time></trkpt><trkpt lat="38.208247765501866" lon="15.54508014088583"><ele>141.0</ele><time>2026-04-26T09:41:09Z</time></trkpt><trkpt lat="38.20807483523888" lon="15.545416847085978"><ele>137.0</ele><time>2026-04-26T09:41:10Z</time></trkpt><trkpt lat="38.207858464604996" lon="15.545696571840022"><ele>133.0</ele><time>2026-04-26T09:41:11Z</time></trkpt><trkpt lat="38.20763247159124" lon="15.545972156559726"><ele>133.0</ele><time>2026-04-26T09:41:12Z</time></trkpt><trkpt lat="38.20737797242776" lon="15.546211450737937"><ele>133.0</ele><time>2026-04-26T09:41:13Z</time></trkpt><trkpt lat="38.20711388460211" lon="15.546422147974885"><ele>120.0</ele><time>2026-04-26T09:41:14Z</time></trkpt><trkpt lat="38.206835214572706" lon="15.546616502548924"><ele>107.0</ele><time>2026-04-26T09:41:15Z</time></trkpt><trkpt lat="38.20653129909302" lon="15.546782738678507"><ele>93.0</ele><time>2026-04-26T09:41:16Z</time></trkpt><trkpt lat="38.206221498423055" lon="15.546908825865303"><ele>79.0</ele><time>2026-04-26T09:41:17Z</time></trkpt><trkpt lat="38.20589897963275" lon="15.547000463927116"><ele>79.5</ele><time>2026-04-26T09:41:18Z</time></trkpt><trkpt lat="38.20556175036976" lon="15.54704631609384"><ele>80.0</ele><time>2026-04-26T09:41:19Z</time></trkpt><trkpt lat="38.205228928271424" lon="15.547048284038905"><ele>84.0</ele><time>2026-04-26T09:41:20Z</time></trkpt><trkpt lat="38.20489067996542" lon="15.547012900836226"><ele>88.0</ele><time>2026-04-26T09:41:21Z</time></trkpt><trkpt lat="38.20455342315778" lon="15.54693500399402"><ele>100.0</ele><time>2026-04-26T09:41:22Z</time></trkpt><trkpt lat="38.20421565133183" lon="15.546821997432332"><ele>112.0</ele><time>2026-04-26T09:41:23Z</time></trkpt><trkpt lat="38.20387693872869" lon="15.546693353567541"><ele>112.0</ele><time>2026-04-26T09:41:24Z</time></trkpt><trkpt lat="38.2035545720117" lon="15.54650451134432"><ele>112.0</ele><time>2026-04-26T09:41:25Z</time></trkpt><trkpt lat="38.203249449545105" lon="15.54628500351076"><ele>122.0</ele><time>2026-04-26T09:41:26Z</time></trkpt><trkpt lat="38.202967486774064" lon="15.546020971962944"><ele>132.0</ele><time>2026-04-26T09:41:27Z</time></trkpt><trkpt lat="38.20268911170151" lon="15.545736381015562"><ele>132.0</ele><time>2026-04-26T09:41:28Z</time></trkpt><trkpt lat="38.202419252060544" lon="15.545462173534569"><ele>132.0</ele><time>2026-04-26T09:41:29Z</time></trkpt><trkpt lat="38.202142967693405" lon="15.545197532483623"><ele>144.5</ele><time>2026-04-26T09:41:30.019Z</time></trkpt><trkpt lat="38.201871298675826" lon="15.54494395557137"><ele>157.0</ele><time>2026-04-26T09:41:31.023Z</time></trkpt><trkpt lat="38.20161865442357" lon="15.5447051880497"><ele>147.0</ele><time>2026-04-26T09:41:32.025Z</time></trkpt><trkpt lat="38.20139629846177" lon="15.544487914932155"><ele>137.0</ele><time>2026-04-26T09:41:33.024Z</time></trkpt><trkpt lat="38.201185865289666" lon="15.544288764754583"><ele>137.0</ele><time>2026-04-26T09:41:34.023Z</time></trkpt><trkpt lat="38.20098566807962" lon="15.54410683947964"><ele>137.0</ele><time>2026-04-26T09:41:35.024Z</time></trkpt><trkpt lat="38.20080554734926" lon="15.543927893064343"><ele>127.0</ele><time>2026-04-26T09:41:36.022Z</time></trkpt><trkpt lat="38.200646230471655" lon="15.543746062013993"><ele>117.0</ele><time>2026-04-26T09:41:37.018Z</time></trkpt><trkpt lat="38.200512595035455" lon="15.543586137680354"><ele>107.0</ele><time>2026-04-26T09:41:38.024Z</time></trkpt><trkpt lat="38.200239515898936" lon="15.54299932905989"><ele>101.0</ele><time>2026-04-26T09:41:41Z</time></trkpt><trkpt lat="38.200094815235964" lon="15.542801936924052"><ele>95.0</ele><time>2026-04-26T09:41:42Z</time></trkpt><trkpt lat="38.19992181292351" lon="15.542590459293288"><ele>100.0</ele><time>2026-04-26T09:41:43Z</time></trkpt><trkpt lat="38.19976833132693" lon="15.542369632192809"><ele>105.0</ele><time>2026-04-26T09:41:44Z</time></trkpt><trkpt lat="38.199613115068374" lon="15.54213073609791"><ele>107.0</ele><time>2026-04-26T09:41:45Z</time></trkpt><trkpt lat="38.19946029743736" lon="15.541875506248708"><ele>109.0</ele><time>2026-04-26T09:41:46Z</time></trkpt><trkpt lat="38.19929254815635" lon="15.54156592274115"><ele>109.0</ele><time>2026-04-26T09:41:47Z</time></trkpt><trkpt lat="38.19914090368333" lon="15.541268719571978"><ele>109.0</ele><time>2026-04-26T09:41:48Z</time></trkpt><trkpt lat="38.198995556284274" lon="15.54096848133301"><ele>107.0</ele><time>2026-04-26T09:41:49Z</time></trkpt><trkpt lat="38.19885048830198" lon="15.54065342093736"><ele>105.0</ele><time>2026-04-26T09:41:50Z</time></trkpt><trkpt lat="38.19870422312415" lon="15.540322271359551"><ele>103.0</ele><time>2026-04-26T09:41:51Z</time></trkpt><trkpt lat="38.198554796151214" lon="15.539981277223012"><ele>101.0</ele><time>2026-04-26T09:41:52Z</time></trkpt><trkpt lat="38.19840275410889" lon="15.539637709046321"><ele>104.0</ele><time>2026-04-26T09:41:53Z</time></trkpt><trkpt lat="38.19824503856305" lon="15.539288407828163"><ele>107.0</ele><time>2026-04-26T09:41:54Z</time></trkpt><trkpt lat="38.198090681189186" lon="15.538935513243507"><ele>103.5</ele><time>2026-04-26T09:41:55Z</time></trkpt><trkpt lat="38.1979426093722" lon="15.538595408366403"><ele>100.0</ele><time>2026-04-26T09:41:56Z</time></trkpt><trkpt lat="38.19780150005803" lon="15.53826491652555"><ele>100.0</ele><time>2026-04-26T09:41:57Z</time></trkpt><trkpt lat="38.19766752657787" lon="15.537947246155426"><ele>100.0</ele><time>2026-04-26T09:41:58Z</time></trkpt><trkpt lat="38.197534403909366" lon="15.537648210891296"><ele>103.0</ele><time>2026-04-26T09:41:59Z</time></trkpt><trkpt lat="38.19739647558703" lon="15.537349603236247"><ele>106.0</ele><time>2026-04-26T09:42:00Z</time></trkpt><trkpt lat="38.19724787959028" lon="15.537050254596194"><ele>106.0</ele><time>2026-04-26T09:42:01Z</time></trkpt><trkpt lat="38.197097560980424" lon="15.536739062207896"><ele>106.0</ele><time>2026-04-26T09:42:02Z</time></trkpt><trkpt lat="38.19694156196615" lon="15.536403212441437"><ele>114.5</ele><time>2026-04-26T09:42:03Z</time></trkpt><trkpt lat="38.196789280612194" lon="15.536057041819475"><ele>123.0</ele><time>2026-04-26T09:42:04Z</time></trkpt><trkpt lat="38.19663192922052" lon="15.535699876687975"><ele>128.0</ele><time>2026-04-26T09:42:05Z</time></trkpt><trkpt lat="38.19646975073734" lon="15.535337723351407"><ele>133.0</ele><time>2026-04-26T09:42:06Z</time></trkpt><trkpt lat="38.19631304480164" lon="15.53499837120017"><ele>133.0</ele><time>2026-04-26T09:42:07Z</time></trkpt><trkpt lat="38.19615185248818" lon="15.534637430603219"><ele>133.0</ele><time>2026-04-26T09:42:08Z</time></trkpt><trkpt lat="38.195990654516365" lon="15.534267990160503"><ele>138.5</ele><time>2026-04-26T09:42:09Z</time></trkpt><trkpt lat="38.19582653844985" lon="15.53389718424494"><ele>144.0</ele><time>2026-04-26T09:42:10Z</time></trkpt><trkpt lat="38.195662515045534" lon="15.533532574755865"><ele>165.5</ele><time>2026-04-26T09:42:11Z</time></trkpt><trkpt lat="38.195488635945786" lon="15.533171345617834"><ele>187.0</ele><time>2026-04-26T09:42:12.025Z</time></trkpt><trkpt lat="38.19531329424882" lon="15.532837785117808"><ele>190.0</ele><time>2026-04-26T09:42:13.023Z</time></trkpt><trkpt lat="38.19512693019117" lon="15.532529741272132"><ele>193.0</ele><time>2026-04-26T09:42:14.024Z</time></trkpt><trkpt lat="38.194935248141554" lon="15.53224011119442"><ele>162.5</ele><time>2026-04-26T09:42:15.024Z</time></trkpt><trkpt lat="38.19473534570638" lon="15.531964874210725"><ele>132.0</ele><time>2026-04-26T09:42:16.025Z</time></trkpt><trkpt lat="38.1945338081849" lon="15.531698788555897"><ele>132.0</ele><time>2026-04-26T09:42:17.024Z</time></trkpt><trkpt lat="38.19432937406567" lon="15.531439014557094"><ele>132.0</ele><time>2026-04-26T09:42:18.024Z</time></trkpt><trkpt lat="38.193841357751" lon="15.53091371433393"><ele>132.0</ele><time>2026-04-26T09:42:20Z</time></trkpt><trkpt lat="38.19353445392366" lon="15.53069895747513"><ele>132.0</ele><time>2026-04-26T09:42:21Z</time></trkpt><trkpt lat="38.19326874360217" lon="15.530504583470131"><ele>145.0</ele><time>2026-04-26T09:42:22Z</time></trkpt><trkpt lat="38.19300059840564" lon="15.53031886116585"><ele>158.0</ele><time>2026-04-26T09:42:23Z</time></trkpt><trkpt lat="38.19272334925945" lon="15.530137187331404"><ele>158.0</ele><time>2026-04-26T09:42:24.025Z</time></trkpt><trkpt lat="38.1924460402209" lon="15.529983625837795"><ele>158.0</ele><time>2026-04-26T09:42:25.024Z</time></trkpt><trkpt lat="38.19217021293866" lon="15.52985292702028"><ele>163.0</ele><time>2026-04-26T09:42:26.024Z</time></trkpt><trkpt lat="38.19189704945401" lon="15.529741459516762"><ele>168.0</ele><time>2026-04-26T09:42:27.02Z</time></trkpt><trkpt lat="38.19162222484154" lon="15.52963488391621"><ele>109.0</ele><time>2026-04-26T09:42:28.024Z</time></trkpt><trkpt lat="38.18945628128777" lon="15.529084196328677"><ele>109.0</ele><time>2026-04-26T09:42:35Z</time></trkpt><trkpt lat="38.189113514252014" lon="15.528984778657568"><ele>109.0</ele><time>2026-04-26T09:42:36Z</time></trkpt><trkpt lat="38.18882019117076" lon="15.528821583027588"><ele>108.0</ele><time>2026-04-26T09:42:37Z</time></trkpt><trkpt lat="38.188533946381185" lon="15.528632307796967"><ele>107.0</ele><time>2026-04-26T09:42:38Z</time></trkpt><trkpt lat="38.18826354040802" lon="15.528417573235958"><ele>107.5</ele><time>2026-04-26T09:42:39Z</time></trkpt><trkpt lat="38.188005160902186" lon="15.528177440871833"><ele>108.0</ele><time>2026-04-26T09:42:40Z</time></trkpt><trkpt lat="38.187763620739034" lon="15.527913668242359"><ele>111.5</ele><time>2026-04-26T09:42:41Z</time></trkpt><trkpt lat="38.18754011894364" lon="15.527630866773372"><ele>115.0</ele><time>2026-04-26T09:42:42Z</time></trkpt><trkpt lat="38.18733766855519" lon="15.527337923300367"><ele>123.0</ele><time>2026-04-26T09:42:43Z</time></trkpt><trkpt lat="38.18713213932572" lon="15.52705617612906"><ele>131.0</ele><time>2026-04-26T09:42:44Z</time></trkpt><trkpt lat="38.18692858052791" lon="15.52678749397051"><ele>131.0</ele><time>2026-04-26T09:42:45Z</time></trkpt><trkpt lat="38.18672496114332" lon="15.526524692023125"><ele>131.0</ele><time>2026-04-26T09:42:46Z</time></trkpt><trkpt lat="38.1865098936355" lon="15.526276296229495"><ele>134.0</ele><time>2026-04-26T09:42:47Z</time></trkpt><trkpt lat="38.18629149161769" lon="15.526048151901886"><ele>137.0</ele><time>2026-04-26T09:42:48Z</time></trkpt><trkpt lat="38.186059928834254" lon="15.525841597504954"><ele>137.0</ele><time>2026-04-26T09:42:49Z</time></trkpt><trkpt lat="38.18580879779029" lon="15.52565000553069"><ele>137.0</ele><time>2026-04-26T09:42:50Z</time></trkpt><trkpt lat="38.18555543449552" lon="15.525457218124366"><ele>140.5</ele><time>2026-04-26T09:42:51Z</time></trkpt><trkpt lat="38.185285498515256" lon="15.52528691992118"><ele>144.0</ele><time>2026-04-26T09:42:52Z</time></trkpt><trkpt lat="38.18499690054047" lon="15.525144595712487"><ele>150.5</ele><time>2026-04-26T09:42:53Z</time></trkpt><trkpt lat="38.184692976129526" lon="15.525022979481628"><ele>157.0</ele><time>2026-04-26T09:42:54Z</time></trkpt><trkpt lat="38.18437256434669" lon="15.524927157208094"><ele>157.0</ele><time>2026-04-26T09:42:55Z</time></trkpt><trkpt lat="38.18404664176671" lon="15.524850195703394"><ele>157.0</ele><time>2026-04-26T09:42:56Z</time></trkpt><trkpt lat="38.18371475711852" lon="15.524808941337795"><ele>166.0</ele><time>2026-04-26T09:42:57Z</time></trkpt><trkpt lat="38.18337654753827" lon="15.524791405294277"><ele>175.0</ele><time>2026-04-26T09:42:58.016Z</time></trkpt><trkpt lat="38.183046002239344" lon="15.524803694645202"><ele>188.0</ele><time>2026-04-26T09:42:59.018Z</time></trkpt><trkpt lat="38.18271171152797" lon="15.52484074165218"><ele>201.0</ele><time>2026-04-26T09:43:00.027Z</time></trkpt><trkpt lat="38.18237236772395" lon="15.524890985528819"><ele>196.5</ele><time>2026-04-26T09:43:01.024Z</time></trkpt><trkpt lat="38.18202525156621" lon="15.524934277940297"><ele>192.0</ele><time>2026-04-26T09:43:02.024Z</time></trkpt><trkpt lat="38.17992350090125" lon="15.525064822300825"><ele>168.5</ele><time>2026-04-26T09:43:08Z</time></trkpt><trkpt lat="38.17958297439932" lon="15.525030337584022"><ele>145.0</ele><time>2026-04-26T09:43:09Z</time></trkpt><trkpt lat="38.179211277105615" lon="15.524942257412775"><ele>148.0</ele><time>2026-04-26T09:43:10Z</time></trkpt><trkpt lat="38.17889241459616" lon="15.524844420873439"><ele>151.0</ele><time>2026-04-26T09:43:11Z</time></trkpt><trkpt lat="38.17858212106702" lon="15.52471727844698"><ele>151.0</ele><time>2026-04-26T09:43:12Z</time></trkpt><trkpt lat="38.17827491814894" lon="15.524563371385652"><ele>151.0</ele><time>2026-04-26T09:43:13Z</time></trkpt><trkpt lat="38.17797374608833" lon="15.524385500201149"><ele>167.5</ele><time>2026-04-26T09:43:14Z</time></trkpt><trkpt lat="38.17768260431108" lon="15.524173710020778"><ele>184.0</ele><time>2026-04-26T09:43:15Z</time></trkpt><trkpt lat="38.17739931272591" lon="15.523920225589933"><ele>159.5</ele><time>2026-04-26T09:43:16.023Z</time></trkpt><trkpt lat="38.177139137744646" lon="15.523648144518672"><ele>135.0</ele><time>2026-04-26T09:43:17.017Z</time></trkpt><trkpt lat="38.176890657235525" lon="15.5233467820455"><ele>135.0</ele><time>2026-04-26T09:43:18.013Z</time></trkpt><trkpt lat="38.17663621084977" lon="15.523013264141438"><ele>135.0</ele><time>2026-04-26T09:43:19.027Z</time></trkpt><trkpt lat="38.176394746519" lon="15.522686220470812"><ele>127.0</ele><time>2026-04-26T09:43:20Z</time></trkpt><trkpt lat="38.17609148186861" lon="15.522277433414505"><ele>119.0</ele><time>2026-04-26T09:43:21Z</time></trkpt><trkpt lat="38.17588344544086" lon="15.521846035904895"><ele>119.0</ele><time>2026-04-26T09:43:22Z</time></trkpt><trkpt lat="38.17569333485567" lon="15.521402384719046"><ele>119.0</ele><time>2026-04-26T09:43:23Z</time></trkpt><trkpt lat="38.17544254370135" lon="15.520965128740999"><ele>120.0</ele><time>2026-04-26T09:43:24Z</time></trkpt><trkpt lat="38.175226235024134" lon="15.52050041837821"><ele>121.0</ele><time>2026-04-26T09:43:25Z</time></trkpt><trkpt lat="38.17499448093449" lon="15.520040705694523"><ele>124.5</ele><time>2026-04-26T09:43:26Z</time></trkpt><trkpt lat="38.17476626946106" lon="15.519590473433777"><ele>128.0</ele><time>2026-04-26T09:43:27Z</time></trkpt><trkpt lat="38.174547998047984" lon="15.51916580170745"><ele>131.0</ele><time>2026-04-26T09:43:28Z</time></trkpt><trkpt lat="38.17433014607427" lon="15.518757976796284"><ele>134.0</ele><time>2026-04-26T09:43:29Z</time></trkpt><trkpt lat="38.17411014401228" lon="15.518366354048117"><ele>135.5</ele><time>2026-04-26T09:43:30Z</time></trkpt><trkpt lat="38.173888122760324" lon="15.518004362115969"><ele>137.0</ele><time>2026-04-26T09:43:31Z</time></trkpt><trkpt lat="38.173651795182565" lon="15.51768507925173"><ele>139.0</ele><time>2026-04-26T09:43:32Z</time></trkpt><trkpt lat="38.17340728249509" lon="15.517396917798015"><ele>141.0</ele><time>2026-04-26T09:43:33Z</time></trkpt><trkpt lat="38.17315794218482" lon="15.517119868665471"><ele>142.5</ele><time>2026-04-26T09:43:34Z</time></trkpt><trkpt lat="38.17289386936012" lon="15.516874953708966"><ele>144.0</ele><time>2026-04-26T09:43:35Z</time></trkpt><trkpt lat="38.17262133008207" lon="15.51664513239872"><ele>142.5</ele><time>2026-04-26T09:43:36Z</time></trkpt><trkpt lat="38.17233825924921" lon="15.516442558945258"><ele>141.0</ele><time>2026-04-26T09:43:37Z</time></trkpt><trkpt lat="38.1720442712415" lon="15.51625568293397"><ele>145.5</ele><time>2026-04-26T09:43:38Z</time></trkpt><trkpt lat="38.17174415830661" lon="15.516090269090164"><ele>150.0</ele><time>2026-04-26T09:43:39Z</time></trkpt><trkpt lat="38.17143397840278" lon="15.515946779574206"><ele>153.5</ele><time>2026-04-26T09:43:40Z</time></trkpt><trkpt lat="38.17110944466867" lon="15.51582749226605"><ele>157.0</ele><time>2026-04-26T09:43:41Z</time></trkpt><trkpt lat="38.17077477868337" lon="15.515719603905582"><ele>164.0</ele><time>2026-04-26T09:43:42Z</time></trkpt><trkpt lat="38.17043584129524" lon="15.515625695852117"><ele>171.0</ele><time>2026-04-26T09:43:43Z</time></trkpt><trkpt lat="38.17008291055948" lon="15.515549228367837"><ele>175.5</ele><time>2026-04-26T09:43:44Z</time></trkpt><trkpt lat="38.16974728086594" lon="15.51547560192491"><ele>180.0</ele><time>2026-04-26T09:43:45.025Z</time></trkpt><trkpt lat="38.16943968151929" lon="15.515394846958717"><ele>207.0</ele><time>2026-04-26T09:43:46.023Z</time></trkpt><trkpt lat="38.168828358605595" lon="15.515220717396872"><ele>207.0</ele><time>2026-04-26T09:43:48.025Z</time></trkpt><trkpt lat="38.16852074338087" lon="15.515135616003487"><ele>207.0</ele><time>2026-04-26T09:43:49.015Z</time></trkpt><trkpt lat="38.16490852351892" lon="15.514555431922899"><ele>152.0</ele><time>2026-04-26T09:44:01.715Z</time></trkpt><trkpt lat="38.16392875896759" lon="15.5145783476501"><ele>152.0</ele><time>2026-04-26T09:44:03Z</time></trkpt><trkpt lat="38.163638965137594" lon="15.514594445466741"><ele>152.0</ele><time>2026-04-26T09:44:04Z</time></trkpt><trkpt lat="38.16325666713657" lon="15.514594739754962"><ele>148.0</ele><time>2026-04-26T09:44:05Z</time></trkpt><trkpt lat="38.16288077614778" lon="15.514588129568732"><ele>144.0</ele><time>2026-04-26T09:44:06Z</time></trkpt><trkpt lat="38.16252880954028" lon="15.514580130665744"><ele>143.0</ele><time>2026-04-26T09:44:07Z</time></trkpt><trkpt lat="38.16219418645744" lon="15.514567358145165"><ele>142.0</ele><time>2026-04-26T09:44:08Z</time></trkpt><trkpt lat="38.161876724721346" lon="15.5145565374922"><ele>142.0</ele><time>2026-04-26T09:44:09Z</time></trkpt><trkpt lat="38.16159517317634" lon="15.514549987224639"><ele>142.0</ele><time>2026-04-26T09:44:10Z</time></trkpt><trkpt lat="38.161347014900635" lon="15.514538289586607"><ele>144.33333333333334</ele><time>2026-04-26T09:44:11Z</time></trkpt><trkpt lat="38.161120843032094" lon="15.51451790814025"><ele>146.66666666666666</ele><time>2026-04-26T09:44:12Z</time></trkpt><trkpt lat="38.1609179448697" lon="15.514486166273482"><ele>149.0</ele><time>2026-04-26T09:44:13Z</time></trkpt><trkpt lat="38.160714820612995" lon="15.514449354305118"><ele>145.5</ele><time>2026-04-26T09:44:14Z</time></trkpt><trkpt lat="38.160479314634884" lon="15.514391967825082"><ele>142.0</ele><time>2026-04-26T09:44:15Z</time></trkpt><trkpt lat="38.160210100683415" lon="15.514323850672278"><ele>142.0</ele><time>2026-04-26T09:44:16Z</time></trkpt><trkpt lat="38.1599321441688" lon="15.514276174466714"><ele>142.0</ele><time>2026-04-26T09:44:17Z</time></trkpt><trkpt lat="38.15966261132187" lon="15.514212007602934"><ele>134.5</ele><time>2026-04-26T09:44:18Z</time></trkpt><trkpt lat="38.15939912225709" lon="15.514125872137326"><ele>127.0</ele><time>2026-04-26T09:44:19Z</time></trkpt><trkpt lat="38.15913984728841" lon="15.514019185521997"><ele>124.0</ele><time>2026-04-26T09:44:20Z</time></trkpt><trkpt lat="38.15887897239069" lon="15.5139060897774"><ele>121.0</ele><time>2026-04-26T09:44:21Z</time></trkpt><trkpt lat="38.15861573128156" lon="15.513792025299123"><ele>126.0</ele><time>2026-04-26T09:44:22Z</time></trkpt><trkpt lat="38.158351975273185" lon="15.513659174739024"><ele>131.0</ele><time>2026-04-26T09:44:23Z</time></trkpt><trkpt lat="38.15808645156398" lon="15.513513656134599"><ele>131.5</ele><time>2026-04-26T09:44:24Z</time></trkpt><trkpt lat="38.15781148633973" lon="15.513355553578608"><ele>132.0</ele><time>2026-04-26T09:44:25Z</time></trkpt><trkpt lat="38.1575317652001" lon="15.513195385089556"><ele>134.0</ele><time>2026-04-26T09:44:26Z</time></trkpt><trkpt lat="38.15725299763451" lon="15.513028369657583"><ele>136.0</ele><time>2026-04-26T09:44:27Z</time></trkpt><trkpt lat="38.15696898506983" lon="15.512854376127708"><ele>136.0</ele><time>2026-04-26T09:44:28Z</time></trkpt><trkpt lat="38.156676015314446" lon="15.512682639391599"><ele>136.0</ele><time>2026-04-26T09:44:29Z</time></trkpt><trkpt lat="38.156374824315705" lon="15.512505602981241"><ele>131.5</ele><time>2026-04-26T09:44:30Z</time></trkpt><trkpt lat="38.15606877352369" lon="15.512322768918255"><ele>127.0</ele><time>2026-04-26T09:44:31Z</time></trkpt><trkpt lat="38.15577742325197" lon="15.51214609040271"><ele>128.5</ele><time>2026-04-26T09:44:32Z</time></trkpt><trkpt lat="38.15549484189172" lon="15.511973629096632"><ele>130.0</ele><time>2026-04-26T09:44:33Z</time></trkpt><trkpt lat="38.15521724640033" lon="15.511803308412698"><ele>130.0</ele><time>2026-04-26T09:44:34Z</time></trkpt><trkpt lat="38.154933483930755" lon="15.511637596696968"><ele>130.0</ele><time>2026-04-26T09:44:35Z</time></trkpt><trkpt lat="38.15464289789482" lon="15.51146930104585"><ele>131.0</ele><time>2026-04-26T09:44:36Z</time></trkpt><trkpt lat="38.154342805690575" lon="15.511294331390785"><ele>132.0</ele><time>2026-04-26T09:44:37Z</time></trkpt><trkpt lat="38.154043332419036" lon="15.511117757714173"><ele>127.5</ele><time>2026-04-26T09:44:38Z</time></trkpt><trkpt lat="38.15374292551924" lon="15.510943237360687"><ele>123.0</ele><time>2026-04-26T09:44:39Z</time></trkpt><trkpt lat="38.15344159082303" lon="15.510764767166606"><ele>119.0</ele><time>2026-04-26T09:44:40Z</time></trkpt><trkpt lat="38.15313248308643" lon="15.51059448215356"><ele>115.0</ele><time>2026-04-26T09:44:41Z</time></trkpt><trkpt lat="38.15280979744931" lon="15.510442422643726"><ele>114.5</ele><time>2026-04-26T09:44:42Z</time></trkpt><trkpt lat="38.15248013742459" lon="15.510326534890506"><ele>114.0</ele><time>2026-04-26T09:44:43Z</time></trkpt><trkpt lat="38.15214219516818" lon="15.510248610888594"><ele>111.5</ele><time>2026-04-26T09:44:44Z</time></trkpt><trkpt lat="38.15181571517968" lon="15.510209741559605"><ele>109.0</ele><time>2026-04-26T09:44:45Z</time></trkpt><trkpt lat="38.15150115193107" lon="15.51020836994623"><ele>106.0</ele><time>2026-04-26T09:44:46Z</time></trkpt><trkpt lat="38.151187504589814" lon="15.51025002240908"><ele>103.0</ele><time>2026-04-26T09:44:47Z</time></trkpt><trkpt lat="38.15088111546041" lon="15.51031430079609"><ele>104.0</ele><time>2026-04-26T09:44:48Z</time></trkpt><trkpt lat="38.15058402510635" lon="15.510407721794627"><ele>105.0</ele><time>2026-04-26T09:44:49Z</time></trkpt><trkpt lat="38.15028880390654" lon="15.510528039463441"><ele>102.0</ele><time>2026-04-26T09:44:50Z</time></trkpt><trkpt lat="38.150010946085985" lon="15.51067769695216"><ele>99.0</ele><time>2026-04-26T09:44:51Z</time></trkpt><trkpt lat="38.149745736293795" lon="15.510861871059914"><ele>98.5</ele><time>2026-04-26T09:44:52Z</time></trkpt><trkpt lat="38.149487656601245" lon="15.511069808626225"><ele>98.0</ele><time>2026-04-26T09:44:53Z</time></trkpt><trkpt lat="38.14924678746534" lon="15.511312595614696"><ele>99.0</ele><time>2026-04-26T09:44:54Z</time></trkpt><trkpt lat="38.149017427744155" lon="15.511576877888185"><ele>100.0</ele><time>2026-04-26T09:44:55Z</time></trkpt><trkpt lat="38.148805139287184" lon="15.511867165893536"><ele>98.5</ele><time>2026-04-26T09:44:56Z</time></trkpt><trkpt lat="38.14861205141793" lon="15.512178605246746"><ele>97.0</ele><time>2026-04-26T09:44:57Z</time></trkpt><trkpt lat="38.14843050454224" lon="15.512506537386844"><ele>97.0</ele><time>2026-04-26T09:44:58Z</time></trkpt><trkpt lat="38.148257810543264" lon="15.512855567623973"><ele>97.0</ele><time>2026-04-26T09:44:59Z</time></trkpt><trkpt lat="38.14808056357205" lon="15.513210156373404"><ele>94.5</ele><time>2026-04-26T09:45:00Z</time></trkpt><trkpt lat="38.14790413806083" lon="15.513571068571157"><ele>92.0</ele><time>2026-04-26T09:45:01Z</time></trkpt><trkpt lat="38.147736053678926" lon="15.513940820110337"><ele>92.0</ele><time>2026-04-26T09:45:02Z</time></trkpt><trkpt lat="38.14757221301387" lon="15.51431241465539"><ele>92.0</ele><time>2026-04-26T09:45:03Z</time></trkpt><trkpt lat="38.1474036977965" lon="15.51467668854196"><ele>87.5</ele><time>2026-04-26T09:45:04Z</time></trkpt><trkpt lat="38.14723913394983" lon="15.515040794553213"><ele>83.0</ele><time>2026-04-26T09:45:05Z</time></trkpt><trkpt lat="38.14707159897399" lon="15.515391943337683"><ele>79.5</ele><time>2026-04-26T09:45:06Z</time></trkpt><trkpt lat="38.14689951960747" lon="15.515735795595848"><ele>76.0</ele><time>2026-04-26T09:45:07Z</time></trkpt><trkpt lat="38.146712822855655" lon="15.516065314907742"><ele>81.0</ele><time>2026-04-26T09:45:08Z</time></trkpt><trkpt lat="38.14650667336315" lon="15.516374013917021"><ele>86.0</ele><time>2026-04-26T09:45:09Z</time></trkpt><trkpt lat="38.14628782581997" lon="15.51666404398434"><ele>86.0</ele><time>2026-04-26T09:45:10Z</time></trkpt><trkpt lat="38.14605778322709" lon="15.51693107368061"><ele>86.0</ele><time>2026-04-26T09:45:11Z</time></trkpt><trkpt lat="38.14579773493626" lon="15.51716100548426"><ele>80.0</ele><time>2026-04-26T09:45:12Z</time></trkpt><trkpt lat="38.14551920345211" lon="15.517362804223957"><ele>74.0</ele><time>2026-04-26T09:45:13Z</time></trkpt><trkpt lat="38.14523554794858" lon="15.517555819212648"><ele>74.0</ele><time>2026-04-26T09:45:14Z</time></trkpt><trkpt lat="38.14493804839153" lon="15.517726181490113"><ele>74.0</ele><time>2026-04-26T09:45:15Z</time></trkpt><trkpt lat="38.144633822221174" lon="15.517867127051334"><ele>66.0</ele><time>2026-04-26T09:45:16Z</time></trkpt><trkpt lat="38.14432030233803" lon="15.517974093814003"><ele>58.0</ele><time>2026-04-26T09:45:17Z</time></trkpt><trkpt lat="38.144001591617496" lon="15.518055293518579"><ele>58.0</ele><time>2026-04-26T09:45:18Z</time></trkpt><trkpt lat="38.14367855341773" lon="15.518099988150718"><ele>58.0</ele><time>2026-04-26T09:45:19Z</time></trkpt><trkpt lat="38.14335198683803" lon="15.518119991394626"><ele>55.5</ele><time>2026-04-26T09:45:20Z</time></trkpt><trkpt lat="38.143038365460484" lon="15.518101590815451"><ele>53.0</ele><time>2026-04-26T09:45:21Z</time></trkpt><trkpt lat="38.14274561584202" lon="15.518054310072877"><ele>53.0</ele><time>2026-04-26T09:45:22Z</time></trkpt><trkpt lat="38.14246616130384" lon="15.518013161311993"><ele>53.0</ele><time>2026-04-26T09:45:23Z</time></trkpt><trkpt lat="38.14219317842211" lon="15.51799035162041"><ele>52.5</ele><time>2026-04-26T09:45:24Z</time></trkpt><trkpt lat="38.14193052621297" lon="15.517972845628794"><ele>52.0</ele><time>2026-04-26T09:45:25Z</time></trkpt><trkpt lat="38.141669491139105" lon="15.517964810452762"><ele>51.0</ele><time>2026-04-26T09:45:26Z</time></trkpt><trkpt lat="38.14142075953333" lon="15.517980009920214"><ele>50.0</ele><time>2026-04-26T09:45:27Z</time></trkpt><trkpt lat="38.14118213979358" lon="15.518013349567578"><ele>50.0</ele><time>2026-04-26T09:45:28Z</time></trkpt><trkpt lat="38.14094451831628" lon="15.518059749472695"><ele>50.0</ele><time>2026-04-26T09:45:29Z</time></trkpt><trkpt lat="38.140700700980034" lon="15.518123932868821"><ele>51.0</ele><time>2026-04-26T09:45:30Z</time></trkpt><trkpt lat="38.140452387702666" lon="15.51821158037032"><ele>52.0</ele><time>2026-04-26T09:45:31Z</time></trkpt><trkpt lat="38.14020184561095" lon="15.518321057157529"><ele>52.0</ele><time>2026-04-26T09:45:32Z</time></trkpt><trkpt lat="38.139960783440884" lon="15.518446999518138"><ele>52.0</ele><time>2026-04-26T09:45:33Z</time></trkpt><trkpt lat="38.13973590543652" lon="15.518562377956593"><ele>52.0</ele><time>2026-04-26T09:45:34Z</time></trkpt><trkpt lat="38.139528903443804" lon="15.518667749389136"><ele>52.0</ele><time>2026-04-26T09:45:35Z</time></trkpt><trkpt lat="38.139333262090396" lon="15.518770735200766"><ele>52.0</ele><time>2026-04-26T09:45:36Z</time></trkpt><trkpt lat="38.13915322303035" lon="15.5188754064452"><ele>48.33333333333333</ele><time>2026-04-26T09:45:37Z</time></trkpt><trkpt lat="38.13898388122167" lon="15.518962565178285"><ele>44.666666666666664</ele><time>2026-04-26T09:45:38Z</time></trkpt><trkpt lat="38.13881797138019" lon="15.51903999671491"><ele>41.0</ele><time>2026-04-26T09:45:39Z</time></trkpt><trkpt lat="38.138658119563466" lon="15.51910509783022"><ele>41.0</ele><time>2026-04-26T09:45:40Z</time></trkpt><trkpt lat="38.13850420040278" lon="15.519142822160951"><ele>41.0</ele><time>2026-04-26T09:45:41Z</time></trkpt><trkpt lat="38.13835035679209" lon="15.519163614470047"><ele>41.0</ele><time>2026-04-26T09:45:42Z</time></trkpt><trkpt lat="38.13820033236982" lon="15.519169643715895"><ele>41.0</ele><time>2026-04-26T09:45:43Z</time></trkpt><trkpt lat="38.13805012109004" lon="15.519161692797512"><ele>41.0</ele><time>2026-04-26T09:45:44Z</time></trkpt><trkpt lat="38.13790020448548" lon="15.519128600125033"><ele>41.0</ele><time>2026-04-26T09:45:45Z</time></trkpt><trkpt lat="38.13774714554226" lon="15.519093770304117"><ele>41.0</ele><time>2026-04-26T09:45:46Z</time></trkpt><trkpt lat="38.137589837778535" lon="15.519081672795737"><ele>41.0</ele><time>2026-04-26T09:45:47Z</time></trkpt><trkpt lat="38.13743240874958" lon="15.519099649351807"><ele>41.0</ele><time>2026-04-26T09:45:48Z</time></trkpt><trkpt lat="38.13727724334635" lon="15.51915965422759"><ele>40.0</ele><time>2026-04-26T09:45:49Z</time></trkpt><trkpt lat="38.13711965968921" lon="15.519251766212895"><ele>39.0</ele><time>2026-04-26T09:45:50Z</time></trkpt><trkpt lat="38.13696793880781" lon="15.519375934997356"><ele>38.0</ele><time>2026-04-26T09:45:51Z</time></trkpt><trkpt lat="38.13681541170017" lon="15.51951376785459"><ele>36.666666666666664</ele><time>2026-04-26T09:45:52Z</time></trkpt><trkpt lat="38.13666110285645" lon="15.519660492098282"><ele>35.333333333333336</ele><time>2026-04-26T09:45:53Z</time></trkpt><trkpt lat="38.13651060965047" lon="15.519816891720293"><ele>34.0</ele><time>2026-04-26T09:45:54Z</time></trkpt><trkpt lat="38.13635623206601" lon="15.51997876998286"><ele>34.0</ele><time>2026-04-26T09:45:55Z</time></trkpt><trkpt lat="38.136186916293134" lon="15.52012709213421"><ele>34.0</ele><time>2026-04-26T09:45:56Z</time></trkpt><trkpt lat="38.13602768456066" lon="15.52024858392249"><ele>34.0</ele><time>2026-04-26T09:45:57Z</time></trkpt><trkpt lat="38.135863776907115" lon="15.520351060004272"><ele>33.333333333333336</ele><time>2026-04-26T09:45:58Z</time></trkpt><trkpt lat="38.13569862731238" lon="15.5204495098578"><ele>32.666666666666664</ele><time>2026-04-26T09:45:59Z</time></trkpt><trkpt lat="38.135512789722036" lon="15.520529481771343"><ele>32.0</ele><time>2026-04-26T09:46:00Z</time></trkpt><trkpt lat="38.135344815513974" lon="15.52059504368628"><ele>32.0</ele><time>2026-04-26T09:46:01Z</time></trkpt><trkpt lat="38.13518521133909" lon="15.520645155993938"><ele>32.0</ele><time>2026-04-26T09:46:02Z</time></trkpt><trkpt lat="38.13503085860707" lon="15.52069628945542"><ele>32.0</ele><time>2026-04-26T09:46:03Z</time></trkpt><trkpt lat="38.13487520487766" lon="15.520747465847927"><ele>31.0</ele><time>2026-04-26T09:46:04Z</time></trkpt><trkpt lat="38.13471415324935" lon="15.52078856734501"><ele>30.0</ele><time>2026-04-26T09:46:05Z</time></trkpt><trkpt lat="38.13454855985526" lon="15.520803038316476"><ele>29.0</ele><time>2026-04-26T09:46:06Z</time></trkpt><trkpt lat="38.134384608370816" lon="15.520780419222081"><ele>29.0</ele><time>2026-04-26T09:46:07Z</time></trkpt><trkpt lat="38.13424168917122" lon="15.520718368736913"><ele>29.0</ele><time>2026-04-26T09:46:08Z</time></trkpt><trkpt lat="38.13411285578827" lon="15.520619199450762"><ele>29.0</ele><time>2026-04-26T09:46:09Z</time></trkpt><trkpt lat="38.13399713116472" lon="15.520503709763396"><ele>29.0</ele><time>2026-04-26T09:46:10Z</time></trkpt><trkpt lat="38.133875765054206" lon="15.520381741128984"><ele>30.333333333333332</ele><time>2026-04-26T09:46:11Z</time></trkpt><trkpt lat="38.13373822403388" lon="15.520292992786715"><ele>31.666666666666664</ele><time>2026-04-26T09:46:12Z</time></trkpt><trkpt lat="38.13358990586038" lon="15.520234956880396"><ele>33.0</ele><time>2026-04-26T09:46:13Z</time></trkpt><trkpt lat="38.13343511466562" lon="15.520225898629509"><ele>33.0</ele><time>2026-04-26T09:46:14Z</time></trkpt><trkpt lat="38.13329187548764" lon="15.52026563517188"><ele>33.0</ele><time>2026-04-26T09:46:15Z</time></trkpt><trkpt lat="38.133174015386636" lon="15.520372374014952"><ele>33.0</ele><time>2026-04-26T09:46:16Z</time></trkpt><trkpt lat="38.13308859956825" lon="15.520502965863749"><ele>33.0</ele><time>2026-04-26T09:46:17Z</time></trkpt><trkpt lat="38.13303333104339" lon="15.520653463924091"><ele>30.0</ele><time>2026-04-26T09:46:18Z</time></trkpt><trkpt lat="38.1329992232473" lon="15.520811258954792"><ele>27.0</ele><time>2026-04-26T09:46:19Z</time></trkpt><trkpt lat="38.132978724504724" lon="15.520969308537575"><ele>24.0</ele><time>2026-04-26T09:46:20Z</time></trkpt><trkpt lat="38.13296732183593" lon="15.521125395863226"><ele>21.0</ele><time>2026-04-26T09:46:21Z</time></trkpt><trkpt lat="38.1329692809919" lon="15.521280172525865"><ele>20.8</ele><time>2026-04-26T09:46:22Z</time></trkpt><trkpt lat="38.13295808733266" lon="15.521429203200078"><ele>20.6</ele><time>2026-04-26T09:46:23Z</time></trkpt><trkpt lat="38.13296193728931" lon="15.521568456714812"><ele>20.4</ele><time>2026-04-26T09:46:24Z</time></trkpt><trkpt lat="38.132909057690604" lon="15.521700552585804"><ele>20.2</ele><time>2026-04-26T09:46:25Z</time></trkpt><trkpt lat="38.132869530116814" lon="15.521816289607061"><ele>20.0</ele><time>2026-04-26T09:46:26Z</time></trkpt><trkpt lat="38.13280684577521" lon="15.521915782782388"><ele>20.0</ele><time>2026-04-26T09:46:27Z</time></trkpt><trkpt lat="38.132714460088216" lon="15.521986093227396"><ele>20.0</ele><time>2026-04-26T09:46:28Z</time></trkpt><trkpt lat="38.132608372331084" lon="15.522025222017179"><ele>20.0</ele><time>2026-04-26T09:46:29Z</time></trkpt><trkpt lat="38.13250213366568" lon="15.522028799006552"><ele>20.0</ele><time>2026-04-26T09:46:30Z</time></trkpt><trkpt lat="38.13239927765236" lon="15.522010215930775"><ele>20.0</ele><time>2026-04-26T09:46:31Z</time></trkpt><trkpt lat="38.13230416790889" lon="15.521979277470734"><ele>19.0</ele><time>2026-04-26T09:46:32Z</time></trkpt><trkpt lat="38.13221178416685" lon="15.521950804325266"><ele>18.0</ele><time>2026-04-26T09:46:33Z</time></trkpt><trkpt lat="38.13212447288627" lon="15.521925316163603"><ele>17.0</ele><time>2026-04-26T09:46:34Z</time></trkpt><trkpt lat="38.132048914483086" lon="15.521876576892586"><ele>16.0</ele><time>2026-04-26T09:46:35Z</time></trkpt><trkpt lat="38.131967349179526" lon="15.521836026016627"><ele>15.000000000000002</ele><time>2026-04-26T09:46:36Z</time></trkpt><trkpt lat="38.1318872814799" lon="15.521797655950646"><ele>14.0</ele><time>2026-04-26T09:46:37Z</time></trkpt><trkpt lat="38.131812796161036" lon="15.52176339388051"><ele>14.0</ele><time>2026-04-26T09:46:38Z</time></trkpt><trkpt lat="38.13173892192699" lon="15.521728255782936"><ele>13.999999999999998</ele><time>2026-04-26T09:46:39Z</time></trkpt><trkpt lat="38.13164206044558" lon="15.521758488091633"><ele>13.999999999999998</ele><time>2026-04-26T09:46:42Z</time></trkpt><trkpt lat="38.13153680241558" lon="15.52173830344657"><ele>14.0</ele><time>2026-04-26T09:46:45Z</time></trkpt><trkpt lat="38.13140106153371" lon="15.521697071320034"><ele>14.0</ele><time>2026-04-26T09:46:47Z</time></trkpt><trkpt lat="38.13131071839514" lon="15.521688727356882"><ele>13.25</ele><time>2026-04-26T09:46:48Z</time></trkpt><trkpt lat="38.13121918983508" lon="15.521628064435005"><ele>12.5</ele><time>2026-04-26T09:46:49Z</time></trkpt><trkpt lat="38.13110824182416" lon="15.521593145670114"><ele>11.75</ele><time>2026-04-26T09:46:50Z</time></trkpt><trkpt lat="38.13098247858199" lon="15.5215452481092"><ele>11.0</ele><time>2026-04-26T09:46:51Z</time></trkpt><trkpt lat="38.13084242390504" lon="15.521487670048165"><ele>10.25</ele><time>2026-04-26T09:46:52Z</time></trkpt><trkpt lat="38.130711367080345" lon="15.5214376933763"><ele>9.5</ele><time>2026-04-26T09:46:53Z</time></trkpt><trkpt lat="38.130575708473856" lon="15.521378423453095"><ele>8.75</ele><time>2026-04-26T09:46:54Z</time></trkpt><trkpt lat="38.130427699775026" lon="15.521318754231276"><ele>8.0</ele><time>2026-04-26T09:46:55Z</time></trkpt><trkpt lat="38.13026567636622" lon="15.521249852299336"><ele>9.666666666666666</ele><time>2026-04-26T09:46:56Z</time></trkpt><trkpt lat="38.13006590876224" lon="15.521162630449375"><ele>11.333333333333332</ele><time>2026-04-26T09:46:57Z</time></trkpt><trkpt lat="38.12984735037403" lon="15.521071432537596"><ele>13.0</ele><time>2026-04-26T09:46:58Z</time></trkpt><trkpt lat="38.12966503847299" lon="15.520990656393103"><ele>13.0</ele><time>2026-04-26T09:46:59Z</time></trkpt><trkpt lat="38.12950014893405" lon="15.520915303325467"><ele>13.0</ele><time>2026-04-26T09:47:00Z</time></trkpt><trkpt lat="38.12935445436146" lon="15.520842104445771"><ele>13.0</ele><time>2026-04-26T09:47:01Z</time></trkpt><trkpt lat="38.129218938269744" lon="15.520778225356064"><ele>13.0</ele><time>2026-04-26T09:47:02Z</time></trkpt><trkpt lat="38.12908258386909" lon="15.520710884509354"><ele>13.0</ele><time>2026-04-26T09:47:03Z</time></trkpt><trkpt lat="38.128953279975086" lon="15.520635251147862"><ele>13.0</ele><time>2026-04-26T09:47:04Z</time></trkpt><trkpt lat="38.128833747941194" lon="15.520543997307403"><ele>13.0</ele><time>2026-04-26T09:47:05Z</time></trkpt><trkpt lat="38.12873454469469" lon="15.520447826792832"><ele>13.666666666666666</ele><time>2026-04-26T09:47:06Z</time></trkpt><trkpt lat="38.128646788312864" lon="15.520362741352066"><ele>14.333333333333332</ele><time>2026-04-26T09:47:07Z</time></trkpt><trkpt lat="38.12857463916436" lon="15.520292052640821"><ele>15.0</ele><time>2026-04-26T09:47:08Z</time></trkpt><trkpt lat="38.12851382342562" lon="15.520228768962829"><ele>15.666666666666668</ele><time>2026-04-26T09:47:09Z</time></trkpt><trkpt lat="38.12844644309578" lon="15.520174123721143"><ele>16.333333333333336</ele><time>2026-04-26T09:47:10Z</time></trkpt><trkpt lat="38.12838379408801" lon="15.520126234534281"><ele>17.0</ele><time>2026-04-26T09:47:11Z</time></trkpt><trkpt lat="38.12831759860368" lon="15.520083120806206"><ele>17.0</ele><time>2026-04-26T09:47:12Z</time></trkpt><trkpt lat="38.12824548061098" lon="15.520040270083184"><ele>17.0</ele><time>2026-04-26T09:47:13Z</time></trkpt><trkpt lat="38.128178732503805" lon="15.520005197606256"><ele>17.0</ele><time>2026-04-26T09:47:14Z</time></trkpt><trkpt lat="38.128108043002854" lon="15.519971232781646"><ele>17.0</ele><time>2026-04-26T09:47:15Z</time></trkpt><trkpt lat="38.12802725180102" lon="15.51993765973096"><ele>17.0</ele><time>2026-04-26T09:47:16Z</time></trkpt><trkpt lat="38.12795559956852" lon="15.519904964855037"><ele>17.0</ele><time>2026-04-26T09:47:17Z</time></trkpt><trkpt lat="38.12788409914239" lon="15.519868845919904"><ele>16.166666666666668</ele><time>2026-04-26T09:47:18Z</time></trkpt><trkpt lat="38.12780087367588" lon="15.519830510966406"><ele>15.333333333333334</ele><time>2026-04-26T09:47:19Z</time></trkpt><trkpt lat="38.127719803582295" lon="15.519790295413523"><ele>14.5</ele><time>2026-04-26T09:47:20Z</time></trkpt><trkpt lat="38.12763694806943" lon="15.519747263819323"><ele>13.666666666666668</ele><time>2026-04-26T09:47:21Z</time></trkpt><trkpt lat="38.12755338702008" lon="15.51970159378676"><ele>12.833333333333334</ele><time>2026-04-26T09:47:22Z</time></trkpt><trkpt lat="38.12746659626713" lon="15.51965773810561"><ele>12.0</ele><time>2026-04-26T09:47:23Z</time></trkpt><trkpt lat="38.12737159487788" lon="15.519613406211159"><ele>11.75</ele><time>2026-04-26T09:47:24Z</time></trkpt><trkpt lat="38.12727190919042" lon="15.519562061822379"><ele>11.5</ele><time>2026-04-26T09:47:25Z</time></trkpt><trkpt lat="38.12716350379573" lon="15.519506907595229"><ele>11.25</ele><time>2026-04-26T09:47:26Z</time></trkpt><trkpt lat="38.127050121018165" lon="15.519447656762157"><ele>11.0</ele><time>2026-04-26T09:47:27Z</time></trkpt><trkpt lat="38.1269359772581" lon="15.51938097906904"><ele>11.0</ele><time>2026-04-26T09:47:28Z</time></trkpt><trkpt lat="38.12681680189577" lon="15.519314308400318"><ele>11.0</ele><time>2026-04-26T09:47:29Z</time></trkpt><trkpt lat="38.126693647832" lon="15.519247166306291"><ele>11.0</ele><time>2026-04-26T09:47:30Z</time></trkpt><trkpt lat="38.12656917783201" lon="15.519177866257392"><ele>11.0</ele><time>2026-04-26T09:47:31Z</time></trkpt><trkpt lat="38.126441156561974" lon="15.519107255793122"><ele>10.75</ele><time>2026-04-26T09:47:32Z</time></trkpt><trkpt lat="38.12631081646767" lon="15.519039047196063"><ele>10.5</ele><time>2026-04-26T09:47:33Z</time></trkpt><trkpt lat="38.1261957304257" lon="15.51897981469834"><ele>10.25</ele><time>2026-04-26T09:47:34Z</time></trkpt><trkpt lat="38.12609519742002" lon="15.518924107833936"><ele>10.0</ele><time>2026-04-26T09:47:35Z</time></trkpt><trkpt lat="38.12600337228171" lon="15.518872867454208"><ele>10.0</ele><time>2026-04-26T09:47:36Z</time></trkpt><trkpt lat="38.12590318501591" lon="15.518824668167847"><ele>10.0</ele><time>2026-04-26T09:47:37Z</time></trkpt><trkpt lat="38.125798514317545" lon="15.518772159219779"><ele>10.0</ele><time>2026-04-26T09:47:38Z</time></trkpt><trkpt lat="38.1256928002927" lon="15.518713993201041"><ele>10.0</ele><time>2026-04-26T09:47:39Z</time></trkpt><trkpt lat="38.12558614086477" lon="15.518643323888305"><ele>10.5</ele><time>2026-04-26T09:47:40Z</time></trkpt><trkpt lat="38.12546975327316" lon="15.518596333364684"><ele>11.0</ele><time>2026-04-26T09:47:41Z</time></trkpt><trkpt lat="38.12536214385243" lon="15.518518046658302"><ele>11.5</ele><time>2026-04-26T09:47:42Z</time></trkpt><trkpt lat="38.125266943420876" lon="15.51844414054673"><ele>12.0</ele><time>2026-04-26T09:47:43Z</time></trkpt><trkpt lat="38.125171484563765" lon="15.518386377319214"><ele>12.0</ele><time>2026-04-26T09:47:44Z</time></trkpt><trkpt lat="38.125064158716114" lon="15.518336949632065"><ele>12.0</ele><time>2026-04-26T09:47:45Z</time></trkpt><trkpt lat="38.12497604286216" lon="15.518268707097876"><ele>12.0</ele><time>2026-04-26T09:47:46Z</time></trkpt><trkpt lat="38.1248856598375" lon="15.518194024005485"><ele>12.0</ele><time>2026-04-26T09:47:47Z</time></trkpt><trkpt lat="38.124804302179584" lon="15.518114994994049"><ele>12.0</ele><time>2026-04-26T09:47:48Z</time></trkpt><trkpt lat="38.124711784701866" lon="15.51803812459208"><ele>11.4</ele><time>2026-04-26T09:47:49Z</time></trkpt><trkpt lat="38.124640072823624" lon="15.517955943123964"><ele>10.799999999999999</ele><time>2026-04-26T09:47:50Z</time></trkpt><trkpt lat="38.1245592138161" lon="15.5178691549502"><ele>10.2</ele><time>2026-04-26T09:47:51Z</time></trkpt><trkpt lat="38.1244704258265" lon="15.51778258655883"><ele>9.6</ele><time>2026-04-26T09:47:52Z</time></trkpt><trkpt lat="38.12438776955183" lon="15.51768877958603"><ele>9.0</ele><time>2026-04-26T09:47:53Z</time></trkpt><trkpt lat="38.12430219382836" lon="15.517596420649374"><ele>11.0</ele><time>2026-04-26T09:47:54Z</time></trkpt><trkpt lat="38.12421950821228" lon="15.517493870953945"><ele>13.0</ele><time>2026-04-26T09:47:55Z</time></trkpt><trkpt lat="38.1241359262378" lon="15.51738539558919"><ele>15.0</ele><time>2026-04-26T09:47:56Z</time></trkpt><trkpt lat="38.12404750496507" lon="15.51727018421571"><ele>17.0</ele><time>2026-04-26T09:47:57Z</time></trkpt><trkpt lat="38.12397057944613" lon="15.517156491476033"><ele>18.5</ele><time>2026-04-26T09:47:58Z</time></trkpt><trkpt lat="38.123893371051935" lon="15.51704407454457"><ele>20.0</ele><time>2026-04-26T09:47:59Z</time></trkpt><trkpt lat="38.12381029117096" lon="15.51692597337197"><ele>21.5</ele><time>2026-04-26T09:48:00Z</time></trkpt><trkpt lat="38.12372440947512" lon="15.516809191630548"><ele>23.0</ele><time>2026-04-26T09:48:01Z</time></trkpt><trkpt lat="38.12363273986715" lon="15.516683992373368"><ele>23.0</ele><time>2026-04-26T09:48:02Z</time></trkpt><trkpt lat="38.12353424480278" lon="15.516556348461908"><ele>23.0</ele><time>2026-04-26T09:48:03Z</time></trkpt><trkpt lat="38.12342596709219" lon="15.516417210260542"><ele>23.0</ele><time>2026-04-26T09:48:04Z</time></trkpt><trkpt lat="38.12331507662207" lon="15.516259958437137"><ele>21.333333333333336</ele><time>2026-04-26T09:48:05Z</time></trkpt><trkpt lat="38.12319997800854" lon="15.51609790557191"><ele>19.666666666666668</ele><time>2026-04-26T09:48:06Z</time></trkpt><trkpt lat="38.12307424752203" lon="15.515931368412513"><ele>18.0</ele><time>2026-04-26T09:48:07Z</time></trkpt><trkpt lat="38.122941442889555" lon="15.515766775851281"><ele>18.0</ele><time>2026-04-26T09:48:08Z</time></trkpt><trkpt lat="38.12280256390325" lon="15.515615508509455"><ele>18.0</ele><time>2026-04-26T09:48:09Z</time></trkpt><trkpt lat="38.122654798759896" lon="15.515467603794704"><ele>18.0</ele><time>2026-04-26T09:48:10Z</time></trkpt><trkpt lat="38.122488217769025" lon="15.515338497972245"><ele>18.666666666666668</ele><time>2026-04-26T09:48:11Z</time></trkpt><trkpt lat="38.12232157670231" lon="15.515235629141456"><ele>19.333333333333336</ele><time>2026-04-26T09:48:12Z</time></trkpt><trkpt lat="38.12213094742676" lon="15.51512910044734"><ele>20.0</ele><time>2026-04-26T09:48:13Z</time></trkpt><trkpt lat="38.12192158960719" lon="15.515010774795162"><ele>20.0</ele><time>2026-04-26T09:48:14Z</time></trkpt><trkpt lat="38.12172818015006" lon="15.51491348434428"><ele>20.0</ele><time>2026-04-26T09:48:15Z</time></trkpt><trkpt lat="38.121533681374075" lon="15.514817382008646"><ele>20.0</ele><time>2026-04-26T09:48:16Z</time></trkpt><trkpt lat="38.12134014790008" lon="15.51472892308989"><ele>19.333333333333336</ele><time>2026-04-26T09:48:17Z</time></trkpt><trkpt lat="38.12115066597215" lon="15.514637618192436"><ele>18.666666666666668</ele><time>2026-04-26T09:48:18Z</time></trkpt><trkpt lat="38.12096490058912" lon="15.514547888428686"><ele>18.0</ele><time>2026-04-26T09:48:19Z</time></trkpt><trkpt lat="38.1207848414615" lon="15.51446020959706"><ele>20.666666666666664</ele><time>2026-04-26T09:48:20Z</time></trkpt><trkpt lat="38.12060684858156" lon="15.514383525463108"><ele>23.333333333333332</ele><time>2026-04-26T09:48:21Z</time></trkpt><trkpt lat="38.12042524882216" lon="15.514301144261966"><ele>26.0</ele><time>2026-04-26T09:48:22Z</time></trkpt><trkpt lat="38.1202473045179" lon="15.514211708016948"><ele>26.0</ele><time>2026-04-26T09:48:23Z</time></trkpt><trkpt lat="38.120064074229745" lon="15.514130103412068"><ele>26.0</ele><time>2026-04-26T09:48:24Z</time></trkpt><trkpt lat="38.119889129742035" lon="15.514050307361337"><ele>26.0</ele><time>2026-04-26T09:48:25Z</time></trkpt><trkpt lat="38.11971639656632" lon="15.513969460856165"><ele>25.333333333333332</ele><time>2026-04-26T09:48:26Z</time></trkpt><trkpt lat="38.11954422551068" lon="15.513877441261224"><ele>24.666666666666664</ele><time>2026-04-26T09:48:27Z</time></trkpt><trkpt lat="38.119377832436" lon="15.513758352926006"><ele>24.0</ele><time>2026-04-26T09:48:28Z</time></trkpt><trkpt lat="38.119208303759265" lon="15.513608724404728"><ele>23.0</ele><time>2026-04-26T09:48:29Z</time></trkpt><trkpt lat="38.11903828857759" lon="15.513466727098946"><ele>22.0</ele><time>2026-04-26T09:48:30Z</time></trkpt><trkpt lat="38.11886347928761" lon="15.51333179804618"><ele>21.0</ele><time>2026-04-26T09:48:31Z</time></trkpt><trkpt lat="38.118680149215386" lon="15.51320013971087"><ele>21.0</ele><time>2026-04-26T09:48:32Z</time></trkpt><trkpt lat="38.118497003521576" lon="15.513057810820065"><ele>21.0</ele><time>2026-04-26T09:48:33Z</time></trkpt><trkpt lat="38.11831115343287" lon="15.51290244632405"><ele>21.0</ele><time>2026-04-26T09:48:34Z</time></trkpt><trkpt lat="38.11813302961129" lon="15.512755777567488"><ele>21.333333333333332</ele><time>2026-04-26T09:48:35Z</time></trkpt><trkpt lat="38.11796777555146" lon="15.51262361900456"><ele>21.666666666666664</ele><time>2026-04-26T09:48:36Z</time></trkpt><trkpt lat="38.11781759811078" lon="15.512508120537948"><ele>22.0</ele><time>2026-04-26T09:48:37Z</time></trkpt><trkpt lat="38.11767253881056" lon="15.512396910237811"><ele>22.0</ele><time>2026-04-26T09:48:38Z</time></trkpt><trkpt lat="38.117538327980235" lon="15.512293856450974"><ele>22.0</ele><time>2026-04-26T09:48:39Z</time></trkpt><trkpt lat="38.11741036830659" lon="15.512193011696995"><ele>22.0</ele><time>2026-04-26T09:48:40Z</time></trkpt><trkpt lat="38.11728970064932" lon="15.51209536025882"><ele>22.666666666666664</ele><time>2026-04-26T09:48:41Z</time></trkpt><trkpt lat="38.117164376985656" lon="15.511993469086914"><ele>23.333333333333332</ele><time>2026-04-26T09:48:42Z</time></trkpt><trkpt lat="38.11702640095844" lon="15.511882667784928"><ele>24.0</ele><time>2026-04-26T09:48:43Z</time></trkpt><trkpt lat="38.116876481555366" lon="15.511768134875691"><ele>24.0</ele><time>2026-04-26T09:48:44Z</time></trkpt><trkpt lat="38.116719739714114" lon="15.511642374361804"><ele>24.0</ele><time>2026-04-26T09:48:45Z</time></trkpt><trkpt lat="38.11655227088763" lon="15.511524094861478"><ele>24.0</ele><time>2026-04-26T09:48:46Z</time></trkpt><trkpt lat="38.116370279470644" lon="15.511428896903457"><ele>23.0</ele><time>2026-04-26T09:48:47Z</time></trkpt><trkpt lat="38.11619488364264" lon="15.511350501930306"><ele>22.0</ele><time>2026-04-26T09:48:48Z</time></trkpt><trkpt lat="38.116023743403524" lon="15.511279418509044"><ele>21.0</ele><time>2026-04-26T09:48:49Z</time></trkpt><trkpt lat="38.115852359704284" lon="15.511212076466945"><ele>20.666666666666668</ele><time>2026-04-26T09:48:50Z</time></trkpt><trkpt lat="38.11568213907736" lon="15.511156235631686"><ele>20.333333333333336</ele><time>2026-04-26T09:48:51Z</time></trkpt><trkpt lat="38.11551243607575" lon="15.511107905776411"><ele>20.0</ele><time>2026-04-26T09:48:52Z</time></trkpt><trkpt lat="38.115350589048155" lon="15.511056702927435"><ele>20.0</ele><time>2026-04-26T09:48:53Z</time></trkpt><trkpt lat="38.11519465624097" lon="15.511005301868792"><ele>20.0</ele><time>2026-04-26T09:48:54Z</time></trkpt><trkpt lat="38.11504314675184" lon="15.510962807633227"><ele>20.0</ele><time>2026-04-26T09:48:55Z</time></trkpt><trkpt lat="38.1148916994372" lon="15.510927266068808"><ele>19.5</ele><time>2026-04-26T09:48:56Z</time></trkpt><trkpt lat="38.11474711675036" lon="15.51089782809718"><ele>19.0</ele><time>2026-04-26T09:48:57Z</time></trkpt><trkpt lat="38.11460257466878" lon="15.510885510589327"><ele>18.5</ele><time>2026-04-26T09:48:58Z</time></trkpt><trkpt lat="38.11445641910388" lon="15.510892841424923"><ele>18.0</ele><time>2026-04-26T09:48:59Z</time></trkpt><trkpt lat="38.11430609370933" lon="15.510924969358992"><ele>18.0</ele><time>2026-04-26T09:49:00Z</time></trkpt><trkpt lat="38.1141533804554" lon="15.510967137012283"><ele>18.0</ele><time>2026-04-26T09:49:01Z</time></trkpt><trkpt lat="38.11399534348302" lon="15.511004799824766"><ele>18.0</ele><time>2026-04-26T09:49:02Z</time></trkpt><trkpt lat="38.11383796501993" lon="15.511050703789548"><ele>17.0</ele><time>2026-04-26T09:49:03Z</time></trkpt><trkpt lat="38.11366830228542" lon="15.511085416465473"><ele>16.0</ele><time>2026-04-26T09:49:04Z</time></trkpt><trkpt lat="38.11350304611778" lon="15.51109687674283"><ele>15.0</ele><time>2026-04-26T09:49:05Z</time></trkpt><trkpt lat="38.11334730318216" lon="15.511078963745007"><ele>13.5</ele><time>2026-04-26T09:49:06Z</time></trkpt><trkpt lat="38.113196328625136" lon="15.511056817017373"><ele>12.0</ele><time>2026-04-26T09:49:07Z</time></trkpt><trkpt lat="38.113043620616345" lon="15.511043951083968"><ele>10.5</ele><time>2026-04-26T09:49:08Z</time></trkpt><trkpt lat="38.11290780457628" lon="15.511003546336662"><ele>9.0</ele><time>2026-04-26T09:49:09Z</time></trkpt><trkpt lat="38.112779739954" lon="15.510947080071949"><ele>9.0</ele><time>2026-04-26T09:49:10Z</time></trkpt><trkpt lat="38.112662448046855" lon="15.51088513587411"><ele>9.0</ele><time>2026-04-26T09:49:11Z</time></trkpt><trkpt lat="38.11255155345886" lon="15.510811140986858"><ele>9.0</ele><time>2026-04-26T09:49:12Z</time></trkpt><trkpt lat="38.11242873255806" lon="15.510745881421489"><ele>9.0</ele><time>2026-04-26T09:49:13Z</time></trkpt><trkpt lat="38.11228658640035" lon="15.510683489535767"><ele>8.666666666666666</ele><time>2026-04-26T09:49:14Z</time></trkpt><trkpt lat="38.112136388683865" lon="15.51059848591455"><ele>8.333333333333332</ele><time>2026-04-26T09:49:15Z</time></trkpt><trkpt lat="38.111977479245425" lon="15.510503436913556"><ele>8.0</ele><time>2026-04-26T09:49:16Z</time></trkpt><trkpt lat="38.11181189107088" lon="15.510393554238794"><ele>8.666666666666666</ele><time>2026-04-26T09:49:17Z</time></trkpt><trkpt lat="38.111634856515884" lon="15.510280251264366"><ele>9.333333333333334</ele><time>2026-04-26T09:49:18Z</time></trkpt><trkpt lat="38.111450202047536" lon="15.510166411039325"><ele>10.0</ele><time>2026-04-26T09:49:19Z</time></trkpt><trkpt lat="38.111256917983305" lon="15.510042946171778"><ele>10.0</ele><time>2026-04-26T09:49:20Z</time></trkpt><trkpt lat="38.11105546693095" lon="15.509906247540302"><ele>10.0</ele><time>2026-04-26T09:49:21Z</time></trkpt><trkpt lat="38.11082833705401" lon="15.509770330772021"><ele>11.5</ele><time>2026-04-26T09:49:22Z</time></trkpt><trkpt lat="38.11057630171383" lon="15.509622564941807"><ele>13.0</ele><time>2026-04-26T09:49:23Z</time></trkpt><trkpt lat="38.1103326856349" lon="15.50946086106143"><ele>13.0</ele><time>2026-04-26T09:49:24Z</time></trkpt><trkpt lat="38.11011242882441" lon="15.509319866991126"><ele>13.0</ele><time>2026-04-26T09:49:25Z</time></trkpt><trkpt lat="38.10989904979221" lon="15.509181453671388"><ele>12.5</ele><time>2026-04-26T09:49:26Z</time></trkpt><trkpt lat="38.109690081013454" lon="15.50904500572623"><ele>12.0</ele><time>2026-04-26T09:49:27Z</time></trkpt><trkpt lat="38.10947889051676" lon="15.508911910145539"><ele>12.0</ele><time>2026-04-26T09:49:28Z</time></trkpt><trkpt lat="38.109271639093166" lon="15.508780988477707"><ele>12.0</ele><time>2026-04-26T09:49:29Z</time></trkpt><trkpt lat="38.10907121399815" lon="15.50865527620965"><ele>12.0</ele><time>2026-04-26T09:49:30Z</time></trkpt><trkpt lat="38.10887190014181" lon="15.508534083848675"><ele>12.0</ele><time>2026-04-26T09:49:31Z</time></trkpt><trkpt lat="38.10867418740302" lon="15.508409641159789"><ele>12.0</ele><time>2026-04-26T09:49:32Z</time></trkpt><trkpt lat="38.10848330557882" lon="15.508283997145405"><ele>12.0</ele><time>2026-04-26T09:49:33Z</time></trkpt><trkpt lat="38.10829369737926" lon="15.50816198351892"><ele>12.0</ele><time>2026-04-26T09:49:34Z</time></trkpt><trkpt lat="38.1081011529348" lon="15.508044400809455"><ele>12.0</ele><time>2026-04-26T09:49:35Z</time></trkpt><trkpt lat="38.10791356863618" lon="15.507930436724896"><ele>12.333333333333332</ele><time>2026-04-26T09:49:36Z</time></trkpt><trkpt lat="38.10774058692729" lon="15.507821261875126"><ele>12.666666666666666</ele><time>2026-04-26T09:49:37Z</time></trkpt><trkpt lat="38.107567007484796" lon="15.50770834030329"><ele>13.0</ele><time>2026-04-26T09:49:38Z</time></trkpt><trkpt lat="38.107396708414704" lon="15.507605419217654"><ele>13.0</ele><time>2026-04-26T09:49:39Z</time></trkpt><trkpt lat="38.10722685994253" lon="15.507499867682764"><ele>13.0</ele><time>2026-04-26T09:49:40Z</time></trkpt><trkpt lat="38.107057258438154" lon="15.507393808413171"><ele>13.0</ele><time>2026-04-26T09:49:41Z</time></trkpt><trkpt lat="38.106893041651084" lon="15.50729147081259"><ele>13.0</ele><time>2026-04-26T09:49:42Z</time></trkpt><trkpt lat="38.106731167066116" lon="15.507192004601864"><ele>13.0</ele><time>2026-04-26T09:49:43Z</time></trkpt><trkpt lat="38.10656890059531" lon="15.507090901579037"><ele>13.0</ele><time>2026-04-26T09:49:44Z</time></trkpt><trkpt lat="38.10640779673414" lon="15.506991333793925"><ele>13.0</ele><time>2026-04-26T09:49:45Z</time></trkpt><trkpt lat="38.106256480887495" lon="15.506896665579774"><ele>13.0</ele><time>2026-04-26T09:49:46Z</time></trkpt><trkpt lat="38.10611066593573" lon="15.506807421691661"><ele>13.0</ele><time>2026-04-26T09:49:47Z</time></trkpt><trkpt lat="38.10597135593099" lon="15.506722967281519"><ele>13.0</ele><time>2026-04-26T09:49:48Z</time></trkpt><trkpt lat="38.105826301032394" lon="15.506642622122975"><ele>13.0</ele><time>2026-04-26T09:49:49Z</time></trkpt><trkpt lat="38.10568001922398" lon="15.506555123102205"><ele>13.0</ele><time>2026-04-26T09:49:50Z</time></trkpt><trkpt lat="38.105529070036056" lon="15.506453973025799"><ele>12.666666666666666</ele><time>2026-04-26T09:49:51Z</time></trkpt><trkpt lat="38.105372025430384" lon="15.506352394026168"><ele>12.333333333333332</ele><time>2026-04-26T09:49:52Z</time></trkpt><trkpt lat="38.10520964734893" lon="15.506251788181379"><ele>12.0</ele><time>2026-04-26T09:49:53Z</time></trkpt><trkpt lat="38.105042801098975" lon="15.506147662513401"><ele>13.333333333333332</ele><time>2026-04-26T09:49:54Z</time></trkpt><trkpt lat="38.104874316249095" lon="15.506042492991263"><ele>14.666666666666666</ele><time>2026-04-26T09:49:55Z</time></trkpt><trkpt lat="38.10470304044342" lon="15.50593120388803"><ele>16.0</ele><time>2026-04-26T09:49:56Z</time></trkpt><trkpt lat="38.10453596019246" lon="15.505824931852848"><ele>16.0</ele><time>2026-04-26T09:49:57Z</time></trkpt><trkpt lat="38.10437047583764" lon="15.505725336879479"><ele>16.0</ele><time>2026-04-26T09:49:58Z</time></trkpt><trkpt lat="38.1042029714254" lon="15.505629771700532"><ele>16.0</ele><time>2026-04-26T09:49:59Z</time></trkpt><trkpt lat="38.10403438677038" lon="15.505542166331297"><ele>16.0</ele><time>2026-04-26T09:50:00Z</time></trkpt><trkpt lat="38.10386630778791" lon="15.505463050118323"><ele>16.0</ele><time>2026-04-26T09:50:01Z</time></trkpt><trkpt lat="38.10369188937893" lon="15.505401043963133"><ele>16.0</ele><time>2026-04-26T09:50:02Z</time></trkpt><trkpt lat="38.10351495006721" lon="15.50535031087354"><ele>16.0</ele><time>2026-04-26T09:50:03Z</time></trkpt><trkpt lat="38.10333829033645" lon="15.505304959266509"><ele>16.0</ele><time>2026-04-26T09:50:04Z</time></trkpt><trkpt lat="38.10316115203215" lon="15.505257946291957"><ele>16.0</ele><time>2026-04-26T09:50:05Z</time></trkpt><trkpt lat="38.10298741722882" lon="15.505204743660638"><ele>15.333333333333332</ele><time>2026-04-26T09:50:06Z</time></trkpt><trkpt lat="38.102814294038566" lon="15.505149955493192"><ele>14.666666666666668</ele><time>2026-04-26T09:50:07Z</time></trkpt><trkpt lat="38.10263983367341" lon="15.505099224701732"><ele>14.0</ele><time>2026-04-26T09:50:08Z</time></trkpt><trkpt lat="38.10246735993201" lon="15.505048478426794"><ele>13.333333333333334</ele><time>2026-04-26T09:50:09Z</time></trkpt><trkpt lat="38.10229924650001" lon="15.504996878012339"><ele>12.666666666666668</ele><time>2026-04-26T09:50:10Z</time></trkpt><trkpt lat="38.10213856116409" lon="15.504948833647418"><ele>12.0</ele><time>2026-04-26T09:50:11Z</time></trkpt><trkpt lat="38.10197655936678" lon="15.50490190383258"><ele>12.0</ele><time>2026-04-26T09:50:12Z</time></trkpt><trkpt lat="38.10181063160138" lon="15.504855256107463"><ele>12.0</ele><time>2026-04-26T09:50:13Z</time></trkpt><trkpt lat="38.10164850731053" lon="15.504808436342005"><ele>12.0</ele><time>2026-04-26T09:50:14Z</time></trkpt><trkpt lat="38.10148902487018" lon="15.504761484114763"><ele>11.333333333333334</ele><time>2026-04-26T09:50:15Z</time></trkpt><trkpt lat="38.1013307968034" lon="15.50471746134182"><ele>10.666666666666668</ele><time>2026-04-26T09:50:16Z</time></trkpt><trkpt lat="38.10117795471673" lon="15.504675670458747"><ele>10.0</ele><time>2026-04-26T09:50:17Z</time></trkpt><trkpt lat="38.101030013568" lon="15.504644590557554"><ele>10.0</ele><time>2026-04-26T09:50:18Z</time></trkpt><trkpt lat="38.10088160125855" lon="15.50462349439361"><ele>10.0</ele><time>2026-04-26T09:50:19Z</time></trkpt><trkpt lat="38.10073276361744" lon="15.50461784989127"><ele>10.0</ele><time>2026-04-26T09:50:20Z</time></trkpt><trkpt lat="38.10059526466397" lon="15.504624543902414"><ele>10.0</ele><time>2026-04-26T09:50:21Z</time></trkpt><trkpt lat="38.100464984643196" lon="15.504638403764423"><ele>9.5</ele><time>2026-04-26T09:50:22Z</time></trkpt><trkpt lat="38.100338473668906" lon="15.50465572465991"><ele>9.0</ele><time>2026-04-26T09:50:23Z</time></trkpt><trkpt lat="38.100218941398964" lon="15.504678032217733"><ele>8.5</ele><time>2026-04-26T09:50:24Z</time></trkpt><trkpt lat="38.10010566522299" lon="15.50471040324159"><ele>8.0</ele><time>2026-04-26T09:50:25Z</time></trkpt><trkpt lat="38.09999734806562" lon="15.504750018425549"><ele>8.0</ele><time>2026-04-26T09:50:26Z</time></trkpt><trkpt lat="38.09988262449351" lon="15.504795183941011"><ele>8.0</ele><time>2026-04-26T09:50:27Z</time></trkpt><trkpt lat="38.09976858928248" lon="15.504837076630883"><ele>8.0</ele><time>2026-04-26T09:50:28Z</time></trkpt><trkpt lat="38.09964769312277" lon="15.504883929176364"><ele>8.0</ele><time>2026-04-26T09:50:29Z</time></trkpt><trkpt lat="38.09952043124061" lon="15.504932757610073"><ele>8.0</ele><time>2026-04-26T09:50:30Z</time></trkpt><trkpt lat="38.09939398653193" lon="15.50496513402326"><ele>8.0</ele><time>2026-04-26T09:50:31Z</time></trkpt><trkpt lat="38.099265128468474" lon="15.505018499748074"><ele>8.0</ele><time>2026-04-26T09:50:32Z</time></trkpt><trkpt lat="38.099133756780276" lon="15.505090507741636"><ele>8.0</ele><time>2026-04-26T09:50:33Z</time></trkpt><trkpt lat="38.09899456084116" lon="15.505128935728319"><ele>8.0</ele><time>2026-04-26T09:50:34Z</time></trkpt><trkpt lat="38.098854371793415" lon="15.505158023809932"><ele>8.0</ele><time>2026-04-26T09:50:35Z</time></trkpt><trkpt lat="38.0987204192054" lon="15.505169993524285"><ele>8.0</ele><time>2026-04-26T09:50:36Z</time></trkpt><trkpt lat="38.09857420697616" lon="15.505148755974792"><ele>8.0</ele><time>2026-04-26T09:50:37Z</time></trkpt><trkpt lat="38.09843565879809" lon="15.505124154078477"><ele>8.0</ele><time>2026-04-26T09:50:38Z</time></trkpt><trkpt lat="38.09828498913522" lon="15.50508856916383"><ele>8.0</ele><time>2026-04-26T09:50:39Z</time></trkpt><trkpt lat="38.098139774143284" lon="15.505049252587133"><ele>8.0</ele><time>2026-04-26T09:50:40Z</time></trkpt><trkpt lat="38.09799639217977" lon="15.50500149914798"><ele>8.333333333333332</ele><time>2026-04-26T09:50:41Z</time></trkpt><trkpt lat="38.09784886830269" lon="15.504943910092482"><ele>8.666666666666666</ele><time>2026-04-26T09:50:42Z</time></trkpt><trkpt lat="38.09770192922208" lon="15.504882046777624"><ele>9.0</ele><time>2026-04-26T09:50:43Z</time></trkpt><trkpt lat="38.097548923036406" lon="15.504818853984109"><ele>8.666666666666666</ele><time>2026-04-26T09:50:44Z</time></trkpt><trkpt lat="38.09739782623215" lon="15.504756493357634"><ele>8.333333333333332</ele><time>2026-04-26T09:50:45Z</time></trkpt><trkpt lat="38.097237193316545" lon="15.50469180101546"><ele>8.0</ele><time>2026-04-26T09:50:46Z</time></trkpt><trkpt lat="38.09707439482863" lon="15.504623838893103"><ele>8.666666666666666</ele><time>2026-04-26T09:50:47Z</time></trkpt><trkpt lat="38.09691415468429" lon="15.504557896955685"><ele>9.333333333333334</ele><time>2026-04-26T09:50:48Z</time></trkpt><trkpt lat="38.096751236159086" lon="15.50449230964483"><ele>10.0</ele><time>2026-04-26T09:50:49Z</time></trkpt><trkpt lat="38.09658638472282" lon="15.504427981112189"><ele>9.666666666666668</ele><time>2026-04-26T09:50:50Z</time></trkpt><trkpt lat="38.096423433622526" lon="15.504366158758563"><ele>9.333333333333334</ele><time>2026-04-26T09:50:51Z</time></trkpt><trkpt lat="38.09626590577209" lon="15.50429964059195"><ele>9.0</ele><time>2026-04-26T09:50:52Z</time></trkpt><trkpt lat="38.096103046998444" lon="15.504231482098863"><ele>9.0</ele><time>2026-04-26T09:50:53Z</time></trkpt><trkpt lat="38.09594737421175" lon="15.504172197794649"><ele>9.0</ele><time>2026-04-26T09:50:54Z</time></trkpt><trkpt lat="38.095803832647555" lon="15.504115798802333"><ele>9.0</ele><time>2026-04-26T09:50:55Z</time></trkpt><trkpt lat="38.09566635593893" lon="15.504057634650383"><ele>8.75</ele><time>2026-04-26T09:50:56Z</time></trkpt><trkpt lat="38.09553533931908" lon="15.504000110004887"><ele>8.5</ele><time>2026-04-26T09:50:57Z</time></trkpt><trkpt lat="38.09540818494229" lon="15.503943947841865"><ele>8.25</ele><time>2026-04-26T09:50:58Z</time></trkpt><trkpt lat="38.09528471918581" lon="15.50389352311133"><ele>8.0</ele><time>2026-04-26T09:50:59Z</time></trkpt><trkpt lat="38.09516712004623" lon="15.50384740682001"><ele>8.0</ele><time>2026-04-26T09:51:00Z</time></trkpt><trkpt lat="38.09505530684581" lon="15.503804324414418"><ele>8.0</ele><time>2026-04-26T09:51:01Z</time></trkpt><trkpt lat="38.09494540935993" lon="15.503765302730784"><ele>8.0</ele><time>2026-04-26T09:51:02Z</time></trkpt><trkpt lat="38.094840535101824" lon="15.50372958258423"><ele>8.0</ele><time>2026-04-26T09:51:03Z</time></trkpt><trkpt lat="38.094736574711185" lon="15.503700454906268"><ele>8.0</ele><time>2026-04-26T09:51:04Z</time></trkpt><trkpt lat="38.094639697365054" lon="15.503672423919426"><ele>8.166666666666666</ele><time>2026-04-26T09:51:05Z</time></trkpt><trkpt lat="38.09454990756015" lon="15.50364709821592"><ele>8.333333333333332</ele><time>2026-04-26T09:51:06Z</time></trkpt><trkpt lat="38.094470675047695" lon="15.503626919800507"><ele>8.5</ele><time>2026-04-26T09:51:07Z</time></trkpt><trkpt lat="38.09440081364728" lon="15.503607179656145"><ele>8.666666666666666</ele><time>2026-04-26T09:51:08Z</time></trkpt><trkpt lat="38.094289953834675" lon="15.503572777960002"><ele>8.833333333333334</ele><time>2026-04-26T09:51:10Z</time></trkpt><trkpt lat="38.09421411241361" lon="15.5035547741626"><ele>9.0</ele><time>2026-04-26T09:51:12Z</time></trkpt><trkpt lat="38.09413965949997" lon="15.503528918129476"><ele>8.25</ele><time>2026-04-26T09:51:15Z</time></trkpt><trkpt lat="38.09402851508729" lon="15.50347904186594"><ele>7.5</ele><time>2026-04-26T09:51:18Z</time></trkpt><trkpt lat="38.09394166566817" lon="15.503462400295435"><ele>6.75</ele><time>2026-04-26T09:51:19Z</time></trkpt><trkpt lat="38.09383109209843" lon="15.503433676331769"><ele>6.0</ele><time>2026-04-26T09:51:20Z</time></trkpt><trkpt lat="38.093697056716444" lon="15.503395900955"><ele>6.0</ele><time>2026-04-26T09:51:21Z</time></trkpt><trkpt lat="38.093545696121005" lon="15.503354825910964"><ele>6.0</ele><time>2026-04-26T09:51:22Z</time></trkpt><trkpt lat="38.093397844708356" lon="15.503317390426082"><ele>6.0</ele><time>2026-04-26T09:51:23Z</time></trkpt><trkpt lat="38.09324177581633" lon="15.503273677202424"><ele>6.0</ele><time>2026-04-26T09:51:24Z</time></trkpt><trkpt lat="38.09307415124872" lon="15.503230787716584"><ele>6.0</ele><time>2026-04-26T09:51:25Z</time></trkpt><trkpt lat="38.092896038791785" lon="15.503188879852678"><ele>6.0</ele><time>2026-04-26T09:51:26Z</time></trkpt><trkpt lat="38.092732333509396" lon="15.503150333723214"><ele>6.0</ele><time>2026-04-26T09:51:27Z</time></trkpt><trkpt lat="38.092577342031596" lon="15.503117265689905"><ele>6.0</ele><time>2026-04-26T09:51:28Z</time></trkpt><trkpt lat="38.092420267019136" lon="15.503077150469553"><ele>6.0</ele><time>2026-04-26T09:51:29Z</time></trkpt><trkpt lat="38.09226300555236" lon="15.503036746672535"><ele>5.666666666666667</ele><time>2026-04-26T09:51:30Z</time></trkpt><trkpt lat="38.092111957045084" lon="15.502996586879256"><ele>5.333333333333334</ele><time>2026-04-26T09:51:31Z</time></trkpt><trkpt lat="38.09196153226999" lon="15.502957535123036"><ele>5.0</ele><time>2026-04-26T09:51:32Z</time></trkpt><trkpt lat="38.09179956188898" lon="15.502915549573425"><ele>5.0</ele><time>2026-04-26T09:51:33Z</time></trkpt><trkpt lat="38.09163767570821" lon="15.502870396473892"><ele>5.0</ele><time>2026-04-26T09:51:34Z</time></trkpt><trkpt lat="38.091467863206766" lon="15.502826503211637"><ele>5.0</ele><time>2026-04-26T09:51:35Z</time></trkpt><trkpt lat="38.09130786883543" lon="15.502774514096902"><ele>5.0</ele><time>2026-04-26T09:51:36Z</time></trkpt><trkpt lat="38.09115339650576" lon="15.502713866082376"><ele>5.0</ele><time>2026-04-26T09:51:37Z</time></trkpt><trkpt lat="38.09100011512329" lon="15.502652675632495"><ele>5.0</ele><time>2026-04-26T09:51:38Z</time></trkpt><trkpt lat="38.0908464042804" lon="15.502592033629227"><ele>4.0</ele><time>2026-04-26T09:51:39Z</time></trkpt><trkpt lat="38.09069836919938" lon="15.502529521275925"><ele>3.0</ele><time>2026-04-26T09:51:40Z</time></trkpt><trkpt lat="38.09055499615618" lon="15.502463299026944"><ele>2.0</ele><time>2026-04-26T09:51:41Z</time></trkpt><trkpt lat="38.09041327881297" lon="15.50239713213781"><ele>2.0</ele><time>2026-04-26T09:51:42Z</time></trkpt><trkpt lat="38.09027390406185" lon="15.5023302373174"><ele>2.0</ele><time>2026-04-26T09:51:43Z</time></trkpt><trkpt lat="38.090145116831195" lon="15.502262288777734"><ele>2.0</ele><time>2026-04-26T09:51:44Z</time></trkpt><trkpt lat="38.09002103246701" lon="15.502193130410719"><ele>2.0</ele><time>2026-04-26T09:51:45Z</time></trkpt><trkpt lat="38.089904076358366" lon="15.502116585284949"><ele>3.0</ele><time>2026-04-26T09:51:46Z</time></trkpt><trkpt lat="38.08979132480349" lon="15.502038667960178"><ele>4.0</ele><time>2026-04-26T09:51:47Z</time></trkpt><trkpt lat="38.089680871264875" lon="15.50196125746405"><ele>5.0</ele><time>2026-04-26T09:51:48Z</time></trkpt><trkpt lat="38.08957359022581" lon="15.501882076077171"><ele>6.0</ele><time>2026-04-26T09:51:49Z</time></trkpt><trkpt lat="38.08946662894911" lon="15.501807660437903"><ele>6.0</ele><time>2026-04-26T09:51:50Z</time></trkpt><trkpt lat="38.08936100534865" lon="15.501729989286927"><ele>6.0</ele><time>2026-04-26T09:51:51Z</time></trkpt><trkpt lat="38.08925527773522" lon="15.501652379876141"><ele>6.0</ele><time>2026-04-26T09:51:52Z</time></trkpt><trkpt lat="38.08915226130811" lon="15.50157115851041"><ele>6.0</ele><time>2026-04-26T09:51:53Z</time></trkpt><trkpt lat="38.08905082730213" lon="15.50149150427879"><ele>5.75</ele><time>2026-04-26T09:51:54Z</time></trkpt><trkpt lat="38.08895173188932" lon="15.501412099574306"><ele>5.5</ele><time>2026-04-26T09:51:55Z</time></trkpt><trkpt lat="38.08885260739516" lon="15.501331825679319"><ele>5.25</ele><time>2026-04-26T09:51:56Z</time></trkpt><trkpt lat="38.08875678478963" lon="15.50125179979778"><ele>5.0</ele><time>2026-04-26T09:51:57Z</time></trkpt><trkpt lat="38.08866260470791" lon="15.50117237691722"><ele>5.0</ele><time>2026-04-26T09:51:58Z</time></trkpt><trkpt lat="38.088568745953445" lon="15.50109141428496"><ele>5.0</ele><time>2026-04-26T09:51:59Z</time></trkpt><trkpt lat="38.08847594885595" lon="15.501012240767672"><ele>5.0</ele><time>2026-04-26T09:52:00Z</time></trkpt><trkpt lat="38.08838613989708" lon="15.500931645079211"><ele>5.0</ele><time>2026-04-26T09:52:01Z</time></trkpt><trkpt lat="38.08829736734929" lon="15.500853650697776"><ele>5.0</ele><time>2026-04-26T09:52:02Z</time></trkpt><trkpt lat="38.088210273021666" lon="15.500776389941722"><ele>5.0</ele><time>2026-04-26T09:52:03Z</time></trkpt><trkpt lat="38.08812461258596" lon="15.500700236088987"><ele>5.0</ele><time>2026-04-26T09:52:04Z</time></trkpt><trkpt lat="38.08803838264454" lon="15.50062622860614"><ele>5.0</ele><time>2026-04-26T09:52:05Z</time></trkpt><trkpt lat="38.08795467331957" lon="15.500553913059546"><ele>5.0</ele><time>2026-04-26T09:52:06Z</time></trkpt><trkpt lat="38.08786715292909" lon="15.500476014091602"><ele>5.0</ele><time>2026-04-26T09:52:07Z</time></trkpt><trkpt lat="38.08777577162643" lon="15.50039688817078"><ele>5.0</ele><time>2026-04-26T09:52:08Z</time></trkpt><trkpt lat="38.08768217649801" lon="15.500315434329867"><ele>5.0</ele><time>2026-04-26T09:52:09Z</time></trkpt><trkpt lat="38.087582337343285" lon="15.500229130680587"><ele>5.0</ele><time>2026-04-26T09:52:10Z</time></trkpt><trkpt lat="38.087474454867184" lon="15.500136147439862"><ele>5.0</ele><time>2026-04-26T09:52:11Z</time></trkpt><trkpt lat="38.08736130481906" lon="15.500045107897837"><ele>4.5</ele><time>2026-04-26T09:52:12Z</time></trkpt><trkpt lat="38.08724602263124" lon="15.49995381388717"><ele>4.0</ele><time>2026-04-26T09:52:13Z</time></trkpt><trkpt lat="38.0871302407188" lon="15.49986011714615"><ele>3.5</ele><time>2026-04-26T09:52:14Z</time></trkpt><trkpt lat="38.08701465149083" lon="15.499764572645125"><ele>3.0</ele><time>2026-04-26T09:52:15Z</time></trkpt><trkpt lat="38.08689714502532" lon="15.499666453687569"><ele>3.75</ele><time>2026-04-26T09:52:16Z</time></trkpt><trkpt lat="38.08678039306279" lon="15.499570685317705"><ele>4.5</ele><time>2026-04-26T09:52:17Z</time></trkpt><trkpt lat="38.08666153473817" lon="15.499472130569195"><ele>5.25</ele><time>2026-04-26T09:52:18Z</time></trkpt><trkpt lat="38.086541602632856" lon="15.499367870437812"><ele>6.0</ele><time>2026-04-26T09:52:19Z</time></trkpt><trkpt lat="38.08642073498872" lon="15.49926440046613"><ele>6.0</ele><time>2026-04-26T09:52:20Z</time></trkpt><trkpt lat="38.08629854050172" lon="15.49915934724792"><ele>6.0</ele><time>2026-04-26T09:52:21Z</time></trkpt><trkpt lat="38.086175243548624" lon="15.499052796780038"><ele>6.0</ele><time>2026-04-26T09:52:22Z</time></trkpt><trkpt lat="38.08604880839197" lon="15.498945945680198"><ele>6.0</ele><time>2026-04-26T09:52:23Z</time></trkpt><trkpt lat="38.085922083319204" lon="15.498838561851658"><ele>6.0</ele><time>2026-04-26T09:52:24Z</time></trkpt><trkpt lat="38.08579116203856" lon="15.498726971763444"><ele>6.0</ele><time>2026-04-26T09:52:25Z</time></trkpt><trkpt lat="38.08565797249224" lon="15.498614912960944"><ele>6.0</ele><time>2026-04-26T09:52:26Z</time></trkpt><trkpt lat="38.08552352206724" lon="15.498503222842322"><ele>6.0</ele><time>2026-04-26T09:52:27Z</time></trkpt><trkpt lat="38.08540283740845" lon="15.49839848619415"><ele>6.0</ele><time>2026-04-26T09:52:28Z</time></trkpt><trkpt lat="38.08529199026785" lon="15.498300216083232"><ele>6.0</ele><time>2026-04-26T09:52:29Z</time></trkpt><trkpt lat="38.08518525274222" lon="15.49820788757157"><ele>6.0</ele><time>2026-04-26T09:52:30Z</time></trkpt><trkpt lat="38.08508750660599" lon="15.498120901927319"><ele>6.0</ele><time>2026-04-26T09:52:31Z</time></trkpt><trkpt lat="38.08499614127295" lon="15.498041038306942"><ele>6.0</ele><time>2026-04-26T09:52:32Z</time></trkpt><trkpt lat="38.08491181649774" lon="15.497967814341923"><ele>6.0</ele><time>2026-04-26T09:52:33Z</time></trkpt><trkpt lat="38.08483482867373" lon="15.49790387428283"><ele>6.0</ele><time>2026-04-26T09:52:34Z</time></trkpt><trkpt lat="38.084767404252" lon="15.497845947775152"><ele>6.0</ele><time>2026-04-26T09:52:35Z</time></trkpt><trkpt lat="38.08471551717694" lon="15.49779668404353"><ele>6.0</ele><time>2026-04-26T09:52:36Z</time></trkpt><trkpt lat="38.08462955204624" lon="15.497726562318746"><ele>6.0</ele><time>2026-04-26T09:52:38Z</time></trkpt><trkpt lat="38.084579931666134" lon="15.49767108130982"><ele>6.0</ele><time>2026-04-26T09:52:41Z</time></trkpt><trkpt lat="38.084481866497846" lon="15.497575217082046"><ele>6.0</ele><time>2026-04-26T09:53:17Z</time></trkpt><trkpt lat="38.0843831160657" lon="15.497494366161341"><ele>6.0</ele><time>2026-04-26T09:53:18Z</time></trkpt><trkpt lat="38.08422575130983" lon="15.497366086627684"><ele>7.0</ele><time>2026-04-26T09:53:19Z</time></trkpt><trkpt lat="38.08403182219117" lon="15.497196292396588"><ele>8.0</ele><time>2026-04-26T09:53:20Z</time></trkpt><trkpt lat="38.08379937519329" lon="15.49700401055833"><ele>8.0</ele><time>2026-04-26T09:53:21Z</time></trkpt><trkpt lat="38.083548435452066" lon="15.496795379455145"><ele>8.0</ele><time>2026-04-26T09:53:22Z</time></trkpt><trkpt lat="38.08328024406969" lon="15.496558839705639"><ele>7.5</ele><time>2026-04-26T09:53:23Z</time></trkpt><trkpt lat="38.08299963016086" lon="15.496313129734894"><ele>7.0</ele><time>2026-04-26T09:53:24Z</time></trkpt><trkpt lat="38.08271782459454" lon="15.496078162776511"><ele>7.0</ele><time>2026-04-26T09:53:25Z</time></trkpt><trkpt lat="38.082456915781506" lon="15.495886814594332"><ele>7.0</ele><time>2026-04-26T09:53:26Z</time></trkpt><trkpt lat="38.08219658180889" lon="15.495729156234432"><ele>5.5</ele><time>2026-04-26T09:53:27Z</time></trkpt><trkpt lat="38.08193615655336" lon="15.495600910670989"><ele>4.0</ele><time>2026-04-26T09:53:28Z</time></trkpt><trkpt lat="38.08166398257465" lon="15.495485804943394"><ele>8.0</ele><time>2026-04-26T09:53:29Z</time></trkpt><trkpt lat="38.08137863336721" lon="15.495384266132481"><ele>12.0</ele><time>2026-04-26T09:53:30Z</time></trkpt><trkpt lat="38.08108585233927" lon="15.495285582795214"><ele>12.0</ele><time>2026-04-26T09:53:31Z</time></trkpt><trkpt lat="38.08078981679598" lon="15.49518963865697"><ele>12.0</ele><time>2026-04-26T09:53:32Z</time></trkpt><trkpt lat="38.08049039782138" lon="15.495086159623494"><ele>10.5</ele><time>2026-04-26T09:53:33Z</time></trkpt><trkpt lat="38.080199437994814" lon="15.494986789282096"><ele>9.0</ele><time>2026-04-26T09:53:34Z</time></trkpt><trkpt lat="38.0799248102672" lon="15.49489576633577"><ele>7.5</ele><time>2026-04-26T09:53:35Z</time></trkpt><trkpt lat="38.079668276910176" lon="15.494803970431821"><ele>6.0</ele><time>2026-04-26T09:53:36Z</time></trkpt><trkpt lat="38.079421955988934" lon="15.494717989057984"><ele>6.0</ele><time>2026-04-26T09:53:37Z</time></trkpt><trkpt lat="38.07916795436116" lon="15.494628069297061"><ele>6.0</ele><time>2026-04-26T09:53:38Z</time></trkpt><trkpt lat="38.078906855189544" lon="15.494537729556114"><ele>8.0</ele><time>2026-04-26T09:53:39Z</time></trkpt><trkpt lat="38.07864015458146" lon="15.494444479652604"><ele>10.0</ele><time>2026-04-26T09:53:40Z</time></trkpt><trkpt lat="38.078366684264196" lon="15.49434950556586"><ele>9.0</ele><time>2026-04-26T09:53:41Z</time></trkpt><trkpt lat="38.07809470439564" lon="15.494253263099486"><ele>8.0</ele><time>2026-04-26T09:53:42Z</time></trkpt><trkpt lat="38.07782225072826" lon="15.494155591869841"><ele>8.0</ele><time>2026-04-26T09:53:43Z</time></trkpt><trkpt lat="38.07754884607797" lon="15.494056987135231"><ele>8.0</ele><time>2026-04-26T09:53:44Z</time></trkpt><trkpt lat="38.07727558570722" lon="15.493956365387561"><ele>6.5</ele><time>2026-04-26T09:53:45Z</time></trkpt><trkpt lat="38.07700190655074" lon="15.493853064944558"><ele>5.0</ele><time>2026-04-26T09:53:46Z</time></trkpt><trkpt lat="38.07673314242111" lon="15.493756672216639"><ele>7.5</ele><time>2026-04-26T09:53:47Z</time></trkpt><trkpt lat="38.076456679762316" lon="15.493658107307779"><ele>10.0</ele><time>2026-04-26T09:53:48Z</time></trkpt><trkpt lat="38.07618984305325" lon="15.493551037079198"><ele>10.0</ele><time>2026-04-26T09:53:49Z</time></trkpt><trkpt lat="38.07593806044931" lon="15.493457887200817"><ele>10.0</ele><time>2026-04-26T09:53:50Z</time></trkpt><trkpt lat="38.0756998917321" lon="15.49336733369564"><ele>6.5</ele><time>2026-04-26T09:53:51Z</time></trkpt><trkpt lat="38.075462033510384" lon="15.493249962854975"><ele>3.0</ele><time>2026-04-26T09:53:52Z</time></trkpt><trkpt lat="38.07522777997146" lon="15.49310602442907"><ele>3.0</ele><time>2026-04-26T09:53:53Z</time></trkpt><trkpt lat="38.074994317082876" lon="15.49295796464503"><ele>3.0</ele><time>2026-04-26T09:53:54Z</time></trkpt><trkpt lat="38.07476245378408" lon="15.492805173121434"><ele>4.0</ele><time>2026-04-26T09:53:55Z</time></trkpt><trkpt lat="38.07453134301179" lon="15.492656367118755"><ele>5.0</ele><time>2026-04-26T09:53:56Z</time></trkpt><trkpt lat="38.074297052501905" lon="15.492507050500516"><ele>3.0</ele><time>2026-04-26T09:53:57Z</time></trkpt><trkpt lat="38.0740672582663" lon="15.492355816698801"><ele>1.0</ele><time>2026-04-26T09:53:58Z</time></trkpt><trkpt lat="38.07383679735215" lon="15.492205807645318"><ele>5.5</ele><time>2026-04-26T09:53:59Z</time></trkpt><trkpt lat="38.07360718537035" lon="15.49205027250639"><ele>10.0</ele><time>2026-04-26T09:54:00Z</time></trkpt><trkpt lat="38.073381858600996" lon="15.491882404334673"><ele>6.0</ele><time>2026-04-26T09:54:01Z</time></trkpt><trkpt lat="38.07317257698802" lon="15.491688822223809"><ele>2.0</ele><time>2026-04-26T09:54:02Z</time></trkpt><trkpt lat="38.072966686356274" lon="15.491479498303528"><ele>2.0</ele><time>2026-04-26T09:54:03Z</time></trkpt><trkpt lat="38.072758360951376" lon="15.491272445357081"><ele>2.0</ele><time>2026-04-26T09:54:04Z</time></trkpt><trkpt lat="38.072550761498206" lon="15.491067100814593"><ele>2.5</ele><time>2026-04-26T09:54:05Z</time></trkpt><trkpt lat="38.07234778717612" lon="15.490865244085427"><ele>3.0</ele><time>2026-04-26T09:54:06Z</time></trkpt><trkpt lat="38.07215733263633" lon="15.49067703434671"><ele>3.0</ele><time>2026-04-26T09:54:07Z</time></trkpt><trkpt lat="38.071978196646" lon="15.490494850563154"><ele>3.0</ele><time>2026-04-26T09:54:08Z</time></trkpt><trkpt lat="38.0718045213531" lon="15.49031494780251"><ele>3.333333333333333</ele><time>2026-04-26T09:54:09Z</time></trkpt><trkpt lat="38.07163970417323" lon="15.490133843154732"><ele>3.6666666666666665</ele><time>2026-04-26T09:54:10Z</time></trkpt><trkpt lat="38.07149002440885" lon="15.489941562042276"><ele>4.0</ele><time>2026-04-26T09:54:11Z</time></trkpt><trkpt lat="38.0713669866936" lon="15.489713006482152"><ele>5.666666666666666</ele><time>2026-04-26T09:54:12Z</time></trkpt><trkpt lat="38.071287995119114" lon="15.489469844354497"><ele>7.333333333333333</ele><time>2026-04-26T09:54:13Z</time></trkpt><trkpt lat="38.07122821571125" lon="15.489210735977784"><ele>9.0</ele><time>2026-04-26T09:54:14Z</time></trkpt><trkpt lat="38.07117073636925" lon="15.488950542870755"><ele>10.333333333333332</ele><time>2026-04-26T09:54:15Z</time></trkpt><trkpt lat="38.07109553107827" lon="15.488696952143098"><ele>11.666666666666666</ele><time>2026-04-26T09:54:16Z</time></trkpt><trkpt lat="38.07102256489626" lon="15.488455365936446"><ele>13.0</ele><time>2026-04-26T09:54:17Z</time></trkpt><trkpt lat="38.070946156816035" lon="15.48823805356347"><ele>13.0</ele><time>2026-04-26T09:54:18Z</time></trkpt><trkpt lat="38.070873625732425" lon="15.488047481007829"><ele>13.0</ele><time>2026-04-26T09:54:19Z</time></trkpt><trkpt lat="38.070793150478345" lon="15.487889134318067"><ele>13.0</ele><time>2026-04-26T09:54:20Z</time></trkpt><trkpt lat="38.07069865864043" lon="15.487776776211982"><ele>13.0</ele><time>2026-04-26T09:54:21Z</time></trkpt><trkpt lat="38.07059711058051" lon="15.48767253510344"><ele>13.0</ele><time>2026-04-26T09:54:22Z</time></trkpt><trkpt lat="38.0705222743654" lon="15.487575168094132"><ele>13.0</ele><time>2026-04-26T09:54:23Z</time></trkpt><trkpt lat="38.07046175348429" lon="15.487499787167058"><ele>13.0</ele><time>2026-04-26T09:54:24Z</time></trkpt><trkpt lat="38.07039981444202" lon="15.487430260831378"><ele>13.0</ele><time>2026-04-26T09:54:25Z</time></trkpt><trkpt lat="38.07033101835154" lon="15.487352626975598"><ele>13.0</ele><time>2026-04-26T09:54:26Z</time></trkpt><trkpt lat="38.07024832604664" lon="15.487255978848594"><ele>13.0</ele><time>2026-04-26T09:54:27Z</time></trkpt><trkpt lat="38.07014073410498" lon="15.487152203268248"><ele>13.0</ele><time>2026-04-26T09:54:28Z</time></trkpt><trkpt lat="38.07000995114727" lon="15.48703349269141"><ele>13.0</ele><time>2026-04-26T09:54:29Z</time></trkpt><trkpt lat="38.0698701512286" lon="15.48689259801255"><ele>14.0</ele><time>2026-04-26T09:54:30Z</time></trkpt><trkpt lat="38.069726937599995" lon="15.486723223115208"><ele>15.0</ele><time>2026-04-26T09:54:31Z</time></trkpt><trkpt lat="38.06957521025767" lon="15.486536529189223"><ele>16.0</ele><time>2026-04-26T09:54:32Z</time></trkpt><trkpt lat="38.069406926011276" lon="15.486340223213547"><ele>15.0</ele><time>2026-04-26T09:54:33Z</time></trkpt><trkpt lat="38.06922382308196" lon="15.486115876316735"><ele>14.0</ele><time>2026-04-26T09:54:34Z</time></trkpt><trkpt lat="38.069036278789035" lon="15.485860806223378"><ele>14.0</ele><time>2026-04-26T09:54:35Z</time></trkpt><trkpt lat="38.06886122415059" lon="15.485609882496407"><ele>14.0</ele><time>2026-04-26T09:54:36Z</time></trkpt><trkpt lat="38.06868155586235" lon="15.48535340196416"><ele>15.0</ele><time>2026-04-26T09:54:37Z</time></trkpt><trkpt lat="38.06850418232265" lon="15.485095419625866"><ele>16.0</ele><time>2026-04-26T09:54:38Z</time></trkpt><trkpt lat="38.068321867177055" lon="15.484830367866577"><ele>15.0</ele><time>2026-04-26T09:54:39Z</time></trkpt><trkpt lat="38.06814155030732" lon="15.484566593597409"><ele>14.0</ele><time>2026-04-26T09:54:40Z</time></trkpt><trkpt lat="38.06796150998662" lon="15.484305085084786"><ele>14.0</ele><time>2026-04-26T09:54:41Z</time></trkpt><trkpt lat="38.0677859380531" lon="15.484053085388618"><ele>14.0</ele><time>2026-04-26T09:54:42Z</time></trkpt><trkpt lat="38.06761534218279" lon="15.483804785161208"><ele>13.5</ele><time>2026-04-26T09:54:43Z</time></trkpt><trkpt lat="38.06744222457769" lon="15.483556688664958"><ele>13.0</ele><time>2026-04-26T09:54:44Z</time></trkpt><trkpt lat="38.06726715060361" lon="15.483315747036542"><ele>13.0</ele><time>2026-04-26T09:54:45Z</time></trkpt><trkpt lat="38.06709141093318" lon="15.483066169377008"><ele>13.0</ele><time>2026-04-26T09:54:46Z</time></trkpt><trkpt lat="38.06691979572816" lon="15.482804662540232"><ele>12.5</ele><time>2026-04-26T09:54:47Z</time></trkpt><trkpt lat="38.066751932155064" lon="15.482543356340452"><ele>12.0</ele><time>2026-04-26T09:54:48Z</time></trkpt><trkpt lat="38.066580117221086" lon="15.482298486880886"><ele>13.5</ele><time>2026-04-26T09:54:49Z</time></trkpt><trkpt lat="38.06641558893084" lon="15.482072036611646"><ele>15.0</ele><time>2026-04-26T09:54:50Z</time></trkpt><trkpt lat="38.066250623504104" lon="15.481861296058248"><ele>15.0</ele><time>2026-04-26T09:54:51Z</time></trkpt><trkpt lat="38.06608145309653" lon="15.481673271756518"><ele>15.0</ele><time>2026-04-26T09:54:52Z</time></trkpt><trkpt lat="38.06590668996969" lon="15.48149566254777"><ele>15.0</ele><time>2026-04-26T09:54:53Z</time></trkpt><trkpt lat="38.065719618048995" lon="15.481331467780308"><ele>15.0</ele><time>2026-04-26T09:54:54Z</time></trkpt><trkpt lat="38.06552701071594" lon="15.481191553636574"><ele>15.0</ele><time>2026-04-26T09:54:55Z</time></trkpt><trkpt lat="38.06533023686777" lon="15.48107904483736"><ele>15.0</ele><time>2026-04-26T09:54:56Z</time></trkpt><trkpt lat="38.06512703074452" lon="15.480943053315027"><ele>14.0</ele><time>2026-04-26T09:54:57Z</time></trkpt><trkpt lat="38.06492521548078" lon="15.480789974328797"><ele>13.0</ele><time>2026-04-26T09:54:58Z</time></trkpt><trkpt lat="38.06471740734376" lon="15.48064050948495"><ele>13.0</ele><time>2026-04-26T09:54:59Z</time></trkpt><trkpt lat="38.06451499642647" lon="15.480496464331017"><ele>13.0</ele><time>2026-04-26T09:55:00Z</time></trkpt><trkpt lat="38.064307558459156" lon="15.480349558272964"><ele>12.5</ele><time>2026-04-26T09:55:01Z</time></trkpt><trkpt lat="38.06409135045755" lon="15.48020010082211"><ele>12.0</ele><time>2026-04-26T09:55:02Z</time></trkpt><trkpt lat="38.063867083591084" lon="15.480044696883258"><ele>12.0</ele><time>2026-04-26T09:55:03Z</time></trkpt><trkpt lat="38.063641260499175" lon="15.47988220376267"><ele>12.0</ele><time>2026-04-26T09:55:04Z</time></trkpt><trkpt lat="38.0634135305623" lon="15.479734690605579"><ele>14.5</ele><time>2026-04-26T09:55:05Z</time></trkpt><trkpt lat="38.063196749927215" lon="15.479597706536802"><ele>17.0</ele><time>2026-04-26T09:55:06Z</time></trkpt><trkpt lat="38.06299185173134" lon="15.47945036903391"><ele>17.0</ele><time>2026-04-26T09:55:07Z</time></trkpt><trkpt lat="38.0628030963222" lon="15.479310355362788"><ele>17.0</ele><time>2026-04-26T09:55:08Z</time></trkpt><trkpt lat="38.062618283069845" lon="15.479187588122238"><ele>17.0</ele><time>2026-04-26T09:55:09Z</time></trkpt><trkpt lat="38.06242121206148" lon="15.479065172930225"><ele>17.0</ele><time>2026-04-26T09:55:10Z</time></trkpt><trkpt lat="38.06222625022929" lon="15.47893752996359"><ele>17.0</ele><time>2026-04-26T09:55:11Z</time></trkpt><trkpt lat="38.062030184349055" lon="15.478810741630074"><ele>17.0</ele><time>2026-04-26T09:55:12Z</time></trkpt><trkpt lat="38.06182575912473" lon="15.478692242990155"><ele>16.666666666666668</ele><time>2026-04-26T09:55:13Z</time></trkpt><trkpt lat="38.06162504778022" lon="15.478573225247166"><ele>16.333333333333332</ele><time>2026-04-26T09:55:14Z</time></trkpt><trkpt lat="38.06141747636495" lon="15.478456997035984"><ele>16.0</ele><time>2026-04-26T09:55:15Z</time></trkpt><trkpt lat="38.06121096539493" lon="15.47833912068786"><ele>16.0</ele><time>2026-04-26T09:55:16Z</time></trkpt><trkpt lat="38.06100800821335" lon="15.478224401352593"><ele>16.0</ele><time>2026-04-26T09:55:17Z</time></trkpt><trkpt lat="38.06081284497877" lon="15.478116159240116"><ele>16.0</ele><time>2026-04-26T09:55:18Z</time></trkpt><trkpt lat="38.060626918777764" lon="15.478019397481155"><ele>17.0</ele><time>2026-04-26T09:55:19Z</time></trkpt><trkpt lat="38.060447375521505" lon="15.477936006365898"><ele>18.0</ele><time>2026-04-26T09:55:20Z</time></trkpt><trkpt lat="38.06026781639642" lon="15.477880824809176"><ele>19.0</ele><time>2026-04-26T09:55:21Z</time></trkpt><trkpt lat="38.060072377489256" lon="15.477860505910044"><ele>18.333333333333332</ele><time>2026-04-26T09:55:22Z</time></trkpt><trkpt lat="38.05986583971652" lon="15.477881476059048"><ele>17.666666666666668</ele><time>2026-04-26T09:55:23Z</time></trkpt><trkpt lat="38.05964970082413" lon="15.477905450294026"><ele>17.0</ele><time>2026-04-26T09:55:24Z</time></trkpt><trkpt lat="38.059455078511796" lon="15.47787871787524"><ele>17.0</ele><time>2026-04-26T09:55:25Z</time></trkpt><trkpt lat="38.05929805385373" lon="15.477842230208505"><ele>17.0</ele><time>2026-04-26T09:55:26Z</time></trkpt><trkpt lat="38.0591812279406" lon="15.477831321592937"><ele>17.0</ele><time>2026-04-26T09:55:27Z</time></trkpt><trkpt lat="38.059070357635235" lon="15.477801951740851"><ele>17.0</ele><time>2026-04-26T09:55:28Z</time></trkpt><trkpt lat="38.05896669586852" lon="15.477781812488487"><ele>16.0</ele><time>2026-04-26T09:55:29Z</time></trkpt><trkpt lat="38.05884797835839" lon="15.477773162136026"><ele>15.0</ele><time>2026-04-26T09:55:30Z</time></trkpt><trkpt lat="38.05870183237941" lon="15.477750353338278"><ele>14.0</ele><time>2026-04-26T09:55:31Z</time></trkpt><trkpt lat="38.05853839567045" lon="15.47770955149768"><ele>13.0</ele><time>2026-04-26T09:55:32Z</time></trkpt><trkpt lat="38.05836576648433" lon="15.477663350986719"><ele>13.666666666666666</ele><time>2026-04-26T09:55:33Z</time></trkpt><trkpt lat="38.058189163697094" lon="15.477620495670381"><ele>14.333333333333332</ele><time>2026-04-26T09:55:34Z</time></trkpt><trkpt lat="38.05801652569987" lon="15.47758108643631"><ele>15.0</ele><time>2026-04-26T09:55:35Z</time></trkpt><trkpt lat="38.057843919789306" lon="15.477536594068358"><ele>15.0</ele><time>2026-04-26T09:55:36Z</time></trkpt><trkpt lat="38.05767154974189" lon="15.47745330476995"><ele>15.0</ele><time>2026-04-26T09:55:37Z</time></trkpt><trkpt lat="38.05751418530248" lon="15.477321699724243"><ele>15.0</ele><time>2026-04-26T09:55:38Z</time></trkpt><trkpt lat="38.05735855133155" lon="15.477175497734303"><ele>15.666666666666668</ele><time>2026-04-26T09:55:39Z</time></trkpt><trkpt lat="38.05717353424439" lon="15.477084720339255"><ele>16.333333333333336</ele><time>2026-04-26T09:55:40Z</time></trkpt><trkpt lat="38.05697470257854" lon="15.477063481850218"><ele>17.0</ele><time>2026-04-26T09:55:41Z</time></trkpt><trkpt lat="38.05675350417661" lon="15.477105651475545"><ele>22.333333333333336</ele><time>2026-04-26T09:55:42Z</time></trkpt><trkpt lat="38.05656463908355" lon="15.477102350757775"><ele>27.666666666666668</ele><time>2026-04-26T09:55:43Z</time></trkpt><trkpt lat="38.056348334655354" lon="15.477067129093102"><ele>33.0</ele><time>2026-04-26T09:55:44Z</time></trkpt><trkpt lat="38.05612041578163" lon="15.477032832255494"><ele>33.0</ele><time>2026-04-26T09:55:45Z</time></trkpt><trkpt lat="38.05589940960062" lon="15.476983042556345"><ele>33.0</ele><time>2026-04-26T09:55:46Z</time></trkpt><trkpt lat="38.05567989172238" lon="15.476913247128948"><ele>30.666666666666664</ele><time>2026-04-26T09:55:47Z</time></trkpt><trkpt lat="38.05547165777136" lon="15.476851263185258"><ele>28.333333333333332</ele><time>2026-04-26T09:55:48Z</time></trkpt><trkpt lat="38.05526929778401" lon="15.476753042376517"><ele>26.0</ele><time>2026-04-26T09:55:49Z</time></trkpt><trkpt lat="38.0550795377424" lon="15.476611296915406"><ele>20.0</ele><time>2026-04-26T09:55:50Z</time></trkpt><trkpt lat="38.05487465331116" lon="15.476474752159803"><ele>14.0</ele><time>2026-04-26T09:55:51Z</time></trkpt><trkpt lat="38.054654788239816" lon="15.476375452356342"><ele>14.0</ele><time>2026-04-26T09:55:52Z</time></trkpt><trkpt lat="38.05444988999728" lon="15.476288445012326"><ele>14.0</ele><time>2026-04-26T09:55:53Z</time></trkpt><trkpt lat="38.05426498362882" lon="15.476181612363419"><ele>14.0</ele><time>2026-04-26T09:55:54Z</time></trkpt><trkpt lat="38.05409834148151" lon="15.476054381645783"><ele>12.0</ele><time>2026-04-26T09:55:55Z</time></trkpt><trkpt lat="38.05394560098294" lon="15.475937914317967"><ele>10.0</ele><time>2026-04-26T09:55:56Z</time></trkpt><trkpt lat="38.05382516385585" lon="15.475798840961772"><ele>8.0</ele><time>2026-04-26T09:55:57Z</time></trkpt><trkpt lat="38.05373396746593" lon="15.4756167022676"><ele>16.0</ele><time>2026-04-26T09:55:58Z</time></trkpt><trkpt lat="38.053662698729696" lon="15.475398486872324"><ele>24.0</ele><time>2026-04-26T09:55:59Z</time></trkpt><trkpt lat="38.05352559027867" lon="15.475204135921937"><ele>32.0</ele><time>2026-04-26T09:56:00Z</time></trkpt><trkpt lat="38.05335869769124" lon="15.475056989881843"><ele>28.333333333333332</ele><time>2026-04-26T09:56:01Z</time></trkpt><trkpt lat="38.05318397160606" lon="15.474926980783453"><ele>24.666666666666664</ele><time>2026-04-26T09:56:02Z</time></trkpt><trkpt lat="38.0530287709056" lon="15.47477462007676"><ele>21.0</ele><time>2026-04-26T09:56:03Z</time></trkpt><trkpt lat="38.05290402787803" lon="15.474600943117327"><ele>21.0</ele><time>2026-04-26T09:56:04Z</time></trkpt><trkpt lat="38.052784399917385" lon="15.474441016759846"><ele>21.0</ele><time>2026-04-26T09:56:05Z</time></trkpt><trkpt lat="38.052669550900006" lon="15.474278759109849"><ele>21.0</ele><time>2026-04-26T09:56:06Z</time></trkpt><trkpt lat="38.052557831100756" lon="15.47412544138281"><ele>17.75</ele><time>2026-04-26T09:56:07Z</time></trkpt><trkpt lat="38.05245579929193" lon="15.473979869306788"><ele>14.5</ele><time>2026-04-26T09:56:08Z</time></trkpt><trkpt lat="38.05237143194828" lon="15.473834629115252"><ele>11.25</ele><time>2026-04-26T09:56:09Z</time></trkpt><trkpt lat="38.05229850475427" lon="15.47369660951219"><ele>8.0</ele><time>2026-04-26T09:56:10Z</time></trkpt><trkpt lat="38.052246998908124" lon="15.473578578053806"><ele>8.0</ele><time>2026-04-26T09:56:11Z</time></trkpt><trkpt lat="38.05219374927462" lon="15.473461056288528"><ele>8.0</ele><time>2026-04-26T09:56:12Z</time></trkpt><trkpt lat="38.05212420710112" lon="15.473346782453936"><ele>8.0</ele><time>2026-04-26T09:56:13Z</time></trkpt><trkpt lat="38.052013636147024" lon="15.473207345736405"><ele>8.0</ele><time>2026-04-26T09:56:14Z</time></trkpt><trkpt lat="38.051892723444105" lon="15.473049820530123"><ele>8.0</ele><time>2026-04-26T09:56:15Z</time></trkpt><trkpt lat="38.05175754322083" lon="15.472862010859888"><ele>8.0</ele><time>2026-04-26T09:56:16Z</time></trkpt><trkpt lat="38.05161628157222" lon="15.472656156974468"><ele>8.0</ele><time>2026-04-26T09:56:17Z</time></trkpt><trkpt lat="38.05145796019869" lon="15.472425660148675"><ele>8.0</ele><time>2026-04-26T09:56:18Z</time></trkpt><trkpt lat="38.05129781276928" lon="15.472156571505193"><ele>8.0</ele><time>2026-04-26T09:56:19Z</time></trkpt><trkpt lat="38.05113677865222" lon="15.47190071462502"><ele>12.5</ele><time>2026-04-26T09:56:20Z</time></trkpt><trkpt lat="38.05098690386305" lon="15.471658058566987"><ele>17.0</ele><time>2026-04-26T09:56:21Z</time></trkpt><trkpt lat="38.05084535751443" lon="15.47142534299408"><ele>15.666666666666668</ele><time>2026-04-26T09:56:22Z</time></trkpt><trkpt lat="38.050702678360864" lon="15.471223124109855"><ele>14.333333333333332</ele><time>2026-04-26T09:56:23Z</time></trkpt><trkpt lat="38.05056449636028" lon="15.471020149184813"><ele>13.0</ele><time>2026-04-26T09:56:24Z</time></trkpt><trkpt lat="38.050427314644814" lon="15.470811342094544"><ele>13.0</ele><time>2026-04-26T09:56:25Z</time></trkpt><trkpt lat="38.05028502983533" lon="15.470604182513915"><ele>13.0</ele><time>2026-04-26T09:56:26Z</time></trkpt><trkpt lat="38.05014312136377" lon="15.470394100160476"><ele>13.0</ele><time>2026-04-26T09:56:27Z</time></trkpt><trkpt lat="38.04998299424066" lon="15.47020498083443"><ele>11.333333333333332</ele><time>2026-04-26T09:56:28Z</time></trkpt><trkpt lat="38.04982858433332" lon="15.47000899107928"><ele>9.666666666666666</ele><time>2026-04-26T09:56:29Z</time></trkpt><trkpt lat="38.04968393398791" lon="15.469817653380016"><ele>8.0</ele><time>2026-04-26T09:56:30Z</time></trkpt><trkpt lat="38.04953889255" lon="15.469617550517635"><ele>11.333333333333332</ele><time>2026-04-26T09:56:31Z</time></trkpt><trkpt lat="38.049392788277224" lon="15.469406762184779"><ele>14.666666666666666</ele><time>2026-04-26T09:56:32Z</time></trkpt><trkpt lat="38.049256402833684" lon="15.46921082934968"><ele>18.0</ele><time>2026-04-26T09:56:33Z</time></trkpt><trkpt lat="38.04913010496183" lon="15.469014729705238"><ele>16.666666666666668</ele><time>2026-04-26T09:56:34Z</time></trkpt><trkpt lat="38.04901244582163" lon="15.468822206385017"><ele>15.333333333333334</ele><time>2026-04-26T09:56:35Z</time></trkpt><trkpt lat="38.04890328843263" lon="15.46866070594885"><ele>14.0</ele><time>2026-04-26T09:56:36Z</time></trkpt><trkpt lat="38.04880143743813" lon="15.468498838521825"><ele>14.0</ele><time>2026-04-26T09:56:37Z</time></trkpt><trkpt lat="38.04870153944419" lon="15.468327731950787"><ele>14.0</ele><time>2026-04-26T09:56:38Z</time></trkpt><trkpt lat="38.04859117753544" lon="15.468158903310723"><ele>14.0</ele><time>2026-04-26T09:56:39Z</time></trkpt><trkpt lat="38.04848013154589" lon="15.467987952741417"><ele>14.333333333333334</ele><time>2026-04-26T09:56:40Z</time></trkpt><trkpt lat="38.04836528414084" lon="15.4678162220781"><ele>14.666666666666668</ele><time>2026-04-26T09:56:41Z</time></trkpt><trkpt lat="38.04823831188526" lon="15.467651095289773"><ele>15.0</ele><time>2026-04-26T09:56:42Z</time></trkpt><trkpt lat="38.048101990024584" lon="15.467475577628052"><ele>15.0</ele><time>2026-04-26T09:56:43Z</time></trkpt><trkpt lat="38.047965829776274" lon="15.467284262852978"><ele>15.0</ele><time>2026-04-26T09:56:44Z</time></trkpt><trkpt lat="38.04781656150584" lon="15.467068602979698"><ele>15.0</ele><time>2026-04-26T09:56:45Z</time></trkpt><trkpt lat="38.0476841277371" lon="15.466794924049042"><ele>15.666666666666668</ele><time>2026-04-26T09:56:46Z</time></trkpt><trkpt lat="38.047543167066515" lon="15.466564959573764"><ele>16.333333333333336</ele><time>2026-04-26T09:56:47Z</time></trkpt><trkpt lat="38.04741109803324" lon="15.466357479945671"><ele>17.0</ele><time>2026-04-26T09:56:48Z</time></trkpt><trkpt lat="38.04729310117773" lon="15.466159494232214"><ele>17.0</ele><time>2026-04-26T09:56:49Z</time></trkpt><trkpt lat="38.04717399152478" lon="15.465980763154166"><ele>17.0</ele><time>2026-04-26T09:56:50Z</time></trkpt><trkpt lat="38.04706242215892" lon="15.465818704862087"><ele>17.0</ele><time>2026-04-26T09:56:51Z</time></trkpt><trkpt lat="38.046965479361376" lon="15.46565938375435"><ele>17.0</ele><time>2026-04-26T09:56:52Z</time></trkpt><trkpt lat="38.04687278140449" lon="15.465517747723188"><ele>17.0</ele><time>2026-04-26T09:56:53Z</time></trkpt><trkpt lat="38.046782186859375" lon="15.465405736827485"><ele>17.0</ele><time>2026-04-26T09:56:54Z</time></trkpt><trkpt lat="38.04670637034337" lon="15.465286801232054"><ele>17.0</ele><time>2026-04-26T09:56:55Z</time></trkpt><trkpt lat="38.04664655075248" lon="15.465188380010094"><ele>15.333333333333334</ele><time>2026-04-26T09:56:56Z</time></trkpt><trkpt lat="38.04660335904562" lon="15.46510093076171"><ele>13.666666666666668</ele><time>2026-04-26T09:56:57Z</time></trkpt><trkpt lat="38.04656455439717" lon="15.465037639979538"><ele>12.0</ele><time>2026-04-26T09:56:58Z</time></trkpt><trkpt lat="38.046500709626606" lon="15.464953274390135"><ele>10.333333333333334</ele><time>2026-04-26T09:57:00Z</time></trkpt><trkpt lat="38.04643842699159" lon="15.464910096029312"><ele>8.666666666666668</ele><time>2026-04-26T09:57:03Z</time></trkpt><trkpt lat="38.04639670656235" lon="15.464831309444287"><ele>7.0</ele><time>2026-04-26T09:57:06Z</time></trkpt><trkpt lat="38.046305316194946" lon="15.464803483059775"><ele>7.0</ele><time>2026-04-26T09:57:19Z</time></trkpt><trkpt lat="38.04628877979094" lon="15.46488498826763"><ele>7.0</ele><time>2026-04-26T09:59:31Z</time></trkpt><trkpt lat="38.04623994915153" lon="15.464945012575463"><ele>7.0</ele><time>2026-04-26T10:01:33Z</time></trkpt><trkpt lat="38.046302686365074" lon="15.464997490549063"><ele>7.0</ele><time>2026-04-26T10:04:19Z</time></trkpt></trkseg></trk></gpx>